<?xml version="1.0" encoding="UTF-8" standalone="no" ?>
<gpx xmlns="http://www.topografix.com/GPX/1/1" xmlns:xsi="http://www.w3.org/2001/XMLSchema-instance" xsi:schemaLocation="http://www.topografix.com/GPX/1/1 http://www.topografix.com/GPX/1/1/gpx.xsd" version="1.1" creator="VisuGPX - https://www.visugpx.com">
  <metadata>
    <name>1er jour briis poigny en 2013</name>
  </metadata>
  <trk>
    <name><![CDATA[1er jour briis poigny en 2013_1]]></name>
    <trkseg>
      <trkpt lat="48.61493" lon="2.10807">
        <ele>110</ele>
        <time>2013-08-17T07:05:38Z</time>
      </trkpt>
      <trkpt lat="48.61496" lon="2.10766">
        <ele>105</ele>
        <time>2013-08-17T07:06:03Z</time>
      </trkpt>
      <trkpt lat="48.61497" lon="2.10763">
        <ele>104</ele>
        <time>2013-08-17T07:06:05Z</time>
      </trkpt>
      <trkpt lat="48.61498" lon="2.10759">
        <ele>104</ele>
        <time>2013-08-17T07:06:07Z</time>
      </trkpt>
      <trkpt lat="48.61499" lon="2.10754">
        <ele>104</ele>
        <time>2013-08-17T07:06:09Z</time>
      </trkpt>
      <trkpt lat="48.61499" lon="2.10751">
        <ele>104</ele>
        <time>2013-08-17T07:06:11Z</time>
      </trkpt>
      <trkpt lat="48.615" lon="2.10746">
        <ele>104</ele>
        <time>2013-08-17T07:06:13Z</time>
      </trkpt>
      <trkpt lat="48.61501" lon="2.10742">
        <ele>104</ele>
        <time>2013-08-17T07:06:15Z</time>
      </trkpt>
      <trkpt lat="48.61502" lon="2.10739">
        <ele>104</ele>
        <time>2013-08-17T07:06:17Z</time>
      </trkpt>
      <trkpt lat="48.61504" lon="2.10735">
        <ele>104</ele>
        <time>2013-08-17T07:06:19Z</time>
      </trkpt>
      <trkpt lat="48.61504" lon="2.10732">
        <ele>104</ele>
        <time>2013-08-17T07:06:21Z</time>
      </trkpt>
      <trkpt lat="48.61506" lon="2.10729">
        <ele>104</ele>
        <time>2013-08-17T07:06:23Z</time>
      </trkpt>
      <trkpt lat="48.61507" lon="2.10725">
        <ele>104</ele>
        <time>2013-08-17T07:06:25Z</time>
      </trkpt>
      <trkpt lat="48.61508" lon="2.10722">
        <ele>104</ele>
        <time>2013-08-17T07:06:27Z</time>
      </trkpt>
      <trkpt lat="48.61508" lon="2.10717">
        <ele>104</ele>
        <time>2013-08-17T07:06:30Z</time>
      </trkpt>
      <trkpt lat="48.61508" lon="2.10714">
        <ele>104</ele>
        <time>2013-08-17T07:06:32Z</time>
      </trkpt>
      <trkpt lat="48.61505" lon="2.1071">
        <ele>104</ele>
        <time>2013-08-17T07:06:35Z</time>
      </trkpt>
      <trkpt lat="48.61503" lon="2.10707">
        <ele>104</ele>
        <time>2013-08-17T07:06:37Z</time>
      </trkpt>
      <trkpt lat="48.615" lon="2.10705">
        <ele>104</ele>
        <time>2013-08-17T07:06:39Z</time>
      </trkpt>
      <trkpt lat="48.61498" lon="2.10704">
        <ele>104</ele>
        <time>2013-08-17T07:06:41Z</time>
      </trkpt>
      <trkpt lat="48.61496" lon="2.10702">
        <ele>104</ele>
        <time>2013-08-17T07:06:43Z</time>
      </trkpt>
      <trkpt lat="48.61493" lon="2.10701">
        <ele>104</ele>
        <time>2013-08-17T07:06:45Z</time>
      </trkpt>
      <trkpt lat="48.61491" lon="2.10699">
        <ele>104</ele>
        <time>2013-08-17T07:06:47Z</time>
      </trkpt>
      <trkpt lat="48.61487" lon="2.10696">
        <ele>104</ele>
        <time>2013-08-17T07:06:50Z</time>
      </trkpt>
      <trkpt lat="48.61484" lon="2.10694">
        <ele>104</ele>
        <time>2013-08-17T07:06:52Z</time>
      </trkpt>
      <trkpt lat="48.61482" lon="2.10691">
        <ele>104</ele>
        <time>2013-08-17T07:06:54Z</time>
      </trkpt>
      <trkpt lat="48.61478" lon="2.10688">
        <ele>104</ele>
        <time>2013-08-17T07:06:57Z</time>
      </trkpt>
      <trkpt lat="48.61476" lon="2.10686">
        <ele>104</ele>
        <time>2013-08-17T07:06:59Z</time>
      </trkpt>
      <trkpt lat="48.61474" lon="2.10683">
        <ele>104</ele>
        <time>2013-08-17T07:07:01Z</time>
      </trkpt>
      <trkpt lat="48.61471" lon="2.10679">
        <ele>104</ele>
        <time>2013-08-17T07:07:04Z</time>
      </trkpt>
      <trkpt lat="48.61469" lon="2.10676">
        <ele>104</ele>
        <time>2013-08-17T07:07:06Z</time>
      </trkpt>
      <trkpt lat="48.61466" lon="2.10673">
        <ele>104</ele>
        <time>2013-08-17T07:07:08Z</time>
      </trkpt>
      <trkpt lat="48.61463" lon="2.10668">
        <ele>104</ele>
        <time>2013-08-17T07:07:11Z</time>
      </trkpt>
      <trkpt lat="48.61461" lon="2.10665">
        <ele>104</ele>
        <time>2013-08-17T07:07:13Z</time>
      </trkpt>
      <trkpt lat="48.61459" lon="2.10662">
        <ele>104</ele>
        <time>2013-08-17T07:07:15Z</time>
      </trkpt>
      <trkpt lat="48.61457" lon="2.1066">
        <ele>104</ele>
        <time>2013-08-17T07:07:17Z</time>
      </trkpt>
      <trkpt lat="48.61455" lon="2.10657">
        <ele>104</ele>
        <time>2013-08-17T07:07:19Z</time>
      </trkpt>
      <trkpt lat="48.61453" lon="2.10655">
        <ele>104</ele>
        <time>2013-08-17T07:07:21Z</time>
      </trkpt>
      <trkpt lat="48.61451" lon="2.10652">
        <ele>104</ele>
        <time>2013-08-17T07:07:23Z</time>
      </trkpt>
      <trkpt lat="48.61449" lon="2.10649">
        <ele>104</ele>
        <time>2013-08-17T07:07:25Z</time>
      </trkpt>
      <trkpt lat="48.61448" lon="2.10646">
        <ele>104</ele>
        <time>2013-08-17T07:07:27Z</time>
      </trkpt>
      <trkpt lat="48.61446" lon="2.10644">
        <ele>104</ele>
        <time>2013-08-17T07:07:29Z</time>
      </trkpt>
      <trkpt lat="48.61443" lon="2.10641">
        <ele>104</ele>
        <time>2013-08-17T07:07:31Z</time>
      </trkpt>
      <trkpt lat="48.61442" lon="2.10637">
        <ele>104</ele>
        <time>2013-08-17T07:07:33Z</time>
      </trkpt>
      <trkpt lat="48.6144" lon="2.10635">
        <ele>104</ele>
        <time>2013-08-17T07:07:35Z</time>
      </trkpt>
      <trkpt lat="48.61438" lon="2.10632">
        <ele>104</ele>
        <time>2013-08-17T07:07:37Z</time>
      </trkpt>
      <trkpt lat="48.61436" lon="2.10629">
        <ele>104</ele>
        <time>2013-08-17T07:07:39Z</time>
      </trkpt>
      <trkpt lat="48.61433" lon="2.10626">
        <ele>104</ele>
        <time>2013-08-17T07:07:41Z</time>
      </trkpt>
      <trkpt lat="48.61432" lon="2.10623">
        <ele>104</ele>
        <time>2013-08-17T07:07:43Z</time>
      </trkpt>
      <trkpt lat="48.61428" lon="2.10618">
        <ele>104</ele>
        <time>2013-08-17T07:07:46Z</time>
      </trkpt>
      <trkpt lat="48.61427" lon="2.10615">
        <ele>104</ele>
        <time>2013-08-17T07:07:48Z</time>
      </trkpt>
      <trkpt lat="48.61424" lon="2.10611">
        <ele>104</ele>
        <time>2013-08-17T07:07:51Z</time>
      </trkpt>
      <trkpt lat="48.61421" lon="2.10606">
        <ele>104</ele>
        <time>2013-08-17T07:07:54Z</time>
      </trkpt>
      <trkpt lat="48.61419" lon="2.10602">
        <ele>104</ele>
        <time>2013-08-17T07:07:56Z</time>
      </trkpt>
      <trkpt lat="48.61417" lon="2.10599">
        <ele>104</ele>
        <time>2013-08-17T07:07:58Z</time>
      </trkpt>
      <trkpt lat="48.61415" lon="2.10596">
        <ele>104</ele>
        <time>2013-08-17T07:08:00Z</time>
      </trkpt>
      <trkpt lat="48.61411" lon="2.1059">
        <ele>104</ele>
        <time>2013-08-17T07:08:04Z</time>
      </trkpt>
      <trkpt lat="48.61409" lon="2.10584">
        <ele>104</ele>
        <time>2013-08-17T07:08:07Z</time>
      </trkpt>
      <trkpt lat="48.61409" lon="2.1058">
        <ele>104</ele>
        <time>2013-08-17T07:08:09Z</time>
      </trkpt>
      <trkpt lat="48.61409" lon="2.10576">
        <ele>104</ele>
        <time>2013-08-17T07:08:11Z</time>
      </trkpt>
      <trkpt lat="48.61408" lon="2.10572">
        <ele>104</ele>
        <time>2013-08-17T07:08:13Z</time>
      </trkpt>
      <trkpt lat="48.61408" lon="2.10568">
        <ele>104</ele>
        <time>2013-08-17T07:08:15Z</time>
      </trkpt>
      <trkpt lat="48.61408" lon="2.10564">
        <ele>104</ele>
        <time>2013-08-17T07:08:17Z</time>
      </trkpt>
      <trkpt lat="48.61408" lon="2.1056">
        <ele>104</ele>
        <time>2013-08-17T07:08:19Z</time>
      </trkpt>
      <trkpt lat="48.61409" lon="2.10555">
        <ele>104</ele>
        <time>2013-08-17T07:08:22Z</time>
      </trkpt>
      <trkpt lat="48.61409" lon="2.10551">
        <ele>104</ele>
        <time>2013-08-17T07:08:24Z</time>
      </trkpt>
      <trkpt lat="48.61409" lon="2.10547">
        <ele>104</ele>
        <time>2013-08-17T07:08:26Z</time>
      </trkpt>
      <trkpt lat="48.6141" lon="2.10543">
        <ele>104</ele>
        <time>2013-08-17T07:08:28Z</time>
      </trkpt>
      <trkpt lat="48.61411" lon="2.10537">
        <ele>104</ele>
        <time>2013-08-17T07:08:31Z</time>
      </trkpt>
      <trkpt lat="48.61412" lon="2.10533">
        <ele>104</ele>
        <time>2013-08-17T07:08:33Z</time>
      </trkpt>
      <trkpt lat="48.61412" lon="2.10529">
        <ele>104</ele>
        <time>2013-08-17T07:08:35Z</time>
      </trkpt>
      <trkpt lat="48.61413" lon="2.10525">
        <ele>104</ele>
        <time>2013-08-17T07:08:37Z</time>
      </trkpt>
      <trkpt lat="48.61414" lon="2.10522">
        <ele>104</ele>
        <time>2013-08-17T07:08:39Z</time>
      </trkpt>
      <trkpt lat="48.61414" lon="2.10518">
        <ele>104</ele>
        <time>2013-08-17T07:08:41Z</time>
      </trkpt>
      <trkpt lat="48.61415" lon="2.10513">
        <ele>104</ele>
        <time>2013-08-17T07:08:43Z</time>
      </trkpt>
      <trkpt lat="48.61415" lon="2.10509">
        <ele>104</ele>
        <time>2013-08-17T07:08:45Z</time>
      </trkpt>
      <trkpt lat="48.61416" lon="2.10504">
        <ele>104</ele>
        <time>2013-08-17T07:08:47Z</time>
      </trkpt>
      <trkpt lat="48.61418" lon="2.10499">
        <ele>104</ele>
        <time>2013-08-17T07:08:49Z</time>
      </trkpt>
      <trkpt lat="48.6142" lon="2.10495">
        <ele>104</ele>
        <time>2013-08-17T07:08:51Z</time>
      </trkpt>
      <trkpt lat="48.61422" lon="2.10491">
        <ele>104</ele>
        <time>2013-08-17T07:08:53Z</time>
      </trkpt>
      <trkpt lat="48.61423" lon="2.10488">
        <ele>104</ele>
        <time>2013-08-17T07:08:55Z</time>
      </trkpt>
      <trkpt lat="48.61425" lon="2.10485">
        <ele>104</ele>
        <time>2013-08-17T07:08:57Z</time>
      </trkpt>
      <trkpt lat="48.61426" lon="2.10481">
        <ele>104</ele>
        <time>2013-08-17T07:08:59Z</time>
      </trkpt>
      <trkpt lat="48.61428" lon="2.10476">
        <ele>104</ele>
        <time>2013-08-17T07:09:01Z</time>
      </trkpt>
      <trkpt lat="48.6143" lon="2.10472">
        <ele>104</ele>
        <time>2013-08-17T07:09:03Z</time>
      </trkpt>
      <trkpt lat="48.61432" lon="2.10469">
        <ele>104</ele>
        <time>2013-08-17T07:09:05Z</time>
      </trkpt>
      <trkpt lat="48.61433" lon="2.10465">
        <ele>104</ele>
        <time>2013-08-17T07:09:07Z</time>
      </trkpt>
      <trkpt lat="48.61435" lon="2.10461">
        <ele>104</ele>
        <time>2013-08-17T07:09:09Z</time>
      </trkpt>
      <trkpt lat="48.61437" lon="2.10457">
        <ele>105</ele>
        <time>2013-08-17T07:09:11Z</time>
      </trkpt>
      <trkpt lat="48.61438" lon="2.10454">
        <ele>105</ele>
        <time>2013-08-17T07:09:13Z</time>
      </trkpt>
      <trkpt lat="48.6144" lon="2.1045">
        <ele>105</ele>
        <time>2013-08-17T07:09:15Z</time>
      </trkpt>
      <trkpt lat="48.61442" lon="2.10446">
        <ele>105</ele>
        <time>2013-08-17T07:09:17Z</time>
      </trkpt>
      <trkpt lat="48.61444" lon="2.10442">
        <ele>105</ele>
        <time>2013-08-17T07:09:19Z</time>
      </trkpt>
      <trkpt lat="48.61446" lon="2.1044">
        <ele>105</ele>
        <time>2013-08-17T07:09:21Z</time>
      </trkpt>
      <trkpt lat="48.61448" lon="2.10437">
        <ele>105</ele>
        <time>2013-08-17T07:09:23Z</time>
      </trkpt>
      <trkpt lat="48.6145" lon="2.10434">
        <ele>105</ele>
        <time>2013-08-17T07:09:25Z</time>
      </trkpt>
      <trkpt lat="48.61452" lon="2.1043">
        <ele>105</ele>
        <time>2013-08-17T07:09:27Z</time>
      </trkpt>
      <trkpt lat="48.61454" lon="2.10427">
        <ele>105</ele>
        <time>2013-08-17T07:09:29Z</time>
      </trkpt>
      <trkpt lat="48.61456" lon="2.10424">
        <ele>105</ele>
        <time>2013-08-17T07:09:31Z</time>
      </trkpt>
      <trkpt lat="48.61458" lon="2.10419">
        <ele>105</ele>
        <time>2013-08-17T07:09:34Z</time>
      </trkpt>
      <trkpt lat="48.6146" lon="2.10415">
        <ele>105</ele>
        <time>2013-08-17T07:09:36Z</time>
      </trkpt>
      <trkpt lat="48.61463" lon="2.10412">
        <ele>105</ele>
        <time>2013-08-17T07:09:38Z</time>
      </trkpt>
      <trkpt lat="48.61465" lon="2.10409">
        <ele>105</ele>
        <time>2013-08-17T07:09:40Z</time>
      </trkpt>
      <trkpt lat="48.61468" lon="2.10405">
        <ele>106</ele>
        <time>2013-08-17T07:09:43Z</time>
      </trkpt>
      <trkpt lat="48.6147" lon="2.10402">
        <ele>106</ele>
        <time>2013-08-17T07:09:45Z</time>
      </trkpt>
      <trkpt lat="48.61472" lon="2.10399">
        <ele>106</ele>
        <time>2013-08-17T07:09:47Z</time>
      </trkpt>
      <trkpt lat="48.61474" lon="2.10396">
        <ele>106</ele>
        <time>2013-08-17T07:09:49Z</time>
      </trkpt>
      <trkpt lat="48.61476" lon="2.10392">
        <ele>106</ele>
        <time>2013-08-17T07:09:51Z</time>
      </trkpt>
      <trkpt lat="48.61478" lon="2.10389">
        <ele>107</ele>
        <time>2013-08-17T07:09:53Z</time>
      </trkpt>
      <trkpt lat="48.6148" lon="2.10385">
        <ele>107</ele>
        <time>2013-08-17T07:09:55Z</time>
      </trkpt>
      <trkpt lat="48.61482" lon="2.10382">
        <ele>107</ele>
        <time>2013-08-17T07:09:57Z</time>
      </trkpt>
      <trkpt lat="48.61484" lon="2.10379">
        <ele>107</ele>
        <time>2013-08-17T07:09:59Z</time>
      </trkpt>
      <trkpt lat="48.61485" lon="2.10376">
        <ele>107</ele>
        <time>2013-08-17T07:10:01Z</time>
      </trkpt>
      <trkpt lat="48.61487" lon="2.10373">
        <ele>107</ele>
        <time>2013-08-17T07:10:03Z</time>
      </trkpt>
      <trkpt lat="48.61489" lon="2.10369">
        <ele>107</ele>
        <time>2013-08-17T07:10:05Z</time>
      </trkpt>
      <trkpt lat="48.61491" lon="2.10366">
        <ele>107</ele>
        <time>2013-08-17T07:10:07Z</time>
      </trkpt>
      <trkpt lat="48.61494" lon="2.10362">
        <ele>107</ele>
        <time>2013-08-17T07:10:10Z</time>
      </trkpt>
      <trkpt lat="48.61495" lon="2.10359">
        <ele>107</ele>
        <time>2013-08-17T07:10:12Z</time>
      </trkpt>
      <trkpt lat="48.61497" lon="2.10356">
        <ele>107</ele>
        <time>2013-08-17T07:10:14Z</time>
      </trkpt>
      <trkpt lat="48.61499" lon="2.10353">
        <ele>107</ele>
        <time>2013-08-17T07:10:16Z</time>
      </trkpt>
      <trkpt lat="48.615" lon="2.10349">
        <ele>107</ele>
        <time>2013-08-17T07:10:18Z</time>
      </trkpt>
      <trkpt lat="48.61503" lon="2.10344">
        <ele>107</ele>
        <time>2013-08-17T07:10:21Z</time>
      </trkpt>
      <trkpt lat="48.61504" lon="2.10341">
        <ele>107</ele>
        <time>2013-08-17T07:10:23Z</time>
      </trkpt>
      <trkpt lat="48.61506" lon="2.10337">
        <ele>108</ele>
        <time>2013-08-17T07:10:25Z</time>
      </trkpt>
      <trkpt lat="48.61507" lon="2.10334">
        <ele>108</ele>
        <time>2013-08-17T07:10:27Z</time>
      </trkpt>
      <trkpt lat="48.61509" lon="2.10331">
        <ele>108</ele>
        <time>2013-08-17T07:10:29Z</time>
      </trkpt>
      <trkpt lat="48.6151" lon="2.10327">
        <ele>108</ele>
        <time>2013-08-17T07:10:31Z</time>
      </trkpt>
      <trkpt lat="48.61511" lon="2.10323">
        <ele>108</ele>
        <time>2013-08-17T07:10:33Z</time>
      </trkpt>
      <trkpt lat="48.61513" lon="2.10318">
        <ele>108</ele>
        <time>2013-08-17T07:10:36Z</time>
      </trkpt>
      <trkpt lat="48.61514" lon="2.10314">
        <ele>108</ele>
        <time>2013-08-17T07:10:38Z</time>
      </trkpt>
      <trkpt lat="48.61515" lon="2.10311">
        <ele>108</ele>
        <time>2013-08-17T07:10:40Z</time>
      </trkpt>
      <trkpt lat="48.61517" lon="2.10307">
        <ele>109</ele>
        <time>2013-08-17T07:10:42Z</time>
      </trkpt>
      <trkpt lat="48.61518" lon="2.10303">
        <ele>109</ele>
        <time>2013-08-17T07:10:44Z</time>
      </trkpt>
      <trkpt lat="48.61519" lon="2.103">
        <ele>109</ele>
        <time>2013-08-17T07:10:46Z</time>
      </trkpt>
      <trkpt lat="48.61521" lon="2.10295">
        <ele>109</ele>
        <time>2013-08-17T07:10:49Z</time>
      </trkpt>
      <trkpt lat="48.61522" lon="2.10291">
        <ele>109</ele>
        <time>2013-08-17T07:10:51Z</time>
      </trkpt>
      <trkpt lat="48.61523" lon="2.10287">
        <ele>109</ele>
        <time>2013-08-17T07:10:53Z</time>
      </trkpt>
      <trkpt lat="48.61524" lon="2.10283">
        <ele>109</ele>
        <time>2013-08-17T07:10:55Z</time>
      </trkpt>
      <trkpt lat="48.61525" lon="2.10279">
        <ele>109</ele>
        <time>2013-08-17T07:10:57Z</time>
      </trkpt>
      <trkpt lat="48.61526" lon="2.10275">
        <ele>109</ele>
        <time>2013-08-17T07:10:59Z</time>
      </trkpt>
      <trkpt lat="48.61527" lon="2.10271">
        <ele>109</ele>
        <time>2013-08-17T07:11:01Z</time>
      </trkpt>
      <trkpt lat="48.61528" lon="2.10267">
        <ele>109</ele>
        <time>2013-08-17T07:11:03Z</time>
      </trkpt>
      <trkpt lat="48.6153" lon="2.10263">
        <ele>109</ele>
        <time>2013-08-17T07:11:05Z</time>
      </trkpt>
      <trkpt lat="48.6153" lon="2.1026">
        <ele>109</ele>
        <time>2013-08-17T07:11:07Z</time>
      </trkpt>
      <trkpt lat="48.61531" lon="2.10256">
        <ele>109</ele>
        <time>2013-08-17T07:11:09Z</time>
      </trkpt>
      <trkpt lat="48.61533" lon="2.1025">
        <ele>109</ele>
        <time>2013-08-17T07:11:12Z</time>
      </trkpt>
      <trkpt lat="48.61535" lon="2.10246">
        <ele>109</ele>
        <time>2013-08-17T07:11:14Z</time>
      </trkpt>
      <trkpt lat="48.61536" lon="2.10243">
        <ele>109</ele>
        <time>2013-08-17T07:11:16Z</time>
      </trkpt>
      <trkpt lat="48.61537" lon="2.10239">
        <ele>109</ele>
        <time>2013-08-17T07:11:18Z</time>
      </trkpt>
      <trkpt lat="48.61538" lon="2.10235">
        <ele>109</ele>
        <time>2013-08-17T07:11:20Z</time>
      </trkpt>
      <trkpt lat="48.6154" lon="2.1023">
        <ele>109</ele>
        <time>2013-08-17T07:11:22Z</time>
      </trkpt>
      <trkpt lat="48.61541" lon="2.10226">
        <ele>109</ele>
        <time>2013-08-17T07:11:24Z</time>
      </trkpt>
      <trkpt lat="48.61542" lon="2.10222">
        <ele>109</ele>
        <time>2013-08-17T07:11:26Z</time>
      </trkpt>
      <trkpt lat="48.61543" lon="2.10219">
        <ele>109</ele>
        <time>2013-08-17T07:11:28Z</time>
      </trkpt>
      <trkpt lat="48.61544" lon="2.10215">
        <ele>109</ele>
        <time>2013-08-17T07:11:30Z</time>
      </trkpt>
      <trkpt lat="48.61545" lon="2.10211">
        <ele>109</ele>
        <time>2013-08-17T07:11:32Z</time>
      </trkpt>
      <trkpt lat="48.61547" lon="2.10208">
        <ele>109</ele>
        <time>2013-08-17T07:11:34Z</time>
      </trkpt>
      <trkpt lat="48.61548" lon="2.10205">
        <ele>109</ele>
        <time>2013-08-17T07:11:36Z</time>
      </trkpt>
      <trkpt lat="48.6155" lon="2.10202">
        <ele>109</ele>
        <time>2013-08-17T07:11:38Z</time>
      </trkpt>
      <trkpt lat="48.61552" lon="2.10199">
        <ele>109</ele>
        <time>2013-08-17T07:11:40Z</time>
      </trkpt>
      <trkpt lat="48.61554" lon="2.10196">
        <ele>110</ele>
        <time>2013-08-17T07:11:42Z</time>
      </trkpt>
      <trkpt lat="48.61554" lon="2.10193">
        <ele>110</ele>
        <time>2013-08-17T07:11:44Z</time>
      </trkpt>
      <trkpt lat="48.61555" lon="2.10188">
        <ele>110</ele>
        <time>2013-08-17T07:11:46Z</time>
      </trkpt>
      <trkpt lat="48.61556" lon="2.10184">
        <ele>110</ele>
        <time>2013-08-17T07:11:48Z</time>
      </trkpt>
      <trkpt lat="48.61557" lon="2.10179">
        <ele>110</ele>
        <time>2013-08-17T07:11:50Z</time>
      </trkpt>
      <trkpt lat="48.61557" lon="2.10176">
        <ele>111</ele>
        <time>2013-08-17T07:11:52Z</time>
      </trkpt>
      <trkpt lat="48.61558" lon="2.1017">
        <ele>111</ele>
        <time>2013-08-17T07:11:54Z</time>
      </trkpt>
      <trkpt lat="48.61559" lon="2.10164">
        <ele>111</ele>
        <time>2013-08-17T07:11:56Z</time>
      </trkpt>
      <trkpt lat="48.6156" lon="2.10157">
        <ele>111</ele>
        <time>2013-08-17T07:11:59Z</time>
      </trkpt>
      <trkpt lat="48.6156" lon="2.10153">
        <ele>111</ele>
        <time>2013-08-17T07:12:01Z</time>
      </trkpt>
      <trkpt lat="48.61561" lon="2.10149">
        <ele>112</ele>
        <time>2013-08-17T07:12:03Z</time>
      </trkpt>
      <trkpt lat="48.61562" lon="2.10145">
        <ele>112</ele>
        <time>2013-08-17T07:12:05Z</time>
      </trkpt>
      <trkpt lat="48.61562" lon="2.1014">
        <ele>112</ele>
        <time>2013-08-17T07:12:07Z</time>
      </trkpt>
      <trkpt lat="48.61562" lon="2.10136">
        <ele>112</ele>
        <time>2013-08-17T07:12:09Z</time>
      </trkpt>
      <trkpt lat="48.61564" lon="2.10129">
        <ele>112</ele>
        <time>2013-08-17T07:12:12Z</time>
      </trkpt>
      <trkpt lat="48.61564" lon="2.10125">
        <ele>112</ele>
        <time>2013-08-17T07:12:14Z</time>
      </trkpt>
      <trkpt lat="48.61565" lon="2.10121">
        <ele>112</ele>
        <time>2013-08-17T07:12:16Z</time>
      </trkpt>
      <trkpt lat="48.61565" lon="2.10116">
        <ele>112</ele>
        <time>2013-08-17T07:12:18Z</time>
      </trkpt>
      <trkpt lat="48.61566" lon="2.10112">
        <ele>112</ele>
        <time>2013-08-17T07:12:20Z</time>
      </trkpt>
      <trkpt lat="48.61567" lon="2.10107">
        <ele>112</ele>
        <time>2013-08-17T07:12:22Z</time>
      </trkpt>
      <trkpt lat="48.61567" lon="2.10103">
        <ele>112</ele>
        <time>2013-08-17T07:12:24Z</time>
      </trkpt>
      <trkpt lat="48.61568" lon="2.10099">
        <ele>112</ele>
        <time>2013-08-17T07:12:26Z</time>
      </trkpt>
      <trkpt lat="48.61568" lon="2.10094">
        <ele>112</ele>
        <time>2013-08-17T07:12:28Z</time>
      </trkpt>
      <trkpt lat="48.61569" lon="2.1009">
        <ele>112</ele>
        <time>2013-08-17T07:12:30Z</time>
      </trkpt>
      <trkpt lat="48.6157" lon="2.10086">
        <ele>112</ele>
        <time>2013-08-17T07:12:32Z</time>
      </trkpt>
      <trkpt lat="48.6157" lon="2.10082">
        <ele>112</ele>
        <time>2013-08-17T07:12:34Z</time>
      </trkpt>
      <trkpt lat="48.61571" lon="2.10077">
        <ele>112</ele>
        <time>2013-08-17T07:12:36Z</time>
      </trkpt>
      <trkpt lat="48.61571" lon="2.10072">
        <ele>112</ele>
        <time>2013-08-17T07:12:38Z</time>
      </trkpt>
      <trkpt lat="48.61572" lon="2.10068">
        <ele>112</ele>
        <time>2013-08-17T07:12:40Z</time>
      </trkpt>
      <trkpt lat="48.61572" lon="2.10064">
        <ele>112</ele>
        <time>2013-08-17T07:12:42Z</time>
      </trkpt>
      <trkpt lat="48.61573" lon="2.10059">
        <ele>113</ele>
        <time>2013-08-17T07:12:44Z</time>
      </trkpt>
      <trkpt lat="48.61573" lon="2.10054">
        <ele>113</ele>
        <time>2013-08-17T07:12:46Z</time>
      </trkpt>
      <trkpt lat="48.61573" lon="2.10049">
        <ele>113</ele>
        <time>2013-08-17T07:12:48Z</time>
      </trkpt>
      <trkpt lat="48.61573" lon="2.10044">
        <ele>113</ele>
        <time>2013-08-17T07:12:50Z</time>
      </trkpt>
      <trkpt lat="48.61574" lon="2.10039">
        <ele>113</ele>
        <time>2013-08-17T07:12:52Z</time>
      </trkpt>
      <trkpt lat="48.61574" lon="2.10035">
        <ele>113</ele>
        <time>2013-08-17T07:12:54Z</time>
      </trkpt>
      <trkpt lat="48.61574" lon="2.10031">
        <ele>113</ele>
        <time>2013-08-17T07:12:56Z</time>
      </trkpt>
      <trkpt lat="48.61575" lon="2.10026">
        <ele>113</ele>
        <time>2013-08-17T07:12:58Z</time>
      </trkpt>
      <trkpt lat="48.61575" lon="2.10023">
        <ele>113</ele>
        <time>2013-08-17T07:13:00Z</time>
      </trkpt>
      <trkpt lat="48.61575" lon="2.10016">
        <ele>113</ele>
        <time>2013-08-17T07:13:03Z</time>
      </trkpt>
      <trkpt lat="48.61576" lon="2.10011">
        <ele>113</ele>
        <time>2013-08-17T07:13:05Z</time>
      </trkpt>
      <trkpt lat="48.61576" lon="2.10005">
        <ele>113</ele>
        <time>2013-08-17T07:13:07Z</time>
      </trkpt>
      <trkpt lat="48.61577" lon="2.1">
        <ele>114</ele>
        <time>2013-08-17T07:13:09Z</time>
      </trkpt>
      <trkpt lat="48.61577" lon="2.09995">
        <ele>114</ele>
        <time>2013-08-17T07:13:11Z</time>
      </trkpt>
      <trkpt lat="48.61578" lon="2.0999">
        <ele>114</ele>
        <time>2013-08-17T07:13:13Z</time>
      </trkpt>
      <trkpt lat="48.61578" lon="2.09985">
        <ele>114</ele>
        <time>2013-08-17T07:13:15Z</time>
      </trkpt>
      <trkpt lat="48.61578" lon="2.0998">
        <ele>114</ele>
        <time>2013-08-17T07:13:17Z</time>
      </trkpt>
      <trkpt lat="48.61579" lon="2.09976">
        <ele>114</ele>
        <time>2013-08-17T07:13:19Z</time>
      </trkpt>
      <trkpt lat="48.61579" lon="2.09971">
        <ele>114</ele>
        <time>2013-08-17T07:13:21Z</time>
      </trkpt>
      <trkpt lat="48.61579" lon="2.09966">
        <ele>114</ele>
        <time>2013-08-17T07:13:23Z</time>
      </trkpt>
      <trkpt lat="48.6158" lon="2.09962">
        <ele>114</ele>
        <time>2013-08-17T07:13:25Z</time>
      </trkpt>
      <trkpt lat="48.6158" lon="2.09958">
        <ele>114</ele>
        <time>2013-08-17T07:13:27Z</time>
      </trkpt>
      <trkpt lat="48.6158" lon="2.09953">
        <ele>114</ele>
        <time>2013-08-17T07:13:29Z</time>
      </trkpt>
      <trkpt lat="48.6158" lon="2.0995">
        <ele>114</ele>
        <time>2013-08-17T07:13:31Z</time>
      </trkpt>
      <trkpt lat="48.61581" lon="2.09945">
        <ele>114</ele>
        <time>2013-08-17T07:13:33Z</time>
      </trkpt>
      <trkpt lat="48.61581" lon="2.0994">
        <ele>114</ele>
        <time>2013-08-17T07:13:35Z</time>
      </trkpt>
      <trkpt lat="48.61581" lon="2.09935">
        <ele>114</ele>
        <time>2013-08-17T07:13:37Z</time>
      </trkpt>
      <trkpt lat="48.61581" lon="2.09931">
        <ele>115</ele>
        <time>2013-08-17T07:13:39Z</time>
      </trkpt>
      <trkpt lat="48.6158" lon="2.09927">
        <ele>115</ele>
        <time>2013-08-17T07:13:41Z</time>
      </trkpt>
      <trkpt lat="48.61581" lon="2.09923">
        <ele>115</ele>
        <time>2013-08-17T07:13:43Z</time>
      </trkpt>
      <trkpt lat="48.61581" lon="2.09918">
        <ele>115</ele>
        <time>2013-08-17T07:13:45Z</time>
      </trkpt>
      <trkpt lat="48.61581" lon="2.09913">
        <ele>115</ele>
        <time>2013-08-17T07:13:47Z</time>
      </trkpt>
      <trkpt lat="48.61581" lon="2.09909">
        <ele>116</ele>
        <time>2013-08-17T07:13:49Z</time>
      </trkpt>
      <trkpt lat="48.61581" lon="2.09904">
        <ele>116</ele>
        <time>2013-08-17T07:13:51Z</time>
      </trkpt>
      <trkpt lat="48.61581" lon="2.099">
        <ele>116</ele>
        <time>2013-08-17T07:13:53Z</time>
      </trkpt>
      <trkpt lat="48.6158" lon="2.09895">
        <ele>116</ele>
        <time>2013-08-17T07:13:55Z</time>
      </trkpt>
      <trkpt lat="48.6158" lon="2.09892">
        <ele>116</ele>
        <time>2013-08-17T07:13:57Z</time>
      </trkpt>
      <trkpt lat="48.61581" lon="2.09888">
        <ele>116</ele>
        <time>2013-08-17T07:13:59Z</time>
      </trkpt>
      <trkpt lat="48.61581" lon="2.09881">
        <ele>116</ele>
        <time>2013-08-17T07:14:02Z</time>
      </trkpt>
      <trkpt lat="48.6158" lon="2.09877">
        <ele>116</ele>
        <time>2013-08-17T07:14:04Z</time>
      </trkpt>
      <trkpt lat="48.6158" lon="2.0987">
        <ele>116</ele>
        <time>2013-08-17T07:14:07Z</time>
      </trkpt>
      <trkpt lat="48.6158" lon="2.09865">
        <ele>116</ele>
        <time>2013-08-17T07:14:09Z</time>
      </trkpt>
      <trkpt lat="48.6158" lon="2.0986">
        <ele>117</ele>
        <time>2013-08-17T07:14:11Z</time>
      </trkpt>
      <trkpt lat="48.6158" lon="2.09856">
        <ele>117</ele>
        <time>2013-08-17T07:14:13Z</time>
      </trkpt>
      <trkpt lat="48.6158" lon="2.09852">
        <ele>117</ele>
        <time>2013-08-17T07:14:15Z</time>
      </trkpt>
      <trkpt lat="48.6158" lon="2.09848">
        <ele>117</ele>
        <time>2013-08-17T07:14:17Z</time>
      </trkpt>
      <trkpt lat="48.6158" lon="2.09844">
        <ele>117</ele>
        <time>2013-08-17T07:14:19Z</time>
      </trkpt>
      <trkpt lat="48.61579" lon="2.0984">
        <ele>117</ele>
        <time>2013-08-17T07:14:21Z</time>
      </trkpt>
      <trkpt lat="48.61579" lon="2.09837">
        <ele>117</ele>
        <time>2013-08-17T07:14:23Z</time>
      </trkpt>
      <trkpt lat="48.6158" lon="2.09832">
        <ele>118</ele>
        <time>2013-08-17T07:14:25Z</time>
      </trkpt>
      <trkpt lat="48.6158" lon="2.09827">
        <ele>118</ele>
        <time>2013-08-17T07:14:27Z</time>
      </trkpt>
      <trkpt lat="48.61579" lon="2.0982">
        <ele>118</ele>
        <time>2013-08-17T07:14:30Z</time>
      </trkpt>
      <trkpt lat="48.61579" lon="2.09815">
        <ele>118</ele>
        <time>2013-08-17T07:14:32Z</time>
      </trkpt>
      <trkpt lat="48.61578" lon="2.0981">
        <ele>118</ele>
        <time>2013-08-17T07:14:34Z</time>
      </trkpt>
      <trkpt lat="48.61578" lon="2.09806">
        <ele>119</ele>
        <time>2013-08-17T07:14:36Z</time>
      </trkpt>
      <trkpt lat="48.61578" lon="2.09801">
        <ele>119</ele>
        <time>2013-08-17T07:14:38Z</time>
      </trkpt>
      <trkpt lat="48.61578" lon="2.09797">
        <ele>119</ele>
        <time>2013-08-17T07:14:40Z</time>
      </trkpt>
      <trkpt lat="48.61577" lon="2.0979">
        <ele>119</ele>
        <time>2013-08-17T07:14:43Z</time>
      </trkpt>
      <trkpt lat="48.61577" lon="2.09786">
        <ele>119</ele>
        <time>2013-08-17T07:14:45Z</time>
      </trkpt>
      <trkpt lat="48.61576" lon="2.09781">
        <ele>119</ele>
        <time>2013-08-17T07:14:47Z</time>
      </trkpt>
      <trkpt lat="48.61576" lon="2.09777">
        <ele>119</ele>
        <time>2013-08-17T07:14:49Z</time>
      </trkpt>
      <trkpt lat="48.61576" lon="2.09772">
        <ele>119</ele>
        <time>2013-08-17T07:14:51Z</time>
      </trkpt>
      <trkpt lat="48.61575" lon="2.09768">
        <ele>119</ele>
        <time>2013-08-17T07:14:53Z</time>
      </trkpt>
      <trkpt lat="48.61575" lon="2.09763">
        <ele>119</ele>
        <time>2013-08-17T07:14:55Z</time>
      </trkpt>
      <trkpt lat="48.61575" lon="2.09758">
        <ele>119</ele>
        <time>2013-08-17T07:14:57Z</time>
      </trkpt>
      <trkpt lat="48.61574" lon="2.09754">
        <ele>119</ele>
        <time>2013-08-17T07:14:59Z</time>
      </trkpt>
      <trkpt lat="48.61574" lon="2.09749">
        <ele>120</ele>
        <time>2013-08-17T07:15:01Z</time>
      </trkpt>
      <trkpt lat="48.61573" lon="2.09743">
        <ele>120</ele>
        <time>2013-08-17T07:15:04Z</time>
      </trkpt>
      <trkpt lat="48.61573" lon="2.09738">
        <ele>120</ele>
        <time>2013-08-17T07:15:06Z</time>
      </trkpt>
      <trkpt lat="48.61572" lon="2.09734">
        <ele>120</ele>
        <time>2013-08-17T07:15:08Z</time>
      </trkpt>
      <trkpt lat="48.61571" lon="2.09727">
        <ele>120</ele>
        <time>2013-08-17T07:15:11Z</time>
      </trkpt>
      <trkpt lat="48.61571" lon="2.09722">
        <ele>120</ele>
        <time>2013-08-17T07:15:13Z</time>
      </trkpt>
      <trkpt lat="48.6157" lon="2.09717">
        <ele>120</ele>
        <time>2013-08-17T07:15:15Z</time>
      </trkpt>
      <trkpt lat="48.61569" lon="2.09713">
        <ele>121</ele>
        <time>2013-08-17T07:15:17Z</time>
      </trkpt>
      <trkpt lat="48.61568" lon="2.09708">
        <ele>121</ele>
        <time>2013-08-17T07:15:19Z</time>
      </trkpt>
      <trkpt lat="48.61567" lon="2.09704">
        <ele>121</ele>
        <time>2013-08-17T07:15:21Z</time>
      </trkpt>
      <trkpt lat="48.61566" lon="2.097">
        <ele>121</ele>
        <time>2013-08-17T07:15:23Z</time>
      </trkpt>
      <trkpt lat="48.61565" lon="2.09696">
        <ele>121</ele>
        <time>2013-08-17T07:15:25Z</time>
      </trkpt>
      <trkpt lat="48.61564" lon="2.09689">
        <ele>121</ele>
        <time>2013-08-17T07:15:28Z</time>
      </trkpt>
      <trkpt lat="48.61563" lon="2.09684">
        <ele>121</ele>
        <time>2013-08-17T07:15:30Z</time>
      </trkpt>
      <trkpt lat="48.61562" lon="2.0968">
        <ele>122</ele>
        <time>2013-08-17T07:15:32Z</time>
      </trkpt>
      <trkpt lat="48.61562" lon="2.09675">
        <ele>122</ele>
        <time>2013-08-17T07:15:34Z</time>
      </trkpt>
      <trkpt lat="48.61561" lon="2.09671">
        <ele>122</ele>
        <time>2013-08-17T07:15:36Z</time>
      </trkpt>
      <trkpt lat="48.6156" lon="2.09666">
        <ele>122</ele>
        <time>2013-08-17T07:15:38Z</time>
      </trkpt>
      <trkpt lat="48.61559" lon="2.09662">
        <ele>122</ele>
        <time>2013-08-17T07:15:40Z</time>
      </trkpt>
      <trkpt lat="48.61558" lon="2.09658">
        <ele>122</ele>
        <time>2013-08-17T07:15:42Z</time>
      </trkpt>
      <trkpt lat="48.61557" lon="2.09653">
        <ele>122</ele>
        <time>2013-08-17T07:15:44Z</time>
      </trkpt>
      <trkpt lat="48.61556" lon="2.09649">
        <ele>123</ele>
        <time>2013-08-17T07:15:46Z</time>
      </trkpt>
      <trkpt lat="48.61555" lon="2.09644">
        <ele>123</ele>
        <time>2013-08-17T07:15:48Z</time>
      </trkpt>
      <trkpt lat="48.61554" lon="2.09641">
        <ele>123</ele>
        <time>2013-08-17T07:15:50Z</time>
      </trkpt>
      <trkpt lat="48.61553" lon="2.09636">
        <ele>123</ele>
        <time>2013-08-17T07:15:52Z</time>
      </trkpt>
      <trkpt lat="48.61552" lon="2.09631">
        <ele>123</ele>
        <time>2013-08-17T07:15:54Z</time>
      </trkpt>
      <trkpt lat="48.61551" lon="2.09627">
        <ele>123</ele>
        <time>2013-08-17T07:15:56Z</time>
      </trkpt>
      <trkpt lat="48.6155" lon="2.09623">
        <ele>123</ele>
        <time>2013-08-17T07:15:58Z</time>
      </trkpt>
      <trkpt lat="48.6155" lon="2.09618">
        <ele>124</ele>
        <time>2013-08-17T07:16:00Z</time>
      </trkpt>
      <trkpt lat="48.61548" lon="2.09612">
        <ele>124</ele>
        <time>2013-08-17T07:16:03Z</time>
      </trkpt>
      <trkpt lat="48.61547" lon="2.09608">
        <ele>124</ele>
        <time>2013-08-17T07:16:05Z</time>
      </trkpt>
      <trkpt lat="48.61546" lon="2.09603">
        <ele>124</ele>
        <time>2013-08-17T07:16:07Z</time>
      </trkpt>
      <trkpt lat="48.61545" lon="2.09598">
        <ele>124</ele>
        <time>2013-08-17T07:16:09Z</time>
      </trkpt>
      <trkpt lat="48.61544" lon="2.09594">
        <ele>124</ele>
        <time>2013-08-17T07:16:11Z</time>
      </trkpt>
      <trkpt lat="48.61543" lon="2.0959">
        <ele>124</ele>
        <time>2013-08-17T07:16:13Z</time>
      </trkpt>
      <trkpt lat="48.61542" lon="2.09585">
        <ele>124</ele>
        <time>2013-08-17T07:16:15Z</time>
      </trkpt>
      <trkpt lat="48.61541" lon="2.09581">
        <ele>124</ele>
        <time>2013-08-17T07:16:17Z</time>
      </trkpt>
      <trkpt lat="48.6154" lon="2.09577">
        <ele>124</ele>
        <time>2013-08-17T07:16:19Z</time>
      </trkpt>
      <trkpt lat="48.61539" lon="2.09572">
        <ele>124</ele>
        <time>2013-08-17T07:16:21Z</time>
      </trkpt>
      <trkpt lat="48.61538" lon="2.09568">
        <ele>124</ele>
        <time>2013-08-17T07:16:23Z</time>
      </trkpt>
      <trkpt lat="48.61537" lon="2.09564">
        <ele>124</ele>
        <time>2013-08-17T07:16:25Z</time>
      </trkpt>
      <trkpt lat="48.61536" lon="2.0956">
        <ele>124</ele>
        <time>2013-08-17T07:16:27Z</time>
      </trkpt>
      <trkpt lat="48.61535" lon="2.09556">
        <ele>124</ele>
        <time>2013-08-17T07:16:29Z</time>
      </trkpt>
      <trkpt lat="48.61533" lon="2.09549">
        <ele>124</ele>
        <time>2013-08-17T07:16:32Z</time>
      </trkpt>
      <trkpt lat="48.61532" lon="2.09542">
        <ele>124</ele>
        <time>2013-08-17T07:16:35Z</time>
      </trkpt>
      <trkpt lat="48.61531" lon="2.09538">
        <ele>124</ele>
        <time>2013-08-17T07:16:37Z</time>
      </trkpt>
      <trkpt lat="48.61531" lon="2.09534">
        <ele>124</ele>
        <time>2013-08-17T07:16:39Z</time>
      </trkpt>
      <trkpt lat="48.61529" lon="2.09529">
        <ele>124</ele>
        <time>2013-08-17T07:16:41Z</time>
      </trkpt>
      <trkpt lat="48.61529" lon="2.09523">
        <ele>124</ele>
        <time>2013-08-17T07:16:43Z</time>
      </trkpt>
      <trkpt lat="48.61529" lon="2.09517">
        <ele>124</ele>
        <time>2013-08-17T07:16:45Z</time>
      </trkpt>
      <trkpt lat="48.61528" lon="2.09513">
        <ele>124</ele>
        <time>2013-08-17T07:16:47Z</time>
      </trkpt>
      <trkpt lat="48.61527" lon="2.09509">
        <ele>124</ele>
        <time>2013-08-17T07:16:49Z</time>
      </trkpt>
      <trkpt lat="48.61525" lon="2.09505">
        <ele>124</ele>
        <time>2013-08-17T07:16:51Z</time>
      </trkpt>
      <trkpt lat="48.61523" lon="2.09501">
        <ele>124</ele>
        <time>2013-08-17T07:16:53Z</time>
      </trkpt>
      <trkpt lat="48.61522" lon="2.09496">
        <ele>124</ele>
        <time>2013-08-17T07:16:55Z</time>
      </trkpt>
      <trkpt lat="48.61521" lon="2.09491">
        <ele>124</ele>
        <time>2013-08-17T07:16:57Z</time>
      </trkpt>
      <trkpt lat="48.6152" lon="2.09487">
        <ele>124</ele>
        <time>2013-08-17T07:16:59Z</time>
      </trkpt>
      <trkpt lat="48.61519" lon="2.09482">
        <ele>124</ele>
        <time>2013-08-17T07:17:01Z</time>
      </trkpt>
      <trkpt lat="48.61518" lon="2.09478">
        <ele>124</ele>
        <time>2013-08-17T07:17:03Z</time>
      </trkpt>
      <trkpt lat="48.61517" lon="2.09473">
        <ele>124</ele>
        <time>2013-08-17T07:17:05Z</time>
      </trkpt>
      <trkpt lat="48.61515" lon="2.09469">
        <ele>125</ele>
        <time>2013-08-17T07:17:07Z</time>
      </trkpt>
      <trkpt lat="48.61514" lon="2.09465">
        <ele>125</ele>
        <time>2013-08-17T07:17:09Z</time>
      </trkpt>
      <trkpt lat="48.61513" lon="2.09459">
        <ele>125</ele>
        <time>2013-08-17T07:17:11Z</time>
      </trkpt>
      <trkpt lat="48.61512" lon="2.09454">
        <ele>125</ele>
        <time>2013-08-17T07:17:13Z</time>
      </trkpt>
      <trkpt lat="48.61511" lon="2.0945">
        <ele>125</ele>
        <time>2013-08-17T07:17:15Z</time>
      </trkpt>
      <trkpt lat="48.6151" lon="2.09446">
        <ele>125</ele>
        <time>2013-08-17T07:17:17Z</time>
      </trkpt>
      <trkpt lat="48.61509" lon="2.09441">
        <ele>125</ele>
        <time>2013-08-17T07:17:19Z</time>
      </trkpt>
      <trkpt lat="48.61508" lon="2.09435">
        <ele>125</ele>
        <time>2013-08-17T07:17:21Z</time>
      </trkpt>
      <trkpt lat="48.61507" lon="2.0943">
        <ele>125</ele>
        <time>2013-08-17T07:17:23Z</time>
      </trkpt>
      <trkpt lat="48.61506" lon="2.09423">
        <ele>126</ele>
        <time>2013-08-17T07:17:26Z</time>
      </trkpt>
      <trkpt lat="48.61505" lon="2.09419">
        <ele>126</ele>
        <time>2013-08-17T07:17:28Z</time>
      </trkpt>
      <trkpt lat="48.61504" lon="2.09414">
        <ele>126</ele>
        <time>2013-08-17T07:17:30Z</time>
      </trkpt>
      <trkpt lat="48.61504" lon="2.0941">
        <ele>126</ele>
        <time>2013-08-17T07:17:32Z</time>
      </trkpt>
      <trkpt lat="48.61503" lon="2.09405">
        <ele>126</ele>
        <time>2013-08-17T07:17:34Z</time>
      </trkpt>
      <trkpt lat="48.61502" lon="2.09401">
        <ele>127</ele>
        <time>2013-08-17T07:17:36Z</time>
      </trkpt>
      <trkpt lat="48.61501" lon="2.09395">
        <ele>127</ele>
        <time>2013-08-17T07:17:39Z</time>
      </trkpt>
      <trkpt lat="48.615" lon="2.09388">
        <ele>127</ele>
        <time>2013-08-17T07:17:42Z</time>
      </trkpt>
      <trkpt lat="48.61499" lon="2.09384">
        <ele>127</ele>
        <time>2013-08-17T07:17:44Z</time>
      </trkpt>
      <trkpt lat="48.61498" lon="2.0938">
        <ele>127</ele>
        <time>2013-08-17T07:17:46Z</time>
      </trkpt>
      <trkpt lat="48.61497" lon="2.09375">
        <ele>127</ele>
        <time>2013-08-17T07:17:48Z</time>
      </trkpt>
      <trkpt lat="48.61495" lon="2.09368">
        <ele>127</ele>
        <time>2013-08-17T07:17:51Z</time>
      </trkpt>
      <trkpt lat="48.61494" lon="2.09364">
        <ele>127</ele>
        <time>2013-08-17T07:17:53Z</time>
      </trkpt>
      <trkpt lat="48.61493" lon="2.09359">
        <ele>127</ele>
        <time>2013-08-17T07:17:55Z</time>
      </trkpt>
      <trkpt lat="48.61492" lon="2.09354">
        <ele>127</ele>
        <time>2013-08-17T07:17:57Z</time>
      </trkpt>
      <trkpt lat="48.61491" lon="2.0935">
        <ele>127</ele>
        <time>2013-08-17T07:17:59Z</time>
      </trkpt>
      <trkpt lat="48.6149" lon="2.09346">
        <ele>127</ele>
        <time>2013-08-17T07:18:01Z</time>
      </trkpt>
      <trkpt lat="48.61489" lon="2.09341">
        <ele>127</ele>
        <time>2013-08-17T07:18:03Z</time>
      </trkpt>
      <trkpt lat="48.61488" lon="2.09336">
        <ele>127</ele>
        <time>2013-08-17T07:18:05Z</time>
      </trkpt>
      <trkpt lat="48.61487" lon="2.09332">
        <ele>127</ele>
        <time>2013-08-17T07:18:07Z</time>
      </trkpt>
      <trkpt lat="48.61486" lon="2.09327">
        <ele>127</ele>
        <time>2013-08-17T07:18:09Z</time>
      </trkpt>
      <trkpt lat="48.61485" lon="2.09323">
        <ele>127</ele>
        <time>2013-08-17T07:18:11Z</time>
      </trkpt>
      <trkpt lat="48.61484" lon="2.09318">
        <ele>127</ele>
        <time>2013-08-17T07:18:13Z</time>
      </trkpt>
      <trkpt lat="48.61483" lon="2.09314">
        <ele>127</ele>
        <time>2013-08-17T07:18:15Z</time>
      </trkpt>
      <trkpt lat="48.61482" lon="2.09309">
        <ele>127</ele>
        <time>2013-08-17T07:18:17Z</time>
      </trkpt>
      <trkpt lat="48.61481" lon="2.09305">
        <ele>127</ele>
        <time>2013-08-17T07:18:19Z</time>
      </trkpt>
      <trkpt lat="48.6148" lon="2.09301">
        <ele>127</ele>
        <time>2013-08-17T07:18:21Z</time>
      </trkpt>
      <trkpt lat="48.61479" lon="2.09294">
        <ele>127</ele>
        <time>2013-08-17T07:18:24Z</time>
      </trkpt>
      <trkpt lat="48.61478" lon="2.09289">
        <ele>127</ele>
        <time>2013-08-17T07:18:26Z</time>
      </trkpt>
      <trkpt lat="48.61477" lon="2.09285">
        <ele>127</ele>
        <time>2013-08-17T07:18:28Z</time>
      </trkpt>
      <trkpt lat="48.61476" lon="2.09281">
        <ele>127</ele>
        <time>2013-08-17T07:18:30Z</time>
      </trkpt>
      <trkpt lat="48.61475" lon="2.09276">
        <ele>127</ele>
        <time>2013-08-17T07:18:32Z</time>
      </trkpt>
      <trkpt lat="48.61475" lon="2.09271">
        <ele>127</ele>
        <time>2013-08-17T07:18:34Z</time>
      </trkpt>
      <trkpt lat="48.61474" lon="2.09266">
        <ele>128</ele>
        <time>2013-08-17T07:18:36Z</time>
      </trkpt>
      <trkpt lat="48.61473" lon="2.09262">
        <ele>128</ele>
        <time>2013-08-17T07:18:38Z</time>
      </trkpt>
      <trkpt lat="48.61473" lon="2.09258">
        <ele>128</ele>
        <time>2013-08-17T07:18:40Z</time>
      </trkpt>
      <trkpt lat="48.61472" lon="2.09253">
        <ele>128</ele>
        <time>2013-08-17T07:18:42Z</time>
      </trkpt>
      <trkpt lat="48.61471" lon="2.09249">
        <ele>128</ele>
        <time>2013-08-17T07:18:44Z</time>
      </trkpt>
      <trkpt lat="48.6147" lon="2.09243">
        <ele>128</ele>
        <time>2013-08-17T07:18:47Z</time>
      </trkpt>
      <trkpt lat="48.61469" lon="2.09238">
        <ele>128</ele>
        <time>2013-08-17T07:18:49Z</time>
      </trkpt>
      <trkpt lat="48.61468" lon="2.09234">
        <ele>128</ele>
        <time>2013-08-17T07:18:51Z</time>
      </trkpt>
      <trkpt lat="48.61467" lon="2.0923">
        <ele>128</ele>
        <time>2013-08-17T07:18:53Z</time>
      </trkpt>
      <trkpt lat="48.61467" lon="2.09226">
        <ele>128</ele>
        <time>2013-08-17T07:18:55Z</time>
      </trkpt>
      <trkpt lat="48.61466" lon="2.09222">
        <ele>128</ele>
        <time>2013-08-17T07:18:57Z</time>
      </trkpt>
      <trkpt lat="48.61465" lon="2.09218">
        <ele>128</ele>
        <time>2013-08-17T07:18:59Z</time>
      </trkpt>
      <trkpt lat="48.61464" lon="2.09213">
        <ele>128</ele>
        <time>2013-08-17T07:19:01Z</time>
      </trkpt>
      <trkpt lat="48.61464" lon="2.09209">
        <ele>129</ele>
        <time>2013-08-17T07:19:03Z</time>
      </trkpt>
      <trkpt lat="48.61463" lon="2.09205">
        <ele>129</ele>
        <time>2013-08-17T07:19:05Z</time>
      </trkpt>
      <trkpt lat="48.61462" lon="2.09201">
        <ele>129</ele>
        <time>2013-08-17T07:19:07Z</time>
      </trkpt>
      <trkpt lat="48.61459" lon="2.09197">
        <ele>129</ele>
        <time>2013-08-17T07:19:10Z</time>
      </trkpt>
      <trkpt lat="48.61457" lon="2.09195">
        <ele>129</ele>
        <time>2013-08-17T07:19:12Z</time>
      </trkpt>
      <trkpt lat="48.61454" lon="2.09194">
        <ele>129</ele>
        <time>2013-08-17T07:19:14Z</time>
      </trkpt>
      <trkpt lat="48.61451" lon="2.09193">
        <ele>129</ele>
        <time>2013-08-17T07:19:16Z</time>
      </trkpt>
      <trkpt lat="48.61447" lon="2.09193">
        <ele>130</ele>
        <time>2013-08-17T07:19:19Z</time>
      </trkpt>
      <trkpt lat="48.61443" lon="2.09193">
        <ele>130</ele>
        <time>2013-08-17T07:19:21Z</time>
      </trkpt>
      <trkpt lat="48.61441" lon="2.09193">
        <ele>130</ele>
        <time>2013-08-17T07:19:23Z</time>
      </trkpt>
      <trkpt lat="48.61438" lon="2.09193">
        <ele>130</ele>
        <time>2013-08-17T07:19:25Z</time>
      </trkpt>
      <trkpt lat="48.61435" lon="2.09194">
        <ele>131</ele>
        <time>2013-08-17T07:19:27Z</time>
      </trkpt>
      <trkpt lat="48.61432" lon="2.09194">
        <ele>131</ele>
        <time>2013-08-17T07:19:29Z</time>
      </trkpt>
      <trkpt lat="48.61429" lon="2.09194">
        <ele>131</ele>
        <time>2013-08-17T07:19:31Z</time>
      </trkpt>
      <trkpt lat="48.61426" lon="2.09195">
        <ele>131</ele>
        <time>2013-08-17T07:19:33Z</time>
      </trkpt>
      <trkpt lat="48.61423" lon="2.09195">
        <ele>131</ele>
        <time>2013-08-17T07:19:35Z</time>
      </trkpt>
      <trkpt lat="48.61421" lon="2.09197">
        <ele>131</ele>
        <time>2013-08-17T07:19:37Z</time>
      </trkpt>
      <trkpt lat="48.61418" lon="2.09198">
        <ele>131</ele>
        <time>2013-08-17T07:19:39Z</time>
      </trkpt>
      <trkpt lat="48.61415" lon="2.09199">
        <ele>131</ele>
        <time>2013-08-17T07:19:41Z</time>
      </trkpt>
      <trkpt lat="48.61412" lon="2.09199">
        <ele>131</ele>
        <time>2013-08-17T07:19:43Z</time>
      </trkpt>
      <trkpt lat="48.6141" lon="2.092">
        <ele>131</ele>
        <time>2013-08-17T07:19:45Z</time>
      </trkpt>
      <trkpt lat="48.61407" lon="2.09201">
        <ele>131</ele>
        <time>2013-08-17T07:19:47Z</time>
      </trkpt>
      <trkpt lat="48.61404" lon="2.09202">
        <ele>131</ele>
        <time>2013-08-17T07:19:49Z</time>
      </trkpt>
      <trkpt lat="48.614" lon="2.09204">
        <ele>131</ele>
        <time>2013-08-17T07:19:52Z</time>
      </trkpt>
      <trkpt lat="48.61397" lon="2.09205">
        <ele>131</ele>
        <time>2013-08-17T07:19:54Z</time>
      </trkpt>
      <trkpt lat="48.61395" lon="2.09207">
        <ele>131</ele>
        <time>2013-08-17T07:19:56Z</time>
      </trkpt>
      <trkpt lat="48.61392" lon="2.09208">
        <ele>131</ele>
        <time>2013-08-17T07:19:58Z</time>
      </trkpt>
      <trkpt lat="48.61389" lon="2.0921">
        <ele>131</ele>
        <time>2013-08-17T07:20:00Z</time>
      </trkpt>
      <trkpt lat="48.61386" lon="2.09211">
        <ele>131</ele>
        <time>2013-08-17T07:20:02Z</time>
      </trkpt>
      <trkpt lat="48.61384" lon="2.09212">
        <ele>131</ele>
        <time>2013-08-17T07:20:04Z</time>
      </trkpt>
      <trkpt lat="48.6138" lon="2.09213">
        <ele>131</ele>
        <time>2013-08-17T07:20:06Z</time>
      </trkpt>
      <trkpt lat="48.61378" lon="2.09213">
        <ele>131</ele>
        <time>2013-08-17T07:20:08Z</time>
      </trkpt>
      <trkpt lat="48.61374" lon="2.09209">
        <ele>131</ele>
        <time>2013-08-17T07:20:11Z</time>
      </trkpt>
      <trkpt lat="48.61372" lon="2.09206">
        <ele>131</ele>
        <time>2013-08-17T07:20:13Z</time>
      </trkpt>
      <trkpt lat="48.6137" lon="2.09202">
        <ele>131</ele>
        <time>2013-08-17T07:20:15Z</time>
      </trkpt>
      <trkpt lat="48.61369" lon="2.09199">
        <ele>131</ele>
        <time>2013-08-17T07:20:17Z</time>
      </trkpt>
      <trkpt lat="48.61367" lon="2.09195">
        <ele>131</ele>
        <time>2013-08-17T07:20:19Z</time>
      </trkpt>
      <trkpt lat="48.61366" lon="2.09191">
        <ele>131</ele>
        <time>2013-08-17T07:20:21Z</time>
      </trkpt>
      <trkpt lat="48.61366" lon="2.09187">
        <ele>131</ele>
        <time>2013-08-17T07:20:23Z</time>
      </trkpt>
      <trkpt lat="48.61365" lon="2.0918">
        <ele>131</ele>
        <time>2013-08-17T07:20:26Z</time>
      </trkpt>
      <trkpt lat="48.61364" lon="2.09174">
        <ele>131</ele>
        <time>2013-08-17T07:20:28Z</time>
      </trkpt>
      <trkpt lat="48.61364" lon="2.0917">
        <ele>131</ele>
        <time>2013-08-17T07:20:30Z</time>
      </trkpt>
      <trkpt lat="48.61364" lon="2.09165">
        <ele>131</ele>
        <time>2013-08-17T07:20:32Z</time>
      </trkpt>
      <trkpt lat="48.61364" lon="2.0916">
        <ele>131</ele>
        <time>2013-08-17T07:20:34Z</time>
      </trkpt>
      <trkpt lat="48.61363" lon="2.09156">
        <ele>131</ele>
        <time>2013-08-17T07:20:36Z</time>
      </trkpt>
      <trkpt lat="48.61362" lon="2.09152">
        <ele>131</ele>
        <time>2013-08-17T07:20:38Z</time>
      </trkpt>
      <trkpt lat="48.61361" lon="2.09148">
        <ele>131</ele>
        <time>2013-08-17T07:20:40Z</time>
      </trkpt>
      <trkpt lat="48.61361" lon="2.09144">
        <ele>131</ele>
        <time>2013-08-17T07:20:42Z</time>
      </trkpt>
      <trkpt lat="48.61361" lon="2.09139">
        <ele>131</ele>
        <time>2013-08-17T07:20:44Z</time>
      </trkpt>
      <trkpt lat="48.6136" lon="2.09135">
        <ele>131</ele>
        <time>2013-08-17T07:20:46Z</time>
      </trkpt>
      <trkpt lat="48.61359" lon="2.0913">
        <ele>131</ele>
        <time>2013-08-17T07:20:48Z</time>
      </trkpt>
      <trkpt lat="48.61359" lon="2.09125">
        <ele>131</ele>
        <time>2013-08-17T07:20:50Z</time>
      </trkpt>
      <trkpt lat="48.61359" lon="2.0912">
        <ele>131</ele>
        <time>2013-08-17T07:20:52Z</time>
      </trkpt>
      <trkpt lat="48.61358" lon="2.09115">
        <ele>131</ele>
        <time>2013-08-17T07:20:54Z</time>
      </trkpt>
      <trkpt lat="48.61357" lon="2.09106">
        <ele>131</ele>
        <time>2013-08-17T07:20:57Z</time>
      </trkpt>
      <trkpt lat="48.61357" lon="2.09102">
        <ele>131</ele>
        <time>2013-08-17T07:20:59Z</time>
      </trkpt>
      <trkpt lat="48.61356" lon="2.09098">
        <ele>131</ele>
        <time>2013-08-17T07:21:01Z</time>
      </trkpt>
      <trkpt lat="48.61356" lon="2.09091">
        <ele>131</ele>
        <time>2013-08-17T07:21:04Z</time>
      </trkpt>
      <trkpt lat="48.61355" lon="2.09086">
        <ele>131</ele>
        <time>2013-08-17T07:21:06Z</time>
      </trkpt>
      <trkpt lat="48.61354" lon="2.0908">
        <ele>131</ele>
        <time>2013-08-17T07:21:09Z</time>
      </trkpt>
      <trkpt lat="48.61354" lon="2.09076">
        <ele>131</ele>
        <time>2013-08-17T07:21:11Z</time>
      </trkpt>
      <trkpt lat="48.61354" lon="2.09071">
        <ele>131</ele>
        <time>2013-08-17T07:21:13Z</time>
      </trkpt>
      <trkpt lat="48.61354" lon="2.09066">
        <ele>131</ele>
        <time>2013-08-17T07:21:15Z</time>
      </trkpt>
      <trkpt lat="48.61354" lon="2.09061">
        <ele>131</ele>
        <time>2013-08-17T07:21:17Z</time>
      </trkpt>
      <trkpt lat="48.61353" lon="2.09057">
        <ele>131</ele>
        <time>2013-08-17T07:21:19Z</time>
      </trkpt>
      <trkpt lat="48.61353" lon="2.09051">
        <ele>131</ele>
        <time>2013-08-17T07:21:21Z</time>
      </trkpt>
      <trkpt lat="48.61352" lon="2.09045">
        <ele>131</ele>
        <time>2013-08-17T07:21:23Z</time>
      </trkpt>
      <trkpt lat="48.61351" lon="2.0904">
        <ele>131</ele>
        <time>2013-08-17T07:21:25Z</time>
      </trkpt>
      <trkpt lat="48.6135" lon="2.09035">
        <ele>132</ele>
        <time>2013-08-17T07:21:28Z</time>
      </trkpt>
      <trkpt lat="48.6135" lon="2.09031">
        <ele>132</ele>
        <time>2013-08-17T07:21:30Z</time>
      </trkpt>
      <trkpt lat="48.6135" lon="2.09027">
        <ele>132</ele>
        <time>2013-08-17T07:21:32Z</time>
      </trkpt>
      <trkpt lat="48.61351" lon="2.09022">
        <ele>132</ele>
        <time>2013-08-17T07:21:34Z</time>
      </trkpt>
      <trkpt lat="48.6135" lon="2.09016">
        <ele>132</ele>
        <time>2013-08-17T07:21:36Z</time>
      </trkpt>
      <trkpt lat="48.6135" lon="2.09009">
        <ele>133</ele>
        <time>2013-08-17T07:21:39Z</time>
      </trkpt>
      <trkpt lat="48.6135" lon="2.09004">
        <ele>134</ele>
        <time>2013-08-17T07:21:41Z</time>
      </trkpt>
      <trkpt lat="48.61351" lon="2.09">
        <ele>134</ele>
        <time>2013-08-17T07:21:43Z</time>
      </trkpt>
      <trkpt lat="48.61352" lon="2.08995">
        <ele>135</ele>
        <time>2013-08-17T07:21:45Z</time>
      </trkpt>
      <trkpt lat="48.61353" lon="2.08992">
        <ele>135</ele>
        <time>2013-08-17T07:21:47Z</time>
      </trkpt>
      <trkpt lat="48.61354" lon="2.08989">
        <ele>135</ele>
        <time>2013-08-17T07:21:49Z</time>
      </trkpt>
      <trkpt lat="48.61355" lon="2.08984">
        <ele>135</ele>
        <time>2013-08-17T07:21:51Z</time>
      </trkpt>
      <trkpt lat="48.61356" lon="2.0898">
        <ele>135</ele>
        <time>2013-08-17T07:21:53Z</time>
      </trkpt>
      <trkpt lat="48.61358" lon="2.08977">
        <ele>135</ele>
        <time>2013-08-17T07:21:55Z</time>
      </trkpt>
      <trkpt lat="48.6136" lon="2.08972">
        <ele>135</ele>
        <time>2013-08-17T07:21:57Z</time>
      </trkpt>
      <trkpt lat="48.61362" lon="2.08969">
        <ele>135</ele>
        <time>2013-08-17T07:21:59Z</time>
      </trkpt>
      <trkpt lat="48.61364" lon="2.08965">
        <ele>135</ele>
        <time>2013-08-17T07:22:01Z</time>
      </trkpt>
      <trkpt lat="48.61366" lon="2.08962">
        <ele>135</ele>
        <time>2013-08-17T07:22:03Z</time>
      </trkpt>
      <trkpt lat="48.61368" lon="2.08958">
        <ele>135</ele>
        <time>2013-08-17T07:22:05Z</time>
      </trkpt>
      <trkpt lat="48.61369" lon="2.08954">
        <ele>135</ele>
        <time>2013-08-17T07:22:07Z</time>
      </trkpt>
      <trkpt lat="48.61372" lon="2.08948">
        <ele>135</ele>
        <time>2013-08-17T07:22:10Z</time>
      </trkpt>
      <trkpt lat="48.61372" lon="2.08944">
        <ele>135</ele>
        <time>2013-08-17T07:22:12Z</time>
      </trkpt>
      <trkpt lat="48.61373" lon="2.08939">
        <ele>135</ele>
        <time>2013-08-17T07:22:14Z</time>
      </trkpt>
      <trkpt lat="48.61373" lon="2.08935">
        <ele>135</ele>
        <time>2013-08-17T07:22:16Z</time>
      </trkpt>
      <trkpt lat="48.61373" lon="2.0893">
        <ele>135</ele>
        <time>2013-08-17T07:22:18Z</time>
      </trkpt>
      <trkpt lat="48.61373" lon="2.08925">
        <ele>135</ele>
        <time>2013-08-17T07:22:20Z</time>
      </trkpt>
      <trkpt lat="48.61372" lon="2.08921">
        <ele>135</ele>
        <time>2013-08-17T07:22:22Z</time>
      </trkpt>
      <trkpt lat="48.61371" lon="2.08913">
        <ele>135</ele>
        <time>2013-08-17T07:22:25Z</time>
      </trkpt>
      <trkpt lat="48.6137" lon="2.08909">
        <ele>135</ele>
        <time>2013-08-17T07:22:27Z</time>
      </trkpt>
      <trkpt lat="48.61369" lon="2.08905">
        <ele>135</ele>
        <time>2013-08-17T07:22:29Z</time>
      </trkpt>
      <trkpt lat="48.61369" lon="2.089">
        <ele>135</ele>
        <time>2013-08-17T07:22:31Z</time>
      </trkpt>
      <trkpt lat="48.61368" lon="2.08895">
        <ele>135</ele>
        <time>2013-08-17T07:22:33Z</time>
      </trkpt>
      <trkpt lat="48.61367" lon="2.08891">
        <ele>135</ele>
        <time>2013-08-17T07:22:35Z</time>
      </trkpt>
      <trkpt lat="48.61367" lon="2.08886">
        <ele>135</ele>
        <time>2013-08-17T07:22:37Z</time>
      </trkpt>
      <trkpt lat="48.61366" lon="2.08882">
        <ele>135</ele>
        <time>2013-08-17T07:22:39Z</time>
      </trkpt>
      <trkpt lat="48.61366" lon="2.08877">
        <ele>135</ele>
        <time>2013-08-17T07:22:41Z</time>
      </trkpt>
      <trkpt lat="48.61365" lon="2.08873">
        <ele>135</ele>
        <time>2013-08-17T07:22:43Z</time>
      </trkpt>
      <trkpt lat="48.61365" lon="2.08868">
        <ele>135</ele>
        <time>2013-08-17T07:22:45Z</time>
      </trkpt>
      <trkpt lat="48.61364" lon="2.08864">
        <ele>135</ele>
        <time>2013-08-17T07:22:47Z</time>
      </trkpt>
      <trkpt lat="48.61364" lon="2.0886">
        <ele>135</ele>
        <time>2013-08-17T07:22:49Z</time>
      </trkpt>
      <trkpt lat="48.61363" lon="2.08855">
        <ele>135</ele>
        <time>2013-08-17T07:22:51Z</time>
      </trkpt>
      <trkpt lat="48.61363" lon="2.08851">
        <ele>135</ele>
        <time>2013-08-17T07:22:53Z</time>
      </trkpt>
      <trkpt lat="48.61362" lon="2.08846">
        <ele>135</ele>
        <time>2013-08-17T07:22:55Z</time>
      </trkpt>
      <trkpt lat="48.61361" lon="2.08841">
        <ele>135</ele>
        <time>2013-08-17T07:22:57Z</time>
      </trkpt>
      <trkpt lat="48.61361" lon="2.08837">
        <ele>135</ele>
        <time>2013-08-17T07:22:59Z</time>
      </trkpt>
      <trkpt lat="48.6136" lon="2.08832">
        <ele>135</ele>
        <time>2013-08-17T07:23:01Z</time>
      </trkpt>
      <trkpt lat="48.61359" lon="2.08828">
        <ele>135</ele>
        <time>2013-08-17T07:23:03Z</time>
      </trkpt>
      <trkpt lat="48.61359" lon="2.08823">
        <ele>136</ele>
        <time>2013-08-17T07:23:05Z</time>
      </trkpt>
      <trkpt lat="48.61359" lon="2.08819">
        <ele>136</ele>
        <time>2013-08-17T07:23:07Z</time>
      </trkpt>
      <trkpt lat="48.61358" lon="2.08815">
        <ele>136</ele>
        <time>2013-08-17T07:23:09Z</time>
      </trkpt>
      <trkpt lat="48.61358" lon="2.0881">
        <ele>136</ele>
        <time>2013-08-17T07:23:11Z</time>
      </trkpt>
      <trkpt lat="48.61358" lon="2.08806">
        <ele>136</ele>
        <time>2013-08-17T07:23:13Z</time>
      </trkpt>
      <trkpt lat="48.61358" lon="2.08802">
        <ele>137</ele>
        <time>2013-08-17T07:23:15Z</time>
      </trkpt>
      <trkpt lat="48.61359" lon="2.08797">
        <ele>137</ele>
        <time>2013-08-17T07:23:17Z</time>
      </trkpt>
      <trkpt lat="48.61359" lon="2.08793">
        <ele>137</ele>
        <time>2013-08-17T07:23:19Z</time>
      </trkpt>
      <trkpt lat="48.61359" lon="2.08789">
        <ele>137</ele>
        <time>2013-08-17T07:23:21Z</time>
      </trkpt>
      <trkpt lat="48.6136" lon="2.08785">
        <ele>137</ele>
        <time>2013-08-17T07:23:23Z</time>
      </trkpt>
      <trkpt lat="48.6136" lon="2.08781">
        <ele>138</ele>
        <time>2013-08-17T07:23:25Z</time>
      </trkpt>
      <trkpt lat="48.61361" lon="2.08778">
        <ele>138</ele>
        <time>2013-08-17T07:23:27Z</time>
      </trkpt>
      <trkpt lat="48.61362" lon="2.08774">
        <ele>138</ele>
        <time>2013-08-17T07:23:29Z</time>
      </trkpt>
      <trkpt lat="48.61362" lon="2.08769">
        <ele>139</ele>
        <time>2013-08-17T07:23:31Z</time>
      </trkpt>
      <trkpt lat="48.61363" lon="2.08765">
        <ele>139</ele>
        <time>2013-08-17T07:23:33Z</time>
      </trkpt>
      <trkpt lat="48.61364" lon="2.08762">
        <ele>139</ele>
        <time>2013-08-17T07:23:35Z</time>
      </trkpt>
      <trkpt lat="48.61365" lon="2.08757">
        <ele>140</ele>
        <time>2013-08-17T07:23:37Z</time>
      </trkpt>
      <trkpt lat="48.61366" lon="2.08752">
        <ele>140</ele>
        <time>2013-08-17T07:23:40Z</time>
      </trkpt>
      <trkpt lat="48.61367" lon="2.08748">
        <ele>140</ele>
        <time>2013-08-17T07:23:42Z</time>
      </trkpt>
      <trkpt lat="48.61369" lon="2.08742">
        <ele>140</ele>
        <time>2013-08-17T07:23:45Z</time>
      </trkpt>
      <trkpt lat="48.61369" lon="2.08738">
        <ele>140</ele>
        <time>2013-08-17T07:23:47Z</time>
      </trkpt>
      <trkpt lat="48.6137" lon="2.08734">
        <ele>140</ele>
        <time>2013-08-17T07:23:49Z</time>
      </trkpt>
      <trkpt lat="48.6137" lon="2.0873">
        <ele>141</ele>
        <time>2013-08-17T07:23:51Z</time>
      </trkpt>
      <trkpt lat="48.61372" lon="2.08725">
        <ele>142</ele>
        <time>2013-08-17T07:23:53Z</time>
      </trkpt>
      <trkpt lat="48.61373" lon="2.08721">
        <ele>142</ele>
        <time>2013-08-17T07:23:55Z</time>
      </trkpt>
      <trkpt lat="48.61375" lon="2.08716">
        <ele>143</ele>
        <time>2013-08-17T07:23:57Z</time>
      </trkpt>
      <trkpt lat="48.61376" lon="2.08712">
        <ele>143</ele>
        <time>2013-08-17T07:23:59Z</time>
      </trkpt>
      <trkpt lat="48.61378" lon="2.08708">
        <ele>143</ele>
        <time>2013-08-17T07:24:01Z</time>
      </trkpt>
      <trkpt lat="48.61379" lon="2.08705">
        <ele>143</ele>
        <time>2013-08-17T07:24:03Z</time>
      </trkpt>
      <trkpt lat="48.6138" lon="2.08701">
        <ele>143</ele>
        <time>2013-08-17T07:24:05Z</time>
      </trkpt>
      <trkpt lat="48.61383" lon="2.08699">
        <ele>143</ele>
        <time>2013-08-17T07:24:07Z</time>
      </trkpt>
      <trkpt lat="48.61385" lon="2.08694">
        <ele>143</ele>
        <time>2013-08-17T07:24:09Z</time>
      </trkpt>
      <trkpt lat="48.61387" lon="2.08689">
        <ele>143</ele>
        <time>2013-08-17T07:24:12Z</time>
      </trkpt>
      <trkpt lat="48.61389" lon="2.08685">
        <ele>143</ele>
        <time>2013-08-17T07:24:14Z</time>
      </trkpt>
      <trkpt lat="48.61391" lon="2.08681">
        <ele>143</ele>
        <time>2013-08-17T07:24:16Z</time>
      </trkpt>
      <trkpt lat="48.61392" lon="2.08678">
        <ele>143</ele>
        <time>2013-08-17T07:24:18Z</time>
      </trkpt>
      <trkpt lat="48.61394" lon="2.08674">
        <ele>143</ele>
        <time>2013-08-17T07:24:20Z</time>
      </trkpt>
      <trkpt lat="48.61396" lon="2.0867">
        <ele>143</ele>
        <time>2013-08-17T07:24:22Z</time>
      </trkpt>
      <trkpt lat="48.61398" lon="2.08666">
        <ele>143</ele>
        <time>2013-08-17T07:24:24Z</time>
      </trkpt>
      <trkpt lat="48.61399" lon="2.08663">
        <ele>143</ele>
        <time>2013-08-17T07:24:26Z</time>
      </trkpt>
      <trkpt lat="48.614" lon="2.0866">
        <ele>143</ele>
        <time>2013-08-17T07:24:28Z</time>
      </trkpt>
      <trkpt lat="48.61401" lon="2.08656">
        <ele>143</ele>
        <time>2013-08-17T07:24:30Z</time>
      </trkpt>
      <trkpt lat="48.61404" lon="2.08651">
        <ele>143</ele>
        <time>2013-08-17T07:24:33Z</time>
      </trkpt>
      <trkpt lat="48.61405" lon="2.08646">
        <ele>143</ele>
        <time>2013-08-17T07:24:36Z</time>
      </trkpt>
      <trkpt lat="48.61406" lon="2.08642">
        <ele>143</ele>
        <time>2013-08-17T07:24:38Z</time>
      </trkpt>
      <trkpt lat="48.61408" lon="2.08636">
        <ele>143</ele>
        <time>2013-08-17T07:24:41Z</time>
      </trkpt>
      <trkpt lat="48.61409" lon="2.08633">
        <ele>143</ele>
        <time>2013-08-17T07:24:43Z</time>
      </trkpt>
      <trkpt lat="48.61412" lon="2.08629">
        <ele>143</ele>
        <time>2013-08-17T07:24:45Z</time>
      </trkpt>
      <trkpt lat="48.61415" lon="2.08626">
        <ele>143</ele>
        <time>2013-08-17T07:24:47Z</time>
      </trkpt>
      <trkpt lat="48.61419" lon="2.08623">
        <ele>143</ele>
        <time>2013-08-17T07:24:49Z</time>
      </trkpt>
      <trkpt lat="48.61421" lon="2.0862">
        <ele>143</ele>
        <time>2013-08-17T07:24:51Z</time>
      </trkpt>
      <trkpt lat="48.61423" lon="2.08616">
        <ele>144</ele>
        <time>2013-08-17T07:24:53Z</time>
      </trkpt>
      <trkpt lat="48.61427" lon="2.08613">
        <ele>144</ele>
        <time>2013-08-17T07:24:56Z</time>
      </trkpt>
      <trkpt lat="48.6143" lon="2.0861">
        <ele>144</ele>
        <time>2013-08-17T07:24:58Z</time>
      </trkpt>
      <trkpt lat="48.61433" lon="2.08607">
        <ele>144</ele>
        <time>2013-08-17T07:25:01Z</time>
      </trkpt>
      <trkpt lat="48.61436" lon="2.08605">
        <ele>144</ele>
        <time>2013-08-17T07:25:03Z</time>
      </trkpt>
      <trkpt lat="48.61438" lon="2.08603">
        <ele>144</ele>
        <time>2013-08-17T07:25:05Z</time>
      </trkpt>
      <trkpt lat="48.61441" lon="2.08599">
        <ele>144</ele>
        <time>2013-08-17T07:25:07Z</time>
      </trkpt>
      <trkpt lat="48.61444" lon="2.08596">
        <ele>145</ele>
        <time>2013-08-17T07:25:09Z</time>
      </trkpt>
      <trkpt lat="48.61448" lon="2.0859">
        <ele>146</ele>
        <time>2013-08-17T07:25:12Z</time>
      </trkpt>
      <trkpt lat="48.61451" lon="2.08585">
        <ele>146</ele>
        <time>2013-08-17T07:25:14Z</time>
      </trkpt>
      <trkpt lat="48.61454" lon="2.08582">
        <ele>146</ele>
        <time>2013-08-17T07:25:16Z</time>
      </trkpt>
      <trkpt lat="48.61458" lon="2.08578">
        <ele>147</ele>
        <time>2013-08-17T07:25:19Z</time>
      </trkpt>
      <trkpt lat="48.61463" lon="2.08573">
        <ele>149</ele>
        <time>2013-08-17T07:25:23Z</time>
      </trkpt>
      <trkpt lat="48.61466" lon="2.08573">
        <ele>150</ele>
        <time>2013-08-17T07:25:25Z</time>
      </trkpt>
      <trkpt lat="48.6147" lon="2.08573">
        <ele>150</ele>
        <time>2013-08-17T07:25:27Z</time>
      </trkpt>
      <trkpt lat="48.61473" lon="2.08574">
        <ele>150</ele>
        <time>2013-08-17T07:25:29Z</time>
      </trkpt>
      <trkpt lat="48.61477" lon="2.08575">
        <ele>150</ele>
        <time>2013-08-17T07:25:31Z</time>
      </trkpt>
      <trkpt lat="48.61482" lon="2.08576">
        <ele>150</ele>
        <time>2013-08-17T07:25:33Z</time>
      </trkpt>
      <trkpt lat="48.61485" lon="2.08576">
        <ele>150</ele>
        <time>2013-08-17T07:25:35Z</time>
      </trkpt>
      <trkpt lat="48.61488" lon="2.08575">
        <ele>150</ele>
        <time>2013-08-17T07:25:38Z</time>
      </trkpt>
      <trkpt lat="48.61493" lon="2.08573">
        <ele>150</ele>
        <time>2013-08-17T07:25:41Z</time>
      </trkpt>
      <trkpt lat="48.61496" lon="2.0857">
        <ele>150</ele>
        <time>2013-08-17T07:25:43Z</time>
      </trkpt>
      <trkpt lat="48.61499" lon="2.08566">
        <ele>150</ele>
        <time>2013-08-17T07:25:46Z</time>
      </trkpt>
      <trkpt lat="48.61501" lon="2.08562">
        <ele>150</ele>
        <time>2013-08-17T07:25:48Z</time>
      </trkpt>
      <trkpt lat="48.61503" lon="2.08558">
        <ele>150</ele>
        <time>2013-08-17T07:25:50Z</time>
      </trkpt>
      <trkpt lat="48.61504" lon="2.08553">
        <ele>150</ele>
        <time>2013-08-17T07:25:52Z</time>
      </trkpt>
      <trkpt lat="48.61506" lon="2.08548">
        <ele>150</ele>
        <time>2013-08-17T07:25:54Z</time>
      </trkpt>
      <trkpt lat="48.61507" lon="2.08543">
        <ele>150</ele>
        <time>2013-08-17T07:25:56Z</time>
      </trkpt>
      <trkpt lat="48.61509" lon="2.0854">
        <ele>150</ele>
        <time>2013-08-17T07:25:58Z</time>
      </trkpt>
      <trkpt lat="48.61511" lon="2.08536">
        <ele>150</ele>
        <time>2013-08-17T07:26:00Z</time>
      </trkpt>
      <trkpt lat="48.61513" lon="2.0853">
        <ele>150</ele>
        <time>2013-08-17T07:26:03Z</time>
      </trkpt>
      <trkpt lat="48.61515" lon="2.08526">
        <ele>150</ele>
        <time>2013-08-17T07:26:05Z</time>
      </trkpt>
      <trkpt lat="48.61517" lon="2.08522">
        <ele>150</ele>
        <time>2013-08-17T07:26:07Z</time>
      </trkpt>
      <trkpt lat="48.61518" lon="2.08519">
        <ele>150</ele>
        <time>2013-08-17T07:26:09Z</time>
      </trkpt>
      <trkpt lat="48.6152" lon="2.08515">
        <ele>150</ele>
        <time>2013-08-17T07:26:11Z</time>
      </trkpt>
      <trkpt lat="48.61521" lon="2.0851">
        <ele>150</ele>
        <time>2013-08-17T07:26:13Z</time>
      </trkpt>
      <trkpt lat="48.61523" lon="2.08505">
        <ele>150</ele>
        <time>2013-08-17T07:26:16Z</time>
      </trkpt>
      <trkpt lat="48.61523" lon="2.08502">
        <ele>150</ele>
        <time>2013-08-17T07:26:18Z</time>
      </trkpt>
      <trkpt lat="48.61524" lon="2.08499">
        <ele>150</ele>
        <time>2013-08-17T07:26:20Z</time>
      </trkpt>
      <trkpt lat="48.61526" lon="2.08494">
        <ele>150</ele>
        <time>2013-08-17T07:26:22Z</time>
      </trkpt>
      <trkpt lat="48.61528" lon="2.08488">
        <ele>150</ele>
        <time>2013-08-17T07:26:25Z</time>
      </trkpt>
      <trkpt lat="48.6153" lon="2.08483">
        <ele>150</ele>
        <time>2013-08-17T07:26:27Z</time>
      </trkpt>
      <trkpt lat="48.61531" lon="2.08479">
        <ele>150</ele>
        <time>2013-08-17T07:26:29Z</time>
      </trkpt>
      <trkpt lat="48.61532" lon="2.08475">
        <ele>150</ele>
        <time>2013-08-17T07:26:31Z</time>
      </trkpt>
      <trkpt lat="48.61533" lon="2.0847">
        <ele>150</ele>
        <time>2013-08-17T07:26:33Z</time>
      </trkpt>
      <trkpt lat="48.61537" lon="2.08463">
        <ele>150</ele>
        <time>2013-08-17T07:26:36Z</time>
      </trkpt>
      <trkpt lat="48.61538" lon="2.08458">
        <ele>150</ele>
        <time>2013-08-17T07:26:38Z</time>
      </trkpt>
      <trkpt lat="48.61541" lon="2.08449">
        <ele>150</ele>
        <time>2013-08-17T07:26:41Z</time>
      </trkpt>
      <trkpt lat="48.61543" lon="2.08441">
        <ele>150</ele>
        <time>2013-08-17T07:26:43Z</time>
      </trkpt>
      <trkpt lat="48.61544" lon="2.08435">
        <ele>151</ele>
        <time>2013-08-17T07:26:46Z</time>
      </trkpt>
      <trkpt lat="48.61546" lon="2.08428">
        <ele>152</ele>
        <time>2013-08-17T07:26:49Z</time>
      </trkpt>
      <trkpt lat="48.61548" lon="2.08423">
        <ele>153</ele>
        <time>2013-08-17T07:26:51Z</time>
      </trkpt>
      <trkpt lat="48.6155" lon="2.08418">
        <ele>154</ele>
        <time>2013-08-17T07:26:54Z</time>
      </trkpt>
      <trkpt lat="48.61552" lon="2.08413">
        <ele>155</ele>
        <time>2013-08-17T07:26:57Z</time>
      </trkpt>
      <trkpt lat="48.61554" lon="2.08409">
        <ele>155</ele>
        <time>2013-08-17T07:26:59Z</time>
      </trkpt>
      <trkpt lat="48.61556" lon="2.08405">
        <ele>156</ele>
        <time>2013-08-17T07:27:01Z</time>
      </trkpt>
      <trkpt lat="48.61557" lon="2.084">
        <ele>157</ele>
        <time>2013-08-17T07:27:03Z</time>
      </trkpt>
      <trkpt lat="48.6156" lon="2.08396">
        <ele>157</ele>
        <time>2013-08-17T07:27:05Z</time>
      </trkpt>
      <trkpt lat="48.61562" lon="2.0839">
        <ele>158</ele>
        <time>2013-08-17T07:27:08Z</time>
      </trkpt>
      <trkpt lat="48.61565" lon="2.08384">
        <ele>159</ele>
        <time>2013-08-17T07:27:10Z</time>
      </trkpt>
      <trkpt lat="48.61567" lon="2.08379">
        <ele>159</ele>
        <time>2013-08-17T07:27:12Z</time>
      </trkpt>
      <trkpt lat="48.61569" lon="2.08376">
        <ele>159</ele>
        <time>2013-08-17T07:27:15Z</time>
      </trkpt>
      <trkpt lat="48.61572" lon="2.0837">
        <ele>159</ele>
        <time>2013-08-17T07:27:18Z</time>
      </trkpt>
      <trkpt lat="48.61575" lon="2.08364">
        <ele>159</ele>
        <time>2013-08-17T07:27:21Z</time>
      </trkpt>
      <trkpt lat="48.61577" lon="2.0836">
        <ele>159</ele>
        <time>2013-08-17T07:27:23Z</time>
      </trkpt>
      <trkpt lat="48.6158" lon="2.08354">
        <ele>159</ele>
        <time>2013-08-17T07:27:26Z</time>
      </trkpt>
      <trkpt lat="48.61583" lon="2.08352">
        <ele>159</ele>
        <time>2013-08-17T07:27:28Z</time>
      </trkpt>
      <trkpt lat="48.61586" lon="2.08349">
        <ele>159</ele>
        <time>2013-08-17T07:27:31Z</time>
      </trkpt>
      <trkpt lat="48.61591" lon="2.08344">
        <ele>159</ele>
        <time>2013-08-17T07:27:34Z</time>
      </trkpt>
      <trkpt lat="48.61593" lon="2.08341">
        <ele>158</ele>
        <time>2013-08-17T07:27:36Z</time>
      </trkpt>
      <trkpt lat="48.61596" lon="2.08338">
        <ele>157</ele>
        <time>2013-08-17T07:27:38Z</time>
      </trkpt>
      <trkpt lat="48.61598" lon="2.08335">
        <ele>157</ele>
        <time>2013-08-17T07:27:41Z</time>
      </trkpt>
      <trkpt lat="48.61602" lon="2.0833">
        <ele>156</ele>
        <time>2013-08-17T07:27:44Z</time>
      </trkpt>
      <trkpt lat="48.61604" lon="2.08327">
        <ele>156</ele>
        <time>2013-08-17T07:27:47Z</time>
      </trkpt>
      <trkpt lat="48.61608" lon="2.08323">
        <ele>156</ele>
        <time>2013-08-17T07:27:50Z</time>
      </trkpt>
      <trkpt lat="48.6161" lon="2.0832">
        <ele>156</ele>
        <time>2013-08-17T07:27:53Z</time>
      </trkpt>
      <trkpt lat="48.61614" lon="2.08314">
        <ele>156</ele>
        <time>2013-08-17T07:27:55Z</time>
      </trkpt>
      <trkpt lat="48.61617" lon="2.08312">
        <ele>156</ele>
        <time>2013-08-17T07:27:58Z</time>
      </trkpt>
      <trkpt lat="48.61621" lon="2.08308">
        <ele>156</ele>
        <time>2013-08-17T07:28:00Z</time>
      </trkpt>
      <trkpt lat="48.61624" lon="2.08306">
        <ele>156</ele>
        <time>2013-08-17T07:28:03Z</time>
      </trkpt>
      <trkpt lat="48.61628" lon="2.08302">
        <ele>156</ele>
        <time>2013-08-17T07:28:05Z</time>
      </trkpt>
      <trkpt lat="48.61631" lon="2.083">
        <ele>156</ele>
        <time>2013-08-17T07:28:08Z</time>
      </trkpt>
      <trkpt lat="48.61635" lon="2.08296">
        <ele>156</ele>
        <time>2013-08-17T07:28:10Z</time>
      </trkpt>
      <trkpt lat="48.61638" lon="2.08295">
        <ele>156</ele>
        <time>2013-08-17T07:28:13Z</time>
      </trkpt>
      <trkpt lat="48.61641" lon="2.08291">
        <ele>156</ele>
        <time>2013-08-17T07:28:15Z</time>
      </trkpt>
      <trkpt lat="48.61644" lon="2.08286">
        <ele>156</ele>
        <time>2013-08-17T07:28:19Z</time>
      </trkpt>
      <trkpt lat="48.61647" lon="2.08281">
        <ele>156</ele>
        <time>2013-08-17T07:28:21Z</time>
      </trkpt>
      <trkpt lat="48.6165" lon="2.08279">
        <ele>156</ele>
        <time>2013-08-17T07:28:24Z</time>
      </trkpt>
      <trkpt lat="48.61653" lon="2.08274">
        <ele>156</ele>
        <time>2013-08-17T07:28:26Z</time>
      </trkpt>
      <trkpt lat="48.61655" lon="2.0827">
        <ele>156</ele>
        <time>2013-08-17T07:28:29Z</time>
      </trkpt>
      <trkpt lat="48.61657" lon="2.08265">
        <ele>157</ele>
        <time>2013-08-17T07:28:31Z</time>
      </trkpt>
      <trkpt lat="48.6166" lon="2.08262">
        <ele>158</ele>
        <time>2013-08-17T07:28:34Z</time>
      </trkpt>
      <trkpt lat="48.61664" lon="2.08258">
        <ele>158</ele>
        <time>2013-08-17T07:28:36Z</time>
      </trkpt>
      <trkpt lat="48.61668" lon="2.08254">
        <ele>158</ele>
        <time>2013-08-17T07:28:40Z</time>
      </trkpt>
      <trkpt lat="48.61671" lon="2.0825">
        <ele>158</ele>
        <time>2013-08-17T07:28:42Z</time>
      </trkpt>
      <trkpt lat="48.61673" lon="2.08247">
        <ele>158</ele>
        <time>2013-08-17T07:28:45Z</time>
      </trkpt>
      <trkpt lat="48.61677" lon="2.08244">
        <ele>158</ele>
        <time>2013-08-17T07:28:47Z</time>
      </trkpt>
      <trkpt lat="48.6168" lon="2.08243">
        <ele>158</ele>
        <time>2013-08-17T07:28:50Z</time>
      </trkpt>
      <trkpt lat="48.61683" lon="2.08239">
        <ele>158</ele>
        <time>2013-08-17T07:28:53Z</time>
      </trkpt>
      <trkpt lat="48.61685" lon="2.08236">
        <ele>158</ele>
        <time>2013-08-17T07:28:55Z</time>
      </trkpt>
      <trkpt lat="48.61688" lon="2.08232">
        <ele>158</ele>
        <time>2013-08-17T07:28:57Z</time>
      </trkpt>
      <trkpt lat="48.6169" lon="2.0823">
        <ele>158</ele>
        <time>2013-08-17T07:29:00Z</time>
      </trkpt>
      <trkpt lat="48.61694" lon="2.08225">
        <ele>158</ele>
        <time>2013-08-17T07:29:02Z</time>
      </trkpt>
      <trkpt lat="48.61696" lon="2.08221">
        <ele>158</ele>
        <time>2013-08-17T07:29:06Z</time>
      </trkpt>
      <trkpt lat="48.61698" lon="2.08214">
        <ele>159</ele>
        <time>2013-08-17T07:29:08Z</time>
      </trkpt>
      <trkpt lat="48.61699" lon="2.08209">
        <ele>161</ele>
        <time>2013-08-17T07:29:11Z</time>
      </trkpt>
      <trkpt lat="48.61701" lon="2.08202">
        <ele>163</ele>
        <time>2013-08-17T07:29:13Z</time>
      </trkpt>
      <trkpt lat="48.61702" lon="2.082">
        <ele>163</ele>
        <time>2013-08-17T07:29:16Z</time>
      </trkpt>
      <trkpt lat="48.61702" lon="2.08193">
        <ele>163</ele>
        <time>2013-08-17T07:29:18Z</time>
      </trkpt>
      <trkpt lat="48.61703" lon="2.08187">
        <ele>163</ele>
        <time>2013-08-17T07:29:22Z</time>
      </trkpt>
      <trkpt lat="48.61706" lon="2.0818">
        <ele>164</ele>
        <time>2013-08-17T07:29:24Z</time>
      </trkpt>
      <trkpt lat="48.61708" lon="2.08174">
        <ele>164</ele>
        <time>2013-08-17T07:29:27Z</time>
      </trkpt>
      <trkpt lat="48.6171" lon="2.0817">
        <ele>164</ele>
        <time>2013-08-17T07:29:29Z</time>
      </trkpt>
      <trkpt lat="48.6171" lon="2.08161">
        <ele>164</ele>
        <time>2013-08-17T07:29:32Z</time>
      </trkpt>
      <trkpt lat="48.61711" lon="2.08154">
        <ele>165</ele>
        <time>2013-08-17T07:29:35Z</time>
      </trkpt>
      <trkpt lat="48.61711" lon="2.08149">
        <ele>166</ele>
        <time>2013-08-17T07:29:37Z</time>
      </trkpt>
      <trkpt lat="48.61711" lon="2.08144">
        <ele>167</ele>
        <time>2013-08-17T07:29:39Z</time>
      </trkpt>
      <trkpt lat="48.61713" lon="2.08138">
        <ele>169</ele>
        <time>2013-08-17T07:29:42Z</time>
      </trkpt>
      <trkpt lat="48.61714" lon="2.08131">
        <ele>170</ele>
        <time>2013-08-17T07:29:45Z</time>
      </trkpt>
      <trkpt lat="48.61714" lon="2.08126">
        <ele>170</ele>
        <time>2013-08-17T07:29:48Z</time>
      </trkpt>
      <trkpt lat="48.61714" lon="2.08118">
        <ele>170</ele>
        <time>2013-08-17T07:29:50Z</time>
      </trkpt>
      <trkpt lat="48.61715" lon="2.08114">
        <ele>170</ele>
        <time>2013-08-17T07:29:53Z</time>
      </trkpt>
      <trkpt lat="48.61715" lon="2.08104">
        <ele>171</ele>
        <time>2013-08-17T07:29:55Z</time>
      </trkpt>
      <trkpt lat="48.61715" lon="2.081">
        <ele>171</ele>
        <time>2013-08-17T07:29:58Z</time>
      </trkpt>
      <trkpt lat="48.61716" lon="2.08096">
        <ele>172</ele>
        <time>2013-08-17T07:30:00Z</time>
      </trkpt>
      <trkpt lat="48.61716" lon="2.08091">
        <ele>172</ele>
        <time>2013-08-17T07:30:03Z</time>
      </trkpt>
      <trkpt lat="48.61716" lon="2.08083">
        <ele>172</ele>
        <time>2013-08-17T07:30:05Z</time>
      </trkpt>
      <trkpt lat="48.61717" lon="2.08079">
        <ele>172</ele>
        <time>2013-08-17T07:30:08Z</time>
      </trkpt>
      <trkpt lat="48.61719" lon="2.08074">
        <ele>172</ele>
        <time>2013-08-17T07:30:10Z</time>
      </trkpt>
      <trkpt lat="48.6172" lon="2.0807">
        <ele>172</ele>
        <time>2013-08-17T07:30:13Z</time>
      </trkpt>
      <trkpt lat="48.61721" lon="2.08063">
        <ele>172</ele>
        <time>2013-08-17T07:30:15Z</time>
      </trkpt>
      <trkpt lat="48.61722" lon="2.08058">
        <ele>172</ele>
        <time>2013-08-17T07:30:18Z</time>
      </trkpt>
      <trkpt lat="48.61724" lon="2.08054">
        <ele>170</ele>
        <time>2013-08-17T07:30:20Z</time>
      </trkpt>
      <trkpt lat="48.61725" lon="2.0805">
        <ele>168</ele>
        <time>2013-08-17T07:30:23Z</time>
      </trkpt>
      <trkpt lat="48.61727" lon="2.08043">
        <ele>166</ele>
        <time>2013-08-17T07:30:26Z</time>
      </trkpt>
      <trkpt lat="48.61729" lon="2.08039">
        <ele>164</ele>
        <time>2013-08-17T07:30:28Z</time>
      </trkpt>
      <trkpt lat="48.6173" lon="2.08034">
        <ele>163</ele>
        <time>2013-08-17T07:30:30Z</time>
      </trkpt>
      <trkpt lat="48.61732" lon="2.0803">
        <ele>161</ele>
        <time>2013-08-17T07:30:33Z</time>
      </trkpt>
      <trkpt lat="48.61733" lon="2.08022">
        <ele>160</ele>
        <time>2013-08-17T07:30:35Z</time>
      </trkpt>
      <trkpt lat="48.61731" lon="2.08014">
        <ele>160</ele>
        <time>2013-08-17T07:30:38Z</time>
      </trkpt>
      <trkpt lat="48.61732" lon="2.0801">
        <ele>160</ele>
        <time>2013-08-17T07:30:40Z</time>
      </trkpt>
      <trkpt lat="48.61734" lon="2.08005">
        <ele>160</ele>
        <time>2013-08-17T07:30:43Z</time>
      </trkpt>
      <trkpt lat="48.61736" lon="2.07997">
        <ele>160</ele>
        <time>2013-08-17T07:30:45Z</time>
      </trkpt>
      <trkpt lat="48.61739" lon="2.07991">
        <ele>160</ele>
        <time>2013-08-17T07:30:50Z</time>
      </trkpt>
      <trkpt lat="48.61742" lon="2.07984">
        <ele>160</ele>
        <time>2013-08-17T07:30:52Z</time>
      </trkpt>
      <trkpt lat="48.61744" lon="2.07977">
        <ele>160</ele>
        <time>2013-08-17T07:30:55Z</time>
      </trkpt>
      <trkpt lat="48.61746" lon="2.07971">
        <ele>160</ele>
        <time>2013-08-17T07:30:57Z</time>
      </trkpt>
      <trkpt lat="48.61747" lon="2.07966">
        <ele>160</ele>
        <time>2013-08-17T07:31:00Z</time>
      </trkpt>
      <trkpt lat="48.6175" lon="2.07957">
        <ele>163</ele>
        <time>2013-08-17T07:31:02Z</time>
      </trkpt>
      <trkpt lat="48.61751" lon="2.07951">
        <ele>164</ele>
        <time>2013-08-17T07:31:05Z</time>
      </trkpt>
      <trkpt lat="48.61755" lon="2.07946">
        <ele>166</ele>
        <time>2013-08-17T07:31:07Z</time>
      </trkpt>
      <trkpt lat="48.61757" lon="2.07941">
        <ele>166</ele>
        <time>2013-08-17T07:31:09Z</time>
      </trkpt>
      <trkpt lat="48.61759" lon="2.07938">
        <ele>166</ele>
        <time>2013-08-17T07:31:11Z</time>
      </trkpt>
      <trkpt lat="48.61762" lon="2.07935">
        <ele>166</ele>
        <time>2013-08-17T07:31:13Z</time>
      </trkpt>
      <trkpt lat="48.61764" lon="2.07931">
        <ele>166</ele>
        <time>2013-08-17T07:31:15Z</time>
      </trkpt>
      <trkpt lat="48.61766" lon="2.07929">
        <ele>166</ele>
        <time>2013-08-17T07:31:17Z</time>
      </trkpt>
      <trkpt lat="48.6177" lon="2.07924">
        <ele>165</ele>
        <time>2013-08-17T07:31:20Z</time>
      </trkpt>
      <trkpt lat="48.61773" lon="2.07919">
        <ele>164</ele>
        <time>2013-08-17T07:31:23Z</time>
      </trkpt>
      <trkpt lat="48.61775" lon="2.07911">
        <ele>164</ele>
        <time>2013-08-17T07:31:26Z</time>
      </trkpt>
      <trkpt lat="48.61776" lon="2.07908">
        <ele>164</ele>
        <time>2013-08-17T07:31:28Z</time>
      </trkpt>
      <trkpt lat="48.61778" lon="2.07902">
        <ele>164</ele>
        <time>2013-08-17T07:31:30Z</time>
      </trkpt>
      <trkpt lat="48.61779" lon="2.07897">
        <ele>164</ele>
        <time>2013-08-17T07:31:32Z</time>
      </trkpt>
      <trkpt lat="48.61782" lon="2.07894">
        <ele>164</ele>
        <time>2013-08-17T07:31:34Z</time>
      </trkpt>
      <trkpt lat="48.61783" lon="2.07888">
        <ele>164</ele>
        <time>2013-08-17T07:31:37Z</time>
      </trkpt>
      <trkpt lat="48.61787" lon="2.07884">
        <ele>165</ele>
        <time>2013-08-17T07:31:39Z</time>
      </trkpt>
      <trkpt lat="48.61789" lon="2.07881">
        <ele>165</ele>
        <time>2013-08-17T07:31:41Z</time>
      </trkpt>
      <trkpt lat="48.61791" lon="2.07878">
        <ele>165</ele>
        <time>2013-08-17T07:31:43Z</time>
      </trkpt>
      <trkpt lat="48.61793" lon="2.07875">
        <ele>165</ele>
        <time>2013-08-17T07:31:45Z</time>
      </trkpt>
      <trkpt lat="48.61794" lon="2.07873">
        <ele>165</ele>
        <time>2013-08-17T07:31:47Z</time>
      </trkpt>
      <trkpt lat="48.61795" lon="2.07869">
        <ele>165</ele>
        <time>2013-08-17T07:31:49Z</time>
      </trkpt>
      <trkpt lat="48.61797" lon="2.07865">
        <ele>165</ele>
        <time>2013-08-17T07:31:51Z</time>
      </trkpt>
      <trkpt lat="48.61798" lon="2.07861">
        <ele>166</ele>
        <time>2013-08-17T07:31:53Z</time>
      </trkpt>
      <trkpt lat="48.61801" lon="2.07857">
        <ele>166</ele>
        <time>2013-08-17T07:31:55Z</time>
      </trkpt>
      <trkpt lat="48.61804" lon="2.07851">
        <ele>166</ele>
        <time>2013-08-17T07:31:58Z</time>
      </trkpt>
      <trkpt lat="48.61806" lon="2.07847">
        <ele>166</ele>
        <time>2013-08-17T07:32:00Z</time>
      </trkpt>
      <trkpt lat="48.61808" lon="2.07843">
        <ele>166</ele>
        <time>2013-08-17T07:32:02Z</time>
      </trkpt>
      <trkpt lat="48.61809" lon="2.07839">
        <ele>166</ele>
        <time>2013-08-17T07:32:04Z</time>
      </trkpt>
      <trkpt lat="48.61812" lon="2.07833">
        <ele>166</ele>
        <time>2013-08-17T07:32:07Z</time>
      </trkpt>
      <trkpt lat="48.61814" lon="2.07829">
        <ele>166</ele>
        <time>2013-08-17T07:32:10Z</time>
      </trkpt>
      <trkpt lat="48.61816" lon="2.07826">
        <ele>166</ele>
        <time>2013-08-17T07:32:12Z</time>
      </trkpt>
      <trkpt lat="48.61818" lon="2.07824">
        <ele>166</ele>
        <time>2013-08-17T07:32:14Z</time>
      </trkpt>
      <trkpt lat="48.6182" lon="2.07821">
        <ele>166</ele>
        <time>2013-08-17T07:32:16Z</time>
      </trkpt>
      <trkpt lat="48.61822" lon="2.07819">
        <ele>166</ele>
        <time>2013-08-17T07:32:18Z</time>
      </trkpt>
      <trkpt lat="48.61824" lon="2.07815">
        <ele>166</ele>
        <time>2013-08-17T07:32:20Z</time>
      </trkpt>
      <trkpt lat="48.61827" lon="2.07811">
        <ele>166</ele>
        <time>2013-08-17T07:32:23Z</time>
      </trkpt>
      <trkpt lat="48.61828" lon="2.07808">
        <ele>166</ele>
        <time>2013-08-17T07:32:25Z</time>
      </trkpt>
      <trkpt lat="48.61831" lon="2.07804">
        <ele>166</ele>
        <time>2013-08-17T07:32:27Z</time>
      </trkpt>
      <trkpt lat="48.61834" lon="2.07799">
        <ele>166</ele>
        <time>2013-08-17T07:32:29Z</time>
      </trkpt>
      <trkpt lat="48.61836" lon="2.07795">
        <ele>166</ele>
        <time>2013-08-17T07:32:31Z</time>
      </trkpt>
      <trkpt lat="48.61838" lon="2.07791">
        <ele>166</ele>
        <time>2013-08-17T07:32:33Z</time>
      </trkpt>
      <trkpt lat="48.6184" lon="2.07787">
        <ele>166</ele>
        <time>2013-08-17T07:32:35Z</time>
      </trkpt>
      <trkpt lat="48.61841" lon="2.07782">
        <ele>166</ele>
        <time>2013-08-17T07:32:37Z</time>
      </trkpt>
      <trkpt lat="48.61842" lon="2.07777">
        <ele>167</ele>
        <time>2013-08-17T07:32:39Z</time>
      </trkpt>
      <trkpt lat="48.61843" lon="2.07771">
        <ele>168</ele>
        <time>2013-08-17T07:32:42Z</time>
      </trkpt>
      <trkpt lat="48.61845" lon="2.07765">
        <ele>169</ele>
        <time>2013-08-17T07:32:44Z</time>
      </trkpt>
      <trkpt lat="48.61846" lon="2.07759">
        <ele>169</ele>
        <time>2013-08-17T07:32:46Z</time>
      </trkpt>
      <trkpt lat="48.61848" lon="2.07755">
        <ele>170</ele>
        <time>2013-08-17T07:32:48Z</time>
      </trkpt>
      <trkpt lat="48.6185" lon="2.07749">
        <ele>171</ele>
        <time>2013-08-17T07:32:51Z</time>
      </trkpt>
      <trkpt lat="48.61851" lon="2.07743">
        <ele>171</ele>
        <time>2013-08-17T07:32:53Z</time>
      </trkpt>
      <trkpt lat="48.61853" lon="2.07738">
        <ele>172</ele>
        <time>2013-08-17T07:32:56Z</time>
      </trkpt>
      <trkpt lat="48.61853" lon="2.07736">
        <ele>173</ele>
        <time>2013-08-17T07:32:58Z</time>
      </trkpt>
      <trkpt lat="48.61854" lon="2.07735">
        <ele>173</ele>
        <time>2013-08-17T07:33:00Z</time>
      </trkpt>
      <trkpt lat="48.61855" lon="2.07729">
        <ele>173</ele>
        <time>2013-08-17T07:33:03Z</time>
      </trkpt>
      <trkpt lat="48.61856" lon="2.07725">
        <ele>173</ele>
        <time>2013-08-17T07:33:05Z</time>
      </trkpt>
      <trkpt lat="48.61858" lon="2.0772">
        <ele>173</ele>
        <time>2013-08-17T07:33:07Z</time>
      </trkpt>
      <trkpt lat="48.6186" lon="2.07715">
        <ele>173</ele>
        <time>2013-08-17T07:33:09Z</time>
      </trkpt>
      <trkpt lat="48.6186" lon="2.07709">
        <ele>173</ele>
        <time>2013-08-17T07:33:11Z</time>
      </trkpt>
      <trkpt lat="48.61862" lon="2.07705">
        <ele>173</ele>
        <time>2013-08-17T07:33:13Z</time>
      </trkpt>
      <trkpt lat="48.61863" lon="2.07699">
        <ele>173</ele>
        <time>2013-08-17T07:33:15Z</time>
      </trkpt>
      <trkpt lat="48.61865" lon="2.07695">
        <ele>173</ele>
        <time>2013-08-17T07:33:18Z</time>
      </trkpt>
      <trkpt lat="48.61866" lon="2.07691">
        <ele>173</ele>
        <time>2013-08-17T07:33:20Z</time>
      </trkpt>
      <trkpt lat="48.61868" lon="2.07686">
        <ele>173</ele>
        <time>2013-08-17T07:33:23Z</time>
      </trkpt>
      <trkpt lat="48.61869" lon="2.07684">
        <ele>173</ele>
        <time>2013-08-17T07:33:25Z</time>
      </trkpt>
      <trkpt lat="48.61871" lon="2.07682">
        <ele>173</ele>
        <time>2013-08-17T07:33:27Z</time>
      </trkpt>
      <trkpt lat="48.61872" lon="2.0768">
        <ele>173</ele>
        <time>2013-08-17T07:33:29Z</time>
      </trkpt>
      <trkpt lat="48.61873" lon="2.07675">
        <ele>173</ele>
        <time>2013-08-17T07:33:31Z</time>
      </trkpt>
      <trkpt lat="48.61875" lon="2.07668">
        <ele>173</ele>
        <time>2013-08-17T07:33:34Z</time>
      </trkpt>
      <trkpt lat="48.61877" lon="2.07663">
        <ele>173</ele>
        <time>2013-08-17T07:33:36Z</time>
      </trkpt>
      <trkpt lat="48.61878" lon="2.07658">
        <ele>173</ele>
        <time>2013-08-17T07:33:38Z</time>
      </trkpt>
      <trkpt lat="48.6188" lon="2.07654">
        <ele>173</ele>
        <time>2013-08-17T07:33:40Z</time>
      </trkpt>
      <trkpt lat="48.6188" lon="2.07648">
        <ele>173</ele>
        <time>2013-08-17T07:33:42Z</time>
      </trkpt>
      <trkpt lat="48.61882" lon="2.07644">
        <ele>173</ele>
        <time>2013-08-17T07:33:44Z</time>
      </trkpt>
      <trkpt lat="48.61884" lon="2.0764">
        <ele>173</ele>
        <time>2013-08-17T07:33:46Z</time>
      </trkpt>
      <trkpt lat="48.61887" lon="2.07636">
        <ele>173</ele>
        <time>2013-08-17T07:33:48Z</time>
      </trkpt>
      <trkpt lat="48.6189" lon="2.07634">
        <ele>173</ele>
        <time>2013-08-17T07:33:51Z</time>
      </trkpt>
      <trkpt lat="48.6189" lon="2.07632">
        <ele>173</ele>
        <time>2013-08-17T07:33:53Z</time>
      </trkpt>
      <trkpt lat="48.61891" lon="2.0763">
        <ele>173</ele>
        <time>2013-08-17T07:33:55Z</time>
      </trkpt>
      <trkpt lat="48.61892" lon="2.07629">
        <ele>173</ele>
        <time>2013-08-17T07:34:00Z</time>
      </trkpt>
      <trkpt lat="48.61893" lon="2.07627">
        <ele>173</ele>
        <time>2013-08-17T07:34:03Z</time>
      </trkpt>
      <trkpt lat="48.61895" lon="2.07625">
        <ele>173</ele>
        <time>2013-08-17T07:34:05Z</time>
      </trkpt>
      <trkpt lat="48.61898" lon="2.07621">
        <ele>173</ele>
        <time>2013-08-17T07:34:07Z</time>
      </trkpt>
      <trkpt lat="48.61901" lon="2.07613">
        <ele>173</ele>
        <time>2013-08-17T07:34:09Z</time>
      </trkpt>
      <trkpt lat="48.61903" lon="2.07609">
        <ele>172</ele>
        <time>2013-08-17T07:34:11Z</time>
      </trkpt>
      <trkpt lat="48.61904" lon="2.07605">
        <ele>170</ele>
        <time>2013-08-17T07:34:14Z</time>
      </trkpt>
      <trkpt lat="48.61904" lon="2.07603">
        <ele>170</ele>
        <time>2013-08-17T07:34:17Z</time>
      </trkpt>
      <trkpt lat="48.61904" lon="2.07601">
        <ele>170</ele>
        <time>2013-08-17T07:34:19Z</time>
      </trkpt>
      <trkpt lat="48.61906" lon="2.07598">
        <ele>170</ele>
        <time>2013-08-17T07:34:21Z</time>
      </trkpt>
      <trkpt lat="48.61907" lon="2.07594">
        <ele>170</ele>
        <time>2013-08-17T07:34:23Z</time>
      </trkpt>
      <trkpt lat="48.61908" lon="2.07589">
        <ele>170</ele>
        <time>2013-08-17T07:34:26Z</time>
      </trkpt>
      <trkpt lat="48.61909" lon="2.07583">
        <ele>170</ele>
        <time>2013-08-17T07:34:28Z</time>
      </trkpt>
      <trkpt lat="48.61911" lon="2.0758">
        <ele>170</ele>
        <time>2013-08-17T07:34:30Z</time>
      </trkpt>
      <trkpt lat="48.61912" lon="2.07574">
        <ele>170</ele>
        <time>2013-08-17T07:34:33Z</time>
      </trkpt>
      <trkpt lat="48.61912" lon="2.07572">
        <ele>170</ele>
        <time>2013-08-17T07:34:35Z</time>
      </trkpt>
      <trkpt lat="48.61913" lon="2.07566">
        <ele>170</ele>
        <time>2013-08-17T07:34:38Z</time>
      </trkpt>
      <trkpt lat="48.61914" lon="2.07562">
        <ele>170</ele>
        <time>2013-08-17T07:34:40Z</time>
      </trkpt>
      <trkpt lat="48.61916" lon="2.07557">
        <ele>170</ele>
        <time>2013-08-17T07:34:43Z</time>
      </trkpt>
      <trkpt lat="48.61919" lon="2.07553">
        <ele>170</ele>
        <time>2013-08-17T07:34:45Z</time>
      </trkpt>
      <trkpt lat="48.61922" lon="2.07548">
        <ele>170</ele>
        <time>2013-08-17T07:34:47Z</time>
      </trkpt>
      <trkpt lat="48.61924" lon="2.07545">
        <ele>170</ele>
        <time>2013-08-17T07:34:49Z</time>
      </trkpt>
      <trkpt lat="48.61927" lon="2.07541">
        <ele>170</ele>
        <time>2013-08-17T07:34:51Z</time>
      </trkpt>
      <trkpt lat="48.6193" lon="2.07537">
        <ele>170</ele>
        <time>2013-08-17T07:34:53Z</time>
      </trkpt>
      <trkpt lat="48.61931" lon="2.07532">
        <ele>170</ele>
        <time>2013-08-17T07:34:55Z</time>
      </trkpt>
      <trkpt lat="48.61932" lon="2.07526">
        <ele>170</ele>
        <time>2013-08-17T07:34:57Z</time>
      </trkpt>
      <trkpt lat="48.61932" lon="2.07522">
        <ele>170</ele>
        <time>2013-08-17T07:34:59Z</time>
      </trkpt>
      <trkpt lat="48.61934" lon="2.0752">
        <ele>170</ele>
        <time>2013-08-17T07:35:01Z</time>
      </trkpt>
      <trkpt lat="48.61937" lon="2.07514">
        <ele>171</ele>
        <time>2013-08-17T07:35:04Z</time>
      </trkpt>
      <trkpt lat="48.6194" lon="2.07511">
        <ele>172</ele>
        <time>2013-08-17T07:35:06Z</time>
      </trkpt>
      <trkpt lat="48.61942" lon="2.07506">
        <ele>172</ele>
        <time>2013-08-17T07:35:08Z</time>
      </trkpt>
      <trkpt lat="48.61943" lon="2.07503">
        <ele>173</ele>
        <time>2013-08-17T07:35:10Z</time>
      </trkpt>
      <trkpt lat="48.61943" lon="2.07499">
        <ele>173</ele>
        <time>2013-08-17T07:35:12Z</time>
      </trkpt>
      <trkpt lat="48.61943" lon="2.07495">
        <ele>173</ele>
        <time>2013-08-17T07:35:14Z</time>
      </trkpt>
      <trkpt lat="48.61944" lon="2.07491">
        <ele>173</ele>
        <time>2013-08-17T07:35:16Z</time>
      </trkpt>
      <trkpt lat="48.61945" lon="2.07486">
        <ele>173</ele>
        <time>2013-08-17T07:35:18Z</time>
      </trkpt>
      <trkpt lat="48.61946" lon="2.07483">
        <ele>174</ele>
        <time>2013-08-17T07:35:20Z</time>
      </trkpt>
      <trkpt lat="48.61945" lon="2.07478">
        <ele>174</ele>
        <time>2013-08-17T07:35:22Z</time>
      </trkpt>
      <trkpt lat="48.61947" lon="2.07473">
        <ele>174</ele>
        <time>2013-08-17T07:35:25Z</time>
      </trkpt>
      <trkpt lat="48.61948" lon="2.07469">
        <ele>174</ele>
        <time>2013-08-17T07:35:27Z</time>
      </trkpt>
      <trkpt lat="48.6195" lon="2.07465">
        <ele>174</ele>
        <time>2013-08-17T07:35:29Z</time>
      </trkpt>
      <trkpt lat="48.61952" lon="2.07461">
        <ele>174</ele>
        <time>2013-08-17T07:35:31Z</time>
      </trkpt>
      <trkpt lat="48.61954" lon="2.07456">
        <ele>174</ele>
        <time>2013-08-17T07:35:34Z</time>
      </trkpt>
      <trkpt lat="48.61955" lon="2.07451">
        <ele>174</ele>
        <time>2013-08-17T07:35:36Z</time>
      </trkpt>
      <trkpt lat="48.61956" lon="2.07448">
        <ele>174</ele>
        <time>2013-08-17T07:35:38Z</time>
      </trkpt>
      <trkpt lat="48.61958" lon="2.07442">
        <ele>174</ele>
        <time>2013-08-17T07:35:41Z</time>
      </trkpt>
      <trkpt lat="48.61959" lon="2.07437">
        <ele>174</ele>
        <time>2013-08-17T07:35:43Z</time>
      </trkpt>
      <trkpt lat="48.61961" lon="2.07431">
        <ele>174</ele>
        <time>2013-08-17T07:35:45Z</time>
      </trkpt>
      <trkpt lat="48.61962" lon="2.07426">
        <ele>174</ele>
        <time>2013-08-17T07:35:47Z</time>
      </trkpt>
      <trkpt lat="48.61964" lon="2.07422">
        <ele>174</ele>
        <time>2013-08-17T07:35:49Z</time>
      </trkpt>
      <trkpt lat="48.61966" lon="2.07417">
        <ele>174</ele>
        <time>2013-08-17T07:35:51Z</time>
      </trkpt>
      <trkpt lat="48.61969" lon="2.0741">
        <ele>174</ele>
        <time>2013-08-17T07:35:53Z</time>
      </trkpt>
      <trkpt lat="48.61972" lon="2.07401">
        <ele>173</ele>
        <time>2013-08-17T07:35:55Z</time>
      </trkpt>
      <trkpt lat="48.61975" lon="2.07394">
        <ele>172</ele>
        <time>2013-08-17T07:35:57Z</time>
      </trkpt>
      <trkpt lat="48.61979" lon="2.07389">
        <ele>171</ele>
        <time>2013-08-17T07:35:59Z</time>
      </trkpt>
      <trkpt lat="48.61984" lon="2.07384">
        <ele>171</ele>
        <time>2013-08-17T07:36:01Z</time>
      </trkpt>
      <trkpt lat="48.6199" lon="2.07382">
        <ele>171</ele>
        <time>2013-08-17T07:36:03Z</time>
      </trkpt>
      <trkpt lat="48.61995" lon="2.07381">
        <ele>171</ele>
        <time>2013-08-17T07:36:05Z</time>
      </trkpt>
      <trkpt lat="48.61998" lon="2.07377">
        <ele>171</ele>
        <time>2013-08-17T07:36:08Z</time>
      </trkpt>
      <trkpt lat="48.62001" lon="2.07375">
        <ele>171</ele>
        <time>2013-08-17T07:36:10Z</time>
      </trkpt>
      <trkpt lat="48.62005" lon="2.07373">
        <ele>171</ele>
        <time>2013-08-17T07:36:12Z</time>
      </trkpt>
      <trkpt lat="48.62007" lon="2.07372">
        <ele>171</ele>
        <time>2013-08-17T07:36:14Z</time>
      </trkpt>
      <trkpt lat="48.62011" lon="2.07371">
        <ele>171</ele>
        <time>2013-08-17T07:36:16Z</time>
      </trkpt>
      <trkpt lat="48.62016" lon="2.07369">
        <ele>171</ele>
        <time>2013-08-17T07:36:18Z</time>
      </trkpt>
      <trkpt lat="48.62018" lon="2.07369">
        <ele>171</ele>
        <time>2013-08-17T07:36:20Z</time>
      </trkpt>
      <trkpt lat="48.62021" lon="2.07367">
        <ele>171</ele>
        <time>2013-08-17T07:36:22Z</time>
      </trkpt>
      <trkpt lat="48.62024" lon="2.07365">
        <ele>171</ele>
        <time>2013-08-17T07:36:24Z</time>
      </trkpt>
      <trkpt lat="48.62027" lon="2.07365">
        <ele>171</ele>
        <time>2013-08-17T07:36:26Z</time>
      </trkpt>
      <trkpt lat="48.6203" lon="2.07364">
        <ele>171</ele>
        <time>2013-08-17T07:36:28Z</time>
      </trkpt>
      <trkpt lat="48.62033" lon="2.07363">
        <ele>171</ele>
        <time>2013-08-17T07:36:30Z</time>
      </trkpt>
      <trkpt lat="48.62037" lon="2.07363">
        <ele>171</ele>
        <time>2013-08-17T07:36:32Z</time>
      </trkpt>
      <trkpt lat="48.62041" lon="2.0736">
        <ele>171</ele>
        <time>2013-08-17T07:36:35Z</time>
      </trkpt>
      <trkpt lat="48.62044" lon="2.07359">
        <ele>171</ele>
        <time>2013-08-17T07:36:37Z</time>
      </trkpt>
      <trkpt lat="48.6205" lon="2.07357">
        <ele>171</ele>
        <time>2013-08-17T07:36:40Z</time>
      </trkpt>
      <trkpt lat="48.62053" lon="2.07357">
        <ele>171</ele>
        <time>2013-08-17T07:36:42Z</time>
      </trkpt>
      <trkpt lat="48.62057" lon="2.07357">
        <ele>171</ele>
        <time>2013-08-17T07:36:44Z</time>
      </trkpt>
      <trkpt lat="48.6206" lon="2.07356">
        <ele>171</ele>
        <time>2013-08-17T07:36:46Z</time>
      </trkpt>
      <trkpt lat="48.62064" lon="2.07354">
        <ele>171</ele>
        <time>2013-08-17T07:36:48Z</time>
      </trkpt>
      <trkpt lat="48.62067" lon="2.07353">
        <ele>171</ele>
        <time>2013-08-17T07:36:50Z</time>
      </trkpt>
      <trkpt lat="48.62069" lon="2.07351">
        <ele>171</ele>
        <time>2013-08-17T07:36:52Z</time>
      </trkpt>
      <trkpt lat="48.62072" lon="2.07349">
        <ele>171</ele>
        <time>2013-08-17T07:36:55Z</time>
      </trkpt>
      <trkpt lat="48.62077" lon="2.07346">
        <ele>171</ele>
        <time>2013-08-17T07:36:58Z</time>
      </trkpt>
      <trkpt lat="48.62082" lon="2.07344">
        <ele>171</ele>
        <time>2013-08-17T07:37:01Z</time>
      </trkpt>
      <trkpt lat="48.62085" lon="2.07344">
        <ele>171</ele>
        <time>2013-08-17T07:37:03Z</time>
      </trkpt>
      <trkpt lat="48.62088" lon="2.07343">
        <ele>171</ele>
        <time>2013-08-17T07:37:05Z</time>
      </trkpt>
      <trkpt lat="48.6209" lon="2.07342">
        <ele>171</ele>
        <time>2013-08-17T07:37:07Z</time>
      </trkpt>
      <trkpt lat="48.62094" lon="2.07342">
        <ele>171</ele>
        <time>2013-08-17T07:37:09Z</time>
      </trkpt>
      <trkpt lat="48.62098" lon="2.07339">
        <ele>171</ele>
        <time>2013-08-17T07:37:11Z</time>
      </trkpt>
      <trkpt lat="48.62101" lon="2.07339">
        <ele>170</ele>
        <time>2013-08-17T07:37:13Z</time>
      </trkpt>
      <trkpt lat="48.62104" lon="2.07337">
        <ele>170</ele>
        <time>2013-08-17T07:37:15Z</time>
      </trkpt>
      <trkpt lat="48.62107" lon="2.07335">
        <ele>169</ele>
        <time>2013-08-17T07:37:17Z</time>
      </trkpt>
      <trkpt lat="48.62111" lon="2.07333">
        <ele>169</ele>
        <time>2013-08-17T07:37:19Z</time>
      </trkpt>
      <trkpt lat="48.62114" lon="2.07332">
        <ele>169</ele>
        <time>2013-08-17T07:37:21Z</time>
      </trkpt>
      <trkpt lat="48.62117" lon="2.07331">
        <ele>168</ele>
        <time>2013-08-17T07:37:23Z</time>
      </trkpt>
      <trkpt lat="48.62121" lon="2.0733">
        <ele>168</ele>
        <time>2013-08-17T07:37:25Z</time>
      </trkpt>
      <trkpt lat="48.62125" lon="2.0733">
        <ele>168</ele>
        <time>2013-08-17T07:37:27Z</time>
      </trkpt>
      <trkpt lat="48.62129" lon="2.0733">
        <ele>168</ele>
        <time>2013-08-17T07:37:30Z</time>
      </trkpt>
      <trkpt lat="48.62134" lon="2.07327">
        <ele>168</ele>
        <time>2013-08-17T07:37:32Z</time>
      </trkpt>
      <trkpt lat="48.62138" lon="2.07326">
        <ele>168</ele>
        <time>2013-08-17T07:37:34Z</time>
      </trkpt>
      <trkpt lat="48.62141" lon="2.07328">
        <ele>168</ele>
        <time>2013-08-17T07:37:36Z</time>
      </trkpt>
      <trkpt lat="48.62145" lon="2.07329">
        <ele>168</ele>
        <time>2013-08-17T07:37:38Z</time>
      </trkpt>
      <trkpt lat="48.62149" lon="2.07332">
        <ele>168</ele>
        <time>2013-08-17T07:37:41Z</time>
      </trkpt>
      <trkpt lat="48.62152" lon="2.07332">
        <ele>168</ele>
        <time>2013-08-17T07:37:43Z</time>
      </trkpt>
      <trkpt lat="48.62154" lon="2.07334">
        <ele>167</ele>
        <time>2013-08-17T07:37:45Z</time>
      </trkpt>
      <trkpt lat="48.62155" lon="2.07333">
        <ele>167</ele>
        <time>2013-08-17T07:37:47Z</time>
      </trkpt>
      <trkpt lat="48.62159" lon="2.07334">
        <ele>167</ele>
        <time>2013-08-17T07:37:50Z</time>
      </trkpt>
      <trkpt lat="48.62164" lon="2.07336">
        <ele>167</ele>
        <time>2013-08-17T07:37:53Z</time>
      </trkpt>
      <trkpt lat="48.62167" lon="2.0734">
        <ele>167</ele>
        <time>2013-08-17T07:37:56Z</time>
      </trkpt>
      <trkpt lat="48.62169" lon="2.07342">
        <ele>167</ele>
        <time>2013-08-17T07:37:58Z</time>
      </trkpt>
      <trkpt lat="48.62172" lon="2.07344">
        <ele>166</ele>
        <time>2013-08-17T07:38:00Z</time>
      </trkpt>
      <trkpt lat="48.62175" lon="2.07347">
        <ele>166</ele>
        <time>2013-08-17T07:38:02Z</time>
      </trkpt>
      <trkpt lat="48.62179" lon="2.0735">
        <ele>165</ele>
        <time>2013-08-17T07:38:06Z</time>
      </trkpt>
      <trkpt lat="48.62181" lon="2.07351">
        <ele>164</ele>
        <time>2013-08-17T07:38:08Z</time>
      </trkpt>
      <trkpt lat="48.62182" lon="2.07356">
        <ele>164</ele>
        <time>2013-08-17T07:38:11Z</time>
      </trkpt>
      <trkpt lat="48.62185" lon="2.07358">
        <ele>164</ele>
        <time>2013-08-17T07:38:13Z</time>
      </trkpt>
      <trkpt lat="48.62188" lon="2.0736">
        <ele>164</ele>
        <time>2013-08-17T07:38:15Z</time>
      </trkpt>
      <trkpt lat="48.62189" lon="2.07363">
        <ele>164</ele>
        <time>2013-08-17T07:38:17Z</time>
      </trkpt>
      <trkpt lat="48.62191" lon="2.07365">
        <ele>164</ele>
        <time>2013-08-17T07:38:20Z</time>
      </trkpt>
      <trkpt lat="48.62193" lon="2.07366">
        <ele>163</ele>
        <time>2013-08-17T07:38:22Z</time>
      </trkpt>
      <trkpt lat="48.62196" lon="2.07368">
        <ele>162</ele>
        <time>2013-08-17T07:38:25Z</time>
      </trkpt>
      <trkpt lat="48.62199" lon="2.0737">
        <ele>162</ele>
        <time>2013-08-17T07:38:27Z</time>
      </trkpt>
      <trkpt lat="48.62201" lon="2.07371">
        <ele>162</ele>
        <time>2013-08-17T07:38:29Z</time>
      </trkpt>
      <trkpt lat="48.62204" lon="2.07373">
        <ele>162</ele>
        <time>2013-08-17T07:38:31Z</time>
      </trkpt>
      <trkpt lat="48.62207" lon="2.07374">
        <ele>162</ele>
        <time>2013-08-17T07:38:33Z</time>
      </trkpt>
      <trkpt lat="48.62209" lon="2.07374">
        <ele>162</ele>
        <time>2013-08-17T07:38:35Z</time>
      </trkpt>
      <trkpt lat="48.6221" lon="2.07375">
        <ele>162</ele>
        <time>2013-08-17T07:38:37Z</time>
      </trkpt>
      <trkpt lat="48.62209" lon="2.07378">
        <ele>162</ele>
        <time>2013-08-17T07:38:39Z</time>
      </trkpt>
      <trkpt lat="48.62211" lon="2.07379">
        <ele>162</ele>
        <time>2013-08-17T07:38:41Z</time>
      </trkpt>
      <trkpt lat="48.62214" lon="2.0738">
        <ele>162</ele>
        <time>2013-08-17T07:38:43Z</time>
      </trkpt>
      <trkpt lat="48.62217" lon="2.07381">
        <ele>162</ele>
        <time>2013-08-17T07:38:45Z</time>
      </trkpt>
      <trkpt lat="48.62219" lon="2.07382">
        <ele>162</ele>
        <time>2013-08-17T07:38:47Z</time>
      </trkpt>
      <trkpt lat="48.62221" lon="2.07382">
        <ele>162</ele>
        <time>2013-08-17T07:38:49Z</time>
      </trkpt>
      <trkpt lat="48.62224" lon="2.07384">
        <ele>162</ele>
        <time>2013-08-17T07:38:51Z</time>
      </trkpt>
      <trkpt lat="48.62226" lon="2.07385">
        <ele>162</ele>
        <time>2013-08-17T07:38:53Z</time>
      </trkpt>
      <trkpt lat="48.62228" lon="2.07386">
        <ele>162</ele>
        <time>2013-08-17T07:38:55Z</time>
      </trkpt>
      <trkpt lat="48.6223" lon="2.07388">
        <ele>162</ele>
        <time>2013-08-17T07:38:57Z</time>
      </trkpt>
      <trkpt lat="48.62232" lon="2.07391">
        <ele>162</ele>
        <time>2013-08-17T07:38:59Z</time>
      </trkpt>
      <trkpt lat="48.62235" lon="2.07393">
        <ele>162</ele>
        <time>2013-08-17T07:39:01Z</time>
      </trkpt>
      <trkpt lat="48.62237" lon="2.07395">
        <ele>162</ele>
        <time>2013-08-17T07:39:03Z</time>
      </trkpt>
      <trkpt lat="48.62239" lon="2.07394">
        <ele>162</ele>
        <time>2013-08-17T07:39:05Z</time>
      </trkpt>
      <trkpt lat="48.62243" lon="2.07393">
        <ele>162</ele>
        <time>2013-08-17T07:39:08Z</time>
      </trkpt>
      <trkpt lat="48.62245" lon="2.07393">
        <ele>161</ele>
        <time>2013-08-17T07:39:10Z</time>
      </trkpt>
      <trkpt lat="48.62248" lon="2.07392">
        <ele>160</ele>
        <time>2013-08-17T07:39:12Z</time>
      </trkpt>
      <trkpt lat="48.62251" lon="2.07391">
        <ele>160</ele>
        <time>2013-08-17T07:39:14Z</time>
      </trkpt>
      <trkpt lat="48.62254" lon="2.0739">
        <ele>159</ele>
        <time>2013-08-17T07:39:16Z</time>
      </trkpt>
      <trkpt lat="48.62256" lon="2.0739">
        <ele>158</ele>
        <time>2013-08-17T07:39:18Z</time>
      </trkpt>
      <trkpt lat="48.62258" lon="2.07389">
        <ele>157</ele>
        <time>2013-08-17T07:39:20Z</time>
      </trkpt>
      <trkpt lat="48.62262" lon="2.07387">
        <ele>157</ele>
        <time>2013-08-17T07:39:22Z</time>
      </trkpt>
      <trkpt lat="48.62265" lon="2.07385">
        <ele>156</ele>
        <time>2013-08-17T07:39:24Z</time>
      </trkpt>
      <trkpt lat="48.62267" lon="2.07385">
        <ele>155</ele>
        <time>2013-08-17T07:39:26Z</time>
      </trkpt>
      <trkpt lat="48.62268" lon="2.07385">
        <ele>155</ele>
        <time>2013-08-17T07:39:28Z</time>
      </trkpt>
      <trkpt lat="48.6227" lon="2.07384">
        <ele>155</ele>
        <time>2013-08-17T07:39:30Z</time>
      </trkpt>
      <trkpt lat="48.62274" lon="2.07382">
        <ele>155</ele>
        <time>2013-08-17T07:39:32Z</time>
      </trkpt>
      <trkpt lat="48.62277" lon="2.0738">
        <ele>154</ele>
        <time>2013-08-17T07:39:34Z</time>
      </trkpt>
      <trkpt lat="48.62279" lon="2.07378">
        <ele>154</ele>
        <time>2013-08-17T07:39:36Z</time>
      </trkpt>
      <trkpt lat="48.62281" lon="2.07378">
        <ele>153</ele>
        <time>2013-08-17T07:39:38Z</time>
      </trkpt>
      <trkpt lat="48.62286" lon="2.07376">
        <ele>152</ele>
        <time>2013-08-17T07:39:41Z</time>
      </trkpt>
      <trkpt lat="48.6229" lon="2.07376">
        <ele>152</ele>
        <time>2013-08-17T07:39:43Z</time>
      </trkpt>
      <trkpt lat="48.62292" lon="2.07375">
        <ele>151</ele>
        <time>2013-08-17T07:39:45Z</time>
      </trkpt>
      <trkpt lat="48.62295" lon="2.07376">
        <ele>151</ele>
        <time>2013-08-17T07:39:47Z</time>
      </trkpt>
      <trkpt lat="48.62299" lon="2.07378">
        <ele>151</ele>
        <time>2013-08-17T07:39:50Z</time>
      </trkpt>
      <trkpt lat="48.62302" lon="2.0738">
        <ele>151</ele>
        <time>2013-08-17T07:39:52Z</time>
      </trkpt>
      <trkpt lat="48.62304" lon="2.07381">
        <ele>151</ele>
        <time>2013-08-17T07:39:54Z</time>
      </trkpt>
      <trkpt lat="48.62306" lon="2.07383">
        <ele>151</ele>
        <time>2013-08-17T07:39:56Z</time>
      </trkpt>
      <trkpt lat="48.62307" lon="2.07385">
        <ele>151</ele>
        <time>2013-08-17T07:39:58Z</time>
      </trkpt>
      <trkpt lat="48.6231" lon="2.07387">
        <ele>151</ele>
        <time>2013-08-17T07:40:00Z</time>
      </trkpt>
      <trkpt lat="48.62313" lon="2.07391">
        <ele>151</ele>
        <time>2013-08-17T07:40:03Z</time>
      </trkpt>
      <trkpt lat="48.62317" lon="2.07394">
        <ele>151</ele>
        <time>2013-08-17T07:40:06Z</time>
      </trkpt>
      <trkpt lat="48.62319" lon="2.07397">
        <ele>151</ele>
        <time>2013-08-17T07:40:08Z</time>
      </trkpt>
      <trkpt lat="48.62321" lon="2.074">
        <ele>151</ele>
        <time>2013-08-17T07:40:10Z</time>
      </trkpt>
      <trkpt lat="48.62324" lon="2.07403">
        <ele>151</ele>
        <time>2013-08-17T07:40:12Z</time>
      </trkpt>
      <trkpt lat="48.62326" lon="2.07406">
        <ele>151</ele>
        <time>2013-08-17T07:40:14Z</time>
      </trkpt>
      <trkpt lat="48.62329" lon="2.07409">
        <ele>151</ele>
        <time>2013-08-17T07:40:16Z</time>
      </trkpt>
      <trkpt lat="48.62331" lon="2.07411">
        <ele>151</ele>
        <time>2013-08-17T07:40:18Z</time>
      </trkpt>
      <trkpt lat="48.62334" lon="2.07414">
        <ele>151</ele>
        <time>2013-08-17T07:40:20Z</time>
      </trkpt>
      <trkpt lat="48.62336" lon="2.07417">
        <ele>151</ele>
        <time>2013-08-17T07:40:22Z</time>
      </trkpt>
      <trkpt lat="48.62339" lon="2.0742">
        <ele>151</ele>
        <time>2013-08-17T07:40:24Z</time>
      </trkpt>
      <trkpt lat="48.62342" lon="2.07423">
        <ele>151</ele>
        <time>2013-08-17T07:40:26Z</time>
      </trkpt>
      <trkpt lat="48.62344" lon="2.07425">
        <ele>151</ele>
        <time>2013-08-17T07:40:28Z</time>
      </trkpt>
      <trkpt lat="48.62347" lon="2.07429">
        <ele>151</ele>
        <time>2013-08-17T07:40:30Z</time>
      </trkpt>
      <trkpt lat="48.62349" lon="2.07432">
        <ele>151</ele>
        <time>2013-08-17T07:40:32Z</time>
      </trkpt>
      <trkpt lat="48.62352" lon="2.07434">
        <ele>151</ele>
        <time>2013-08-17T07:40:34Z</time>
      </trkpt>
      <trkpt lat="48.62354" lon="2.07437">
        <ele>151</ele>
        <time>2013-08-17T07:40:36Z</time>
      </trkpt>
      <trkpt lat="48.62356" lon="2.0744">
        <ele>151</ele>
        <time>2013-08-17T07:40:38Z</time>
      </trkpt>
      <trkpt lat="48.6236" lon="2.07445">
        <ele>151</ele>
        <time>2013-08-17T07:40:41Z</time>
      </trkpt>
      <trkpt lat="48.62364" lon="2.07449">
        <ele>151</ele>
        <time>2013-08-17T07:40:44Z</time>
      </trkpt>
      <trkpt lat="48.62367" lon="2.07451">
        <ele>151</ele>
        <time>2013-08-17T07:40:46Z</time>
      </trkpt>
      <trkpt lat="48.62371" lon="2.07455">
        <ele>151</ele>
        <time>2013-08-17T07:40:49Z</time>
      </trkpt>
      <trkpt lat="48.62374" lon="2.07458">
        <ele>152</ele>
        <time>2013-08-17T07:40:51Z</time>
      </trkpt>
      <trkpt lat="48.62376" lon="2.07461">
        <ele>152</ele>
        <time>2013-08-17T07:40:53Z</time>
      </trkpt>
      <trkpt lat="48.6238" lon="2.07463">
        <ele>152</ele>
        <time>2013-08-17T07:40:55Z</time>
      </trkpt>
      <trkpt lat="48.62383" lon="2.07465">
        <ele>152</ele>
        <time>2013-08-17T07:40:57Z</time>
      </trkpt>
      <trkpt lat="48.62386" lon="2.07468">
        <ele>153</ele>
        <time>2013-08-17T07:40:59Z</time>
      </trkpt>
      <trkpt lat="48.62389" lon="2.0747">
        <ele>153</ele>
        <time>2013-08-17T07:41:01Z</time>
      </trkpt>
      <trkpt lat="48.62392" lon="2.07471">
        <ele>153</ele>
        <time>2013-08-17T07:41:03Z</time>
      </trkpt>
      <trkpt lat="48.62395" lon="2.07473">
        <ele>153</ele>
        <time>2013-08-17T07:41:05Z</time>
      </trkpt>
      <trkpt lat="48.62399" lon="2.07474">
        <ele>154</ele>
        <time>2013-08-17T07:41:07Z</time>
      </trkpt>
      <trkpt lat="48.62402" lon="2.07474">
        <ele>154</ele>
        <time>2013-08-17T07:41:09Z</time>
      </trkpt>
      <trkpt lat="48.62404" lon="2.07474">
        <ele>154</ele>
        <time>2013-08-17T07:41:11Z</time>
      </trkpt>
      <trkpt lat="48.62407" lon="2.07472">
        <ele>154</ele>
        <time>2013-08-17T07:41:13Z</time>
      </trkpt>
      <trkpt lat="48.6241" lon="2.07469">
        <ele>154</ele>
        <time>2013-08-17T07:41:16Z</time>
      </trkpt>
      <trkpt lat="48.62413" lon="2.0747">
        <ele>154</ele>
        <time>2013-08-17T07:41:18Z</time>
      </trkpt>
      <trkpt lat="48.62416" lon="2.07472">
        <ele>154</ele>
        <time>2013-08-17T07:41:20Z</time>
      </trkpt>
      <trkpt lat="48.62419" lon="2.07474">
        <ele>154</ele>
        <time>2013-08-17T07:41:22Z</time>
      </trkpt>
      <trkpt lat="48.62422" lon="2.07476">
        <ele>154</ele>
        <time>2013-08-17T07:41:24Z</time>
      </trkpt>
      <trkpt lat="48.62425" lon="2.07478">
        <ele>154</ele>
        <time>2013-08-17T07:41:26Z</time>
      </trkpt>
      <trkpt lat="48.62428" lon="2.07479">
        <ele>154</ele>
        <time>2013-08-17T07:41:28Z</time>
      </trkpt>
      <trkpt lat="48.62431" lon="2.07481">
        <ele>154</ele>
        <time>2013-08-17T07:41:30Z</time>
      </trkpt>
      <trkpt lat="48.62434" lon="2.07482">
        <ele>155</ele>
        <time>2013-08-17T07:41:32Z</time>
      </trkpt>
      <trkpt lat="48.62437" lon="2.07483">
        <ele>155</ele>
        <time>2013-08-17T07:41:34Z</time>
      </trkpt>
      <trkpt lat="48.6244" lon="2.07484">
        <ele>155</ele>
        <time>2013-08-17T07:41:36Z</time>
      </trkpt>
      <trkpt lat="48.62443" lon="2.07485">
        <ele>155</ele>
        <time>2013-08-17T07:41:38Z</time>
      </trkpt>
      <trkpt lat="48.62446" lon="2.07486">
        <ele>155</ele>
        <time>2013-08-17T07:41:40Z</time>
      </trkpt>
      <trkpt lat="48.62448" lon="2.07487">
        <ele>155</ele>
        <time>2013-08-17T07:41:42Z</time>
      </trkpt>
      <trkpt lat="48.62451" lon="2.07488">
        <ele>155</ele>
        <time>2013-08-17T07:41:44Z</time>
      </trkpt>
      <trkpt lat="48.62454" lon="2.07489">
        <ele>155</ele>
        <time>2013-08-17T07:41:46Z</time>
      </trkpt>
      <trkpt lat="48.62457" lon="2.07491">
        <ele>156</ele>
        <time>2013-08-17T07:41:48Z</time>
      </trkpt>
      <trkpt lat="48.62459" lon="2.07493">
        <ele>156</ele>
        <time>2013-08-17T07:41:50Z</time>
      </trkpt>
      <trkpt lat="48.62462" lon="2.07493">
        <ele>156</ele>
        <time>2013-08-17T07:41:52Z</time>
      </trkpt>
      <trkpt lat="48.62466" lon="2.07493">
        <ele>156</ele>
        <time>2013-08-17T07:41:54Z</time>
      </trkpt>
      <trkpt lat="48.62469" lon="2.07492">
        <ele>156</ele>
        <time>2013-08-17T07:41:56Z</time>
      </trkpt>
      <trkpt lat="48.62471" lon="2.07492">
        <ele>156</ele>
        <time>2013-08-17T07:41:58Z</time>
      </trkpt>
      <trkpt lat="48.62474" lon="2.07491">
        <ele>156</ele>
        <time>2013-08-17T07:42:00Z</time>
      </trkpt>
      <trkpt lat="48.62477" lon="2.07491">
        <ele>156</ele>
        <time>2013-08-17T07:42:02Z</time>
      </trkpt>
      <trkpt lat="48.6248" lon="2.07491">
        <ele>156</ele>
        <time>2013-08-17T07:42:04Z</time>
      </trkpt>
      <trkpt lat="48.62484" lon="2.0749">
        <ele>156</ele>
        <time>2013-08-17T07:42:06Z</time>
      </trkpt>
      <trkpt lat="48.62487" lon="2.0749">
        <ele>156</ele>
        <time>2013-08-17T07:42:08Z</time>
      </trkpt>
      <trkpt lat="48.62492" lon="2.0749">
        <ele>156</ele>
        <time>2013-08-17T07:42:11Z</time>
      </trkpt>
      <trkpt lat="48.62495" lon="2.07491">
        <ele>156</ele>
        <time>2013-08-17T07:42:13Z</time>
      </trkpt>
      <trkpt lat="48.62497" lon="2.07491">
        <ele>156</ele>
        <time>2013-08-17T07:42:15Z</time>
      </trkpt>
      <trkpt lat="48.625" lon="2.07492">
        <ele>156</ele>
        <time>2013-08-17T07:42:17Z</time>
      </trkpt>
      <trkpt lat="48.62503" lon="2.07492">
        <ele>156</ele>
        <time>2013-08-17T07:42:19Z</time>
      </trkpt>
      <trkpt lat="48.62506" lon="2.07493">
        <ele>156</ele>
        <time>2013-08-17T07:42:21Z</time>
      </trkpt>
      <trkpt lat="48.62509" lon="2.07493">
        <ele>156</ele>
        <time>2013-08-17T07:42:23Z</time>
      </trkpt>
      <trkpt lat="48.62513" lon="2.07494">
        <ele>156</ele>
        <time>2013-08-17T07:42:25Z</time>
      </trkpt>
      <trkpt lat="48.62516" lon="2.07495">
        <ele>156</ele>
        <time>2013-08-17T07:42:27Z</time>
      </trkpt>
      <trkpt lat="48.62518" lon="2.07495">
        <ele>156</ele>
        <time>2013-08-17T07:42:29Z</time>
      </trkpt>
      <trkpt lat="48.62521" lon="2.07496">
        <ele>156</ele>
        <time>2013-08-17T07:42:31Z</time>
      </trkpt>
      <trkpt lat="48.62524" lon="2.07497">
        <ele>156</ele>
        <time>2013-08-17T07:42:33Z</time>
      </trkpt>
      <trkpt lat="48.62528" lon="2.07498">
        <ele>156</ele>
        <time>2013-08-17T07:42:36Z</time>
      </trkpt>
      <trkpt lat="48.6253" lon="2.07498">
        <ele>156</ele>
        <time>2013-08-17T07:42:38Z</time>
      </trkpt>
      <trkpt lat="48.62534" lon="2.07498">
        <ele>156</ele>
        <time>2013-08-17T07:42:41Z</time>
      </trkpt>
      <trkpt lat="48.62536" lon="2.07498">
        <ele>156</ele>
        <time>2013-08-17T07:42:43Z</time>
      </trkpt>
      <trkpt lat="48.62538" lon="2.07496">
        <ele>155</ele>
        <time>2013-08-17T07:42:45Z</time>
      </trkpt>
      <trkpt lat="48.62541" lon="2.07495">
        <ele>155</ele>
        <time>2013-08-17T07:42:47Z</time>
      </trkpt>
      <trkpt lat="48.62544" lon="2.07493">
        <ele>155</ele>
        <time>2013-08-17T07:42:49Z</time>
      </trkpt>
      <trkpt lat="48.62547" lon="2.07492">
        <ele>155</ele>
        <time>2013-08-17T07:42:51Z</time>
      </trkpt>
      <trkpt lat="48.62551" lon="2.07488">
        <ele>155</ele>
        <time>2013-08-17T07:42:54Z</time>
      </trkpt>
      <trkpt lat="48.62554" lon="2.07486">
        <ele>155</ele>
        <time>2013-08-17T07:42:56Z</time>
      </trkpt>
      <trkpt lat="48.62557" lon="2.07482">
        <ele>155</ele>
        <time>2013-08-17T07:42:59Z</time>
      </trkpt>
      <trkpt lat="48.6256" lon="2.07478">
        <ele>155</ele>
        <time>2013-08-17T07:43:02Z</time>
      </trkpt>
      <trkpt lat="48.62562" lon="2.07474">
        <ele>155</ele>
        <time>2013-08-17T07:43:04Z</time>
      </trkpt>
      <trkpt lat="48.62563" lon="2.07471">
        <ele>155</ele>
        <time>2013-08-17T07:43:06Z</time>
      </trkpt>
      <trkpt lat="48.62564" lon="2.07467">
        <ele>155</ele>
        <time>2013-08-17T07:43:08Z</time>
      </trkpt>
      <trkpt lat="48.62565" lon="2.07463">
        <ele>155</ele>
        <time>2013-08-17T07:43:10Z</time>
      </trkpt>
      <trkpt lat="48.62566" lon="2.07458">
        <ele>155</ele>
        <time>2013-08-17T07:43:12Z</time>
      </trkpt>
      <trkpt lat="48.62567" lon="2.07454">
        <ele>155</ele>
        <time>2013-08-17T07:43:14Z</time>
      </trkpt>
      <trkpt lat="48.62568" lon="2.0745">
        <ele>155</ele>
        <time>2013-08-17T07:43:16Z</time>
      </trkpt>
      <trkpt lat="48.62569" lon="2.07446">
        <ele>155</ele>
        <time>2013-08-17T07:43:18Z</time>
      </trkpt>
      <trkpt lat="48.62569" lon="2.07441">
        <ele>155</ele>
        <time>2013-08-17T07:43:20Z</time>
      </trkpt>
      <trkpt lat="48.62571" lon="2.07437">
        <ele>155</ele>
        <time>2013-08-17T07:43:22Z</time>
      </trkpt>
      <trkpt lat="48.62571" lon="2.07432">
        <ele>155</ele>
        <time>2013-08-17T07:43:24Z</time>
      </trkpt>
      <trkpt lat="48.62572" lon="2.07427">
        <ele>155</ele>
        <time>2013-08-17T07:43:26Z</time>
      </trkpt>
      <trkpt lat="48.62573" lon="2.07423">
        <ele>155</ele>
        <time>2013-08-17T07:43:28Z</time>
      </trkpt>
      <trkpt lat="48.62574" lon="2.07419">
        <ele>155</ele>
        <time>2013-08-17T07:43:30Z</time>
      </trkpt>
      <trkpt lat="48.62575" lon="2.07416">
        <ele>155</ele>
        <time>2013-08-17T07:43:32Z</time>
      </trkpt>
      <trkpt lat="48.62576" lon="2.07412">
        <ele>155</ele>
        <time>2013-08-17T07:43:34Z</time>
      </trkpt>
      <trkpt lat="48.62576" lon="2.07407">
        <ele>155</ele>
        <time>2013-08-17T07:43:36Z</time>
      </trkpt>
      <trkpt lat="48.62577" lon="2.07403">
        <ele>155</ele>
        <time>2013-08-17T07:43:38Z</time>
      </trkpt>
      <trkpt lat="48.62577" lon="2.07399">
        <ele>155</ele>
        <time>2013-08-17T07:43:40Z</time>
      </trkpt>
      <trkpt lat="48.62577" lon="2.07395">
        <ele>155</ele>
        <time>2013-08-17T07:43:42Z</time>
      </trkpt>
      <trkpt lat="48.6258" lon="2.07389">
        <ele>156</ele>
        <time>2013-08-17T07:43:45Z</time>
      </trkpt>
      <trkpt lat="48.62581" lon="2.07385">
        <ele>156</ele>
        <time>2013-08-17T07:43:47Z</time>
      </trkpt>
      <trkpt lat="48.62582" lon="2.07381">
        <ele>157</ele>
        <time>2013-08-17T07:43:49Z</time>
      </trkpt>
      <trkpt lat="48.62583" lon="2.07376">
        <ele>157</ele>
        <time>2013-08-17T07:43:51Z</time>
      </trkpt>
      <trkpt lat="48.62584" lon="2.07373">
        <ele>158</ele>
        <time>2013-08-17T07:43:53Z</time>
      </trkpt>
      <trkpt lat="48.62586" lon="2.07369">
        <ele>158</ele>
        <time>2013-08-17T07:43:55Z</time>
      </trkpt>
      <trkpt lat="48.62587" lon="2.07365">
        <ele>158</ele>
        <time>2013-08-17T07:43:57Z</time>
      </trkpt>
      <trkpt lat="48.62589" lon="2.07362">
        <ele>158</ele>
        <time>2013-08-17T07:43:59Z</time>
      </trkpt>
      <trkpt lat="48.6259" lon="2.07358">
        <ele>158</ele>
        <time>2013-08-17T07:44:01Z</time>
      </trkpt>
      <trkpt lat="48.62592" lon="2.07354">
        <ele>158</ele>
        <time>2013-08-17T07:44:03Z</time>
      </trkpt>
      <trkpt lat="48.62593" lon="2.07351">
        <ele>158</ele>
        <time>2013-08-17T07:44:05Z</time>
      </trkpt>
      <trkpt lat="48.62594" lon="2.07347">
        <ele>158</ele>
        <time>2013-08-17T07:44:07Z</time>
      </trkpt>
      <trkpt lat="48.62595" lon="2.07342">
        <ele>158</ele>
        <time>2013-08-17T07:44:09Z</time>
      </trkpt>
      <trkpt lat="48.62594" lon="2.07337">
        <ele>158</ele>
        <time>2013-08-17T07:44:11Z</time>
      </trkpt>
      <trkpt lat="48.62592" lon="2.07332">
        <ele>159</ele>
        <time>2013-08-17T07:44:14Z</time>
      </trkpt>
      <trkpt lat="48.62589" lon="2.07328">
        <ele>159</ele>
        <time>2013-08-17T07:44:17Z</time>
      </trkpt>
      <trkpt lat="48.62588" lon="2.07325">
        <ele>159</ele>
        <time>2013-08-17T07:44:19Z</time>
      </trkpt>
      <trkpt lat="48.62586" lon="2.07322">
        <ele>159</ele>
        <time>2013-08-17T07:44:21Z</time>
      </trkpt>
      <trkpt lat="48.62584" lon="2.07319">
        <ele>159</ele>
        <time>2013-08-17T07:44:23Z</time>
      </trkpt>
      <trkpt lat="48.62582" lon="2.07317">
        <ele>159</ele>
        <time>2013-08-17T07:44:25Z</time>
      </trkpt>
      <trkpt lat="48.6258" lon="2.07313">
        <ele>159</ele>
        <time>2013-08-17T07:44:27Z</time>
      </trkpt>
      <trkpt lat="48.62579" lon="2.0731">
        <ele>159</ele>
        <time>2013-08-17T07:44:29Z</time>
      </trkpt>
      <trkpt lat="48.62579" lon="2.07306">
        <ele>159</ele>
        <time>2013-08-17T07:44:31Z</time>
      </trkpt>
      <trkpt lat="48.62579" lon="2.07302">
        <ele>159</ele>
        <time>2013-08-17T07:44:33Z</time>
      </trkpt>
      <trkpt lat="48.6258" lon="2.07299">
        <ele>159</ele>
        <time>2013-08-17T07:44:35Z</time>
      </trkpt>
      <trkpt lat="48.62583" lon="2.07294">
        <ele>159</ele>
        <time>2013-08-17T07:44:38Z</time>
      </trkpt>
      <trkpt lat="48.62586" lon="2.07289">
        <ele>159</ele>
        <time>2013-08-17T07:44:41Z</time>
      </trkpt>
      <trkpt lat="48.62587" lon="2.07285">
        <ele>159</ele>
        <time>2013-08-17T07:44:43Z</time>
      </trkpt>
      <trkpt lat="48.6259" lon="2.0728">
        <ele>159</ele>
        <time>2013-08-17T07:44:46Z</time>
      </trkpt>
      <trkpt lat="48.62594" lon="2.07274">
        <ele>159</ele>
        <time>2013-08-17T07:44:50Z</time>
      </trkpt>
      <trkpt lat="48.62597" lon="2.07269">
        <ele>159</ele>
        <time>2013-08-17T07:44:53Z</time>
      </trkpt>
      <trkpt lat="48.626" lon="2.07264">
        <ele>159</ele>
        <time>2013-08-17T07:44:56Z</time>
      </trkpt>
      <trkpt lat="48.62602" lon="2.07261">
        <ele>159</ele>
        <time>2013-08-17T07:44:58Z</time>
      </trkpt>
      <trkpt lat="48.62604" lon="2.07259">
        <ele>159</ele>
        <time>2013-08-17T07:45:00Z</time>
      </trkpt>
      <trkpt lat="48.62607" lon="2.07254">
        <ele>159</ele>
        <time>2013-08-17T07:45:03Z</time>
      </trkpt>
      <trkpt lat="48.62609" lon="2.07251">
        <ele>159</ele>
        <time>2013-08-17T07:45:05Z</time>
      </trkpt>
      <trkpt lat="48.62611" lon="2.07246">
        <ele>159</ele>
        <time>2013-08-17T07:45:08Z</time>
      </trkpt>
      <trkpt lat="48.62613" lon="2.07242">
        <ele>159</ele>
        <time>2013-08-17T07:45:10Z</time>
      </trkpt>
      <trkpt lat="48.62614" lon="2.07238">
        <ele>159</ele>
        <time>2013-08-17T07:45:12Z</time>
      </trkpt>
      <trkpt lat="48.62615" lon="2.07234">
        <ele>158</ele>
        <time>2013-08-17T07:45:14Z</time>
      </trkpt>
      <trkpt lat="48.62616" lon="2.0723">
        <ele>158</ele>
        <time>2013-08-17T07:45:16Z</time>
      </trkpt>
      <trkpt lat="48.62617" lon="2.07226">
        <ele>158</ele>
        <time>2013-08-17T07:45:18Z</time>
      </trkpt>
      <trkpt lat="48.62618" lon="2.07222">
        <ele>158</ele>
        <time>2013-08-17T07:45:20Z</time>
      </trkpt>
      <trkpt lat="48.62619" lon="2.07218">
        <ele>157</ele>
        <time>2013-08-17T07:45:22Z</time>
      </trkpt>
      <trkpt lat="48.62621" lon="2.07213">
        <ele>157</ele>
        <time>2013-08-17T07:45:24Z</time>
      </trkpt>
      <trkpt lat="48.62622" lon="2.07209">
        <ele>157</ele>
        <time>2013-08-17T07:45:26Z</time>
      </trkpt>
      <trkpt lat="48.62624" lon="2.07204">
        <ele>157</ele>
        <time>2013-08-17T07:45:29Z</time>
      </trkpt>
      <trkpt lat="48.62625" lon="2.072">
        <ele>157</ele>
        <time>2013-08-17T07:45:31Z</time>
      </trkpt>
      <trkpt lat="48.62627" lon="2.07197">
        <ele>157</ele>
        <time>2013-08-17T07:45:33Z</time>
      </trkpt>
      <trkpt lat="48.62629" lon="2.07194">
        <ele>157</ele>
        <time>2013-08-17T07:45:35Z</time>
      </trkpt>
      <trkpt lat="48.62631" lon="2.07192">
        <ele>157</ele>
        <time>2013-08-17T07:45:37Z</time>
      </trkpt>
      <trkpt lat="48.62633" lon="2.07189">
        <ele>156</ele>
        <time>2013-08-17T07:45:39Z</time>
      </trkpt>
      <trkpt lat="48.62636" lon="2.07187">
        <ele>156</ele>
        <time>2013-08-17T07:45:41Z</time>
      </trkpt>
      <trkpt lat="48.62638" lon="2.07185">
        <ele>156</ele>
        <time>2013-08-17T07:45:43Z</time>
      </trkpt>
      <trkpt lat="48.62641" lon="2.07183">
        <ele>156</ele>
        <time>2013-08-17T07:45:45Z</time>
      </trkpt>
      <trkpt lat="48.62643" lon="2.07181">
        <ele>156</ele>
        <time>2013-08-17T07:45:47Z</time>
      </trkpt>
      <trkpt lat="48.62645" lon="2.07178">
        <ele>156</ele>
        <time>2013-08-17T07:45:49Z</time>
      </trkpt>
      <trkpt lat="48.62647" lon="2.07176">
        <ele>156</ele>
        <time>2013-08-17T07:45:51Z</time>
      </trkpt>
      <trkpt lat="48.62649" lon="2.07173">
        <ele>156</ele>
        <time>2013-08-17T07:45:53Z</time>
      </trkpt>
      <trkpt lat="48.62651" lon="2.07171">
        <ele>156</ele>
        <time>2013-08-17T07:45:55Z</time>
      </trkpt>
      <trkpt lat="48.62653" lon="2.07168">
        <ele>155</ele>
        <time>2013-08-17T07:45:57Z</time>
      </trkpt>
      <trkpt lat="48.62654" lon="2.07164">
        <ele>155</ele>
        <time>2013-08-17T07:45:59Z</time>
      </trkpt>
      <trkpt lat="48.62655" lon="2.0716">
        <ele>154</ele>
        <time>2013-08-17T07:46:01Z</time>
      </trkpt>
      <trkpt lat="48.62656" lon="2.07156">
        <ele>154</ele>
        <time>2013-08-17T07:46:03Z</time>
      </trkpt>
      <trkpt lat="48.62657" lon="2.07153">
        <ele>154</ele>
        <time>2013-08-17T07:46:05Z</time>
      </trkpt>
      <trkpt lat="48.62658" lon="2.07148">
        <ele>154</ele>
        <time>2013-08-17T07:46:07Z</time>
      </trkpt>
      <trkpt lat="48.62659" lon="2.07144">
        <ele>154</ele>
        <time>2013-08-17T07:46:09Z</time>
      </trkpt>
      <trkpt lat="48.62659" lon="2.07138">
        <ele>154</ele>
        <time>2013-08-17T07:46:11Z</time>
      </trkpt>
      <trkpt lat="48.6266" lon="2.07134">
        <ele>154</ele>
        <time>2013-08-17T07:46:13Z</time>
      </trkpt>
      <trkpt lat="48.62661" lon="2.07129">
        <ele>154</ele>
        <time>2013-08-17T07:46:15Z</time>
      </trkpt>
      <trkpt lat="48.62662" lon="2.07125">
        <ele>154</ele>
        <time>2013-08-17T07:46:17Z</time>
      </trkpt>
      <trkpt lat="48.62664" lon="2.07122">
        <ele>154</ele>
        <time>2013-08-17T07:46:19Z</time>
      </trkpt>
      <trkpt lat="48.62666" lon="2.0712">
        <ele>154</ele>
        <time>2013-08-17T07:46:21Z</time>
      </trkpt>
      <trkpt lat="48.62669" lon="2.07118">
        <ele>154</ele>
        <time>2013-08-17T07:46:23Z</time>
      </trkpt>
      <trkpt lat="48.62671" lon="2.07116">
        <ele>154</ele>
        <time>2013-08-17T07:46:25Z</time>
      </trkpt>
      <trkpt lat="48.62674" lon="2.07114">
        <ele>154</ele>
        <time>2013-08-17T07:46:27Z</time>
      </trkpt>
      <trkpt lat="48.62677" lon="2.07111">
        <ele>154</ele>
        <time>2013-08-17T07:46:29Z</time>
      </trkpt>
      <trkpt lat="48.6268" lon="2.07109">
        <ele>154</ele>
        <time>2013-08-17T07:46:31Z</time>
      </trkpt>
      <trkpt lat="48.62683" lon="2.07108">
        <ele>154</ele>
        <time>2013-08-17T07:46:33Z</time>
      </trkpt>
      <trkpt lat="48.62686" lon="2.07108">
        <ele>154</ele>
        <time>2013-08-17T07:46:35Z</time>
      </trkpt>
      <trkpt lat="48.62689" lon="2.07108">
        <ele>154</ele>
        <time>2013-08-17T07:46:37Z</time>
      </trkpt>
      <trkpt lat="48.62692" lon="2.07107">
        <ele>154</ele>
        <time>2013-08-17T07:46:39Z</time>
      </trkpt>
      <trkpt lat="48.62695" lon="2.07109">
        <ele>154</ele>
        <time>2013-08-17T07:46:41Z</time>
      </trkpt>
      <trkpt lat="48.62699" lon="2.07109">
        <ele>154</ele>
        <time>2013-08-17T07:46:43Z</time>
      </trkpt>
      <trkpt lat="48.62703" lon="2.0711">
        <ele>154</ele>
        <time>2013-08-17T07:46:45Z</time>
      </trkpt>
      <trkpt lat="48.62706" lon="2.0711">
        <ele>153</ele>
        <time>2013-08-17T07:46:47Z</time>
      </trkpt>
      <trkpt lat="48.6271" lon="2.07111">
        <ele>153</ele>
        <time>2013-08-17T07:46:49Z</time>
      </trkpt>
      <trkpt lat="48.62713" lon="2.07112">
        <ele>153</ele>
        <time>2013-08-17T07:46:51Z</time>
      </trkpt>
      <trkpt lat="48.62717" lon="2.07113">
        <ele>153</ele>
        <time>2013-08-17T07:46:53Z</time>
      </trkpt>
      <trkpt lat="48.6272" lon="2.07113">
        <ele>153</ele>
        <time>2013-08-17T07:46:55Z</time>
      </trkpt>
      <trkpt lat="48.62723" lon="2.07114">
        <ele>152</ele>
        <time>2013-08-17T07:46:57Z</time>
      </trkpt>
      <trkpt lat="48.62726" lon="2.07114">
        <ele>152</ele>
        <time>2013-08-17T07:46:59Z</time>
      </trkpt>
      <trkpt lat="48.62729" lon="2.07115">
        <ele>152</ele>
        <time>2013-08-17T07:47:01Z</time>
      </trkpt>
      <trkpt lat="48.62732" lon="2.07115">
        <ele>151</ele>
        <time>2013-08-17T07:47:03Z</time>
      </trkpt>
      <trkpt lat="48.62735" lon="2.07116">
        <ele>151</ele>
        <time>2013-08-17T07:47:05Z</time>
      </trkpt>
      <trkpt lat="48.62738" lon="2.07117">
        <ele>151</ele>
        <time>2013-08-17T07:47:07Z</time>
      </trkpt>
      <trkpt lat="48.62741" lon="2.07117">
        <ele>150</ele>
        <time>2013-08-17T07:47:09Z</time>
      </trkpt>
      <trkpt lat="48.62744" lon="2.07118">
        <ele>150</ele>
        <time>2013-08-17T07:47:11Z</time>
      </trkpt>
      <trkpt lat="48.62747" lon="2.07118">
        <ele>150</ele>
        <time>2013-08-17T07:47:13Z</time>
      </trkpt>
      <trkpt lat="48.6275" lon="2.07119">
        <ele>149</ele>
        <time>2013-08-17T07:47:15Z</time>
      </trkpt>
      <trkpt lat="48.62753" lon="2.0712">
        <ele>149</ele>
        <time>2013-08-17T07:47:17Z</time>
      </trkpt>
      <trkpt lat="48.62755" lon="2.0712">
        <ele>148</ele>
        <time>2013-08-17T07:47:19Z</time>
      </trkpt>
      <trkpt lat="48.62758" lon="2.07121">
        <ele>148</ele>
        <time>2013-08-17T07:47:21Z</time>
      </trkpt>
      <trkpt lat="48.62761" lon="2.07122">
        <ele>147</ele>
        <time>2013-08-17T07:47:23Z</time>
      </trkpt>
      <trkpt lat="48.62764" lon="2.07122">
        <ele>147</ele>
        <time>2013-08-17T07:47:25Z</time>
      </trkpt>
      <trkpt lat="48.62767" lon="2.07123">
        <ele>147</ele>
        <time>2013-08-17T07:47:27Z</time>
      </trkpt>
      <trkpt lat="48.62769" lon="2.07124">
        <ele>146</ele>
        <time>2013-08-17T07:47:29Z</time>
      </trkpt>
      <trkpt lat="48.62772" lon="2.07124">
        <ele>146</ele>
        <time>2013-08-17T07:47:31Z</time>
      </trkpt>
      <trkpt lat="48.62777" lon="2.07125">
        <ele>145</ele>
        <time>2013-08-17T07:47:34Z</time>
      </trkpt>
      <trkpt lat="48.6278" lon="2.07126">
        <ele>145</ele>
        <time>2013-08-17T07:47:36Z</time>
      </trkpt>
      <trkpt lat="48.62783" lon="2.07126">
        <ele>144</ele>
        <time>2013-08-17T07:47:38Z</time>
      </trkpt>
      <trkpt lat="48.62786" lon="2.07127">
        <ele>144</ele>
        <time>2013-08-17T07:47:40Z</time>
      </trkpt>
      <trkpt lat="48.62789" lon="2.07128">
        <ele>143</ele>
        <time>2013-08-17T07:47:42Z</time>
      </trkpt>
      <trkpt lat="48.62792" lon="2.07129">
        <ele>143</ele>
        <time>2013-08-17T07:47:44Z</time>
      </trkpt>
      <trkpt lat="48.62795" lon="2.07129">
        <ele>143</ele>
        <time>2013-08-17T07:47:46Z</time>
      </trkpt>
      <trkpt lat="48.62798" lon="2.0713">
        <ele>142</ele>
        <time>2013-08-17T07:47:48Z</time>
      </trkpt>
      <trkpt lat="48.62801" lon="2.07131">
        <ele>142</ele>
        <time>2013-08-17T07:47:50Z</time>
      </trkpt>
      <trkpt lat="48.62804" lon="2.07131">
        <ele>141</ele>
        <time>2013-08-17T07:47:52Z</time>
      </trkpt>
      <trkpt lat="48.62807" lon="2.07132">
        <ele>141</ele>
        <time>2013-08-17T07:47:54Z</time>
      </trkpt>
      <trkpt lat="48.6281" lon="2.07133">
        <ele>141</ele>
        <time>2013-08-17T07:47:56Z</time>
      </trkpt>
      <trkpt lat="48.62813" lon="2.07134">
        <ele>140</ele>
        <time>2013-08-17T07:47:58Z</time>
      </trkpt>
      <trkpt lat="48.62816" lon="2.07135">
        <ele>140</ele>
        <time>2013-08-17T07:48:00Z</time>
      </trkpt>
      <trkpt lat="48.62819" lon="2.07135">
        <ele>140</ele>
        <time>2013-08-17T07:48:02Z</time>
      </trkpt>
      <trkpt lat="48.62822" lon="2.07136">
        <ele>140</ele>
        <time>2013-08-17T07:48:04Z</time>
      </trkpt>
      <trkpt lat="48.62824" lon="2.07136">
        <ele>140</ele>
        <time>2013-08-17T07:48:06Z</time>
      </trkpt>
      <trkpt lat="48.62827" lon="2.07137">
        <ele>140</ele>
        <time>2013-08-17T07:48:08Z</time>
      </trkpt>
      <trkpt lat="48.6283" lon="2.07138">
        <ele>140</ele>
        <time>2013-08-17T07:48:10Z</time>
      </trkpt>
      <trkpt lat="48.62833" lon="2.07138">
        <ele>139</ele>
        <time>2013-08-17T07:48:12Z</time>
      </trkpt>
      <trkpt lat="48.62835" lon="2.07138">
        <ele>139</ele>
        <time>2013-08-17T07:48:14Z</time>
      </trkpt>
      <trkpt lat="48.62838" lon="2.07135">
        <ele>139</ele>
        <time>2013-08-17T07:48:17Z</time>
      </trkpt>
      <trkpt lat="48.62838" lon="2.07131">
        <ele>139</ele>
        <time>2013-08-17T07:48:19Z</time>
      </trkpt>
      <trkpt lat="48.62838" lon="2.07127">
        <ele>139</ele>
        <time>2013-08-17T07:48:21Z</time>
      </trkpt>
      <trkpt lat="48.62837" lon="2.07123">
        <ele>139</ele>
        <time>2013-08-17T07:48:23Z</time>
      </trkpt>
      <trkpt lat="48.62837" lon="2.07118">
        <ele>139</ele>
        <time>2013-08-17T07:48:25Z</time>
      </trkpt>
      <trkpt lat="48.62836" lon="2.07113">
        <ele>139</ele>
        <time>2013-08-17T07:48:27Z</time>
      </trkpt>
      <trkpt lat="48.62836" lon="2.07109">
        <ele>139</ele>
        <time>2013-08-17T07:48:29Z</time>
      </trkpt>
      <trkpt lat="48.62836" lon="2.07104">
        <ele>139</ele>
        <time>2013-08-17T07:48:31Z</time>
      </trkpt>
      <trkpt lat="48.62835" lon="2.071">
        <ele>139</ele>
        <time>2013-08-17T07:48:33Z</time>
      </trkpt>
      <trkpt lat="48.62835" lon="2.07096">
        <ele>139</ele>
        <time>2013-08-17T07:48:35Z</time>
      </trkpt>
      <trkpt lat="48.62835" lon="2.07093">
        <ele>139</ele>
        <time>2013-08-17T07:48:37Z</time>
      </trkpt>
      <trkpt lat="48.62835" lon="2.07089">
        <ele>139</ele>
        <time>2013-08-17T07:48:39Z</time>
      </trkpt>
      <trkpt lat="48.62835" lon="2.07086">
        <ele>139</ele>
        <time>2013-08-17T07:48:41Z</time>
      </trkpt>
      <trkpt lat="48.62834" lon="2.07083">
        <ele>139</ele>
        <time>2013-08-17T07:48:43Z</time>
      </trkpt>
      <trkpt lat="48.62833" lon="2.07078">
        <ele>139</ele>
        <time>2013-08-17T07:48:46Z</time>
      </trkpt>
      <trkpt lat="48.62833" lon="2.07074">
        <ele>139</ele>
        <time>2013-08-17T07:48:48Z</time>
      </trkpt>
      <trkpt lat="48.62833" lon="2.0707">
        <ele>139</ele>
        <time>2013-08-17T07:48:50Z</time>
      </trkpt>
      <trkpt lat="48.62832" lon="2.07065">
        <ele>139</ele>
        <time>2013-08-17T07:48:52Z</time>
      </trkpt>
      <trkpt lat="48.62832" lon="2.0706">
        <ele>139</ele>
        <time>2013-08-17T07:48:54Z</time>
      </trkpt>
      <trkpt lat="48.62832" lon="2.07056">
        <ele>139</ele>
        <time>2013-08-17T07:48:56Z</time>
      </trkpt>
      <trkpt lat="48.62831" lon="2.07051">
        <ele>139</ele>
        <time>2013-08-17T07:48:58Z</time>
      </trkpt>
      <trkpt lat="48.62831" lon="2.07047">
        <ele>139</ele>
        <time>2013-08-17T07:49:00Z</time>
      </trkpt>
      <trkpt lat="48.6283" lon="2.07043">
        <ele>139</ele>
        <time>2013-08-17T07:49:02Z</time>
      </trkpt>
      <trkpt lat="48.6283" lon="2.07039">
        <ele>139</ele>
        <time>2013-08-17T07:49:04Z</time>
      </trkpt>
      <trkpt lat="48.6283" lon="2.07034">
        <ele>139</ele>
        <time>2013-08-17T07:49:06Z</time>
      </trkpt>
      <trkpt lat="48.6283" lon="2.0703">
        <ele>139</ele>
        <time>2013-08-17T07:49:08Z</time>
      </trkpt>
      <trkpt lat="48.62829" lon="2.07023">
        <ele>139</ele>
        <time>2013-08-17T07:49:11Z</time>
      </trkpt>
      <trkpt lat="48.62828" lon="2.07017">
        <ele>139</ele>
        <time>2013-08-17T07:49:13Z</time>
      </trkpt>
      <trkpt lat="48.62828" lon="2.07013">
        <ele>139</ele>
        <time>2013-08-17T07:49:15Z</time>
      </trkpt>
      <trkpt lat="48.62828" lon="2.07009">
        <ele>139</ele>
        <time>2013-08-17T07:49:17Z</time>
      </trkpt>
      <trkpt lat="48.62827" lon="2.07004">
        <ele>139</ele>
        <time>2013-08-17T07:49:19Z</time>
      </trkpt>
      <trkpt lat="48.62827" lon="2.07">
        <ele>139</ele>
        <time>2013-08-17T07:49:21Z</time>
      </trkpt>
      <trkpt lat="48.62826" lon="2.06996">
        <ele>139</ele>
        <time>2013-08-17T07:49:23Z</time>
      </trkpt>
      <trkpt lat="48.62826" lon="2.06992">
        <ele>139</ele>
        <time>2013-08-17T07:49:25Z</time>
      </trkpt>
      <trkpt lat="48.62826" lon="2.06988">
        <ele>139</ele>
        <time>2013-08-17T07:49:27Z</time>
      </trkpt>
      <trkpt lat="48.62825" lon="2.06984">
        <ele>139</ele>
        <time>2013-08-17T07:49:29Z</time>
      </trkpt>
      <trkpt lat="48.62825" lon="2.06979">
        <ele>139</ele>
        <time>2013-08-17T07:49:31Z</time>
      </trkpt>
      <trkpt lat="48.62825" lon="2.06974">
        <ele>139</ele>
        <time>2013-08-17T07:49:33Z</time>
      </trkpt>
      <trkpt lat="48.62825" lon="2.06969">
        <ele>139</ele>
        <time>2013-08-17T07:49:35Z</time>
      </trkpt>
      <trkpt lat="48.62825" lon="2.06964">
        <ele>139</ele>
        <time>2013-08-17T07:49:37Z</time>
      </trkpt>
      <trkpt lat="48.62824" lon="2.0696">
        <ele>139</ele>
        <time>2013-08-17T07:49:39Z</time>
      </trkpt>
      <trkpt lat="48.62824" lon="2.06956">
        <ele>139</ele>
        <time>2013-08-17T07:49:41Z</time>
      </trkpt>
      <trkpt lat="48.62823" lon="2.06951">
        <ele>139</ele>
        <time>2013-08-17T07:49:43Z</time>
      </trkpt>
      <trkpt lat="48.62822" lon="2.06947">
        <ele>139</ele>
        <time>2013-08-17T07:49:45Z</time>
      </trkpt>
      <trkpt lat="48.62822" lon="2.06942">
        <ele>139</ele>
        <time>2013-08-17T07:49:47Z</time>
      </trkpt>
      <trkpt lat="48.62822" lon="2.06937">
        <ele>139</ele>
        <time>2013-08-17T07:49:49Z</time>
      </trkpt>
      <trkpt lat="48.62821" lon="2.06932">
        <ele>139</ele>
        <time>2013-08-17T07:49:51Z</time>
      </trkpt>
      <trkpt lat="48.6282" lon="2.06927">
        <ele>139</ele>
        <time>2013-08-17T07:49:53Z</time>
      </trkpt>
      <trkpt lat="48.6282" lon="2.06922">
        <ele>139</ele>
        <time>2013-08-17T07:49:55Z</time>
      </trkpt>
      <trkpt lat="48.6282" lon="2.06917">
        <ele>139</ele>
        <time>2013-08-17T07:49:57Z</time>
      </trkpt>
      <trkpt lat="48.62819" lon="2.06912">
        <ele>139</ele>
        <time>2013-08-17T07:49:59Z</time>
      </trkpt>
      <trkpt lat="48.62819" lon="2.06907">
        <ele>139</ele>
        <time>2013-08-17T07:50:01Z</time>
      </trkpt>
      <trkpt lat="48.62818" lon="2.06902">
        <ele>139</ele>
        <time>2013-08-17T07:50:03Z</time>
      </trkpt>
      <trkpt lat="48.62817" lon="2.06897">
        <ele>139</ele>
        <time>2013-08-17T07:50:05Z</time>
      </trkpt>
      <trkpt lat="48.62817" lon="2.06892">
        <ele>139</ele>
        <time>2013-08-17T07:50:07Z</time>
      </trkpt>
      <trkpt lat="48.62817" lon="2.06888">
        <ele>139</ele>
        <time>2013-08-17T07:50:09Z</time>
      </trkpt>
      <trkpt lat="48.62817" lon="2.06883">
        <ele>139</ele>
        <time>2013-08-17T07:50:11Z</time>
      </trkpt>
      <trkpt lat="48.62816" lon="2.06878">
        <ele>139</ele>
        <time>2013-08-17T07:50:13Z</time>
      </trkpt>
      <trkpt lat="48.62816" lon="2.06874">
        <ele>139</ele>
        <time>2013-08-17T07:50:15Z</time>
      </trkpt>
      <trkpt lat="48.62815" lon="2.06869">
        <ele>139</ele>
        <time>2013-08-17T07:50:17Z</time>
      </trkpt>
      <trkpt lat="48.62815" lon="2.06865">
        <ele>139</ele>
        <time>2013-08-17T07:50:19Z</time>
      </trkpt>
      <trkpt lat="48.62815" lon="2.0686">
        <ele>139</ele>
        <time>2013-08-17T07:50:21Z</time>
      </trkpt>
      <trkpt lat="48.62815" lon="2.06856">
        <ele>139</ele>
        <time>2013-08-17T07:50:23Z</time>
      </trkpt>
      <trkpt lat="48.62815" lon="2.06851">
        <ele>139</ele>
        <time>2013-08-17T07:50:25Z</time>
      </trkpt>
      <trkpt lat="48.62815" lon="2.06844">
        <ele>139</ele>
        <time>2013-08-17T07:50:28Z</time>
      </trkpt>
      <trkpt lat="48.62815" lon="2.0684">
        <ele>139</ele>
        <time>2013-08-17T07:50:30Z</time>
      </trkpt>
      <trkpt lat="48.62815" lon="2.06836">
        <ele>139</ele>
        <time>2013-08-17T07:50:32Z</time>
      </trkpt>
      <trkpt lat="48.62815" lon="2.06831">
        <ele>139</ele>
        <time>2013-08-17T07:50:34Z</time>
      </trkpt>
      <trkpt lat="48.62815" lon="2.06824">
        <ele>139</ele>
        <time>2013-08-17T07:50:37Z</time>
      </trkpt>
      <trkpt lat="48.62815" lon="2.0682">
        <ele>139</ele>
        <time>2013-08-17T07:50:39Z</time>
      </trkpt>
      <trkpt lat="48.62815" lon="2.06816">
        <ele>139</ele>
        <time>2013-08-17T07:50:41Z</time>
      </trkpt>
      <trkpt lat="48.62815" lon="2.06811">
        <ele>140</ele>
        <time>2013-08-17T07:50:43Z</time>
      </trkpt>
      <trkpt lat="48.62815" lon="2.06807">
        <ele>140</ele>
        <time>2013-08-17T07:50:45Z</time>
      </trkpt>
      <trkpt lat="48.62815" lon="2.06802">
        <ele>140</ele>
        <time>2013-08-17T07:50:47Z</time>
      </trkpt>
      <trkpt lat="48.62815" lon="2.06798">
        <ele>140</ele>
        <time>2013-08-17T07:50:49Z</time>
      </trkpt>
      <trkpt lat="48.62815" lon="2.06794">
        <ele>140</ele>
        <time>2013-08-17T07:50:51Z</time>
      </trkpt>
      <trkpt lat="48.62815" lon="2.0679">
        <ele>140</ele>
        <time>2013-08-17T07:50:53Z</time>
      </trkpt>
      <trkpt lat="48.62813" lon="2.06785">
        <ele>141</ele>
        <time>2013-08-17T07:50:56Z</time>
      </trkpt>
      <trkpt lat="48.62812" lon="2.06782">
        <ele>141</ele>
        <time>2013-08-17T07:50:58Z</time>
      </trkpt>
      <trkpt lat="48.62811" lon="2.06778">
        <ele>141</ele>
        <time>2013-08-17T07:51:00Z</time>
      </trkpt>
      <trkpt lat="48.62811" lon="2.06775">
        <ele>141</ele>
        <time>2013-08-17T07:51:02Z</time>
      </trkpt>
      <trkpt lat="48.62811" lon="2.06771">
        <ele>142</ele>
        <time>2013-08-17T07:51:04Z</time>
      </trkpt>
      <trkpt lat="48.62811" lon="2.06767">
        <ele>142</ele>
        <time>2013-08-17T07:51:06Z</time>
      </trkpt>
      <trkpt lat="48.62811" lon="2.06763">
        <ele>142</ele>
        <time>2013-08-17T07:51:08Z</time>
      </trkpt>
      <trkpt lat="48.62811" lon="2.06756">
        <ele>142</ele>
        <time>2013-08-17T07:51:11Z</time>
      </trkpt>
      <trkpt lat="48.62811" lon="2.06751">
        <ele>142</ele>
        <time>2013-08-17T07:51:13Z</time>
      </trkpt>
      <trkpt lat="48.6281" lon="2.06747">
        <ele>142</ele>
        <time>2013-08-17T07:51:15Z</time>
      </trkpt>
      <trkpt lat="48.6281" lon="2.06741">
        <ele>142</ele>
        <time>2013-08-17T07:51:17Z</time>
      </trkpt>
      <trkpt lat="48.62809" lon="2.06736">
        <ele>142</ele>
        <time>2013-08-17T07:51:19Z</time>
      </trkpt>
      <trkpt lat="48.62809" lon="2.06731">
        <ele>142</ele>
        <time>2013-08-17T07:51:21Z</time>
      </trkpt>
      <trkpt lat="48.62809" lon="2.06726">
        <ele>142</ele>
        <time>2013-08-17T07:51:23Z</time>
      </trkpt>
      <trkpt lat="48.62808" lon="2.06721">
        <ele>143</ele>
        <time>2013-08-17T07:51:25Z</time>
      </trkpt>
      <trkpt lat="48.62808" lon="2.06716">
        <ele>143</ele>
        <time>2013-08-17T07:51:27Z</time>
      </trkpt>
      <trkpt lat="48.62808" lon="2.06711">
        <ele>143</ele>
        <time>2013-08-17T07:51:29Z</time>
      </trkpt>
      <trkpt lat="48.62807" lon="2.06706">
        <ele>143</ele>
        <time>2013-08-17T07:51:31Z</time>
      </trkpt>
      <trkpt lat="48.62807" lon="2.06701">
        <ele>143</ele>
        <time>2013-08-17T07:51:33Z</time>
      </trkpt>
      <trkpt lat="48.62807" lon="2.06696">
        <ele>143</ele>
        <time>2013-08-17T07:51:35Z</time>
      </trkpt>
      <trkpt lat="48.62807" lon="2.06691">
        <ele>143</ele>
        <time>2013-08-17T07:51:37Z</time>
      </trkpt>
      <trkpt lat="48.62807" lon="2.06686">
        <ele>143</ele>
        <time>2013-08-17T07:51:39Z</time>
      </trkpt>
      <trkpt lat="48.62807" lon="2.06682">
        <ele>143</ele>
        <time>2013-08-17T07:51:41Z</time>
      </trkpt>
      <trkpt lat="48.62807" lon="2.06677">
        <ele>143</ele>
        <time>2013-08-17T07:51:43Z</time>
      </trkpt>
      <trkpt lat="48.62807" lon="2.06672">
        <ele>143</ele>
        <time>2013-08-17T07:51:45Z</time>
      </trkpt>
      <trkpt lat="48.62807" lon="2.06667">
        <ele>143</ele>
        <time>2013-08-17T07:51:47Z</time>
      </trkpt>
      <trkpt lat="48.62806" lon="2.06663">
        <ele>143</ele>
        <time>2013-08-17T07:51:49Z</time>
      </trkpt>
      <trkpt lat="48.62806" lon="2.06658">
        <ele>143</ele>
        <time>2013-08-17T07:51:51Z</time>
      </trkpt>
      <trkpt lat="48.62806" lon="2.06652">
        <ele>143</ele>
        <time>2013-08-17T07:51:53Z</time>
      </trkpt>
      <trkpt lat="48.62806" lon="2.06647">
        <ele>143</ele>
        <time>2013-08-17T07:51:55Z</time>
      </trkpt>
      <trkpt lat="48.62806" lon="2.06642">
        <ele>143</ele>
        <time>2013-08-17T07:51:57Z</time>
      </trkpt>
      <trkpt lat="48.62806" lon="2.06636">
        <ele>143</ele>
        <time>2013-08-17T07:51:59Z</time>
      </trkpt>
      <trkpt lat="48.62805" lon="2.06631">
        <ele>143</ele>
        <time>2013-08-17T07:52:01Z</time>
      </trkpt>
      <trkpt lat="48.62805" lon="2.06627">
        <ele>143</ele>
        <time>2013-08-17T07:52:03Z</time>
      </trkpt>
      <trkpt lat="48.62805" lon="2.06622">
        <ele>143</ele>
        <time>2013-08-17T07:52:05Z</time>
      </trkpt>
      <trkpt lat="48.62805" lon="2.06616">
        <ele>143</ele>
        <time>2013-08-17T07:52:07Z</time>
      </trkpt>
      <trkpt lat="48.62804" lon="2.06611">
        <ele>143</ele>
        <time>2013-08-17T07:52:09Z</time>
      </trkpt>
      <trkpt lat="48.62804" lon="2.06604">
        <ele>143</ele>
        <time>2013-08-17T07:52:12Z</time>
      </trkpt>
      <trkpt lat="48.62804" lon="2.06598">
        <ele>143</ele>
        <time>2013-08-17T07:52:14Z</time>
      </trkpt>
      <trkpt lat="48.62804" lon="2.06593">
        <ele>143</ele>
        <time>2013-08-17T07:52:16Z</time>
      </trkpt>
      <trkpt lat="48.62804" lon="2.06588">
        <ele>144</ele>
        <time>2013-08-17T07:52:18Z</time>
      </trkpt>
      <trkpt lat="48.62803" lon="2.06583">
        <ele>144</ele>
        <time>2013-08-17T07:52:20Z</time>
      </trkpt>
      <trkpt lat="48.62803" lon="2.06576">
        <ele>144</ele>
        <time>2013-08-17T07:52:23Z</time>
      </trkpt>
      <trkpt lat="48.62803" lon="2.06571">
        <ele>144</ele>
        <time>2013-08-17T07:52:25Z</time>
      </trkpt>
      <trkpt lat="48.62803" lon="2.06566">
        <ele>145</ele>
        <time>2013-08-17T07:52:27Z</time>
      </trkpt>
      <trkpt lat="48.62803" lon="2.06561">
        <ele>145</ele>
        <time>2013-08-17T07:52:29Z</time>
      </trkpt>
      <trkpt lat="48.62803" lon="2.06557">
        <ele>145</ele>
        <time>2013-08-17T07:52:31Z</time>
      </trkpt>
      <trkpt lat="48.62803" lon="2.06552">
        <ele>145</ele>
        <time>2013-08-17T07:52:33Z</time>
      </trkpt>
      <trkpt lat="48.62803" lon="2.06547">
        <ele>145</ele>
        <time>2013-08-17T07:52:35Z</time>
      </trkpt>
      <trkpt lat="48.62802" lon="2.06542">
        <ele>145</ele>
        <time>2013-08-17T07:52:37Z</time>
      </trkpt>
      <trkpt lat="48.62802" lon="2.06537">
        <ele>146</ele>
        <time>2013-08-17T07:52:39Z</time>
      </trkpt>
      <trkpt lat="48.62802" lon="2.06532">
        <ele>146</ele>
        <time>2013-08-17T07:52:41Z</time>
      </trkpt>
      <trkpt lat="48.62802" lon="2.06527">
        <ele>146</ele>
        <time>2013-08-17T07:52:43Z</time>
      </trkpt>
      <trkpt lat="48.62801" lon="2.06522">
        <ele>146</ele>
        <time>2013-08-17T07:52:45Z</time>
      </trkpt>
      <trkpt lat="48.62801" lon="2.06518">
        <ele>146</ele>
        <time>2013-08-17T07:52:47Z</time>
      </trkpt>
      <trkpt lat="48.62801" lon="2.06513">
        <ele>146</ele>
        <time>2013-08-17T07:52:49Z</time>
      </trkpt>
      <trkpt lat="48.62801" lon="2.06508">
        <ele>146</ele>
        <time>2013-08-17T07:52:51Z</time>
      </trkpt>
      <trkpt lat="48.62801" lon="2.06503">
        <ele>146</ele>
        <time>2013-08-17T07:52:53Z</time>
      </trkpt>
      <trkpt lat="48.62801" lon="2.06498">
        <ele>146</ele>
        <time>2013-08-17T07:52:55Z</time>
      </trkpt>
      <trkpt lat="48.628" lon="2.06493">
        <ele>146</ele>
        <time>2013-08-17T07:52:57Z</time>
      </trkpt>
      <trkpt lat="48.628" lon="2.06488">
        <ele>146</ele>
        <time>2013-08-17T07:52:59Z</time>
      </trkpt>
      <trkpt lat="48.62799" lon="2.06482">
        <ele>147</ele>
        <time>2013-08-17T07:53:01Z</time>
      </trkpt>
      <trkpt lat="48.62799" lon="2.06476">
        <ele>147</ele>
        <time>2013-08-17T07:53:03Z</time>
      </trkpt>
      <trkpt lat="48.62799" lon="2.06471">
        <ele>148</ele>
        <time>2013-08-17T07:53:05Z</time>
      </trkpt>
      <trkpt lat="48.62799" lon="2.06466">
        <ele>148</ele>
        <time>2013-08-17T07:53:07Z</time>
      </trkpt>
      <trkpt lat="48.62799" lon="2.06461">
        <ele>148</ele>
        <time>2013-08-17T07:53:09Z</time>
      </trkpt>
      <trkpt lat="48.62798" lon="2.06456">
        <ele>148</ele>
        <time>2013-08-17T07:53:11Z</time>
      </trkpt>
      <trkpt lat="48.62798" lon="2.06451">
        <ele>148</ele>
        <time>2013-08-17T07:53:13Z</time>
      </trkpt>
      <trkpt lat="48.62798" lon="2.06446">
        <ele>148</ele>
        <time>2013-08-17T07:53:15Z</time>
      </trkpt>
      <trkpt lat="48.62797" lon="2.0644">
        <ele>148</ele>
        <time>2013-08-17T07:53:17Z</time>
      </trkpt>
      <trkpt lat="48.62797" lon="2.06435">
        <ele>148</ele>
        <time>2013-08-17T07:53:19Z</time>
      </trkpt>
      <trkpt lat="48.62797" lon="2.0643">
        <ele>149</ele>
        <time>2013-08-17T07:53:21Z</time>
      </trkpt>
      <trkpt lat="48.62797" lon="2.06425">
        <ele>149</ele>
        <time>2013-08-17T07:53:23Z</time>
      </trkpt>
      <trkpt lat="48.62796" lon="2.0642">
        <ele>149</ele>
        <time>2013-08-17T07:53:25Z</time>
      </trkpt>
      <trkpt lat="48.62796" lon="2.06415">
        <ele>149</ele>
        <time>2013-08-17T07:53:27Z</time>
      </trkpt>
      <trkpt lat="48.62796" lon="2.0641">
        <ele>149</ele>
        <time>2013-08-17T07:53:29Z</time>
      </trkpt>
      <trkpt lat="48.62796" lon="2.06404">
        <ele>149</ele>
        <time>2013-08-17T07:53:31Z</time>
      </trkpt>
      <trkpt lat="48.62795" lon="2.06399">
        <ele>149</ele>
        <time>2013-08-17T07:53:33Z</time>
      </trkpt>
      <trkpt lat="48.62795" lon="2.06394">
        <ele>149</ele>
        <time>2013-08-17T07:53:35Z</time>
      </trkpt>
      <trkpt lat="48.62795" lon="2.06388">
        <ele>149</ele>
        <time>2013-08-17T07:53:37Z</time>
      </trkpt>
      <trkpt lat="48.62794" lon="2.06383">
        <ele>149</ele>
        <time>2013-08-17T07:53:39Z</time>
      </trkpt>
      <trkpt lat="48.62794" lon="2.06378">
        <ele>149</ele>
        <time>2013-08-17T07:53:41Z</time>
      </trkpt>
      <trkpt lat="48.62794" lon="2.06373">
        <ele>149</ele>
        <time>2013-08-17T07:53:43Z</time>
      </trkpt>
      <trkpt lat="48.62794" lon="2.06368">
        <ele>149</ele>
        <time>2013-08-17T07:53:45Z</time>
      </trkpt>
      <trkpt lat="48.62794" lon="2.06364">
        <ele>149</ele>
        <time>2013-08-17T07:53:47Z</time>
      </trkpt>
      <trkpt lat="48.62794" lon="2.06358">
        <ele>149</ele>
        <time>2013-08-17T07:53:49Z</time>
      </trkpt>
      <trkpt lat="48.62793" lon="2.06353">
        <ele>149</ele>
        <time>2013-08-17T07:53:51Z</time>
      </trkpt>
      <trkpt lat="48.62793" lon="2.06348">
        <ele>150</ele>
        <time>2013-08-17T07:53:53Z</time>
      </trkpt>
      <trkpt lat="48.62793" lon="2.06344">
        <ele>150</ele>
        <time>2013-08-17T07:53:55Z</time>
      </trkpt>
      <trkpt lat="48.62793" lon="2.06339">
        <ele>150</ele>
        <time>2013-08-17T07:53:57Z</time>
      </trkpt>
      <trkpt lat="48.62793" lon="2.06334">
        <ele>150</ele>
        <time>2013-08-17T07:53:59Z</time>
      </trkpt>
      <trkpt lat="48.62793" lon="2.06329">
        <ele>150</ele>
        <time>2013-08-17T07:54:01Z</time>
      </trkpt>
      <trkpt lat="48.62793" lon="2.06324">
        <ele>150</ele>
        <time>2013-08-17T07:54:03Z</time>
      </trkpt>
      <trkpt lat="48.62793" lon="2.06319">
        <ele>150</ele>
        <time>2013-08-17T07:54:05Z</time>
      </trkpt>
      <trkpt lat="48.62792" lon="2.06314">
        <ele>150</ele>
        <time>2013-08-17T07:54:07Z</time>
      </trkpt>
      <trkpt lat="48.62792" lon="2.0631">
        <ele>150</ele>
        <time>2013-08-17T07:54:09Z</time>
      </trkpt>
      <trkpt lat="48.62791" lon="2.06305">
        <ele>150</ele>
        <time>2013-08-17T07:54:11Z</time>
      </trkpt>
      <trkpt lat="48.62791" lon="2.063">
        <ele>150</ele>
        <time>2013-08-17T07:54:13Z</time>
      </trkpt>
      <trkpt lat="48.62791" lon="2.06292">
        <ele>150</ele>
        <time>2013-08-17T07:54:16Z</time>
      </trkpt>
      <trkpt lat="48.62791" lon="2.06287">
        <ele>150</ele>
        <time>2013-08-17T07:54:18Z</time>
      </trkpt>
      <trkpt lat="48.6279" lon="2.06279">
        <ele>150</ele>
        <time>2013-08-17T07:54:21Z</time>
      </trkpt>
      <trkpt lat="48.6279" lon="2.06274">
        <ele>150</ele>
        <time>2013-08-17T07:54:23Z</time>
      </trkpt>
      <trkpt lat="48.6279" lon="2.06269">
        <ele>150</ele>
        <time>2013-08-17T07:54:25Z</time>
      </trkpt>
      <trkpt lat="48.6279" lon="2.06263">
        <ele>150</ele>
        <time>2013-08-17T07:54:27Z</time>
      </trkpt>
      <trkpt lat="48.6279" lon="2.06258">
        <ele>150</ele>
        <time>2013-08-17T07:54:29Z</time>
      </trkpt>
      <trkpt lat="48.62789" lon="2.06253">
        <ele>150</ele>
        <time>2013-08-17T07:54:31Z</time>
      </trkpt>
      <trkpt lat="48.62789" lon="2.06247">
        <ele>150</ele>
        <time>2013-08-17T07:54:33Z</time>
      </trkpt>
      <trkpt lat="48.62788" lon="2.06242">
        <ele>150</ele>
        <time>2013-08-17T07:54:35Z</time>
      </trkpt>
      <trkpt lat="48.62788" lon="2.06237">
        <ele>150</ele>
        <time>2013-08-17T07:54:37Z</time>
      </trkpt>
      <trkpt lat="48.62788" lon="2.06232">
        <ele>150</ele>
        <time>2013-08-17T07:54:39Z</time>
      </trkpt>
      <trkpt lat="48.62788" lon="2.06227">
        <ele>150</ele>
        <time>2013-08-17T07:54:41Z</time>
      </trkpt>
      <trkpt lat="48.62788" lon="2.06223">
        <ele>151</ele>
        <time>2013-08-17T07:54:43Z</time>
      </trkpt>
      <trkpt lat="48.62788" lon="2.06218">
        <ele>151</ele>
        <time>2013-08-17T07:54:45Z</time>
      </trkpt>
      <trkpt lat="48.62788" lon="2.06213">
        <ele>151</ele>
        <time>2013-08-17T07:54:47Z</time>
      </trkpt>
      <trkpt lat="48.62788" lon="2.06208">
        <ele>151</ele>
        <time>2013-08-17T07:54:49Z</time>
      </trkpt>
      <trkpt lat="48.62788" lon="2.06203">
        <ele>151</ele>
        <time>2013-08-17T07:54:51Z</time>
      </trkpt>
      <trkpt lat="48.62788" lon="2.06198">
        <ele>151</ele>
        <time>2013-08-17T07:54:53Z</time>
      </trkpt>
      <trkpt lat="48.62787" lon="2.06194">
        <ele>151</ele>
        <time>2013-08-17T07:54:55Z</time>
      </trkpt>
      <trkpt lat="48.62787" lon="2.06189">
        <ele>151</ele>
        <time>2013-08-17T07:54:57Z</time>
      </trkpt>
      <trkpt lat="48.62787" lon="2.06184">
        <ele>151</ele>
        <time>2013-08-17T07:54:59Z</time>
      </trkpt>
      <trkpt lat="48.62786" lon="2.06179">
        <ele>151</ele>
        <time>2013-08-17T07:55:01Z</time>
      </trkpt>
      <trkpt lat="48.62786" lon="2.06171">
        <ele>151</ele>
        <time>2013-08-17T07:55:04Z</time>
      </trkpt>
      <trkpt lat="48.62786" lon="2.06167">
        <ele>151</ele>
        <time>2013-08-17T07:55:06Z</time>
      </trkpt>
      <trkpt lat="48.62785" lon="2.06161">
        <ele>151</ele>
        <time>2013-08-17T07:55:08Z</time>
      </trkpt>
      <trkpt lat="48.62785" lon="2.06156">
        <ele>151</ele>
        <time>2013-08-17T07:55:10Z</time>
      </trkpt>
      <trkpt lat="48.62785" lon="2.06152">
        <ele>151</ele>
        <time>2013-08-17T07:55:12Z</time>
      </trkpt>
      <trkpt lat="48.62785" lon="2.06144">
        <ele>151</ele>
        <time>2013-08-17T07:55:15Z</time>
      </trkpt>
      <trkpt lat="48.62785" lon="2.06137">
        <ele>151</ele>
        <time>2013-08-17T07:55:18Z</time>
      </trkpt>
      <trkpt lat="48.62785" lon="2.06133">
        <ele>151</ele>
        <time>2013-08-17T07:55:20Z</time>
      </trkpt>
      <trkpt lat="48.62785" lon="2.06128">
        <ele>151</ele>
        <time>2013-08-17T07:55:22Z</time>
      </trkpt>
      <trkpt lat="48.62784" lon="2.06123">
        <ele>151</ele>
        <time>2013-08-17T07:55:24Z</time>
      </trkpt>
      <trkpt lat="48.62784" lon="2.06118">
        <ele>151</ele>
        <time>2013-08-17T07:55:26Z</time>
      </trkpt>
      <trkpt lat="48.62784" lon="2.06114">
        <ele>151</ele>
        <time>2013-08-17T07:55:28Z</time>
      </trkpt>
      <trkpt lat="48.62784" lon="2.06108">
        <ele>151</ele>
        <time>2013-08-17T07:55:30Z</time>
      </trkpt>
      <trkpt lat="48.62784" lon="2.06104">
        <ele>151</ele>
        <time>2013-08-17T07:55:32Z</time>
      </trkpt>
      <trkpt lat="48.62783" lon="2.06099">
        <ele>151</ele>
        <time>2013-08-17T07:55:34Z</time>
      </trkpt>
      <trkpt lat="48.62783" lon="2.06095">
        <ele>151</ele>
        <time>2013-08-17T07:55:36Z</time>
      </trkpt>
      <trkpt lat="48.62783" lon="2.0609">
        <ele>151</ele>
        <time>2013-08-17T07:55:38Z</time>
      </trkpt>
      <trkpt lat="48.62783" lon="2.06085">
        <ele>151</ele>
        <time>2013-08-17T07:55:40Z</time>
      </trkpt>
      <trkpt lat="48.62782" lon="2.06081">
        <ele>151</ele>
        <time>2013-08-17T07:55:42Z</time>
      </trkpt>
      <trkpt lat="48.62782" lon="2.06076">
        <ele>151</ele>
        <time>2013-08-17T07:55:44Z</time>
      </trkpt>
      <trkpt lat="48.62782" lon="2.06071">
        <ele>151</ele>
        <time>2013-08-17T07:55:46Z</time>
      </trkpt>
      <trkpt lat="48.62782" lon="2.06066">
        <ele>151</ele>
        <time>2013-08-17T07:55:48Z</time>
      </trkpt>
      <trkpt lat="48.62782" lon="2.06061">
        <ele>151</ele>
        <time>2013-08-17T07:55:50Z</time>
      </trkpt>
      <trkpt lat="48.62781" lon="2.06057">
        <ele>151</ele>
        <time>2013-08-17T07:55:52Z</time>
      </trkpt>
      <trkpt lat="48.62781" lon="2.06052">
        <ele>151</ele>
        <time>2013-08-17T07:55:54Z</time>
      </trkpt>
      <trkpt lat="48.62781" lon="2.06048">
        <ele>151</ele>
        <time>2013-08-17T07:55:56Z</time>
      </trkpt>
      <trkpt lat="48.62781" lon="2.06043">
        <ele>151</ele>
        <time>2013-08-17T07:55:58Z</time>
      </trkpt>
      <trkpt lat="48.6278" lon="2.06038">
        <ele>151</ele>
        <time>2013-08-17T07:56:00Z</time>
      </trkpt>
      <trkpt lat="48.6278" lon="2.06031">
        <ele>152</ele>
        <time>2013-08-17T07:56:03Z</time>
      </trkpt>
      <trkpt lat="48.6278" lon="2.06026">
        <ele>152</ele>
        <time>2013-08-17T07:56:05Z</time>
      </trkpt>
      <trkpt lat="48.6278" lon="2.06022">
        <ele>152</ele>
        <time>2013-08-17T07:56:07Z</time>
      </trkpt>
      <trkpt lat="48.62779" lon="2.06017">
        <ele>152</ele>
        <time>2013-08-17T07:56:09Z</time>
      </trkpt>
      <trkpt lat="48.62779" lon="2.06013">
        <ele>152</ele>
        <time>2013-08-17T07:56:11Z</time>
      </trkpt>
      <trkpt lat="48.62779" lon="2.06008">
        <ele>152</ele>
        <time>2013-08-17T07:56:13Z</time>
      </trkpt>
      <trkpt lat="48.62779" lon="2.06004">
        <ele>153</ele>
        <time>2013-08-17T07:56:15Z</time>
      </trkpt>
      <trkpt lat="48.62779" lon="2.06">
        <ele>153</ele>
        <time>2013-08-17T07:56:17Z</time>
      </trkpt>
      <trkpt lat="48.62779" lon="2.05996">
        <ele>153</ele>
        <time>2013-08-17T07:56:19Z</time>
      </trkpt>
      <trkpt lat="48.62778" lon="2.05992">
        <ele>153</ele>
        <time>2013-08-17T07:56:21Z</time>
      </trkpt>
      <trkpt lat="48.62778" lon="2.05987">
        <ele>153</ele>
        <time>2013-08-17T07:56:23Z</time>
      </trkpt>
      <trkpt lat="48.62778" lon="2.05982">
        <ele>153</ele>
        <time>2013-08-17T07:56:25Z</time>
      </trkpt>
      <trkpt lat="48.62778" lon="2.05978">
        <ele>153</ele>
        <time>2013-08-17T07:56:27Z</time>
      </trkpt>
      <trkpt lat="48.62778" lon="2.05974">
        <ele>153</ele>
        <time>2013-08-17T07:56:29Z</time>
      </trkpt>
      <trkpt lat="48.62777" lon="2.05968">
        <ele>153</ele>
        <time>2013-08-17T07:56:32Z</time>
      </trkpt>
      <trkpt lat="48.62777" lon="2.05964">
        <ele>153</ele>
        <time>2013-08-17T07:56:34Z</time>
      </trkpt>
      <trkpt lat="48.62777" lon="2.05962">
        <ele>153</ele>
        <time>2013-08-17T07:56:36Z</time>
      </trkpt>
      <trkpt lat="48.62777" lon="2.05959">
        <ele>154</ele>
        <time>2013-08-17T07:57:04Z</time>
      </trkpt>
      <trkpt lat="48.62776" lon="2.05954">
        <ele>154</ele>
        <time>2013-08-17T07:57:06Z</time>
      </trkpt>
      <trkpt lat="48.62776" lon="2.05948">
        <ele>155</ele>
        <time>2013-08-17T07:57:08Z</time>
      </trkpt>
      <trkpt lat="48.62776" lon="2.05943">
        <ele>155</ele>
        <time>2013-08-17T07:57:10Z</time>
      </trkpt>
      <trkpt lat="48.62776" lon="2.05938">
        <ele>155</ele>
        <time>2013-08-17T07:57:12Z</time>
      </trkpt>
      <trkpt lat="48.62777" lon="2.05932">
        <ele>155</ele>
        <time>2013-08-17T07:57:14Z</time>
      </trkpt>
      <trkpt lat="48.62776" lon="2.05927">
        <ele>155</ele>
        <time>2013-08-17T07:57:16Z</time>
      </trkpt>
      <trkpt lat="48.62776" lon="2.05923">
        <ele>155</ele>
        <time>2013-08-17T07:57:18Z</time>
      </trkpt>
      <trkpt lat="48.62776" lon="2.05918">
        <ele>155</ele>
        <time>2013-08-17T07:57:20Z</time>
      </trkpt>
      <trkpt lat="48.62776" lon="2.05913">
        <ele>155</ele>
        <time>2013-08-17T07:57:22Z</time>
      </trkpt>
      <trkpt lat="48.62776" lon="2.05908">
        <ele>155</ele>
        <time>2013-08-17T07:57:24Z</time>
      </trkpt>
      <trkpt lat="48.62776" lon="2.05903">
        <ele>155</ele>
        <time>2013-08-17T07:57:26Z</time>
      </trkpt>
      <trkpt lat="48.62775" lon="2.05899">
        <ele>155</ele>
        <time>2013-08-17T07:57:28Z</time>
      </trkpt>
      <trkpt lat="48.62775" lon="2.05894">
        <ele>155</ele>
        <time>2013-08-17T07:57:30Z</time>
      </trkpt>
      <trkpt lat="48.62775" lon="2.0589">
        <ele>155</ele>
        <time>2013-08-17T07:57:32Z</time>
      </trkpt>
      <trkpt lat="48.62775" lon="2.05886">
        <ele>155</ele>
        <time>2013-08-17T07:57:34Z</time>
      </trkpt>
      <trkpt lat="48.62774" lon="2.05882">
        <ele>155</ele>
        <time>2013-08-17T07:57:36Z</time>
      </trkpt>
      <trkpt lat="48.62774" lon="2.05877">
        <ele>155</ele>
        <time>2013-08-17T07:57:38Z</time>
      </trkpt>
      <trkpt lat="48.62773" lon="2.05873">
        <ele>155</ele>
        <time>2013-08-17T07:57:40Z</time>
      </trkpt>
      <trkpt lat="48.62772" lon="2.05868">
        <ele>155</ele>
        <time>2013-08-17T07:57:42Z</time>
      </trkpt>
      <trkpt lat="48.62771" lon="2.05863">
        <ele>155</ele>
        <time>2013-08-17T07:57:44Z</time>
      </trkpt>
      <trkpt lat="48.6277" lon="2.05859">
        <ele>155</ele>
        <time>2013-08-17T07:57:46Z</time>
      </trkpt>
      <trkpt lat="48.62769" lon="2.05853">
        <ele>155</ele>
        <time>2013-08-17T07:57:48Z</time>
      </trkpt>
      <trkpt lat="48.62768" lon="2.05848">
        <ele>155</ele>
        <time>2013-08-17T07:57:50Z</time>
      </trkpt>
      <trkpt lat="48.62767" lon="2.05843">
        <ele>155</ele>
        <time>2013-08-17T07:57:52Z</time>
      </trkpt>
      <trkpt lat="48.62765" lon="2.05839">
        <ele>155</ele>
        <time>2013-08-17T07:57:54Z</time>
      </trkpt>
      <trkpt lat="48.62764" lon="2.05834">
        <ele>155</ele>
        <time>2013-08-17T07:57:56Z</time>
      </trkpt>
      <trkpt lat="48.62763" lon="2.0583">
        <ele>155</ele>
        <time>2013-08-17T07:57:58Z</time>
      </trkpt>
      <trkpt lat="48.62761" lon="2.05825">
        <ele>155</ele>
        <time>2013-08-17T07:58:00Z</time>
      </trkpt>
      <trkpt lat="48.6276" lon="2.05821">
        <ele>155</ele>
        <time>2013-08-17T07:58:02Z</time>
      </trkpt>
      <trkpt lat="48.62759" lon="2.05816">
        <ele>155</ele>
        <time>2013-08-17T07:58:04Z</time>
      </trkpt>
      <trkpt lat="48.62757" lon="2.05811">
        <ele>156</ele>
        <time>2013-08-17T07:58:06Z</time>
      </trkpt>
      <trkpt lat="48.62756" lon="2.05806">
        <ele>156</ele>
        <time>2013-08-17T07:58:08Z</time>
      </trkpt>
      <trkpt lat="48.62755" lon="2.05802">
        <ele>156</ele>
        <time>2013-08-17T07:58:10Z</time>
      </trkpt>
      <trkpt lat="48.62754" lon="2.05797">
        <ele>156</ele>
        <time>2013-08-17T07:58:12Z</time>
      </trkpt>
      <trkpt lat="48.62752" lon="2.05792">
        <ele>156</ele>
        <time>2013-08-17T07:58:14Z</time>
      </trkpt>
      <trkpt lat="48.62751" lon="2.05788">
        <ele>156</ele>
        <time>2013-08-17T07:58:16Z</time>
      </trkpt>
      <trkpt lat="48.62749" lon="2.05783">
        <ele>156</ele>
        <time>2013-08-17T07:58:18Z</time>
      </trkpt>
      <trkpt lat="48.62748" lon="2.05779">
        <ele>156</ele>
        <time>2013-08-17T07:58:20Z</time>
      </trkpt>
      <trkpt lat="48.62747" lon="2.05774">
        <ele>156</ele>
        <time>2013-08-17T07:58:22Z</time>
      </trkpt>
      <trkpt lat="48.62746" lon="2.0577">
        <ele>156</ele>
        <time>2013-08-17T07:58:24Z</time>
      </trkpt>
      <trkpt lat="48.62744" lon="2.05766">
        <ele>156</ele>
        <time>2013-08-17T07:58:26Z</time>
      </trkpt>
      <trkpt lat="48.62743" lon="2.05762">
        <ele>156</ele>
        <time>2013-08-17T07:58:28Z</time>
      </trkpt>
      <trkpt lat="48.62741" lon="2.05758">
        <ele>156</ele>
        <time>2013-08-17T07:58:30Z</time>
      </trkpt>
      <trkpt lat="48.6274" lon="2.05755">
        <ele>156</ele>
        <time>2013-08-17T07:58:32Z</time>
      </trkpt>
      <trkpt lat="48.62736" lon="2.05751">
        <ele>156</ele>
        <time>2013-08-17T07:58:34Z</time>
      </trkpt>
      <trkpt lat="48.62732" lon="2.0575">
        <ele>156</ele>
        <time>2013-08-17T07:58:36Z</time>
      </trkpt>
      <trkpt lat="48.62728" lon="2.05751">
        <ele>156</ele>
        <time>2013-08-17T07:58:38Z</time>
      </trkpt>
      <trkpt lat="48.62724" lon="2.05754">
        <ele>156</ele>
        <time>2013-08-17T07:58:40Z</time>
      </trkpt>
      <trkpt lat="48.62721" lon="2.05758">
        <ele>156</ele>
        <time>2013-08-17T07:58:42Z</time>
      </trkpt>
      <trkpt lat="48.62718" lon="2.05763">
        <ele>156</ele>
        <time>2013-08-17T07:58:44Z</time>
      </trkpt>
      <trkpt lat="48.62716" lon="2.05767">
        <ele>156</ele>
        <time>2013-08-17T07:58:46Z</time>
      </trkpt>
      <trkpt lat="48.62713" lon="2.0577">
        <ele>156</ele>
        <time>2013-08-17T07:58:48Z</time>
      </trkpt>
      <trkpt lat="48.6271" lon="2.05774">
        <ele>156</ele>
        <time>2013-08-17T07:58:50Z</time>
      </trkpt>
      <trkpt lat="48.62708" lon="2.05778">
        <ele>156</ele>
        <time>2013-08-17T07:58:52Z</time>
      </trkpt>
      <trkpt lat="48.62705" lon="2.05781">
        <ele>156</ele>
        <time>2013-08-17T07:58:54Z</time>
      </trkpt>
      <trkpt lat="48.62703" lon="2.05785">
        <ele>156</ele>
        <time>2013-08-17T07:58:56Z</time>
      </trkpt>
      <trkpt lat="48.627" lon="2.05789">
        <ele>156</ele>
        <time>2013-08-17T07:58:58Z</time>
      </trkpt>
      <trkpt lat="48.62698" lon="2.05792">
        <ele>156</ele>
        <time>2013-08-17T07:59:00Z</time>
      </trkpt>
      <trkpt lat="48.62695" lon="2.05795">
        <ele>156</ele>
        <time>2013-08-17T07:59:02Z</time>
      </trkpt>
      <trkpt lat="48.62692" lon="2.05799">
        <ele>156</ele>
        <time>2013-08-17T07:59:04Z</time>
      </trkpt>
      <trkpt lat="48.6269" lon="2.05802">
        <ele>156</ele>
        <time>2013-08-17T07:59:06Z</time>
      </trkpt>
      <trkpt lat="48.62687" lon="2.05805">
        <ele>156</ele>
        <time>2013-08-17T07:59:08Z</time>
      </trkpt>
      <trkpt lat="48.62684" lon="2.05809">
        <ele>156</ele>
        <time>2013-08-17T07:59:10Z</time>
      </trkpt>
      <trkpt lat="48.62681" lon="2.05811">
        <ele>156</ele>
        <time>2013-08-17T07:59:12Z</time>
      </trkpt>
      <trkpt lat="48.62678" lon="2.05815">
        <ele>156</ele>
        <time>2013-08-17T07:59:14Z</time>
      </trkpt>
      <trkpt lat="48.62675" lon="2.05818">
        <ele>156</ele>
        <time>2013-08-17T07:59:16Z</time>
      </trkpt>
      <trkpt lat="48.62672" lon="2.05821">
        <ele>156</ele>
        <time>2013-08-17T07:59:18Z</time>
      </trkpt>
      <trkpt lat="48.62669" lon="2.05823">
        <ele>156</ele>
        <time>2013-08-17T07:59:20Z</time>
      </trkpt>
      <trkpt lat="48.62667" lon="2.05826">
        <ele>156</ele>
        <time>2013-08-17T07:59:22Z</time>
      </trkpt>
      <trkpt lat="48.62664" lon="2.05829">
        <ele>156</ele>
        <time>2013-08-17T07:59:24Z</time>
      </trkpt>
      <trkpt lat="48.62661" lon="2.05832">
        <ele>156</ele>
        <time>2013-08-17T07:59:26Z</time>
      </trkpt>
      <trkpt lat="48.62659" lon="2.05835">
        <ele>156</ele>
        <time>2013-08-17T07:59:28Z</time>
      </trkpt>
      <trkpt lat="48.62656" lon="2.05838">
        <ele>156</ele>
        <time>2013-08-17T07:59:31Z</time>
      </trkpt>
      <trkpt lat="48.62653" lon="2.05841">
        <ele>156</ele>
        <time>2013-08-17T07:59:33Z</time>
      </trkpt>
      <trkpt lat="48.62651" lon="2.05843">
        <ele>156</ele>
        <time>2013-08-17T07:59:35Z</time>
      </trkpt>
      <trkpt lat="48.62648" lon="2.05846">
        <ele>156</ele>
        <time>2013-08-17T07:59:37Z</time>
      </trkpt>
      <trkpt lat="48.62645" lon="2.05848">
        <ele>156</ele>
        <time>2013-08-17T07:59:39Z</time>
      </trkpt>
      <trkpt lat="48.62642" lon="2.0585">
        <ele>156</ele>
        <time>2013-08-17T07:59:41Z</time>
      </trkpt>
      <trkpt lat="48.62639" lon="2.05853">
        <ele>156</ele>
        <time>2013-08-17T07:59:43Z</time>
      </trkpt>
      <trkpt lat="48.62635" lon="2.05856">
        <ele>156</ele>
        <time>2013-08-17T07:59:45Z</time>
      </trkpt>
      <trkpt lat="48.6263" lon="2.0586">
        <ele>156</ele>
        <time>2013-08-17T07:59:47Z</time>
      </trkpt>
      <trkpt lat="48.62625" lon="2.05864">
        <ele>156</ele>
        <time>2013-08-17T07:59:49Z</time>
      </trkpt>
      <trkpt lat="48.62621" lon="2.05867">
        <ele>156</ele>
        <time>2013-08-17T07:59:51Z</time>
      </trkpt>
      <trkpt lat="48.62617" lon="2.0587">
        <ele>156</ele>
        <time>2013-08-17T07:59:53Z</time>
      </trkpt>
      <trkpt lat="48.62614" lon="2.05872">
        <ele>156</ele>
        <time>2013-08-17T07:59:55Z</time>
      </trkpt>
      <trkpt lat="48.62611" lon="2.05874">
        <ele>156</ele>
        <time>2013-08-17T07:59:57Z</time>
      </trkpt>
      <trkpt lat="48.62608" lon="2.05876">
        <ele>156</ele>
        <time>2013-08-17T07:59:59Z</time>
      </trkpt>
      <trkpt lat="48.62605" lon="2.05878">
        <ele>156</ele>
        <time>2013-08-17T08:00:01Z</time>
      </trkpt>
      <trkpt lat="48.62601" lon="2.05881">
        <ele>156</ele>
        <time>2013-08-17T08:00:03Z</time>
      </trkpt>
      <trkpt lat="48.62598" lon="2.05883">
        <ele>156</ele>
        <time>2013-08-17T08:00:05Z</time>
      </trkpt>
      <trkpt lat="48.62595" lon="2.05886">
        <ele>156</ele>
        <time>2013-08-17T08:00:07Z</time>
      </trkpt>
      <trkpt lat="48.62592" lon="2.05888">
        <ele>156</ele>
        <time>2013-08-17T08:00:09Z</time>
      </trkpt>
      <trkpt lat="48.62589" lon="2.0589">
        <ele>156</ele>
        <time>2013-08-17T08:00:11Z</time>
      </trkpt>
      <trkpt lat="48.62585" lon="2.05893">
        <ele>156</ele>
        <time>2013-08-17T08:00:13Z</time>
      </trkpt>
      <trkpt lat="48.62582" lon="2.05895">
        <ele>156</ele>
        <time>2013-08-17T08:00:15Z</time>
      </trkpt>
      <trkpt lat="48.62579" lon="2.05897">
        <ele>156</ele>
        <time>2013-08-17T08:00:17Z</time>
      </trkpt>
      <trkpt lat="48.62576" lon="2.059">
        <ele>156</ele>
        <time>2013-08-17T08:00:19Z</time>
      </trkpt>
      <trkpt lat="48.62573" lon="2.05901">
        <ele>156</ele>
        <time>2013-08-17T08:00:21Z</time>
      </trkpt>
      <trkpt lat="48.6257" lon="2.05903">
        <ele>156</ele>
        <time>2013-08-17T08:00:23Z</time>
      </trkpt>
      <trkpt lat="48.62567" lon="2.05905">
        <ele>156</ele>
        <time>2013-08-17T08:00:25Z</time>
      </trkpt>
      <trkpt lat="48.62564" lon="2.05907">
        <ele>156</ele>
        <time>2013-08-17T08:00:27Z</time>
      </trkpt>
      <trkpt lat="48.62561" lon="2.0591">
        <ele>156</ele>
        <time>2013-08-17T08:00:29Z</time>
      </trkpt>
      <trkpt lat="48.62558" lon="2.05912">
        <ele>156</ele>
        <time>2013-08-17T08:00:31Z</time>
      </trkpt>
      <trkpt lat="48.62555" lon="2.05914">
        <ele>156</ele>
        <time>2013-08-17T08:00:33Z</time>
      </trkpt>
      <trkpt lat="48.62552" lon="2.05916">
        <ele>156</ele>
        <time>2013-08-17T08:00:35Z</time>
      </trkpt>
      <trkpt lat="48.62549" lon="2.05918">
        <ele>156</ele>
        <time>2013-08-17T08:00:37Z</time>
      </trkpt>
      <trkpt lat="48.62546" lon="2.0592">
        <ele>156</ele>
        <time>2013-08-17T08:00:39Z</time>
      </trkpt>
      <trkpt lat="48.62543" lon="2.05922">
        <ele>156</ele>
        <time>2013-08-17T08:00:41Z</time>
      </trkpt>
      <trkpt lat="48.6254" lon="2.05924">
        <ele>156</ele>
        <time>2013-08-17T08:00:43Z</time>
      </trkpt>
      <trkpt lat="48.62537" lon="2.05926">
        <ele>156</ele>
        <time>2013-08-17T08:00:45Z</time>
      </trkpt>
      <trkpt lat="48.62534" lon="2.05928">
        <ele>156</ele>
        <time>2013-08-17T08:00:47Z</time>
      </trkpt>
      <trkpt lat="48.62531" lon="2.0593">
        <ele>156</ele>
        <time>2013-08-17T08:00:49Z</time>
      </trkpt>
      <trkpt lat="48.62527" lon="2.05933">
        <ele>156</ele>
        <time>2013-08-17T08:00:51Z</time>
      </trkpt>
      <trkpt lat="48.62524" lon="2.05935">
        <ele>156</ele>
        <time>2013-08-17T08:00:53Z</time>
      </trkpt>
      <trkpt lat="48.62521" lon="2.05938">
        <ele>156</ele>
        <time>2013-08-17T08:00:55Z</time>
      </trkpt>
      <trkpt lat="48.62518" lon="2.05941">
        <ele>156</ele>
        <time>2013-08-17T08:00:57Z</time>
      </trkpt>
      <trkpt lat="48.62515" lon="2.05943">
        <ele>156</ele>
        <time>2013-08-17T08:00:59Z</time>
      </trkpt>
      <trkpt lat="48.62513" lon="2.05946">
        <ele>156</ele>
        <time>2013-08-17T08:01:01Z</time>
      </trkpt>
      <trkpt lat="48.6251" lon="2.05948">
        <ele>156</ele>
        <time>2013-08-17T08:01:03Z</time>
      </trkpt>
      <trkpt lat="48.62507" lon="2.05951">
        <ele>156</ele>
        <time>2013-08-17T08:01:05Z</time>
      </trkpt>
      <trkpt lat="48.62504" lon="2.05954">
        <ele>156</ele>
        <time>2013-08-17T08:01:07Z</time>
      </trkpt>
      <trkpt lat="48.62501" lon="2.05957">
        <ele>156</ele>
        <time>2013-08-17T08:01:09Z</time>
      </trkpt>
      <trkpt lat="48.62499" lon="2.05959">
        <ele>156</ele>
        <time>2013-08-17T08:01:11Z</time>
      </trkpt>
      <trkpt lat="48.62496" lon="2.05962">
        <ele>156</ele>
        <time>2013-08-17T08:01:13Z</time>
      </trkpt>
      <trkpt lat="48.62493" lon="2.05965">
        <ele>156</ele>
        <time>2013-08-17T08:01:15Z</time>
      </trkpt>
      <trkpt lat="48.6249" lon="2.05968">
        <ele>156</ele>
        <time>2013-08-17T08:01:17Z</time>
      </trkpt>
      <trkpt lat="48.62488" lon="2.05971">
        <ele>156</ele>
        <time>2013-08-17T08:01:19Z</time>
      </trkpt>
      <trkpt lat="48.62485" lon="2.05974">
        <ele>156</ele>
        <time>2013-08-17T08:01:21Z</time>
      </trkpt>
      <trkpt lat="48.62482" lon="2.05977">
        <ele>156</ele>
        <time>2013-08-17T08:01:23Z</time>
      </trkpt>
      <trkpt lat="48.6248" lon="2.0598">
        <ele>156</ele>
        <time>2013-08-17T08:01:25Z</time>
      </trkpt>
      <trkpt lat="48.62477" lon="2.05983">
        <ele>156</ele>
        <time>2013-08-17T08:01:27Z</time>
      </trkpt>
      <trkpt lat="48.62474" lon="2.05986">
        <ele>156</ele>
        <time>2013-08-17T08:01:29Z</time>
      </trkpt>
      <trkpt lat="48.62472" lon="2.05989">
        <ele>156</ele>
        <time>2013-08-17T08:01:31Z</time>
      </trkpt>
      <trkpt lat="48.62469" lon="2.05993">
        <ele>156</ele>
        <time>2013-08-17T08:01:33Z</time>
      </trkpt>
      <trkpt lat="48.62466" lon="2.05996">
        <ele>156</ele>
        <time>2013-08-17T08:01:35Z</time>
      </trkpt>
      <trkpt lat="48.62464" lon="2.05999">
        <ele>156</ele>
        <time>2013-08-17T08:01:37Z</time>
      </trkpt>
      <trkpt lat="48.62461" lon="2.06002">
        <ele>156</ele>
        <time>2013-08-17T08:01:39Z</time>
      </trkpt>
      <trkpt lat="48.62458" lon="2.06005">
        <ele>156</ele>
        <time>2013-08-17T08:01:41Z</time>
      </trkpt>
      <trkpt lat="48.62456" lon="2.06009">
        <ele>156</ele>
        <time>2013-08-17T08:01:43Z</time>
      </trkpt>
      <trkpt lat="48.62453" lon="2.06012">
        <ele>156</ele>
        <time>2013-08-17T08:01:45Z</time>
      </trkpt>
      <trkpt lat="48.62451" lon="2.06015">
        <ele>156</ele>
        <time>2013-08-17T08:01:47Z</time>
      </trkpt>
      <trkpt lat="48.62448" lon="2.06018">
        <ele>156</ele>
        <time>2013-08-17T08:01:49Z</time>
      </trkpt>
      <trkpt lat="48.62445" lon="2.06021">
        <ele>156</ele>
        <time>2013-08-17T08:01:51Z</time>
      </trkpt>
      <trkpt lat="48.62443" lon="2.06024">
        <ele>156</ele>
        <time>2013-08-17T08:01:53Z</time>
      </trkpt>
      <trkpt lat="48.6244" lon="2.06027">
        <ele>156</ele>
        <time>2013-08-17T08:01:55Z</time>
      </trkpt>
      <trkpt lat="48.62437" lon="2.0603">
        <ele>156</ele>
        <time>2013-08-17T08:01:57Z</time>
      </trkpt>
      <trkpt lat="48.62434" lon="2.06033">
        <ele>156</ele>
        <time>2013-08-17T08:01:59Z</time>
      </trkpt>
      <trkpt lat="48.62432" lon="2.06036">
        <ele>156</ele>
        <time>2013-08-17T08:02:01Z</time>
      </trkpt>
      <trkpt lat="48.62429" lon="2.06039">
        <ele>156</ele>
        <time>2013-08-17T08:02:03Z</time>
      </trkpt>
      <trkpt lat="48.62426" lon="2.06042">
        <ele>156</ele>
        <time>2013-08-17T08:02:05Z</time>
      </trkpt>
      <trkpt lat="48.62424" lon="2.06044">
        <ele>156</ele>
        <time>2013-08-17T08:02:07Z</time>
      </trkpt>
      <trkpt lat="48.62421" lon="2.06047">
        <ele>156</ele>
        <time>2013-08-17T08:02:09Z</time>
      </trkpt>
      <trkpt lat="48.62419" lon="2.06049">
        <ele>156</ele>
        <time>2013-08-17T08:02:11Z</time>
      </trkpt>
      <trkpt lat="48.62416" lon="2.06052">
        <ele>156</ele>
        <time>2013-08-17T08:02:13Z</time>
      </trkpt>
      <trkpt lat="48.62413" lon="2.06054">
        <ele>156</ele>
        <time>2013-08-17T08:02:15Z</time>
      </trkpt>
      <trkpt lat="48.6241" lon="2.06057">
        <ele>156</ele>
        <time>2013-08-17T08:02:17Z</time>
      </trkpt>
      <trkpt lat="48.62408" lon="2.06059">
        <ele>156</ele>
        <time>2013-08-17T08:02:19Z</time>
      </trkpt>
      <trkpt lat="48.62405" lon="2.06061">
        <ele>156</ele>
        <time>2013-08-17T08:02:21Z</time>
      </trkpt>
      <trkpt lat="48.62402" lon="2.06064">
        <ele>156</ele>
        <time>2013-08-17T08:02:23Z</time>
      </trkpt>
      <trkpt lat="48.62399" lon="2.06066">
        <ele>156</ele>
        <time>2013-08-17T08:02:25Z</time>
      </trkpt>
      <trkpt lat="48.62396" lon="2.06068">
        <ele>156</ele>
        <time>2013-08-17T08:02:27Z</time>
      </trkpt>
      <trkpt lat="48.62394" lon="2.06071">
        <ele>156</ele>
        <time>2013-08-17T08:02:29Z</time>
      </trkpt>
      <trkpt lat="48.62391" lon="2.06073">
        <ele>156</ele>
        <time>2013-08-17T08:02:31Z</time>
      </trkpt>
      <trkpt lat="48.62388" lon="2.06075">
        <ele>156</ele>
        <time>2013-08-17T08:02:33Z</time>
      </trkpt>
      <trkpt lat="48.62385" lon="2.06078">
        <ele>156</ele>
        <time>2013-08-17T08:02:35Z</time>
      </trkpt>
      <trkpt lat="48.62382" lon="2.0608">
        <ele>156</ele>
        <time>2013-08-17T08:02:37Z</time>
      </trkpt>
      <trkpt lat="48.62379" lon="2.06082">
        <ele>156</ele>
        <time>2013-08-17T08:02:39Z</time>
      </trkpt>
      <trkpt lat="48.62376" lon="2.06084">
        <ele>156</ele>
        <time>2013-08-17T08:02:41Z</time>
      </trkpt>
      <trkpt lat="48.62373" lon="2.06086">
        <ele>156</ele>
        <time>2013-08-17T08:02:43Z</time>
      </trkpt>
      <trkpt lat="48.6237" lon="2.06088">
        <ele>156</ele>
        <time>2013-08-17T08:02:45Z</time>
      </trkpt>
      <trkpt lat="48.62367" lon="2.06091">
        <ele>156</ele>
        <time>2013-08-17T08:02:47Z</time>
      </trkpt>
      <trkpt lat="48.62364" lon="2.06093">
        <ele>156</ele>
        <time>2013-08-17T08:02:49Z</time>
      </trkpt>
      <trkpt lat="48.62361" lon="2.06096">
        <ele>156</ele>
        <time>2013-08-17T08:02:51Z</time>
      </trkpt>
      <trkpt lat="48.62358" lon="2.06098">
        <ele>156</ele>
        <time>2013-08-17T08:02:53Z</time>
      </trkpt>
      <trkpt lat="48.62355" lon="2.061">
        <ele>156</ele>
        <time>2013-08-17T08:02:55Z</time>
      </trkpt>
      <trkpt lat="48.62352" lon="2.06102">
        <ele>156</ele>
        <time>2013-08-17T08:02:57Z</time>
      </trkpt>
      <trkpt lat="48.62349" lon="2.06104">
        <ele>156</ele>
        <time>2013-08-17T08:02:59Z</time>
      </trkpt>
      <trkpt lat="48.62347" lon="2.06106">
        <ele>156</ele>
        <time>2013-08-17T08:03:01Z</time>
      </trkpt>
      <trkpt lat="48.62344" lon="2.06107">
        <ele>156</ele>
        <time>2013-08-17T08:03:03Z</time>
      </trkpt>
      <trkpt lat="48.62341" lon="2.06109">
        <ele>156</ele>
        <time>2013-08-17T08:03:05Z</time>
      </trkpt>
      <trkpt lat="48.62339" lon="2.06109">
        <ele>156</ele>
        <time>2013-08-17T08:03:07Z</time>
      </trkpt>
      <trkpt lat="48.62337" lon="2.06107">
        <ele>156</ele>
        <time>2013-08-17T08:03:09Z</time>
      </trkpt>
      <trkpt lat="48.62336" lon="2.06103">
        <ele>156</ele>
        <time>2013-08-17T08:03:11Z</time>
      </trkpt>
      <trkpt lat="48.62335" lon="2.06099">
        <ele>156</ele>
        <time>2013-08-17T08:03:13Z</time>
      </trkpt>
      <trkpt lat="48.62334" lon="2.06094">
        <ele>156</ele>
        <time>2013-08-17T08:03:15Z</time>
      </trkpt>
      <trkpt lat="48.62332" lon="2.06087">
        <ele>156</ele>
        <time>2013-08-17T08:03:18Z</time>
      </trkpt>
      <trkpt lat="48.62331" lon="2.06083">
        <ele>156</ele>
        <time>2013-08-17T08:03:20Z</time>
      </trkpt>
      <trkpt lat="48.62329" lon="2.06078">
        <ele>156</ele>
        <time>2013-08-17T08:03:22Z</time>
      </trkpt>
      <trkpt lat="48.62328" lon="2.06072">
        <ele>156</ele>
        <time>2013-08-17T08:03:24Z</time>
      </trkpt>
      <trkpt lat="48.62327" lon="2.06067">
        <ele>156</ele>
        <time>2013-08-17T08:03:26Z</time>
      </trkpt>
      <trkpt lat="48.62326" lon="2.06062">
        <ele>157</ele>
        <time>2013-08-17T08:03:28Z</time>
      </trkpt>
      <trkpt lat="48.62325" lon="2.06058">
        <ele>157</ele>
        <time>2013-08-17T08:03:30Z</time>
      </trkpt>
      <trkpt lat="48.62323" lon="2.06053">
        <ele>157</ele>
        <time>2013-08-17T08:03:32Z</time>
      </trkpt>
      <trkpt lat="48.62321" lon="2.06048">
        <ele>157</ele>
        <time>2013-08-17T08:03:34Z</time>
      </trkpt>
      <trkpt lat="48.6232" lon="2.06043">
        <ele>157</ele>
        <time>2013-08-17T08:03:36Z</time>
      </trkpt>
      <trkpt lat="48.62319" lon="2.06039">
        <ele>157</ele>
        <time>2013-08-17T08:03:38Z</time>
      </trkpt>
      <trkpt lat="48.62317" lon="2.06034">
        <ele>157</ele>
        <time>2013-08-17T08:03:40Z</time>
      </trkpt>
      <trkpt lat="48.62316" lon="2.06031">
        <ele>157</ele>
        <time>2013-08-17T08:03:42Z</time>
      </trkpt>
      <trkpt lat="48.62314" lon="2.06025">
        <ele>157</ele>
        <time>2013-08-17T08:03:45Z</time>
      </trkpt>
      <trkpt lat="48.62312" lon="2.0602">
        <ele>157</ele>
        <time>2013-08-17T08:03:47Z</time>
      </trkpt>
      <trkpt lat="48.6231" lon="2.06017">
        <ele>157</ele>
        <time>2013-08-17T08:03:49Z</time>
      </trkpt>
      <trkpt lat="48.62309" lon="2.06012">
        <ele>157</ele>
        <time>2013-08-17T08:03:51Z</time>
      </trkpt>
      <trkpt lat="48.62307" lon="2.06009">
        <ele>157</ele>
        <time>2013-08-17T08:03:53Z</time>
      </trkpt>
      <trkpt lat="48.62305" lon="2.06005">
        <ele>157</ele>
        <time>2013-08-17T08:03:55Z</time>
      </trkpt>
      <trkpt lat="48.62303" lon="2.06001">
        <ele>157</ele>
        <time>2013-08-17T08:03:57Z</time>
      </trkpt>
      <trkpt lat="48.62301" lon="2.05997">
        <ele>157</ele>
        <time>2013-08-17T08:03:59Z</time>
      </trkpt>
      <trkpt lat="48.623" lon="2.05993">
        <ele>157</ele>
        <time>2013-08-17T08:04:01Z</time>
      </trkpt>
      <trkpt lat="48.623" lon="2.05988">
        <ele>157</ele>
        <time>2013-08-17T08:04:03Z</time>
      </trkpt>
      <trkpt lat="48.62299" lon="2.05983">
        <ele>157</ele>
        <time>2013-08-17T08:04:05Z</time>
      </trkpt>
      <trkpt lat="48.62297" lon="2.05978">
        <ele>157</ele>
        <time>2013-08-17T08:04:07Z</time>
      </trkpt>
      <trkpt lat="48.62296" lon="2.05974">
        <ele>157</ele>
        <time>2013-08-17T08:04:09Z</time>
      </trkpt>
      <trkpt lat="48.62294" lon="2.05971">
        <ele>157</ele>
        <time>2013-08-17T08:04:11Z</time>
      </trkpt>
      <trkpt lat="48.62293" lon="2.05967">
        <ele>157</ele>
        <time>2013-08-17T08:04:13Z</time>
      </trkpt>
      <trkpt lat="48.62291" lon="2.05962">
        <ele>157</ele>
        <time>2013-08-17T08:04:15Z</time>
      </trkpt>
      <trkpt lat="48.6229" lon="2.05958">
        <ele>157</ele>
        <time>2013-08-17T08:04:17Z</time>
      </trkpt>
      <trkpt lat="48.62289" lon="2.05954">
        <ele>157</ele>
        <time>2013-08-17T08:04:19Z</time>
      </trkpt>
      <trkpt lat="48.62288" lon="2.05948">
        <ele>157</ele>
        <time>2013-08-17T08:04:21Z</time>
      </trkpt>
      <trkpt lat="48.62287" lon="2.05945">
        <ele>157</ele>
        <time>2013-08-17T08:04:23Z</time>
      </trkpt>
      <trkpt lat="48.62286" lon="2.05942">
        <ele>157</ele>
        <time>2013-08-17T08:04:25Z</time>
      </trkpt>
      <trkpt lat="48.62285" lon="2.05938">
        <ele>157</ele>
        <time>2013-08-17T08:04:27Z</time>
      </trkpt>
      <trkpt lat="48.62284" lon="2.05933">
        <ele>157</ele>
        <time>2013-08-17T08:04:29Z</time>
      </trkpt>
      <trkpt lat="48.62283" lon="2.05928">
        <ele>157</ele>
        <time>2013-08-17T08:04:31Z</time>
      </trkpt>
      <trkpt lat="48.62282" lon="2.05924">
        <ele>157</ele>
        <time>2013-08-17T08:04:33Z</time>
      </trkpt>
      <trkpt lat="48.62281" lon="2.05919">
        <ele>157</ele>
        <time>2013-08-17T08:04:35Z</time>
      </trkpt>
      <trkpt lat="48.62279" lon="2.05915">
        <ele>157</ele>
        <time>2013-08-17T08:04:37Z</time>
      </trkpt>
      <trkpt lat="48.62278" lon="2.05911">
        <ele>157</ele>
        <time>2013-08-17T08:04:39Z</time>
      </trkpt>
      <trkpt lat="48.62276" lon="2.05907">
        <ele>157</ele>
        <time>2013-08-17T08:04:41Z</time>
      </trkpt>
      <trkpt lat="48.62275" lon="2.05904">
        <ele>157</ele>
        <time>2013-08-17T08:04:43Z</time>
      </trkpt>
      <trkpt lat="48.62273" lon="2.059">
        <ele>157</ele>
        <time>2013-08-17T08:04:45Z</time>
      </trkpt>
      <trkpt lat="48.62272" lon="2.05896">
        <ele>157</ele>
        <time>2013-08-17T08:04:47Z</time>
      </trkpt>
      <trkpt lat="48.6227" lon="2.05892">
        <ele>157</ele>
        <time>2013-08-17T08:04:49Z</time>
      </trkpt>
      <trkpt lat="48.62269" lon="2.05888">
        <ele>157</ele>
        <time>2013-08-17T08:04:51Z</time>
      </trkpt>
      <trkpt lat="48.62267" lon="2.05882">
        <ele>157</ele>
        <time>2013-08-17T08:04:54Z</time>
      </trkpt>
      <trkpt lat="48.62265" lon="2.05878">
        <ele>157</ele>
        <time>2013-08-17T08:04:56Z</time>
      </trkpt>
      <trkpt lat="48.62263" lon="2.05874">
        <ele>157</ele>
        <time>2013-08-17T08:04:58Z</time>
      </trkpt>
      <trkpt lat="48.62261" lon="2.0587">
        <ele>157</ele>
        <time>2013-08-17T08:05:00Z</time>
      </trkpt>
      <trkpt lat="48.62259" lon="2.05866">
        <ele>157</ele>
        <time>2013-08-17T08:05:02Z</time>
      </trkpt>
      <trkpt lat="48.62257" lon="2.05862">
        <ele>157</ele>
        <time>2013-08-17T08:05:04Z</time>
      </trkpt>
      <trkpt lat="48.62256" lon="2.05858">
        <ele>157</ele>
        <time>2013-08-17T08:05:06Z</time>
      </trkpt>
      <trkpt lat="48.62254" lon="2.05853">
        <ele>157</ele>
        <time>2013-08-17T08:05:08Z</time>
      </trkpt>
      <trkpt lat="48.62253" lon="2.05849">
        <ele>157</ele>
        <time>2013-08-17T08:05:10Z</time>
      </trkpt>
      <trkpt lat="48.62252" lon="2.05845">
        <ele>157</ele>
        <time>2013-08-17T08:05:12Z</time>
      </trkpt>
      <trkpt lat="48.6225" lon="2.05841">
        <ele>157</ele>
        <time>2013-08-17T08:05:14Z</time>
      </trkpt>
      <trkpt lat="48.62249" lon="2.05837">
        <ele>157</ele>
        <time>2013-08-17T08:05:16Z</time>
      </trkpt>
      <trkpt lat="48.62247" lon="2.05833">
        <ele>157</ele>
        <time>2013-08-17T08:05:18Z</time>
      </trkpt>
      <trkpt lat="48.62246" lon="2.05829">
        <ele>157</ele>
        <time>2013-08-17T08:05:20Z</time>
      </trkpt>
      <trkpt lat="48.62244" lon="2.05826">
        <ele>157</ele>
        <time>2013-08-17T08:05:22Z</time>
      </trkpt>
      <trkpt lat="48.62241" lon="2.05824">
        <ele>157</ele>
        <time>2013-08-17T08:05:24Z</time>
      </trkpt>
      <trkpt lat="48.62238" lon="2.0582">
        <ele>157</ele>
        <time>2013-08-17T08:05:27Z</time>
      </trkpt>
      <trkpt lat="48.62236" lon="2.05816">
        <ele>157</ele>
        <time>2013-08-17T08:05:29Z</time>
      </trkpt>
      <trkpt lat="48.62234" lon="2.05812">
        <ele>157</ele>
        <time>2013-08-17T08:05:31Z</time>
      </trkpt>
      <trkpt lat="48.62232" lon="2.05808">
        <ele>157</ele>
        <time>2013-08-17T08:05:33Z</time>
      </trkpt>
      <trkpt lat="48.6223" lon="2.05804">
        <ele>157</ele>
        <time>2013-08-17T08:05:35Z</time>
      </trkpt>
      <trkpt lat="48.62228" lon="2.05801">
        <ele>157</ele>
        <time>2013-08-17T08:05:37Z</time>
      </trkpt>
      <trkpt lat="48.62227" lon="2.05797">
        <ele>157</ele>
        <time>2013-08-17T08:05:39Z</time>
      </trkpt>
      <trkpt lat="48.62225" lon="2.05793">
        <ele>157</ele>
        <time>2013-08-17T08:05:41Z</time>
      </trkpt>
      <trkpt lat="48.62223" lon="2.05788">
        <ele>157</ele>
        <time>2013-08-17T08:05:44Z</time>
      </trkpt>
      <trkpt lat="48.62222" lon="2.05785">
        <ele>157</ele>
        <time>2013-08-17T08:05:46Z</time>
      </trkpt>
      <trkpt lat="48.6222" lon="2.05781">
        <ele>157</ele>
        <time>2013-08-17T08:05:48Z</time>
      </trkpt>
      <trkpt lat="48.62218" lon="2.05775">
        <ele>157</ele>
        <time>2013-08-17T08:05:51Z</time>
      </trkpt>
      <trkpt lat="48.62217" lon="2.05772">
        <ele>157</ele>
        <time>2013-08-17T08:05:53Z</time>
      </trkpt>
      <trkpt lat="48.62216" lon="2.05767">
        <ele>157</ele>
        <time>2013-08-17T08:05:55Z</time>
      </trkpt>
      <trkpt lat="48.62215" lon="2.05764">
        <ele>157</ele>
        <time>2013-08-17T08:05:57Z</time>
      </trkpt>
      <trkpt lat="48.62214" lon="2.0576">
        <ele>157</ele>
        <time>2013-08-17T08:05:59Z</time>
      </trkpt>
      <trkpt lat="48.62213" lon="2.05755">
        <ele>157</ele>
        <time>2013-08-17T08:06:01Z</time>
      </trkpt>
      <trkpt lat="48.62213" lon="2.05751">
        <ele>157</ele>
        <time>2013-08-17T08:06:03Z</time>
      </trkpt>
      <trkpt lat="48.62212" lon="2.05746">
        <ele>157</ele>
        <time>2013-08-17T08:06:05Z</time>
      </trkpt>
      <trkpt lat="48.62212" lon="2.05742">
        <ele>157</ele>
        <time>2013-08-17T08:06:07Z</time>
      </trkpt>
      <trkpt lat="48.62212" lon="2.05738">
        <ele>157</ele>
        <time>2013-08-17T08:06:09Z</time>
      </trkpt>
      <trkpt lat="48.62212" lon="2.05732">
        <ele>157</ele>
        <time>2013-08-17T08:06:11Z</time>
      </trkpt>
      <trkpt lat="48.62212" lon="2.05728">
        <ele>157</ele>
        <time>2013-08-17T08:06:13Z</time>
      </trkpt>
      <trkpt lat="48.62212" lon="2.05723">
        <ele>157</ele>
        <time>2013-08-17T08:06:15Z</time>
      </trkpt>
      <trkpt lat="48.62212" lon="2.05719">
        <ele>158</ele>
        <time>2013-08-17T08:06:17Z</time>
      </trkpt>
      <trkpt lat="48.62213" lon="2.05715">
        <ele>158</ele>
        <time>2013-08-17T08:06:19Z</time>
      </trkpt>
      <trkpt lat="48.62214" lon="2.05711">
        <ele>158</ele>
        <time>2013-08-17T08:06:21Z</time>
      </trkpt>
      <trkpt lat="48.62215" lon="2.05707">
        <ele>158</ele>
        <time>2013-08-17T08:06:23Z</time>
      </trkpt>
      <trkpt lat="48.62215" lon="2.05702">
        <ele>158</ele>
        <time>2013-08-17T08:06:25Z</time>
      </trkpt>
      <trkpt lat="48.62216" lon="2.05698">
        <ele>158</ele>
        <time>2013-08-17T08:06:27Z</time>
      </trkpt>
      <trkpt lat="48.62217" lon="2.05694">
        <ele>158</ele>
        <time>2013-08-17T08:06:29Z</time>
      </trkpt>
      <trkpt lat="48.62217" lon="2.05689">
        <ele>158</ele>
        <time>2013-08-17T08:06:31Z</time>
      </trkpt>
      <trkpt lat="48.62218" lon="2.05684">
        <ele>158</ele>
        <time>2013-08-17T08:06:33Z</time>
      </trkpt>
      <trkpt lat="48.62218" lon="2.0568">
        <ele>158</ele>
        <time>2013-08-17T08:06:35Z</time>
      </trkpt>
      <trkpt lat="48.62218" lon="2.05676">
        <ele>158</ele>
        <time>2013-08-17T08:06:37Z</time>
      </trkpt>
      <trkpt lat="48.62218" lon="2.0567">
        <ele>158</ele>
        <time>2013-08-17T08:06:39Z</time>
      </trkpt>
      <trkpt lat="48.62219" lon="2.05666">
        <ele>159</ele>
        <time>2013-08-17T08:06:42Z</time>
      </trkpt>
      <trkpt lat="48.6222" lon="2.05663">
        <ele>159</ele>
        <time>2013-08-17T08:06:44Z</time>
      </trkpt>
      <trkpt lat="48.6222" lon="2.05658">
        <ele>159</ele>
        <time>2013-08-17T08:06:46Z</time>
      </trkpt>
      <trkpt lat="48.62221" lon="2.05652">
        <ele>159</ele>
        <time>2013-08-17T08:06:48Z</time>
      </trkpt>
      <trkpt lat="48.62222" lon="2.05648">
        <ele>159</ele>
        <time>2013-08-17T08:06:50Z</time>
      </trkpt>
      <trkpt lat="48.62222" lon="2.05643">
        <ele>159</ele>
        <time>2013-08-17T08:06:52Z</time>
      </trkpt>
      <trkpt lat="48.62224" lon="2.05637">
        <ele>159</ele>
        <time>2013-08-17T08:06:55Z</time>
      </trkpt>
      <trkpt lat="48.62224" lon="2.05632">
        <ele>159</ele>
        <time>2013-08-17T08:06:57Z</time>
      </trkpt>
      <trkpt lat="48.62225" lon="2.05628">
        <ele>160</ele>
        <time>2013-08-17T08:07:00Z</time>
      </trkpt>
      <trkpt lat="48.62225" lon="2.05622">
        <ele>161</ele>
        <time>2013-08-17T08:07:02Z</time>
      </trkpt>
      <trkpt lat="48.62225" lon="2.05617">
        <ele>161</ele>
        <time>2013-08-17T08:07:04Z</time>
      </trkpt>
      <trkpt lat="48.62226" lon="2.05612">
        <ele>162</ele>
        <time>2013-08-17T08:07:06Z</time>
      </trkpt>
      <trkpt lat="48.62227" lon="2.05607">
        <ele>162</ele>
        <time>2013-08-17T08:07:08Z</time>
      </trkpt>
      <trkpt lat="48.62228" lon="2.05603">
        <ele>162</ele>
        <time>2013-08-17T08:07:10Z</time>
      </trkpt>
      <trkpt lat="48.62227" lon="2.05596">
        <ele>162</ele>
        <time>2013-08-17T08:07:12Z</time>
      </trkpt>
      <trkpt lat="48.62227" lon="2.05591">
        <ele>162</ele>
        <time>2013-08-17T08:07:14Z</time>
      </trkpt>
      <trkpt lat="48.62225" lon="2.05585">
        <ele>164</ele>
        <time>2013-08-17T08:07:16Z</time>
      </trkpt>
      <trkpt lat="48.62225" lon="2.05579">
        <ele>166</ele>
        <time>2013-08-17T08:07:18Z</time>
      </trkpt>
      <trkpt lat="48.62225" lon="2.05574">
        <ele>168</ele>
        <time>2013-08-17T08:07:20Z</time>
      </trkpt>
      <trkpt lat="48.62225" lon="2.05569">
        <ele>169</ele>
        <time>2013-08-17T08:07:22Z</time>
      </trkpt>
      <trkpt lat="48.62226" lon="2.05565">
        <ele>169</ele>
        <time>2013-08-17T08:07:24Z</time>
      </trkpt>
      <trkpt lat="48.62228" lon="2.05561">
        <ele>169</ele>
        <time>2013-08-17T08:07:26Z</time>
      </trkpt>
      <trkpt lat="48.62229" lon="2.05552">
        <ele>169</ele>
        <time>2013-08-17T08:07:29Z</time>
      </trkpt>
      <trkpt lat="48.6223" lon="2.05547">
        <ele>169</ele>
        <time>2013-08-17T08:07:31Z</time>
      </trkpt>
      <trkpt lat="48.6223" lon="2.05543">
        <ele>169</ele>
        <time>2013-08-17T08:07:33Z</time>
      </trkpt>
      <trkpt lat="48.62231" lon="2.05539">
        <ele>169</ele>
        <time>2013-08-17T08:07:35Z</time>
      </trkpt>
      <trkpt lat="48.62232" lon="2.05535">
        <ele>169</ele>
        <time>2013-08-17T08:07:37Z</time>
      </trkpt>
      <trkpt lat="48.62234" lon="2.05531">
        <ele>169</ele>
        <time>2013-08-17T08:07:39Z</time>
      </trkpt>
      <trkpt lat="48.62235" lon="2.05526">
        <ele>168</ele>
        <time>2013-08-17T08:07:41Z</time>
      </trkpt>
      <trkpt lat="48.62236" lon="2.05522">
        <ele>168</ele>
        <time>2013-08-17T08:07:43Z</time>
      </trkpt>
      <trkpt lat="48.62236" lon="2.05518">
        <ele>168</ele>
        <time>2013-08-17T08:07:45Z</time>
      </trkpt>
      <trkpt lat="48.62237" lon="2.05514">
        <ele>168</ele>
        <time>2013-08-17T08:07:47Z</time>
      </trkpt>
      <trkpt lat="48.62238" lon="2.0551">
        <ele>167</ele>
        <time>2013-08-17T08:07:49Z</time>
      </trkpt>
      <trkpt lat="48.62238" lon="2.05506">
        <ele>167</ele>
        <time>2013-08-17T08:07:51Z</time>
      </trkpt>
      <trkpt lat="48.62239" lon="2.05502">
        <ele>166</ele>
        <time>2013-08-17T08:07:53Z</time>
      </trkpt>
      <trkpt lat="48.62239" lon="2.05498">
        <ele>166</ele>
        <time>2013-08-17T08:07:55Z</time>
      </trkpt>
      <trkpt lat="48.62239" lon="2.05493">
        <ele>166</ele>
        <time>2013-08-17T08:07:57Z</time>
      </trkpt>
      <trkpt lat="48.6224" lon="2.05489">
        <ele>165</ele>
        <time>2013-08-17T08:07:59Z</time>
      </trkpt>
      <trkpt lat="48.6224" lon="2.05484">
        <ele>165</ele>
        <time>2013-08-17T08:08:01Z</time>
      </trkpt>
      <trkpt lat="48.62241" lon="2.05479">
        <ele>164</ele>
        <time>2013-08-17T08:08:03Z</time>
      </trkpt>
      <trkpt lat="48.62243" lon="2.05474">
        <ele>164</ele>
        <time>2013-08-17T08:08:05Z</time>
      </trkpt>
      <trkpt lat="48.62243" lon="2.05469">
        <ele>164</ele>
        <time>2013-08-17T08:08:07Z</time>
      </trkpt>
      <trkpt lat="48.62244" lon="2.05463">
        <ele>163</ele>
        <time>2013-08-17T08:08:10Z</time>
      </trkpt>
      <trkpt lat="48.62245" lon="2.05458">
        <ele>162</ele>
        <time>2013-08-17T08:08:12Z</time>
      </trkpt>
      <trkpt lat="48.62246" lon="2.05454">
        <ele>160</ele>
        <time>2013-08-17T08:08:14Z</time>
      </trkpt>
      <trkpt lat="48.62246" lon="2.05447">
        <ele>160</ele>
        <time>2013-08-17T08:08:16Z</time>
      </trkpt>
      <trkpt lat="48.62245" lon="2.05441">
        <ele>160</ele>
        <time>2013-08-17T08:08:18Z</time>
      </trkpt>
      <trkpt lat="48.62245" lon="2.05438">
        <ele>160</ele>
        <time>2013-08-17T08:08:20Z</time>
      </trkpt>
      <trkpt lat="48.62245" lon="2.05434">
        <ele>160</ele>
        <time>2013-08-17T08:08:22Z</time>
      </trkpt>
      <trkpt lat="48.62245" lon="2.05429">
        <ele>160</ele>
        <time>2013-08-17T08:08:24Z</time>
      </trkpt>
      <trkpt lat="48.62244" lon="2.05422">
        <ele>160</ele>
        <time>2013-08-17T08:08:26Z</time>
      </trkpt>
      <trkpt lat="48.62245" lon="2.05418">
        <ele>160</ele>
        <time>2013-08-17T08:08:28Z</time>
      </trkpt>
      <trkpt lat="48.62245" lon="2.05414">
        <ele>160</ele>
        <time>2013-08-17T08:08:30Z</time>
      </trkpt>
      <trkpt lat="48.62245" lon="2.05409">
        <ele>160</ele>
        <time>2013-08-17T08:08:32Z</time>
      </trkpt>
      <trkpt lat="48.62244" lon="2.05405">
        <ele>160</ele>
        <time>2013-08-17T08:08:34Z</time>
      </trkpt>
      <trkpt lat="48.62245" lon="2.05401">
        <ele>161</ele>
        <time>2013-08-17T08:08:36Z</time>
      </trkpt>
      <trkpt lat="48.62246" lon="2.05397">
        <ele>161</ele>
        <time>2013-08-17T08:08:38Z</time>
      </trkpt>
      <trkpt lat="48.62247" lon="2.05394">
        <ele>161</ele>
        <time>2013-08-17T08:08:40Z</time>
      </trkpt>
      <trkpt lat="48.62248" lon="2.05389">
        <ele>161</ele>
        <time>2013-08-17T08:08:42Z</time>
      </trkpt>
      <trkpt lat="48.62249" lon="2.05384">
        <ele>161</ele>
        <time>2013-08-17T08:08:44Z</time>
      </trkpt>
      <trkpt lat="48.62249" lon="2.0538">
        <ele>161</ele>
        <time>2013-08-17T08:08:46Z</time>
      </trkpt>
      <trkpt lat="48.6225" lon="2.05376">
        <ele>161</ele>
        <time>2013-08-17T08:08:48Z</time>
      </trkpt>
      <trkpt lat="48.62251" lon="2.0537">
        <ele>161</ele>
        <time>2013-08-17T08:08:50Z</time>
      </trkpt>
      <trkpt lat="48.62252" lon="2.05365">
        <ele>161</ele>
        <time>2013-08-17T08:08:52Z</time>
      </trkpt>
      <trkpt lat="48.62253" lon="2.05361">
        <ele>161</ele>
        <time>2013-08-17T08:08:54Z</time>
      </trkpt>
      <trkpt lat="48.62254" lon="2.05358">
        <ele>161</ele>
        <time>2013-08-17T08:08:56Z</time>
      </trkpt>
      <trkpt lat="48.62255" lon="2.05353">
        <ele>161</ele>
        <time>2013-08-17T08:08:58Z</time>
      </trkpt>
      <trkpt lat="48.62255" lon="2.05349">
        <ele>161</ele>
        <time>2013-08-17T08:09:00Z</time>
      </trkpt>
      <trkpt lat="48.62256" lon="2.05345">
        <ele>161</ele>
        <time>2013-08-17T08:09:02Z</time>
      </trkpt>
      <trkpt lat="48.62255" lon="2.05341">
        <ele>160</ele>
        <time>2013-08-17T08:09:04Z</time>
      </trkpt>
      <trkpt lat="48.62255" lon="2.05337">
        <ele>160</ele>
        <time>2013-08-17T08:09:06Z</time>
      </trkpt>
      <trkpt lat="48.62256" lon="2.05332">
        <ele>160</ele>
        <time>2013-08-17T08:09:08Z</time>
      </trkpt>
      <trkpt lat="48.62256" lon="2.05327">
        <ele>160</ele>
        <time>2013-08-17T08:09:10Z</time>
      </trkpt>
      <trkpt lat="48.62256" lon="2.05323">
        <ele>159</ele>
        <time>2013-08-17T08:09:12Z</time>
      </trkpt>
      <trkpt lat="48.62257" lon="2.05318">
        <ele>159</ele>
        <time>2013-08-17T08:09:14Z</time>
      </trkpt>
      <trkpt lat="48.62258" lon="2.05312">
        <ele>159</ele>
        <time>2013-08-17T08:09:17Z</time>
      </trkpt>
      <trkpt lat="48.6226" lon="2.05307">
        <ele>159</ele>
        <time>2013-08-17T08:09:20Z</time>
      </trkpt>
      <trkpt lat="48.62261" lon="2.05302">
        <ele>158</ele>
        <time>2013-08-17T08:09:22Z</time>
      </trkpt>
      <trkpt lat="48.62262" lon="2.05298">
        <ele>158</ele>
        <time>2013-08-17T08:09:24Z</time>
      </trkpt>
      <trkpt lat="48.62263" lon="2.05293">
        <ele>158</ele>
        <time>2013-08-17T08:09:26Z</time>
      </trkpt>
      <trkpt lat="48.62264" lon="2.05288">
        <ele>158</ele>
        <time>2013-08-17T08:09:28Z</time>
      </trkpt>
      <trkpt lat="48.62264" lon="2.05283">
        <ele>158</ele>
        <time>2013-08-17T08:09:30Z</time>
      </trkpt>
      <trkpt lat="48.62265" lon="2.05279">
        <ele>158</ele>
        <time>2013-08-17T08:09:32Z</time>
      </trkpt>
      <trkpt lat="48.62266" lon="2.05275">
        <ele>158</ele>
        <time>2013-08-17T08:09:34Z</time>
      </trkpt>
      <trkpt lat="48.62265" lon="2.05266">
        <ele>158</ele>
        <time>2013-08-17T08:09:37Z</time>
      </trkpt>
      <trkpt lat="48.62267" lon="2.05261">
        <ele>158</ele>
        <time>2013-08-17T08:09:39Z</time>
      </trkpt>
      <trkpt lat="48.62267" lon="2.05257">
        <ele>158</ele>
        <time>2013-08-17T08:09:41Z</time>
      </trkpt>
      <trkpt lat="48.62268" lon="2.05252">
        <ele>158</ele>
        <time>2013-08-17T08:09:43Z</time>
      </trkpt>
      <trkpt lat="48.62268" lon="2.05248">
        <ele>158</ele>
        <time>2013-08-17T08:09:45Z</time>
      </trkpt>
      <trkpt lat="48.62269" lon="2.05245">
        <ele>158</ele>
        <time>2013-08-17T08:09:47Z</time>
      </trkpt>
      <trkpt lat="48.6227" lon="2.0524">
        <ele>158</ele>
        <time>2013-08-17T08:09:49Z</time>
      </trkpt>
      <trkpt lat="48.62271" lon="2.05236">
        <ele>158</ele>
        <time>2013-08-17T08:09:51Z</time>
      </trkpt>
      <trkpt lat="48.62272" lon="2.05229">
        <ele>158</ele>
        <time>2013-08-17T08:09:54Z</time>
      </trkpt>
      <trkpt lat="48.62273" lon="2.05225">
        <ele>158</ele>
        <time>2013-08-17T08:09:56Z</time>
      </trkpt>
      <trkpt lat="48.62273" lon="2.05221">
        <ele>158</ele>
        <time>2013-08-17T08:09:58Z</time>
      </trkpt>
      <trkpt lat="48.62274" lon="2.05217">
        <ele>158</ele>
        <time>2013-08-17T08:10:00Z</time>
      </trkpt>
      <trkpt lat="48.62275" lon="2.05212">
        <ele>158</ele>
        <time>2013-08-17T08:10:02Z</time>
      </trkpt>
      <trkpt lat="48.62276" lon="2.05206">
        <ele>158</ele>
        <time>2013-08-17T08:10:05Z</time>
      </trkpt>
      <trkpt lat="48.62278" lon="2.05202">
        <ele>158</ele>
        <time>2013-08-17T08:10:07Z</time>
      </trkpt>
      <trkpt lat="48.6228" lon="2.05199">
        <ele>158</ele>
        <time>2013-08-17T08:10:09Z</time>
      </trkpt>
      <trkpt lat="48.62281" lon="2.05194">
        <ele>157</ele>
        <time>2013-08-17T08:10:11Z</time>
      </trkpt>
      <trkpt lat="48.62282" lon="2.05192">
        <ele>156</ele>
        <time>2013-08-17T08:10:13Z</time>
      </trkpt>
      <trkpt lat="48.62283" lon="2.05189">
        <ele>155</ele>
        <time>2013-08-17T08:10:15Z</time>
      </trkpt>
      <trkpt lat="48.62283" lon="2.05186">
        <ele>154</ele>
        <time>2013-08-17T08:10:17Z</time>
      </trkpt>
      <trkpt lat="48.62284" lon="2.05182">
        <ele>154</ele>
        <time>2013-08-17T08:10:19Z</time>
      </trkpt>
      <trkpt lat="48.62283" lon="2.05177">
        <ele>154</ele>
        <time>2013-08-17T08:10:21Z</time>
      </trkpt>
      <trkpt lat="48.62283" lon="2.05172">
        <ele>154</ele>
        <time>2013-08-17T08:10:23Z</time>
      </trkpt>
      <trkpt lat="48.62283" lon="2.05167">
        <ele>154</ele>
        <time>2013-08-17T08:10:25Z</time>
      </trkpt>
      <trkpt lat="48.62282" lon="2.05162">
        <ele>154</ele>
        <time>2013-08-17T08:10:27Z</time>
      </trkpt>
      <trkpt lat="48.62282" lon="2.05157">
        <ele>153</ele>
        <time>2013-08-17T08:10:29Z</time>
      </trkpt>
      <trkpt lat="48.62283" lon="2.05153">
        <ele>153</ele>
        <time>2013-08-17T08:10:31Z</time>
      </trkpt>
      <trkpt lat="48.62284" lon="2.05146">
        <ele>151</ele>
        <time>2013-08-17T08:10:35Z</time>
      </trkpt>
      <trkpt lat="48.62283" lon="2.05141">
        <ele>151</ele>
        <time>2013-08-17T08:10:37Z</time>
      </trkpt>
      <trkpt lat="48.62283" lon="2.05137">
        <ele>151</ele>
        <time>2013-08-17T08:10:39Z</time>
      </trkpt>
      <trkpt lat="48.62283" lon="2.05133">
        <ele>151</ele>
        <time>2013-08-17T08:10:41Z</time>
      </trkpt>
      <trkpt lat="48.62284" lon="2.05129">
        <ele>150</ele>
        <time>2013-08-17T08:10:43Z</time>
      </trkpt>
      <trkpt lat="48.62285" lon="2.05126">
        <ele>149</ele>
        <time>2013-08-17T08:10:45Z</time>
      </trkpt>
      <trkpt lat="48.62286" lon="2.05121">
        <ele>148</ele>
        <time>2013-08-17T08:10:47Z</time>
      </trkpt>
      <trkpt lat="48.62286" lon="2.05117">
        <ele>148</ele>
        <time>2013-08-17T08:10:49Z</time>
      </trkpt>
      <trkpt lat="48.62286" lon="2.05112">
        <ele>148</ele>
        <time>2013-08-17T08:10:51Z</time>
      </trkpt>
      <trkpt lat="48.62285" lon="2.05105">
        <ele>147</ele>
        <time>2013-08-17T08:10:54Z</time>
      </trkpt>
      <trkpt lat="48.62285" lon="2.05097">
        <ele>147</ele>
        <time>2013-08-17T08:10:57Z</time>
      </trkpt>
      <trkpt lat="48.62285" lon="2.05093">
        <ele>147</ele>
        <time>2013-08-17T08:10:59Z</time>
      </trkpt>
      <trkpt lat="48.62285" lon="2.05086">
        <ele>146</ele>
        <time>2013-08-17T08:11:02Z</time>
      </trkpt>
      <trkpt lat="48.62285" lon="2.05082">
        <ele>145</ele>
        <time>2013-08-17T08:11:04Z</time>
      </trkpt>
      <trkpt lat="48.62285" lon="2.05077">
        <ele>145</ele>
        <time>2013-08-17T08:11:06Z</time>
      </trkpt>
      <trkpt lat="48.62285" lon="2.05073">
        <ele>145</ele>
        <time>2013-08-17T08:11:08Z</time>
      </trkpt>
      <trkpt lat="48.62285" lon="2.05069">
        <ele>144</ele>
        <time>2013-08-17T08:11:10Z</time>
      </trkpt>
      <trkpt lat="48.62285" lon="2.05065">
        <ele>144</ele>
        <time>2013-08-17T08:11:12Z</time>
      </trkpt>
      <trkpt lat="48.62284" lon="2.05061">
        <ele>143</ele>
        <time>2013-08-17T08:11:14Z</time>
      </trkpt>
      <trkpt lat="48.62285" lon="2.05056">
        <ele>142</ele>
        <time>2013-08-17T08:11:16Z</time>
      </trkpt>
      <trkpt lat="48.62288" lon="2.05051">
        <ele>141</ele>
        <time>2013-08-17T08:11:19Z</time>
      </trkpt>
      <trkpt lat="48.62291" lon="2.05047">
        <ele>141</ele>
        <time>2013-08-17T08:11:22Z</time>
      </trkpt>
      <trkpt lat="48.62296" lon="2.05042">
        <ele>140</ele>
        <time>2013-08-17T08:11:26Z</time>
      </trkpt>
      <trkpt lat="48.62299" lon="2.05039">
        <ele>140</ele>
        <time>2013-08-17T08:11:28Z</time>
      </trkpt>
      <trkpt lat="48.62301" lon="2.05036">
        <ele>140</ele>
        <time>2013-08-17T08:11:30Z</time>
      </trkpt>
      <trkpt lat="48.62304" lon="2.05033">
        <ele>140</ele>
        <time>2013-08-17T08:11:32Z</time>
      </trkpt>
      <trkpt lat="48.62309" lon="2.0503">
        <ele>140</ele>
        <time>2013-08-17T08:11:35Z</time>
      </trkpt>
      <trkpt lat="48.62311" lon="2.05027">
        <ele>140</ele>
        <time>2013-08-17T08:11:37Z</time>
      </trkpt>
      <trkpt lat="48.62315" lon="2.05023">
        <ele>140</ele>
        <time>2013-08-17T08:11:40Z</time>
      </trkpt>
      <trkpt lat="48.62318" lon="2.05021">
        <ele>140</ele>
        <time>2013-08-17T08:11:42Z</time>
      </trkpt>
      <trkpt lat="48.62321" lon="2.0502">
        <ele>140</ele>
        <time>2013-08-17T08:11:44Z</time>
      </trkpt>
      <trkpt lat="48.62326" lon="2.05018">
        <ele>140</ele>
        <time>2013-08-17T08:11:47Z</time>
      </trkpt>
      <trkpt lat="48.62329" lon="2.05017">
        <ele>140</ele>
        <time>2013-08-17T08:11:50Z</time>
      </trkpt>
      <trkpt lat="48.62332" lon="2.05016">
        <ele>139</ele>
        <time>2013-08-17T08:11:52Z</time>
      </trkpt>
      <trkpt lat="48.62336" lon="2.05014">
        <ele>138</ele>
        <time>2013-08-17T08:11:55Z</time>
      </trkpt>
      <trkpt lat="48.62339" lon="2.05013">
        <ele>138</ele>
        <time>2013-08-17T08:11:57Z</time>
      </trkpt>
      <trkpt lat="48.62343" lon="2.0501">
        <ele>138</ele>
        <time>2013-08-17T08:12:00Z</time>
      </trkpt>
      <trkpt lat="48.62347" lon="2.05007">
        <ele>137</ele>
        <time>2013-08-17T08:12:03Z</time>
      </trkpt>
      <trkpt lat="48.6235" lon="2.05005">
        <ele>137</ele>
        <time>2013-08-17T08:12:05Z</time>
      </trkpt>
      <trkpt lat="48.62354" lon="2.05002">
        <ele>137</ele>
        <time>2013-08-17T08:12:07Z</time>
      </trkpt>
      <trkpt lat="48.62358" lon="2.04999">
        <ele>137</ele>
        <time>2013-08-17T08:12:10Z</time>
      </trkpt>
      <trkpt lat="48.62361" lon="2.04996">
        <ele>137</ele>
        <time>2013-08-17T08:12:12Z</time>
      </trkpt>
      <trkpt lat="48.62365" lon="2.04991">
        <ele>137</ele>
        <time>2013-08-17T08:12:16Z</time>
      </trkpt>
      <trkpt lat="48.62366" lon="2.04991">
        <ele>137</ele>
        <time>2013-08-17T08:12:18Z</time>
      </trkpt>
      <trkpt lat="48.62369" lon="2.04989">
        <ele>137</ele>
        <time>2013-08-17T08:12:21Z</time>
      </trkpt>
      <trkpt lat="48.62372" lon="2.04987">
        <ele>136</ele>
        <time>2013-08-17T08:12:23Z</time>
      </trkpt>
      <trkpt lat="48.62376" lon="2.04984">
        <ele>135</ele>
        <time>2013-08-17T08:12:26Z</time>
      </trkpt>
      <trkpt lat="48.62378" lon="2.04983">
        <ele>135</ele>
        <time>2013-08-17T08:12:28Z</time>
      </trkpt>
      <trkpt lat="48.62383" lon="2.04982">
        <ele>135</ele>
        <time>2013-08-17T08:12:31Z</time>
      </trkpt>
      <trkpt lat="48.62385" lon="2.0498">
        <ele>135</ele>
        <time>2013-08-17T08:12:33Z</time>
      </trkpt>
      <trkpt lat="48.62389" lon="2.0498">
        <ele>135</ele>
        <time>2013-08-17T08:12:36Z</time>
      </trkpt>
      <trkpt lat="48.62392" lon="2.0498">
        <ele>135</ele>
        <time>2013-08-17T08:12:38Z</time>
      </trkpt>
      <trkpt lat="48.62397" lon="2.04981">
        <ele>135</ele>
        <time>2013-08-17T08:12:41Z</time>
      </trkpt>
      <trkpt lat="48.624" lon="2.04982">
        <ele>135</ele>
        <time>2013-08-17T08:12:43Z</time>
      </trkpt>
      <trkpt lat="48.62403" lon="2.04984">
        <ele>135</ele>
        <time>2013-08-17T08:12:46Z</time>
      </trkpt>
      <trkpt lat="48.62405" lon="2.04984">
        <ele>135</ele>
        <time>2013-08-17T08:12:48Z</time>
      </trkpt>
      <trkpt lat="48.62408" lon="2.04983">
        <ele>135</ele>
        <time>2013-08-17T08:12:50Z</time>
      </trkpt>
      <trkpt lat="48.62412" lon="2.04981">
        <ele>135</ele>
        <time>2013-08-17T08:12:53Z</time>
      </trkpt>
      <trkpt lat="48.62417" lon="2.04981">
        <ele>135</ele>
        <time>2013-08-17T08:12:56Z</time>
      </trkpt>
      <trkpt lat="48.6242" lon="2.04982">
        <ele>135</ele>
        <time>2013-08-17T08:12:58Z</time>
      </trkpt>
      <trkpt lat="48.62424" lon="2.04984">
        <ele>135</ele>
        <time>2013-08-17T08:13:01Z</time>
      </trkpt>
      <trkpt lat="48.62427" lon="2.04986">
        <ele>135</ele>
        <time>2013-08-17T08:13:03Z</time>
      </trkpt>
      <trkpt lat="48.62431" lon="2.04989">
        <ele>135</ele>
        <time>2013-08-17T08:13:06Z</time>
      </trkpt>
      <trkpt lat="48.62436" lon="2.0499">
        <ele>135</ele>
        <time>2013-08-17T08:13:08Z</time>
      </trkpt>
      <trkpt lat="48.62439" lon="2.04993">
        <ele>135</ele>
        <time>2013-08-17T08:13:11Z</time>
      </trkpt>
      <trkpt lat="48.62443" lon="2.04994">
        <ele>135</ele>
        <time>2013-08-17T08:13:13Z</time>
      </trkpt>
      <trkpt lat="48.62447" lon="2.04999">
        <ele>135</ele>
        <time>2013-08-17T08:13:16Z</time>
      </trkpt>
      <trkpt lat="48.6245" lon="2.05002">
        <ele>135</ele>
        <time>2013-08-17T08:13:19Z</time>
      </trkpt>
      <trkpt lat="48.62454" lon="2.05005">
        <ele>135</ele>
        <time>2013-08-17T08:13:22Z</time>
      </trkpt>
      <trkpt lat="48.62457" lon="2.05007">
        <ele>135</ele>
        <time>2013-08-17T08:13:24Z</time>
      </trkpt>
      <trkpt lat="48.62461" lon="2.0501">
        <ele>135</ele>
        <time>2013-08-17T08:13:27Z</time>
      </trkpt>
      <trkpt lat="48.62466" lon="2.05011">
        <ele>134</ele>
        <time>2013-08-17T08:13:30Z</time>
      </trkpt>
      <trkpt lat="48.62471" lon="2.05014">
        <ele>133</ele>
        <time>2013-08-17T08:13:33Z</time>
      </trkpt>
      <trkpt lat="48.62474" lon="2.05015">
        <ele>133</ele>
        <time>2013-08-17T08:13:35Z</time>
      </trkpt>
      <trkpt lat="48.62478" lon="2.05017">
        <ele>133</ele>
        <time>2013-08-17T08:13:38Z</time>
      </trkpt>
      <trkpt lat="48.62481" lon="2.05018">
        <ele>133</ele>
        <time>2013-08-17T08:13:40Z</time>
      </trkpt>
      <trkpt lat="48.62486" lon="2.0502">
        <ele>132</ele>
        <time>2013-08-17T08:13:43Z</time>
      </trkpt>
      <trkpt lat="48.62489" lon="2.05022">
        <ele>132</ele>
        <time>2013-08-17T08:13:45Z</time>
      </trkpt>
      <trkpt lat="48.62493" lon="2.05024">
        <ele>132</ele>
        <time>2013-08-17T08:13:48Z</time>
      </trkpt>
      <trkpt lat="48.62497" lon="2.05025">
        <ele>132</ele>
        <time>2013-08-17T08:13:50Z</time>
      </trkpt>
      <trkpt lat="48.62501" lon="2.05028">
        <ele>132</ele>
        <time>2013-08-17T08:13:53Z</time>
      </trkpt>
      <trkpt lat="48.62505" lon="2.0503">
        <ele>132</ele>
        <time>2013-08-17T08:13:55Z</time>
      </trkpt>
      <trkpt lat="48.62509" lon="2.05032">
        <ele>132</ele>
        <time>2013-08-17T08:13:58Z</time>
      </trkpt>
      <trkpt lat="48.62512" lon="2.05033">
        <ele>132</ele>
        <time>2013-08-17T08:14:00Z</time>
      </trkpt>
      <trkpt lat="48.62516" lon="2.05036">
        <ele>132</ele>
        <time>2013-08-17T08:14:03Z</time>
      </trkpt>
      <trkpt lat="48.62519" lon="2.05037">
        <ele>131</ele>
        <time>2013-08-17T08:14:05Z</time>
      </trkpt>
      <trkpt lat="48.62523" lon="2.05041">
        <ele>131</ele>
        <time>2013-08-17T08:14:08Z</time>
      </trkpt>
      <trkpt lat="48.62526" lon="2.05043">
        <ele>131</ele>
        <time>2013-08-17T08:14:10Z</time>
      </trkpt>
      <trkpt lat="48.6253" lon="2.05045">
        <ele>131</ele>
        <time>2013-08-17T08:14:13Z</time>
      </trkpt>
      <trkpt lat="48.62532" lon="2.05047">
        <ele>131</ele>
        <time>2013-08-17T08:14:15Z</time>
      </trkpt>
      <trkpt lat="48.62536" lon="2.0505">
        <ele>130</ele>
        <time>2013-08-17T08:14:18Z</time>
      </trkpt>
      <trkpt lat="48.62538" lon="2.05052">
        <ele>130</ele>
        <time>2013-08-17T08:14:20Z</time>
      </trkpt>
      <trkpt lat="48.62541" lon="2.05054">
        <ele>130</ele>
        <time>2013-08-17T08:14:22Z</time>
      </trkpt>
      <trkpt lat="48.62543" lon="2.05056">
        <ele>130</ele>
        <time>2013-08-17T08:14:24Z</time>
      </trkpt>
      <trkpt lat="48.62545" lon="2.05057">
        <ele>130</ele>
        <time>2013-08-17T08:14:26Z</time>
      </trkpt>
      <trkpt lat="48.62548" lon="2.05059">
        <ele>130</ele>
        <time>2013-08-17T08:14:29Z</time>
      </trkpt>
      <trkpt lat="48.62551" lon="2.0506">
        <ele>130</ele>
        <time>2013-08-17T08:14:32Z</time>
      </trkpt>
      <trkpt lat="48.62554" lon="2.05062">
        <ele>130</ele>
        <time>2013-08-17T08:14:35Z</time>
      </trkpt>
      <trkpt lat="48.62557" lon="2.05063">
        <ele>130</ele>
        <time>2013-08-17T08:14:38Z</time>
      </trkpt>
      <trkpt lat="48.62559" lon="2.05064">
        <ele>130</ele>
        <time>2013-08-17T08:14:40Z</time>
      </trkpt>
      <trkpt lat="48.62563" lon="2.05065">
        <ele>130</ele>
        <time>2013-08-17T08:14:42Z</time>
      </trkpt>
      <trkpt lat="48.62566" lon="2.05066">
        <ele>130</ele>
        <time>2013-08-17T08:14:44Z</time>
      </trkpt>
      <trkpt lat="48.62569" lon="2.05067">
        <ele>130</ele>
        <time>2013-08-17T08:14:46Z</time>
      </trkpt>
      <trkpt lat="48.62572" lon="2.05069">
        <ele>130</ele>
        <time>2013-08-17T08:14:48Z</time>
      </trkpt>
      <trkpt lat="48.62577" lon="2.0507">
        <ele>130</ele>
        <time>2013-08-17T08:14:51Z</time>
      </trkpt>
      <trkpt lat="48.6258" lon="2.05071">
        <ele>130</ele>
        <time>2013-08-17T08:14:53Z</time>
      </trkpt>
      <trkpt lat="48.62585" lon="2.05073">
        <ele>130</ele>
        <time>2013-08-17T08:14:56Z</time>
      </trkpt>
      <trkpt lat="48.62588" lon="2.05073">
        <ele>130</ele>
        <time>2013-08-17T08:14:58Z</time>
      </trkpt>
      <trkpt lat="48.62593" lon="2.05073">
        <ele>130</ele>
        <time>2013-08-17T08:15:01Z</time>
      </trkpt>
      <trkpt lat="48.62595" lon="2.05074">
        <ele>130</ele>
        <time>2013-08-17T08:15:03Z</time>
      </trkpt>
      <trkpt lat="48.626" lon="2.05074">
        <ele>130</ele>
        <time>2013-08-17T08:15:06Z</time>
      </trkpt>
      <trkpt lat="48.62603" lon="2.05074">
        <ele>130</ele>
        <time>2013-08-17T08:15:08Z</time>
      </trkpt>
      <trkpt lat="48.62607" lon="2.05074">
        <ele>130</ele>
        <time>2013-08-17T08:15:10Z</time>
      </trkpt>
      <trkpt lat="48.6261" lon="2.05074">
        <ele>130</ele>
        <time>2013-08-17T08:15:12Z</time>
      </trkpt>
      <trkpt lat="48.62613" lon="2.05075">
        <ele>130</ele>
        <time>2013-08-17T08:15:14Z</time>
      </trkpt>
      <trkpt lat="48.62616" lon="2.05076">
        <ele>130</ele>
        <time>2013-08-17T08:15:16Z</time>
      </trkpt>
      <trkpt lat="48.62619" lon="2.05076">
        <ele>130</ele>
        <time>2013-08-17T08:15:18Z</time>
      </trkpt>
      <trkpt lat="48.62623" lon="2.05077">
        <ele>130</ele>
        <time>2013-08-17T08:15:21Z</time>
      </trkpt>
      <trkpt lat="48.62625" lon="2.05078">
        <ele>130</ele>
        <time>2013-08-17T08:15:23Z</time>
      </trkpt>
      <trkpt lat="48.62628" lon="2.05076">
        <ele>130</ele>
        <time>2013-08-17T08:15:25Z</time>
      </trkpt>
      <trkpt lat="48.62632" lon="2.05075">
        <ele>130</ele>
        <time>2013-08-17T08:15:27Z</time>
      </trkpt>
      <trkpt lat="48.62636" lon="2.05075">
        <ele>130</ele>
        <time>2013-08-17T08:15:29Z</time>
      </trkpt>
      <trkpt lat="48.6264" lon="2.05075">
        <ele>130</ele>
        <time>2013-08-17T08:15:31Z</time>
      </trkpt>
      <trkpt lat="48.62643" lon="2.05075">
        <ele>130</ele>
        <time>2013-08-17T08:15:33Z</time>
      </trkpt>
      <trkpt lat="48.62645" lon="2.05075">
        <ele>130</ele>
        <time>2013-08-17T08:15:35Z</time>
      </trkpt>
      <trkpt lat="48.62648" lon="2.05076">
        <ele>130</ele>
        <time>2013-08-17T08:15:37Z</time>
      </trkpt>
      <trkpt lat="48.62651" lon="2.05077">
        <ele>130</ele>
        <time>2013-08-17T08:15:39Z</time>
      </trkpt>
      <trkpt lat="48.62654" lon="2.05078">
        <ele>130</ele>
        <time>2013-08-17T08:15:41Z</time>
      </trkpt>
      <trkpt lat="48.62656" lon="2.05079">
        <ele>130</ele>
        <time>2013-08-17T08:15:43Z</time>
      </trkpt>
      <trkpt lat="48.62661" lon="2.05081">
        <ele>130</ele>
        <time>2013-08-17T08:15:46Z</time>
      </trkpt>
      <trkpt lat="48.62664" lon="2.05083">
        <ele>130</ele>
        <time>2013-08-17T08:15:49Z</time>
      </trkpt>
      <trkpt lat="48.62668" lon="2.05084">
        <ele>130</ele>
        <time>2013-08-17T08:15:52Z</time>
      </trkpt>
      <trkpt lat="48.62672" lon="2.05085">
        <ele>130</ele>
        <time>2013-08-17T08:15:54Z</time>
      </trkpt>
      <trkpt lat="48.62676" lon="2.05086">
        <ele>130</ele>
        <time>2013-08-17T08:15:57Z</time>
      </trkpt>
      <trkpt lat="48.62679" lon="2.05088">
        <ele>130</ele>
        <time>2013-08-17T08:15:59Z</time>
      </trkpt>
      <trkpt lat="48.62682" lon="2.05089">
        <ele>130</ele>
        <time>2013-08-17T08:16:01Z</time>
      </trkpt>
      <trkpt lat="48.62684" lon="2.05091">
        <ele>130</ele>
        <time>2013-08-17T08:16:03Z</time>
      </trkpt>
      <trkpt lat="48.62687" lon="2.05092">
        <ele>130</ele>
        <time>2013-08-17T08:16:05Z</time>
      </trkpt>
      <trkpt lat="48.6269" lon="2.05095">
        <ele>130</ele>
        <time>2013-08-17T08:16:08Z</time>
      </trkpt>
      <trkpt lat="48.62694" lon="2.05095">
        <ele>130</ele>
        <time>2013-08-17T08:16:10Z</time>
      </trkpt>
      <trkpt lat="48.62698" lon="2.05097">
        <ele>130</ele>
        <time>2013-08-17T08:16:13Z</time>
      </trkpt>
      <trkpt lat="48.627" lon="2.05099">
        <ele>130</ele>
        <time>2013-08-17T08:16:15Z</time>
      </trkpt>
      <trkpt lat="48.62704" lon="2.05101">
        <ele>130</ele>
        <time>2013-08-17T08:16:18Z</time>
      </trkpt>
      <trkpt lat="48.62708" lon="2.05103">
        <ele>130</ele>
        <time>2013-08-17T08:16:20Z</time>
      </trkpt>
      <trkpt lat="48.62712" lon="2.05105">
        <ele>130</ele>
        <time>2013-08-17T08:16:23Z</time>
      </trkpt>
      <trkpt lat="48.62715" lon="2.05107">
        <ele>130</ele>
        <time>2013-08-17T08:16:25Z</time>
      </trkpt>
      <trkpt lat="48.62717" lon="2.05108">
        <ele>130</ele>
        <time>2013-08-17T08:16:27Z</time>
      </trkpt>
      <trkpt lat="48.6272" lon="2.05108">
        <ele>130</ele>
        <time>2013-08-17T08:16:29Z</time>
      </trkpt>
      <trkpt lat="48.62723" lon="2.05109">
        <ele>130</ele>
        <time>2013-08-17T08:16:31Z</time>
      </trkpt>
      <trkpt lat="48.62726" lon="2.05109">
        <ele>130</ele>
        <time>2013-08-17T08:16:34Z</time>
      </trkpt>
      <trkpt lat="48.6273" lon="2.05109">
        <ele>130</ele>
        <time>2013-08-17T08:16:36Z</time>
      </trkpt>
      <trkpt lat="48.62732" lon="2.05109">
        <ele>130</ele>
        <time>2013-08-17T08:16:38Z</time>
      </trkpt>
      <trkpt lat="48.62733" lon="2.05109">
        <ele>130</ele>
        <time>2013-08-17T08:16:40Z</time>
      </trkpt>
      <trkpt lat="48.62738" lon="2.05109">
        <ele>131</ele>
        <time>2013-08-17T08:16:44Z</time>
      </trkpt>
      <trkpt lat="48.6274" lon="2.0511">
        <ele>131</ele>
        <time>2013-08-17T08:16:46Z</time>
      </trkpt>
      <trkpt lat="48.62743" lon="2.0511">
        <ele>132</ele>
        <time>2013-08-17T08:16:48Z</time>
      </trkpt>
      <trkpt lat="48.62745" lon="2.0511">
        <ele>132</ele>
        <time>2013-08-17T08:16:50Z</time>
      </trkpt>
      <trkpt lat="48.62749" lon="2.05112">
        <ele>133</ele>
        <time>2013-08-17T08:16:53Z</time>
      </trkpt>
      <trkpt lat="48.62751" lon="2.05112">
        <ele>133</ele>
        <time>2013-08-17T08:16:56Z</time>
      </trkpt>
      <trkpt lat="48.62755" lon="2.05112">
        <ele>133</ele>
        <time>2013-08-17T08:16:59Z</time>
      </trkpt>
      <trkpt lat="48.62757" lon="2.05112">
        <ele>133</ele>
        <time>2013-08-17T08:17:01Z</time>
      </trkpt>
      <trkpt lat="48.62761" lon="2.05111">
        <ele>133</ele>
        <time>2013-08-17T08:17:04Z</time>
      </trkpt>
      <trkpt lat="48.62763" lon="2.0511">
        <ele>133</ele>
        <time>2013-08-17T08:17:06Z</time>
      </trkpt>
      <trkpt lat="48.62767" lon="2.05107">
        <ele>133</ele>
        <time>2013-08-17T08:17:09Z</time>
      </trkpt>
      <trkpt lat="48.62768" lon="2.05104">
        <ele>133</ele>
        <time>2013-08-17T08:17:11Z</time>
      </trkpt>
      <trkpt lat="48.6277" lon="2.05101">
        <ele>133</ele>
        <time>2013-08-17T08:17:13Z</time>
      </trkpt>
      <trkpt lat="48.62772" lon="2.05099">
        <ele>133</ele>
        <time>2013-08-17T08:17:15Z</time>
      </trkpt>
      <trkpt lat="48.62775" lon="2.05097">
        <ele>133</ele>
        <time>2013-08-17T08:17:17Z</time>
      </trkpt>
      <trkpt lat="48.62778" lon="2.05095">
        <ele>133</ele>
        <time>2013-08-17T08:17:19Z</time>
      </trkpt>
      <trkpt lat="48.62781" lon="2.05092">
        <ele>133</ele>
        <time>2013-08-17T08:17:22Z</time>
      </trkpt>
      <trkpt lat="48.62785" lon="2.05088">
        <ele>133</ele>
        <time>2013-08-17T08:17:25Z</time>
      </trkpt>
      <trkpt lat="48.62786" lon="2.05086">
        <ele>133</ele>
        <time>2013-08-17T08:17:27Z</time>
      </trkpt>
      <trkpt lat="48.62789" lon="2.0508">
        <ele>133</ele>
        <time>2013-08-17T08:17:30Z</time>
      </trkpt>
      <trkpt lat="48.62791" lon="2.05076">
        <ele>133</ele>
        <time>2013-08-17T08:17:32Z</time>
      </trkpt>
      <trkpt lat="48.62793" lon="2.05071">
        <ele>133</ele>
        <time>2013-08-17T08:17:35Z</time>
      </trkpt>
      <trkpt lat="48.62794" lon="2.05067">
        <ele>133</ele>
        <time>2013-08-17T08:17:37Z</time>
      </trkpt>
      <trkpt lat="48.62796" lon="2.05062">
        <ele>133</ele>
        <time>2013-08-17T08:17:40Z</time>
      </trkpt>
      <trkpt lat="48.62797" lon="2.05058">
        <ele>133</ele>
        <time>2013-08-17T08:17:42Z</time>
      </trkpt>
      <trkpt lat="48.62799" lon="2.05053">
        <ele>133</ele>
        <time>2013-08-17T08:17:45Z</time>
      </trkpt>
      <trkpt lat="48.628" lon="2.05049">
        <ele>133</ele>
        <time>2013-08-17T08:17:47Z</time>
      </trkpt>
      <trkpt lat="48.62801" lon="2.05043">
        <ele>133</ele>
        <time>2013-08-17T08:17:50Z</time>
      </trkpt>
      <trkpt lat="48.62802" lon="2.05039">
        <ele>133</ele>
        <time>2013-08-17T08:17:52Z</time>
      </trkpt>
      <trkpt lat="48.62804" lon="2.05034">
        <ele>133</ele>
        <time>2013-08-17T08:17:55Z</time>
      </trkpt>
      <trkpt lat="48.62805" lon="2.0503">
        <ele>133</ele>
        <time>2013-08-17T08:17:57Z</time>
      </trkpt>
      <trkpt lat="48.62806" lon="2.05024">
        <ele>133</ele>
        <time>2013-08-17T08:18:00Z</time>
      </trkpt>
      <trkpt lat="48.62807" lon="2.0502">
        <ele>133</ele>
        <time>2013-08-17T08:18:02Z</time>
      </trkpt>
      <trkpt lat="48.62807" lon="2.05013">
        <ele>133</ele>
        <time>2013-08-17T08:18:05Z</time>
      </trkpt>
      <trkpt lat="48.62807" lon="2.05008">
        <ele>133</ele>
        <time>2013-08-17T08:18:07Z</time>
      </trkpt>
      <trkpt lat="48.62809" lon="2.05002">
        <ele>132</ele>
        <time>2013-08-17T08:18:10Z</time>
      </trkpt>
      <trkpt lat="48.6281" lon="2.04995">
        <ele>132</ele>
        <time>2013-08-17T08:18:13Z</time>
      </trkpt>
      <trkpt lat="48.62812" lon="2.0499">
        <ele>132</ele>
        <time>2013-08-17T08:18:16Z</time>
      </trkpt>
      <trkpt lat="48.62813" lon="2.04985">
        <ele>131</ele>
        <time>2013-08-17T08:18:18Z</time>
      </trkpt>
      <trkpt lat="48.62814" lon="2.04979">
        <ele>131</ele>
        <time>2013-08-17T08:18:21Z</time>
      </trkpt>
      <trkpt lat="48.62816" lon="2.04976">
        <ele>131</ele>
        <time>2013-08-17T08:18:23Z</time>
      </trkpt>
      <trkpt lat="48.62817" lon="2.04971">
        <ele>131</ele>
        <time>2013-08-17T08:18:26Z</time>
      </trkpt>
      <trkpt lat="48.62819" lon="2.04966">
        <ele>130</ele>
        <time>2013-08-17T08:18:28Z</time>
      </trkpt>
      <trkpt lat="48.6282" lon="2.0496">
        <ele>130</ele>
        <time>2013-08-17T08:18:31Z</time>
      </trkpt>
      <trkpt lat="48.62822" lon="2.04957">
        <ele>130</ele>
        <time>2013-08-17T08:18:34Z</time>
      </trkpt>
      <trkpt lat="48.62822" lon="2.04959">
        <ele>130</ele>
        <time>2013-08-17T08:18:37Z</time>
      </trkpt>
      <trkpt lat="48.62821" lon="2.04961">
        <ele>130</ele>
        <time>2013-08-17T08:18:39Z</time>
      </trkpt>
      <trkpt lat="48.6282" lon="2.04963">
        <ele>130</ele>
        <time>2013-08-17T08:18:42Z</time>
      </trkpt>
      <trkpt lat="48.62821" lon="2.04965">
        <ele>130</ele>
        <time>2013-08-17T08:18:44Z</time>
      </trkpt>
      <trkpt lat="48.62823" lon="2.04968">
        <ele>130</ele>
        <time>2013-08-17T08:18:46Z</time>
      </trkpt>
      <trkpt lat="48.62822" lon="2.04969">
        <ele>130</ele>
        <time>2013-08-17T08:18:54Z</time>
      </trkpt>
      <trkpt lat="48.62824" lon="2.04968">
        <ele>130</ele>
        <time>2013-08-17T08:19:06Z</time>
      </trkpt>
      <trkpt lat="48.62823" lon="2.04966">
        <ele>130</ele>
        <time>2013-08-17T08:19:08Z</time>
      </trkpt>
      <trkpt lat="48.62822" lon="2.04967">
        <ele>130</ele>
        <time>2013-08-17T08:19:18Z</time>
      </trkpt>
      <trkpt lat="48.62821" lon="2.04967">
        <ele>130</ele>
        <time>2013-08-17T08:20:01Z</time>
      </trkpt>
      <trkpt lat="48.6282" lon="2.04965">
        <ele>130</ele>
        <time>2013-08-17T08:20:06Z</time>
      </trkpt>
      <trkpt lat="48.6282" lon="2.04962">
        <ele>130</ele>
        <time>2013-08-17T08:20:08Z</time>
      </trkpt>
      <trkpt lat="48.62821" lon="2.04959">
        <ele>130</ele>
        <time>2013-08-17T08:20:10Z</time>
      </trkpt>
      <trkpt lat="48.62822" lon="2.04956">
        <ele>130</ele>
        <time>2013-08-17T08:20:12Z</time>
      </trkpt>
      <trkpt lat="48.62823" lon="2.04954">
        <ele>130</ele>
        <time>2013-08-17T08:20:29Z</time>
      </trkpt>
      <trkpt lat="48.62825" lon="2.04949">
        <ele>130</ele>
        <time>2013-08-17T08:20:32Z</time>
      </trkpt>
      <trkpt lat="48.62827" lon="2.04945">
        <ele>130</ele>
        <time>2013-08-17T08:20:34Z</time>
      </trkpt>
      <trkpt lat="48.62828" lon="2.04941">
        <ele>130</ele>
        <time>2013-08-17T08:20:36Z</time>
      </trkpt>
      <trkpt lat="48.62829" lon="2.04937">
        <ele>130</ele>
        <time>2013-08-17T08:20:38Z</time>
      </trkpt>
      <trkpt lat="48.62831" lon="2.04934">
        <ele>130</ele>
        <time>2013-08-17T08:20:40Z</time>
      </trkpt>
      <trkpt lat="48.62832" lon="2.04929">
        <ele>130</ele>
        <time>2013-08-17T08:20:42Z</time>
      </trkpt>
      <trkpt lat="48.62834" lon="2.04923">
        <ele>130</ele>
        <time>2013-08-17T08:20:45Z</time>
      </trkpt>
      <trkpt lat="48.62836" lon="2.0492">
        <ele>130</ele>
        <time>2013-08-17T08:20:47Z</time>
      </trkpt>
      <trkpt lat="48.62838" lon="2.04915">
        <ele>130</ele>
        <time>2013-08-17T08:20:50Z</time>
      </trkpt>
      <trkpt lat="48.6284" lon="2.04911">
        <ele>130</ele>
        <time>2013-08-17T08:20:52Z</time>
      </trkpt>
      <trkpt lat="48.62841" lon="2.04909">
        <ele>130</ele>
        <time>2013-08-17T08:20:54Z</time>
      </trkpt>
      <trkpt lat="48.62843" lon="2.04905">
        <ele>130</ele>
        <time>2013-08-17T08:20:56Z</time>
      </trkpt>
      <trkpt lat="48.62845" lon="2.04902">
        <ele>130</ele>
        <time>2013-08-17T08:20:58Z</time>
      </trkpt>
      <trkpt lat="48.62846" lon="2.04898">
        <ele>130</ele>
        <time>2013-08-17T08:21:00Z</time>
      </trkpt>
      <trkpt lat="48.62848" lon="2.04894">
        <ele>130</ele>
        <time>2013-08-17T08:21:02Z</time>
      </trkpt>
      <trkpt lat="48.6285" lon="2.04891">
        <ele>130</ele>
        <time>2013-08-17T08:21:04Z</time>
      </trkpt>
      <trkpt lat="48.62852" lon="2.04886">
        <ele>129</ele>
        <time>2013-08-17T08:21:07Z</time>
      </trkpt>
      <trkpt lat="48.62854" lon="2.04883">
        <ele>129</ele>
        <time>2013-08-17T08:21:09Z</time>
      </trkpt>
      <trkpt lat="48.62857" lon="2.0488">
        <ele>129</ele>
        <time>2013-08-17T08:21:11Z</time>
      </trkpt>
      <trkpt lat="48.62859" lon="2.04878">
        <ele>129</ele>
        <time>2013-08-17T08:21:13Z</time>
      </trkpt>
      <trkpt lat="48.62863" lon="2.04874">
        <ele>129</ele>
        <time>2013-08-17T08:21:16Z</time>
      </trkpt>
      <trkpt lat="48.62865" lon="2.04872">
        <ele>129</ele>
        <time>2013-08-17T08:21:18Z</time>
      </trkpt>
      <trkpt lat="48.62868" lon="2.0487">
        <ele>129</ele>
        <time>2013-08-17T08:21:20Z</time>
      </trkpt>
      <trkpt lat="48.62871" lon="2.04869">
        <ele>128</ele>
        <time>2013-08-17T08:21:22Z</time>
      </trkpt>
      <trkpt lat="48.62873" lon="2.04867">
        <ele>128</ele>
        <time>2013-08-17T08:21:24Z</time>
      </trkpt>
      <trkpt lat="48.62876" lon="2.04865">
        <ele>128</ele>
        <time>2013-08-17T08:21:26Z</time>
      </trkpt>
      <trkpt lat="48.62879" lon="2.04864">
        <ele>128</ele>
        <time>2013-08-17T08:21:28Z</time>
      </trkpt>
      <trkpt lat="48.62882" lon="2.04863">
        <ele>127</ele>
        <time>2013-08-17T08:21:30Z</time>
      </trkpt>
      <trkpt lat="48.62885" lon="2.04861">
        <ele>127</ele>
        <time>2013-08-17T08:21:32Z</time>
      </trkpt>
      <trkpt lat="48.62887" lon="2.0486">
        <ele>127</ele>
        <time>2013-08-17T08:21:34Z</time>
      </trkpt>
      <trkpt lat="48.6289" lon="2.04858">
        <ele>127</ele>
        <time>2013-08-17T08:21:36Z</time>
      </trkpt>
      <trkpt lat="48.62893" lon="2.04857">
        <ele>127</ele>
        <time>2013-08-17T08:21:38Z</time>
      </trkpt>
      <trkpt lat="48.62896" lon="2.04856">
        <ele>126</ele>
        <time>2013-08-17T08:21:40Z</time>
      </trkpt>
      <trkpt lat="48.62899" lon="2.04855">
        <ele>126</ele>
        <time>2013-08-17T08:21:42Z</time>
      </trkpt>
      <trkpt lat="48.62902" lon="2.04855">
        <ele>126</ele>
        <time>2013-08-17T08:21:44Z</time>
      </trkpt>
      <trkpt lat="48.62905" lon="2.04854">
        <ele>126</ele>
        <time>2013-08-17T08:21:46Z</time>
      </trkpt>
      <trkpt lat="48.62908" lon="2.04854">
        <ele>125</ele>
        <time>2013-08-17T08:21:48Z</time>
      </trkpt>
      <trkpt lat="48.62912" lon="2.04853">
        <ele>125</ele>
        <time>2013-08-17T08:21:51Z</time>
      </trkpt>
      <trkpt lat="48.62915" lon="2.04851">
        <ele>125</ele>
        <time>2013-08-17T08:21:53Z</time>
      </trkpt>
      <trkpt lat="48.62918" lon="2.0485">
        <ele>124</ele>
        <time>2013-08-17T08:21:55Z</time>
      </trkpt>
      <trkpt lat="48.6292" lon="2.0485">
        <ele>124</ele>
        <time>2013-08-17T08:21:57Z</time>
      </trkpt>
      <trkpt lat="48.62923" lon="2.0485">
        <ele>124</ele>
        <time>2013-08-17T08:21:59Z</time>
      </trkpt>
      <trkpt lat="48.62926" lon="2.0485">
        <ele>124</ele>
        <time>2013-08-17T08:22:01Z</time>
      </trkpt>
      <trkpt lat="48.62929" lon="2.04848">
        <ele>124</ele>
        <time>2013-08-17T08:22:03Z</time>
      </trkpt>
      <trkpt lat="48.62932" lon="2.04847">
        <ele>124</ele>
        <time>2013-08-17T08:22:05Z</time>
      </trkpt>
      <trkpt lat="48.62935" lon="2.04846">
        <ele>124</ele>
        <time>2013-08-17T08:22:07Z</time>
      </trkpt>
      <trkpt lat="48.62938" lon="2.04845">
        <ele>124</ele>
        <time>2013-08-17T08:22:09Z</time>
      </trkpt>
      <trkpt lat="48.62941" lon="2.04845">
        <ele>124</ele>
        <time>2013-08-17T08:22:11Z</time>
      </trkpt>
      <trkpt lat="48.62944" lon="2.04845">
        <ele>124</ele>
        <time>2013-08-17T08:22:13Z</time>
      </trkpt>
      <trkpt lat="48.62946" lon="2.04844">
        <ele>124</ele>
        <time>2013-08-17T08:22:15Z</time>
      </trkpt>
      <trkpt lat="48.62949" lon="2.04842">
        <ele>124</ele>
        <time>2013-08-17T08:22:17Z</time>
      </trkpt>
      <trkpt lat="48.62952" lon="2.0484">
        <ele>124</ele>
        <time>2013-08-17T08:22:19Z</time>
      </trkpt>
      <trkpt lat="48.62954" lon="2.04837">
        <ele>124</ele>
        <time>2013-08-17T08:22:21Z</time>
      </trkpt>
      <trkpt lat="48.62956" lon="2.04835">
        <ele>124</ele>
        <time>2013-08-17T08:22:23Z</time>
      </trkpt>
      <trkpt lat="48.62957" lon="2.04831">
        <ele>123</ele>
        <time>2013-08-17T08:22:25Z</time>
      </trkpt>
      <trkpt lat="48.62959" lon="2.04827">
        <ele>123</ele>
        <time>2013-08-17T08:22:27Z</time>
      </trkpt>
      <trkpt lat="48.6296" lon="2.04823">
        <ele>123</ele>
        <time>2013-08-17T08:22:29Z</time>
      </trkpt>
      <trkpt lat="48.62961" lon="2.04818">
        <ele>123</ele>
        <time>2013-08-17T08:22:31Z</time>
      </trkpt>
      <trkpt lat="48.62961" lon="2.04814">
        <ele>123</ele>
        <time>2013-08-17T08:22:33Z</time>
      </trkpt>
      <trkpt lat="48.62961" lon="2.04809">
        <ele>123</ele>
        <time>2013-08-17T08:22:35Z</time>
      </trkpt>
      <trkpt lat="48.62961" lon="2.04805">
        <ele>123</ele>
        <time>2013-08-17T08:22:37Z</time>
      </trkpt>
      <trkpt lat="48.62961" lon="2.048">
        <ele>123</ele>
        <time>2013-08-17T08:22:39Z</time>
      </trkpt>
      <trkpt lat="48.6296" lon="2.04795">
        <ele>123</ele>
        <time>2013-08-17T08:22:41Z</time>
      </trkpt>
      <trkpt lat="48.62959" lon="2.04789">
        <ele>123</ele>
        <time>2013-08-17T08:22:43Z</time>
      </trkpt>
      <trkpt lat="48.62959" lon="2.04784">
        <ele>123</ele>
        <time>2013-08-17T08:22:45Z</time>
      </trkpt>
      <trkpt lat="48.62959" lon="2.04779">
        <ele>123</ele>
        <time>2013-08-17T08:22:47Z</time>
      </trkpt>
      <trkpt lat="48.62959" lon="2.04774">
        <ele>123</ele>
        <time>2013-08-17T08:22:49Z</time>
      </trkpt>
      <trkpt lat="48.62958" lon="2.0477">
        <ele>123</ele>
        <time>2013-08-17T08:22:51Z</time>
      </trkpt>
      <trkpt lat="48.62957" lon="2.04765">
        <ele>123</ele>
        <time>2013-08-17T08:22:53Z</time>
      </trkpt>
      <trkpt lat="48.62958" lon="2.0476">
        <ele>123</ele>
        <time>2013-08-17T08:22:55Z</time>
      </trkpt>
      <trkpt lat="48.62958" lon="2.04755">
        <ele>123</ele>
        <time>2013-08-17T08:22:57Z</time>
      </trkpt>
      <trkpt lat="48.62959" lon="2.04751">
        <ele>123</ele>
        <time>2013-08-17T08:22:59Z</time>
      </trkpt>
      <trkpt lat="48.62959" lon="2.04746">
        <ele>123</ele>
        <time>2013-08-17T08:23:01Z</time>
      </trkpt>
      <trkpt lat="48.62958" lon="2.04739">
        <ele>123</ele>
        <time>2013-08-17T08:23:04Z</time>
      </trkpt>
      <trkpt lat="48.62958" lon="2.04734">
        <ele>123</ele>
        <time>2013-08-17T08:23:06Z</time>
      </trkpt>
      <trkpt lat="48.62958" lon="2.0473">
        <ele>123</ele>
        <time>2013-08-17T08:23:08Z</time>
      </trkpt>
      <trkpt lat="48.62958" lon="2.04726">
        <ele>123</ele>
        <time>2013-08-17T08:23:10Z</time>
      </trkpt>
      <trkpt lat="48.62958" lon="2.04722">
        <ele>123</ele>
        <time>2013-08-17T08:23:13Z</time>
      </trkpt>
      <trkpt lat="48.62959" lon="2.0472">
        <ele>123</ele>
        <time>2013-08-17T08:23:17Z</time>
      </trkpt>
      <trkpt lat="48.6296" lon="2.04716">
        <ele>123</ele>
        <time>2013-08-17T08:23:19Z</time>
      </trkpt>
      <trkpt lat="48.6296" lon="2.04713">
        <ele>123</ele>
        <time>2013-08-17T08:23:21Z</time>
      </trkpt>
      <trkpt lat="48.6296" lon="2.04709">
        <ele>123</ele>
        <time>2013-08-17T08:23:23Z</time>
      </trkpt>
      <trkpt lat="48.62959" lon="2.04705">
        <ele>123</ele>
        <time>2013-08-17T08:23:25Z</time>
      </trkpt>
      <trkpt lat="48.62957" lon="2.04701">
        <ele>123</ele>
        <time>2013-08-17T08:23:27Z</time>
      </trkpt>
      <trkpt lat="48.62953" lon="2.04696">
        <ele>123</ele>
        <time>2013-08-17T08:23:30Z</time>
      </trkpt>
      <trkpt lat="48.62951" lon="2.04693">
        <ele>123</ele>
        <time>2013-08-17T08:23:32Z</time>
      </trkpt>
      <trkpt lat="48.62949" lon="2.04689">
        <ele>123</ele>
        <time>2013-08-17T08:23:34Z</time>
      </trkpt>
      <trkpt lat="48.62947" lon="2.04686">
        <ele>123</ele>
        <time>2013-08-17T08:23:36Z</time>
      </trkpt>
      <trkpt lat="48.62945" lon="2.04681">
        <ele>123</ele>
        <time>2013-08-17T08:23:38Z</time>
      </trkpt>
      <trkpt lat="48.62943" lon="2.04678">
        <ele>123</ele>
        <time>2013-08-17T08:23:40Z</time>
      </trkpt>
      <trkpt lat="48.6294" lon="2.04675">
        <ele>123</ele>
        <time>2013-08-17T08:23:42Z</time>
      </trkpt>
      <trkpt lat="48.62938" lon="2.04673">
        <ele>123</ele>
        <time>2013-08-17T08:23:44Z</time>
      </trkpt>
      <trkpt lat="48.62935" lon="2.0467">
        <ele>123</ele>
        <time>2013-08-17T08:23:46Z</time>
      </trkpt>
      <trkpt lat="48.62932" lon="2.04666">
        <ele>123</ele>
        <time>2013-08-17T08:23:49Z</time>
      </trkpt>
      <trkpt lat="48.62929" lon="2.04663">
        <ele>123</ele>
        <time>2013-08-17T08:23:51Z</time>
      </trkpt>
      <trkpt lat="48.62927" lon="2.0466">
        <ele>123</ele>
        <time>2013-08-17T08:23:53Z</time>
      </trkpt>
      <trkpt lat="48.62925" lon="2.04657">
        <ele>123</ele>
        <time>2013-08-17T08:23:55Z</time>
      </trkpt>
      <trkpt lat="48.62922" lon="2.04654">
        <ele>123</ele>
        <time>2013-08-17T08:23:57Z</time>
      </trkpt>
      <trkpt lat="48.6292" lon="2.04651">
        <ele>123</ele>
        <time>2013-08-17T08:23:59Z</time>
      </trkpt>
      <trkpt lat="48.62917" lon="2.04648">
        <ele>123</ele>
        <time>2013-08-17T08:24:01Z</time>
      </trkpt>
      <trkpt lat="48.62914" lon="2.04644">
        <ele>123</ele>
        <time>2013-08-17T08:24:04Z</time>
      </trkpt>
      <trkpt lat="48.62912" lon="2.04641">
        <ele>123</ele>
        <time>2013-08-17T08:24:06Z</time>
      </trkpt>
      <trkpt lat="48.62911" lon="2.04637">
        <ele>123</ele>
        <time>2013-08-17T08:24:08Z</time>
      </trkpt>
      <trkpt lat="48.6291" lon="2.04632">
        <ele>123</ele>
        <time>2013-08-17T08:24:10Z</time>
      </trkpt>
      <trkpt lat="48.62911" lon="2.04627">
        <ele>123</ele>
        <time>2013-08-17T08:24:12Z</time>
      </trkpt>
      <trkpt lat="48.62913" lon="2.04623">
        <ele>123</ele>
        <time>2013-08-17T08:24:14Z</time>
      </trkpt>
      <trkpt lat="48.62914" lon="2.04619">
        <ele>123</ele>
        <time>2013-08-17T08:24:16Z</time>
      </trkpt>
      <trkpt lat="48.62915" lon="2.04614">
        <ele>123</ele>
        <time>2013-08-17T08:24:18Z</time>
      </trkpt>
      <trkpt lat="48.62917" lon="2.04609">
        <ele>123</ele>
        <time>2013-08-17T08:24:20Z</time>
      </trkpt>
      <trkpt lat="48.62918" lon="2.04605">
        <ele>123</ele>
        <time>2013-08-17T08:24:22Z</time>
      </trkpt>
      <trkpt lat="48.6292" lon="2.046">
        <ele>123</ele>
        <time>2013-08-17T08:24:24Z</time>
      </trkpt>
      <trkpt lat="48.62921" lon="2.04595">
        <ele>123</ele>
        <time>2013-08-17T08:24:26Z</time>
      </trkpt>
      <trkpt lat="48.62923" lon="2.04591">
        <ele>123</ele>
        <time>2013-08-17T08:24:28Z</time>
      </trkpt>
      <trkpt lat="48.62924" lon="2.04586">
        <ele>123</ele>
        <time>2013-08-17T08:24:30Z</time>
      </trkpt>
      <trkpt lat="48.62925" lon="2.04582">
        <ele>123</ele>
        <time>2013-08-17T08:24:32Z</time>
      </trkpt>
      <trkpt lat="48.62927" lon="2.04577">
        <ele>123</ele>
        <time>2013-08-17T08:24:34Z</time>
      </trkpt>
      <trkpt lat="48.62928" lon="2.04573">
        <ele>123</ele>
        <time>2013-08-17T08:24:36Z</time>
      </trkpt>
      <trkpt lat="48.6293" lon="2.04568">
        <ele>123</ele>
        <time>2013-08-17T08:24:38Z</time>
      </trkpt>
      <trkpt lat="48.62932" lon="2.04564">
        <ele>123</ele>
        <time>2013-08-17T08:24:40Z</time>
      </trkpt>
      <trkpt lat="48.62933" lon="2.04559">
        <ele>123</ele>
        <time>2013-08-17T08:24:42Z</time>
      </trkpt>
      <trkpt lat="48.62935" lon="2.04556">
        <ele>123</ele>
        <time>2013-08-17T08:24:44Z</time>
      </trkpt>
      <trkpt lat="48.62936" lon="2.04552">
        <ele>123</ele>
        <time>2013-08-17T08:24:46Z</time>
      </trkpt>
      <trkpt lat="48.62938" lon="2.04548">
        <ele>123</ele>
        <time>2013-08-17T08:24:48Z</time>
      </trkpt>
      <trkpt lat="48.62939" lon="2.04544">
        <ele>124</ele>
        <time>2013-08-17T08:24:50Z</time>
      </trkpt>
      <trkpt lat="48.62941" lon="2.04539">
        <ele>124</ele>
        <time>2013-08-17T08:24:52Z</time>
      </trkpt>
      <trkpt lat="48.62943" lon="2.04535">
        <ele>124</ele>
        <time>2013-08-17T08:24:54Z</time>
      </trkpt>
      <trkpt lat="48.62945" lon="2.0453">
        <ele>125</ele>
        <time>2013-08-17T08:24:56Z</time>
      </trkpt>
      <trkpt lat="48.62946" lon="2.04526">
        <ele>125</ele>
        <time>2013-08-17T08:24:58Z</time>
      </trkpt>
      <trkpt lat="48.62948" lon="2.04521">
        <ele>126</ele>
        <time>2013-08-17T08:25:00Z</time>
      </trkpt>
      <trkpt lat="48.62949" lon="2.04517">
        <ele>126</ele>
        <time>2013-08-17T08:25:02Z</time>
      </trkpt>
      <trkpt lat="48.62951" lon="2.04513">
        <ele>126</ele>
        <time>2013-08-17T08:25:04Z</time>
      </trkpt>
      <trkpt lat="48.62952" lon="2.04508">
        <ele>127</ele>
        <time>2013-08-17T08:25:06Z</time>
      </trkpt>
      <trkpt lat="48.62953" lon="2.04504">
        <ele>127</ele>
        <time>2013-08-17T08:25:08Z</time>
      </trkpt>
      <trkpt lat="48.62954" lon="2.04501">
        <ele>128</ele>
        <time>2013-08-17T08:25:10Z</time>
      </trkpt>
      <trkpt lat="48.62956" lon="2.04497">
        <ele>128</ele>
        <time>2013-08-17T08:25:12Z</time>
      </trkpt>
      <trkpt lat="48.62958" lon="2.04493">
        <ele>128</ele>
        <time>2013-08-17T08:25:14Z</time>
      </trkpt>
      <trkpt lat="48.6296" lon="2.04488">
        <ele>129</ele>
        <time>2013-08-17T08:25:16Z</time>
      </trkpt>
      <trkpt lat="48.62962" lon="2.04484">
        <ele>129</ele>
        <time>2013-08-17T08:25:18Z</time>
      </trkpt>
      <trkpt lat="48.62964" lon="2.0448">
        <ele>129</ele>
        <time>2013-08-17T08:25:20Z</time>
      </trkpt>
      <trkpt lat="48.62966" lon="2.04475">
        <ele>130</ele>
        <time>2013-08-17T08:25:22Z</time>
      </trkpt>
      <trkpt lat="48.62967" lon="2.04471">
        <ele>130</ele>
        <time>2013-08-17T08:25:24Z</time>
      </trkpt>
      <trkpt lat="48.62969" lon="2.04467">
        <ele>131</ele>
        <time>2013-08-17T08:25:26Z</time>
      </trkpt>
      <trkpt lat="48.6297" lon="2.04463">
        <ele>131</ele>
        <time>2013-08-17T08:25:28Z</time>
      </trkpt>
      <trkpt lat="48.62971" lon="2.04459">
        <ele>131</ele>
        <time>2013-08-17T08:25:30Z</time>
      </trkpt>
      <trkpt lat="48.62973" lon="2.04455">
        <ele>132</ele>
        <time>2013-08-17T08:25:32Z</time>
      </trkpt>
      <trkpt lat="48.62975" lon="2.04451">
        <ele>132</ele>
        <time>2013-08-17T08:25:34Z</time>
      </trkpt>
      <trkpt lat="48.62976" lon="2.04447">
        <ele>132</ele>
        <time>2013-08-17T08:25:36Z</time>
      </trkpt>
      <trkpt lat="48.62978" lon="2.04444">
        <ele>132</ele>
        <time>2013-08-17T08:25:38Z</time>
      </trkpt>
      <trkpt lat="48.6298" lon="2.0444">
        <ele>132</ele>
        <time>2013-08-17T08:25:40Z</time>
      </trkpt>
      <trkpt lat="48.62981" lon="2.04436">
        <ele>132</ele>
        <time>2013-08-17T08:25:42Z</time>
      </trkpt>
      <trkpt lat="48.62983" lon="2.04432">
        <ele>132</ele>
        <time>2013-08-17T08:25:44Z</time>
      </trkpt>
      <trkpt lat="48.62984" lon="2.04428">
        <ele>133</ele>
        <time>2013-08-17T08:25:46Z</time>
      </trkpt>
      <trkpt lat="48.62986" lon="2.04423">
        <ele>134</ele>
        <time>2013-08-17T08:25:48Z</time>
      </trkpt>
      <trkpt lat="48.62988" lon="2.0442">
        <ele>134</ele>
        <time>2013-08-17T08:25:50Z</time>
      </trkpt>
      <trkpt lat="48.6299" lon="2.04415">
        <ele>134</ele>
        <time>2013-08-17T08:25:52Z</time>
      </trkpt>
      <trkpt lat="48.62991" lon="2.04412">
        <ele>135</ele>
        <time>2013-08-17T08:25:54Z</time>
      </trkpt>
      <trkpt lat="48.62993" lon="2.04408">
        <ele>135</ele>
        <time>2013-08-17T08:25:56Z</time>
      </trkpt>
      <trkpt lat="48.62994" lon="2.04403">
        <ele>135</ele>
        <time>2013-08-17T08:25:58Z</time>
      </trkpt>
      <trkpt lat="48.62996" lon="2.04399">
        <ele>136</ele>
        <time>2013-08-17T08:26:00Z</time>
      </trkpt>
      <trkpt lat="48.62998" lon="2.04396">
        <ele>136</ele>
        <time>2013-08-17T08:26:02Z</time>
      </trkpt>
      <trkpt lat="48.62999" lon="2.04393">
        <ele>137</ele>
        <time>2013-08-17T08:26:04Z</time>
      </trkpt>
      <trkpt lat="48.63001" lon="2.04389">
        <ele>137</ele>
        <time>2013-08-17T08:26:06Z</time>
      </trkpt>
      <trkpt lat="48.63002" lon="2.04385">
        <ele>137</ele>
        <time>2013-08-17T08:26:08Z</time>
      </trkpt>
      <trkpt lat="48.63003" lon="2.04381">
        <ele>138</ele>
        <time>2013-08-17T08:26:10Z</time>
      </trkpt>
      <trkpt lat="48.63006" lon="2.04376">
        <ele>138</ele>
        <time>2013-08-17T08:26:13Z</time>
      </trkpt>
      <trkpt lat="48.63007" lon="2.04372">
        <ele>138</ele>
        <time>2013-08-17T08:26:15Z</time>
      </trkpt>
      <trkpt lat="48.63009" lon="2.04368">
        <ele>138</ele>
        <time>2013-08-17T08:26:17Z</time>
      </trkpt>
      <trkpt lat="48.6301" lon="2.04365">
        <ele>138</ele>
        <time>2013-08-17T08:26:19Z</time>
      </trkpt>
      <trkpt lat="48.63011" lon="2.04361">
        <ele>138</ele>
        <time>2013-08-17T08:26:21Z</time>
      </trkpt>
      <trkpt lat="48.63013" lon="2.04358">
        <ele>138</ele>
        <time>2013-08-17T08:26:23Z</time>
      </trkpt>
      <trkpt lat="48.63014" lon="2.04354">
        <ele>138</ele>
        <time>2013-08-17T08:26:25Z</time>
      </trkpt>
      <trkpt lat="48.63015" lon="2.04351">
        <ele>138</ele>
        <time>2013-08-17T08:26:27Z</time>
      </trkpt>
      <trkpt lat="48.63018" lon="2.04348">
        <ele>138</ele>
        <time>2013-08-17T08:26:30Z</time>
      </trkpt>
      <trkpt lat="48.6302" lon="2.04344">
        <ele>138</ele>
        <time>2013-08-17T08:26:32Z</time>
      </trkpt>
      <trkpt lat="48.63022" lon="2.04341">
        <ele>138</ele>
        <time>2013-08-17T08:26:34Z</time>
      </trkpt>
      <trkpt lat="48.63023" lon="2.04336">
        <ele>138</ele>
        <time>2013-08-17T08:26:36Z</time>
      </trkpt>
      <trkpt lat="48.63024" lon="2.04331">
        <ele>138</ele>
        <time>2013-08-17T08:26:38Z</time>
      </trkpt>
      <trkpt lat="48.63026" lon="2.04327">
        <ele>138</ele>
        <time>2013-08-17T08:26:41Z</time>
      </trkpt>
      <trkpt lat="48.63028" lon="2.04324">
        <ele>138</ele>
        <time>2013-08-17T08:26:43Z</time>
      </trkpt>
      <trkpt lat="48.63029" lon="2.04321">
        <ele>138</ele>
        <time>2013-08-17T08:26:45Z</time>
      </trkpt>
      <trkpt lat="48.63031" lon="2.04317">
        <ele>138</ele>
        <time>2013-08-17T08:26:47Z</time>
      </trkpt>
      <trkpt lat="48.63033" lon="2.04314">
        <ele>138</ele>
        <time>2013-08-17T08:26:49Z</time>
      </trkpt>
      <trkpt lat="48.63034" lon="2.04311">
        <ele>138</ele>
        <time>2013-08-17T08:26:51Z</time>
      </trkpt>
      <trkpt lat="48.63036" lon="2.04308">
        <ele>138</ele>
        <time>2013-08-17T08:26:53Z</time>
      </trkpt>
      <trkpt lat="48.63037" lon="2.04304">
        <ele>138</ele>
        <time>2013-08-17T08:26:55Z</time>
      </trkpt>
      <trkpt lat="48.63039" lon="2.04301">
        <ele>138</ele>
        <time>2013-08-17T08:26:57Z</time>
      </trkpt>
      <trkpt lat="48.63041" lon="2.04292">
        <ele>138</ele>
        <time>2013-08-17T08:27:00Z</time>
      </trkpt>
      <trkpt lat="48.63042" lon="2.04288">
        <ele>138</ele>
        <time>2013-08-17T08:27:02Z</time>
      </trkpt>
      <trkpt lat="48.63045" lon="2.04282">
        <ele>138</ele>
        <time>2013-08-17T08:27:05Z</time>
      </trkpt>
      <trkpt lat="48.63046" lon="2.04278">
        <ele>139</ele>
        <time>2013-08-17T08:27:07Z</time>
      </trkpt>
      <trkpt lat="48.63047" lon="2.04274">
        <ele>140</ele>
        <time>2013-08-17T08:27:09Z</time>
      </trkpt>
      <trkpt lat="48.63049" lon="2.04271">
        <ele>141</ele>
        <time>2013-08-17T08:27:11Z</time>
      </trkpt>
      <trkpt lat="48.63051" lon="2.04267">
        <ele>141</ele>
        <time>2013-08-17T08:27:13Z</time>
      </trkpt>
      <trkpt lat="48.63053" lon="2.04263">
        <ele>142</ele>
        <time>2013-08-17T08:27:15Z</time>
      </trkpt>
      <trkpt lat="48.63054" lon="2.0426">
        <ele>142</ele>
        <time>2013-08-17T08:27:17Z</time>
      </trkpt>
      <trkpt lat="48.63057" lon="2.04254">
        <ele>142</ele>
        <time>2013-08-17T08:27:20Z</time>
      </trkpt>
      <trkpt lat="48.63058" lon="2.04251">
        <ele>142</ele>
        <time>2013-08-17T08:27:22Z</time>
      </trkpt>
      <trkpt lat="48.6306" lon="2.04247">
        <ele>142</ele>
        <time>2013-08-17T08:27:24Z</time>
      </trkpt>
      <trkpt lat="48.63062" lon="2.04244">
        <ele>143</ele>
        <time>2013-08-17T08:27:26Z</time>
      </trkpt>
      <trkpt lat="48.63064" lon="2.04241">
        <ele>143</ele>
        <time>2013-08-17T08:27:28Z</time>
      </trkpt>
      <trkpt lat="48.63066" lon="2.04235">
        <ele>144</ele>
        <time>2013-08-17T08:27:31Z</time>
      </trkpt>
      <trkpt lat="48.63068" lon="2.04232">
        <ele>145</ele>
        <time>2013-08-17T08:27:33Z</time>
      </trkpt>
      <trkpt lat="48.63069" lon="2.04229">
        <ele>145</ele>
        <time>2013-08-17T08:27:35Z</time>
      </trkpt>
      <trkpt lat="48.63071" lon="2.04225">
        <ele>146</ele>
        <time>2013-08-17T08:27:37Z</time>
      </trkpt>
      <trkpt lat="48.63073" lon="2.04223">
        <ele>146</ele>
        <time>2013-08-17T08:27:39Z</time>
      </trkpt>
      <trkpt lat="48.63075" lon="2.04219">
        <ele>146</ele>
        <time>2013-08-17T08:27:41Z</time>
      </trkpt>
      <trkpt lat="48.63077" lon="2.04215">
        <ele>146</ele>
        <time>2013-08-17T08:27:44Z</time>
      </trkpt>
      <trkpt lat="48.6308" lon="2.04209">
        <ele>146</ele>
        <time>2013-08-17T08:27:47Z</time>
      </trkpt>
      <trkpt lat="48.63082" lon="2.04206">
        <ele>146</ele>
        <time>2013-08-17T08:27:49Z</time>
      </trkpt>
      <trkpt lat="48.63084" lon="2.04203">
        <ele>146</ele>
        <time>2013-08-17T08:27:51Z</time>
      </trkpt>
      <trkpt lat="48.63086" lon="2.042">
        <ele>146</ele>
        <time>2013-08-17T08:27:53Z</time>
      </trkpt>
      <trkpt lat="48.63089" lon="2.04197">
        <ele>146</ele>
        <time>2013-08-17T08:27:55Z</time>
      </trkpt>
      <trkpt lat="48.63091" lon="2.04194">
        <ele>146</ele>
        <time>2013-08-17T08:27:57Z</time>
      </trkpt>
      <trkpt lat="48.63093" lon="2.04189">
        <ele>146</ele>
        <time>2013-08-17T08:28:00Z</time>
      </trkpt>
      <trkpt lat="48.63095" lon="2.04187">
        <ele>146</ele>
        <time>2013-08-17T08:28:02Z</time>
      </trkpt>
      <trkpt lat="48.63098" lon="2.04184">
        <ele>146</ele>
        <time>2013-08-17T08:28:04Z</time>
      </trkpt>
      <trkpt lat="48.63102" lon="2.0418">
        <ele>146</ele>
        <time>2013-08-17T08:28:07Z</time>
      </trkpt>
      <trkpt lat="48.63104" lon="2.04177">
        <ele>146</ele>
        <time>2013-08-17T08:28:09Z</time>
      </trkpt>
      <trkpt lat="48.63107" lon="2.04177">
        <ele>146</ele>
        <time>2013-08-17T08:28:11Z</time>
      </trkpt>
      <trkpt lat="48.63109" lon="2.04176">
        <ele>146</ele>
        <time>2013-08-17T08:28:13Z</time>
      </trkpt>
      <trkpt lat="48.63111" lon="2.04175">
        <ele>146</ele>
        <time>2013-08-17T08:28:15Z</time>
      </trkpt>
      <trkpt lat="48.63116" lon="2.04174">
        <ele>146</ele>
        <time>2013-08-17T08:28:18Z</time>
      </trkpt>
      <trkpt lat="48.6312" lon="2.04173">
        <ele>146</ele>
        <time>2013-08-17T08:28:21Z</time>
      </trkpt>
      <trkpt lat="48.63123" lon="2.04173">
        <ele>146</ele>
        <time>2013-08-17T08:28:23Z</time>
      </trkpt>
      <trkpt lat="48.63126" lon="2.04174">
        <ele>146</ele>
        <time>2013-08-17T08:28:25Z</time>
      </trkpt>
      <trkpt lat="48.63129" lon="2.04174">
        <ele>146</ele>
        <time>2013-08-17T08:28:27Z</time>
      </trkpt>
      <trkpt lat="48.63132" lon="2.04175">
        <ele>146</ele>
        <time>2013-08-17T08:28:29Z</time>
      </trkpt>
      <trkpt lat="48.63135" lon="2.04175">
        <ele>146</ele>
        <time>2013-08-17T08:28:31Z</time>
      </trkpt>
      <trkpt lat="48.63139" lon="2.04175">
        <ele>146</ele>
        <time>2013-08-17T08:28:33Z</time>
      </trkpt>
      <trkpt lat="48.63142" lon="2.04174">
        <ele>146</ele>
        <time>2013-08-17T08:28:35Z</time>
      </trkpt>
      <trkpt lat="48.63145" lon="2.04174">
        <ele>146</ele>
        <time>2013-08-17T08:28:37Z</time>
      </trkpt>
      <trkpt lat="48.63149" lon="2.04173">
        <ele>146</ele>
        <time>2013-08-17T08:28:40Z</time>
      </trkpt>
      <trkpt lat="48.63152" lon="2.04172">
        <ele>146</ele>
        <time>2013-08-17T08:28:42Z</time>
      </trkpt>
      <trkpt lat="48.63155" lon="2.0417">
        <ele>146</ele>
        <time>2013-08-17T08:28:44Z</time>
      </trkpt>
      <trkpt lat="48.63158" lon="2.04168">
        <ele>146</ele>
        <time>2013-08-17T08:28:46Z</time>
      </trkpt>
      <trkpt lat="48.63161" lon="2.04166">
        <ele>146</ele>
        <time>2013-08-17T08:28:48Z</time>
      </trkpt>
      <trkpt lat="48.63164" lon="2.04163">
        <ele>146</ele>
        <time>2013-08-17T08:28:50Z</time>
      </trkpt>
      <trkpt lat="48.63166" lon="2.0416">
        <ele>146</ele>
        <time>2013-08-17T08:28:52Z</time>
      </trkpt>
      <trkpt lat="48.63168" lon="2.04157">
        <ele>146</ele>
        <time>2013-08-17T08:28:54Z</time>
      </trkpt>
      <trkpt lat="48.6317" lon="2.04153">
        <ele>146</ele>
        <time>2013-08-17T08:28:56Z</time>
      </trkpt>
      <trkpt lat="48.63172" lon="2.0415">
        <ele>146</ele>
        <time>2013-08-17T08:28:58Z</time>
      </trkpt>
      <trkpt lat="48.63174" lon="2.04147">
        <ele>146</ele>
        <time>2013-08-17T08:29:00Z</time>
      </trkpt>
      <trkpt lat="48.63176" lon="2.04141">
        <ele>146</ele>
        <time>2013-08-17T08:29:03Z</time>
      </trkpt>
      <trkpt lat="48.63178" lon="2.04137">
        <ele>146</ele>
        <time>2013-08-17T08:29:05Z</time>
      </trkpt>
      <trkpt lat="48.63179" lon="2.04133">
        <ele>146</ele>
        <time>2013-08-17T08:29:07Z</time>
      </trkpt>
      <trkpt lat="48.63179" lon="2.04129">
        <ele>146</ele>
        <time>2013-08-17T08:29:09Z</time>
      </trkpt>
      <trkpt lat="48.63181" lon="2.04124">
        <ele>146</ele>
        <time>2013-08-17T08:29:11Z</time>
      </trkpt>
      <trkpt lat="48.63181" lon="2.0412">
        <ele>146</ele>
        <time>2013-08-17T08:29:13Z</time>
      </trkpt>
      <trkpt lat="48.63181" lon="2.04115">
        <ele>146</ele>
        <time>2013-08-17T08:29:15Z</time>
      </trkpt>
      <trkpt lat="48.63181" lon="2.0411">
        <ele>146</ele>
        <time>2013-08-17T08:29:17Z</time>
      </trkpt>
      <trkpt lat="48.63182" lon="2.04106">
        <ele>146</ele>
        <time>2013-08-17T08:29:19Z</time>
      </trkpt>
      <trkpt lat="48.63182" lon="2.04101">
        <ele>146</ele>
        <time>2013-08-17T08:29:21Z</time>
      </trkpt>
      <trkpt lat="48.63181" lon="2.04097">
        <ele>146</ele>
        <time>2013-08-17T08:29:23Z</time>
      </trkpt>
      <trkpt lat="48.63181" lon="2.04093">
        <ele>146</ele>
        <time>2013-08-17T08:29:25Z</time>
      </trkpt>
      <trkpt lat="48.63181" lon="2.04088">
        <ele>146</ele>
        <time>2013-08-17T08:29:27Z</time>
      </trkpt>
      <trkpt lat="48.63181" lon="2.04084">
        <ele>146</ele>
        <time>2013-08-17T08:29:29Z</time>
      </trkpt>
      <trkpt lat="48.63181" lon="2.0408">
        <ele>146</ele>
        <time>2013-08-17T08:29:31Z</time>
      </trkpt>
      <trkpt lat="48.63181" lon="2.04075">
        <ele>146</ele>
        <time>2013-08-17T08:29:33Z</time>
      </trkpt>
      <trkpt lat="48.6318" lon="2.04069">
        <ele>147</ele>
        <time>2013-08-17T08:29:35Z</time>
      </trkpt>
      <trkpt lat="48.6318" lon="2.04064">
        <ele>147</ele>
        <time>2013-08-17T08:29:37Z</time>
      </trkpt>
      <trkpt lat="48.6318" lon="2.0406">
        <ele>147</ele>
        <time>2013-08-17T08:29:39Z</time>
      </trkpt>
      <trkpt lat="48.6318" lon="2.04055">
        <ele>148</ele>
        <time>2013-08-17T08:29:41Z</time>
      </trkpt>
      <trkpt lat="48.6318" lon="2.0405">
        <ele>148</ele>
        <time>2013-08-17T08:29:43Z</time>
      </trkpt>
      <trkpt lat="48.63181" lon="2.04044">
        <ele>149</ele>
        <time>2013-08-17T08:29:46Z</time>
      </trkpt>
      <trkpt lat="48.63181" lon="2.0404">
        <ele>149</ele>
        <time>2013-08-17T08:29:48Z</time>
      </trkpt>
      <trkpt lat="48.63182" lon="2.04034">
        <ele>150</ele>
        <time>2013-08-17T08:29:51Z</time>
      </trkpt>
      <trkpt lat="48.63183" lon="2.0403">
        <ele>150</ele>
        <time>2013-08-17T08:29:53Z</time>
      </trkpt>
      <trkpt lat="48.63184" lon="2.04026">
        <ele>151</ele>
        <time>2013-08-17T08:29:55Z</time>
      </trkpt>
      <trkpt lat="48.63184" lon="2.04023">
        <ele>151</ele>
        <time>2013-08-17T08:29:57Z</time>
      </trkpt>
      <trkpt lat="48.63185" lon="2.04019">
        <ele>151</ele>
        <time>2013-08-17T08:29:59Z</time>
      </trkpt>
      <trkpt lat="48.63186" lon="2.04014">
        <ele>151</ele>
        <time>2013-08-17T08:30:01Z</time>
      </trkpt>
      <trkpt lat="48.63186" lon="2.0401">
        <ele>152</ele>
        <time>2013-08-17T08:30:03Z</time>
      </trkpt>
      <trkpt lat="48.63186" lon="2.04006">
        <ele>152</ele>
        <time>2013-08-17T08:30:05Z</time>
      </trkpt>
      <trkpt lat="48.63187" lon="2.04002">
        <ele>153</ele>
        <time>2013-08-17T08:30:07Z</time>
      </trkpt>
      <trkpt lat="48.63187" lon="2.03998">
        <ele>153</ele>
        <time>2013-08-17T08:30:09Z</time>
      </trkpt>
      <trkpt lat="48.63187" lon="2.03994">
        <ele>153</ele>
        <time>2013-08-17T08:30:11Z</time>
      </trkpt>
      <trkpt lat="48.63189" lon="2.03991">
        <ele>153</ele>
        <time>2013-08-17T08:30:13Z</time>
      </trkpt>
      <trkpt lat="48.63189" lon="2.03987">
        <ele>153</ele>
        <time>2013-08-17T08:30:15Z</time>
      </trkpt>
      <trkpt lat="48.6319" lon="2.03983">
        <ele>153</ele>
        <time>2013-08-17T08:30:17Z</time>
      </trkpt>
      <trkpt lat="48.63191" lon="2.03979">
        <ele>153</ele>
        <time>2013-08-17T08:30:19Z</time>
      </trkpt>
      <trkpt lat="48.63192" lon="2.03975">
        <ele>153</ele>
        <time>2013-08-17T08:30:21Z</time>
      </trkpt>
      <trkpt lat="48.63193" lon="2.03971">
        <ele>153</ele>
        <time>2013-08-17T08:30:23Z</time>
      </trkpt>
      <trkpt lat="48.63195" lon="2.03967">
        <ele>154</ele>
        <time>2013-08-17T08:30:25Z</time>
      </trkpt>
      <trkpt lat="48.63196" lon="2.03964">
        <ele>154</ele>
        <time>2013-08-17T08:30:27Z</time>
      </trkpt>
      <trkpt lat="48.63197" lon="2.0396">
        <ele>155</ele>
        <time>2013-08-17T08:30:29Z</time>
      </trkpt>
      <trkpt lat="48.63198" lon="2.03956">
        <ele>155</ele>
        <time>2013-08-17T08:30:31Z</time>
      </trkpt>
      <trkpt lat="48.63199" lon="2.03952">
        <ele>155</ele>
        <time>2013-08-17T08:30:33Z</time>
      </trkpt>
      <trkpt lat="48.632" lon="2.03948">
        <ele>156</ele>
        <time>2013-08-17T08:30:35Z</time>
      </trkpt>
      <trkpt lat="48.63201" lon="2.03945">
        <ele>156</ele>
        <time>2013-08-17T08:30:37Z</time>
      </trkpt>
      <trkpt lat="48.63202" lon="2.03941">
        <ele>156</ele>
        <time>2013-08-17T08:30:39Z</time>
      </trkpt>
      <trkpt lat="48.63203" lon="2.03938">
        <ele>156</ele>
        <time>2013-08-17T08:30:41Z</time>
      </trkpt>
      <trkpt lat="48.63204" lon="2.03934">
        <ele>156</ele>
        <time>2013-08-17T08:30:43Z</time>
      </trkpt>
      <trkpt lat="48.63205" lon="2.0393">
        <ele>156</ele>
        <time>2013-08-17T08:30:45Z</time>
      </trkpt>
      <trkpt lat="48.63206" lon="2.03926">
        <ele>156</ele>
        <time>2013-08-17T08:30:47Z</time>
      </trkpt>
      <trkpt lat="48.63208" lon="2.03923">
        <ele>156</ele>
        <time>2013-08-17T08:30:49Z</time>
      </trkpt>
      <trkpt lat="48.63209" lon="2.0392">
        <ele>157</ele>
        <time>2013-08-17T08:30:51Z</time>
      </trkpt>
      <trkpt lat="48.63212" lon="2.03915">
        <ele>157</ele>
        <time>2013-08-17T08:30:54Z</time>
      </trkpt>
      <trkpt lat="48.63213" lon="2.03912">
        <ele>157</ele>
        <time>2013-08-17T08:30:56Z</time>
      </trkpt>
      <trkpt lat="48.63216" lon="2.03909">
        <ele>157</ele>
        <time>2013-08-17T08:30:58Z</time>
      </trkpt>
      <trkpt lat="48.63218" lon="2.03906">
        <ele>157</ele>
        <time>2013-08-17T08:31:00Z</time>
      </trkpt>
      <trkpt lat="48.63219" lon="2.03904">
        <ele>157</ele>
        <time>2013-08-17T08:31:02Z</time>
      </trkpt>
      <trkpt lat="48.63223" lon="2.03899">
        <ele>158</ele>
        <time>2013-08-17T08:31:05Z</time>
      </trkpt>
      <trkpt lat="48.63225" lon="2.03897">
        <ele>158</ele>
        <time>2013-08-17T08:31:07Z</time>
      </trkpt>
      <trkpt lat="48.63227" lon="2.03894">
        <ele>158</ele>
        <time>2013-08-17T08:31:09Z</time>
      </trkpt>
      <trkpt lat="48.63231" lon="2.03889">
        <ele>158</ele>
        <time>2013-08-17T08:31:13Z</time>
      </trkpt>
      <trkpt lat="48.63235" lon="2.03885">
        <ele>159</ele>
        <time>2013-08-17T08:31:16Z</time>
      </trkpt>
      <trkpt lat="48.63237" lon="2.03882">
        <ele>159</ele>
        <time>2013-08-17T08:31:18Z</time>
      </trkpt>
      <trkpt lat="48.63239" lon="2.03879">
        <ele>159</ele>
        <time>2013-08-17T08:31:20Z</time>
      </trkpt>
      <trkpt lat="48.63242" lon="2.03877">
        <ele>160</ele>
        <time>2013-08-17T08:31:22Z</time>
      </trkpt>
      <trkpt lat="48.63244" lon="2.03873">
        <ele>160</ele>
        <time>2013-08-17T08:31:24Z</time>
      </trkpt>
      <trkpt lat="48.63247" lon="2.03869">
        <ele>160</ele>
        <time>2013-08-17T08:31:27Z</time>
      </trkpt>
      <trkpt lat="48.63249" lon="2.03867">
        <ele>160</ele>
        <time>2013-08-17T08:31:29Z</time>
      </trkpt>
      <trkpt lat="48.63253" lon="2.03862">
        <ele>160</ele>
        <time>2013-08-17T08:31:32Z</time>
      </trkpt>
      <trkpt lat="48.63254" lon="2.03859">
        <ele>160</ele>
        <time>2013-08-17T08:31:34Z</time>
      </trkpt>
      <trkpt lat="48.63255" lon="2.03855">
        <ele>160</ele>
        <time>2013-08-17T08:31:36Z</time>
      </trkpt>
      <trkpt lat="48.63257" lon="2.03851">
        <ele>160</ele>
        <time>2013-08-17T08:31:38Z</time>
      </trkpt>
      <trkpt lat="48.63258" lon="2.03847">
        <ele>161</ele>
        <time>2013-08-17T08:31:40Z</time>
      </trkpt>
      <trkpt lat="48.6326" lon="2.03843">
        <ele>161</ele>
        <time>2013-08-17T08:31:42Z</time>
      </trkpt>
      <trkpt lat="48.63261" lon="2.0384">
        <ele>161</ele>
        <time>2013-08-17T08:31:44Z</time>
      </trkpt>
      <trkpt lat="48.63261" lon="2.03836">
        <ele>161</ele>
        <time>2013-08-17T08:31:46Z</time>
      </trkpt>
      <trkpt lat="48.63262" lon="2.03832">
        <ele>161</ele>
        <time>2013-08-17T08:31:48Z</time>
      </trkpt>
      <trkpt lat="48.63262" lon="2.03827">
        <ele>161</ele>
        <time>2013-08-17T08:31:50Z</time>
      </trkpt>
      <trkpt lat="48.63263" lon="2.03822">
        <ele>161</ele>
        <time>2013-08-17T08:31:52Z</time>
      </trkpt>
      <trkpt lat="48.63263" lon="2.03818">
        <ele>161</ele>
        <time>2013-08-17T08:31:54Z</time>
      </trkpt>
      <trkpt lat="48.63262" lon="2.03813">
        <ele>161</ele>
        <time>2013-08-17T08:31:56Z</time>
      </trkpt>
      <trkpt lat="48.63262" lon="2.03809">
        <ele>161</ele>
        <time>2013-08-17T08:31:58Z</time>
      </trkpt>
      <trkpt lat="48.63261" lon="2.03803">
        <ele>161</ele>
        <time>2013-08-17T08:32:00Z</time>
      </trkpt>
      <trkpt lat="48.63261" lon="2.03799">
        <ele>162</ele>
        <time>2013-08-17T08:32:02Z</time>
      </trkpt>
      <trkpt lat="48.63261" lon="2.03794">
        <ele>162</ele>
        <time>2013-08-17T08:32:04Z</time>
      </trkpt>
      <trkpt lat="48.63261" lon="2.03789">
        <ele>163</ele>
        <time>2013-08-17T08:32:06Z</time>
      </trkpt>
      <trkpt lat="48.63262" lon="2.03784">
        <ele>164</ele>
        <time>2013-08-17T08:32:08Z</time>
      </trkpt>
      <trkpt lat="48.63263" lon="2.03778">
        <ele>165</ele>
        <time>2013-08-17T08:32:10Z</time>
      </trkpt>
      <trkpt lat="48.63264" lon="2.03773">
        <ele>167</ele>
        <time>2013-08-17T08:32:12Z</time>
      </trkpt>
      <trkpt lat="48.63265" lon="2.03769">
        <ele>168</ele>
        <time>2013-08-17T08:32:14Z</time>
      </trkpt>
      <trkpt lat="48.63266" lon="2.03766">
        <ele>168</ele>
        <time>2013-08-17T08:32:16Z</time>
      </trkpt>
      <trkpt lat="48.6327" lon="2.03759">
        <ele>168</ele>
        <time>2013-08-17T08:32:19Z</time>
      </trkpt>
      <trkpt lat="48.63273" lon="2.03754">
        <ele>168</ele>
        <time>2013-08-17T08:32:22Z</time>
      </trkpt>
      <trkpt lat="48.63274" lon="2.03751">
        <ele>168</ele>
        <time>2013-08-17T08:32:24Z</time>
      </trkpt>
      <trkpt lat="48.63277" lon="2.03748">
        <ele>168</ele>
        <time>2013-08-17T08:32:26Z</time>
      </trkpt>
      <trkpt lat="48.63279" lon="2.03746">
        <ele>168</ele>
        <time>2013-08-17T08:32:28Z</time>
      </trkpt>
      <trkpt lat="48.6328" lon="2.03743">
        <ele>168</ele>
        <time>2013-08-17T08:32:30Z</time>
      </trkpt>
      <trkpt lat="48.63282" lon="2.03741">
        <ele>168</ele>
        <time>2013-08-17T08:32:32Z</time>
      </trkpt>
      <trkpt lat="48.63285" lon="2.03739">
        <ele>168</ele>
        <time>2013-08-17T08:32:34Z</time>
      </trkpt>
      <trkpt lat="48.63287" lon="2.03736">
        <ele>168</ele>
        <time>2013-08-17T08:32:36Z</time>
      </trkpt>
      <trkpt lat="48.63289" lon="2.03733">
        <ele>168</ele>
        <time>2013-08-17T08:32:38Z</time>
      </trkpt>
      <trkpt lat="48.63291" lon="2.0373">
        <ele>168</ele>
        <time>2013-08-17T08:32:40Z</time>
      </trkpt>
      <trkpt lat="48.63293" lon="2.03728">
        <ele>168</ele>
        <time>2013-08-17T08:32:42Z</time>
      </trkpt>
      <trkpt lat="48.63297" lon="2.03723">
        <ele>168</ele>
        <time>2013-08-17T08:32:45Z</time>
      </trkpt>
      <trkpt lat="48.633" lon="2.03719">
        <ele>168</ele>
        <time>2013-08-17T08:32:48Z</time>
      </trkpt>
      <trkpt lat="48.63302" lon="2.03716">
        <ele>168</ele>
        <time>2013-08-17T08:32:50Z</time>
      </trkpt>
      <trkpt lat="48.63304" lon="2.03713">
        <ele>168</ele>
        <time>2013-08-17T08:32:52Z</time>
      </trkpt>
      <trkpt lat="48.63307" lon="2.0371">
        <ele>168</ele>
        <time>2013-08-17T08:32:54Z</time>
      </trkpt>
      <trkpt lat="48.63309" lon="2.03707">
        <ele>167</ele>
        <time>2013-08-17T08:32:56Z</time>
      </trkpt>
      <trkpt lat="48.63311" lon="2.03704">
        <ele>167</ele>
        <time>2013-08-17T08:32:58Z</time>
      </trkpt>
      <trkpt lat="48.63313" lon="2.03701">
        <ele>167</ele>
        <time>2013-08-17T08:33:00Z</time>
      </trkpt>
      <trkpt lat="48.63316" lon="2.03697">
        <ele>167</ele>
        <time>2013-08-17T08:33:03Z</time>
      </trkpt>
      <trkpt lat="48.63319" lon="2.03694">
        <ele>167</ele>
        <time>2013-08-17T08:33:05Z</time>
      </trkpt>
      <trkpt lat="48.63321" lon="2.0369">
        <ele>167</ele>
        <time>2013-08-17T08:33:07Z</time>
      </trkpt>
      <trkpt lat="48.63324" lon="2.03687">
        <ele>167</ele>
        <time>2013-08-17T08:33:09Z</time>
      </trkpt>
      <trkpt lat="48.63326" lon="2.03684">
        <ele>167</ele>
        <time>2013-08-17T08:33:11Z</time>
      </trkpt>
      <trkpt lat="48.63329" lon="2.03682">
        <ele>167</ele>
        <time>2013-08-17T08:33:13Z</time>
      </trkpt>
      <trkpt lat="48.63332" lon="2.03678">
        <ele>167</ele>
        <time>2013-08-17T08:33:15Z</time>
      </trkpt>
      <trkpt lat="48.63335" lon="2.03675">
        <ele>167</ele>
        <time>2013-08-17T08:33:17Z</time>
      </trkpt>
      <trkpt lat="48.63339" lon="2.03671">
        <ele>167</ele>
        <time>2013-08-17T08:33:19Z</time>
      </trkpt>
      <trkpt lat="48.63344" lon="2.03666">
        <ele>167</ele>
        <time>2013-08-17T08:33:21Z</time>
      </trkpt>
      <trkpt lat="48.63349" lon="2.03661">
        <ele>167</ele>
        <time>2013-08-17T08:33:23Z</time>
      </trkpt>
      <trkpt lat="48.63355" lon="2.03656">
        <ele>167</ele>
        <time>2013-08-17T08:33:25Z</time>
      </trkpt>
      <trkpt lat="48.63362" lon="2.0365">
        <ele>167</ele>
        <time>2013-08-17T08:33:27Z</time>
      </trkpt>
      <trkpt lat="48.63369" lon="2.03644">
        <ele>167</ele>
        <time>2013-08-17T08:33:29Z</time>
      </trkpt>
      <trkpt lat="48.63376" lon="2.03639">
        <ele>167</ele>
        <time>2013-08-17T08:33:31Z</time>
      </trkpt>
      <trkpt lat="48.63383" lon="2.03633">
        <ele>167</ele>
        <time>2013-08-17T08:33:33Z</time>
      </trkpt>
      <trkpt lat="48.63391" lon="2.03627">
        <ele>167</ele>
        <time>2013-08-17T08:33:35Z</time>
      </trkpt>
      <trkpt lat="48.63399" lon="2.03621">
        <ele>167</ele>
        <time>2013-08-17T08:33:37Z</time>
      </trkpt>
      <trkpt lat="48.63407" lon="2.03615">
        <ele>167</ele>
        <time>2013-08-17T08:33:39Z</time>
      </trkpt>
      <trkpt lat="48.63414" lon="2.0361">
        <ele>167</ele>
        <time>2013-08-17T08:33:41Z</time>
      </trkpt>
      <trkpt lat="48.63422" lon="2.03605">
        <ele>167</ele>
        <time>2013-08-17T08:33:43Z</time>
      </trkpt>
      <trkpt lat="48.6343" lon="2.036">
        <ele>167</ele>
        <time>2013-08-17T08:33:45Z</time>
      </trkpt>
      <trkpt lat="48.63437" lon="2.03596">
        <ele>167</ele>
        <time>2013-08-17T08:33:47Z</time>
      </trkpt>
      <trkpt lat="48.63443" lon="2.03591">
        <ele>167</ele>
        <time>2013-08-17T08:33:49Z</time>
      </trkpt>
      <trkpt lat="48.6345" lon="2.03587">
        <ele>167</ele>
        <time>2013-08-17T08:33:51Z</time>
      </trkpt>
      <trkpt lat="48.63457" lon="2.03583">
        <ele>167</ele>
        <time>2013-08-17T08:33:53Z</time>
      </trkpt>
      <trkpt lat="48.63463" lon="2.03578">
        <ele>167</ele>
        <time>2013-08-17T08:33:55Z</time>
      </trkpt>
      <trkpt lat="48.6347" lon="2.03574">
        <ele>167</ele>
        <time>2013-08-17T08:33:57Z</time>
      </trkpt>
      <trkpt lat="48.63477" lon="2.03569">
        <ele>167</ele>
        <time>2013-08-17T08:33:59Z</time>
      </trkpt>
      <trkpt lat="48.63484" lon="2.03564">
        <ele>167</ele>
        <time>2013-08-17T08:34:01Z</time>
      </trkpt>
      <trkpt lat="48.63491" lon="2.03559">
        <ele>167</ele>
        <time>2013-08-17T08:34:03Z</time>
      </trkpt>
      <trkpt lat="48.63499" lon="2.03555">
        <ele>167</ele>
        <time>2013-08-17T08:34:05Z</time>
      </trkpt>
      <trkpt lat="48.63506" lon="2.0355">
        <ele>167</ele>
        <time>2013-08-17T08:34:07Z</time>
      </trkpt>
      <trkpt lat="48.63512" lon="2.03546">
        <ele>167</ele>
        <time>2013-08-17T08:34:09Z</time>
      </trkpt>
      <trkpt lat="48.63519" lon="2.03541">
        <ele>167</ele>
        <time>2013-08-17T08:34:11Z</time>
      </trkpt>
      <trkpt lat="48.63526" lon="2.03537">
        <ele>167</ele>
        <time>2013-08-17T08:34:13Z</time>
      </trkpt>
      <trkpt lat="48.63533" lon="2.03532">
        <ele>167</ele>
        <time>2013-08-17T08:34:15Z</time>
      </trkpt>
      <trkpt lat="48.63539" lon="2.03527">
        <ele>167</ele>
        <time>2013-08-17T08:34:17Z</time>
      </trkpt>
      <trkpt lat="48.63546" lon="2.03522">
        <ele>167</ele>
        <time>2013-08-17T08:34:19Z</time>
      </trkpt>
      <trkpt lat="48.63553" lon="2.03518">
        <ele>167</ele>
        <time>2013-08-17T08:34:21Z</time>
      </trkpt>
      <trkpt lat="48.6356" lon="2.03514">
        <ele>167</ele>
        <time>2013-08-17T08:34:23Z</time>
      </trkpt>
      <trkpt lat="48.63567" lon="2.0351">
        <ele>167</ele>
        <time>2013-08-17T08:34:25Z</time>
      </trkpt>
      <trkpt lat="48.63575" lon="2.03507">
        <ele>167</ele>
        <time>2013-08-17T08:34:27Z</time>
      </trkpt>
      <trkpt lat="48.63581" lon="2.03504">
        <ele>167</ele>
        <time>2013-08-17T08:34:29Z</time>
      </trkpt>
      <trkpt lat="48.63589" lon="2.03502">
        <ele>167</ele>
        <time>2013-08-17T08:34:31Z</time>
      </trkpt>
      <trkpt lat="48.63596" lon="2.035">
        <ele>167</ele>
        <time>2013-08-17T08:34:33Z</time>
      </trkpt>
      <trkpt lat="48.63604" lon="2.03498">
        <ele>167</ele>
        <time>2013-08-17T08:34:35Z</time>
      </trkpt>
      <trkpt lat="48.63612" lon="2.03498">
        <ele>167</ele>
        <time>2013-08-17T08:34:37Z</time>
      </trkpt>
      <trkpt lat="48.63621" lon="2.03498">
        <ele>167</ele>
        <time>2013-08-17T08:34:39Z</time>
      </trkpt>
      <trkpt lat="48.63629" lon="2.03499">
        <ele>167</ele>
        <time>2013-08-17T08:34:41Z</time>
      </trkpt>
      <trkpt lat="48.63636" lon="2.035">
        <ele>167</ele>
        <time>2013-08-17T08:34:43Z</time>
      </trkpt>
      <trkpt lat="48.63644" lon="2.035">
        <ele>167</ele>
        <time>2013-08-17T08:34:45Z</time>
      </trkpt>
      <trkpt lat="48.63651" lon="2.03502">
        <ele>167</ele>
        <time>2013-08-17T08:34:47Z</time>
      </trkpt>
      <trkpt lat="48.63659" lon="2.03503">
        <ele>167</ele>
        <time>2013-08-17T08:34:49Z</time>
      </trkpt>
      <trkpt lat="48.63667" lon="2.03504">
        <ele>167</ele>
        <time>2013-08-17T08:34:51Z</time>
      </trkpt>
      <trkpt lat="48.63674" lon="2.03505">
        <ele>167</ele>
        <time>2013-08-17T08:34:53Z</time>
      </trkpt>
      <trkpt lat="48.63681" lon="2.03506">
        <ele>167</ele>
        <time>2013-08-17T08:34:55Z</time>
      </trkpt>
      <trkpt lat="48.6369" lon="2.03507">
        <ele>167</ele>
        <time>2013-08-17T08:34:57Z</time>
      </trkpt>
      <trkpt lat="48.63698" lon="2.03508">
        <ele>167</ele>
        <time>2013-08-17T08:34:59Z</time>
      </trkpt>
      <trkpt lat="48.6371" lon="2.03508">
        <ele>167</ele>
        <time>2013-08-17T08:35:02Z</time>
      </trkpt>
      <trkpt lat="48.63719" lon="2.03509">
        <ele>167</ele>
        <time>2013-08-17T08:35:04Z</time>
      </trkpt>
      <trkpt lat="48.63727" lon="2.03509">
        <ele>167</ele>
        <time>2013-08-17T08:35:06Z</time>
      </trkpt>
      <trkpt lat="48.63734" lon="2.03509">
        <ele>167</ele>
        <time>2013-08-17T08:35:08Z</time>
      </trkpt>
      <trkpt lat="48.63742" lon="2.03509">
        <ele>167</ele>
        <time>2013-08-17T08:35:10Z</time>
      </trkpt>
      <trkpt lat="48.6375" lon="2.03509">
        <ele>167</ele>
        <time>2013-08-17T08:35:12Z</time>
      </trkpt>
      <trkpt lat="48.63758" lon="2.03508">
        <ele>167</ele>
        <time>2013-08-17T08:35:14Z</time>
      </trkpt>
      <trkpt lat="48.63766" lon="2.03507">
        <ele>167</ele>
        <time>2013-08-17T08:35:16Z</time>
      </trkpt>
      <trkpt lat="48.63774" lon="2.03506">
        <ele>166</ele>
        <time>2013-08-17T08:35:18Z</time>
      </trkpt>
      <trkpt lat="48.63783" lon="2.03505">
        <ele>166</ele>
        <time>2013-08-17T08:35:20Z</time>
      </trkpt>
      <trkpt lat="48.63791" lon="2.03503">
        <ele>166</ele>
        <time>2013-08-17T08:35:22Z</time>
      </trkpt>
      <trkpt lat="48.63798" lon="2.035">
        <ele>166</ele>
        <time>2013-08-17T08:35:24Z</time>
      </trkpt>
      <trkpt lat="48.63805" lon="2.03498">
        <ele>166</ele>
        <time>2013-08-17T08:35:26Z</time>
      </trkpt>
      <trkpt lat="48.63813" lon="2.03495">
        <ele>166</ele>
        <time>2013-08-17T08:35:28Z</time>
      </trkpt>
      <trkpt lat="48.6382" lon="2.03491">
        <ele>166</ele>
        <time>2013-08-17T08:35:30Z</time>
      </trkpt>
      <trkpt lat="48.63828" lon="2.03487">
        <ele>166</ele>
        <time>2013-08-17T08:35:32Z</time>
      </trkpt>
      <trkpt lat="48.63834" lon="2.03483">
        <ele>166</ele>
        <time>2013-08-17T08:35:34Z</time>
      </trkpt>
      <trkpt lat="48.63842" lon="2.03478">
        <ele>166</ele>
        <time>2013-08-17T08:35:36Z</time>
      </trkpt>
      <trkpt lat="48.63849" lon="2.03473">
        <ele>166</ele>
        <time>2013-08-17T08:35:38Z</time>
      </trkpt>
      <trkpt lat="48.63856" lon="2.03468">
        <ele>166</ele>
        <time>2013-08-17T08:35:40Z</time>
      </trkpt>
      <trkpt lat="48.63867" lon="2.03459">
        <ele>166</ele>
        <time>2013-08-17T08:35:43Z</time>
      </trkpt>
      <trkpt lat="48.63874" lon="2.03453">
        <ele>166</ele>
        <time>2013-08-17T08:35:45Z</time>
      </trkpt>
      <trkpt lat="48.6388" lon="2.03448">
        <ele>166</ele>
        <time>2013-08-17T08:35:47Z</time>
      </trkpt>
      <trkpt lat="48.63887" lon="2.03442">
        <ele>166</ele>
        <time>2013-08-17T08:35:49Z</time>
      </trkpt>
      <trkpt lat="48.63893" lon="2.03436">
        <ele>166</ele>
        <time>2013-08-17T08:35:51Z</time>
      </trkpt>
      <trkpt lat="48.639" lon="2.03429">
        <ele>166</ele>
        <time>2013-08-17T08:35:53Z</time>
      </trkpt>
      <trkpt lat="48.63906" lon="2.03423">
        <ele>166</ele>
        <time>2013-08-17T08:35:55Z</time>
      </trkpt>
      <trkpt lat="48.63913" lon="2.03417">
        <ele>166</ele>
        <time>2013-08-17T08:35:57Z</time>
      </trkpt>
      <trkpt lat="48.63919" lon="2.03412">
        <ele>166</ele>
        <time>2013-08-17T08:35:59Z</time>
      </trkpt>
      <trkpt lat="48.63926" lon="2.03405">
        <ele>166</ele>
        <time>2013-08-17T08:36:01Z</time>
      </trkpt>
      <trkpt lat="48.63932" lon="2.03399">
        <ele>166</ele>
        <time>2013-08-17T08:36:03Z</time>
      </trkpt>
      <trkpt lat="48.63939" lon="2.03393">
        <ele>166</ele>
        <time>2013-08-17T08:36:05Z</time>
      </trkpt>
      <trkpt lat="48.63945" lon="2.03386">
        <ele>166</ele>
        <time>2013-08-17T08:36:07Z</time>
      </trkpt>
      <trkpt lat="48.63952" lon="2.0338">
        <ele>166</ele>
        <time>2013-08-17T08:36:09Z</time>
      </trkpt>
      <trkpt lat="48.63958" lon="2.03374">
        <ele>166</ele>
        <time>2013-08-17T08:36:11Z</time>
      </trkpt>
      <trkpt lat="48.63964" lon="2.03367">
        <ele>166</ele>
        <time>2013-08-17T08:36:13Z</time>
      </trkpt>
      <trkpt lat="48.63971" lon="2.03361">
        <ele>166</ele>
        <time>2013-08-17T08:36:15Z</time>
      </trkpt>
      <trkpt lat="48.63978" lon="2.03355">
        <ele>165</ele>
        <time>2013-08-17T08:36:17Z</time>
      </trkpt>
      <trkpt lat="48.63984" lon="2.03348">
        <ele>165</ele>
        <time>2013-08-17T08:36:19Z</time>
      </trkpt>
      <trkpt lat="48.63991" lon="2.03341">
        <ele>165</ele>
        <time>2013-08-17T08:36:21Z</time>
      </trkpt>
      <trkpt lat="48.63998" lon="2.03334">
        <ele>165</ele>
        <time>2013-08-17T08:36:23Z</time>
      </trkpt>
      <trkpt lat="48.64005" lon="2.03327">
        <ele>165</ele>
        <time>2013-08-17T08:36:25Z</time>
      </trkpt>
      <trkpt lat="48.64011" lon="2.0332">
        <ele>165</ele>
        <time>2013-08-17T08:36:27Z</time>
      </trkpt>
      <trkpt lat="48.64018" lon="2.03313">
        <ele>165</ele>
        <time>2013-08-17T08:36:29Z</time>
      </trkpt>
      <trkpt lat="48.64024" lon="2.03306">
        <ele>165</ele>
        <time>2013-08-17T08:36:31Z</time>
      </trkpt>
      <trkpt lat="48.6403" lon="2.033">
        <ele>165</ele>
        <time>2013-08-17T08:36:33Z</time>
      </trkpt>
      <trkpt lat="48.64036" lon="2.03294">
        <ele>165</ele>
        <time>2013-08-17T08:36:35Z</time>
      </trkpt>
      <trkpt lat="48.64043" lon="2.03287">
        <ele>165</ele>
        <time>2013-08-17T08:36:37Z</time>
      </trkpt>
      <trkpt lat="48.64049" lon="2.0328">
        <ele>165</ele>
        <time>2013-08-17T08:36:39Z</time>
      </trkpt>
      <trkpt lat="48.64055" lon="2.03274">
        <ele>165</ele>
        <time>2013-08-17T08:36:41Z</time>
      </trkpt>
      <trkpt lat="48.64061" lon="2.03267">
        <ele>165</ele>
        <time>2013-08-17T08:36:43Z</time>
      </trkpt>
      <trkpt lat="48.64068" lon="2.03259">
        <ele>165</ele>
        <time>2013-08-17T08:36:45Z</time>
      </trkpt>
      <trkpt lat="48.64074" lon="2.03253">
        <ele>165</ele>
        <time>2013-08-17T08:36:47Z</time>
      </trkpt>
      <trkpt lat="48.6408" lon="2.03245">
        <ele>164</ele>
        <time>2013-08-17T08:36:49Z</time>
      </trkpt>
      <trkpt lat="48.64087" lon="2.03239">
        <ele>164</ele>
        <time>2013-08-17T08:36:51Z</time>
      </trkpt>
      <trkpt lat="48.64093" lon="2.03231">
        <ele>164</ele>
        <time>2013-08-17T08:36:53Z</time>
      </trkpt>
      <trkpt lat="48.64099" lon="2.03224">
        <ele>163</ele>
        <time>2013-08-17T08:36:55Z</time>
      </trkpt>
      <trkpt lat="48.64105" lon="2.03218">
        <ele>163</ele>
        <time>2013-08-17T08:36:57Z</time>
      </trkpt>
      <trkpt lat="48.64111" lon="2.03211">
        <ele>163</ele>
        <time>2013-08-17T08:36:59Z</time>
      </trkpt>
      <trkpt lat="48.64117" lon="2.03204">
        <ele>162</ele>
        <time>2013-08-17T08:37:01Z</time>
      </trkpt>
      <trkpt lat="48.64126" lon="2.03193">
        <ele>162</ele>
        <time>2013-08-17T08:37:04Z</time>
      </trkpt>
      <trkpt lat="48.64132" lon="2.03186">
        <ele>162</ele>
        <time>2013-08-17T08:37:06Z</time>
      </trkpt>
      <trkpt lat="48.64138" lon="2.03178">
        <ele>162</ele>
        <time>2013-08-17T08:37:08Z</time>
      </trkpt>
      <trkpt lat="48.64143" lon="2.03171">
        <ele>162</ele>
        <time>2013-08-17T08:37:10Z</time>
      </trkpt>
      <trkpt lat="48.64149" lon="2.03163">
        <ele>162</ele>
        <time>2013-08-17T08:37:12Z</time>
      </trkpt>
      <trkpt lat="48.64155" lon="2.03154">
        <ele>162</ele>
        <time>2013-08-17T08:37:14Z</time>
      </trkpt>
      <trkpt lat="48.6416" lon="2.03145">
        <ele>162</ele>
        <time>2013-08-17T08:37:16Z</time>
      </trkpt>
      <trkpt lat="48.64165" lon="2.03135">
        <ele>162</ele>
        <time>2013-08-17T08:37:18Z</time>
      </trkpt>
      <trkpt lat="48.6417" lon="2.03126">
        <ele>161</ele>
        <time>2013-08-17T08:37:20Z</time>
      </trkpt>
      <trkpt lat="48.64175" lon="2.03116">
        <ele>161</ele>
        <time>2013-08-17T08:37:22Z</time>
      </trkpt>
      <trkpt lat="48.6418" lon="2.03107">
        <ele>161</ele>
        <time>2013-08-17T08:37:24Z</time>
      </trkpt>
      <trkpt lat="48.64185" lon="2.03099">
        <ele>161</ele>
        <time>2013-08-17T08:37:26Z</time>
      </trkpt>
      <trkpt lat="48.6419" lon="2.03091">
        <ele>161</ele>
        <time>2013-08-17T08:37:28Z</time>
      </trkpt>
      <trkpt lat="48.64194" lon="2.03082">
        <ele>161</ele>
        <time>2013-08-17T08:37:30Z</time>
      </trkpt>
      <trkpt lat="48.64198" lon="2.03073">
        <ele>161</ele>
        <time>2013-08-17T08:37:32Z</time>
      </trkpt>
      <trkpt lat="48.64202" lon="2.03062">
        <ele>161</ele>
        <time>2013-08-17T08:37:34Z</time>
      </trkpt>
      <trkpt lat="48.64206" lon="2.03051">
        <ele>161</ele>
        <time>2013-08-17T08:37:36Z</time>
      </trkpt>
      <trkpt lat="48.6421" lon="2.0304">
        <ele>161</ele>
        <time>2013-08-17T08:37:38Z</time>
      </trkpt>
      <trkpt lat="48.64213" lon="2.03029">
        <ele>161</ele>
        <time>2013-08-17T08:37:40Z</time>
      </trkpt>
      <trkpt lat="48.64216" lon="2.03018">
        <ele>161</ele>
        <time>2013-08-17T08:37:42Z</time>
      </trkpt>
      <trkpt lat="48.64219" lon="2.03007">
        <ele>161</ele>
        <time>2013-08-17T08:37:44Z</time>
      </trkpt>
      <trkpt lat="48.64221" lon="2.02995">
        <ele>161</ele>
        <time>2013-08-17T08:37:46Z</time>
      </trkpt>
      <trkpt lat="48.64223" lon="2.02985">
        <ele>161</ele>
        <time>2013-08-17T08:37:48Z</time>
      </trkpt>
      <trkpt lat="48.64225" lon="2.02974">
        <ele>161</ele>
        <time>2013-08-17T08:37:50Z</time>
      </trkpt>
      <trkpt lat="48.64227" lon="2.02964">
        <ele>161</ele>
        <time>2013-08-17T08:37:52Z</time>
      </trkpt>
      <trkpt lat="48.64229" lon="2.02953">
        <ele>161</ele>
        <time>2013-08-17T08:37:54Z</time>
      </trkpt>
      <trkpt lat="48.6423" lon="2.02942">
        <ele>161</ele>
        <time>2013-08-17T08:37:56Z</time>
      </trkpt>
      <trkpt lat="48.64232" lon="2.02931">
        <ele>161</ele>
        <time>2013-08-17T08:37:58Z</time>
      </trkpt>
      <trkpt lat="48.64233" lon="2.02921">
        <ele>161</ele>
        <time>2013-08-17T08:38:00Z</time>
      </trkpt>
      <trkpt lat="48.64235" lon="2.0291">
        <ele>161</ele>
        <time>2013-08-17T08:38:02Z</time>
      </trkpt>
      <trkpt lat="48.64236" lon="2.02901">
        <ele>161</ele>
        <time>2013-08-17T08:38:04Z</time>
      </trkpt>
      <trkpt lat="48.64237" lon="2.02891">
        <ele>161</ele>
        <time>2013-08-17T08:38:06Z</time>
      </trkpt>
      <trkpt lat="48.64238" lon="2.02881">
        <ele>161</ele>
        <time>2013-08-17T08:38:08Z</time>
      </trkpt>
      <trkpt lat="48.6424" lon="2.0287">
        <ele>161</ele>
        <time>2013-08-17T08:38:10Z</time>
      </trkpt>
      <trkpt lat="48.64241" lon="2.0286">
        <ele>161</ele>
        <time>2013-08-17T08:38:12Z</time>
      </trkpt>
      <trkpt lat="48.64242" lon="2.02852">
        <ele>161</ele>
        <time>2013-08-17T08:38:14Z</time>
      </trkpt>
      <trkpt lat="48.64243" lon="2.02847">
        <ele>161</ele>
        <time>2013-08-17T08:38:16Z</time>
      </trkpt>
      <trkpt lat="48.64245" lon="2.02843">
        <ele>161</ele>
        <time>2013-08-17T08:38:18Z</time>
      </trkpt>
      <trkpt lat="48.64248" lon="2.02838">
        <ele>161</ele>
        <time>2013-08-17T08:38:21Z</time>
      </trkpt>
      <trkpt lat="48.64251" lon="2.02837">
        <ele>161</ele>
        <time>2013-08-17T08:38:24Z</time>
      </trkpt>
      <trkpt lat="48.64252" lon="2.02836">
        <ele>161</ele>
        <time>2013-08-17T08:38:31Z</time>
      </trkpt>
      <trkpt lat="48.64255" lon="2.02837">
        <ele>161</ele>
        <time>2013-08-17T08:38:33Z</time>
      </trkpt>
      <trkpt lat="48.64258" lon="2.02845">
        <ele>161</ele>
        <time>2013-08-17T08:38:36Z</time>
      </trkpt>
      <trkpt lat="48.6426" lon="2.0285">
        <ele>161</ele>
        <time>2013-08-17T08:38:38Z</time>
      </trkpt>
      <trkpt lat="48.64261" lon="2.02854">
        <ele>161</ele>
        <time>2013-08-17T08:38:40Z</time>
      </trkpt>
      <trkpt lat="48.64262" lon="2.02858">
        <ele>161</ele>
        <time>2013-08-17T08:38:42Z</time>
      </trkpt>
      <trkpt lat="48.64264" lon="2.02862">
        <ele>161</ele>
        <time>2013-08-17T08:38:44Z</time>
      </trkpt>
      <trkpt lat="48.64266" lon="2.02865">
        <ele>161</ele>
        <time>2013-08-17T08:38:46Z</time>
      </trkpt>
      <trkpt lat="48.64269" lon="2.02865">
        <ele>161</ele>
        <time>2013-08-17T08:38:48Z</time>
      </trkpt>
      <trkpt lat="48.64272" lon="2.02864">
        <ele>161</ele>
        <time>2013-08-17T08:38:50Z</time>
      </trkpt>
      <trkpt lat="48.64275" lon="2.02862">
        <ele>161</ele>
        <time>2013-08-17T08:38:52Z</time>
      </trkpt>
      <trkpt lat="48.64277" lon="2.02858">
        <ele>161</ele>
        <time>2013-08-17T08:38:54Z</time>
      </trkpt>
      <trkpt lat="48.64279" lon="2.02856">
        <ele>161</ele>
        <time>2013-08-17T08:38:56Z</time>
      </trkpt>
      <trkpt lat="48.64278" lon="2.02854">
        <ele>161</ele>
        <time>2013-08-17T08:39:13Z</time>
      </trkpt>
      <trkpt lat="48.64277" lon="2.02852">
        <ele>161</ele>
        <time>2013-08-17T08:40:18Z</time>
      </trkpt>
      <trkpt lat="48.64278" lon="2.02852">
        <ele>161</ele>
        <time>2013-08-17T08:40:39Z</time>
      </trkpt>
      <trkpt lat="48.64277" lon="2.02852">
        <ele>161</ele>
        <time>2013-08-17T08:43:56Z</time>
      </trkpt>
      <trkpt lat="48.64276" lon="2.02853">
        <ele>161</ele>
        <time>2013-08-17T08:44:50Z</time>
      </trkpt>
      <trkpt lat="48.64275" lon="2.02855">
        <ele>161</ele>
        <time>2013-08-17T08:44:53Z</time>
      </trkpt>
      <trkpt lat="48.64274" lon="2.02855">
        <ele>161</ele>
        <time>2013-08-17T08:45:02Z</time>
      </trkpt>
      <trkpt lat="48.64273" lon="2.02857">
        <ele>161</ele>
        <time>2013-08-17T08:45:38Z</time>
      </trkpt>
      <trkpt lat="48.64273" lon="2.02859">
        <ele>161</ele>
        <time>2013-08-17T08:45:46Z</time>
      </trkpt>
      <trkpt lat="48.64274" lon="2.02858">
        <ele>161</ele>
        <time>2013-08-17T08:46:15Z</time>
      </trkpt>
      <trkpt lat="48.64275" lon="2.02858">
        <ele>161</ele>
        <time>2013-08-17T08:46:47Z</time>
      </trkpt>
      <trkpt lat="48.64276" lon="2.02855">
        <ele>161</ele>
        <time>2013-08-17T08:46:49Z</time>
      </trkpt>
      <trkpt lat="48.64277" lon="2.02853">
        <ele>161</ele>
        <time>2013-08-17T08:46:51Z</time>
      </trkpt>
      <trkpt lat="48.64278" lon="2.02848">
        <ele>161</ele>
        <time>2013-08-17T08:46:54Z</time>
      </trkpt>
      <trkpt lat="48.6428" lon="2.02844">
        <ele>161</ele>
        <time>2013-08-17T08:46:56Z</time>
      </trkpt>
      <trkpt lat="48.64281" lon="2.0284">
        <ele>161</ele>
        <time>2013-08-17T08:46:58Z</time>
      </trkpt>
      <trkpt lat="48.64282" lon="2.02836">
        <ele>161</ele>
        <time>2013-08-17T08:47:00Z</time>
      </trkpt>
      <trkpt lat="48.64284" lon="2.02833">
        <ele>161</ele>
        <time>2013-08-17T08:47:02Z</time>
      </trkpt>
      <trkpt lat="48.64288" lon="2.0283">
        <ele>161</ele>
        <time>2013-08-17T08:47:04Z</time>
      </trkpt>
      <trkpt lat="48.64293" lon="2.02828">
        <ele>161</ele>
        <time>2013-08-17T08:47:06Z</time>
      </trkpt>
      <trkpt lat="48.64299" lon="2.02826">
        <ele>161</ele>
        <time>2013-08-17T08:47:08Z</time>
      </trkpt>
      <trkpt lat="48.64306" lon="2.02826">
        <ele>161</ele>
        <time>2013-08-17T08:47:10Z</time>
      </trkpt>
      <trkpt lat="48.64314" lon="2.02825">
        <ele>161</ele>
        <time>2013-08-17T08:47:12Z</time>
      </trkpt>
      <trkpt lat="48.64323" lon="2.02824">
        <ele>161</ele>
        <time>2013-08-17T08:47:14Z</time>
      </trkpt>
      <trkpt lat="48.64331" lon="2.02824">
        <ele>161</ele>
        <time>2013-08-17T08:47:16Z</time>
      </trkpt>
      <trkpt lat="48.6434" lon="2.02824">
        <ele>161</ele>
        <time>2013-08-17T08:47:18Z</time>
      </trkpt>
      <trkpt lat="48.64349" lon="2.02824">
        <ele>161</ele>
        <time>2013-08-17T08:47:20Z</time>
      </trkpt>
      <trkpt lat="48.64357" lon="2.02824">
        <ele>161</ele>
        <time>2013-08-17T08:47:22Z</time>
      </trkpt>
      <trkpt lat="48.64365" lon="2.02824">
        <ele>161</ele>
        <time>2013-08-17T08:47:24Z</time>
      </trkpt>
      <trkpt lat="48.64373" lon="2.02824">
        <ele>161</ele>
        <time>2013-08-17T08:47:26Z</time>
      </trkpt>
      <trkpt lat="48.6438" lon="2.02825">
        <ele>161</ele>
        <time>2013-08-17T08:47:28Z</time>
      </trkpt>
      <trkpt lat="48.64388" lon="2.02826">
        <ele>161</ele>
        <time>2013-08-17T08:47:30Z</time>
      </trkpt>
      <trkpt lat="48.64396" lon="2.02827">
        <ele>162</ele>
        <time>2013-08-17T08:47:32Z</time>
      </trkpt>
      <trkpt lat="48.64404" lon="2.02828">
        <ele>162</ele>
        <time>2013-08-17T08:47:34Z</time>
      </trkpt>
      <trkpt lat="48.64413" lon="2.02828">
        <ele>162</ele>
        <time>2013-08-17T08:47:36Z</time>
      </trkpt>
      <trkpt lat="48.64421" lon="2.0283">
        <ele>162</ele>
        <time>2013-08-17T08:47:38Z</time>
      </trkpt>
      <trkpt lat="48.64429" lon="2.0283">
        <ele>162</ele>
        <time>2013-08-17T08:47:40Z</time>
      </trkpt>
      <trkpt lat="48.64438" lon="2.02831">
        <ele>163</ele>
        <time>2013-08-17T08:47:42Z</time>
      </trkpt>
      <trkpt lat="48.64447" lon="2.02832">
        <ele>163</ele>
        <time>2013-08-17T08:47:44Z</time>
      </trkpt>
      <trkpt lat="48.64456" lon="2.02833">
        <ele>163</ele>
        <time>2013-08-17T08:47:46Z</time>
      </trkpt>
      <trkpt lat="48.64465" lon="2.02833">
        <ele>163</ele>
        <time>2013-08-17T08:47:48Z</time>
      </trkpt>
      <trkpt lat="48.64474" lon="2.02833">
        <ele>164</ele>
        <time>2013-08-17T08:47:50Z</time>
      </trkpt>
      <trkpt lat="48.64482" lon="2.02833">
        <ele>164</ele>
        <time>2013-08-17T08:47:52Z</time>
      </trkpt>
      <trkpt lat="48.64491" lon="2.02833">
        <ele>164</ele>
        <time>2013-08-17T08:47:54Z</time>
      </trkpt>
      <trkpt lat="48.645" lon="2.02831">
        <ele>164</ele>
        <time>2013-08-17T08:47:56Z</time>
      </trkpt>
      <trkpt lat="48.64508" lon="2.0283">
        <ele>164</ele>
        <time>2013-08-17T08:47:58Z</time>
      </trkpt>
      <trkpt lat="48.64516" lon="2.02829">
        <ele>164</ele>
        <time>2013-08-17T08:48:00Z</time>
      </trkpt>
      <trkpt lat="48.64523" lon="2.02827">
        <ele>164</ele>
        <time>2013-08-17T08:48:02Z</time>
      </trkpt>
      <trkpt lat="48.64531" lon="2.02825">
        <ele>164</ele>
        <time>2013-08-17T08:48:04Z</time>
      </trkpt>
      <trkpt lat="48.64539" lon="2.02824">
        <ele>164</ele>
        <time>2013-08-17T08:48:06Z</time>
      </trkpt>
      <trkpt lat="48.64547" lon="2.02822">
        <ele>164</ele>
        <time>2013-08-17T08:48:08Z</time>
      </trkpt>
      <trkpt lat="48.64555" lon="2.0282">
        <ele>164</ele>
        <time>2013-08-17T08:48:10Z</time>
      </trkpt>
      <trkpt lat="48.64563" lon="2.02818">
        <ele>164</ele>
        <time>2013-08-17T08:48:12Z</time>
      </trkpt>
      <trkpt lat="48.64575" lon="2.02815">
        <ele>164</ele>
        <time>2013-08-17T08:48:15Z</time>
      </trkpt>
      <trkpt lat="48.64583" lon="2.02813">
        <ele>164</ele>
        <time>2013-08-17T08:48:17Z</time>
      </trkpt>
      <trkpt lat="48.64591" lon="2.0281">
        <ele>165</ele>
        <time>2013-08-17T08:48:19Z</time>
      </trkpt>
      <trkpt lat="48.64598" lon="2.02808">
        <ele>165</ele>
        <time>2013-08-17T08:48:21Z</time>
      </trkpt>
      <trkpt lat="48.64607" lon="2.02805">
        <ele>165</ele>
        <time>2013-08-17T08:48:23Z</time>
      </trkpt>
      <trkpt lat="48.64614" lon="2.02802">
        <ele>165</ele>
        <time>2013-08-17T08:48:25Z</time>
      </trkpt>
      <trkpt lat="48.64622" lon="2.028">
        <ele>165</ele>
        <time>2013-08-17T08:48:27Z</time>
      </trkpt>
      <trkpt lat="48.6463" lon="2.02797">
        <ele>165</ele>
        <time>2013-08-17T08:48:29Z</time>
      </trkpt>
      <trkpt lat="48.64637" lon="2.02794">
        <ele>165</ele>
        <time>2013-08-17T08:48:31Z</time>
      </trkpt>
      <trkpt lat="48.64644" lon="2.02791">
        <ele>165</ele>
        <time>2013-08-17T08:48:33Z</time>
      </trkpt>
      <trkpt lat="48.64651" lon="2.02789">
        <ele>165</ele>
        <time>2013-08-17T08:48:35Z</time>
      </trkpt>
      <trkpt lat="48.64659" lon="2.02786">
        <ele>166</ele>
        <time>2013-08-17T08:48:37Z</time>
      </trkpt>
      <trkpt lat="48.64667" lon="2.02783">
        <ele>166</ele>
        <time>2013-08-17T08:48:39Z</time>
      </trkpt>
      <trkpt lat="48.64675" lon="2.02781">
        <ele>166</ele>
        <time>2013-08-17T08:48:41Z</time>
      </trkpt>
      <trkpt lat="48.64682" lon="2.02779">
        <ele>166</ele>
        <time>2013-08-17T08:48:43Z</time>
      </trkpt>
      <trkpt lat="48.6469" lon="2.02777">
        <ele>166</ele>
        <time>2013-08-17T08:48:45Z</time>
      </trkpt>
      <trkpt lat="48.64697" lon="2.02775">
        <ele>166</ele>
        <time>2013-08-17T08:48:47Z</time>
      </trkpt>
      <trkpt lat="48.64705" lon="2.02773">
        <ele>166</ele>
        <time>2013-08-17T08:48:49Z</time>
      </trkpt>
      <trkpt lat="48.64712" lon="2.02772">
        <ele>166</ele>
        <time>2013-08-17T08:48:51Z</time>
      </trkpt>
      <trkpt lat="48.6472" lon="2.02771">
        <ele>166</ele>
        <time>2013-08-17T08:48:53Z</time>
      </trkpt>
      <trkpt lat="48.64727" lon="2.0277">
        <ele>167</ele>
        <time>2013-08-17T08:48:55Z</time>
      </trkpt>
      <trkpt lat="48.64735" lon="2.02769">
        <ele>167</ele>
        <time>2013-08-17T08:48:57Z</time>
      </trkpt>
      <trkpt lat="48.64742" lon="2.02769">
        <ele>167</ele>
        <time>2013-08-17T08:48:59Z</time>
      </trkpt>
      <trkpt lat="48.64749" lon="2.02769">
        <ele>167</ele>
        <time>2013-08-17T08:49:01Z</time>
      </trkpt>
      <trkpt lat="48.64757" lon="2.02769">
        <ele>167</ele>
        <time>2013-08-17T08:49:03Z</time>
      </trkpt>
      <trkpt lat="48.64764" lon="2.02769">
        <ele>167</ele>
        <time>2013-08-17T08:49:05Z</time>
      </trkpt>
      <trkpt lat="48.64772" lon="2.02769">
        <ele>167</ele>
        <time>2013-08-17T08:49:07Z</time>
      </trkpt>
      <trkpt lat="48.6478" lon="2.02769">
        <ele>167</ele>
        <time>2013-08-17T08:49:09Z</time>
      </trkpt>
      <trkpt lat="48.64788" lon="2.0277">
        <ele>167</ele>
        <time>2013-08-17T08:49:11Z</time>
      </trkpt>
      <trkpt lat="48.64795" lon="2.0277">
        <ele>168</ele>
        <time>2013-08-17T08:49:13Z</time>
      </trkpt>
      <trkpt lat="48.64803" lon="2.02769">
        <ele>168</ele>
        <time>2013-08-17T08:49:15Z</time>
      </trkpt>
      <trkpt lat="48.64812" lon="2.0277">
        <ele>168</ele>
        <time>2013-08-17T08:49:17Z</time>
      </trkpt>
      <trkpt lat="48.64823" lon="2.0277">
        <ele>168</ele>
        <time>2013-08-17T08:49:20Z</time>
      </trkpt>
      <trkpt lat="48.64829" lon="2.0277">
        <ele>168</ele>
        <time>2013-08-17T08:49:22Z</time>
      </trkpt>
      <trkpt lat="48.64833" lon="2.02771">
        <ele>168</ele>
        <time>2013-08-17T08:49:24Z</time>
      </trkpt>
      <trkpt lat="48.64836" lon="2.02771">
        <ele>168</ele>
        <time>2013-08-17T08:49:26Z</time>
      </trkpt>
      <trkpt lat="48.64839" lon="2.02771">
        <ele>168</ele>
        <time>2013-08-17T08:49:28Z</time>
      </trkpt>
      <trkpt lat="48.64841" lon="2.0277">
        <ele>168</ele>
        <time>2013-08-17T08:49:30Z</time>
      </trkpt>
      <trkpt lat="48.64844" lon="2.02769">
        <ele>168</ele>
        <time>2013-08-17T08:49:32Z</time>
      </trkpt>
      <trkpt lat="48.64847" lon="2.02766">
        <ele>169</ele>
        <time>2013-08-17T08:49:35Z</time>
      </trkpt>
      <trkpt lat="48.64848" lon="2.02762">
        <ele>169</ele>
        <time>2013-08-17T08:49:37Z</time>
      </trkpt>
      <trkpt lat="48.64849" lon="2.02757">
        <ele>169</ele>
        <time>2013-08-17T08:49:39Z</time>
      </trkpt>
      <trkpt lat="48.6485" lon="2.02753">
        <ele>169</ele>
        <time>2013-08-17T08:49:41Z</time>
      </trkpt>
      <trkpt lat="48.6485" lon="2.02748">
        <ele>169</ele>
        <time>2013-08-17T08:49:43Z</time>
      </trkpt>
      <trkpt lat="48.64851" lon="2.02743">
        <ele>169</ele>
        <time>2013-08-17T08:49:45Z</time>
      </trkpt>
      <trkpt lat="48.64851" lon="2.02739">
        <ele>169</ele>
        <time>2013-08-17T08:49:47Z</time>
      </trkpt>
      <trkpt lat="48.64851" lon="2.02734">
        <ele>169</ele>
        <time>2013-08-17T08:49:49Z</time>
      </trkpt>
      <trkpt lat="48.64852" lon="2.02729">
        <ele>169</ele>
        <time>2013-08-17T08:49:51Z</time>
      </trkpt>
      <trkpt lat="48.64853" lon="2.02725">
        <ele>169</ele>
        <time>2013-08-17T08:49:53Z</time>
      </trkpt>
      <trkpt lat="48.64854" lon="2.0272">
        <ele>169</ele>
        <time>2013-08-17T08:49:55Z</time>
      </trkpt>
      <trkpt lat="48.64855" lon="2.02716">
        <ele>169</ele>
        <time>2013-08-17T08:49:57Z</time>
      </trkpt>
      <trkpt lat="48.64856" lon="2.02712">
        <ele>169</ele>
        <time>2013-08-17T08:49:59Z</time>
      </trkpt>
      <trkpt lat="48.64857" lon="2.02707">
        <ele>169</ele>
        <time>2013-08-17T08:50:01Z</time>
      </trkpt>
      <trkpt lat="48.64857" lon="2.02703">
        <ele>169</ele>
        <time>2013-08-17T08:50:03Z</time>
      </trkpt>
      <trkpt lat="48.64858" lon="2.02699">
        <ele>169</ele>
        <time>2013-08-17T08:50:05Z</time>
      </trkpt>
      <trkpt lat="48.64859" lon="2.02695">
        <ele>169</ele>
        <time>2013-08-17T08:50:07Z</time>
      </trkpt>
      <trkpt lat="48.6486" lon="2.0269">
        <ele>169</ele>
        <time>2013-08-17T08:50:09Z</time>
      </trkpt>
      <trkpt lat="48.6486" lon="2.02685">
        <ele>169</ele>
        <time>2013-08-17T08:50:11Z</time>
      </trkpt>
      <trkpt lat="48.64861" lon="2.02681">
        <ele>169</ele>
        <time>2013-08-17T08:50:13Z</time>
      </trkpt>
      <trkpt lat="48.64861" lon="2.02676">
        <ele>169</ele>
        <time>2013-08-17T08:50:15Z</time>
      </trkpt>
      <trkpt lat="48.64862" lon="2.02672">
        <ele>169</ele>
        <time>2013-08-17T08:50:17Z</time>
      </trkpt>
      <trkpt lat="48.64862" lon="2.02667">
        <ele>169</ele>
        <time>2013-08-17T08:50:19Z</time>
      </trkpt>
      <trkpt lat="48.64863" lon="2.02663">
        <ele>169</ele>
        <time>2013-08-17T08:50:21Z</time>
      </trkpt>
      <trkpt lat="48.64864" lon="2.02659">
        <ele>169</ele>
        <time>2013-08-17T08:50:23Z</time>
      </trkpt>
      <trkpt lat="48.64865" lon="2.02654">
        <ele>169</ele>
        <time>2013-08-17T08:50:25Z</time>
      </trkpt>
      <trkpt lat="48.64866" lon="2.02648">
        <ele>169</ele>
        <time>2013-08-17T08:50:28Z</time>
      </trkpt>
      <trkpt lat="48.64867" lon="2.02644">
        <ele>169</ele>
        <time>2013-08-17T08:50:30Z</time>
      </trkpt>
      <trkpt lat="48.64867" lon="2.0264">
        <ele>169</ele>
        <time>2013-08-17T08:50:32Z</time>
      </trkpt>
      <trkpt lat="48.64868" lon="2.02636">
        <ele>169</ele>
        <time>2013-08-17T08:50:34Z</time>
      </trkpt>
      <trkpt lat="48.64869" lon="2.02631">
        <ele>169</ele>
        <time>2013-08-17T08:50:36Z</time>
      </trkpt>
      <trkpt lat="48.6487" lon="2.02627">
        <ele>169</ele>
        <time>2013-08-17T08:50:38Z</time>
      </trkpt>
      <trkpt lat="48.6487" lon="2.02623">
        <ele>169</ele>
        <time>2013-08-17T08:50:40Z</time>
      </trkpt>
      <trkpt lat="48.64871" lon="2.02619">
        <ele>169</ele>
        <time>2013-08-17T08:50:42Z</time>
      </trkpt>
      <trkpt lat="48.64872" lon="2.02614">
        <ele>169</ele>
        <time>2013-08-17T08:50:44Z</time>
      </trkpt>
      <trkpt lat="48.64873" lon="2.0261">
        <ele>169</ele>
        <time>2013-08-17T08:50:46Z</time>
      </trkpt>
      <trkpt lat="48.64874" lon="2.02606">
        <ele>169</ele>
        <time>2013-08-17T08:50:48Z</time>
      </trkpt>
      <trkpt lat="48.64875" lon="2.02602">
        <ele>169</ele>
        <time>2013-08-17T08:50:50Z</time>
      </trkpt>
      <trkpt lat="48.64875" lon="2.02598">
        <ele>169</ele>
        <time>2013-08-17T08:50:52Z</time>
      </trkpt>
      <trkpt lat="48.64876" lon="2.02594">
        <ele>169</ele>
        <time>2013-08-17T08:50:54Z</time>
      </trkpt>
      <trkpt lat="48.64877" lon="2.02588">
        <ele>169</ele>
        <time>2013-08-17T08:50:57Z</time>
      </trkpt>
      <trkpt lat="48.64878" lon="2.02584">
        <ele>169</ele>
        <time>2013-08-17T08:50:59Z</time>
      </trkpt>
      <trkpt lat="48.64879" lon="2.0258">
        <ele>169</ele>
        <time>2013-08-17T08:51:01Z</time>
      </trkpt>
      <trkpt lat="48.6488" lon="2.02574">
        <ele>169</ele>
        <time>2013-08-17T08:51:04Z</time>
      </trkpt>
      <trkpt lat="48.6488" lon="2.02571">
        <ele>169</ele>
        <time>2013-08-17T08:51:06Z</time>
      </trkpt>
      <trkpt lat="48.64881" lon="2.02567">
        <ele>169</ele>
        <time>2013-08-17T08:51:08Z</time>
      </trkpt>
      <trkpt lat="48.64882" lon="2.02563">
        <ele>169</ele>
        <time>2013-08-17T08:51:10Z</time>
      </trkpt>
      <trkpt lat="48.64883" lon="2.02558">
        <ele>169</ele>
        <time>2013-08-17T08:51:12Z</time>
      </trkpt>
      <trkpt lat="48.64884" lon="2.02554">
        <ele>169</ele>
        <time>2013-08-17T08:51:14Z</time>
      </trkpt>
      <trkpt lat="48.64885" lon="2.0255">
        <ele>169</ele>
        <time>2013-08-17T08:51:16Z</time>
      </trkpt>
      <trkpt lat="48.64886" lon="2.02544">
        <ele>169</ele>
        <time>2013-08-17T08:51:19Z</time>
      </trkpt>
      <trkpt lat="48.64887" lon="2.0254">
        <ele>169</ele>
        <time>2013-08-17T08:51:21Z</time>
      </trkpt>
      <trkpt lat="48.64888" lon="2.02536">
        <ele>169</ele>
        <time>2013-08-17T08:51:23Z</time>
      </trkpt>
      <trkpt lat="48.64889" lon="2.02532">
        <ele>169</ele>
        <time>2013-08-17T08:51:25Z</time>
      </trkpt>
      <trkpt lat="48.64889" lon="2.02527">
        <ele>169</ele>
        <time>2013-08-17T08:51:27Z</time>
      </trkpt>
      <trkpt lat="48.6489" lon="2.02523">
        <ele>169</ele>
        <time>2013-08-17T08:51:29Z</time>
      </trkpt>
      <trkpt lat="48.64891" lon="2.02519">
        <ele>169</ele>
        <time>2013-08-17T08:51:31Z</time>
      </trkpt>
      <trkpt lat="48.64892" lon="2.02515">
        <ele>169</ele>
        <time>2013-08-17T08:51:33Z</time>
      </trkpt>
      <trkpt lat="48.64893" lon="2.02511">
        <ele>169</ele>
        <time>2013-08-17T08:51:35Z</time>
      </trkpt>
      <trkpt lat="48.64893" lon="2.02507">
        <ele>169</ele>
        <time>2013-08-17T08:51:37Z</time>
      </trkpt>
      <trkpt lat="48.64895" lon="2.02502">
        <ele>169</ele>
        <time>2013-08-17T08:51:40Z</time>
      </trkpt>
      <trkpt lat="48.64896" lon="2.02498">
        <ele>169</ele>
        <time>2013-08-17T08:51:42Z</time>
      </trkpt>
      <trkpt lat="48.64896" lon="2.02493">
        <ele>169</ele>
        <time>2013-08-17T08:51:44Z</time>
      </trkpt>
      <trkpt lat="48.64897" lon="2.02489">
        <ele>169</ele>
        <time>2013-08-17T08:51:46Z</time>
      </trkpt>
      <trkpt lat="48.64898" lon="2.02485">
        <ele>169</ele>
        <time>2013-08-17T08:51:48Z</time>
      </trkpt>
      <trkpt lat="48.64899" lon="2.02478">
        <ele>169</ele>
        <time>2013-08-17T08:51:51Z</time>
      </trkpt>
      <trkpt lat="48.64899" lon="2.02474">
        <ele>169</ele>
        <time>2013-08-17T08:51:53Z</time>
      </trkpt>
      <trkpt lat="48.64901" lon="2.0247">
        <ele>169</ele>
        <time>2013-08-17T08:51:55Z</time>
      </trkpt>
      <trkpt lat="48.64901" lon="2.02466">
        <ele>169</ele>
        <time>2013-08-17T08:51:57Z</time>
      </trkpt>
      <trkpt lat="48.64902" lon="2.02462">
        <ele>169</ele>
        <time>2013-08-17T08:51:59Z</time>
      </trkpt>
      <trkpt lat="48.64903" lon="2.02457">
        <ele>169</ele>
        <time>2013-08-17T08:52:01Z</time>
      </trkpt>
      <trkpt lat="48.64903" lon="2.02453">
        <ele>169</ele>
        <time>2013-08-17T08:52:03Z</time>
      </trkpt>
      <trkpt lat="48.64904" lon="2.02447">
        <ele>169</ele>
        <time>2013-08-17T08:52:06Z</time>
      </trkpt>
      <trkpt lat="48.64905" lon="2.02443">
        <ele>169</ele>
        <time>2013-08-17T08:52:08Z</time>
      </trkpt>
      <trkpt lat="48.64906" lon="2.02439">
        <ele>169</ele>
        <time>2013-08-17T08:52:10Z</time>
      </trkpt>
      <trkpt lat="48.64906" lon="2.02435">
        <ele>169</ele>
        <time>2013-08-17T08:52:12Z</time>
      </trkpt>
      <trkpt lat="48.64907" lon="2.02431">
        <ele>169</ele>
        <time>2013-08-17T08:52:14Z</time>
      </trkpt>
      <trkpt lat="48.64908" lon="2.02427">
        <ele>169</ele>
        <time>2013-08-17T08:52:16Z</time>
      </trkpt>
      <trkpt lat="48.64909" lon="2.02423">
        <ele>169</ele>
        <time>2013-08-17T08:52:18Z</time>
      </trkpt>
      <trkpt lat="48.64909" lon="2.02419">
        <ele>169</ele>
        <time>2013-08-17T08:52:20Z</time>
      </trkpt>
      <trkpt lat="48.6491" lon="2.02415">
        <ele>169</ele>
        <time>2013-08-17T08:52:22Z</time>
      </trkpt>
      <trkpt lat="48.64911" lon="2.02412">
        <ele>169</ele>
        <time>2013-08-17T08:52:24Z</time>
      </trkpt>
      <trkpt lat="48.64912" lon="2.02408">
        <ele>169</ele>
        <time>2013-08-17T08:52:26Z</time>
      </trkpt>
      <trkpt lat="48.64912" lon="2.02404">
        <ele>169</ele>
        <time>2013-08-17T08:52:28Z</time>
      </trkpt>
      <trkpt lat="48.64913" lon="2.024">
        <ele>169</ele>
        <time>2013-08-17T08:52:30Z</time>
      </trkpt>
      <trkpt lat="48.64914" lon="2.02397">
        <ele>169</ele>
        <time>2013-08-17T08:52:32Z</time>
      </trkpt>
      <trkpt lat="48.64915" lon="2.02393">
        <ele>169</ele>
        <time>2013-08-17T08:52:34Z</time>
      </trkpt>
      <trkpt lat="48.64915" lon="2.02389">
        <ele>169</ele>
        <time>2013-08-17T08:52:36Z</time>
      </trkpt>
      <trkpt lat="48.64916" lon="2.02385">
        <ele>169</ele>
        <time>2013-08-17T08:52:38Z</time>
      </trkpt>
      <trkpt lat="48.64917" lon="2.02379">
        <ele>169</ele>
        <time>2013-08-17T08:52:41Z</time>
      </trkpt>
      <trkpt lat="48.64918" lon="2.02375">
        <ele>169</ele>
        <time>2013-08-17T08:52:43Z</time>
      </trkpt>
      <trkpt lat="48.64919" lon="2.02371">
        <ele>169</ele>
        <time>2013-08-17T08:52:45Z</time>
      </trkpt>
      <trkpt lat="48.6492" lon="2.02367">
        <ele>169</ele>
        <time>2013-08-17T08:52:47Z</time>
      </trkpt>
      <trkpt lat="48.64921" lon="2.02363">
        <ele>169</ele>
        <time>2013-08-17T08:52:49Z</time>
      </trkpt>
      <trkpt lat="48.64922" lon="2.0236">
        <ele>169</ele>
        <time>2013-08-17T08:52:51Z</time>
      </trkpt>
      <trkpt lat="48.64923" lon="2.02354">
        <ele>169</ele>
        <time>2013-08-17T08:52:54Z</time>
      </trkpt>
      <trkpt lat="48.64923" lon="2.0235">
        <ele>169</ele>
        <time>2013-08-17T08:52:56Z</time>
      </trkpt>
      <trkpt lat="48.64925" lon="2.02346">
        <ele>169</ele>
        <time>2013-08-17T08:52:58Z</time>
      </trkpt>
      <trkpt lat="48.64925" lon="2.02343">
        <ele>169</ele>
        <time>2013-08-17T08:53:00Z</time>
      </trkpt>
      <trkpt lat="48.64926" lon="2.02339">
        <ele>169</ele>
        <time>2013-08-17T08:53:02Z</time>
      </trkpt>
      <trkpt lat="48.64927" lon="2.02335">
        <ele>169</ele>
        <time>2013-08-17T08:53:04Z</time>
      </trkpt>
      <trkpt lat="48.64928" lon="2.02331">
        <ele>169</ele>
        <time>2013-08-17T08:53:06Z</time>
      </trkpt>
      <trkpt lat="48.6493" lon="2.02329">
        <ele>169</ele>
        <time>2013-08-17T08:53:08Z</time>
      </trkpt>
      <trkpt lat="48.64931" lon="2.02326">
        <ele>169</ele>
        <time>2013-08-17T08:53:10Z</time>
      </trkpt>
      <trkpt lat="48.64932" lon="2.02323">
        <ele>169</ele>
        <time>2013-08-17T08:53:12Z</time>
      </trkpt>
      <trkpt lat="48.64933" lon="2.02318">
        <ele>169</ele>
        <time>2013-08-17T08:53:15Z</time>
      </trkpt>
      <trkpt lat="48.64934" lon="2.02313">
        <ele>169</ele>
        <time>2013-08-17T08:53:17Z</time>
      </trkpt>
      <trkpt lat="48.64935" lon="2.02307">
        <ele>169</ele>
        <time>2013-08-17T08:53:20Z</time>
      </trkpt>
      <trkpt lat="48.64936" lon="2.02303">
        <ele>169</ele>
        <time>2013-08-17T08:53:22Z</time>
      </trkpt>
      <trkpt lat="48.64937" lon="2.02299">
        <ele>169</ele>
        <time>2013-08-17T08:53:24Z</time>
      </trkpt>
      <trkpt lat="48.64938" lon="2.02295">
        <ele>169</ele>
        <time>2013-08-17T08:53:26Z</time>
      </trkpt>
      <trkpt lat="48.64939" lon="2.02291">
        <ele>169</ele>
        <time>2013-08-17T08:53:28Z</time>
      </trkpt>
      <trkpt lat="48.64939" lon="2.02287">
        <ele>169</ele>
        <time>2013-08-17T08:53:30Z</time>
      </trkpt>
      <trkpt lat="48.64941" lon="2.02281">
        <ele>169</ele>
        <time>2013-08-17T08:53:33Z</time>
      </trkpt>
      <trkpt lat="48.64941" lon="2.02277">
        <ele>169</ele>
        <time>2013-08-17T08:53:35Z</time>
      </trkpt>
      <trkpt lat="48.64942" lon="2.02273">
        <ele>169</ele>
        <time>2013-08-17T08:53:37Z</time>
      </trkpt>
      <trkpt lat="48.64942" lon="2.02269">
        <ele>169</ele>
        <time>2013-08-17T08:53:39Z</time>
      </trkpt>
      <trkpt lat="48.64942" lon="2.02265">
        <ele>169</ele>
        <time>2013-08-17T08:53:41Z</time>
      </trkpt>
      <trkpt lat="48.64942" lon="2.02261">
        <ele>169</ele>
        <time>2013-08-17T08:53:43Z</time>
      </trkpt>
      <trkpt lat="48.64941" lon="2.02256">
        <ele>169</ele>
        <time>2013-08-17T08:53:45Z</time>
      </trkpt>
      <trkpt lat="48.6494" lon="2.0225">
        <ele>169</ele>
        <time>2013-08-17T08:53:48Z</time>
      </trkpt>
      <trkpt lat="48.64939" lon="2.02246">
        <ele>169</ele>
        <time>2013-08-17T08:53:50Z</time>
      </trkpt>
      <trkpt lat="48.64938" lon="2.02242">
        <ele>169</ele>
        <time>2013-08-17T08:53:52Z</time>
      </trkpt>
      <trkpt lat="48.64937" lon="2.02238">
        <ele>169</ele>
        <time>2013-08-17T08:53:54Z</time>
      </trkpt>
      <trkpt lat="48.64936" lon="2.02234">
        <ele>169</ele>
        <time>2013-08-17T08:53:56Z</time>
      </trkpt>
      <trkpt lat="48.64935" lon="2.02229">
        <ele>169</ele>
        <time>2013-08-17T08:53:58Z</time>
      </trkpt>
      <trkpt lat="48.64934" lon="2.02224">
        <ele>169</ele>
        <time>2013-08-17T08:54:00Z</time>
      </trkpt>
      <trkpt lat="48.64933" lon="2.02219">
        <ele>169</ele>
        <time>2013-08-17T08:54:02Z</time>
      </trkpt>
      <trkpt lat="48.64933" lon="2.02214">
        <ele>169</ele>
        <time>2013-08-17T08:54:04Z</time>
      </trkpt>
      <trkpt lat="48.64933" lon="2.02209">
        <ele>169</ele>
        <time>2013-08-17T08:54:06Z</time>
      </trkpt>
      <trkpt lat="48.64933" lon="2.02205">
        <ele>169</ele>
        <time>2013-08-17T08:54:08Z</time>
      </trkpt>
      <trkpt lat="48.64933" lon="2.022">
        <ele>169</ele>
        <time>2013-08-17T08:54:10Z</time>
      </trkpt>
      <trkpt lat="48.64934" lon="2.02195">
        <ele>169</ele>
        <time>2013-08-17T08:54:12Z</time>
      </trkpt>
      <trkpt lat="48.64934" lon="2.0219">
        <ele>169</ele>
        <time>2013-08-17T08:54:14Z</time>
      </trkpt>
      <trkpt lat="48.64935" lon="2.02183">
        <ele>169</ele>
        <time>2013-08-17T08:54:17Z</time>
      </trkpt>
      <trkpt lat="48.64935" lon="2.02179">
        <ele>169</ele>
        <time>2013-08-17T08:54:19Z</time>
      </trkpt>
      <trkpt lat="48.64936" lon="2.02174">
        <ele>169</ele>
        <time>2013-08-17T08:54:21Z</time>
      </trkpt>
      <trkpt lat="48.64936" lon="2.0217">
        <ele>169</ele>
        <time>2013-08-17T08:54:23Z</time>
      </trkpt>
      <trkpt lat="48.64937" lon="2.02165">
        <ele>169</ele>
        <time>2013-08-17T08:54:25Z</time>
      </trkpt>
      <trkpt lat="48.64938" lon="2.02158">
        <ele>169</ele>
        <time>2013-08-17T08:54:28Z</time>
      </trkpt>
      <trkpt lat="48.64938" lon="2.02154">
        <ele>169</ele>
        <time>2013-08-17T08:54:30Z</time>
      </trkpt>
      <trkpt lat="48.64939" lon="2.02147">
        <ele>169</ele>
        <time>2013-08-17T08:54:33Z</time>
      </trkpt>
      <trkpt lat="48.64941" lon="2.02143">
        <ele>169</ele>
        <time>2013-08-17T08:54:35Z</time>
      </trkpt>
      <trkpt lat="48.64943" lon="2.02139">
        <ele>169</ele>
        <time>2013-08-17T08:54:37Z</time>
      </trkpt>
      <trkpt lat="48.64946" lon="2.02136">
        <ele>169</ele>
        <time>2013-08-17T08:54:39Z</time>
      </trkpt>
      <trkpt lat="48.64948" lon="2.02134">
        <ele>169</ele>
        <time>2013-08-17T08:54:41Z</time>
      </trkpt>
      <trkpt lat="48.64953" lon="2.02133">
        <ele>169</ele>
        <time>2013-08-17T08:54:44Z</time>
      </trkpt>
      <trkpt lat="48.64956" lon="2.02132">
        <ele>169</ele>
        <time>2013-08-17T08:54:46Z</time>
      </trkpt>
      <trkpt lat="48.6496" lon="2.02132">
        <ele>169</ele>
        <time>2013-08-17T08:54:49Z</time>
      </trkpt>
      <trkpt lat="48.64963" lon="2.02131">
        <ele>169</ele>
        <time>2013-08-17T08:54:51Z</time>
      </trkpt>
      <trkpt lat="48.64965" lon="2.0213">
        <ele>169</ele>
        <time>2013-08-17T08:54:53Z</time>
      </trkpt>
      <trkpt lat="48.64969" lon="2.02126">
        <ele>169</ele>
        <time>2013-08-17T08:54:56Z</time>
      </trkpt>
      <trkpt lat="48.64971" lon="2.02123">
        <ele>169</ele>
        <time>2013-08-17T08:54:58Z</time>
      </trkpt>
      <trkpt lat="48.64973" lon="2.02119">
        <ele>169</ele>
        <time>2013-08-17T08:55:00Z</time>
      </trkpt>
      <trkpt lat="48.64973" lon="2.02115">
        <ele>169</ele>
        <time>2013-08-17T08:55:02Z</time>
      </trkpt>
      <trkpt lat="48.64973" lon="2.02107">
        <ele>169</ele>
        <time>2013-08-17T08:55:05Z</time>
      </trkpt>
      <trkpt lat="48.64973" lon="2.02102">
        <ele>169</ele>
        <time>2013-08-17T08:55:07Z</time>
      </trkpt>
      <trkpt lat="48.64973" lon="2.02098">
        <ele>169</ele>
        <time>2013-08-17T08:55:09Z</time>
      </trkpt>
      <trkpt lat="48.64973" lon="2.02091">
        <ele>169</ele>
        <time>2013-08-17T08:55:12Z</time>
      </trkpt>
      <trkpt lat="48.64973" lon="2.02083">
        <ele>169</ele>
        <time>2013-08-17T08:55:15Z</time>
      </trkpt>
      <trkpt lat="48.64974" lon="2.02079">
        <ele>169</ele>
        <time>2013-08-17T08:55:17Z</time>
      </trkpt>
      <trkpt lat="48.64974" lon="2.02074">
        <ele>169</ele>
        <time>2013-08-17T08:55:19Z</time>
      </trkpt>
      <trkpt lat="48.64974" lon="2.02069">
        <ele>169</ele>
        <time>2013-08-17T08:55:21Z</time>
      </trkpt>
      <trkpt lat="48.64975" lon="2.02064">
        <ele>169</ele>
        <time>2013-08-17T08:55:23Z</time>
      </trkpt>
      <trkpt lat="48.64975" lon="2.0206">
        <ele>169</ele>
        <time>2013-08-17T08:55:25Z</time>
      </trkpt>
      <trkpt lat="48.64975" lon="2.02055">
        <ele>169</ele>
        <time>2013-08-17T08:55:27Z</time>
      </trkpt>
      <trkpt lat="48.64976" lon="2.02047">
        <ele>169</ele>
        <time>2013-08-17T08:55:30Z</time>
      </trkpt>
      <trkpt lat="48.64976" lon="2.02042">
        <ele>169</ele>
        <time>2013-08-17T08:55:32Z</time>
      </trkpt>
      <trkpt lat="48.64976" lon="2.02037">
        <ele>169</ele>
        <time>2013-08-17T08:55:34Z</time>
      </trkpt>
      <trkpt lat="48.64976" lon="2.02032">
        <ele>169</ele>
        <time>2013-08-17T08:55:36Z</time>
      </trkpt>
      <trkpt lat="48.64976" lon="2.02027">
        <ele>169</ele>
        <time>2013-08-17T08:55:38Z</time>
      </trkpt>
      <trkpt lat="48.64977" lon="2.02022">
        <ele>169</ele>
        <time>2013-08-17T08:55:40Z</time>
      </trkpt>
      <trkpt lat="48.64977" lon="2.02017">
        <ele>169</ele>
        <time>2013-08-17T08:55:42Z</time>
      </trkpt>
      <trkpt lat="48.64977" lon="2.02012">
        <ele>169</ele>
        <time>2013-08-17T08:55:44Z</time>
      </trkpt>
      <trkpt lat="48.64978" lon="2.02007">
        <ele>169</ele>
        <time>2013-08-17T08:55:46Z</time>
      </trkpt>
      <trkpt lat="48.64977" lon="2.02002">
        <ele>169</ele>
        <time>2013-08-17T08:55:48Z</time>
      </trkpt>
      <trkpt lat="48.64978" lon="2.01997">
        <ele>169</ele>
        <time>2013-08-17T08:55:50Z</time>
      </trkpt>
      <trkpt lat="48.64978" lon="2.01992">
        <ele>169</ele>
        <time>2013-08-17T08:55:52Z</time>
      </trkpt>
      <trkpt lat="48.64979" lon="2.01987">
        <ele>169</ele>
        <time>2013-08-17T08:55:54Z</time>
      </trkpt>
      <trkpt lat="48.64979" lon="2.01981">
        <ele>169</ele>
        <time>2013-08-17T08:55:56Z</time>
      </trkpt>
      <trkpt lat="48.6498" lon="2.01975">
        <ele>169</ele>
        <time>2013-08-17T08:55:58Z</time>
      </trkpt>
      <trkpt lat="48.6498" lon="2.0197">
        <ele>169</ele>
        <time>2013-08-17T08:56:00Z</time>
      </trkpt>
      <trkpt lat="48.6498" lon="2.01964">
        <ele>169</ele>
        <time>2013-08-17T08:56:02Z</time>
      </trkpt>
      <trkpt lat="48.64981" lon="2.01959">
        <ele>169</ele>
        <time>2013-08-17T08:56:04Z</time>
      </trkpt>
      <trkpt lat="48.64981" lon="2.01954">
        <ele>169</ele>
        <time>2013-08-17T08:56:06Z</time>
      </trkpt>
      <trkpt lat="48.64982" lon="2.01949">
        <ele>169</ele>
        <time>2013-08-17T08:56:08Z</time>
      </trkpt>
      <trkpt lat="48.64982" lon="2.01944">
        <ele>169</ele>
        <time>2013-08-17T08:56:10Z</time>
      </trkpt>
      <trkpt lat="48.64983" lon="2.01939">
        <ele>169</ele>
        <time>2013-08-17T08:56:12Z</time>
      </trkpt>
      <trkpt lat="48.64983" lon="2.01934">
        <ele>169</ele>
        <time>2013-08-17T08:56:14Z</time>
      </trkpt>
      <trkpt lat="48.64983" lon="2.01929">
        <ele>169</ele>
        <time>2013-08-17T08:56:16Z</time>
      </trkpt>
      <trkpt lat="48.64984" lon="2.01924">
        <ele>169</ele>
        <time>2013-08-17T08:56:18Z</time>
      </trkpt>
      <trkpt lat="48.64985" lon="2.01919">
        <ele>169</ele>
        <time>2013-08-17T08:56:20Z</time>
      </trkpt>
      <trkpt lat="48.64985" lon="2.01914">
        <ele>169</ele>
        <time>2013-08-17T08:56:22Z</time>
      </trkpt>
      <trkpt lat="48.64986" lon="2.01909">
        <ele>169</ele>
        <time>2013-08-17T08:56:24Z</time>
      </trkpt>
      <trkpt lat="48.64986" lon="2.01902">
        <ele>169</ele>
        <time>2013-08-17T08:56:27Z</time>
      </trkpt>
      <trkpt lat="48.64987" lon="2.01897">
        <ele>169</ele>
        <time>2013-08-17T08:56:29Z</time>
      </trkpt>
      <trkpt lat="48.64988" lon="2.01892">
        <ele>169</ele>
        <time>2013-08-17T08:56:31Z</time>
      </trkpt>
      <trkpt lat="48.64988" lon="2.01887">
        <ele>169</ele>
        <time>2013-08-17T08:56:33Z</time>
      </trkpt>
      <trkpt lat="48.64989" lon="2.01882">
        <ele>169</ele>
        <time>2013-08-17T08:56:35Z</time>
      </trkpt>
      <trkpt lat="48.6499" lon="2.01877">
        <ele>169</ele>
        <time>2013-08-17T08:56:37Z</time>
      </trkpt>
      <trkpt lat="48.64991" lon="2.01872">
        <ele>169</ele>
        <time>2013-08-17T08:56:39Z</time>
      </trkpt>
      <trkpt lat="48.64991" lon="2.01867">
        <ele>169</ele>
        <time>2013-08-17T08:56:41Z</time>
      </trkpt>
      <trkpt lat="48.64992" lon="2.01862">
        <ele>169</ele>
        <time>2013-08-17T08:56:43Z</time>
      </trkpt>
      <trkpt lat="48.64993" lon="2.01857">
        <ele>169</ele>
        <time>2013-08-17T08:56:45Z</time>
      </trkpt>
      <trkpt lat="48.64994" lon="2.01852">
        <ele>169</ele>
        <time>2013-08-17T08:56:47Z</time>
      </trkpt>
      <trkpt lat="48.64995" lon="2.01847">
        <ele>169</ele>
        <time>2013-08-17T08:56:49Z</time>
      </trkpt>
      <trkpt lat="48.64996" lon="2.01842">
        <ele>169</ele>
        <time>2013-08-17T08:56:51Z</time>
      </trkpt>
      <trkpt lat="48.64997" lon="2.01837">
        <ele>169</ele>
        <time>2013-08-17T08:56:53Z</time>
      </trkpt>
      <trkpt lat="48.64999" lon="2.01832">
        <ele>169</ele>
        <time>2013-08-17T08:56:55Z</time>
      </trkpt>
      <trkpt lat="48.64999" lon="2.01827">
        <ele>169</ele>
        <time>2013-08-17T08:56:57Z</time>
      </trkpt>
      <trkpt lat="48.65001" lon="2.01822">
        <ele>169</ele>
        <time>2013-08-17T08:56:59Z</time>
      </trkpt>
      <trkpt lat="48.65002" lon="2.01817">
        <ele>169</ele>
        <time>2013-08-17T08:57:01Z</time>
      </trkpt>
      <trkpt lat="48.65003" lon="2.01813">
        <ele>169</ele>
        <time>2013-08-17T08:57:03Z</time>
      </trkpt>
      <trkpt lat="48.65005" lon="2.01808">
        <ele>169</ele>
        <time>2013-08-17T08:57:05Z</time>
      </trkpt>
      <trkpt lat="48.65006" lon="2.01803">
        <ele>169</ele>
        <time>2013-08-17T08:57:07Z</time>
      </trkpt>
      <trkpt lat="48.65007" lon="2.01799">
        <ele>169</ele>
        <time>2013-08-17T08:57:09Z</time>
      </trkpt>
      <trkpt lat="48.65008" lon="2.01794">
        <ele>169</ele>
        <time>2013-08-17T08:57:11Z</time>
      </trkpt>
      <trkpt lat="48.6501" lon="2.01789">
        <ele>169</ele>
        <time>2013-08-17T08:57:13Z</time>
      </trkpt>
      <trkpt lat="48.65011" lon="2.01784">
        <ele>169</ele>
        <time>2013-08-17T08:57:15Z</time>
      </trkpt>
      <trkpt lat="48.65012" lon="2.0178">
        <ele>169</ele>
        <time>2013-08-17T08:57:17Z</time>
      </trkpt>
      <trkpt lat="48.65013" lon="2.01775">
        <ele>169</ele>
        <time>2013-08-17T08:57:19Z</time>
      </trkpt>
      <trkpt lat="48.65015" lon="2.0177">
        <ele>169</ele>
        <time>2013-08-17T08:57:21Z</time>
      </trkpt>
      <trkpt lat="48.65016" lon="2.01765">
        <ele>169</ele>
        <time>2013-08-17T08:57:23Z</time>
      </trkpt>
      <trkpt lat="48.65017" lon="2.01761">
        <ele>169</ele>
        <time>2013-08-17T08:57:25Z</time>
      </trkpt>
      <trkpt lat="48.65018" lon="2.01756">
        <ele>169</ele>
        <time>2013-08-17T08:57:27Z</time>
      </trkpt>
      <trkpt lat="48.65019" lon="2.01751">
        <ele>169</ele>
        <time>2013-08-17T08:57:29Z</time>
      </trkpt>
      <trkpt lat="48.6502" lon="2.01747">
        <ele>169</ele>
        <time>2013-08-17T08:57:31Z</time>
      </trkpt>
      <trkpt lat="48.65022" lon="2.01742">
        <ele>169</ele>
        <time>2013-08-17T08:57:33Z</time>
      </trkpt>
      <trkpt lat="48.65023" lon="2.01737">
        <ele>169</ele>
        <time>2013-08-17T08:57:35Z</time>
      </trkpt>
      <trkpt lat="48.65024" lon="2.01732">
        <ele>169</ele>
        <time>2013-08-17T08:57:37Z</time>
      </trkpt>
      <trkpt lat="48.65026" lon="2.01728">
        <ele>169</ele>
        <time>2013-08-17T08:57:39Z</time>
      </trkpt>
      <trkpt lat="48.65028" lon="2.0172">
        <ele>169</ele>
        <time>2013-08-17T08:57:42Z</time>
      </trkpt>
      <trkpt lat="48.65029" lon="2.01715">
        <ele>169</ele>
        <time>2013-08-17T08:57:44Z</time>
      </trkpt>
      <trkpt lat="48.6503" lon="2.01711">
        <ele>169</ele>
        <time>2013-08-17T08:57:46Z</time>
      </trkpt>
      <trkpt lat="48.65031" lon="2.01706">
        <ele>169</ele>
        <time>2013-08-17T08:57:48Z</time>
      </trkpt>
      <trkpt lat="48.65033" lon="2.01701">
        <ele>169</ele>
        <time>2013-08-17T08:57:50Z</time>
      </trkpt>
      <trkpt lat="48.65034" lon="2.01696">
        <ele>169</ele>
        <time>2013-08-17T08:57:52Z</time>
      </trkpt>
      <trkpt lat="48.65035" lon="2.01692">
        <ele>169</ele>
        <time>2013-08-17T08:57:54Z</time>
      </trkpt>
      <trkpt lat="48.65036" lon="2.01685">
        <ele>169</ele>
        <time>2013-08-17T08:57:57Z</time>
      </trkpt>
      <trkpt lat="48.65038" lon="2.0168">
        <ele>169</ele>
        <time>2013-08-17T08:57:59Z</time>
      </trkpt>
      <trkpt lat="48.65039" lon="2.01676">
        <ele>169</ele>
        <time>2013-08-17T08:58:01Z</time>
      </trkpt>
      <trkpt lat="48.6504" lon="2.01671">
        <ele>169</ele>
        <time>2013-08-17T08:58:03Z</time>
      </trkpt>
      <trkpt lat="48.65041" lon="2.01666">
        <ele>169</ele>
        <time>2013-08-17T08:58:05Z</time>
      </trkpt>
      <trkpt lat="48.65042" lon="2.01662">
        <ele>169</ele>
        <time>2013-08-17T08:58:07Z</time>
      </trkpt>
      <trkpt lat="48.65043" lon="2.01658">
        <ele>169</ele>
        <time>2013-08-17T08:58:09Z</time>
      </trkpt>
      <trkpt lat="48.65044" lon="2.0165">
        <ele>169</ele>
        <time>2013-08-17T08:58:12Z</time>
      </trkpt>
      <trkpt lat="48.65046" lon="2.01645">
        <ele>169</ele>
        <time>2013-08-17T08:58:14Z</time>
      </trkpt>
      <trkpt lat="48.65047" lon="2.01641">
        <ele>169</ele>
        <time>2013-08-17T08:58:16Z</time>
      </trkpt>
      <trkpt lat="48.65048" lon="2.01636">
        <ele>169</ele>
        <time>2013-08-17T08:58:18Z</time>
      </trkpt>
      <trkpt lat="48.65049" lon="2.01631">
        <ele>169</ele>
        <time>2013-08-17T08:58:20Z</time>
      </trkpt>
      <trkpt lat="48.6505" lon="2.01627">
        <ele>169</ele>
        <time>2013-08-17T08:58:22Z</time>
      </trkpt>
      <trkpt lat="48.65052" lon="2.01623">
        <ele>169</ele>
        <time>2013-08-17T08:58:24Z</time>
      </trkpt>
      <trkpt lat="48.65053" lon="2.01617">
        <ele>169</ele>
        <time>2013-08-17T08:58:27Z</time>
      </trkpt>
      <trkpt lat="48.65054" lon="2.01612">
        <ele>169</ele>
        <time>2013-08-17T08:58:29Z</time>
      </trkpt>
      <trkpt lat="48.65055" lon="2.01608">
        <ele>169</ele>
        <time>2013-08-17T08:58:31Z</time>
      </trkpt>
      <trkpt lat="48.65057" lon="2.01604">
        <ele>169</ele>
        <time>2013-08-17T08:58:33Z</time>
      </trkpt>
      <trkpt lat="48.65058" lon="2.01599">
        <ele>169</ele>
        <time>2013-08-17T08:58:35Z</time>
      </trkpt>
      <trkpt lat="48.65059" lon="2.01594">
        <ele>169</ele>
        <time>2013-08-17T08:58:37Z</time>
      </trkpt>
      <trkpt lat="48.6506" lon="2.0159">
        <ele>169</ele>
        <time>2013-08-17T08:58:39Z</time>
      </trkpt>
      <trkpt lat="48.65061" lon="2.01586">
        <ele>169</ele>
        <time>2013-08-17T08:58:41Z</time>
      </trkpt>
      <trkpt lat="48.65062" lon="2.01581">
        <ele>169</ele>
        <time>2013-08-17T08:58:43Z</time>
      </trkpt>
      <trkpt lat="48.65063" lon="2.01576">
        <ele>169</ele>
        <time>2013-08-17T08:58:45Z</time>
      </trkpt>
      <trkpt lat="48.65065" lon="2.01571">
        <ele>169</ele>
        <time>2013-08-17T08:58:47Z</time>
      </trkpt>
      <trkpt lat="48.65066" lon="2.01566">
        <ele>169</ele>
        <time>2013-08-17T08:58:49Z</time>
      </trkpt>
      <trkpt lat="48.65068" lon="2.01561">
        <ele>169</ele>
        <time>2013-08-17T08:58:51Z</time>
      </trkpt>
      <trkpt lat="48.65069" lon="2.01557">
        <ele>169</ele>
        <time>2013-08-17T08:58:53Z</time>
      </trkpt>
      <trkpt lat="48.6507" lon="2.01552">
        <ele>169</ele>
        <time>2013-08-17T08:58:55Z</time>
      </trkpt>
      <trkpt lat="48.65071" lon="2.01547">
        <ele>169</ele>
        <time>2013-08-17T08:58:57Z</time>
      </trkpt>
      <trkpt lat="48.65072" lon="2.01541">
        <ele>169</ele>
        <time>2013-08-17T08:58:59Z</time>
      </trkpt>
      <trkpt lat="48.65073" lon="2.01535">
        <ele>169</ele>
        <time>2013-08-17T08:59:01Z</time>
      </trkpt>
      <trkpt lat="48.65075" lon="2.0153">
        <ele>169</ele>
        <time>2013-08-17T08:59:03Z</time>
      </trkpt>
      <trkpt lat="48.65076" lon="2.01525">
        <ele>169</ele>
        <time>2013-08-17T08:59:05Z</time>
      </trkpt>
      <trkpt lat="48.65077" lon="2.0152">
        <ele>169</ele>
        <time>2013-08-17T08:59:07Z</time>
      </trkpt>
      <trkpt lat="48.65079" lon="2.01514">
        <ele>169</ele>
        <time>2013-08-17T08:59:10Z</time>
      </trkpt>
      <trkpt lat="48.6508" lon="2.01508">
        <ele>169</ele>
        <time>2013-08-17T08:59:12Z</time>
      </trkpt>
      <trkpt lat="48.65081" lon="2.01504">
        <ele>169</ele>
        <time>2013-08-17T08:59:14Z</time>
      </trkpt>
      <trkpt lat="48.65083" lon="2.01499">
        <ele>169</ele>
        <time>2013-08-17T08:59:16Z</time>
      </trkpt>
      <trkpt lat="48.65084" lon="2.01494">
        <ele>169</ele>
        <time>2013-08-17T08:59:18Z</time>
      </trkpt>
      <trkpt lat="48.65085" lon="2.01488">
        <ele>169</ele>
        <time>2013-08-17T08:59:20Z</time>
      </trkpt>
      <trkpt lat="48.65086" lon="2.01483">
        <ele>169</ele>
        <time>2013-08-17T08:59:22Z</time>
      </trkpt>
      <trkpt lat="48.65088" lon="2.01476">
        <ele>169</ele>
        <time>2013-08-17T08:59:25Z</time>
      </trkpt>
      <trkpt lat="48.65089" lon="2.01472">
        <ele>169</ele>
        <time>2013-08-17T08:59:27Z</time>
      </trkpt>
      <trkpt lat="48.65091" lon="2.01467">
        <ele>169</ele>
        <time>2013-08-17T08:59:29Z</time>
      </trkpt>
      <trkpt lat="48.65092" lon="2.01462">
        <ele>169</ele>
        <time>2013-08-17T08:59:31Z</time>
      </trkpt>
      <trkpt lat="48.65093" lon="2.01457">
        <ele>169</ele>
        <time>2013-08-17T08:59:33Z</time>
      </trkpt>
      <trkpt lat="48.65094" lon="2.01452">
        <ele>169</ele>
        <time>2013-08-17T08:59:35Z</time>
      </trkpt>
      <trkpt lat="48.65095" lon="2.01448">
        <ele>169</ele>
        <time>2013-08-17T08:59:37Z</time>
      </trkpt>
      <trkpt lat="48.65096" lon="2.01443">
        <ele>169</ele>
        <time>2013-08-17T08:59:39Z</time>
      </trkpt>
      <trkpt lat="48.65097" lon="2.01437">
        <ele>169</ele>
        <time>2013-08-17T08:59:41Z</time>
      </trkpt>
      <trkpt lat="48.65099" lon="2.01432">
        <ele>169</ele>
        <time>2013-08-17T08:59:43Z</time>
      </trkpt>
      <trkpt lat="48.651" lon="2.01428">
        <ele>169</ele>
        <time>2013-08-17T08:59:45Z</time>
      </trkpt>
      <trkpt lat="48.65101" lon="2.01423">
        <ele>169</ele>
        <time>2013-08-17T08:59:47Z</time>
      </trkpt>
      <trkpt lat="48.65102" lon="2.01418">
        <ele>169</ele>
        <time>2013-08-17T08:59:49Z</time>
      </trkpt>
      <trkpt lat="48.65103" lon="2.01413">
        <ele>169</ele>
        <time>2013-08-17T08:59:51Z</time>
      </trkpt>
      <trkpt lat="48.65105" lon="2.01408">
        <ele>169</ele>
        <time>2013-08-17T08:59:53Z</time>
      </trkpt>
      <trkpt lat="48.65106" lon="2.01403">
        <ele>169</ele>
        <time>2013-08-17T08:59:55Z</time>
      </trkpt>
      <trkpt lat="48.65107" lon="2.01398">
        <ele>169</ele>
        <time>2013-08-17T08:59:57Z</time>
      </trkpt>
      <trkpt lat="48.65108" lon="2.01393">
        <ele>169</ele>
        <time>2013-08-17T08:59:59Z</time>
      </trkpt>
      <trkpt lat="48.65109" lon="2.01389">
        <ele>169</ele>
        <time>2013-08-17T09:00:01Z</time>
      </trkpt>
      <trkpt lat="48.6511" lon="2.01384">
        <ele>169</ele>
        <time>2013-08-17T09:00:03Z</time>
      </trkpt>
      <trkpt lat="48.65111" lon="2.01376">
        <ele>169</ele>
        <time>2013-08-17T09:00:06Z</time>
      </trkpt>
      <trkpt lat="48.65112" lon="2.01372">
        <ele>169</ele>
        <time>2013-08-17T09:00:08Z</time>
      </trkpt>
      <trkpt lat="48.65113" lon="2.01367">
        <ele>169</ele>
        <time>2013-08-17T09:00:10Z</time>
      </trkpt>
      <trkpt lat="48.65114" lon="2.01362">
        <ele>169</ele>
        <time>2013-08-17T09:00:12Z</time>
      </trkpt>
      <trkpt lat="48.65115" lon="2.01357">
        <ele>169</ele>
        <time>2013-08-17T09:00:14Z</time>
      </trkpt>
      <trkpt lat="48.65115" lon="2.01352">
        <ele>169</ele>
        <time>2013-08-17T09:00:16Z</time>
      </trkpt>
      <trkpt lat="48.65116" lon="2.01347">
        <ele>169</ele>
        <time>2013-08-17T09:00:18Z</time>
      </trkpt>
      <trkpt lat="48.65117" lon="2.01342">
        <ele>169</ele>
        <time>2013-08-17T09:00:20Z</time>
      </trkpt>
      <trkpt lat="48.65118" lon="2.01337">
        <ele>169</ele>
        <time>2013-08-17T09:00:22Z</time>
      </trkpt>
      <trkpt lat="48.65118" lon="2.01332">
        <ele>169</ele>
        <time>2013-08-17T09:00:24Z</time>
      </trkpt>
      <trkpt lat="48.6512" lon="2.01328">
        <ele>169</ele>
        <time>2013-08-17T09:00:26Z</time>
      </trkpt>
      <trkpt lat="48.6512" lon="2.01323">
        <ele>169</ele>
        <time>2013-08-17T09:00:28Z</time>
      </trkpt>
      <trkpt lat="48.65121" lon="2.01318">
        <ele>169</ele>
        <time>2013-08-17T09:00:30Z</time>
      </trkpt>
      <trkpt lat="48.65122" lon="2.01313">
        <ele>169</ele>
        <time>2013-08-17T09:00:32Z</time>
      </trkpt>
      <trkpt lat="48.65122" lon="2.01308">
        <ele>169</ele>
        <time>2013-08-17T09:00:34Z</time>
      </trkpt>
      <trkpt lat="48.65123" lon="2.01304">
        <ele>169</ele>
        <time>2013-08-17T09:00:36Z</time>
      </trkpt>
      <trkpt lat="48.65124" lon="2.01296">
        <ele>169</ele>
        <time>2013-08-17T09:00:39Z</time>
      </trkpt>
      <trkpt lat="48.65124" lon="2.01291">
        <ele>169</ele>
        <time>2013-08-17T09:00:41Z</time>
      </trkpt>
      <trkpt lat="48.65125" lon="2.01286">
        <ele>169</ele>
        <time>2013-08-17T09:00:43Z</time>
      </trkpt>
      <trkpt lat="48.65126" lon="2.01281">
        <ele>169</ele>
        <time>2013-08-17T09:00:45Z</time>
      </trkpt>
      <trkpt lat="48.65126" lon="2.01276">
        <ele>169</ele>
        <time>2013-08-17T09:00:47Z</time>
      </trkpt>
      <trkpt lat="48.65127" lon="2.01272">
        <ele>169</ele>
        <time>2013-08-17T09:00:49Z</time>
      </trkpt>
      <trkpt lat="48.65128" lon="2.01267">
        <ele>169</ele>
        <time>2013-08-17T09:00:51Z</time>
      </trkpt>
      <trkpt lat="48.65128" lon="2.01261">
        <ele>169</ele>
        <time>2013-08-17T09:00:53Z</time>
      </trkpt>
      <trkpt lat="48.65129" lon="2.01257">
        <ele>169</ele>
        <time>2013-08-17T09:00:55Z</time>
      </trkpt>
      <trkpt lat="48.65129" lon="2.01252">
        <ele>169</ele>
        <time>2013-08-17T09:00:57Z</time>
      </trkpt>
      <trkpt lat="48.6513" lon="2.01247">
        <ele>169</ele>
        <time>2013-08-17T09:00:59Z</time>
      </trkpt>
      <trkpt lat="48.65131" lon="2.01242">
        <ele>169</ele>
        <time>2013-08-17T09:01:01Z</time>
      </trkpt>
      <trkpt lat="48.65131" lon="2.01237">
        <ele>169</ele>
        <time>2013-08-17T09:01:03Z</time>
      </trkpt>
      <trkpt lat="48.65132" lon="2.01232">
        <ele>169</ele>
        <time>2013-08-17T09:01:05Z</time>
      </trkpt>
      <trkpt lat="48.65133" lon="2.01227">
        <ele>169</ele>
        <time>2013-08-17T09:01:07Z</time>
      </trkpt>
      <trkpt lat="48.65133" lon="2.01222">
        <ele>169</ele>
        <time>2013-08-17T09:01:09Z</time>
      </trkpt>
      <trkpt lat="48.65134" lon="2.01217">
        <ele>169</ele>
        <time>2013-08-17T09:01:11Z</time>
      </trkpt>
      <trkpt lat="48.65134" lon="2.01212">
        <ele>169</ele>
        <time>2013-08-17T09:01:13Z</time>
      </trkpt>
      <trkpt lat="48.65135" lon="2.01207">
        <ele>168</ele>
        <time>2013-08-17T09:01:15Z</time>
      </trkpt>
      <trkpt lat="48.65136" lon="2.01202">
        <ele>168</ele>
        <time>2013-08-17T09:01:17Z</time>
      </trkpt>
      <trkpt lat="48.65137" lon="2.01197">
        <ele>168</ele>
        <time>2013-08-17T09:01:19Z</time>
      </trkpt>
      <trkpt lat="48.6514" lon="2.01193">
        <ele>168</ele>
        <time>2013-08-17T09:01:21Z</time>
      </trkpt>
      <trkpt lat="48.65143" lon="2.0119">
        <ele>168</ele>
        <time>2013-08-17T09:01:23Z</time>
      </trkpt>
      <trkpt lat="48.65147" lon="2.0119">
        <ele>168</ele>
        <time>2013-08-17T09:01:25Z</time>
      </trkpt>
      <trkpt lat="48.6515" lon="2.0119">
        <ele>168</ele>
        <time>2013-08-17T09:01:27Z</time>
      </trkpt>
      <trkpt lat="48.65152" lon="2.0119">
        <ele>168</ele>
        <time>2013-08-17T09:01:29Z</time>
      </trkpt>
      <trkpt lat="48.65156" lon="2.0119">
        <ele>168</ele>
        <time>2013-08-17T09:01:31Z</time>
      </trkpt>
      <trkpt lat="48.65159" lon="2.0119">
        <ele>168</ele>
        <time>2013-08-17T09:01:33Z</time>
      </trkpt>
      <trkpt lat="48.65162" lon="2.01191">
        <ele>168</ele>
        <time>2013-08-17T09:01:35Z</time>
      </trkpt>
      <trkpt lat="48.65166" lon="2.01192">
        <ele>168</ele>
        <time>2013-08-17T09:01:37Z</time>
      </trkpt>
      <trkpt lat="48.65169" lon="2.01192">
        <ele>168</ele>
        <time>2013-08-17T09:01:39Z</time>
      </trkpt>
      <trkpt lat="48.65172" lon="2.01193">
        <ele>168</ele>
        <time>2013-08-17T09:01:41Z</time>
      </trkpt>
      <trkpt lat="48.65176" lon="2.01193">
        <ele>168</ele>
        <time>2013-08-17T09:01:43Z</time>
      </trkpt>
      <trkpt lat="48.65179" lon="2.01194">
        <ele>168</ele>
        <time>2013-08-17T09:01:45Z</time>
      </trkpt>
      <trkpt lat="48.65182" lon="2.01195">
        <ele>168</ele>
        <time>2013-08-17T09:01:47Z</time>
      </trkpt>
      <trkpt lat="48.65186" lon="2.01195">
        <ele>168</ele>
        <time>2013-08-17T09:01:49Z</time>
      </trkpt>
      <trkpt lat="48.65189" lon="2.01195">
        <ele>168</ele>
        <time>2013-08-17T09:01:51Z</time>
      </trkpt>
      <trkpt lat="48.65192" lon="2.01195">
        <ele>168</ele>
        <time>2013-08-17T09:01:53Z</time>
      </trkpt>
      <trkpt lat="48.65196" lon="2.01194">
        <ele>168</ele>
        <time>2013-08-17T09:01:55Z</time>
      </trkpt>
      <trkpt lat="48.652" lon="2.01194">
        <ele>168</ele>
        <time>2013-08-17T09:01:57Z</time>
      </trkpt>
      <trkpt lat="48.65203" lon="2.01194">
        <ele>168</ele>
        <time>2013-08-17T09:01:59Z</time>
      </trkpt>
      <trkpt lat="48.65206" lon="2.01194">
        <ele>168</ele>
        <time>2013-08-17T09:02:01Z</time>
      </trkpt>
      <trkpt lat="48.6521" lon="2.01194">
        <ele>168</ele>
        <time>2013-08-17T09:02:03Z</time>
      </trkpt>
      <trkpt lat="48.65213" lon="2.01193">
        <ele>168</ele>
        <time>2013-08-17T09:02:05Z</time>
      </trkpt>
      <trkpt lat="48.65219" lon="2.01193">
        <ele>168</ele>
        <time>2013-08-17T09:02:08Z</time>
      </trkpt>
      <trkpt lat="48.65222" lon="2.01193">
        <ele>168</ele>
        <time>2013-08-17T09:02:10Z</time>
      </trkpt>
      <trkpt lat="48.65226" lon="2.01192">
        <ele>168</ele>
        <time>2013-08-17T09:02:12Z</time>
      </trkpt>
      <trkpt lat="48.65229" lon="2.01191">
        <ele>168</ele>
        <time>2013-08-17T09:02:14Z</time>
      </trkpt>
      <trkpt lat="48.65232" lon="2.0119">
        <ele>168</ele>
        <time>2013-08-17T09:02:16Z</time>
      </trkpt>
      <trkpt lat="48.65238" lon="2.0119">
        <ele>168</ele>
        <time>2013-08-17T09:02:19Z</time>
      </trkpt>
      <trkpt lat="48.65241" lon="2.01189">
        <ele>168</ele>
        <time>2013-08-17T09:02:21Z</time>
      </trkpt>
      <trkpt lat="48.65246" lon="2.01188">
        <ele>168</ele>
        <time>2013-08-17T09:02:24Z</time>
      </trkpt>
      <trkpt lat="48.65251" lon="2.01188">
        <ele>168</ele>
        <time>2013-08-17T09:02:27Z</time>
      </trkpt>
      <trkpt lat="48.65254" lon="2.01187">
        <ele>168</ele>
        <time>2013-08-17T09:02:29Z</time>
      </trkpt>
      <trkpt lat="48.65259" lon="2.01187">
        <ele>168</ele>
        <time>2013-08-17T09:02:32Z</time>
      </trkpt>
      <trkpt lat="48.65264" lon="2.01186">
        <ele>169</ele>
        <time>2013-08-17T09:02:35Z</time>
      </trkpt>
      <trkpt lat="48.65268" lon="2.01185">
        <ele>169</ele>
        <time>2013-08-17T09:02:37Z</time>
      </trkpt>
      <trkpt lat="48.65271" lon="2.01185">
        <ele>169</ele>
        <time>2013-08-17T09:02:39Z</time>
      </trkpt>
      <trkpt lat="48.65274" lon="2.01184">
        <ele>169</ele>
        <time>2013-08-17T09:02:41Z</time>
      </trkpt>
      <trkpt lat="48.65278" lon="2.01184">
        <ele>169</ele>
        <time>2013-08-17T09:02:43Z</time>
      </trkpt>
      <trkpt lat="48.65282" lon="2.01183">
        <ele>169</ele>
        <time>2013-08-17T09:02:45Z</time>
      </trkpt>
      <trkpt lat="48.65285" lon="2.01183">
        <ele>169</ele>
        <time>2013-08-17T09:02:47Z</time>
      </trkpt>
      <trkpt lat="48.65288" lon="2.01183">
        <ele>169</ele>
        <time>2013-08-17T09:02:49Z</time>
      </trkpt>
      <trkpt lat="48.65291" lon="2.01182">
        <ele>169</ele>
        <time>2013-08-17T09:02:51Z</time>
      </trkpt>
      <trkpt lat="48.65294" lon="2.01182">
        <ele>169</ele>
        <time>2013-08-17T09:02:53Z</time>
      </trkpt>
      <trkpt lat="48.65299" lon="2.0118">
        <ele>169</ele>
        <time>2013-08-17T09:02:56Z</time>
      </trkpt>
      <trkpt lat="48.65304" lon="2.01179">
        <ele>169</ele>
        <time>2013-08-17T09:02:59Z</time>
      </trkpt>
      <trkpt lat="48.65307" lon="2.01178">
        <ele>169</ele>
        <time>2013-08-17T09:03:01Z</time>
      </trkpt>
      <trkpt lat="48.65311" lon="2.01178">
        <ele>169</ele>
        <time>2013-08-17T09:03:03Z</time>
      </trkpt>
      <trkpt lat="48.65316" lon="2.01177">
        <ele>169</ele>
        <time>2013-08-17T09:03:06Z</time>
      </trkpt>
      <trkpt lat="48.65319" lon="2.01177">
        <ele>169</ele>
        <time>2013-08-17T09:03:08Z</time>
      </trkpt>
      <trkpt lat="48.65324" lon="2.01175">
        <ele>169</ele>
        <time>2013-08-17T09:03:11Z</time>
      </trkpt>
      <trkpt lat="48.65327" lon="2.01175">
        <ele>169</ele>
        <time>2013-08-17T09:03:13Z</time>
      </trkpt>
      <trkpt lat="48.65331" lon="2.01174">
        <ele>169</ele>
        <time>2013-08-17T09:03:15Z</time>
      </trkpt>
      <trkpt lat="48.65334" lon="2.01174">
        <ele>169</ele>
        <time>2013-08-17T09:03:17Z</time>
      </trkpt>
      <trkpt lat="48.65338" lon="2.01173">
        <ele>169</ele>
        <time>2013-08-17T09:03:20Z</time>
      </trkpt>
      <trkpt lat="48.65341" lon="2.01173">
        <ele>169</ele>
        <time>2013-08-17T09:03:22Z</time>
      </trkpt>
      <trkpt lat="48.65344" lon="2.01173">
        <ele>169</ele>
        <time>2013-08-17T09:03:24Z</time>
      </trkpt>
      <trkpt lat="48.65349" lon="2.01172">
        <ele>169</ele>
        <time>2013-08-17T09:03:27Z</time>
      </trkpt>
      <trkpt lat="48.65352" lon="2.01172">
        <ele>169</ele>
        <time>2013-08-17T09:03:29Z</time>
      </trkpt>
      <trkpt lat="48.65355" lon="2.01171">
        <ele>169</ele>
        <time>2013-08-17T09:03:31Z</time>
      </trkpt>
      <trkpt lat="48.65359" lon="2.0117">
        <ele>169</ele>
        <time>2013-08-17T09:03:33Z</time>
      </trkpt>
      <trkpt lat="48.65362" lon="2.01169">
        <ele>169</ele>
        <time>2013-08-17T09:03:35Z</time>
      </trkpt>
      <trkpt lat="48.65365" lon="2.01169">
        <ele>169</ele>
        <time>2013-08-17T09:03:37Z</time>
      </trkpt>
      <trkpt lat="48.6537" lon="2.01168">
        <ele>169</ele>
        <time>2013-08-17T09:03:40Z</time>
      </trkpt>
      <trkpt lat="48.65373" lon="2.01168">
        <ele>169</ele>
        <time>2013-08-17T09:03:42Z</time>
      </trkpt>
      <trkpt lat="48.65376" lon="2.01167">
        <ele>169</ele>
        <time>2013-08-17T09:03:44Z</time>
      </trkpt>
      <trkpt lat="48.65379" lon="2.01166">
        <ele>169</ele>
        <time>2013-08-17T09:03:46Z</time>
      </trkpt>
      <trkpt lat="48.65382" lon="2.01166">
        <ele>169</ele>
        <time>2013-08-17T09:03:48Z</time>
      </trkpt>
      <trkpt lat="48.65385" lon="2.01166">
        <ele>169</ele>
        <time>2013-08-17T09:03:50Z</time>
      </trkpt>
      <trkpt lat="48.65388" lon="2.01166">
        <ele>169</ele>
        <time>2013-08-17T09:03:52Z</time>
      </trkpt>
      <trkpt lat="48.65391" lon="2.01165">
        <ele>169</ele>
        <time>2013-08-17T09:03:54Z</time>
      </trkpt>
      <trkpt lat="48.65394" lon="2.01165">
        <ele>169</ele>
        <time>2013-08-17T09:03:56Z</time>
      </trkpt>
      <trkpt lat="48.65397" lon="2.01164">
        <ele>169</ele>
        <time>2013-08-17T09:03:58Z</time>
      </trkpt>
      <trkpt lat="48.654" lon="2.01164">
        <ele>169</ele>
        <time>2013-08-17T09:04:00Z</time>
      </trkpt>
      <trkpt lat="48.65404" lon="2.01164">
        <ele>169</ele>
        <time>2013-08-17T09:04:03Z</time>
      </trkpt>
      <trkpt lat="48.65408" lon="2.01164">
        <ele>169</ele>
        <time>2013-08-17T09:04:05Z</time>
      </trkpt>
      <trkpt lat="48.65412" lon="2.01163">
        <ele>169</ele>
        <time>2013-08-17T09:04:08Z</time>
      </trkpt>
      <trkpt lat="48.65416" lon="2.01163">
        <ele>169</ele>
        <time>2013-08-17T09:04:11Z</time>
      </trkpt>
      <trkpt lat="48.65419" lon="2.01162">
        <ele>169</ele>
        <time>2013-08-17T09:04:13Z</time>
      </trkpt>
      <trkpt lat="48.65424" lon="2.01162">
        <ele>169</ele>
        <time>2013-08-17T09:04:16Z</time>
      </trkpt>
      <trkpt lat="48.65429" lon="2.01161">
        <ele>169</ele>
        <time>2013-08-17T09:04:19Z</time>
      </trkpt>
      <trkpt lat="48.65432" lon="2.0116">
        <ele>169</ele>
        <time>2013-08-17T09:04:21Z</time>
      </trkpt>
      <trkpt lat="48.65435" lon="2.0116">
        <ele>169</ele>
        <time>2013-08-17T09:04:23Z</time>
      </trkpt>
      <trkpt lat="48.65438" lon="2.0116">
        <ele>169</ele>
        <time>2013-08-17T09:04:25Z</time>
      </trkpt>
      <trkpt lat="48.65443" lon="2.01159">
        <ele>169</ele>
        <time>2013-08-17T09:04:28Z</time>
      </trkpt>
      <trkpt lat="48.65446" lon="2.01158">
        <ele>169</ele>
        <time>2013-08-17T09:04:30Z</time>
      </trkpt>
      <trkpt lat="48.65449" lon="2.01158">
        <ele>169</ele>
        <time>2013-08-17T09:04:32Z</time>
      </trkpt>
      <trkpt lat="48.65454" lon="2.01157">
        <ele>169</ele>
        <time>2013-08-17T09:04:35Z</time>
      </trkpt>
      <trkpt lat="48.65457" lon="2.01156">
        <ele>169</ele>
        <time>2013-08-17T09:04:37Z</time>
      </trkpt>
      <trkpt lat="48.65461" lon="2.01156">
        <ele>169</ele>
        <time>2013-08-17T09:04:40Z</time>
      </trkpt>
      <trkpt lat="48.65467" lon="2.01156">
        <ele>169</ele>
        <time>2013-08-17T09:04:43Z</time>
      </trkpt>
      <trkpt lat="48.65469" lon="2.01155">
        <ele>169</ele>
        <time>2013-08-17T09:04:45Z</time>
      </trkpt>
      <trkpt lat="48.65473" lon="2.01155">
        <ele>169</ele>
        <time>2013-08-17T09:04:47Z</time>
      </trkpt>
      <trkpt lat="48.65475" lon="2.01154">
        <ele>169</ele>
        <time>2013-08-17T09:04:49Z</time>
      </trkpt>
      <trkpt lat="48.6548" lon="2.01154">
        <ele>169</ele>
        <time>2013-08-17T09:04:52Z</time>
      </trkpt>
      <trkpt lat="48.65485" lon="2.01153">
        <ele>169</ele>
        <time>2013-08-17T09:04:55Z</time>
      </trkpt>
      <trkpt lat="48.65488" lon="2.01153">
        <ele>169</ele>
        <time>2013-08-17T09:04:57Z</time>
      </trkpt>
      <trkpt lat="48.65492" lon="2.01152">
        <ele>169</ele>
        <time>2013-08-17T09:05:00Z</time>
      </trkpt>
      <trkpt lat="48.65495" lon="2.01151">
        <ele>169</ele>
        <time>2013-08-17T09:05:02Z</time>
      </trkpt>
      <trkpt lat="48.65498" lon="2.01151">
        <ele>169</ele>
        <time>2013-08-17T09:05:04Z</time>
      </trkpt>
      <trkpt lat="48.65503" lon="2.0115">
        <ele>169</ele>
        <time>2013-08-17T09:05:07Z</time>
      </trkpt>
      <trkpt lat="48.65505" lon="2.0115">
        <ele>169</ele>
        <time>2013-08-17T09:05:09Z</time>
      </trkpt>
      <trkpt lat="48.65509" lon="2.0115">
        <ele>169</ele>
        <time>2013-08-17T09:05:12Z</time>
      </trkpt>
      <trkpt lat="48.65514" lon="2.0115">
        <ele>169</ele>
        <time>2013-08-17T09:05:15Z</time>
      </trkpt>
      <trkpt lat="48.65517" lon="2.01149">
        <ele>169</ele>
        <time>2013-08-17T09:05:17Z</time>
      </trkpt>
      <trkpt lat="48.65522" lon="2.01148">
        <ele>169</ele>
        <time>2013-08-17T09:05:20Z</time>
      </trkpt>
      <trkpt lat="48.65525" lon="2.01148">
        <ele>169</ele>
        <time>2013-08-17T09:05:22Z</time>
      </trkpt>
      <trkpt lat="48.6553" lon="2.01147">
        <ele>169</ele>
        <time>2013-08-17T09:05:25Z</time>
      </trkpt>
      <trkpt lat="48.65533" lon="2.01147">
        <ele>169</ele>
        <time>2013-08-17T09:05:27Z</time>
      </trkpt>
      <trkpt lat="48.65537" lon="2.01146">
        <ele>169</ele>
        <time>2013-08-17T09:05:30Z</time>
      </trkpt>
      <trkpt lat="48.6554" lon="2.01145">
        <ele>169</ele>
        <time>2013-08-17T09:05:32Z</time>
      </trkpt>
      <trkpt lat="48.65545" lon="2.01144">
        <ele>169</ele>
        <time>2013-08-17T09:05:35Z</time>
      </trkpt>
      <trkpt lat="48.65548" lon="2.01144">
        <ele>169</ele>
        <time>2013-08-17T09:05:37Z</time>
      </trkpt>
      <trkpt lat="48.65553" lon="2.01143">
        <ele>169</ele>
        <time>2013-08-17T09:05:40Z</time>
      </trkpt>
      <trkpt lat="48.65556" lon="2.01142">
        <ele>169</ele>
        <time>2013-08-17T09:05:42Z</time>
      </trkpt>
      <trkpt lat="48.6556" lon="2.01142">
        <ele>169</ele>
        <time>2013-08-17T09:05:45Z</time>
      </trkpt>
      <trkpt lat="48.65565" lon="2.01141">
        <ele>169</ele>
        <time>2013-08-17T09:05:48Z</time>
      </trkpt>
      <trkpt lat="48.65569" lon="2.0114">
        <ele>169</ele>
        <time>2013-08-17T09:05:51Z</time>
      </trkpt>
      <trkpt lat="48.65572" lon="2.0114">
        <ele>169</ele>
        <time>2013-08-17T09:05:53Z</time>
      </trkpt>
      <trkpt lat="48.65575" lon="2.0114">
        <ele>169</ele>
        <time>2013-08-17T09:05:55Z</time>
      </trkpt>
      <trkpt lat="48.65578" lon="2.01139">
        <ele>169</ele>
        <time>2013-08-17T09:05:57Z</time>
      </trkpt>
      <trkpt lat="48.65582" lon="2.01139">
        <ele>169</ele>
        <time>2013-08-17T09:05:59Z</time>
      </trkpt>
      <trkpt lat="48.65586" lon="2.01139">
        <ele>169</ele>
        <time>2013-08-17T09:06:02Z</time>
      </trkpt>
      <trkpt lat="48.65591" lon="2.01138">
        <ele>169</ele>
        <time>2013-08-17T09:06:05Z</time>
      </trkpt>
      <trkpt lat="48.65594" lon="2.01138">
        <ele>169</ele>
        <time>2013-08-17T09:06:07Z</time>
      </trkpt>
      <trkpt lat="48.65597" lon="2.01137">
        <ele>169</ele>
        <time>2013-08-17T09:06:09Z</time>
      </trkpt>
      <trkpt lat="48.656" lon="2.01137">
        <ele>169</ele>
        <time>2013-08-17T09:06:11Z</time>
      </trkpt>
      <trkpt lat="48.65603" lon="2.01136">
        <ele>169</ele>
        <time>2013-08-17T09:06:13Z</time>
      </trkpt>
      <trkpt lat="48.65606" lon="2.01136">
        <ele>169</ele>
        <time>2013-08-17T09:06:15Z</time>
      </trkpt>
      <trkpt lat="48.65612" lon="2.01135">
        <ele>169</ele>
        <time>2013-08-17T09:06:19Z</time>
      </trkpt>
      <trkpt lat="48.65615" lon="2.01134">
        <ele>169</ele>
        <time>2013-08-17T09:06:21Z</time>
      </trkpt>
      <trkpt lat="48.6562" lon="2.01134">
        <ele>169</ele>
        <time>2013-08-17T09:06:24Z</time>
      </trkpt>
      <trkpt lat="48.65622" lon="2.01133">
        <ele>169</ele>
        <time>2013-08-17T09:06:26Z</time>
      </trkpt>
      <trkpt lat="48.65627" lon="2.01132">
        <ele>169</ele>
        <time>2013-08-17T09:06:29Z</time>
      </trkpt>
      <trkpt lat="48.6563" lon="2.01132">
        <ele>169</ele>
        <time>2013-08-17T09:06:31Z</time>
      </trkpt>
      <trkpt lat="48.65634" lon="2.01131">
        <ele>169</ele>
        <time>2013-08-17T09:06:34Z</time>
      </trkpt>
      <trkpt lat="48.65638" lon="2.0113">
        <ele>169</ele>
        <time>2013-08-17T09:06:37Z</time>
      </trkpt>
      <trkpt lat="48.65642" lon="2.0113">
        <ele>169</ele>
        <time>2013-08-17T09:06:40Z</time>
      </trkpt>
      <trkpt lat="48.65645" lon="2.01129">
        <ele>169</ele>
        <time>2013-08-17T09:06:42Z</time>
      </trkpt>
      <trkpt lat="48.65649" lon="2.01128">
        <ele>169</ele>
        <time>2013-08-17T09:06:45Z</time>
      </trkpt>
      <trkpt lat="48.65653" lon="2.01127">
        <ele>169</ele>
        <time>2013-08-17T09:06:48Z</time>
      </trkpt>
      <trkpt lat="48.65657" lon="2.01126">
        <ele>170</ele>
        <time>2013-08-17T09:06:51Z</time>
      </trkpt>
      <trkpt lat="48.6566" lon="2.01126">
        <ele>170</ele>
        <time>2013-08-17T09:06:53Z</time>
      </trkpt>
      <trkpt lat="48.65664" lon="2.01125">
        <ele>170</ele>
        <time>2013-08-17T09:06:56Z</time>
      </trkpt>
      <trkpt lat="48.65666" lon="2.01123">
        <ele>170</ele>
        <time>2013-08-17T09:06:58Z</time>
      </trkpt>
      <trkpt lat="48.6567" lon="2.01119">
        <ele>170</ele>
        <time>2013-08-17T09:07:01Z</time>
      </trkpt>
      <trkpt lat="48.65673" lon="2.01118">
        <ele>170</ele>
        <time>2013-08-17T09:07:03Z</time>
      </trkpt>
      <trkpt lat="48.65677" lon="2.01119">
        <ele>170</ele>
        <time>2013-08-17T09:07:06Z</time>
      </trkpt>
      <trkpt lat="48.6568" lon="2.01119">
        <ele>170</ele>
        <time>2013-08-17T09:07:08Z</time>
      </trkpt>
      <trkpt lat="48.65686" lon="2.01118">
        <ele>170</ele>
        <time>2013-08-17T09:07:11Z</time>
      </trkpt>
      <trkpt lat="48.65691" lon="2.01119">
        <ele>170</ele>
        <time>2013-08-17T09:07:14Z</time>
      </trkpt>
      <trkpt lat="48.65695" lon="2.01119">
        <ele>170</ele>
        <time>2013-08-17T09:07:17Z</time>
      </trkpt>
      <trkpt lat="48.657" lon="2.0112">
        <ele>170</ele>
        <time>2013-08-17T09:07:20Z</time>
      </trkpt>
      <trkpt lat="48.65704" lon="2.01121">
        <ele>170</ele>
        <time>2013-08-17T09:07:23Z</time>
      </trkpt>
      <trkpt lat="48.65706" lon="2.01122">
        <ele>170</ele>
        <time>2013-08-17T09:07:25Z</time>
      </trkpt>
      <trkpt lat="48.65711" lon="2.01123">
        <ele>170</ele>
        <time>2013-08-17T09:07:28Z</time>
      </trkpt>
      <trkpt lat="48.65714" lon="2.01124">
        <ele>170</ele>
        <time>2013-08-17T09:07:30Z</time>
      </trkpt>
      <trkpt lat="48.65718" lon="2.01125">
        <ele>170</ele>
        <time>2013-08-17T09:07:33Z</time>
      </trkpt>
      <trkpt lat="48.65721" lon="2.01127">
        <ele>170</ele>
        <time>2013-08-17T09:07:35Z</time>
      </trkpt>
      <trkpt lat="48.65726" lon="2.01128">
        <ele>170</ele>
        <time>2013-08-17T09:07:38Z</time>
      </trkpt>
      <trkpt lat="48.65729" lon="2.0113">
        <ele>170</ele>
        <time>2013-08-17T09:07:40Z</time>
      </trkpt>
      <trkpt lat="48.65733" lon="2.01131">
        <ele>170</ele>
        <time>2013-08-17T09:07:43Z</time>
      </trkpt>
      <trkpt lat="48.65736" lon="2.01132">
        <ele>170</ele>
        <time>2013-08-17T09:07:45Z</time>
      </trkpt>
      <trkpt lat="48.65741" lon="2.01134">
        <ele>170</ele>
        <time>2013-08-17T09:07:48Z</time>
      </trkpt>
      <trkpt lat="48.65744" lon="2.01135">
        <ele>170</ele>
        <time>2013-08-17T09:07:50Z</time>
      </trkpt>
      <trkpt lat="48.65749" lon="2.01137">
        <ele>170</ele>
        <time>2013-08-17T09:07:53Z</time>
      </trkpt>
      <trkpt lat="48.65752" lon="2.01138">
        <ele>170</ele>
        <time>2013-08-17T09:07:55Z</time>
      </trkpt>
      <trkpt lat="48.65756" lon="2.0114">
        <ele>170</ele>
        <time>2013-08-17T09:07:58Z</time>
      </trkpt>
      <trkpt lat="48.6576" lon="2.01142">
        <ele>170</ele>
        <time>2013-08-17T09:08:01Z</time>
      </trkpt>
      <trkpt lat="48.65764" lon="2.01143">
        <ele>170</ele>
        <time>2013-08-17T09:08:04Z</time>
      </trkpt>
      <trkpt lat="48.65767" lon="2.01144">
        <ele>170</ele>
        <time>2013-08-17T09:08:06Z</time>
      </trkpt>
      <trkpt lat="48.65771" lon="2.01144">
        <ele>170</ele>
        <time>2013-08-17T09:08:09Z</time>
      </trkpt>
      <trkpt lat="48.65774" lon="2.01144">
        <ele>170</ele>
        <time>2013-08-17T09:08:11Z</time>
      </trkpt>
      <trkpt lat="48.65776" lon="2.01144">
        <ele>170</ele>
        <time>2013-08-17T09:08:13Z</time>
      </trkpt>
      <trkpt lat="48.6578" lon="2.01143">
        <ele>170</ele>
        <time>2013-08-17T09:08:15Z</time>
      </trkpt>
      <trkpt lat="48.65783" lon="2.01143">
        <ele>170</ele>
        <time>2013-08-17T09:08:17Z</time>
      </trkpt>
      <trkpt lat="48.65787" lon="2.01141">
        <ele>170</ele>
        <time>2013-08-17T09:08:20Z</time>
      </trkpt>
      <trkpt lat="48.65791" lon="2.01141">
        <ele>170</ele>
        <time>2013-08-17T09:08:22Z</time>
      </trkpt>
      <trkpt lat="48.65795" lon="2.01139">
        <ele>170</ele>
        <time>2013-08-17T09:08:25Z</time>
      </trkpt>
      <trkpt lat="48.65798" lon="2.01138">
        <ele>169</ele>
        <time>2013-08-17T09:08:27Z</time>
      </trkpt>
      <trkpt lat="48.65802" lon="2.01137">
        <ele>169</ele>
        <time>2013-08-17T09:08:29Z</time>
      </trkpt>
      <trkpt lat="48.65805" lon="2.01136">
        <ele>168</ele>
        <time>2013-08-17T09:08:31Z</time>
      </trkpt>
      <trkpt lat="48.65808" lon="2.01134">
        <ele>168</ele>
        <time>2013-08-17T09:08:33Z</time>
      </trkpt>
      <trkpt lat="48.65812" lon="2.01132">
        <ele>167</ele>
        <time>2013-08-17T09:08:36Z</time>
      </trkpt>
      <trkpt lat="48.65815" lon="2.01131">
        <ele>166</ele>
        <time>2013-08-17T09:08:38Z</time>
      </trkpt>
      <trkpt lat="48.65819" lon="2.01129">
        <ele>166</ele>
        <time>2013-08-17T09:08:41Z</time>
      </trkpt>
      <trkpt lat="48.65823" lon="2.01129">
        <ele>166</ele>
        <time>2013-08-17T09:08:44Z</time>
      </trkpt>
      <trkpt lat="48.65826" lon="2.01128">
        <ele>166</ele>
        <time>2013-08-17T09:08:46Z</time>
      </trkpt>
      <trkpt lat="48.65829" lon="2.01128">
        <ele>166</ele>
        <time>2013-08-17T09:08:48Z</time>
      </trkpt>
      <trkpt lat="48.65833" lon="2.01127">
        <ele>166</ele>
        <time>2013-08-17T09:08:50Z</time>
      </trkpt>
      <trkpt lat="48.65835" lon="2.01127">
        <ele>166</ele>
        <time>2013-08-17T09:08:52Z</time>
      </trkpt>
      <trkpt lat="48.65839" lon="2.01127">
        <ele>166</ele>
        <time>2013-08-17T09:08:54Z</time>
      </trkpt>
      <trkpt lat="48.65843" lon="2.01126">
        <ele>166</ele>
        <time>2013-08-17T09:08:57Z</time>
      </trkpt>
      <trkpt lat="48.65846" lon="2.01126">
        <ele>166</ele>
        <time>2013-08-17T09:08:59Z</time>
      </trkpt>
      <trkpt lat="48.65849" lon="2.01125">
        <ele>166</ele>
        <time>2013-08-17T09:09:01Z</time>
      </trkpt>
      <trkpt lat="48.65852" lon="2.01125">
        <ele>166</ele>
        <time>2013-08-17T09:09:03Z</time>
      </trkpt>
      <trkpt lat="48.65855" lon="2.01124">
        <ele>166</ele>
        <time>2013-08-17T09:09:05Z</time>
      </trkpt>
      <trkpt lat="48.65859" lon="2.01123">
        <ele>166</ele>
        <time>2013-08-17T09:09:07Z</time>
      </trkpt>
      <trkpt lat="48.65862" lon="2.01122">
        <ele>166</ele>
        <time>2013-08-17T09:09:09Z</time>
      </trkpt>
      <trkpt lat="48.65865" lon="2.01122">
        <ele>166</ele>
        <time>2013-08-17T09:09:11Z</time>
      </trkpt>
      <trkpt lat="48.65868" lon="2.01121">
        <ele>166</ele>
        <time>2013-08-17T09:09:13Z</time>
      </trkpt>
      <trkpt lat="48.65871" lon="2.0112">
        <ele>166</ele>
        <time>2013-08-17T09:09:15Z</time>
      </trkpt>
      <trkpt lat="48.65874" lon="2.01119">
        <ele>166</ele>
        <time>2013-08-17T09:09:17Z</time>
      </trkpt>
      <trkpt lat="48.65878" lon="2.01118">
        <ele>166</ele>
        <time>2013-08-17T09:09:19Z</time>
      </trkpt>
      <trkpt lat="48.65881" lon="2.01117">
        <ele>166</ele>
        <time>2013-08-17T09:09:21Z</time>
      </trkpt>
      <trkpt lat="48.65884" lon="2.01116">
        <ele>166</ele>
        <time>2013-08-17T09:09:23Z</time>
      </trkpt>
      <trkpt lat="48.65887" lon="2.01114">
        <ele>166</ele>
        <time>2013-08-17T09:09:25Z</time>
      </trkpt>
      <trkpt lat="48.6589" lon="2.01113">
        <ele>166</ele>
        <time>2013-08-17T09:09:27Z</time>
      </trkpt>
      <trkpt lat="48.65893" lon="2.01112">
        <ele>166</ele>
        <time>2013-08-17T09:09:29Z</time>
      </trkpt>
      <trkpt lat="48.65897" lon="2.0111">
        <ele>166</ele>
        <time>2013-08-17T09:09:32Z</time>
      </trkpt>
      <trkpt lat="48.659" lon="2.01109">
        <ele>166</ele>
        <time>2013-08-17T09:09:34Z</time>
      </trkpt>
      <trkpt lat="48.65903" lon="2.01108">
        <ele>166</ele>
        <time>2013-08-17T09:09:36Z</time>
      </trkpt>
      <trkpt lat="48.65906" lon="2.01107">
        <ele>166</ele>
        <time>2013-08-17T09:09:38Z</time>
      </trkpt>
      <trkpt lat="48.65908" lon="2.01105">
        <ele>166</ele>
        <time>2013-08-17T09:09:40Z</time>
      </trkpt>
      <trkpt lat="48.65911" lon="2.01104">
        <ele>166</ele>
        <time>2013-08-17T09:09:42Z</time>
      </trkpt>
      <trkpt lat="48.65914" lon="2.01102">
        <ele>166</ele>
        <time>2013-08-17T09:09:44Z</time>
      </trkpt>
      <trkpt lat="48.65916" lon="2.011">
        <ele>166</ele>
        <time>2013-08-17T09:09:46Z</time>
      </trkpt>
      <trkpt lat="48.65919" lon="2.01097">
        <ele>166</ele>
        <time>2013-08-17T09:09:48Z</time>
      </trkpt>
      <trkpt lat="48.65921" lon="2.01094">
        <ele>166</ele>
        <time>2013-08-17T09:09:50Z</time>
      </trkpt>
      <trkpt lat="48.65923" lon="2.01092">
        <ele>166</ele>
        <time>2013-08-17T09:09:52Z</time>
      </trkpt>
      <trkpt lat="48.65926" lon="2.01089">
        <ele>166</ele>
        <time>2013-08-17T09:09:54Z</time>
      </trkpt>
      <trkpt lat="48.65929" lon="2.01086">
        <ele>166</ele>
        <time>2013-08-17T09:09:56Z</time>
      </trkpt>
      <trkpt lat="48.65931" lon="2.01083">
        <ele>166</ele>
        <time>2013-08-17T09:09:58Z</time>
      </trkpt>
      <trkpt lat="48.65934" lon="2.0108">
        <ele>166</ele>
        <time>2013-08-17T09:10:00Z</time>
      </trkpt>
      <trkpt lat="48.65937" lon="2.01077">
        <ele>166</ele>
        <time>2013-08-17T09:10:02Z</time>
      </trkpt>
      <trkpt lat="48.65939" lon="2.01074">
        <ele>166</ele>
        <time>2013-08-17T09:10:04Z</time>
      </trkpt>
      <trkpt lat="48.65941" lon="2.01071">
        <ele>166</ele>
        <time>2013-08-17T09:10:06Z</time>
      </trkpt>
      <trkpt lat="48.65944" lon="2.01068">
        <ele>166</ele>
        <time>2013-08-17T09:10:08Z</time>
      </trkpt>
      <trkpt lat="48.65947" lon="2.01065">
        <ele>166</ele>
        <time>2013-08-17T09:10:10Z</time>
      </trkpt>
      <trkpt lat="48.65949" lon="2.01063">
        <ele>166</ele>
        <time>2013-08-17T09:10:12Z</time>
      </trkpt>
      <trkpt lat="48.65951" lon="2.0106">
        <ele>166</ele>
        <time>2013-08-17T09:10:14Z</time>
      </trkpt>
      <trkpt lat="48.65953" lon="2.01057">
        <ele>166</ele>
        <time>2013-08-17T09:10:16Z</time>
      </trkpt>
      <trkpt lat="48.65955" lon="2.01053">
        <ele>166</ele>
        <time>2013-08-17T09:10:18Z</time>
      </trkpt>
      <trkpt lat="48.65957" lon="2.01049">
        <ele>166</ele>
        <time>2013-08-17T09:10:20Z</time>
      </trkpt>
      <trkpt lat="48.65959" lon="2.01045">
        <ele>166</ele>
        <time>2013-08-17T09:10:22Z</time>
      </trkpt>
      <trkpt lat="48.65961" lon="2.01041">
        <ele>166</ele>
        <time>2013-08-17T09:10:24Z</time>
      </trkpt>
      <trkpt lat="48.65963" lon="2.01036">
        <ele>166</ele>
        <time>2013-08-17T09:10:26Z</time>
      </trkpt>
      <trkpt lat="48.65964" lon="2.01032">
        <ele>166</ele>
        <time>2013-08-17T09:10:28Z</time>
      </trkpt>
      <trkpt lat="48.65966" lon="2.01027">
        <ele>166</ele>
        <time>2013-08-17T09:10:30Z</time>
      </trkpt>
      <trkpt lat="48.65967" lon="2.01023">
        <ele>166</ele>
        <time>2013-08-17T09:10:32Z</time>
      </trkpt>
      <trkpt lat="48.65969" lon="2.01019">
        <ele>166</ele>
        <time>2013-08-17T09:10:34Z</time>
      </trkpt>
      <trkpt lat="48.65972" lon="2.01016">
        <ele>166</ele>
        <time>2013-08-17T09:10:36Z</time>
      </trkpt>
      <trkpt lat="48.65976" lon="2.01014">
        <ele>166</ele>
        <time>2013-08-17T09:10:38Z</time>
      </trkpt>
      <trkpt lat="48.65979" lon="2.01014">
        <ele>166</ele>
        <time>2013-08-17T09:10:40Z</time>
      </trkpt>
      <trkpt lat="48.65982" lon="2.01013">
        <ele>166</ele>
        <time>2013-08-17T09:10:42Z</time>
      </trkpt>
      <trkpt lat="48.65985" lon="2.01013">
        <ele>166</ele>
        <time>2013-08-17T09:10:44Z</time>
      </trkpt>
      <trkpt lat="48.65988" lon="2.01013">
        <ele>166</ele>
        <time>2013-08-17T09:10:46Z</time>
      </trkpt>
      <trkpt lat="48.65991" lon="2.01014">
        <ele>166</ele>
        <time>2013-08-17T09:10:48Z</time>
      </trkpt>
      <trkpt lat="48.65994" lon="2.01014">
        <ele>166</ele>
        <time>2013-08-17T09:10:50Z</time>
      </trkpt>
      <trkpt lat="48.65997" lon="2.01014">
        <ele>166</ele>
        <time>2013-08-17T09:10:52Z</time>
      </trkpt>
      <trkpt lat="48.66001" lon="2.01015">
        <ele>166</ele>
        <time>2013-08-17T09:10:54Z</time>
      </trkpt>
      <trkpt lat="48.66004" lon="2.01016">
        <ele>166</ele>
        <time>2013-08-17T09:10:56Z</time>
      </trkpt>
      <trkpt lat="48.66008" lon="2.01017">
        <ele>166</ele>
        <time>2013-08-17T09:10:58Z</time>
      </trkpt>
      <trkpt lat="48.66011" lon="2.01017">
        <ele>166</ele>
        <time>2013-08-17T09:11:00Z</time>
      </trkpt>
      <trkpt lat="48.66014" lon="2.01018">
        <ele>166</ele>
        <time>2013-08-17T09:11:02Z</time>
      </trkpt>
      <trkpt lat="48.66018" lon="2.01019">
        <ele>166</ele>
        <time>2013-08-17T09:11:05Z</time>
      </trkpt>
      <trkpt lat="48.66021" lon="2.01019">
        <ele>166</ele>
        <time>2013-08-17T09:11:07Z</time>
      </trkpt>
      <trkpt lat="48.66027" lon="2.0102">
        <ele>166</ele>
        <time>2013-08-17T09:11:10Z</time>
      </trkpt>
      <trkpt lat="48.6603" lon="2.01021">
        <ele>166</ele>
        <time>2013-08-17T09:11:12Z</time>
      </trkpt>
      <trkpt lat="48.66033" lon="2.01022">
        <ele>166</ele>
        <time>2013-08-17T09:11:14Z</time>
      </trkpt>
      <trkpt lat="48.66036" lon="2.01023">
        <ele>166</ele>
        <time>2013-08-17T09:11:16Z</time>
      </trkpt>
      <trkpt lat="48.66038" lon="2.01025">
        <ele>166</ele>
        <time>2013-08-17T09:11:18Z</time>
      </trkpt>
      <trkpt lat="48.66041" lon="2.01026">
        <ele>166</ele>
        <time>2013-08-17T09:11:20Z</time>
      </trkpt>
      <trkpt lat="48.66044" lon="2.01028">
        <ele>166</ele>
        <time>2013-08-17T09:11:22Z</time>
      </trkpt>
      <trkpt lat="48.66047" lon="2.0103">
        <ele>166</ele>
        <time>2013-08-17T09:11:24Z</time>
      </trkpt>
      <trkpt lat="48.6605" lon="2.01031">
        <ele>166</ele>
        <time>2013-08-17T09:11:26Z</time>
      </trkpt>
      <trkpt lat="48.66053" lon="2.01033">
        <ele>166</ele>
        <time>2013-08-17T09:11:28Z</time>
      </trkpt>
      <trkpt lat="48.66056" lon="2.01035">
        <ele>166</ele>
        <time>2013-08-17T09:11:30Z</time>
      </trkpt>
      <trkpt lat="48.66058" lon="2.01036">
        <ele>166</ele>
        <time>2013-08-17T09:11:32Z</time>
      </trkpt>
      <trkpt lat="48.66063" lon="2.01039">
        <ele>166</ele>
        <time>2013-08-17T09:11:35Z</time>
      </trkpt>
      <trkpt lat="48.66066" lon="2.01039">
        <ele>166</ele>
        <time>2013-08-17T09:11:37Z</time>
      </trkpt>
      <trkpt lat="48.66069" lon="2.0104">
        <ele>166</ele>
        <time>2013-08-17T09:11:39Z</time>
      </trkpt>
      <trkpt lat="48.66072" lon="2.01041">
        <ele>166</ele>
        <time>2013-08-17T09:11:41Z</time>
      </trkpt>
      <trkpt lat="48.66076" lon="2.01041">
        <ele>166</ele>
        <time>2013-08-17T09:11:43Z</time>
      </trkpt>
      <trkpt lat="48.6608" lon="2.01042">
        <ele>166</ele>
        <time>2013-08-17T09:11:45Z</time>
      </trkpt>
      <trkpt lat="48.66084" lon="2.01042">
        <ele>166</ele>
        <time>2013-08-17T09:11:48Z</time>
      </trkpt>
      <trkpt lat="48.66087" lon="2.01043">
        <ele>166</ele>
        <time>2013-08-17T09:11:50Z</time>
      </trkpt>
      <trkpt lat="48.6609" lon="2.01044">
        <ele>166</ele>
        <time>2013-08-17T09:11:52Z</time>
      </trkpt>
      <trkpt lat="48.66093" lon="2.01045">
        <ele>166</ele>
        <time>2013-08-17T09:11:54Z</time>
      </trkpt>
      <trkpt lat="48.66096" lon="2.01046">
        <ele>166</ele>
        <time>2013-08-17T09:11:56Z</time>
      </trkpt>
      <trkpt lat="48.66099" lon="2.01047">
        <ele>166</ele>
        <time>2013-08-17T09:11:58Z</time>
      </trkpt>
      <trkpt lat="48.66102" lon="2.01048">
        <ele>166</ele>
        <time>2013-08-17T09:12:00Z</time>
      </trkpt>
      <trkpt lat="48.66105" lon="2.01048">
        <ele>166</ele>
        <time>2013-08-17T09:12:02Z</time>
      </trkpt>
      <trkpt lat="48.66108" lon="2.01049">
        <ele>166</ele>
        <time>2013-08-17T09:12:04Z</time>
      </trkpt>
      <trkpt lat="48.66111" lon="2.0105">
        <ele>166</ele>
        <time>2013-08-17T09:12:06Z</time>
      </trkpt>
      <trkpt lat="48.66114" lon="2.01051">
        <ele>166</ele>
        <time>2013-08-17T09:12:08Z</time>
      </trkpt>
      <trkpt lat="48.66117" lon="2.01051">
        <ele>166</ele>
        <time>2013-08-17T09:12:10Z</time>
      </trkpt>
      <trkpt lat="48.6612" lon="2.01052">
        <ele>166</ele>
        <time>2013-08-17T09:12:12Z</time>
      </trkpt>
      <trkpt lat="48.66124" lon="2.01052">
        <ele>166</ele>
        <time>2013-08-17T09:12:14Z</time>
      </trkpt>
      <trkpt lat="48.66127" lon="2.01053">
        <ele>166</ele>
        <time>2013-08-17T09:12:16Z</time>
      </trkpt>
      <trkpt lat="48.6613" lon="2.01054">
        <ele>166</ele>
        <time>2013-08-17T09:12:18Z</time>
      </trkpt>
      <trkpt lat="48.66133" lon="2.01055">
        <ele>166</ele>
        <time>2013-08-17T09:12:20Z</time>
      </trkpt>
      <trkpt lat="48.66136" lon="2.01056">
        <ele>166</ele>
        <time>2013-08-17T09:12:22Z</time>
      </trkpt>
      <trkpt lat="48.66139" lon="2.01057">
        <ele>166</ele>
        <time>2013-08-17T09:12:24Z</time>
      </trkpt>
      <trkpt lat="48.66142" lon="2.01057">
        <ele>166</ele>
        <time>2013-08-17T09:12:26Z</time>
      </trkpt>
      <trkpt lat="48.66145" lon="2.01058">
        <ele>166</ele>
        <time>2013-08-17T09:12:28Z</time>
      </trkpt>
      <trkpt lat="48.66148" lon="2.01058">
        <ele>166</ele>
        <time>2013-08-17T09:12:30Z</time>
      </trkpt>
      <trkpt lat="48.66152" lon="2.01059">
        <ele>166</ele>
        <time>2013-08-17T09:12:32Z</time>
      </trkpt>
      <trkpt lat="48.66155" lon="2.01059">
        <ele>166</ele>
        <time>2013-08-17T09:12:34Z</time>
      </trkpt>
      <trkpt lat="48.66158" lon="2.0106">
        <ele>166</ele>
        <time>2013-08-17T09:12:36Z</time>
      </trkpt>
      <trkpt lat="48.66161" lon="2.0106">
        <ele>166</ele>
        <time>2013-08-17T09:12:38Z</time>
      </trkpt>
      <trkpt lat="48.66164" lon="2.0106">
        <ele>166</ele>
        <time>2013-08-17T09:12:40Z</time>
      </trkpt>
      <trkpt lat="48.66168" lon="2.01061">
        <ele>166</ele>
        <time>2013-08-17T09:12:42Z</time>
      </trkpt>
      <trkpt lat="48.66171" lon="2.01061">
        <ele>166</ele>
        <time>2013-08-17T09:12:44Z</time>
      </trkpt>
      <trkpt lat="48.66174" lon="2.0106">
        <ele>166</ele>
        <time>2013-08-17T09:12:46Z</time>
      </trkpt>
      <trkpt lat="48.66177" lon="2.01061">
        <ele>166</ele>
        <time>2013-08-17T09:12:48Z</time>
      </trkpt>
      <trkpt lat="48.66181" lon="2.01061">
        <ele>166</ele>
        <time>2013-08-17T09:12:50Z</time>
      </trkpt>
      <trkpt lat="48.66184" lon="2.01061">
        <ele>166</ele>
        <time>2013-08-17T09:12:52Z</time>
      </trkpt>
      <trkpt lat="48.66187" lon="2.01061">
        <ele>166</ele>
        <time>2013-08-17T09:12:54Z</time>
      </trkpt>
      <trkpt lat="48.66191" lon="2.01061">
        <ele>166</ele>
        <time>2013-08-17T09:12:56Z</time>
      </trkpt>
      <trkpt lat="48.66194" lon="2.01062">
        <ele>166</ele>
        <time>2013-08-17T09:12:58Z</time>
      </trkpt>
      <trkpt lat="48.66197" lon="2.01062">
        <ele>166</ele>
        <time>2013-08-17T09:13:00Z</time>
      </trkpt>
      <trkpt lat="48.662" lon="2.01061">
        <ele>166</ele>
        <time>2013-08-17T09:13:02Z</time>
      </trkpt>
      <trkpt lat="48.66203" lon="2.01061">
        <ele>166</ele>
        <time>2013-08-17T09:13:04Z</time>
      </trkpt>
      <trkpt lat="48.66206" lon="2.01061">
        <ele>166</ele>
        <time>2013-08-17T09:13:06Z</time>
      </trkpt>
      <trkpt lat="48.66208" lon="2.01061">
        <ele>166</ele>
        <time>2013-08-17T09:13:08Z</time>
      </trkpt>
      <trkpt lat="48.66212" lon="2.01061">
        <ele>166</ele>
        <time>2013-08-17T09:13:10Z</time>
      </trkpt>
      <trkpt lat="48.66215" lon="2.01061">
        <ele>166</ele>
        <time>2013-08-17T09:13:12Z</time>
      </trkpt>
      <trkpt lat="48.66219" lon="2.01061">
        <ele>166</ele>
        <time>2013-08-17T09:13:14Z</time>
      </trkpt>
      <trkpt lat="48.66222" lon="2.01062">
        <ele>166</ele>
        <time>2013-08-17T09:13:16Z</time>
      </trkpt>
      <trkpt lat="48.66225" lon="2.01061">
        <ele>166</ele>
        <time>2013-08-17T09:13:18Z</time>
      </trkpt>
      <trkpt lat="48.66227" lon="2.01061">
        <ele>166</ele>
        <time>2013-08-17T09:13:20Z</time>
      </trkpt>
      <trkpt lat="48.6623" lon="2.01062">
        <ele>166</ele>
        <time>2013-08-17T09:13:22Z</time>
      </trkpt>
      <trkpt lat="48.66233" lon="2.01062">
        <ele>166</ele>
        <time>2013-08-17T09:13:24Z</time>
      </trkpt>
      <trkpt lat="48.66238" lon="2.01062">
        <ele>166</ele>
        <time>2013-08-17T09:13:27Z</time>
      </trkpt>
      <trkpt lat="48.6624" lon="2.01062">
        <ele>166</ele>
        <time>2013-08-17T09:13:29Z</time>
      </trkpt>
      <trkpt lat="48.66243" lon="2.01062">
        <ele>166</ele>
        <time>2013-08-17T09:13:31Z</time>
      </trkpt>
      <trkpt lat="48.66245" lon="2.01062">
        <ele>166</ele>
        <time>2013-08-17T09:13:33Z</time>
      </trkpt>
      <trkpt lat="48.66248" lon="2.01062">
        <ele>166</ele>
        <time>2013-08-17T09:13:35Z</time>
      </trkpt>
      <trkpt lat="48.66251" lon="2.01062">
        <ele>166</ele>
        <time>2013-08-17T09:13:37Z</time>
      </trkpt>
      <trkpt lat="48.66254" lon="2.01062">
        <ele>166</ele>
        <time>2013-08-17T09:13:39Z</time>
      </trkpt>
      <trkpt lat="48.66257" lon="2.01062">
        <ele>166</ele>
        <time>2013-08-17T09:13:41Z</time>
      </trkpt>
      <trkpt lat="48.6626" lon="2.01063">
        <ele>166</ele>
        <time>2013-08-17T09:13:43Z</time>
      </trkpt>
      <trkpt lat="48.66262" lon="2.01063">
        <ele>166</ele>
        <time>2013-08-17T09:13:45Z</time>
      </trkpt>
      <trkpt lat="48.66265" lon="2.01063">
        <ele>166</ele>
        <time>2013-08-17T09:13:47Z</time>
      </trkpt>
      <trkpt lat="48.6627" lon="2.01063">
        <ele>166</ele>
        <time>2013-08-17T09:13:50Z</time>
      </trkpt>
      <trkpt lat="48.66273" lon="2.01064">
        <ele>166</ele>
        <time>2013-08-17T09:13:52Z</time>
      </trkpt>
      <trkpt lat="48.66275" lon="2.01065">
        <ele>166</ele>
        <time>2013-08-17T09:13:54Z</time>
      </trkpt>
      <trkpt lat="48.66278" lon="2.01065">
        <ele>166</ele>
        <time>2013-08-17T09:13:56Z</time>
      </trkpt>
      <trkpt lat="48.6628" lon="2.01065">
        <ele>166</ele>
        <time>2013-08-17T09:13:58Z</time>
      </trkpt>
      <trkpt lat="48.66283" lon="2.01065">
        <ele>166</ele>
        <time>2013-08-17T09:14:00Z</time>
      </trkpt>
      <trkpt lat="48.66286" lon="2.01065">
        <ele>166</ele>
        <time>2013-08-17T09:14:02Z</time>
      </trkpt>
      <trkpt lat="48.66289" lon="2.01065">
        <ele>166</ele>
        <time>2013-08-17T09:14:04Z</time>
      </trkpt>
      <trkpt lat="48.66292" lon="2.01065">
        <ele>166</ele>
        <time>2013-08-17T09:14:06Z</time>
      </trkpt>
      <trkpt lat="48.66295" lon="2.01065">
        <ele>167</ele>
        <time>2013-08-17T09:14:08Z</time>
      </trkpt>
      <trkpt lat="48.66298" lon="2.01065">
        <ele>167</ele>
        <time>2013-08-17T09:14:10Z</time>
      </trkpt>
      <trkpt lat="48.66302" lon="2.01065">
        <ele>167</ele>
        <time>2013-08-17T09:14:12Z</time>
      </trkpt>
      <trkpt lat="48.66305" lon="2.01066">
        <ele>167</ele>
        <time>2013-08-17T09:14:14Z</time>
      </trkpt>
      <trkpt lat="48.66308" lon="2.01067">
        <ele>167</ele>
        <time>2013-08-17T09:14:16Z</time>
      </trkpt>
      <trkpt lat="48.66312" lon="2.01067">
        <ele>167</ele>
        <time>2013-08-17T09:14:18Z</time>
      </trkpt>
      <trkpt lat="48.66315" lon="2.01067">
        <ele>167</ele>
        <time>2013-08-17T09:14:20Z</time>
      </trkpt>
      <trkpt lat="48.66318" lon="2.01067">
        <ele>167</ele>
        <time>2013-08-17T09:14:22Z</time>
      </trkpt>
      <trkpt lat="48.66321" lon="2.01067">
        <ele>167</ele>
        <time>2013-08-17T09:14:24Z</time>
      </trkpt>
      <trkpt lat="48.66325" lon="2.01068">
        <ele>167</ele>
        <time>2013-08-17T09:14:26Z</time>
      </trkpt>
      <trkpt lat="48.66328" lon="2.01068">
        <ele>167</ele>
        <time>2013-08-17T09:14:28Z</time>
      </trkpt>
      <trkpt lat="48.66331" lon="2.01068">
        <ele>167</ele>
        <time>2013-08-17T09:14:30Z</time>
      </trkpt>
      <trkpt lat="48.66334" lon="2.01069">
        <ele>168</ele>
        <time>2013-08-17T09:14:32Z</time>
      </trkpt>
      <trkpt lat="48.66338" lon="2.01069">
        <ele>168</ele>
        <time>2013-08-17T09:14:34Z</time>
      </trkpt>
      <trkpt lat="48.66341" lon="2.0107">
        <ele>168</ele>
        <time>2013-08-17T09:14:36Z</time>
      </trkpt>
      <trkpt lat="48.66344" lon="2.01071">
        <ele>168</ele>
        <time>2013-08-17T09:14:38Z</time>
      </trkpt>
      <trkpt lat="48.66348" lon="2.01072">
        <ele>168</ele>
        <time>2013-08-17T09:14:40Z</time>
      </trkpt>
      <trkpt lat="48.66351" lon="2.01073">
        <ele>168</ele>
        <time>2013-08-17T09:14:42Z</time>
      </trkpt>
      <trkpt lat="48.66355" lon="2.01074">
        <ele>168</ele>
        <time>2013-08-17T09:14:44Z</time>
      </trkpt>
      <trkpt lat="48.66358" lon="2.01075">
        <ele>168</ele>
        <time>2013-08-17T09:14:46Z</time>
      </trkpt>
      <trkpt lat="48.66362" lon="2.01076">
        <ele>168</ele>
        <time>2013-08-17T09:14:48Z</time>
      </trkpt>
      <trkpt lat="48.66365" lon="2.01077">
        <ele>168</ele>
        <time>2013-08-17T09:14:50Z</time>
      </trkpt>
      <trkpt lat="48.66369" lon="2.01078">
        <ele>168</ele>
        <time>2013-08-17T09:14:52Z</time>
      </trkpt>
      <trkpt lat="48.66372" lon="2.01079">
        <ele>168</ele>
        <time>2013-08-17T09:14:54Z</time>
      </trkpt>
      <trkpt lat="48.66375" lon="2.0108">
        <ele>169</ele>
        <time>2013-08-17T09:14:56Z</time>
      </trkpt>
      <trkpt lat="48.66379" lon="2.01081">
        <ele>169</ele>
        <time>2013-08-17T09:14:58Z</time>
      </trkpt>
      <trkpt lat="48.66383" lon="2.01083">
        <ele>169</ele>
        <time>2013-08-17T09:15:01Z</time>
      </trkpt>
      <trkpt lat="48.66386" lon="2.01084">
        <ele>169</ele>
        <time>2013-08-17T09:15:03Z</time>
      </trkpt>
      <trkpt lat="48.66388" lon="2.01086">
        <ele>169</ele>
        <time>2013-08-17T09:15:05Z</time>
      </trkpt>
      <trkpt lat="48.66391" lon="2.01089">
        <ele>169</ele>
        <time>2013-08-17T09:15:07Z</time>
      </trkpt>
      <trkpt lat="48.66394" lon="2.0109">
        <ele>169</ele>
        <time>2013-08-17T09:15:09Z</time>
      </trkpt>
      <trkpt lat="48.66396" lon="2.0109">
        <ele>169</ele>
        <time>2013-08-17T09:15:11Z</time>
      </trkpt>
      <trkpt lat="48.66399" lon="2.01087">
        <ele>169</ele>
        <time>2013-08-17T09:15:13Z</time>
      </trkpt>
      <trkpt lat="48.66401" lon="2.01084">
        <ele>169</ele>
        <time>2013-08-17T09:15:15Z</time>
      </trkpt>
      <trkpt lat="48.66403" lon="2.01081">
        <ele>169</ele>
        <time>2013-08-17T09:15:17Z</time>
      </trkpt>
      <trkpt lat="48.66406" lon="2.01079">
        <ele>169</ele>
        <time>2013-08-17T09:15:19Z</time>
      </trkpt>
      <trkpt lat="48.66409" lon="2.01076">
        <ele>169</ele>
        <time>2013-08-17T09:15:21Z</time>
      </trkpt>
      <trkpt lat="48.66411" lon="2.01073">
        <ele>169</ele>
        <time>2013-08-17T09:15:23Z</time>
      </trkpt>
      <trkpt lat="48.66413" lon="2.0107">
        <ele>169</ele>
        <time>2013-08-17T09:15:25Z</time>
      </trkpt>
      <trkpt lat="48.66416" lon="2.01067">
        <ele>169</ele>
        <time>2013-08-17T09:15:27Z</time>
      </trkpt>
      <trkpt lat="48.66418" lon="2.01064">
        <ele>170</ele>
        <time>2013-08-17T09:15:29Z</time>
      </trkpt>
      <trkpt lat="48.66421" lon="2.01061">
        <ele>170</ele>
        <time>2013-08-17T09:15:31Z</time>
      </trkpt>
      <trkpt lat="48.66423" lon="2.01058">
        <ele>170</ele>
        <time>2013-08-17T09:15:33Z</time>
      </trkpt>
      <trkpt lat="48.66426" lon="2.01055">
        <ele>170</ele>
        <time>2013-08-17T09:15:35Z</time>
      </trkpt>
      <trkpt lat="48.66428" lon="2.01052">
        <ele>171</ele>
        <time>2013-08-17T09:15:37Z</time>
      </trkpt>
      <trkpt lat="48.66433" lon="2.01048">
        <ele>171</ele>
        <time>2013-08-17T09:15:40Z</time>
      </trkpt>
      <trkpt lat="48.66436" lon="2.01045">
        <ele>171</ele>
        <time>2013-08-17T09:15:42Z</time>
      </trkpt>
      <trkpt lat="48.66439" lon="2.01042">
        <ele>171</ele>
        <time>2013-08-17T09:15:44Z</time>
      </trkpt>
      <trkpt lat="48.66441" lon="2.0104">
        <ele>171</ele>
        <time>2013-08-17T09:15:46Z</time>
      </trkpt>
      <trkpt lat="48.66444" lon="2.01037">
        <ele>171</ele>
        <time>2013-08-17T09:15:48Z</time>
      </trkpt>
      <trkpt lat="48.66447" lon="2.01034">
        <ele>171</ele>
        <time>2013-08-17T09:15:50Z</time>
      </trkpt>
      <trkpt lat="48.66449" lon="2.01032">
        <ele>171</ele>
        <time>2013-08-17T09:15:52Z</time>
      </trkpt>
      <trkpt lat="48.66452" lon="2.0103">
        <ele>171</ele>
        <time>2013-08-17T09:15:54Z</time>
      </trkpt>
      <trkpt lat="48.66455" lon="2.01028">
        <ele>171</ele>
        <time>2013-08-17T09:15:56Z</time>
      </trkpt>
      <trkpt lat="48.66458" lon="2.01025">
        <ele>171</ele>
        <time>2013-08-17T09:15:58Z</time>
      </trkpt>
      <trkpt lat="48.66461" lon="2.01023">
        <ele>171</ele>
        <time>2013-08-17T09:16:00Z</time>
      </trkpt>
      <trkpt lat="48.66463" lon="2.01021">
        <ele>171</ele>
        <time>2013-08-17T09:16:02Z</time>
      </trkpt>
      <trkpt lat="48.66466" lon="2.01019">
        <ele>171</ele>
        <time>2013-08-17T09:16:04Z</time>
      </trkpt>
      <trkpt lat="48.6647" lon="2.01017">
        <ele>171</ele>
        <time>2013-08-17T09:16:06Z</time>
      </trkpt>
      <trkpt lat="48.66473" lon="2.01014">
        <ele>171</ele>
        <time>2013-08-17T09:16:08Z</time>
      </trkpt>
      <trkpt lat="48.66476" lon="2.01011">
        <ele>171</ele>
        <time>2013-08-17T09:16:10Z</time>
      </trkpt>
      <trkpt lat="48.66481" lon="2.01007">
        <ele>171</ele>
        <time>2013-08-17T09:16:12Z</time>
      </trkpt>
      <trkpt lat="48.66484" lon="2.01004">
        <ele>171</ele>
        <time>2013-08-17T09:16:14Z</time>
      </trkpt>
      <trkpt lat="48.66488" lon="2.01001">
        <ele>171</ele>
        <time>2013-08-17T09:16:16Z</time>
      </trkpt>
      <trkpt lat="48.6649" lon="2.00998">
        <ele>171</ele>
        <time>2013-08-17T09:16:18Z</time>
      </trkpt>
      <trkpt lat="48.66493" lon="2.00995">
        <ele>171</ele>
        <time>2013-08-17T09:16:20Z</time>
      </trkpt>
      <trkpt lat="48.66496" lon="2.00992">
        <ele>171</ele>
        <time>2013-08-17T09:16:22Z</time>
      </trkpt>
      <trkpt lat="48.66498" lon="2.0099">
        <ele>171</ele>
        <time>2013-08-17T09:16:24Z</time>
      </trkpt>
      <trkpt lat="48.66502" lon="2.00986">
        <ele>171</ele>
        <time>2013-08-17T09:16:27Z</time>
      </trkpt>
      <trkpt lat="48.66505" lon="2.00982">
        <ele>171</ele>
        <time>2013-08-17T09:16:29Z</time>
      </trkpt>
      <trkpt lat="48.66509" lon="2.00977">
        <ele>171</ele>
        <time>2013-08-17T09:16:31Z</time>
      </trkpt>
      <trkpt lat="48.66515" lon="2.00971">
        <ele>171</ele>
        <time>2013-08-17T09:16:33Z</time>
      </trkpt>
      <trkpt lat="48.66521" lon="2.00963">
        <ele>171</ele>
        <time>2013-08-17T09:16:35Z</time>
      </trkpt>
      <trkpt lat="48.6653" lon="2.00953">
        <ele>171</ele>
        <time>2013-08-17T09:16:37Z</time>
      </trkpt>
      <trkpt lat="48.6654" lon="2.00941">
        <ele>171</ele>
        <time>2013-08-17T09:16:39Z</time>
      </trkpt>
      <trkpt lat="48.6655" lon="2.0093">
        <ele>171</ele>
        <time>2013-08-17T09:16:41Z</time>
      </trkpt>
      <trkpt lat="48.6656" lon="2.00919">
        <ele>171</ele>
        <time>2013-08-17T09:16:43Z</time>
      </trkpt>
      <trkpt lat="48.66571" lon="2.00907">
        <ele>171</ele>
        <time>2013-08-17T09:16:45Z</time>
      </trkpt>
      <trkpt lat="48.66581" lon="2.00896">
        <ele>171</ele>
        <time>2013-08-17T09:16:47Z</time>
      </trkpt>
      <trkpt lat="48.66591" lon="2.00885">
        <ele>171</ele>
        <time>2013-08-17T09:16:49Z</time>
      </trkpt>
      <trkpt lat="48.66601" lon="2.00873">
        <ele>172</ele>
        <time>2013-08-17T09:16:51Z</time>
      </trkpt>
      <trkpt lat="48.6661" lon="2.00861">
        <ele>172</ele>
        <time>2013-08-17T09:16:53Z</time>
      </trkpt>
      <trkpt lat="48.66619" lon="2.00849">
        <ele>172</ele>
        <time>2013-08-17T09:16:55Z</time>
      </trkpt>
      <trkpt lat="48.66628" lon="2.00835">
        <ele>172</ele>
        <time>2013-08-17T09:16:57Z</time>
      </trkpt>
      <trkpt lat="48.66636" lon="2.0082">
        <ele>172</ele>
        <time>2013-08-17T09:16:59Z</time>
      </trkpt>
      <trkpt lat="48.66643" lon="2.00802">
        <ele>172</ele>
        <time>2013-08-17T09:17:01Z</time>
      </trkpt>
      <trkpt lat="48.66647" lon="2.00782">
        <ele>172</ele>
        <time>2013-08-17T09:17:03Z</time>
      </trkpt>
      <trkpt lat="48.66651" lon="2.00763">
        <ele>172</ele>
        <time>2013-08-17T09:17:05Z</time>
      </trkpt>
      <trkpt lat="48.66654" lon="2.00743">
        <ele>172</ele>
        <time>2013-08-17T09:17:07Z</time>
      </trkpt>
      <trkpt lat="48.66656" lon="2.00724">
        <ele>172</ele>
        <time>2013-08-17T09:17:09Z</time>
      </trkpt>
      <trkpt lat="48.66657" lon="2.00705">
        <ele>172</ele>
        <time>2013-08-17T09:17:11Z</time>
      </trkpt>
      <trkpt lat="48.66659" lon="2.00686">
        <ele>172</ele>
        <time>2013-08-17T09:17:13Z</time>
      </trkpt>
      <trkpt lat="48.6666" lon="2.00666">
        <ele>172</ele>
        <time>2013-08-17T09:17:15Z</time>
      </trkpt>
      <trkpt lat="48.66661" lon="2.00647">
        <ele>172</ele>
        <time>2013-08-17T09:17:17Z</time>
      </trkpt>
      <trkpt lat="48.66663" lon="2.00628">
        <ele>172</ele>
        <time>2013-08-17T09:17:19Z</time>
      </trkpt>
      <trkpt lat="48.66666" lon="2.00609">
        <ele>172</ele>
        <time>2013-08-17T09:17:21Z</time>
      </trkpt>
      <trkpt lat="48.66668" lon="2.00589">
        <ele>172</ele>
        <time>2013-08-17T09:17:23Z</time>
      </trkpt>
      <trkpt lat="48.6667" lon="2.00569">
        <ele>172</ele>
        <time>2013-08-17T09:17:25Z</time>
      </trkpt>
      <trkpt lat="48.66673" lon="2.00549">
        <ele>172</ele>
        <time>2013-08-17T09:17:27Z</time>
      </trkpt>
      <trkpt lat="48.66676" lon="2.00529">
        <ele>172</ele>
        <time>2013-08-17T09:17:29Z</time>
      </trkpt>
      <trkpt lat="48.66677" lon="2.0051">
        <ele>172</ele>
        <time>2013-08-17T09:17:31Z</time>
      </trkpt>
      <trkpt lat="48.66681" lon="2.0049">
        <ele>172</ele>
        <time>2013-08-17T09:17:33Z</time>
      </trkpt>
      <trkpt lat="48.66684" lon="2.00471">
        <ele>172</ele>
        <time>2013-08-17T09:17:35Z</time>
      </trkpt>
      <trkpt lat="48.66689" lon="2.00453">
        <ele>172</ele>
        <time>2013-08-17T09:17:37Z</time>
      </trkpt>
      <trkpt lat="48.66695" lon="2.00434">
        <ele>172</ele>
        <time>2013-08-17T09:17:39Z</time>
      </trkpt>
      <trkpt lat="48.667" lon="2.00417">
        <ele>172</ele>
        <time>2013-08-17T09:17:41Z</time>
      </trkpt>
      <trkpt lat="48.66705" lon="2.00402">
        <ele>172</ele>
        <time>2013-08-17T09:17:43Z</time>
      </trkpt>
      <trkpt lat="48.6671" lon="2.00386">
        <ele>172</ele>
        <time>2013-08-17T09:17:45Z</time>
      </trkpt>
      <trkpt lat="48.66714" lon="2.0037">
        <ele>172</ele>
        <time>2013-08-17T09:17:47Z</time>
      </trkpt>
      <trkpt lat="48.6672" lon="2.00353">
        <ele>172</ele>
        <time>2013-08-17T09:17:49Z</time>
      </trkpt>
      <trkpt lat="48.66725" lon="2.00335">
        <ele>172</ele>
        <time>2013-08-17T09:17:51Z</time>
      </trkpt>
      <trkpt lat="48.6673" lon="2.00318">
        <ele>172</ele>
        <time>2013-08-17T09:17:53Z</time>
      </trkpt>
      <trkpt lat="48.66736" lon="2.003">
        <ele>172</ele>
        <time>2013-08-17T09:17:55Z</time>
      </trkpt>
      <trkpt lat="48.66741" lon="2.00282">
        <ele>172</ele>
        <time>2013-08-17T09:17:57Z</time>
      </trkpt>
      <trkpt lat="48.66746" lon="2.00264">
        <ele>172</ele>
        <time>2013-08-17T09:17:59Z</time>
      </trkpt>
      <trkpt lat="48.6675" lon="2.00245">
        <ele>172</ele>
        <time>2013-08-17T09:18:01Z</time>
      </trkpt>
      <trkpt lat="48.66754" lon="2.00227">
        <ele>172</ele>
        <time>2013-08-17T09:18:03Z</time>
      </trkpt>
      <trkpt lat="48.66758" lon="2.00209">
        <ele>172</ele>
        <time>2013-08-17T09:18:05Z</time>
      </trkpt>
      <trkpt lat="48.66761" lon="2.00191">
        <ele>172</ele>
        <time>2013-08-17T09:18:07Z</time>
      </trkpt>
      <trkpt lat="48.66766" lon="2.00174">
        <ele>172</ele>
        <time>2013-08-17T09:18:09Z</time>
      </trkpt>
      <trkpt lat="48.6677" lon="2.00156">
        <ele>172</ele>
        <time>2013-08-17T09:18:11Z</time>
      </trkpt>
      <trkpt lat="48.66775" lon="2.00138">
        <ele>172</ele>
        <time>2013-08-17T09:18:13Z</time>
      </trkpt>
      <trkpt lat="48.6678" lon="2.00121">
        <ele>172</ele>
        <time>2013-08-17T09:18:15Z</time>
      </trkpt>
      <trkpt lat="48.66785" lon="2.00105">
        <ele>172</ele>
        <time>2013-08-17T09:18:17Z</time>
      </trkpt>
      <trkpt lat="48.66792" lon="2.0009">
        <ele>172</ele>
        <time>2013-08-17T09:18:19Z</time>
      </trkpt>
      <trkpt lat="48.668" lon="2.00076">
        <ele>172</ele>
        <time>2013-08-17T09:18:21Z</time>
      </trkpt>
      <trkpt lat="48.66809" lon="2.00062">
        <ele>172</ele>
        <time>2013-08-17T09:18:23Z</time>
      </trkpt>
      <trkpt lat="48.66819" lon="2.00047">
        <ele>172</ele>
        <time>2013-08-17T09:18:25Z</time>
      </trkpt>
      <trkpt lat="48.66827" lon="2.00032">
        <ele>172</ele>
        <time>2013-08-17T09:18:27Z</time>
      </trkpt>
      <trkpt lat="48.66836" lon="2.00017">
        <ele>172</ele>
        <time>2013-08-17T09:18:29Z</time>
      </trkpt>
      <trkpt lat="48.66846" lon="1.99991">
        <ele>172</ele>
        <time>2013-08-17T09:18:32Z</time>
      </trkpt>
      <trkpt lat="48.66852" lon="1.99972">
        <ele>172</ele>
        <time>2013-08-17T09:18:34Z</time>
      </trkpt>
      <trkpt lat="48.66857" lon="1.99952">
        <ele>172</ele>
        <time>2013-08-17T09:18:36Z</time>
      </trkpt>
      <trkpt lat="48.6686" lon="1.99932">
        <ele>172</ele>
        <time>2013-08-17T09:18:38Z</time>
      </trkpt>
      <trkpt lat="48.66863" lon="1.99912">
        <ele>172</ele>
        <time>2013-08-17T09:18:40Z</time>
      </trkpt>
      <trkpt lat="48.66868" lon="1.99893">
        <ele>172</ele>
        <time>2013-08-17T09:18:42Z</time>
      </trkpt>
      <trkpt lat="48.66873" lon="1.99874">
        <ele>172</ele>
        <time>2013-08-17T09:18:44Z</time>
      </trkpt>
      <trkpt lat="48.66878" lon="1.99857">
        <ele>172</ele>
        <time>2013-08-17T09:18:46Z</time>
      </trkpt>
      <trkpt lat="48.66884" lon="1.99838">
        <ele>172</ele>
        <time>2013-08-17T09:18:48Z</time>
      </trkpt>
      <trkpt lat="48.6689" lon="1.9982">
        <ele>172</ele>
        <time>2013-08-17T09:18:50Z</time>
      </trkpt>
      <trkpt lat="48.66896" lon="1.99803">
        <ele>172</ele>
        <time>2013-08-17T09:18:52Z</time>
      </trkpt>
      <trkpt lat="48.66903" lon="1.99785">
        <ele>172</ele>
        <time>2013-08-17T09:18:54Z</time>
      </trkpt>
      <trkpt lat="48.6691" lon="1.99768">
        <ele>172</ele>
        <time>2013-08-17T09:18:56Z</time>
      </trkpt>
      <trkpt lat="48.66917" lon="1.9975">
        <ele>172</ele>
        <time>2013-08-17T09:18:58Z</time>
      </trkpt>
      <trkpt lat="48.66926" lon="1.99734">
        <ele>172</ele>
        <time>2013-08-17T09:19:00Z</time>
      </trkpt>
      <trkpt lat="48.66936" lon="1.99718">
        <ele>172</ele>
        <time>2013-08-17T09:19:02Z</time>
      </trkpt>
      <trkpt lat="48.66948" lon="1.99703">
        <ele>172</ele>
        <time>2013-08-17T09:19:04Z</time>
      </trkpt>
      <trkpt lat="48.66959" lon="1.9969">
        <ele>172</ele>
        <time>2013-08-17T09:19:06Z</time>
      </trkpt>
      <trkpt lat="48.66971" lon="1.9968">
        <ele>172</ele>
        <time>2013-08-17T09:19:08Z</time>
      </trkpt>
      <trkpt lat="48.66984" lon="1.99671">
        <ele>172</ele>
        <time>2013-08-17T09:19:10Z</time>
      </trkpt>
      <trkpt lat="48.66997" lon="1.99664">
        <ele>172</ele>
        <time>2013-08-17T09:19:12Z</time>
      </trkpt>
      <trkpt lat="48.6701" lon="1.99656">
        <ele>172</ele>
        <time>2013-08-17T09:19:14Z</time>
      </trkpt>
      <trkpt lat="48.67023" lon="1.99649">
        <ele>172</ele>
        <time>2013-08-17T09:19:16Z</time>
      </trkpt>
      <trkpt lat="48.67035" lon="1.99642">
        <ele>172</ele>
        <time>2013-08-17T09:19:18Z</time>
      </trkpt>
      <trkpt lat="48.67048" lon="1.99635">
        <ele>172</ele>
        <time>2013-08-17T09:19:20Z</time>
      </trkpt>
      <trkpt lat="48.6706" lon="1.99627">
        <ele>172</ele>
        <time>2013-08-17T09:19:22Z</time>
      </trkpt>
      <trkpt lat="48.67072" lon="1.99619">
        <ele>172</ele>
        <time>2013-08-17T09:19:24Z</time>
      </trkpt>
      <trkpt lat="48.67083" lon="1.9961">
        <ele>172</ele>
        <time>2013-08-17T09:19:26Z</time>
      </trkpt>
      <trkpt lat="48.67093" lon="1.996">
        <ele>172</ele>
        <time>2013-08-17T09:19:28Z</time>
      </trkpt>
      <trkpt lat="48.67108" lon="1.99588">
        <ele>172</ele>
        <time>2013-08-17T09:19:31Z</time>
      </trkpt>
      <trkpt lat="48.67119" lon="1.99579">
        <ele>172</ele>
        <time>2013-08-17T09:19:33Z</time>
      </trkpt>
      <trkpt lat="48.6713" lon="1.9957">
        <ele>172</ele>
        <time>2013-08-17T09:19:35Z</time>
      </trkpt>
      <trkpt lat="48.6714" lon="1.99561">
        <ele>172</ele>
        <time>2013-08-17T09:19:37Z</time>
      </trkpt>
      <trkpt lat="48.67149" lon="1.99552">
        <ele>172</ele>
        <time>2013-08-17T09:19:39Z</time>
      </trkpt>
      <trkpt lat="48.67159" lon="1.99544">
        <ele>172</ele>
        <time>2013-08-17T09:19:41Z</time>
      </trkpt>
      <trkpt lat="48.67168" lon="1.99535">
        <ele>172</ele>
        <time>2013-08-17T09:19:43Z</time>
      </trkpt>
      <trkpt lat="48.67178" lon="1.99528">
        <ele>172</ele>
        <time>2013-08-17T09:19:45Z</time>
      </trkpt>
      <trkpt lat="48.67193" lon="1.99516">
        <ele>172</ele>
        <time>2013-08-17T09:19:48Z</time>
      </trkpt>
      <trkpt lat="48.67204" lon="1.99507">
        <ele>172</ele>
        <time>2013-08-17T09:19:50Z</time>
      </trkpt>
      <trkpt lat="48.67215" lon="1.99497">
        <ele>172</ele>
        <time>2013-08-17T09:19:52Z</time>
      </trkpt>
      <trkpt lat="48.67226" lon="1.99487">
        <ele>172</ele>
        <time>2013-08-17T09:19:54Z</time>
      </trkpt>
      <trkpt lat="48.67237" lon="1.99476">
        <ele>172</ele>
        <time>2013-08-17T09:19:56Z</time>
      </trkpt>
      <trkpt lat="48.67249" lon="1.99464">
        <ele>172</ele>
        <time>2013-08-17T09:19:58Z</time>
      </trkpt>
      <trkpt lat="48.67261" lon="1.99452">
        <ele>172</ele>
        <time>2013-08-17T09:20:00Z</time>
      </trkpt>
      <trkpt lat="48.67273" lon="1.9944">
        <ele>172</ele>
        <time>2013-08-17T09:20:02Z</time>
      </trkpt>
      <trkpt lat="48.67284" lon="1.99428">
        <ele>172</ele>
        <time>2013-08-17T09:20:04Z</time>
      </trkpt>
      <trkpt lat="48.67296" lon="1.99416">
        <ele>172</ele>
        <time>2013-08-17T09:20:06Z</time>
      </trkpt>
      <trkpt lat="48.67306" lon="1.99404">
        <ele>172</ele>
        <time>2013-08-17T09:20:08Z</time>
      </trkpt>
      <trkpt lat="48.67316" lon="1.99392">
        <ele>172</ele>
        <time>2013-08-17T09:20:10Z</time>
      </trkpt>
      <trkpt lat="48.67326" lon="1.99381">
        <ele>172</ele>
        <time>2013-08-17T09:20:12Z</time>
      </trkpt>
      <trkpt lat="48.67336" lon="1.99369">
        <ele>172</ele>
        <time>2013-08-17T09:20:14Z</time>
      </trkpt>
      <trkpt lat="48.67346" lon="1.99357">
        <ele>172</ele>
        <time>2013-08-17T09:20:16Z</time>
      </trkpt>
      <trkpt lat="48.67356" lon="1.99346">
        <ele>172</ele>
        <time>2013-08-17T09:20:18Z</time>
      </trkpt>
      <trkpt lat="48.67366" lon="1.99333">
        <ele>172</ele>
        <time>2013-08-17T09:20:20Z</time>
      </trkpt>
      <trkpt lat="48.67376" lon="1.9932">
        <ele>172</ele>
        <time>2013-08-17T09:20:22Z</time>
      </trkpt>
      <trkpt lat="48.67385" lon="1.99307">
        <ele>172</ele>
        <time>2013-08-17T09:20:24Z</time>
      </trkpt>
      <trkpt lat="48.67396" lon="1.99293">
        <ele>172</ele>
        <time>2013-08-17T09:20:26Z</time>
      </trkpt>
      <trkpt lat="48.67406" lon="1.9928">
        <ele>172</ele>
        <time>2013-08-17T09:20:28Z</time>
      </trkpt>
      <trkpt lat="48.67416" lon="1.99267">
        <ele>172</ele>
        <time>2013-08-17T09:20:30Z</time>
      </trkpt>
      <trkpt lat="48.67425" lon="1.99253">
        <ele>172</ele>
        <time>2013-08-17T09:20:32Z</time>
      </trkpt>
      <trkpt lat="48.67434" lon="1.99241">
        <ele>172</ele>
        <time>2013-08-17T09:20:34Z</time>
      </trkpt>
      <trkpt lat="48.67444" lon="1.99229">
        <ele>172</ele>
        <time>2013-08-17T09:20:36Z</time>
      </trkpt>
      <trkpt lat="48.67453" lon="1.99217">
        <ele>172</ele>
        <time>2013-08-17T09:20:38Z</time>
      </trkpt>
      <trkpt lat="48.67461" lon="1.99206">
        <ele>172</ele>
        <time>2013-08-17T09:20:40Z</time>
      </trkpt>
      <trkpt lat="48.67469" lon="1.99195">
        <ele>172</ele>
        <time>2013-08-17T09:20:42Z</time>
      </trkpt>
      <trkpt lat="48.67476" lon="1.99185">
        <ele>172</ele>
        <time>2013-08-17T09:20:44Z</time>
      </trkpt>
      <trkpt lat="48.67483" lon="1.99176">
        <ele>172</ele>
        <time>2013-08-17T09:20:46Z</time>
      </trkpt>
      <trkpt lat="48.67489" lon="1.99169">
        <ele>172</ele>
        <time>2013-08-17T09:20:48Z</time>
      </trkpt>
      <trkpt lat="48.67493" lon="1.99163">
        <ele>172</ele>
        <time>2013-08-17T09:20:50Z</time>
      </trkpt>
      <trkpt lat="48.67495" lon="1.99159">
        <ele>172</ele>
        <time>2013-08-17T09:20:52Z</time>
      </trkpt>
      <trkpt lat="48.67498" lon="1.99156">
        <ele>172</ele>
        <time>2013-08-17T09:20:54Z</time>
      </trkpt>
      <trkpt lat="48.675" lon="1.99153">
        <ele>172</ele>
        <time>2013-08-17T09:20:56Z</time>
      </trkpt>
      <trkpt lat="48.67503" lon="1.9915">
        <ele>172</ele>
        <time>2013-08-17T09:20:58Z</time>
      </trkpt>
      <trkpt lat="48.67506" lon="1.99147">
        <ele>172</ele>
        <time>2013-08-17T09:21:00Z</time>
      </trkpt>
      <trkpt lat="48.67508" lon="1.99144">
        <ele>172</ele>
        <time>2013-08-17T09:21:02Z</time>
      </trkpt>
      <trkpt lat="48.67511" lon="1.9914">
        <ele>172</ele>
        <time>2013-08-17T09:21:04Z</time>
      </trkpt>
      <trkpt lat="48.67513" lon="1.99137">
        <ele>172</ele>
        <time>2013-08-17T09:21:06Z</time>
      </trkpt>
      <trkpt lat="48.67515" lon="1.99134">
        <ele>172</ele>
        <time>2013-08-17T09:21:08Z</time>
      </trkpt>
      <trkpt lat="48.67518" lon="1.99131">
        <ele>172</ele>
        <time>2013-08-17T09:21:10Z</time>
      </trkpt>
      <trkpt lat="48.6752" lon="1.99127">
        <ele>172</ele>
        <time>2013-08-17T09:21:12Z</time>
      </trkpt>
      <trkpt lat="48.67522" lon="1.99124">
        <ele>172</ele>
        <time>2013-08-17T09:21:14Z</time>
      </trkpt>
      <trkpt lat="48.67526" lon="1.99119">
        <ele>172</ele>
        <time>2013-08-17T09:21:17Z</time>
      </trkpt>
      <trkpt lat="48.67529" lon="1.99114">
        <ele>172</ele>
        <time>2013-08-17T09:21:20Z</time>
      </trkpt>
      <trkpt lat="48.67533" lon="1.9911">
        <ele>172</ele>
        <time>2013-08-17T09:21:23Z</time>
      </trkpt>
      <trkpt lat="48.67536" lon="1.99107">
        <ele>172</ele>
        <time>2013-08-17T09:21:25Z</time>
      </trkpt>
      <trkpt lat="48.67538" lon="1.99103">
        <ele>172</ele>
        <time>2013-08-17T09:21:27Z</time>
      </trkpt>
      <trkpt lat="48.6754" lon="1.991">
        <ele>172</ele>
        <time>2013-08-17T09:21:29Z</time>
      </trkpt>
      <trkpt lat="48.67543" lon="1.99097">
        <ele>172</ele>
        <time>2013-08-17T09:21:31Z</time>
      </trkpt>
      <trkpt lat="48.67545" lon="1.99094">
        <ele>172</ele>
        <time>2013-08-17T09:21:33Z</time>
      </trkpt>
      <trkpt lat="48.67548" lon="1.99091">
        <ele>172</ele>
        <time>2013-08-17T09:21:35Z</time>
      </trkpt>
      <trkpt lat="48.67551" lon="1.99088">
        <ele>172</ele>
        <time>2013-08-17T09:21:37Z</time>
      </trkpt>
      <trkpt lat="48.67553" lon="1.99084">
        <ele>172</ele>
        <time>2013-08-17T09:21:39Z</time>
      </trkpt>
      <trkpt lat="48.67556" lon="1.99081">
        <ele>172</ele>
        <time>2013-08-17T09:21:41Z</time>
      </trkpt>
      <trkpt lat="48.67558" lon="1.99079">
        <ele>172</ele>
        <time>2013-08-17T09:21:43Z</time>
      </trkpt>
      <trkpt lat="48.67561" lon="1.99079">
        <ele>172</ele>
        <time>2013-08-17T09:21:45Z</time>
      </trkpt>
      <trkpt lat="48.67564" lon="1.99078">
        <ele>172</ele>
        <time>2013-08-17T09:21:47Z</time>
      </trkpt>
      <trkpt lat="48.67567" lon="1.99077">
        <ele>172</ele>
        <time>2013-08-17T09:21:49Z</time>
      </trkpt>
      <trkpt lat="48.6757" lon="1.99077">
        <ele>172</ele>
        <time>2013-08-17T09:21:51Z</time>
      </trkpt>
      <trkpt lat="48.67572" lon="1.99076">
        <ele>172</ele>
        <time>2013-08-17T09:21:53Z</time>
      </trkpt>
      <trkpt lat="48.67576" lon="1.99076">
        <ele>172</ele>
        <time>2013-08-17T09:21:55Z</time>
      </trkpt>
      <trkpt lat="48.67578" lon="1.99075">
        <ele>172</ele>
        <time>2013-08-17T09:21:57Z</time>
      </trkpt>
      <trkpt lat="48.67582" lon="1.99073">
        <ele>172</ele>
        <time>2013-08-17T09:21:59Z</time>
      </trkpt>
      <trkpt lat="48.67585" lon="1.99072">
        <ele>172</ele>
        <time>2013-08-17T09:22:01Z</time>
      </trkpt>
      <trkpt lat="48.67588" lon="1.99071">
        <ele>172</ele>
        <time>2013-08-17T09:22:03Z</time>
      </trkpt>
      <trkpt lat="48.6759" lon="1.99069">
        <ele>172</ele>
        <time>2013-08-17T09:22:05Z</time>
      </trkpt>
      <trkpt lat="48.67594" lon="1.99068">
        <ele>172</ele>
        <time>2013-08-17T09:22:07Z</time>
      </trkpt>
      <trkpt lat="48.67597" lon="1.99065">
        <ele>172</ele>
        <time>2013-08-17T09:22:09Z</time>
      </trkpt>
      <trkpt lat="48.676" lon="1.99063">
        <ele>172</ele>
        <time>2013-08-17T09:22:11Z</time>
      </trkpt>
      <trkpt lat="48.67603" lon="1.99061">
        <ele>172</ele>
        <time>2013-08-17T09:22:13Z</time>
      </trkpt>
      <trkpt lat="48.67606" lon="1.99059">
        <ele>172</ele>
        <time>2013-08-17T09:22:15Z</time>
      </trkpt>
      <trkpt lat="48.67608" lon="1.99056">
        <ele>172</ele>
        <time>2013-08-17T09:22:17Z</time>
      </trkpt>
      <trkpt lat="48.6761" lon="1.99054">
        <ele>172</ele>
        <time>2013-08-17T09:22:19Z</time>
      </trkpt>
      <trkpt lat="48.67613" lon="1.99051">
        <ele>172</ele>
        <time>2013-08-17T09:22:21Z</time>
      </trkpt>
      <trkpt lat="48.67615" lon="1.99048">
        <ele>172</ele>
        <time>2013-08-17T09:22:23Z</time>
      </trkpt>
      <trkpt lat="48.67618" lon="1.99044">
        <ele>172</ele>
        <time>2013-08-17T09:22:25Z</time>
      </trkpt>
      <trkpt lat="48.6762" lon="1.99041">
        <ele>172</ele>
        <time>2013-08-17T09:22:27Z</time>
      </trkpt>
      <trkpt lat="48.67623" lon="1.99039">
        <ele>172</ele>
        <time>2013-08-17T09:22:29Z</time>
      </trkpt>
      <trkpt lat="48.67626" lon="1.99037">
        <ele>172</ele>
        <time>2013-08-17T09:22:31Z</time>
      </trkpt>
      <trkpt lat="48.67628" lon="1.99035">
        <ele>172</ele>
        <time>2013-08-17T09:22:33Z</time>
      </trkpt>
      <trkpt lat="48.67632" lon="1.99031">
        <ele>172</ele>
        <time>2013-08-17T09:22:36Z</time>
      </trkpt>
      <trkpt lat="48.67634" lon="1.99028">
        <ele>172</ele>
        <time>2013-08-17T09:22:38Z</time>
      </trkpt>
      <trkpt lat="48.67636" lon="1.99026">
        <ele>172</ele>
        <time>2013-08-17T09:22:40Z</time>
      </trkpt>
      <trkpt lat="48.67639" lon="1.99023">
        <ele>172</ele>
        <time>2013-08-17T09:22:42Z</time>
      </trkpt>
      <trkpt lat="48.67642" lon="1.9902">
        <ele>172</ele>
        <time>2013-08-17T09:22:44Z</time>
      </trkpt>
      <trkpt lat="48.67644" lon="1.99017">
        <ele>172</ele>
        <time>2013-08-17T09:22:46Z</time>
      </trkpt>
      <trkpt lat="48.67646" lon="1.99014">
        <ele>172</ele>
        <time>2013-08-17T09:22:48Z</time>
      </trkpt>
      <trkpt lat="48.67649" lon="1.99011">
        <ele>172</ele>
        <time>2013-08-17T09:22:50Z</time>
      </trkpt>
      <trkpt lat="48.67652" lon="1.99008">
        <ele>172</ele>
        <time>2013-08-17T09:22:52Z</time>
      </trkpt>
      <trkpt lat="48.67655" lon="1.99005">
        <ele>172</ele>
        <time>2013-08-17T09:22:54Z</time>
      </trkpt>
      <trkpt lat="48.67657" lon="1.99002">
        <ele>172</ele>
        <time>2013-08-17T09:22:56Z</time>
      </trkpt>
      <trkpt lat="48.6766" lon="1.99">
        <ele>172</ele>
        <time>2013-08-17T09:22:58Z</time>
      </trkpt>
      <trkpt lat="48.67662" lon="1.98997">
        <ele>172</ele>
        <time>2013-08-17T09:23:00Z</time>
      </trkpt>
      <trkpt lat="48.67666" lon="1.98993">
        <ele>172</ele>
        <time>2013-08-17T09:23:03Z</time>
      </trkpt>
      <trkpt lat="48.67669" lon="1.9899">
        <ele>172</ele>
        <time>2013-08-17T09:23:05Z</time>
      </trkpt>
      <trkpt lat="48.67671" lon="1.98987">
        <ele>172</ele>
        <time>2013-08-17T09:23:07Z</time>
      </trkpt>
      <trkpt lat="48.67673" lon="1.98985">
        <ele>172</ele>
        <time>2013-08-17T09:23:09Z</time>
      </trkpt>
      <trkpt lat="48.67676" lon="1.98982">
        <ele>172</ele>
        <time>2013-08-17T09:23:11Z</time>
      </trkpt>
      <trkpt lat="48.67678" lon="1.98979">
        <ele>172</ele>
        <time>2013-08-17T09:23:13Z</time>
      </trkpt>
      <trkpt lat="48.6768" lon="1.98977">
        <ele>172</ele>
        <time>2013-08-17T09:23:15Z</time>
      </trkpt>
      <trkpt lat="48.67682" lon="1.98974">
        <ele>172</ele>
        <time>2013-08-17T09:23:17Z</time>
      </trkpt>
      <trkpt lat="48.67686" lon="1.9897">
        <ele>172</ele>
        <time>2013-08-17T09:23:20Z</time>
      </trkpt>
      <trkpt lat="48.67688" lon="1.98967">
        <ele>172</ele>
        <time>2013-08-17T09:23:22Z</time>
      </trkpt>
      <trkpt lat="48.67691" lon="1.98964">
        <ele>172</ele>
        <time>2013-08-17T09:23:24Z</time>
      </trkpt>
      <trkpt lat="48.67693" lon="1.98961">
        <ele>172</ele>
        <time>2013-08-17T09:23:26Z</time>
      </trkpt>
      <trkpt lat="48.67695" lon="1.98959">
        <ele>172</ele>
        <time>2013-08-17T09:23:28Z</time>
      </trkpt>
      <trkpt lat="48.67698" lon="1.98956">
        <ele>172</ele>
        <time>2013-08-17T09:23:30Z</time>
      </trkpt>
      <trkpt lat="48.677" lon="1.98953">
        <ele>172</ele>
        <time>2013-08-17T09:23:32Z</time>
      </trkpt>
      <trkpt lat="48.67702" lon="1.98951">
        <ele>172</ele>
        <time>2013-08-17T09:23:34Z</time>
      </trkpt>
      <trkpt lat="48.67704" lon="1.98948">
        <ele>172</ele>
        <time>2013-08-17T09:23:36Z</time>
      </trkpt>
      <trkpt lat="48.67707" lon="1.98946">
        <ele>172</ele>
        <time>2013-08-17T09:23:38Z</time>
      </trkpt>
      <trkpt lat="48.6771" lon="1.98944">
        <ele>172</ele>
        <time>2013-08-17T09:23:40Z</time>
      </trkpt>
      <trkpt lat="48.67712" lon="1.98942">
        <ele>172</ele>
        <time>2013-08-17T09:23:42Z</time>
      </trkpt>
      <trkpt lat="48.67715" lon="1.98942">
        <ele>172</ele>
        <time>2013-08-17T09:23:44Z</time>
      </trkpt>
      <trkpt lat="48.67718" lon="1.9894">
        <ele>172</ele>
        <time>2013-08-17T09:23:47Z</time>
      </trkpt>
      <trkpt lat="48.6772" lon="1.98938">
        <ele>172</ele>
        <time>2013-08-17T09:23:49Z</time>
      </trkpt>
      <trkpt lat="48.67722" lon="1.98936">
        <ele>171</ele>
        <time>2013-08-17T09:23:51Z</time>
      </trkpt>
      <trkpt lat="48.67724" lon="1.98933">
        <ele>171</ele>
        <time>2013-08-17T09:23:53Z</time>
      </trkpt>
      <trkpt lat="48.67725" lon="1.98928">
        <ele>171</ele>
        <time>2013-08-17T09:23:55Z</time>
      </trkpt>
      <trkpt lat="48.67726" lon="1.98925">
        <ele>171</ele>
        <time>2013-08-17T09:23:57Z</time>
      </trkpt>
      <trkpt lat="48.67726" lon="1.98921">
        <ele>171</ele>
        <time>2013-08-17T09:23:59Z</time>
      </trkpt>
      <trkpt lat="48.67726" lon="1.98916">
        <ele>171</ele>
        <time>2013-08-17T09:24:01Z</time>
      </trkpt>
      <trkpt lat="48.67725" lon="1.98912">
        <ele>171</ele>
        <time>2013-08-17T09:24:03Z</time>
      </trkpt>
      <trkpt lat="48.67725" lon="1.98907">
        <ele>171</ele>
        <time>2013-08-17T09:24:05Z</time>
      </trkpt>
      <trkpt lat="48.67724" lon="1.98902">
        <ele>171</ele>
        <time>2013-08-17T09:24:07Z</time>
      </trkpt>
      <trkpt lat="48.67723" lon="1.98897">
        <ele>171</ele>
        <time>2013-08-17T09:24:09Z</time>
      </trkpt>
      <trkpt lat="48.67723" lon="1.98892">
        <ele>171</ele>
        <time>2013-08-17T09:24:11Z</time>
      </trkpt>
      <trkpt lat="48.67723" lon="1.98887">
        <ele>171</ele>
        <time>2013-08-17T09:24:13Z</time>
      </trkpt>
      <trkpt lat="48.67724" lon="1.98883">
        <ele>171</ele>
        <time>2013-08-17T09:24:15Z</time>
      </trkpt>
      <trkpt lat="48.67726" lon="1.98879">
        <ele>171</ele>
        <time>2013-08-17T09:24:17Z</time>
      </trkpt>
      <trkpt lat="48.67726" lon="1.98873">
        <ele>171</ele>
        <time>2013-08-17T09:24:20Z</time>
      </trkpt>
      <trkpt lat="48.67725" lon="1.98868">
        <ele>171</ele>
        <time>2013-08-17T09:24:22Z</time>
      </trkpt>
      <trkpt lat="48.67725" lon="1.98863">
        <ele>171</ele>
        <time>2013-08-17T09:24:24Z</time>
      </trkpt>
      <trkpt lat="48.67725" lon="1.98859">
        <ele>171</ele>
        <time>2013-08-17T09:24:26Z</time>
      </trkpt>
      <trkpt lat="48.67725" lon="1.98854">
        <ele>171</ele>
        <time>2013-08-17T09:24:28Z</time>
      </trkpt>
      <trkpt lat="48.67726" lon="1.98849">
        <ele>171</ele>
        <time>2013-08-17T09:24:30Z</time>
      </trkpt>
      <trkpt lat="48.67727" lon="1.98846">
        <ele>171</ele>
        <time>2013-08-17T09:24:32Z</time>
      </trkpt>
      <trkpt lat="48.67728" lon="1.98842">
        <ele>171</ele>
        <time>2013-08-17T09:24:34Z</time>
      </trkpt>
      <trkpt lat="48.67729" lon="1.98835">
        <ele>171</ele>
        <time>2013-08-17T09:24:37Z</time>
      </trkpt>
      <trkpt lat="48.67729" lon="1.98829">
        <ele>171</ele>
        <time>2013-08-17T09:24:39Z</time>
      </trkpt>
      <trkpt lat="48.67729" lon="1.98824">
        <ele>171</ele>
        <time>2013-08-17T09:24:41Z</time>
      </trkpt>
      <trkpt lat="48.67729" lon="1.98819">
        <ele>171</ele>
        <time>2013-08-17T09:24:43Z</time>
      </trkpt>
      <trkpt lat="48.67728" lon="1.98814">
        <ele>171</ele>
        <time>2013-08-17T09:24:45Z</time>
      </trkpt>
      <trkpt lat="48.67725" lon="1.98809">
        <ele>171</ele>
        <time>2013-08-17T09:24:47Z</time>
      </trkpt>
      <trkpt lat="48.67724" lon="1.98804">
        <ele>171</ele>
        <time>2013-08-17T09:24:49Z</time>
      </trkpt>
      <trkpt lat="48.67724" lon="1.98799">
        <ele>171</ele>
        <time>2013-08-17T09:24:51Z</time>
      </trkpt>
      <trkpt lat="48.67723" lon="1.98795">
        <ele>171</ele>
        <time>2013-08-17T09:24:53Z</time>
      </trkpt>
      <trkpt lat="48.67724" lon="1.9879">
        <ele>171</ele>
        <time>2013-08-17T09:24:55Z</time>
      </trkpt>
      <trkpt lat="48.67723" lon="1.98785">
        <ele>171</ele>
        <time>2013-08-17T09:24:57Z</time>
      </trkpt>
      <trkpt lat="48.67724" lon="1.9878">
        <ele>171</ele>
        <time>2013-08-17T09:24:59Z</time>
      </trkpt>
      <trkpt lat="48.67727" lon="1.98777">
        <ele>171</ele>
        <time>2013-08-17T09:25:01Z</time>
      </trkpt>
      <trkpt lat="48.6773" lon="1.98775">
        <ele>171</ele>
        <time>2013-08-17T09:25:03Z</time>
      </trkpt>
      <trkpt lat="48.67732" lon="1.98771">
        <ele>171</ele>
        <time>2013-08-17T09:25:05Z</time>
      </trkpt>
      <trkpt lat="48.67736" lon="1.9877">
        <ele>171</ele>
        <time>2013-08-17T09:25:07Z</time>
      </trkpt>
      <trkpt lat="48.67739" lon="1.98769">
        <ele>171</ele>
        <time>2013-08-17T09:25:09Z</time>
      </trkpt>
      <trkpt lat="48.67741" lon="1.98767">
        <ele>171</ele>
        <time>2013-08-17T09:25:11Z</time>
      </trkpt>
      <trkpt lat="48.67744" lon="1.98767">
        <ele>171</ele>
        <time>2013-08-17T09:25:13Z</time>
      </trkpt>
      <trkpt lat="48.67747" lon="1.98767">
        <ele>171</ele>
        <time>2013-08-17T09:25:15Z</time>
      </trkpt>
      <trkpt lat="48.67751" lon="1.98766">
        <ele>171</ele>
        <time>2013-08-17T09:25:18Z</time>
      </trkpt>
      <trkpt lat="48.67754" lon="1.98765">
        <ele>171</ele>
        <time>2013-08-17T09:25:20Z</time>
      </trkpt>
      <trkpt lat="48.67757" lon="1.98764">
        <ele>171</ele>
        <time>2013-08-17T09:25:22Z</time>
      </trkpt>
      <trkpt lat="48.6776" lon="1.98764">
        <ele>171</ele>
        <time>2013-08-17T09:25:24Z</time>
      </trkpt>
      <trkpt lat="48.67764" lon="1.98763">
        <ele>171</ele>
        <time>2013-08-17T09:25:27Z</time>
      </trkpt>
      <trkpt lat="48.67767" lon="1.98763">
        <ele>171</ele>
        <time>2013-08-17T09:25:29Z</time>
      </trkpt>
      <trkpt lat="48.6777" lon="1.98763">
        <ele>171</ele>
        <time>2013-08-17T09:25:31Z</time>
      </trkpt>
      <trkpt lat="48.67773" lon="1.98762">
        <ele>171</ele>
        <time>2013-08-17T09:25:33Z</time>
      </trkpt>
      <trkpt lat="48.67776" lon="1.98761">
        <ele>171</ele>
        <time>2013-08-17T09:25:35Z</time>
      </trkpt>
      <trkpt lat="48.67778" lon="1.98761">
        <ele>171</ele>
        <time>2013-08-17T09:25:37Z</time>
      </trkpt>
      <trkpt lat="48.67781" lon="1.9876">
        <ele>171</ele>
        <time>2013-08-17T09:25:39Z</time>
      </trkpt>
      <trkpt lat="48.67784" lon="1.98758">
        <ele>171</ele>
        <time>2013-08-17T09:25:41Z</time>
      </trkpt>
      <trkpt lat="48.67786" lon="1.98756">
        <ele>171</ele>
        <time>2013-08-17T09:25:43Z</time>
      </trkpt>
      <trkpt lat="48.67789" lon="1.98755">
        <ele>171</ele>
        <time>2013-08-17T09:25:45Z</time>
      </trkpt>
      <trkpt lat="48.67793" lon="1.98751">
        <ele>171</ele>
        <time>2013-08-17T09:25:48Z</time>
      </trkpt>
      <trkpt lat="48.67796" lon="1.98747">
        <ele>171</ele>
        <time>2013-08-17T09:25:50Z</time>
      </trkpt>
      <trkpt lat="48.67798" lon="1.98742">
        <ele>172</ele>
        <time>2013-08-17T09:25:52Z</time>
      </trkpt>
      <trkpt lat="48.67799" lon="1.98738">
        <ele>173</ele>
        <time>2013-08-17T09:25:54Z</time>
      </trkpt>
      <trkpt lat="48.67801" lon="1.98735">
        <ele>173</ele>
        <time>2013-08-17T09:25:56Z</time>
      </trkpt>
      <trkpt lat="48.67803" lon="1.98731">
        <ele>173</ele>
        <time>2013-08-17T09:25:58Z</time>
      </trkpt>
      <trkpt lat="48.67806" lon="1.98728">
        <ele>173</ele>
        <time>2013-08-17T09:26:00Z</time>
      </trkpt>
      <trkpt lat="48.67808" lon="1.98726">
        <ele>173</ele>
        <time>2013-08-17T09:26:02Z</time>
      </trkpt>
      <trkpt lat="48.6781" lon="1.98723">
        <ele>173</ele>
        <time>2013-08-17T09:26:04Z</time>
      </trkpt>
      <trkpt lat="48.67811" lon="1.98719">
        <ele>173</ele>
        <time>2013-08-17T09:26:06Z</time>
      </trkpt>
      <trkpt lat="48.67812" lon="1.98714">
        <ele>173</ele>
        <time>2013-08-17T09:26:08Z</time>
      </trkpt>
      <trkpt lat="48.67815" lon="1.9871">
        <ele>174</ele>
        <time>2013-08-17T09:26:10Z</time>
      </trkpt>
      <trkpt lat="48.67818" lon="1.98707">
        <ele>175</ele>
        <time>2013-08-17T09:26:12Z</time>
      </trkpt>
      <trkpt lat="48.6782" lon="1.98705">
        <ele>175</ele>
        <time>2013-08-17T09:26:14Z</time>
      </trkpt>
      <trkpt lat="48.67824" lon="1.98704">
        <ele>175</ele>
        <time>2013-08-17T09:26:16Z</time>
      </trkpt>
      <trkpt lat="48.67826" lon="1.98703">
        <ele>175</ele>
        <time>2013-08-17T09:26:18Z</time>
      </trkpt>
      <trkpt lat="48.67829" lon="1.98699">
        <ele>175</ele>
        <time>2013-08-17T09:26:20Z</time>
      </trkpt>
      <trkpt lat="48.6783" lon="1.98695">
        <ele>175</ele>
        <time>2013-08-17T09:26:22Z</time>
      </trkpt>
      <trkpt lat="48.67831" lon="1.9869">
        <ele>175</ele>
        <time>2013-08-17T09:26:24Z</time>
      </trkpt>
      <trkpt lat="48.67833" lon="1.98686">
        <ele>175</ele>
        <time>2013-08-17T09:26:26Z</time>
      </trkpt>
      <trkpt lat="48.67834" lon="1.98681">
        <ele>175</ele>
        <time>2013-08-17T09:26:28Z</time>
      </trkpt>
      <trkpt lat="48.67836" lon="1.98677">
        <ele>175</ele>
        <time>2013-08-17T09:26:30Z</time>
      </trkpt>
      <trkpt lat="48.67837" lon="1.98674">
        <ele>175</ele>
        <time>2013-08-17T09:26:32Z</time>
      </trkpt>
      <trkpt lat="48.67838" lon="1.9867">
        <ele>175</ele>
        <time>2013-08-17T09:26:34Z</time>
      </trkpt>
      <trkpt lat="48.67839" lon="1.98666">
        <ele>175</ele>
        <time>2013-08-17T09:26:36Z</time>
      </trkpt>
      <trkpt lat="48.6784" lon="1.98661">
        <ele>175</ele>
        <time>2013-08-17T09:26:38Z</time>
      </trkpt>
      <trkpt lat="48.67841" lon="1.98658">
        <ele>175</ele>
        <time>2013-08-17T09:26:40Z</time>
      </trkpt>
      <trkpt lat="48.67841" lon="1.98653">
        <ele>175</ele>
        <time>2013-08-17T09:26:42Z</time>
      </trkpt>
      <trkpt lat="48.67842" lon="1.98649">
        <ele>175</ele>
        <time>2013-08-17T09:26:44Z</time>
      </trkpt>
      <trkpt lat="48.67844" lon="1.98645">
        <ele>175</ele>
        <time>2013-08-17T09:26:46Z</time>
      </trkpt>
      <trkpt lat="48.67844" lon="1.98641">
        <ele>175</ele>
        <time>2013-08-17T09:26:48Z</time>
      </trkpt>
      <trkpt lat="48.67847" lon="1.98636">
        <ele>175</ele>
        <time>2013-08-17T09:26:50Z</time>
      </trkpt>
      <trkpt lat="48.67848" lon="1.98632">
        <ele>175</ele>
        <time>2013-08-17T09:26:52Z</time>
      </trkpt>
      <trkpt lat="48.6785" lon="1.98626">
        <ele>175</ele>
        <time>2013-08-17T09:26:55Z</time>
      </trkpt>
      <trkpt lat="48.67853" lon="1.98624">
        <ele>175</ele>
        <time>2013-08-17T09:26:57Z</time>
      </trkpt>
      <trkpt lat="48.67856" lon="1.98621">
        <ele>175</ele>
        <time>2013-08-17T09:26:59Z</time>
      </trkpt>
      <trkpt lat="48.67858" lon="1.98619">
        <ele>174</ele>
        <time>2013-08-17T09:27:01Z</time>
      </trkpt>
      <trkpt lat="48.67859" lon="1.98617">
        <ele>174</ele>
        <time>2013-08-17T09:27:03Z</time>
      </trkpt>
      <trkpt lat="48.67861" lon="1.98615">
        <ele>174</ele>
        <time>2013-08-17T09:27:06Z</time>
      </trkpt>
      <trkpt lat="48.67862" lon="1.98612">
        <ele>174</ele>
        <time>2013-08-17T09:27:08Z</time>
      </trkpt>
      <trkpt lat="48.67865" lon="1.98611">
        <ele>174</ele>
        <time>2013-08-17T09:27:10Z</time>
      </trkpt>
      <trkpt lat="48.67869" lon="1.98607">
        <ele>174</ele>
        <time>2013-08-17T09:27:12Z</time>
      </trkpt>
      <trkpt lat="48.67872" lon="1.98607">
        <ele>174</ele>
        <time>2013-08-17T09:27:14Z</time>
      </trkpt>
      <trkpt lat="48.67875" lon="1.98606">
        <ele>174</ele>
        <time>2013-08-17T09:27:16Z</time>
      </trkpt>
      <trkpt lat="48.67878" lon="1.98603">
        <ele>174</ele>
        <time>2013-08-17T09:27:18Z</time>
      </trkpt>
      <trkpt lat="48.6788" lon="1.98602">
        <ele>174</ele>
        <time>2013-08-17T09:27:20Z</time>
      </trkpt>
      <trkpt lat="48.67883" lon="1.98602">
        <ele>174</ele>
        <time>2013-08-17T09:27:22Z</time>
      </trkpt>
      <trkpt lat="48.67886" lon="1.986">
        <ele>174</ele>
        <time>2013-08-17T09:27:24Z</time>
      </trkpt>
      <trkpt lat="48.67889" lon="1.98598">
        <ele>174</ele>
        <time>2013-08-17T09:27:26Z</time>
      </trkpt>
      <trkpt lat="48.67892" lon="1.98598">
        <ele>174</ele>
        <time>2013-08-17T09:27:28Z</time>
      </trkpt>
      <trkpt lat="48.67894" lon="1.98597">
        <ele>174</ele>
        <time>2013-08-17T09:27:30Z</time>
      </trkpt>
      <trkpt lat="48.67898" lon="1.98596">
        <ele>174</ele>
        <time>2013-08-17T09:27:32Z</time>
      </trkpt>
      <trkpt lat="48.67901" lon="1.98596">
        <ele>174</ele>
        <time>2013-08-17T09:27:34Z</time>
      </trkpt>
      <trkpt lat="48.67905" lon="1.98594">
        <ele>174</ele>
        <time>2013-08-17T09:27:36Z</time>
      </trkpt>
      <trkpt lat="48.67909" lon="1.98593">
        <ele>174</ele>
        <time>2013-08-17T09:27:38Z</time>
      </trkpt>
      <trkpt lat="48.67913" lon="1.98592">
        <ele>174</ele>
        <time>2013-08-17T09:27:40Z</time>
      </trkpt>
      <trkpt lat="48.67916" lon="1.98592">
        <ele>173</ele>
        <time>2013-08-17T09:27:42Z</time>
      </trkpt>
      <trkpt lat="48.67921" lon="1.98592">
        <ele>173</ele>
        <time>2013-08-17T09:27:45Z</time>
      </trkpt>
      <trkpt lat="48.67925" lon="1.98591">
        <ele>173</ele>
        <time>2013-08-17T09:27:47Z</time>
      </trkpt>
      <trkpt lat="48.67929" lon="1.98591">
        <ele>173</ele>
        <time>2013-08-17T09:27:49Z</time>
      </trkpt>
      <trkpt lat="48.67932" lon="1.98592">
        <ele>173</ele>
        <time>2013-08-17T09:27:51Z</time>
      </trkpt>
      <trkpt lat="48.67936" lon="1.98592">
        <ele>173</ele>
        <time>2013-08-17T09:27:53Z</time>
      </trkpt>
      <trkpt lat="48.67939" lon="1.98594">
        <ele>173</ele>
        <time>2013-08-17T09:27:56Z</time>
      </trkpt>
      <trkpt lat="48.67944" lon="1.98596">
        <ele>173</ele>
        <time>2013-08-17T09:27:58Z</time>
      </trkpt>
      <trkpt lat="48.67948" lon="1.98599">
        <ele>173</ele>
        <time>2013-08-17T09:28:00Z</time>
      </trkpt>
      <trkpt lat="48.67952" lon="1.98601">
        <ele>174</ele>
        <time>2013-08-17T09:28:02Z</time>
      </trkpt>
      <trkpt lat="48.67954" lon="1.98602">
        <ele>174</ele>
        <time>2013-08-17T09:28:04Z</time>
      </trkpt>
      <trkpt lat="48.67957" lon="1.98603">
        <ele>174</ele>
        <time>2013-08-17T09:28:06Z</time>
      </trkpt>
      <trkpt lat="48.6796" lon="1.98604">
        <ele>175</ele>
        <time>2013-08-17T09:28:09Z</time>
      </trkpt>
      <trkpt lat="48.67963" lon="1.98605">
        <ele>175</ele>
        <time>2013-08-17T09:28:11Z</time>
      </trkpt>
      <trkpt lat="48.67966" lon="1.98605">
        <ele>176</ele>
        <time>2013-08-17T09:28:13Z</time>
      </trkpt>
      <trkpt lat="48.67969" lon="1.98605">
        <ele>176</ele>
        <time>2013-08-17T09:28:15Z</time>
      </trkpt>
      <trkpt lat="48.67971" lon="1.98604">
        <ele>177</ele>
        <time>2013-08-17T09:28:17Z</time>
      </trkpt>
      <trkpt lat="48.67975" lon="1.98604">
        <ele>177</ele>
        <time>2013-08-17T09:28:19Z</time>
      </trkpt>
      <trkpt lat="48.67978" lon="1.98606">
        <ele>177</ele>
        <time>2013-08-17T09:28:21Z</time>
      </trkpt>
      <trkpt lat="48.67982" lon="1.98609">
        <ele>177</ele>
        <time>2013-08-17T09:28:24Z</time>
      </trkpt>
      <trkpt lat="48.67985" lon="1.9861">
        <ele>177</ele>
        <time>2013-08-17T09:28:26Z</time>
      </trkpt>
      <trkpt lat="48.67989" lon="1.98611">
        <ele>177</ele>
        <time>2013-08-17T09:28:28Z</time>
      </trkpt>
      <trkpt lat="48.67993" lon="1.98613">
        <ele>177</ele>
        <time>2013-08-17T09:28:30Z</time>
      </trkpt>
      <trkpt lat="48.67997" lon="1.98614">
        <ele>177</ele>
        <time>2013-08-17T09:28:32Z</time>
      </trkpt>
      <trkpt lat="48.68" lon="1.98616">
        <ele>177</ele>
        <time>2013-08-17T09:28:34Z</time>
      </trkpt>
      <trkpt lat="48.68003" lon="1.98617">
        <ele>177</ele>
        <time>2013-08-17T09:28:36Z</time>
      </trkpt>
      <trkpt lat="48.68007" lon="1.98619">
        <ele>177</ele>
        <time>2013-08-17T09:28:38Z</time>
      </trkpt>
      <trkpt lat="48.68009" lon="1.9862">
        <ele>177</ele>
        <time>2013-08-17T09:28:40Z</time>
      </trkpt>
      <trkpt lat="48.68011" lon="1.98622">
        <ele>177</ele>
        <time>2013-08-17T09:28:42Z</time>
      </trkpt>
      <trkpt lat="48.68014" lon="1.98623">
        <ele>177</ele>
        <time>2013-08-17T09:28:44Z</time>
      </trkpt>
      <trkpt lat="48.68017" lon="1.98624">
        <ele>177</ele>
        <time>2013-08-17T09:28:46Z</time>
      </trkpt>
      <trkpt lat="48.6802" lon="1.98626">
        <ele>177</ele>
        <time>2013-08-17T09:28:48Z</time>
      </trkpt>
      <trkpt lat="48.68025" lon="1.98629">
        <ele>177</ele>
        <time>2013-08-17T09:28:51Z</time>
      </trkpt>
      <trkpt lat="48.68028" lon="1.98631">
        <ele>177</ele>
        <time>2013-08-17T09:28:53Z</time>
      </trkpt>
      <trkpt lat="48.68031" lon="1.98632">
        <ele>177</ele>
        <time>2013-08-17T09:28:55Z</time>
      </trkpt>
      <trkpt lat="48.68034" lon="1.98633">
        <ele>177</ele>
        <time>2013-08-17T09:28:57Z</time>
      </trkpt>
      <trkpt lat="48.68038" lon="1.98634">
        <ele>177</ele>
        <time>2013-08-17T09:29:00Z</time>
      </trkpt>
      <trkpt lat="48.68042" lon="1.98636">
        <ele>177</ele>
        <time>2013-08-17T09:29:02Z</time>
      </trkpt>
      <trkpt lat="48.68046" lon="1.98639">
        <ele>177</ele>
        <time>2013-08-17T09:29:04Z</time>
      </trkpt>
      <trkpt lat="48.6805" lon="1.98641">
        <ele>177</ele>
        <time>2013-08-17T09:29:06Z</time>
      </trkpt>
      <trkpt lat="48.68053" lon="1.98643">
        <ele>177</ele>
        <time>2013-08-17T09:29:08Z</time>
      </trkpt>
      <trkpt lat="48.68057" lon="1.98645">
        <ele>177</ele>
        <time>2013-08-17T09:29:10Z</time>
      </trkpt>
      <trkpt lat="48.68061" lon="1.98646">
        <ele>177</ele>
        <time>2013-08-17T09:29:12Z</time>
      </trkpt>
      <trkpt lat="48.68066" lon="1.98646">
        <ele>177</ele>
        <time>2013-08-17T09:29:14Z</time>
      </trkpt>
      <trkpt lat="48.6807" lon="1.98648">
        <ele>177</ele>
        <time>2013-08-17T09:29:17Z</time>
      </trkpt>
      <trkpt lat="48.68072" lon="1.9865">
        <ele>177</ele>
        <time>2013-08-17T09:29:19Z</time>
      </trkpt>
      <trkpt lat="48.68073" lon="1.98651">
        <ele>177</ele>
        <time>2013-08-17T09:29:21Z</time>
      </trkpt>
      <trkpt lat="48.68076" lon="1.98651">
        <ele>177</ele>
        <time>2013-08-17T09:29:23Z</time>
      </trkpt>
      <trkpt lat="48.68079" lon="1.98652">
        <ele>177</ele>
        <time>2013-08-17T09:29:25Z</time>
      </trkpt>
      <trkpt lat="48.68082" lon="1.98653">
        <ele>177</ele>
        <time>2013-08-17T09:29:27Z</time>
      </trkpt>
      <trkpt lat="48.68085" lon="1.98653">
        <ele>177</ele>
        <time>2013-08-17T09:29:29Z</time>
      </trkpt>
      <trkpt lat="48.68087" lon="1.98653">
        <ele>177</ele>
        <time>2013-08-17T09:29:31Z</time>
      </trkpt>
      <trkpt lat="48.6809" lon="1.98654">
        <ele>177</ele>
        <time>2013-08-17T09:29:34Z</time>
      </trkpt>
      <trkpt lat="48.68095" lon="1.98655">
        <ele>177</ele>
        <time>2013-08-17T09:29:36Z</time>
      </trkpt>
      <trkpt lat="48.681" lon="1.98655">
        <ele>177</ele>
        <time>2013-08-17T09:29:38Z</time>
      </trkpt>
      <trkpt lat="48.68102" lon="1.98656">
        <ele>177</ele>
        <time>2013-08-17T09:29:41Z</time>
      </trkpt>
      <trkpt lat="48.68108" lon="1.98656">
        <ele>177</ele>
        <time>2013-08-17T09:29:43Z</time>
      </trkpt>
      <trkpt lat="48.68111" lon="1.98654">
        <ele>177</ele>
        <time>2013-08-17T09:29:45Z</time>
      </trkpt>
      <trkpt lat="48.68115" lon="1.98655">
        <ele>177</ele>
        <time>2013-08-17T09:29:48Z</time>
      </trkpt>
      <trkpt lat="48.68119" lon="1.98655">
        <ele>177</ele>
        <time>2013-08-17T09:29:50Z</time>
      </trkpt>
      <trkpt lat="48.68122" lon="1.98654">
        <ele>177</ele>
        <time>2013-08-17T09:29:52Z</time>
      </trkpt>
      <trkpt lat="48.68125" lon="1.98654">
        <ele>177</ele>
        <time>2013-08-17T09:29:54Z</time>
      </trkpt>
      <trkpt lat="48.68128" lon="1.98655">
        <ele>177</ele>
        <time>2013-08-17T09:29:56Z</time>
      </trkpt>
      <trkpt lat="48.68131" lon="1.98656">
        <ele>177</ele>
        <time>2013-08-17T09:29:58Z</time>
      </trkpt>
      <trkpt lat="48.68134" lon="1.98658">
        <ele>177</ele>
        <time>2013-08-17T09:30:01Z</time>
      </trkpt>
      <trkpt lat="48.68137" lon="1.98657">
        <ele>177</ele>
        <time>2013-08-17T09:30:03Z</time>
      </trkpt>
      <trkpt lat="48.68142" lon="1.98658">
        <ele>177</ele>
        <time>2013-08-17T09:30:05Z</time>
      </trkpt>
      <trkpt lat="48.68145" lon="1.98659">
        <ele>177</ele>
        <time>2013-08-17T09:30:07Z</time>
      </trkpt>
      <trkpt lat="48.68149" lon="1.9866">
        <ele>177</ele>
        <time>2013-08-17T09:30:09Z</time>
      </trkpt>
      <trkpt lat="48.68152" lon="1.9866">
        <ele>177</ele>
        <time>2013-08-17T09:30:11Z</time>
      </trkpt>
      <trkpt lat="48.68156" lon="1.98659">
        <ele>177</ele>
        <time>2013-08-17T09:30:13Z</time>
      </trkpt>
      <trkpt lat="48.68158" lon="1.98659">
        <ele>177</ele>
        <time>2013-08-17T09:30:15Z</time>
      </trkpt>
      <trkpt lat="48.68161" lon="1.9866">
        <ele>177</ele>
        <time>2013-08-17T09:30:17Z</time>
      </trkpt>
      <trkpt lat="48.68165" lon="1.98659">
        <ele>177</ele>
        <time>2013-08-17T09:30:20Z</time>
      </trkpt>
      <trkpt lat="48.68166" lon="1.98658">
        <ele>177</ele>
        <time>2013-08-17T09:30:22Z</time>
      </trkpt>
      <trkpt lat="48.68168" lon="1.98658">
        <ele>177</ele>
        <time>2013-08-17T09:30:24Z</time>
      </trkpt>
      <trkpt lat="48.68171" lon="1.98658">
        <ele>177</ele>
        <time>2013-08-17T09:30:26Z</time>
      </trkpt>
      <trkpt lat="48.68174" lon="1.98658">
        <ele>177</ele>
        <time>2013-08-17T09:30:28Z</time>
      </trkpt>
      <trkpt lat="48.68176" lon="1.98657">
        <ele>177</ele>
        <time>2013-08-17T09:30:30Z</time>
      </trkpt>
      <trkpt lat="48.68179" lon="1.98657">
        <ele>176</ele>
        <time>2013-08-17T09:30:32Z</time>
      </trkpt>
      <trkpt lat="48.68182" lon="1.98655">
        <ele>176</ele>
        <time>2013-08-17T09:30:34Z</time>
      </trkpt>
      <trkpt lat="48.68185" lon="1.98655">
        <ele>176</ele>
        <time>2013-08-17T09:30:36Z</time>
      </trkpt>
      <trkpt lat="48.68189" lon="1.98654">
        <ele>175</ele>
        <time>2013-08-17T09:30:38Z</time>
      </trkpt>
      <trkpt lat="48.68194" lon="1.98651">
        <ele>174</ele>
        <time>2013-08-17T09:30:40Z</time>
      </trkpt>
      <trkpt lat="48.68197" lon="1.9865">
        <ele>174</ele>
        <time>2013-08-17T09:30:42Z</time>
      </trkpt>
      <trkpt lat="48.682" lon="1.98651">
        <ele>174</ele>
        <time>2013-08-17T09:30:44Z</time>
      </trkpt>
      <trkpt lat="48.68204" lon="1.9865">
        <ele>174</ele>
        <time>2013-08-17T09:30:46Z</time>
      </trkpt>
      <trkpt lat="48.68208" lon="1.9865">
        <ele>174</ele>
        <time>2013-08-17T09:30:48Z</time>
      </trkpt>
      <trkpt lat="48.68211" lon="1.9865">
        <ele>174</ele>
        <time>2013-08-17T09:30:50Z</time>
      </trkpt>
      <trkpt lat="48.68215" lon="1.98649">
        <ele>174</ele>
        <time>2013-08-17T09:30:52Z</time>
      </trkpt>
      <trkpt lat="48.68218" lon="1.98649">
        <ele>174</ele>
        <time>2013-08-17T09:30:54Z</time>
      </trkpt>
      <trkpt lat="48.68221" lon="1.98649">
        <ele>174</ele>
        <time>2013-08-17T09:30:56Z</time>
      </trkpt>
      <trkpt lat="48.68224" lon="1.98648">
        <ele>174</ele>
        <time>2013-08-17T09:30:58Z</time>
      </trkpt>
      <trkpt lat="48.68227" lon="1.98648">
        <ele>174</ele>
        <time>2013-08-17T09:31:00Z</time>
      </trkpt>
      <trkpt lat="48.6823" lon="1.98647">
        <ele>174</ele>
        <time>2013-08-17T09:31:02Z</time>
      </trkpt>
      <trkpt lat="48.68235" lon="1.98647">
        <ele>174</ele>
        <time>2013-08-17T09:31:05Z</time>
      </trkpt>
      <trkpt lat="48.68237" lon="1.98647">
        <ele>174</ele>
        <time>2013-08-17T09:31:07Z</time>
      </trkpt>
      <trkpt lat="48.6824" lon="1.98647">
        <ele>174</ele>
        <time>2013-08-17T09:31:09Z</time>
      </trkpt>
      <trkpt lat="48.68243" lon="1.98647">
        <ele>174</ele>
        <time>2013-08-17T09:31:11Z</time>
      </trkpt>
      <trkpt lat="48.68246" lon="1.98646">
        <ele>173</ele>
        <time>2013-08-17T09:31:13Z</time>
      </trkpt>
      <trkpt lat="48.6825" lon="1.98645">
        <ele>173</ele>
        <time>2013-08-17T09:31:15Z</time>
      </trkpt>
      <trkpt lat="48.68253" lon="1.98645">
        <ele>173</ele>
        <time>2013-08-17T09:31:17Z</time>
      </trkpt>
      <trkpt lat="48.68257" lon="1.98644">
        <ele>173</ele>
        <time>2013-08-17T09:31:19Z</time>
      </trkpt>
      <trkpt lat="48.6826" lon="1.98644">
        <ele>173</ele>
        <time>2013-08-17T09:31:21Z</time>
      </trkpt>
      <trkpt lat="48.68266" lon="1.98645">
        <ele>173</ele>
        <time>2013-08-17T09:31:24Z</time>
      </trkpt>
      <trkpt lat="48.68269" lon="1.98646">
        <ele>173</ele>
        <time>2013-08-17T09:31:26Z</time>
      </trkpt>
      <trkpt lat="48.68272" lon="1.98646">
        <ele>173</ele>
        <time>2013-08-17T09:31:28Z</time>
      </trkpt>
      <trkpt lat="48.68274" lon="1.98646">
        <ele>173</ele>
        <time>2013-08-17T09:31:30Z</time>
      </trkpt>
      <trkpt lat="48.68276" lon="1.98646">
        <ele>173</ele>
        <time>2013-08-17T09:31:32Z</time>
      </trkpt>
      <trkpt lat="48.68279" lon="1.98646">
        <ele>173</ele>
        <time>2013-08-17T09:31:34Z</time>
      </trkpt>
      <trkpt lat="48.68283" lon="1.98647">
        <ele>173</ele>
        <time>2013-08-17T09:31:37Z</time>
      </trkpt>
      <trkpt lat="48.68285" lon="1.98647">
        <ele>173</ele>
        <time>2013-08-17T09:31:39Z</time>
      </trkpt>
      <trkpt lat="48.68287" lon="1.98647">
        <ele>173</ele>
        <time>2013-08-17T09:31:41Z</time>
      </trkpt>
      <trkpt lat="48.6829" lon="1.98648">
        <ele>173</ele>
        <time>2013-08-17T09:31:44Z</time>
      </trkpt>
      <trkpt lat="48.68295" lon="1.9865">
        <ele>173</ele>
        <time>2013-08-17T09:31:46Z</time>
      </trkpt>
      <trkpt lat="48.68298" lon="1.98652">
        <ele>173</ele>
        <time>2013-08-17T09:31:48Z</time>
      </trkpt>
      <trkpt lat="48.68301" lon="1.98654">
        <ele>173</ele>
        <time>2013-08-17T09:31:50Z</time>
      </trkpt>
      <trkpt lat="48.68305" lon="1.98655">
        <ele>173</ele>
        <time>2013-08-17T09:31:52Z</time>
      </trkpt>
      <trkpt lat="48.68309" lon="1.98656">
        <ele>173</ele>
        <time>2013-08-17T09:31:54Z</time>
      </trkpt>
      <trkpt lat="48.68312" lon="1.98658">
        <ele>173</ele>
        <time>2013-08-17T09:31:56Z</time>
      </trkpt>
      <trkpt lat="48.68315" lon="1.9866">
        <ele>173</ele>
        <time>2013-08-17T09:31:58Z</time>
      </trkpt>
      <trkpt lat="48.68318" lon="1.98661">
        <ele>173</ele>
        <time>2013-08-17T09:32:00Z</time>
      </trkpt>
      <trkpt lat="48.68321" lon="1.98663">
        <ele>173</ele>
        <time>2013-08-17T09:32:02Z</time>
      </trkpt>
      <trkpt lat="48.68323" lon="1.98664">
        <ele>173</ele>
        <time>2013-08-17T09:32:04Z</time>
      </trkpt>
      <trkpt lat="48.68326" lon="1.98664">
        <ele>173</ele>
        <time>2013-08-17T09:32:06Z</time>
      </trkpt>
      <trkpt lat="48.68329" lon="1.98666">
        <ele>173</ele>
        <time>2013-08-17T09:32:08Z</time>
      </trkpt>
      <trkpt lat="48.68333" lon="1.98669">
        <ele>173</ele>
        <time>2013-08-17T09:32:11Z</time>
      </trkpt>
      <trkpt lat="48.68336" lon="1.9867">
        <ele>173</ele>
        <time>2013-08-17T09:32:13Z</time>
      </trkpt>
      <trkpt lat="48.6834" lon="1.98671">
        <ele>173</ele>
        <time>2013-08-17T09:32:15Z</time>
      </trkpt>
      <trkpt lat="48.68343" lon="1.98673">
        <ele>173</ele>
        <time>2013-08-17T09:32:18Z</time>
      </trkpt>
      <trkpt lat="48.68345" lon="1.98671">
        <ele>173</ele>
        <time>2013-08-17T09:32:24Z</time>
      </trkpt>
      <trkpt lat="48.68345" lon="1.98668">
        <ele>173</ele>
        <time>2013-08-17T09:32:26Z</time>
      </trkpt>
      <trkpt lat="48.68347" lon="1.98665">
        <ele>173</ele>
        <time>2013-08-17T09:32:28Z</time>
      </trkpt>
      <trkpt lat="48.68348" lon="1.98661">
        <ele>173</ele>
        <time>2013-08-17T09:32:30Z</time>
      </trkpt>
      <trkpt lat="48.6835" lon="1.98658">
        <ele>173</ele>
        <time>2013-08-17T09:32:32Z</time>
      </trkpt>
      <trkpt lat="48.68351" lon="1.98655">
        <ele>173</ele>
        <time>2013-08-17T09:32:34Z</time>
      </trkpt>
      <trkpt lat="48.68352" lon="1.98652">
        <ele>173</ele>
        <time>2013-08-17T09:32:36Z</time>
      </trkpt>
      <trkpt lat="48.68354" lon="1.98647">
        <ele>173</ele>
        <time>2013-08-17T09:32:39Z</time>
      </trkpt>
      <trkpt lat="48.68356" lon="1.98645">
        <ele>173</ele>
        <time>2013-08-17T09:32:41Z</time>
      </trkpt>
      <trkpt lat="48.68357" lon="1.98643">
        <ele>173</ele>
        <time>2013-08-17T09:32:43Z</time>
      </trkpt>
      <trkpt lat="48.68359" lon="1.9864">
        <ele>173</ele>
        <time>2013-08-17T09:32:45Z</time>
      </trkpt>
      <trkpt lat="48.68359" lon="1.98638">
        <ele>174</ele>
        <time>2013-08-17T09:32:47Z</time>
      </trkpt>
      <trkpt lat="48.68362" lon="1.98635">
        <ele>176</ele>
        <time>2013-08-17T09:32:49Z</time>
      </trkpt>
      <trkpt lat="48.68364" lon="1.98633">
        <ele>178</ele>
        <time>2013-08-17T09:32:51Z</time>
      </trkpt>
      <trkpt lat="48.68367" lon="1.9863">
        <ele>180</ele>
        <time>2013-08-17T09:32:53Z</time>
      </trkpt>
      <trkpt lat="48.68368" lon="1.98626">
        <ele>183</ele>
        <time>2013-08-17T09:32:56Z</time>
      </trkpt>
      <trkpt lat="48.6837" lon="1.98623">
        <ele>185</ele>
        <time>2013-08-17T09:32:58Z</time>
      </trkpt>
      <trkpt lat="48.68373" lon="1.98619">
        <ele>188</ele>
        <time>2013-08-17T09:33:01Z</time>
      </trkpt>
      <trkpt lat="48.68374" lon="1.98618">
        <ele>190</ele>
        <time>2013-08-17T09:33:03Z</time>
      </trkpt>
      <trkpt lat="48.68375" lon="1.98615">
        <ele>191</ele>
        <time>2013-08-17T09:33:05Z</time>
      </trkpt>
      <trkpt lat="48.68379" lon="1.9861">
        <ele>192</ele>
        <time>2013-08-17T09:33:08Z</time>
      </trkpt>
      <trkpt lat="48.68383" lon="1.98607">
        <ele>195</ele>
        <time>2013-08-17T09:33:11Z</time>
      </trkpt>
      <trkpt lat="48.68387" lon="1.98605">
        <ele>195</ele>
        <time>2013-08-17T09:33:13Z</time>
      </trkpt>
      <trkpt lat="48.68391" lon="1.98603">
        <ele>195</ele>
        <time>2013-08-17T09:33:15Z</time>
      </trkpt>
      <trkpt lat="48.68394" lon="1.98601">
        <ele>195</ele>
        <time>2013-08-17T09:33:17Z</time>
      </trkpt>
      <trkpt lat="48.68396" lon="1.98598">
        <ele>194</ele>
        <time>2013-08-17T09:33:19Z</time>
      </trkpt>
      <trkpt lat="48.68398" lon="1.98594">
        <ele>192</ele>
        <time>2013-08-17T09:33:21Z</time>
      </trkpt>
      <trkpt lat="48.68401" lon="1.98591">
        <ele>189</ele>
        <time>2013-08-17T09:33:24Z</time>
      </trkpt>
      <trkpt lat="48.68404" lon="1.98588">
        <ele>187</ele>
        <time>2013-08-17T09:33:26Z</time>
      </trkpt>
      <trkpt lat="48.68408" lon="1.98584">
        <ele>185</ele>
        <time>2013-08-17T09:33:29Z</time>
      </trkpt>
      <trkpt lat="48.6841" lon="1.98583">
        <ele>185</ele>
        <time>2013-08-17T09:33:31Z</time>
      </trkpt>
      <trkpt lat="48.68414" lon="1.98581">
        <ele>185</ele>
        <time>2013-08-17T09:33:35Z</time>
      </trkpt>
      <trkpt lat="48.68417" lon="1.9858">
        <ele>185</ele>
        <time>2013-08-17T09:33:37Z</time>
      </trkpt>
      <trkpt lat="48.6842" lon="1.98577">
        <ele>185</ele>
        <time>2013-08-17T09:33:40Z</time>
      </trkpt>
      <trkpt lat="48.68422" lon="1.98575">
        <ele>184</ele>
        <time>2013-08-17T09:33:42Z</time>
      </trkpt>
      <trkpt lat="48.68425" lon="1.98572">
        <ele>183</ele>
        <time>2013-08-17T09:33:44Z</time>
      </trkpt>
      <trkpt lat="48.68427" lon="1.9857">
        <ele>182</ele>
        <time>2013-08-17T09:33:46Z</time>
      </trkpt>
      <trkpt lat="48.6843" lon="1.98566">
        <ele>182</ele>
        <time>2013-08-17T09:33:50Z</time>
      </trkpt>
      <trkpt lat="48.68433" lon="1.98564">
        <ele>182</ele>
        <time>2013-08-17T09:33:52Z</time>
      </trkpt>
      <trkpt lat="48.68435" lon="1.98562">
        <ele>181</ele>
        <time>2013-08-17T09:33:54Z</time>
      </trkpt>
      <trkpt lat="48.68438" lon="1.98559">
        <ele>181</ele>
        <time>2013-08-17T09:33:56Z</time>
      </trkpt>
      <trkpt lat="48.6844" lon="1.98559">
        <ele>181</ele>
        <time>2013-08-17T09:33:58Z</time>
      </trkpt>
      <trkpt lat="48.68443" lon="1.98557">
        <ele>181</ele>
        <time>2013-08-17T09:34:00Z</time>
      </trkpt>
      <trkpt lat="48.68444" lon="1.98555">
        <ele>181</ele>
        <time>2013-08-17T09:34:02Z</time>
      </trkpt>
      <trkpt lat="48.68445" lon="1.98553">
        <ele>181</ele>
        <time>2013-08-17T09:34:04Z</time>
      </trkpt>
      <trkpt lat="48.68448" lon="1.98551">
        <ele>180</ele>
        <time>2013-08-17T09:34:06Z</time>
      </trkpt>
      <trkpt lat="48.6845" lon="1.98549">
        <ele>179</ele>
        <time>2013-08-17T09:34:08Z</time>
      </trkpt>
      <trkpt lat="48.68453" lon="1.98547">
        <ele>178</ele>
        <time>2013-08-17T09:34:10Z</time>
      </trkpt>
      <trkpt lat="48.68456" lon="1.98545">
        <ele>177</ele>
        <time>2013-08-17T09:34:13Z</time>
      </trkpt>
      <trkpt lat="48.68458" lon="1.98543">
        <ele>177</ele>
        <time>2013-08-17T09:34:15Z</time>
      </trkpt>
      <trkpt lat="48.6846" lon="1.98541">
        <ele>176</ele>
        <time>2013-08-17T09:34:17Z</time>
      </trkpt>
      <trkpt lat="48.68464" lon="1.9854">
        <ele>176</ele>
        <time>2013-08-17T09:34:20Z</time>
      </trkpt>
      <trkpt lat="48.68467" lon="1.98537">
        <ele>175</ele>
        <time>2013-08-17T09:34:23Z</time>
      </trkpt>
      <trkpt lat="48.68472" lon="1.98537">
        <ele>175</ele>
        <time>2013-08-17T09:34:25Z</time>
      </trkpt>
      <trkpt lat="48.68476" lon="1.98536">
        <ele>173</ele>
        <time>2013-08-17T09:34:28Z</time>
      </trkpt>
      <trkpt lat="48.68478" lon="1.98537">
        <ele>172</ele>
        <time>2013-08-17T09:34:30Z</time>
      </trkpt>
      <trkpt lat="48.68482" lon="1.98536">
        <ele>170</ele>
        <time>2013-08-17T09:34:32Z</time>
      </trkpt>
      <trkpt lat="48.68485" lon="1.98536">
        <ele>169</ele>
        <time>2013-08-17T09:34:34Z</time>
      </trkpt>
      <trkpt lat="48.68487" lon="1.98536">
        <ele>169</ele>
        <time>2013-08-17T09:34:36Z</time>
      </trkpt>
      <trkpt lat="48.68491" lon="1.98534">
        <ele>169</ele>
        <time>2013-08-17T09:34:38Z</time>
      </trkpt>
      <trkpt lat="48.68492" lon="1.98532">
        <ele>169</ele>
        <time>2013-08-17T09:34:40Z</time>
      </trkpt>
      <trkpt lat="48.68494" lon="1.98529">
        <ele>169</ele>
        <time>2013-08-17T09:34:42Z</time>
      </trkpt>
      <trkpt lat="48.68496" lon="1.98527">
        <ele>169</ele>
        <time>2013-08-17T09:34:44Z</time>
      </trkpt>
      <trkpt lat="48.68497" lon="1.98527">
        <ele>169</ele>
        <time>2013-08-17T09:34:46Z</time>
      </trkpt>
      <trkpt lat="48.68501" lon="1.98526">
        <ele>169</ele>
        <time>2013-08-17T09:34:48Z</time>
      </trkpt>
      <trkpt lat="48.68506" lon="1.98524">
        <ele>169</ele>
        <time>2013-08-17T09:34:51Z</time>
      </trkpt>
      <trkpt lat="48.68508" lon="1.98522">
        <ele>169</ele>
        <time>2013-08-17T09:34:53Z</time>
      </trkpt>
      <trkpt lat="48.6851" lon="1.9852">
        <ele>169</ele>
        <time>2013-08-17T09:34:55Z</time>
      </trkpt>
      <trkpt lat="48.68511" lon="1.98519">
        <ele>169</ele>
        <time>2013-08-17T09:34:57Z</time>
      </trkpt>
      <trkpt lat="48.68514" lon="1.98519">
        <ele>168</ele>
        <time>2013-08-17T09:34:59Z</time>
      </trkpt>
      <trkpt lat="48.68517" lon="1.98516">
        <ele>167</ele>
        <time>2013-08-17T09:35:02Z</time>
      </trkpt>
      <trkpt lat="48.6852" lon="1.98515">
        <ele>166</ele>
        <time>2013-08-17T09:35:05Z</time>
      </trkpt>
      <trkpt lat="48.68522" lon="1.98513">
        <ele>165</ele>
        <time>2013-08-17T09:35:07Z</time>
      </trkpt>
      <trkpt lat="48.68524" lon="1.98508">
        <ele>163</ele>
        <time>2013-08-17T09:35:11Z</time>
      </trkpt>
      <trkpt lat="48.68525" lon="1.98506">
        <ele>163</ele>
        <time>2013-08-17T09:35:13Z</time>
      </trkpt>
      <trkpt lat="48.68526" lon="1.98504">
        <ele>162</ele>
        <time>2013-08-17T09:35:15Z</time>
      </trkpt>
      <trkpt lat="48.68529" lon="1.98502">
        <ele>161</ele>
        <time>2013-08-17T09:35:17Z</time>
      </trkpt>
      <trkpt lat="48.68533" lon="1.98501">
        <ele>161</ele>
        <time>2013-08-17T09:35:19Z</time>
      </trkpt>
      <trkpt lat="48.68535" lon="1.98499">
        <ele>160</ele>
        <time>2013-08-17T09:35:21Z</time>
      </trkpt>
      <trkpt lat="48.68537" lon="1.98498">
        <ele>159</ele>
        <time>2013-08-17T09:35:24Z</time>
      </trkpt>
      <trkpt lat="48.68539" lon="1.98498">
        <ele>158</ele>
        <time>2013-08-17T09:35:26Z</time>
      </trkpt>
      <trkpt lat="48.68543" lon="1.98497">
        <ele>158</ele>
        <time>2013-08-17T09:35:28Z</time>
      </trkpt>
      <trkpt lat="48.68546" lon="1.98495">
        <ele>158</ele>
        <time>2013-08-17T09:35:30Z</time>
      </trkpt>
      <trkpt lat="48.68548" lon="1.98494">
        <ele>158</ele>
        <time>2013-08-17T09:35:32Z</time>
      </trkpt>
      <trkpt lat="48.6855" lon="1.98492">
        <ele>158</ele>
        <time>2013-08-17T09:35:34Z</time>
      </trkpt>
      <trkpt lat="48.68552" lon="1.98492">
        <ele>158</ele>
        <time>2013-08-17T09:35:36Z</time>
      </trkpt>
      <trkpt lat="48.68554" lon="1.9849">
        <ele>157</ele>
        <time>2013-08-17T09:35:38Z</time>
      </trkpt>
      <trkpt lat="48.68556" lon="1.98487">
        <ele>157</ele>
        <time>2013-08-17T09:35:41Z</time>
      </trkpt>
      <trkpt lat="48.68556" lon="1.98485">
        <ele>157</ele>
        <time>2013-08-17T09:35:44Z</time>
      </trkpt>
      <trkpt lat="48.68557" lon="1.98482">
        <ele>157</ele>
        <time>2013-08-17T09:35:46Z</time>
      </trkpt>
      <trkpt lat="48.68559" lon="1.98481">
        <ele>157</ele>
        <time>2013-08-17T09:35:48Z</time>
      </trkpt>
      <trkpt lat="48.68562" lon="1.9848">
        <ele>157</ele>
        <time>2013-08-17T09:35:51Z</time>
      </trkpt>
      <trkpt lat="48.68563" lon="1.9848">
        <ele>157</ele>
        <time>2013-08-17T09:35:53Z</time>
      </trkpt>
      <trkpt lat="48.68567" lon="1.98478">
        <ele>157</ele>
        <time>2013-08-17T09:35:55Z</time>
      </trkpt>
      <trkpt lat="48.6857" lon="1.98477">
        <ele>156</ele>
        <time>2013-08-17T09:35:57Z</time>
      </trkpt>
      <trkpt lat="48.68574" lon="1.98477">
        <ele>155</ele>
        <time>2013-08-17T09:35:59Z</time>
      </trkpt>
      <trkpt lat="48.68578" lon="1.98477">
        <ele>155</ele>
        <time>2013-08-17T09:36:01Z</time>
      </trkpt>
      <trkpt lat="48.68579" lon="1.98477">
        <ele>154</ele>
        <time>2013-08-17T09:36:03Z</time>
      </trkpt>
      <trkpt lat="48.68581" lon="1.98476">
        <ele>153</ele>
        <time>2013-08-17T09:36:05Z</time>
      </trkpt>
      <trkpt lat="48.68584" lon="1.98474">
        <ele>152</ele>
        <time>2013-08-17T09:36:07Z</time>
      </trkpt>
      <trkpt lat="48.68586" lon="1.98473">
        <ele>150</ele>
        <time>2013-08-17T09:36:10Z</time>
      </trkpt>
      <trkpt lat="48.68588" lon="1.98472">
        <ele>148</ele>
        <time>2013-08-17T09:36:12Z</time>
      </trkpt>
      <trkpt lat="48.6859" lon="1.98471">
        <ele>147</ele>
        <time>2013-08-17T09:36:14Z</time>
      </trkpt>
      <trkpt lat="48.68594" lon="1.98472">
        <ele>145</ele>
        <time>2013-08-17T09:36:17Z</time>
      </trkpt>
      <trkpt lat="48.68596" lon="1.98473">
        <ele>144</ele>
        <time>2013-08-17T09:36:20Z</time>
      </trkpt>
      <trkpt lat="48.68599" lon="1.98475">
        <ele>144</ele>
        <time>2013-08-17T09:36:23Z</time>
      </trkpt>
      <trkpt lat="48.68601" lon="1.98474">
        <ele>144</ele>
        <time>2013-08-17T09:36:25Z</time>
      </trkpt>
      <trkpt lat="48.68603" lon="1.98475">
        <ele>144</ele>
        <time>2013-08-17T09:36:27Z</time>
      </trkpt>
      <trkpt lat="48.68605" lon="1.98476">
        <ele>144</ele>
        <time>2013-08-17T09:36:29Z</time>
      </trkpt>
      <trkpt lat="48.68608" lon="1.98476">
        <ele>144</ele>
        <time>2013-08-17T09:36:31Z</time>
      </trkpt>
      <trkpt lat="48.68612" lon="1.98477">
        <ele>144</ele>
        <time>2013-08-17T09:36:33Z</time>
      </trkpt>
      <trkpt lat="48.68615" lon="1.98477">
        <ele>144</ele>
        <time>2013-08-17T09:36:35Z</time>
      </trkpt>
      <trkpt lat="48.68618" lon="1.98479">
        <ele>144</ele>
        <time>2013-08-17T09:36:37Z</time>
      </trkpt>
      <trkpt lat="48.68621" lon="1.9848">
        <ele>144</ele>
        <time>2013-08-17T09:36:39Z</time>
      </trkpt>
      <trkpt lat="48.68624" lon="1.98482">
        <ele>144</ele>
        <time>2013-08-17T09:36:42Z</time>
      </trkpt>
      <trkpt lat="48.68628" lon="1.98484">
        <ele>144</ele>
        <time>2013-08-17T09:36:44Z</time>
      </trkpt>
      <trkpt lat="48.68634" lon="1.98487">
        <ele>144</ele>
        <time>2013-08-17T09:36:46Z</time>
      </trkpt>
      <trkpt lat="48.68639" lon="1.98488">
        <ele>144</ele>
        <time>2013-08-17T09:36:48Z</time>
      </trkpt>
      <trkpt lat="48.68645" lon="1.98491">
        <ele>144</ele>
        <time>2013-08-17T09:36:50Z</time>
      </trkpt>
      <trkpt lat="48.68649" lon="1.98493">
        <ele>144</ele>
        <time>2013-08-17T09:36:52Z</time>
      </trkpt>
      <trkpt lat="48.68652" lon="1.98496">
        <ele>144</ele>
        <time>2013-08-17T09:36:55Z</time>
      </trkpt>
      <trkpt lat="48.68653" lon="1.98497">
        <ele>145</ele>
        <time>2013-08-17T09:36:58Z</time>
      </trkpt>
      <trkpt lat="48.68654" lon="1.985">
        <ele>145</ele>
        <time>2013-08-17T09:37:01Z</time>
      </trkpt>
      <trkpt lat="48.68656" lon="1.98501">
        <ele>145</ele>
        <time>2013-08-17T09:37:03Z</time>
      </trkpt>
      <trkpt lat="48.68654" lon="1.98501">
        <ele>145</ele>
        <time>2013-08-17T09:37:09Z</time>
      </trkpt>
      <trkpt lat="48.68653" lon="1.98501">
        <ele>145</ele>
        <time>2013-08-17T09:37:11Z</time>
      </trkpt>
      <trkpt lat="48.68655" lon="1.98502">
        <ele>145</ele>
        <time>2013-08-17T09:37:13Z</time>
      </trkpt>
      <trkpt lat="48.68656" lon="1.98503">
        <ele>145</ele>
        <time>2013-08-17T09:37:16Z</time>
      </trkpt>
      <trkpt lat="48.68655" lon="1.98504">
        <ele>146</ele>
        <time>2013-08-17T09:37:19Z</time>
      </trkpt>
      <trkpt lat="48.68653" lon="1.98502">
        <ele>150</ele>
        <time>2013-08-17T09:37:23Z</time>
      </trkpt>
      <trkpt lat="48.68651" lon="1.985">
        <ele>150</ele>
        <time>2013-08-17T09:37:25Z</time>
      </trkpt>
      <trkpt lat="48.68652" lon="1.98498">
        <ele>150</ele>
        <time>2013-08-17T09:37:27Z</time>
      </trkpt>
      <trkpt lat="48.6865" lon="1.98498">
        <ele>150</ele>
        <time>2013-08-17T09:37:30Z</time>
      </trkpt>
      <trkpt lat="48.6865" lon="1.98496">
        <ele>150</ele>
        <time>2013-08-17T09:37:33Z</time>
      </trkpt>
      <trkpt lat="48.68651" lon="1.98496">
        <ele>150</ele>
        <time>2013-08-17T09:37:35Z</time>
      </trkpt>
      <trkpt lat="48.68653" lon="1.98495">
        <ele>150</ele>
        <time>2013-08-17T09:37:38Z</time>
      </trkpt>
      <trkpt lat="48.68655" lon="1.98496">
        <ele>151</ele>
        <time>2013-08-17T09:37:47Z</time>
      </trkpt>
      <trkpt lat="48.68656" lon="1.98497">
        <ele>151</ele>
        <time>2013-08-17T09:37:50Z</time>
      </trkpt>
      <trkpt lat="48.68655" lon="1.98498">
        <ele>151</ele>
        <time>2013-08-17T09:37:54Z</time>
      </trkpt>
      <trkpt lat="48.68656" lon="1.98498">
        <ele>151</ele>
        <time>2013-08-17T09:37:57Z</time>
      </trkpt>
      <trkpt lat="48.68658" lon="1.98499">
        <ele>151</ele>
        <time>2013-08-17T09:37:59Z</time>
      </trkpt>
      <trkpt lat="48.6866" lon="1.985">
        <ele>151</ele>
        <time>2013-08-17T09:38:01Z</time>
      </trkpt>
      <trkpt lat="48.68662" lon="1.98499">
        <ele>151</ele>
        <time>2013-08-17T09:38:05Z</time>
      </trkpt>
      <trkpt lat="48.68663" lon="1.98498">
        <ele>151</ele>
        <time>2013-08-17T09:38:08Z</time>
      </trkpt>
      <trkpt lat="48.68665" lon="1.98501">
        <ele>151</ele>
        <time>2013-08-17T09:38:12Z</time>
      </trkpt>
      <trkpt lat="48.68665" lon="1.98502">
        <ele>149</ele>
        <time>2013-08-17T09:38:16Z</time>
      </trkpt>
      <trkpt lat="48.68666" lon="1.98503">
        <ele>145</ele>
        <time>2013-08-17T09:38:24Z</time>
      </trkpt>
      <trkpt lat="48.68668" lon="1.98503">
        <ele>144</ele>
        <time>2013-08-17T09:38:26Z</time>
      </trkpt>
      <trkpt lat="48.68669" lon="1.98503">
        <ele>144</ele>
        <time>2013-08-17T09:38:29Z</time>
      </trkpt>
      <trkpt lat="48.6867" lon="1.98501">
        <ele>144</ele>
        <time>2013-08-17T09:38:35Z</time>
      </trkpt>
      <trkpt lat="48.6867" lon="1.98499">
        <ele>144</ele>
        <time>2013-08-17T09:38:37Z</time>
      </trkpt>
      <trkpt lat="48.68669" lon="1.98498">
        <ele>144</ele>
        <time>2013-08-17T09:38:41Z</time>
      </trkpt>
      <trkpt lat="48.68668" lon="1.98498">
        <ele>144</ele>
        <time>2013-08-17T09:38:43Z</time>
      </trkpt>
      <trkpt lat="48.68666" lon="1.98499">
        <ele>144</ele>
        <time>2013-08-17T09:38:47Z</time>
      </trkpt>
      <trkpt lat="48.68665" lon="1.98497">
        <ele>144</ele>
        <time>2013-08-17T09:38:51Z</time>
      </trkpt>
      <trkpt lat="48.68667" lon="1.98498">
        <ele>144</ele>
        <time>2013-08-17T09:38:56Z</time>
      </trkpt>
      <trkpt lat="48.68668" lon="1.98497">
        <ele>144</ele>
        <time>2013-08-17T09:38:58Z</time>
      </trkpt>
      <trkpt lat="48.68668" lon="1.98495">
        <ele>143</ele>
        <time>2013-08-17T09:39:03Z</time>
      </trkpt>
      <trkpt lat="48.68666" lon="1.98494">
        <ele>142</ele>
        <time>2013-08-17T09:39:05Z</time>
      </trkpt>
      <trkpt lat="48.68665" lon="1.98494">
        <ele>140</ele>
        <time>2013-08-17T09:39:08Z</time>
      </trkpt>
      <trkpt lat="48.68664" lon="1.98494">
        <ele>136</ele>
        <time>2013-08-17T09:39:13Z</time>
      </trkpt>
      <trkpt lat="48.68665" lon="1.98493">
        <ele>136</ele>
        <time>2013-08-17T09:39:17Z</time>
      </trkpt>
      <trkpt lat="48.68668" lon="1.98492">
        <ele>136</ele>
        <time>2013-08-17T09:39:20Z</time>
      </trkpt>
      <trkpt lat="48.68669" lon="1.98492">
        <ele>136</ele>
        <time>2013-08-17T09:39:22Z</time>
      </trkpt>
      <trkpt lat="48.6867" lon="1.9849">
        <ele>136</ele>
        <time>2013-08-17T09:39:24Z</time>
      </trkpt>
      <trkpt lat="48.68672" lon="1.98489">
        <ele>135</ele>
        <time>2013-08-17T09:39:26Z</time>
      </trkpt>
      <trkpt lat="48.68674" lon="1.98488">
        <ele>135</ele>
        <time>2013-08-17T09:39:28Z</time>
      </trkpt>
      <trkpt lat="48.68676" lon="1.98488">
        <ele>135</ele>
        <time>2013-08-17T09:39:30Z</time>
      </trkpt>
      <trkpt lat="48.68678" lon="1.98486">
        <ele>135</ele>
        <time>2013-08-17T09:39:34Z</time>
      </trkpt>
      <trkpt lat="48.68679" lon="1.98484">
        <ele>135</ele>
        <time>2013-08-17T09:39:36Z</time>
      </trkpt>
      <trkpt lat="48.6868" lon="1.98483">
        <ele>134</ele>
        <time>2013-08-17T09:39:38Z</time>
      </trkpt>
      <trkpt lat="48.6868" lon="1.9848">
        <ele>132</ele>
        <time>2013-08-17T09:39:42Z</time>
      </trkpt>
      <trkpt lat="48.68682" lon="1.98479">
        <ele>132</ele>
        <time>2013-08-17T09:39:44Z</time>
      </trkpt>
      <trkpt lat="48.68682" lon="1.98476">
        <ele>131</ele>
        <time>2013-08-17T09:39:46Z</time>
      </trkpt>
      <trkpt lat="48.68682" lon="1.98472">
        <ele>131</ele>
        <time>2013-08-17T09:39:48Z</time>
      </trkpt>
      <trkpt lat="48.68681" lon="1.98468">
        <ele>131</ele>
        <time>2013-08-17T09:39:50Z</time>
      </trkpt>
      <trkpt lat="48.6868" lon="1.98464">
        <ele>131</ele>
        <time>2013-08-17T09:39:52Z</time>
      </trkpt>
      <trkpt lat="48.6868" lon="1.9846">
        <ele>129</ele>
        <time>2013-08-17T09:39:54Z</time>
      </trkpt>
      <trkpt lat="48.68681" lon="1.98455">
        <ele>129</ele>
        <time>2013-08-17T09:39:56Z</time>
      </trkpt>
      <trkpt lat="48.68684" lon="1.98451">
        <ele>129</ele>
        <time>2013-08-17T09:39:58Z</time>
      </trkpt>
      <trkpt lat="48.68683" lon="1.98446">
        <ele>129</ele>
        <time>2013-08-17T09:40:00Z</time>
      </trkpt>
      <trkpt lat="48.68684" lon="1.98441">
        <ele>128</ele>
        <time>2013-08-17T09:40:02Z</time>
      </trkpt>
      <trkpt lat="48.68683" lon="1.98438">
        <ele>126</ele>
        <time>2013-08-17T09:40:04Z</time>
      </trkpt>
      <trkpt lat="48.68683" lon="1.98433">
        <ele>125</ele>
        <time>2013-08-17T09:40:08Z</time>
      </trkpt>
      <trkpt lat="48.68683" lon="1.98428">
        <ele>125</ele>
        <time>2013-08-17T09:40:10Z</time>
      </trkpt>
      <trkpt lat="48.68685" lon="1.98424">
        <ele>125</ele>
        <time>2013-08-17T09:40:12Z</time>
      </trkpt>
      <trkpt lat="48.68686" lon="1.9842">
        <ele>125</ele>
        <time>2013-08-17T09:40:14Z</time>
      </trkpt>
      <trkpt lat="48.68689" lon="1.98414">
        <ele>124</ele>
        <time>2013-08-17T09:40:17Z</time>
      </trkpt>
      <trkpt lat="48.68689" lon="1.98409">
        <ele>122</ele>
        <time>2013-08-17T09:40:19Z</time>
      </trkpt>
      <trkpt lat="48.68689" lon="1.98405">
        <ele>120</ele>
        <time>2013-08-17T09:40:21Z</time>
      </trkpt>
      <trkpt lat="48.68688" lon="1.98402">
        <ele>118</ele>
        <time>2013-08-17T09:40:23Z</time>
      </trkpt>
      <trkpt lat="48.68688" lon="1.98398">
        <ele>117</ele>
        <time>2013-08-17T09:40:25Z</time>
      </trkpt>
      <trkpt lat="48.68689" lon="1.98392">
        <ele>115</ele>
        <time>2013-08-17T09:40:27Z</time>
      </trkpt>
      <trkpt lat="48.68691" lon="1.98388">
        <ele>113</ele>
        <time>2013-08-17T09:40:29Z</time>
      </trkpt>
      <trkpt lat="48.68693" lon="1.98384">
        <ele>113</ele>
        <time>2013-08-17T09:40:31Z</time>
      </trkpt>
      <trkpt lat="48.68696" lon="1.9838">
        <ele>112</ele>
        <time>2013-08-17T09:40:33Z</time>
      </trkpt>
      <trkpt lat="48.68697" lon="1.98376">
        <ele>111</ele>
        <time>2013-08-17T09:40:35Z</time>
      </trkpt>
      <trkpt lat="48.68699" lon="1.98372">
        <ele>110</ele>
        <time>2013-08-17T09:40:37Z</time>
      </trkpt>
      <trkpt lat="48.68701" lon="1.98368">
        <ele>110</ele>
        <time>2013-08-17T09:40:39Z</time>
      </trkpt>
      <trkpt lat="48.68703" lon="1.98363">
        <ele>109</ele>
        <time>2013-08-17T09:40:42Z</time>
      </trkpt>
      <trkpt lat="48.68704" lon="1.9836">
        <ele>108</ele>
        <time>2013-08-17T09:40:44Z</time>
      </trkpt>
      <trkpt lat="48.68705" lon="1.98356">
        <ele>108</ele>
        <time>2013-08-17T09:40:46Z</time>
      </trkpt>
      <trkpt lat="48.68707" lon="1.98351">
        <ele>107</ele>
        <time>2013-08-17T09:40:48Z</time>
      </trkpt>
      <trkpt lat="48.68707" lon="1.98347">
        <ele>107</ele>
        <time>2013-08-17T09:40:50Z</time>
      </trkpt>
      <trkpt lat="48.68708" lon="1.98343">
        <ele>107</ele>
        <time>2013-08-17T09:40:52Z</time>
      </trkpt>
      <trkpt lat="48.68709" lon="1.98339">
        <ele>107</ele>
        <time>2013-08-17T09:40:54Z</time>
      </trkpt>
      <trkpt lat="48.6871" lon="1.98335">
        <ele>107</ele>
        <time>2013-08-17T09:40:56Z</time>
      </trkpt>
      <trkpt lat="48.68711" lon="1.9833">
        <ele>107</ele>
        <time>2013-08-17T09:40:58Z</time>
      </trkpt>
      <trkpt lat="48.68711" lon="1.98326">
        <ele>107</ele>
        <time>2013-08-17T09:41:00Z</time>
      </trkpt>
      <trkpt lat="48.68712" lon="1.9832">
        <ele>107</ele>
        <time>2013-08-17T09:41:03Z</time>
      </trkpt>
      <trkpt lat="48.68713" lon="1.98316">
        <ele>107</ele>
        <time>2013-08-17T09:41:05Z</time>
      </trkpt>
      <trkpt lat="48.68713" lon="1.98312">
        <ele>107</ele>
        <time>2013-08-17T09:41:07Z</time>
      </trkpt>
      <trkpt lat="48.68714" lon="1.98308">
        <ele>107</ele>
        <time>2013-08-17T09:41:10Z</time>
      </trkpt>
      <trkpt lat="48.68714" lon="1.98304">
        <ele>107</ele>
        <time>2013-08-17T09:41:12Z</time>
      </trkpt>
      <trkpt lat="48.68713" lon="1.98297">
        <ele>107</ele>
        <time>2013-08-17T09:41:15Z</time>
      </trkpt>
      <trkpt lat="48.68712" lon="1.98292">
        <ele>107</ele>
        <time>2013-08-17T09:41:18Z</time>
      </trkpt>
      <trkpt lat="48.68711" lon="1.98288">
        <ele>107</ele>
        <time>2013-08-17T09:41:20Z</time>
      </trkpt>
      <trkpt lat="48.6871" lon="1.98284">
        <ele>107</ele>
        <time>2013-08-17T09:41:22Z</time>
      </trkpt>
      <trkpt lat="48.6871" lon="1.98279">
        <ele>107</ele>
        <time>2013-08-17T09:41:24Z</time>
      </trkpt>
      <trkpt lat="48.6871" lon="1.98275">
        <ele>107</ele>
        <time>2013-08-17T09:41:26Z</time>
      </trkpt>
      <trkpt lat="48.6871" lon="1.9827">
        <ele>107</ele>
        <time>2013-08-17T09:41:28Z</time>
      </trkpt>
      <trkpt lat="48.6871" lon="1.98266">
        <ele>107</ele>
        <time>2013-08-17T09:41:30Z</time>
      </trkpt>
      <trkpt lat="48.68711" lon="1.98261">
        <ele>107</ele>
        <time>2013-08-17T09:41:32Z</time>
      </trkpt>
      <trkpt lat="48.68711" lon="1.98256">
        <ele>107</ele>
        <time>2013-08-17T09:41:34Z</time>
      </trkpt>
      <trkpt lat="48.68711" lon="1.98251">
        <ele>107</ele>
        <time>2013-08-17T09:41:36Z</time>
      </trkpt>
      <trkpt lat="48.6871" lon="1.98247">
        <ele>107</ele>
        <time>2013-08-17T09:41:38Z</time>
      </trkpt>
      <trkpt lat="48.6871" lon="1.98242">
        <ele>106</ele>
        <time>2013-08-17T09:41:40Z</time>
      </trkpt>
      <trkpt lat="48.68711" lon="1.98239">
        <ele>106</ele>
        <time>2013-08-17T09:41:42Z</time>
      </trkpt>
      <trkpt lat="48.68711" lon="1.98235">
        <ele>105</ele>
        <time>2013-08-17T09:41:44Z</time>
      </trkpt>
      <trkpt lat="48.68711" lon="1.98231">
        <ele>105</ele>
        <time>2013-08-17T09:41:46Z</time>
      </trkpt>
      <trkpt lat="48.68712" lon="1.98227">
        <ele>105</ele>
        <time>2013-08-17T09:41:48Z</time>
      </trkpt>
      <trkpt lat="48.68713" lon="1.98223">
        <ele>105</ele>
        <time>2013-08-17T09:41:50Z</time>
      </trkpt>
      <trkpt lat="48.68714" lon="1.98219">
        <ele>104</ele>
        <time>2013-08-17T09:41:52Z</time>
      </trkpt>
      <trkpt lat="48.68716" lon="1.98215">
        <ele>104</ele>
        <time>2013-08-17T09:41:54Z</time>
      </trkpt>
      <trkpt lat="48.68719" lon="1.98211">
        <ele>104</ele>
        <time>2013-08-17T09:41:57Z</time>
      </trkpt>
      <trkpt lat="48.68722" lon="1.98209">
        <ele>104</ele>
        <time>2013-08-17T09:41:59Z</time>
      </trkpt>
      <trkpt lat="48.68725" lon="1.98207">
        <ele>104</ele>
        <time>2013-08-17T09:42:01Z</time>
      </trkpt>
      <trkpt lat="48.68729" lon="1.98205">
        <ele>104</ele>
        <time>2013-08-17T09:42:04Z</time>
      </trkpt>
      <trkpt lat="48.68734" lon="1.98203">
        <ele>104</ele>
        <time>2013-08-17T09:42:06Z</time>
      </trkpt>
      <trkpt lat="48.68739" lon="1.982">
        <ele>103</ele>
        <time>2013-08-17T09:42:09Z</time>
      </trkpt>
      <trkpt lat="48.68742" lon="1.98198">
        <ele>102</ele>
        <time>2013-08-17T09:42:11Z</time>
      </trkpt>
      <trkpt lat="48.68747" lon="1.98196">
        <ele>101</ele>
        <time>2013-08-17T09:42:14Z</time>
      </trkpt>
      <trkpt lat="48.6875" lon="1.98194">
        <ele>101</ele>
        <time>2013-08-17T09:42:16Z</time>
      </trkpt>
      <trkpt lat="48.68753" lon="1.98193">
        <ele>101</ele>
        <time>2013-08-17T09:42:18Z</time>
      </trkpt>
      <trkpt lat="48.68757" lon="1.98191">
        <ele>101</ele>
        <time>2013-08-17T09:42:21Z</time>
      </trkpt>
      <trkpt lat="48.6876" lon="1.98189">
        <ele>101</ele>
        <time>2013-08-17T09:42:23Z</time>
      </trkpt>
      <trkpt lat="48.68765" lon="1.98188">
        <ele>101</ele>
        <time>2013-08-17T09:42:26Z</time>
      </trkpt>
      <trkpt lat="48.68769" lon="1.98186">
        <ele>101</ele>
        <time>2013-08-17T09:42:29Z</time>
      </trkpt>
      <trkpt lat="48.68771" lon="1.98184">
        <ele>101</ele>
        <time>2013-08-17T09:42:31Z</time>
      </trkpt>
      <trkpt lat="48.68774" lon="1.98179">
        <ele>101</ele>
        <time>2013-08-17T09:42:34Z</time>
      </trkpt>
      <trkpt lat="48.68775" lon="1.98175">
        <ele>101</ele>
        <time>2013-08-17T09:42:36Z</time>
      </trkpt>
      <trkpt lat="48.68775" lon="1.98171">
        <ele>101</ele>
        <time>2013-08-17T09:42:38Z</time>
      </trkpt>
      <trkpt lat="48.68776" lon="1.98164">
        <ele>101</ele>
        <time>2013-08-17T09:42:41Z</time>
      </trkpt>
      <trkpt lat="48.68775" lon="1.9816">
        <ele>101</ele>
        <time>2013-08-17T09:42:43Z</time>
      </trkpt>
      <trkpt lat="48.68774" lon="1.98153">
        <ele>101</ele>
        <time>2013-08-17T09:42:46Z</time>
      </trkpt>
      <trkpt lat="48.68772" lon="1.98147">
        <ele>101</ele>
        <time>2013-08-17T09:42:49Z</time>
      </trkpt>
      <trkpt lat="48.68771" lon="1.98143">
        <ele>101</ele>
        <time>2013-08-17T09:42:51Z</time>
      </trkpt>
      <trkpt lat="48.6877" lon="1.98139">
        <ele>100</ele>
        <time>2013-08-17T09:42:53Z</time>
      </trkpt>
      <trkpt lat="48.68769" lon="1.98135">
        <ele>100</ele>
        <time>2013-08-17T09:42:55Z</time>
      </trkpt>
      <trkpt lat="48.68768" lon="1.98129">
        <ele>100</ele>
        <time>2013-08-17T09:42:58Z</time>
      </trkpt>
      <trkpt lat="48.68767" lon="1.98122">
        <ele>99</ele>
        <time>2013-08-17T09:43:01Z</time>
      </trkpt>
      <trkpt lat="48.68766" lon="1.98118">
        <ele>99</ele>
        <time>2013-08-17T09:43:03Z</time>
      </trkpt>
      <trkpt lat="48.68765" lon="1.98113">
        <ele>99</ele>
        <time>2013-08-17T09:43:05Z</time>
      </trkpt>
      <trkpt lat="48.68765" lon="1.98108">
        <ele>98</ele>
        <time>2013-08-17T09:43:07Z</time>
      </trkpt>
      <trkpt lat="48.68766" lon="1.98104">
        <ele>98</ele>
        <time>2013-08-17T09:43:09Z</time>
      </trkpt>
      <trkpt lat="48.68769" lon="1.98098">
        <ele>97</ele>
        <time>2013-08-17T09:43:12Z</time>
      </trkpt>
      <trkpt lat="48.68771" lon="1.98094">
        <ele>96</ele>
        <time>2013-08-17T09:43:14Z</time>
      </trkpt>
      <trkpt lat="48.68774" lon="1.98088">
        <ele>95</ele>
        <time>2013-08-17T09:43:17Z</time>
      </trkpt>
      <trkpt lat="48.68776" lon="1.98084">
        <ele>95</ele>
        <time>2013-08-17T09:43:19Z</time>
      </trkpt>
      <trkpt lat="48.68779" lon="1.98079">
        <ele>95</ele>
        <time>2013-08-17T09:43:22Z</time>
      </trkpt>
      <trkpt lat="48.68781" lon="1.98075">
        <ele>95</ele>
        <time>2013-08-17T09:43:24Z</time>
      </trkpt>
      <trkpt lat="48.68784" lon="1.98071">
        <ele>95</ele>
        <time>2013-08-17T09:43:27Z</time>
      </trkpt>
      <trkpt lat="48.68786" lon="1.98067">
        <ele>95</ele>
        <time>2013-08-17T09:43:29Z</time>
      </trkpt>
      <trkpt lat="48.68789" lon="1.98062">
        <ele>95</ele>
        <time>2013-08-17T09:43:32Z</time>
      </trkpt>
      <trkpt lat="48.68791" lon="1.98058">
        <ele>95</ele>
        <time>2013-08-17T09:43:34Z</time>
      </trkpt>
      <trkpt lat="48.68794" lon="1.98052">
        <ele>95</ele>
        <time>2013-08-17T09:43:37Z</time>
      </trkpt>
      <trkpt lat="48.68796" lon="1.98048">
        <ele>95</ele>
        <time>2013-08-17T09:43:39Z</time>
      </trkpt>
      <trkpt lat="48.68798" lon="1.98045">
        <ele>95</ele>
        <time>2013-08-17T09:43:41Z</time>
      </trkpt>
      <trkpt lat="48.68799" lon="1.9804">
        <ele>95</ele>
        <time>2013-08-17T09:43:43Z</time>
      </trkpt>
      <trkpt lat="48.68801" lon="1.98036">
        <ele>95</ele>
        <time>2013-08-17T09:43:45Z</time>
      </trkpt>
      <trkpt lat="48.68803" lon="1.9803">
        <ele>95</ele>
        <time>2013-08-17T09:43:48Z</time>
      </trkpt>
      <trkpt lat="48.68805" lon="1.98027">
        <ele>95</ele>
        <time>2013-08-17T09:43:50Z</time>
      </trkpt>
      <trkpt lat="48.68807" lon="1.98021">
        <ele>94</ele>
        <time>2013-08-17T09:43:53Z</time>
      </trkpt>
      <trkpt lat="48.68809" lon="1.98017">
        <ele>94</ele>
        <time>2013-08-17T09:43:55Z</time>
      </trkpt>
      <trkpt lat="48.68811" lon="1.98011">
        <ele>94</ele>
        <time>2013-08-17T09:43:58Z</time>
      </trkpt>
      <trkpt lat="48.68813" lon="1.98007">
        <ele>94</ele>
        <time>2013-08-17T09:44:00Z</time>
      </trkpt>
      <trkpt lat="48.68816" lon="1.98001">
        <ele>93</ele>
        <time>2013-08-17T09:44:03Z</time>
      </trkpt>
      <trkpt lat="48.68818" lon="1.97997">
        <ele>93</ele>
        <time>2013-08-17T09:44:05Z</time>
      </trkpt>
      <trkpt lat="48.68821" lon="1.97992">
        <ele>93</ele>
        <time>2013-08-17T09:44:08Z</time>
      </trkpt>
      <trkpt lat="48.68824" lon="1.97989">
        <ele>93</ele>
        <time>2013-08-17T09:44:10Z</time>
      </trkpt>
      <trkpt lat="48.68827" lon="1.97987">
        <ele>93</ele>
        <time>2013-08-17T09:44:13Z</time>
      </trkpt>
      <trkpt lat="48.6883" lon="1.97985">
        <ele>93</ele>
        <time>2013-08-17T09:44:15Z</time>
      </trkpt>
      <trkpt lat="48.68832" lon="1.97982">
        <ele>93</ele>
        <time>2013-08-17T09:44:22Z</time>
      </trkpt>
      <trkpt lat="48.68833" lon="1.9798">
        <ele>93</ele>
        <time>2013-08-17T09:44:28Z</time>
      </trkpt>
      <trkpt lat="48.68835" lon="1.97976">
        <ele>93</ele>
        <time>2013-08-17T09:44:30Z</time>
      </trkpt>
      <trkpt lat="48.68837" lon="1.97969">
        <ele>93</ele>
        <time>2013-08-17T09:44:33Z</time>
      </trkpt>
      <trkpt lat="48.68839" lon="1.97963">
        <ele>93</ele>
        <time>2013-08-17T09:44:36Z</time>
      </trkpt>
      <trkpt lat="48.68841" lon="1.97959">
        <ele>93</ele>
        <time>2013-08-17T09:44:38Z</time>
      </trkpt>
      <trkpt lat="48.68844" lon="1.97953">
        <ele>93</ele>
        <time>2013-08-17T09:44:41Z</time>
      </trkpt>
      <trkpt lat="48.68847" lon="1.97949">
        <ele>93</ele>
        <time>2013-08-17T09:44:43Z</time>
      </trkpt>
      <trkpt lat="48.6885" lon="1.97943">
        <ele>93</ele>
        <time>2013-08-17T09:44:46Z</time>
      </trkpt>
      <trkpt lat="48.68852" lon="1.97939">
        <ele>93</ele>
        <time>2013-08-17T09:44:48Z</time>
      </trkpt>
      <trkpt lat="48.68855" lon="1.97933">
        <ele>93</ele>
        <time>2013-08-17T09:44:51Z</time>
      </trkpt>
      <trkpt lat="48.68858" lon="1.9793">
        <ele>93</ele>
        <time>2013-08-17T09:44:53Z</time>
      </trkpt>
      <trkpt lat="48.68861" lon="1.97927">
        <ele>93</ele>
        <time>2013-08-17T09:44:56Z</time>
      </trkpt>
      <trkpt lat="48.68863" lon="1.97924">
        <ele>93</ele>
        <time>2013-08-17T09:44:58Z</time>
      </trkpt>
      <trkpt lat="48.68867" lon="1.97919">
        <ele>93</ele>
        <time>2013-08-17T09:45:01Z</time>
      </trkpt>
      <trkpt lat="48.68869" lon="1.97915">
        <ele>93</ele>
        <time>2013-08-17T09:45:03Z</time>
      </trkpt>
      <trkpt lat="48.68873" lon="1.9791">
        <ele>93</ele>
        <time>2013-08-17T09:45:06Z</time>
      </trkpt>
      <trkpt lat="48.68875" lon="1.97907">
        <ele>93</ele>
        <time>2013-08-17T09:45:08Z</time>
      </trkpt>
      <trkpt lat="48.68878" lon="1.97902">
        <ele>93</ele>
        <time>2013-08-17T09:45:11Z</time>
      </trkpt>
      <trkpt lat="48.68881" lon="1.97898">
        <ele>93</ele>
        <time>2013-08-17T09:45:14Z</time>
      </trkpt>
      <trkpt lat="48.68884" lon="1.97893">
        <ele>93</ele>
        <time>2013-08-17T09:45:17Z</time>
      </trkpt>
      <trkpt lat="48.68886" lon="1.97889">
        <ele>93</ele>
        <time>2013-08-17T09:45:19Z</time>
      </trkpt>
      <trkpt lat="48.6889" lon="1.97883">
        <ele>93</ele>
        <time>2013-08-17T09:45:22Z</time>
      </trkpt>
      <trkpt lat="48.68892" lon="1.9788">
        <ele>93</ele>
        <time>2013-08-17T09:45:24Z</time>
      </trkpt>
      <trkpt lat="48.68895" lon="1.97876">
        <ele>93</ele>
        <time>2013-08-17T09:45:27Z</time>
      </trkpt>
      <trkpt lat="48.68898" lon="1.97873">
        <ele>93</ele>
        <time>2013-08-17T09:45:29Z</time>
      </trkpt>
      <trkpt lat="48.689" lon="1.97867">
        <ele>93</ele>
        <time>2013-08-17T09:45:32Z</time>
      </trkpt>
      <trkpt lat="48.68903" lon="1.97863">
        <ele>93</ele>
        <time>2013-08-17T09:45:34Z</time>
      </trkpt>
      <trkpt lat="48.68906" lon="1.97859">
        <ele>93</ele>
        <time>2013-08-17T09:45:37Z</time>
      </trkpt>
      <trkpt lat="48.68908" lon="1.97855">
        <ele>93</ele>
        <time>2013-08-17T09:45:39Z</time>
      </trkpt>
      <trkpt lat="48.68911" lon="1.9785">
        <ele>93</ele>
        <time>2013-08-17T09:45:42Z</time>
      </trkpt>
      <trkpt lat="48.68914" lon="1.97847">
        <ele>93</ele>
        <time>2013-08-17T09:45:44Z</time>
      </trkpt>
      <trkpt lat="48.68917" lon="1.97839">
        <ele>93</ele>
        <time>2013-08-17T09:45:47Z</time>
      </trkpt>
      <trkpt lat="48.68919" lon="1.97835">
        <ele>93</ele>
        <time>2013-08-17T09:45:49Z</time>
      </trkpt>
      <trkpt lat="48.68922" lon="1.9783">
        <ele>93</ele>
        <time>2013-08-17T09:45:52Z</time>
      </trkpt>
      <trkpt lat="48.68924" lon="1.97826">
        <ele>93</ele>
        <time>2013-08-17T09:45:54Z</time>
      </trkpt>
      <trkpt lat="48.68928" lon="1.97819">
        <ele>93</ele>
        <time>2013-08-17T09:45:58Z</time>
      </trkpt>
      <trkpt lat="48.6893" lon="1.97816">
        <ele>93</ele>
        <time>2013-08-17T09:46:00Z</time>
      </trkpt>
      <trkpt lat="48.68933" lon="1.97813">
        <ele>93</ele>
        <time>2013-08-17T09:46:02Z</time>
      </trkpt>
      <trkpt lat="48.68935" lon="1.9781">
        <ele>93</ele>
        <time>2013-08-17T09:46:04Z</time>
      </trkpt>
      <trkpt lat="48.68937" lon="1.97804">
        <ele>93</ele>
        <time>2013-08-17T09:46:07Z</time>
      </trkpt>
      <trkpt lat="48.68938" lon="1.97799">
        <ele>93</ele>
        <time>2013-08-17T09:46:09Z</time>
      </trkpt>
      <trkpt lat="48.6894" lon="1.97793">
        <ele>93</ele>
        <time>2013-08-17T09:46:12Z</time>
      </trkpt>
      <trkpt lat="48.68941" lon="1.97789">
        <ele>93</ele>
        <time>2013-08-17T09:46:14Z</time>
      </trkpt>
      <trkpt lat="48.68942" lon="1.97782">
        <ele>93</ele>
        <time>2013-08-17T09:46:17Z</time>
      </trkpt>
      <trkpt lat="48.68942" lon="1.97777">
        <ele>93</ele>
        <time>2013-08-17T09:46:19Z</time>
      </trkpt>
      <trkpt lat="48.68943" lon="1.97771">
        <ele>93</ele>
        <time>2013-08-17T09:46:22Z</time>
      </trkpt>
      <trkpt lat="48.68942" lon="1.97766">
        <ele>93</ele>
        <time>2013-08-17T09:46:25Z</time>
      </trkpt>
      <trkpt lat="48.68941" lon="1.97762">
        <ele>93</ele>
        <time>2013-08-17T09:46:30Z</time>
      </trkpt>
      <trkpt lat="48.68938" lon="1.97757">
        <ele>93</ele>
        <time>2013-08-17T09:46:33Z</time>
      </trkpt>
      <trkpt lat="48.68935" lon="1.97754">
        <ele>93</ele>
        <time>2013-08-17T09:46:35Z</time>
      </trkpt>
      <trkpt lat="48.68931" lon="1.9775">
        <ele>93</ele>
        <time>2013-08-17T09:46:38Z</time>
      </trkpt>
      <trkpt lat="48.68927" lon="1.97748">
        <ele>93</ele>
        <time>2013-08-17T09:46:40Z</time>
      </trkpt>
      <trkpt lat="48.68922" lon="1.97745">
        <ele>93</ele>
        <time>2013-08-17T09:46:43Z</time>
      </trkpt>
      <trkpt lat="48.68919" lon="1.97743">
        <ele>93</ele>
        <time>2013-08-17T09:46:45Z</time>
      </trkpt>
      <trkpt lat="48.68916" lon="1.97741">
        <ele>93</ele>
        <time>2013-08-17T09:46:47Z</time>
      </trkpt>
      <trkpt lat="48.68914" lon="1.97738">
        <ele>93</ele>
        <time>2013-08-17T09:46:49Z</time>
      </trkpt>
      <trkpt lat="48.68911" lon="1.97735">
        <ele>93</ele>
        <time>2013-08-17T09:46:51Z</time>
      </trkpt>
      <trkpt lat="48.68908" lon="1.97733">
        <ele>93</ele>
        <time>2013-08-17T09:46:53Z</time>
      </trkpt>
      <trkpt lat="48.68905" lon="1.97731">
        <ele>93</ele>
        <time>2013-08-17T09:46:55Z</time>
      </trkpt>
      <trkpt lat="48.68901" lon="1.97728">
        <ele>93</ele>
        <time>2013-08-17T09:46:58Z</time>
      </trkpt>
      <trkpt lat="48.68898" lon="1.97726">
        <ele>93</ele>
        <time>2013-08-17T09:47:00Z</time>
      </trkpt>
      <trkpt lat="48.68894" lon="1.97722">
        <ele>93</ele>
        <time>2013-08-17T09:47:03Z</time>
      </trkpt>
      <trkpt lat="48.68892" lon="1.9772">
        <ele>93</ele>
        <time>2013-08-17T09:47:05Z</time>
      </trkpt>
      <trkpt lat="48.68889" lon="1.97718">
        <ele>94</ele>
        <time>2013-08-17T09:47:07Z</time>
      </trkpt>
      <trkpt lat="48.68887" lon="1.97716">
        <ele>94</ele>
        <time>2013-08-17T09:47:09Z</time>
      </trkpt>
      <trkpt lat="48.68884" lon="1.97714">
        <ele>94</ele>
        <time>2013-08-17T09:47:11Z</time>
      </trkpt>
      <trkpt lat="48.68882" lon="1.97712">
        <ele>94</ele>
        <time>2013-08-17T09:47:13Z</time>
      </trkpt>
      <trkpt lat="48.68879" lon="1.9771">
        <ele>94</ele>
        <time>2013-08-17T09:47:15Z</time>
      </trkpt>
      <trkpt lat="48.68876" lon="1.97708">
        <ele>94</ele>
        <time>2013-08-17T09:47:17Z</time>
      </trkpt>
      <trkpt lat="48.68873" lon="1.97705">
        <ele>95</ele>
        <time>2013-08-17T09:47:19Z</time>
      </trkpt>
      <trkpt lat="48.68871" lon="1.97704">
        <ele>95</ele>
        <time>2013-08-17T09:47:21Z</time>
      </trkpt>
      <trkpt lat="48.68868" lon="1.97702">
        <ele>95</ele>
        <time>2013-08-17T09:47:23Z</time>
      </trkpt>
      <trkpt lat="48.68866" lon="1.97699">
        <ele>95</ele>
        <time>2013-08-17T09:47:25Z</time>
      </trkpt>
      <trkpt lat="48.68863" lon="1.97697">
        <ele>95</ele>
        <time>2013-08-17T09:47:27Z</time>
      </trkpt>
      <trkpt lat="48.68861" lon="1.97694">
        <ele>95</ele>
        <time>2013-08-17T09:47:29Z</time>
      </trkpt>
      <trkpt lat="48.68857" lon="1.9769">
        <ele>95</ele>
        <time>2013-08-17T09:47:32Z</time>
      </trkpt>
      <trkpt lat="48.68854" lon="1.97685">
        <ele>95</ele>
        <time>2013-08-17T09:47:35Z</time>
      </trkpt>
      <trkpt lat="48.68853" lon="1.97681">
        <ele>95</ele>
        <time>2013-08-17T09:47:37Z</time>
      </trkpt>
      <trkpt lat="48.68852" lon="1.97677">
        <ele>95</ele>
        <time>2013-08-17T09:47:39Z</time>
      </trkpt>
      <trkpt lat="48.68851" lon="1.97672">
        <ele>95</ele>
        <time>2013-08-17T09:47:41Z</time>
      </trkpt>
      <trkpt lat="48.6885" lon="1.97667">
        <ele>95</ele>
        <time>2013-08-17T09:47:43Z</time>
      </trkpt>
      <trkpt lat="48.6885" lon="1.97662">
        <ele>95</ele>
        <time>2013-08-17T09:47:45Z</time>
      </trkpt>
      <trkpt lat="48.68849" lon="1.97657">
        <ele>95</ele>
        <time>2013-08-17T09:47:47Z</time>
      </trkpt>
      <trkpt lat="48.68849" lon="1.97652">
        <ele>95</ele>
        <time>2013-08-17T09:47:49Z</time>
      </trkpt>
      <trkpt lat="48.68849" lon="1.97647">
        <ele>95</ele>
        <time>2013-08-17T09:47:51Z</time>
      </trkpt>
      <trkpt lat="48.6885" lon="1.97643">
        <ele>95</ele>
        <time>2013-08-17T09:47:53Z</time>
      </trkpt>
      <trkpt lat="48.6885" lon="1.97638">
        <ele>95</ele>
        <time>2013-08-17T09:47:55Z</time>
      </trkpt>
      <trkpt lat="48.6885" lon="1.97634">
        <ele>95</ele>
        <time>2013-08-17T09:47:57Z</time>
      </trkpt>
      <trkpt lat="48.6885" lon="1.97627">
        <ele>96</ele>
        <time>2013-08-17T09:48:00Z</time>
      </trkpt>
      <trkpt lat="48.6885" lon="1.97622">
        <ele>96</ele>
        <time>2013-08-17T09:48:02Z</time>
      </trkpt>
      <trkpt lat="48.68851" lon="1.97615">
        <ele>96</ele>
        <time>2013-08-17T09:48:05Z</time>
      </trkpt>
      <trkpt lat="48.68851" lon="1.9761">
        <ele>96</ele>
        <time>2013-08-17T09:48:07Z</time>
      </trkpt>
      <trkpt lat="48.68851" lon="1.97606">
        <ele>96</ele>
        <time>2013-08-17T09:48:09Z</time>
      </trkpt>
      <trkpt lat="48.68851" lon="1.97601">
        <ele>97</ele>
        <time>2013-08-17T09:48:11Z</time>
      </trkpt>
      <trkpt lat="48.68852" lon="1.97596">
        <ele>97</ele>
        <time>2013-08-17T09:48:13Z</time>
      </trkpt>
      <trkpt lat="48.68852" lon="1.97592">
        <ele>97</ele>
        <time>2013-08-17T09:48:15Z</time>
      </trkpt>
      <trkpt lat="48.68852" lon="1.97587">
        <ele>97</ele>
        <time>2013-08-17T09:48:17Z</time>
      </trkpt>
      <trkpt lat="48.68852" lon="1.9758">
        <ele>97</ele>
        <time>2013-08-17T09:48:20Z</time>
      </trkpt>
      <trkpt lat="48.68851" lon="1.97575">
        <ele>98</ele>
        <time>2013-08-17T09:48:22Z</time>
      </trkpt>
      <trkpt lat="48.68852" lon="1.97568">
        <ele>98</ele>
        <time>2013-08-17T09:48:25Z</time>
      </trkpt>
      <trkpt lat="48.68852" lon="1.97564">
        <ele>98</ele>
        <time>2013-08-17T09:48:27Z</time>
      </trkpt>
      <trkpt lat="48.68852" lon="1.97557">
        <ele>98</ele>
        <time>2013-08-17T09:48:30Z</time>
      </trkpt>
      <trkpt lat="48.68853" lon="1.97553">
        <ele>98</ele>
        <time>2013-08-17T09:48:32Z</time>
      </trkpt>
      <trkpt lat="48.68853" lon="1.97548">
        <ele>98</ele>
        <time>2013-08-17T09:48:34Z</time>
      </trkpt>
      <trkpt lat="48.68853" lon="1.97544">
        <ele>98</ele>
        <time>2013-08-17T09:48:36Z</time>
      </trkpt>
      <trkpt lat="48.68853" lon="1.9754">
        <ele>98</ele>
        <time>2013-08-17T09:48:38Z</time>
      </trkpt>
      <trkpt lat="48.68853" lon="1.97535">
        <ele>98</ele>
        <time>2013-08-17T09:48:40Z</time>
      </trkpt>
      <trkpt lat="48.68852" lon="1.97531">
        <ele>98</ele>
        <time>2013-08-17T09:48:42Z</time>
      </trkpt>
      <trkpt lat="48.68851" lon="1.97524">
        <ele>98</ele>
        <time>2013-08-17T09:48:45Z</time>
      </trkpt>
      <trkpt lat="48.6885" lon="1.9752">
        <ele>98</ele>
        <time>2013-08-17T09:48:47Z</time>
      </trkpt>
      <trkpt lat="48.68846" lon="1.97516">
        <ele>98</ele>
        <time>2013-08-17T09:48:50Z</time>
      </trkpt>
      <trkpt lat="48.68844" lon="1.97514">
        <ele>98</ele>
        <time>2013-08-17T09:48:52Z</time>
      </trkpt>
      <trkpt lat="48.6884" lon="1.97511">
        <ele>98</ele>
        <time>2013-08-17T09:48:55Z</time>
      </trkpt>
      <trkpt lat="48.68837" lon="1.9751">
        <ele>98</ele>
        <time>2013-08-17T09:48:57Z</time>
      </trkpt>
      <trkpt lat="48.68834" lon="1.97508">
        <ele>98</ele>
        <time>2013-08-17T09:48:59Z</time>
      </trkpt>
      <trkpt lat="48.68831" lon="1.97507">
        <ele>98</ele>
        <time>2013-08-17T09:49:01Z</time>
      </trkpt>
      <trkpt lat="48.68828" lon="1.97506">
        <ele>98</ele>
        <time>2013-08-17T09:49:03Z</time>
      </trkpt>
      <trkpt lat="48.68825" lon="1.97505">
        <ele>98</ele>
        <time>2013-08-17T09:49:05Z</time>
      </trkpt>
      <trkpt lat="48.68822" lon="1.97504">
        <ele>98</ele>
        <time>2013-08-17T09:49:07Z</time>
      </trkpt>
      <trkpt lat="48.68819" lon="1.97503">
        <ele>98</ele>
        <time>2013-08-17T09:49:09Z</time>
      </trkpt>
      <trkpt lat="48.68816" lon="1.97501">
        <ele>98</ele>
        <time>2013-08-17T09:49:11Z</time>
      </trkpt>
      <trkpt lat="48.68814" lon="1.97499">
        <ele>98</ele>
        <time>2013-08-17T09:49:13Z</time>
      </trkpt>
      <trkpt lat="48.68811" lon="1.97496">
        <ele>98</ele>
        <time>2013-08-17T09:49:15Z</time>
      </trkpt>
      <trkpt lat="48.68809" lon="1.97493">
        <ele>98</ele>
        <time>2013-08-17T09:49:17Z</time>
      </trkpt>
      <trkpt lat="48.68807" lon="1.9749">
        <ele>98</ele>
        <time>2013-08-17T09:49:19Z</time>
      </trkpt>
      <trkpt lat="48.68805" lon="1.97486">
        <ele>98</ele>
        <time>2013-08-17T09:49:21Z</time>
      </trkpt>
      <trkpt lat="48.68803" lon="1.97479">
        <ele>98</ele>
        <time>2013-08-17T09:49:24Z</time>
      </trkpt>
      <trkpt lat="48.68803" lon="1.97475">
        <ele>98</ele>
        <time>2013-08-17T09:49:26Z</time>
      </trkpt>
      <trkpt lat="48.68801" lon="1.9747">
        <ele>98</ele>
        <time>2013-08-17T09:49:28Z</time>
      </trkpt>
      <trkpt lat="48.68799" lon="1.97466">
        <ele>98</ele>
        <time>2013-08-17T09:49:30Z</time>
      </trkpt>
      <trkpt lat="48.68798" lon="1.97461">
        <ele>98</ele>
        <time>2013-08-17T09:49:32Z</time>
      </trkpt>
      <trkpt lat="48.68797" lon="1.97454">
        <ele>98</ele>
        <time>2013-08-17T09:49:35Z</time>
      </trkpt>
      <trkpt lat="48.68797" lon="1.9745">
        <ele>98</ele>
        <time>2013-08-17T09:49:37Z</time>
      </trkpt>
      <trkpt lat="48.68797" lon="1.97445">
        <ele>98</ele>
        <time>2013-08-17T09:49:39Z</time>
      </trkpt>
      <trkpt lat="48.68796" lon="1.97441">
        <ele>98</ele>
        <time>2013-08-17T09:49:41Z</time>
      </trkpt>
      <trkpt lat="48.68796" lon="1.97436">
        <ele>98</ele>
        <time>2013-08-17T09:49:43Z</time>
      </trkpt>
      <trkpt lat="48.68795" lon="1.97432">
        <ele>98</ele>
        <time>2013-08-17T09:49:45Z</time>
      </trkpt>
      <trkpt lat="48.68795" lon="1.97427">
        <ele>98</ele>
        <time>2013-08-17T09:49:47Z</time>
      </trkpt>
      <trkpt lat="48.68794" lon="1.97422">
        <ele>98</ele>
        <time>2013-08-17T09:49:49Z</time>
      </trkpt>
      <trkpt lat="48.68794" lon="1.97418">
        <ele>98</ele>
        <time>2013-08-17T09:49:51Z</time>
      </trkpt>
      <trkpt lat="48.68793" lon="1.97413">
        <ele>98</ele>
        <time>2013-08-17T09:49:53Z</time>
      </trkpt>
      <trkpt lat="48.68793" lon="1.97409">
        <ele>98</ele>
        <time>2013-08-17T09:49:55Z</time>
      </trkpt>
      <trkpt lat="48.68793" lon="1.97404">
        <ele>98</ele>
        <time>2013-08-17T09:49:57Z</time>
      </trkpt>
      <trkpt lat="48.68792" lon="1.97399">
        <ele>98</ele>
        <time>2013-08-17T09:49:59Z</time>
      </trkpt>
      <trkpt lat="48.68792" lon="1.97395">
        <ele>98</ele>
        <time>2013-08-17T09:50:01Z</time>
      </trkpt>
      <trkpt lat="48.68791" lon="1.9739">
        <ele>98</ele>
        <time>2013-08-17T09:50:03Z</time>
      </trkpt>
      <trkpt lat="48.6879" lon="1.97385">
        <ele>98</ele>
        <time>2013-08-17T09:50:05Z</time>
      </trkpt>
      <trkpt lat="48.6879" lon="1.9738">
        <ele>98</ele>
        <time>2013-08-17T09:50:07Z</time>
      </trkpt>
      <trkpt lat="48.6879" lon="1.97375">
        <ele>98</ele>
        <time>2013-08-17T09:50:09Z</time>
      </trkpt>
      <trkpt lat="48.68789" lon="1.97371">
        <ele>98</ele>
        <time>2013-08-17T09:50:11Z</time>
      </trkpt>
      <trkpt lat="48.68788" lon="1.97366">
        <ele>98</ele>
        <time>2013-08-17T09:50:13Z</time>
      </trkpt>
      <trkpt lat="48.68788" lon="1.97361">
        <ele>98</ele>
        <time>2013-08-17T09:50:15Z</time>
      </trkpt>
      <trkpt lat="48.68787" lon="1.97354">
        <ele>98</ele>
        <time>2013-08-17T09:50:18Z</time>
      </trkpt>
      <trkpt lat="48.68786" lon="1.9735">
        <ele>98</ele>
        <time>2013-08-17T09:50:20Z</time>
      </trkpt>
      <trkpt lat="48.68785" lon="1.97345">
        <ele>98</ele>
        <time>2013-08-17T09:50:22Z</time>
      </trkpt>
      <trkpt lat="48.68785" lon="1.97341">
        <ele>98</ele>
        <time>2013-08-17T09:50:24Z</time>
      </trkpt>
      <trkpt lat="48.68784" lon="1.97336">
        <ele>98</ele>
        <time>2013-08-17T09:50:26Z</time>
      </trkpt>
      <trkpt lat="48.68784" lon="1.97331">
        <ele>98</ele>
        <time>2013-08-17T09:50:28Z</time>
      </trkpt>
      <trkpt lat="48.68784" lon="1.97326">
        <ele>98</ele>
        <time>2013-08-17T09:50:30Z</time>
      </trkpt>
      <trkpt lat="48.68784" lon="1.97321">
        <ele>98</ele>
        <time>2013-08-17T09:50:32Z</time>
      </trkpt>
      <trkpt lat="48.68783" lon="1.97317">
        <ele>98</ele>
        <time>2013-08-17T09:50:34Z</time>
      </trkpt>
      <trkpt lat="48.68782" lon="1.97312">
        <ele>98</ele>
        <time>2013-08-17T09:50:36Z</time>
      </trkpt>
      <trkpt lat="48.68782" lon="1.97308">
        <ele>98</ele>
        <time>2013-08-17T09:50:38Z</time>
      </trkpt>
      <trkpt lat="48.68782" lon="1.97304">
        <ele>98</ele>
        <time>2013-08-17T09:50:40Z</time>
      </trkpt>
      <trkpt lat="48.68781" lon="1.97299">
        <ele>98</ele>
        <time>2013-08-17T09:50:42Z</time>
      </trkpt>
      <trkpt lat="48.68781" lon="1.97295">
        <ele>98</ele>
        <time>2013-08-17T09:50:44Z</time>
      </trkpt>
      <trkpt lat="48.6878" lon="1.9729">
        <ele>98</ele>
        <time>2013-08-17T09:50:46Z</time>
      </trkpt>
      <trkpt lat="48.68779" lon="1.97283">
        <ele>99</ele>
        <time>2013-08-17T09:50:49Z</time>
      </trkpt>
      <trkpt lat="48.68779" lon="1.97278">
        <ele>99</ele>
        <time>2013-08-17T09:50:51Z</time>
      </trkpt>
      <trkpt lat="48.68778" lon="1.97273">
        <ele>99</ele>
        <time>2013-08-17T09:50:53Z</time>
      </trkpt>
      <trkpt lat="48.68777" lon="1.97268">
        <ele>99</ele>
        <time>2013-08-17T09:50:55Z</time>
      </trkpt>
      <trkpt lat="48.68776" lon="1.97264">
        <ele>99</ele>
        <time>2013-08-17T09:50:57Z</time>
      </trkpt>
      <trkpt lat="48.68776" lon="1.97258">
        <ele>99</ele>
        <time>2013-08-17T09:50:59Z</time>
      </trkpt>
      <trkpt lat="48.68775" lon="1.97254">
        <ele>99</ele>
        <time>2013-08-17T09:51:01Z</time>
      </trkpt>
      <trkpt lat="48.68775" lon="1.97249">
        <ele>99</ele>
        <time>2013-08-17T09:51:03Z</time>
      </trkpt>
      <trkpt lat="48.68775" lon="1.97245">
        <ele>99</ele>
        <time>2013-08-17T09:51:05Z</time>
      </trkpt>
      <trkpt lat="48.68776" lon="1.9724">
        <ele>100</ele>
        <time>2013-08-17T09:51:07Z</time>
      </trkpt>
      <trkpt lat="48.68776" lon="1.97236">
        <ele>100</ele>
        <time>2013-08-17T09:51:09Z</time>
      </trkpt>
      <trkpt lat="48.68776" lon="1.97232">
        <ele>100</ele>
        <time>2013-08-17T09:51:11Z</time>
      </trkpt>
      <trkpt lat="48.68776" lon="1.97228">
        <ele>100</ele>
        <time>2013-08-17T09:51:13Z</time>
      </trkpt>
      <trkpt lat="48.68775" lon="1.97224">
        <ele>101</ele>
        <time>2013-08-17T09:51:15Z</time>
      </trkpt>
      <trkpt lat="48.68776" lon="1.9722">
        <ele>101</ele>
        <time>2013-08-17T09:51:17Z</time>
      </trkpt>
      <trkpt lat="48.68777" lon="1.97215">
        <ele>101</ele>
        <time>2013-08-17T09:51:19Z</time>
      </trkpt>
      <trkpt lat="48.68778" lon="1.9721">
        <ele>101</ele>
        <time>2013-08-17T09:51:21Z</time>
      </trkpt>
      <trkpt lat="48.6878" lon="1.97206">
        <ele>101</ele>
        <time>2013-08-17T09:51:23Z</time>
      </trkpt>
      <trkpt lat="48.68781" lon="1.97202">
        <ele>101</ele>
        <time>2013-08-17T09:51:25Z</time>
      </trkpt>
      <trkpt lat="48.68783" lon="1.97198">
        <ele>101</ele>
        <time>2013-08-17T09:51:27Z</time>
      </trkpt>
      <trkpt lat="48.68785" lon="1.97195">
        <ele>102</ele>
        <time>2013-08-17T09:51:29Z</time>
      </trkpt>
      <trkpt lat="48.68787" lon="1.97192">
        <ele>102</ele>
        <time>2013-08-17T09:51:31Z</time>
      </trkpt>
      <trkpt lat="48.6879" lon="1.97188">
        <ele>102</ele>
        <time>2013-08-17T09:51:33Z</time>
      </trkpt>
      <trkpt lat="48.68792" lon="1.97185">
        <ele>102</ele>
        <time>2013-08-17T09:51:35Z</time>
      </trkpt>
      <trkpt lat="48.68794" lon="1.97182">
        <ele>102</ele>
        <time>2013-08-17T09:51:37Z</time>
      </trkpt>
      <trkpt lat="48.68797" lon="1.97179">
        <ele>103</ele>
        <time>2013-08-17T09:51:39Z</time>
      </trkpt>
      <trkpt lat="48.68799" lon="1.97176">
        <ele>103</ele>
        <time>2013-08-17T09:51:41Z</time>
      </trkpt>
      <trkpt lat="48.68802" lon="1.97174">
        <ele>103</ele>
        <time>2013-08-17T09:51:43Z</time>
      </trkpt>
      <trkpt lat="48.68804" lon="1.97172">
        <ele>103</ele>
        <time>2013-08-17T09:51:45Z</time>
      </trkpt>
      <trkpt lat="48.68806" lon="1.97169">
        <ele>103</ele>
        <time>2013-08-17T09:51:47Z</time>
      </trkpt>
      <trkpt lat="48.68809" lon="1.97167">
        <ele>104</ele>
        <time>2013-08-17T09:51:49Z</time>
      </trkpt>
      <trkpt lat="48.68811" lon="1.97163">
        <ele>104</ele>
        <time>2013-08-17T09:51:51Z</time>
      </trkpt>
      <trkpt lat="48.68813" lon="1.9716">
        <ele>104</ele>
        <time>2013-08-17T09:51:53Z</time>
      </trkpt>
      <trkpt lat="48.68814" lon="1.97158">
        <ele>104</ele>
        <time>2013-08-17T09:51:55Z</time>
      </trkpt>
      <trkpt lat="48.68817" lon="1.97155">
        <ele>104</ele>
        <time>2013-08-17T09:51:57Z</time>
      </trkpt>
      <trkpt lat="48.68819" lon="1.97152">
        <ele>104</ele>
        <time>2013-08-17T09:51:59Z</time>
      </trkpt>
      <trkpt lat="48.68822" lon="1.9715">
        <ele>104</ele>
        <time>2013-08-17T09:52:01Z</time>
      </trkpt>
      <trkpt lat="48.68825" lon="1.97147">
        <ele>104</ele>
        <time>2013-08-17T09:52:03Z</time>
      </trkpt>
      <trkpt lat="48.68827" lon="1.97145">
        <ele>105</ele>
        <time>2013-08-17T09:52:05Z</time>
      </trkpt>
      <trkpt lat="48.6883" lon="1.97142">
        <ele>105</ele>
        <time>2013-08-17T09:52:07Z</time>
      </trkpt>
      <trkpt lat="48.68832" lon="1.97139">
        <ele>105</ele>
        <time>2013-08-17T09:52:09Z</time>
      </trkpt>
      <trkpt lat="48.68834" lon="1.97136">
        <ele>105</ele>
        <time>2013-08-17T09:52:11Z</time>
      </trkpt>
      <trkpt lat="48.68837" lon="1.97133">
        <ele>105</ele>
        <time>2013-08-17T09:52:13Z</time>
      </trkpt>
      <trkpt lat="48.68839" lon="1.9713">
        <ele>105</ele>
        <time>2013-08-17T09:52:15Z</time>
      </trkpt>
      <trkpt lat="48.68841" lon="1.97127">
        <ele>105</ele>
        <time>2013-08-17T09:52:17Z</time>
      </trkpt>
      <trkpt lat="48.68843" lon="1.97124">
        <ele>105</ele>
        <time>2013-08-17T09:52:19Z</time>
      </trkpt>
      <trkpt lat="48.68845" lon="1.97121">
        <ele>106</ele>
        <time>2013-08-17T09:52:21Z</time>
      </trkpt>
      <trkpt lat="48.68847" lon="1.97117">
        <ele>106</ele>
        <time>2013-08-17T09:52:23Z</time>
      </trkpt>
      <trkpt lat="48.68849" lon="1.97112">
        <ele>106</ele>
        <time>2013-08-17T09:52:26Z</time>
      </trkpt>
      <trkpt lat="48.6885" lon="1.97108">
        <ele>106</ele>
        <time>2013-08-17T09:52:28Z</time>
      </trkpt>
      <trkpt lat="48.6885" lon="1.97104">
        <ele>106</ele>
        <time>2013-08-17T09:52:30Z</time>
      </trkpt>
      <trkpt lat="48.68851" lon="1.971">
        <ele>106</ele>
        <time>2013-08-17T09:52:32Z</time>
      </trkpt>
      <trkpt lat="48.68851" lon="1.97096">
        <ele>106</ele>
        <time>2013-08-17T09:52:34Z</time>
      </trkpt>
      <trkpt lat="48.68852" lon="1.97091">
        <ele>107</ele>
        <time>2013-08-17T09:52:36Z</time>
      </trkpt>
      <trkpt lat="48.68853" lon="1.97087">
        <ele>107</ele>
        <time>2013-08-17T09:52:38Z</time>
      </trkpt>
      <trkpt lat="48.68854" lon="1.97082">
        <ele>107</ele>
        <time>2013-08-17T09:52:40Z</time>
      </trkpt>
      <trkpt lat="48.68855" lon="1.97077">
        <ele>107</ele>
        <time>2013-08-17T09:52:42Z</time>
      </trkpt>
      <trkpt lat="48.68855" lon="1.97073">
        <ele>107</ele>
        <time>2013-08-17T09:52:44Z</time>
      </trkpt>
      <trkpt lat="48.68855" lon="1.97067">
        <ele>107</ele>
        <time>2013-08-17T09:52:46Z</time>
      </trkpt>
      <trkpt lat="48.68856" lon="1.97062">
        <ele>108</ele>
        <time>2013-08-17T09:52:48Z</time>
      </trkpt>
      <trkpt lat="48.68856" lon="1.97058">
        <ele>108</ele>
        <time>2013-08-17T09:52:50Z</time>
      </trkpt>
      <trkpt lat="48.68857" lon="1.97053">
        <ele>108</ele>
        <time>2013-08-17T09:52:52Z</time>
      </trkpt>
      <trkpt lat="48.68858" lon="1.97048">
        <ele>108</ele>
        <time>2013-08-17T09:52:54Z</time>
      </trkpt>
      <trkpt lat="48.68858" lon="1.97044">
        <ele>108</ele>
        <time>2013-08-17T09:52:56Z</time>
      </trkpt>
      <trkpt lat="48.68859" lon="1.97039">
        <ele>108</ele>
        <time>2013-08-17T09:52:58Z</time>
      </trkpt>
      <trkpt lat="48.68859" lon="1.97034">
        <ele>108</ele>
        <time>2013-08-17T09:53:00Z</time>
      </trkpt>
      <trkpt lat="48.68859" lon="1.97029">
        <ele>108</ele>
        <time>2013-08-17T09:53:02Z</time>
      </trkpt>
      <trkpt lat="48.68859" lon="1.97025">
        <ele>108</ele>
        <time>2013-08-17T09:53:04Z</time>
      </trkpt>
      <trkpt lat="48.6886" lon="1.9702">
        <ele>108</ele>
        <time>2013-08-17T09:53:06Z</time>
      </trkpt>
      <trkpt lat="48.6886" lon="1.97015">
        <ele>108</ele>
        <time>2013-08-17T09:53:08Z</time>
      </trkpt>
      <trkpt lat="48.68861" lon="1.9701">
        <ele>109</ele>
        <time>2013-08-17T09:53:10Z</time>
      </trkpt>
      <trkpt lat="48.68861" lon="1.97005">
        <ele>109</ele>
        <time>2013-08-17T09:53:12Z</time>
      </trkpt>
      <trkpt lat="48.68861" lon="1.97001">
        <ele>109</ele>
        <time>2013-08-17T09:53:14Z</time>
      </trkpt>
      <trkpt lat="48.68861" lon="1.96996">
        <ele>109</ele>
        <time>2013-08-17T09:53:16Z</time>
      </trkpt>
      <trkpt lat="48.68862" lon="1.96992">
        <ele>109</ele>
        <time>2013-08-17T09:53:18Z</time>
      </trkpt>
      <trkpt lat="48.68863" lon="1.96988">
        <ele>109</ele>
        <time>2013-08-17T09:53:20Z</time>
      </trkpt>
      <trkpt lat="48.68863" lon="1.96984">
        <ele>109</ele>
        <time>2013-08-17T09:53:22Z</time>
      </trkpt>
      <trkpt lat="48.68864" lon="1.96978">
        <ele>109</ele>
        <time>2013-08-17T09:53:25Z</time>
      </trkpt>
      <trkpt lat="48.68865" lon="1.96974">
        <ele>109</ele>
        <time>2013-08-17T09:53:27Z</time>
      </trkpt>
      <trkpt lat="48.68865" lon="1.9697">
        <ele>109</ele>
        <time>2013-08-17T09:53:29Z</time>
      </trkpt>
      <trkpt lat="48.68865" lon="1.96966">
        <ele>109</ele>
        <time>2013-08-17T09:53:32Z</time>
      </trkpt>
      <trkpt lat="48.68865" lon="1.96964">
        <ele>109</ele>
        <time>2013-08-17T09:53:35Z</time>
      </trkpt>
      <trkpt lat="48.68864" lon="1.96962">
        <ele>109</ele>
        <time>2013-08-17T09:53:39Z</time>
      </trkpt>
      <trkpt lat="48.68863" lon="1.9696">
        <ele>109</ele>
        <time>2013-08-17T09:53:46Z</time>
      </trkpt>
      <trkpt lat="48.68864" lon="1.96959">
        <ele>110</ele>
        <time>2013-08-17T09:53:56Z</time>
      </trkpt>
      <trkpt lat="48.68865" lon="1.96957">
        <ele>111</ele>
        <time>2013-08-17T09:54:01Z</time>
      </trkpt>
      <trkpt lat="48.68865" lon="1.96953">
        <ele>111</ele>
        <time>2013-08-17T09:54:03Z</time>
      </trkpt>
      <trkpt lat="48.68864" lon="1.96949">
        <ele>111</ele>
        <time>2013-08-17T09:54:05Z</time>
      </trkpt>
      <trkpt lat="48.68864" lon="1.96945">
        <ele>111</ele>
        <time>2013-08-17T09:54:07Z</time>
      </trkpt>
      <trkpt lat="48.68864" lon="1.9694">
        <ele>111</ele>
        <time>2013-08-17T09:54:09Z</time>
      </trkpt>
      <trkpt lat="48.68864" lon="1.96935">
        <ele>111</ele>
        <time>2013-08-17T09:54:11Z</time>
      </trkpt>
      <trkpt lat="48.68864" lon="1.9693">
        <ele>111</ele>
        <time>2013-08-17T09:54:13Z</time>
      </trkpt>
      <trkpt lat="48.68864" lon="1.96925">
        <ele>111</ele>
        <time>2013-08-17T09:54:15Z</time>
      </trkpt>
      <trkpt lat="48.68863" lon="1.9692">
        <ele>111</ele>
        <time>2013-08-17T09:54:17Z</time>
      </trkpt>
      <trkpt lat="48.68863" lon="1.96916">
        <ele>111</ele>
        <time>2013-08-17T09:54:19Z</time>
      </trkpt>
      <trkpt lat="48.68863" lon="1.96911">
        <ele>111</ele>
        <time>2013-08-17T09:54:21Z</time>
      </trkpt>
      <trkpt lat="48.68863" lon="1.96906">
        <ele>111</ele>
        <time>2013-08-17T09:54:23Z</time>
      </trkpt>
      <trkpt lat="48.68863" lon="1.96902">
        <ele>111</ele>
        <time>2013-08-17T09:54:25Z</time>
      </trkpt>
      <trkpt lat="48.68864" lon="1.96897">
        <ele>111</ele>
        <time>2013-08-17T09:54:27Z</time>
      </trkpt>
      <trkpt lat="48.68864" lon="1.96892">
        <ele>111</ele>
        <time>2013-08-17T09:54:29Z</time>
      </trkpt>
      <trkpt lat="48.68865" lon="1.96887">
        <ele>111</ele>
        <time>2013-08-17T09:54:31Z</time>
      </trkpt>
      <trkpt lat="48.68865" lon="1.96882">
        <ele>111</ele>
        <time>2013-08-17T09:54:33Z</time>
      </trkpt>
      <trkpt lat="48.68866" lon="1.96878">
        <ele>112</ele>
        <time>2013-08-17T09:54:35Z</time>
      </trkpt>
      <trkpt lat="48.68866" lon="1.96873">
        <ele>112</ele>
        <time>2013-08-17T09:54:37Z</time>
      </trkpt>
      <trkpt lat="48.68867" lon="1.96868">
        <ele>112</ele>
        <time>2013-08-17T09:54:39Z</time>
      </trkpt>
      <trkpt lat="48.68867" lon="1.96864">
        <ele>112</ele>
        <time>2013-08-17T09:54:41Z</time>
      </trkpt>
      <trkpt lat="48.68868" lon="1.96859">
        <ele>112</ele>
        <time>2013-08-17T09:54:43Z</time>
      </trkpt>
      <trkpt lat="48.68869" lon="1.96855">
        <ele>112</ele>
        <time>2013-08-17T09:54:45Z</time>
      </trkpt>
      <trkpt lat="48.6887" lon="1.9685">
        <ele>112</ele>
        <time>2013-08-17T09:54:47Z</time>
      </trkpt>
      <trkpt lat="48.6887" lon="1.96845">
        <ele>112</ele>
        <time>2013-08-17T09:54:49Z</time>
      </trkpt>
      <trkpt lat="48.68871" lon="1.9684">
        <ele>112</ele>
        <time>2013-08-17T09:54:51Z</time>
      </trkpt>
      <trkpt lat="48.68871" lon="1.96835">
        <ele>112</ele>
        <time>2013-08-17T09:54:53Z</time>
      </trkpt>
      <trkpt lat="48.68872" lon="1.96831">
        <ele>112</ele>
        <time>2013-08-17T09:54:55Z</time>
      </trkpt>
      <trkpt lat="48.68873" lon="1.96827">
        <ele>113</ele>
        <time>2013-08-17T09:54:57Z</time>
      </trkpt>
      <trkpt lat="48.68874" lon="1.96822">
        <ele>113</ele>
        <time>2013-08-17T09:54:59Z</time>
      </trkpt>
      <trkpt lat="48.68875" lon="1.96818">
        <ele>113</ele>
        <time>2013-08-17T09:55:01Z</time>
      </trkpt>
      <trkpt lat="48.68876" lon="1.96814">
        <ele>113</ele>
        <time>2013-08-17T09:55:03Z</time>
      </trkpt>
      <trkpt lat="48.68878" lon="1.96807">
        <ele>114</ele>
        <time>2013-08-17T09:55:06Z</time>
      </trkpt>
      <trkpt lat="48.68879" lon="1.96803">
        <ele>114</ele>
        <time>2013-08-17T09:55:08Z</time>
      </trkpt>
      <trkpt lat="48.68882" lon="1.96797">
        <ele>114</ele>
        <time>2013-08-17T09:55:11Z</time>
      </trkpt>
      <trkpt lat="48.68883" lon="1.96794">
        <ele>115</ele>
        <time>2013-08-17T09:55:13Z</time>
      </trkpt>
      <trkpt lat="48.68885" lon="1.9679">
        <ele>115</ele>
        <time>2013-08-17T09:55:15Z</time>
      </trkpt>
      <trkpt lat="48.68886" lon="1.96786">
        <ele>115</ele>
        <time>2013-08-17T09:55:17Z</time>
      </trkpt>
      <trkpt lat="48.68887" lon="1.96782">
        <ele>115</ele>
        <time>2013-08-17T09:55:19Z</time>
      </trkpt>
      <trkpt lat="48.68889" lon="1.96775">
        <ele>116</ele>
        <time>2013-08-17T09:55:22Z</time>
      </trkpt>
      <trkpt lat="48.6889" lon="1.96771">
        <ele>117</ele>
        <time>2013-08-17T09:55:24Z</time>
      </trkpt>
      <trkpt lat="48.68891" lon="1.96767">
        <ele>117</ele>
        <time>2013-08-17T09:55:26Z</time>
      </trkpt>
      <trkpt lat="48.68892" lon="1.96763">
        <ele>118</ele>
        <time>2013-08-17T09:55:28Z</time>
      </trkpt>
      <trkpt lat="48.68894" lon="1.96759">
        <ele>118</ele>
        <time>2013-08-17T09:55:30Z</time>
      </trkpt>
      <trkpt lat="48.68895" lon="1.96753">
        <ele>119</ele>
        <time>2013-08-17T09:55:33Z</time>
      </trkpt>
      <trkpt lat="48.68896" lon="1.9675">
        <ele>119</ele>
        <time>2013-08-17T09:55:35Z</time>
      </trkpt>
      <trkpt lat="48.68898" lon="1.96746">
        <ele>119</ele>
        <time>2013-08-17T09:55:37Z</time>
      </trkpt>
      <trkpt lat="48.68899" lon="1.96742">
        <ele>119</ele>
        <time>2013-08-17T09:55:39Z</time>
      </trkpt>
      <trkpt lat="48.68901" lon="1.96738">
        <ele>119</ele>
        <time>2013-08-17T09:55:41Z</time>
      </trkpt>
      <trkpt lat="48.68902" lon="1.96734">
        <ele>119</ele>
        <time>2013-08-17T09:55:43Z</time>
      </trkpt>
      <trkpt lat="48.68904" lon="1.96727">
        <ele>119</ele>
        <time>2013-08-17T09:55:45Z</time>
      </trkpt>
      <trkpt lat="48.68906" lon="1.96721">
        <ele>119</ele>
        <time>2013-08-17T09:55:47Z</time>
      </trkpt>
      <trkpt lat="48.68907" lon="1.96716">
        <ele>119</ele>
        <time>2013-08-17T09:55:49Z</time>
      </trkpt>
      <trkpt lat="48.68908" lon="1.96712">
        <ele>119</ele>
        <time>2013-08-17T09:55:51Z</time>
      </trkpt>
      <trkpt lat="48.68909" lon="1.96707">
        <ele>119</ele>
        <time>2013-08-17T09:55:53Z</time>
      </trkpt>
      <trkpt lat="48.68911" lon="1.96703">
        <ele>119</ele>
        <time>2013-08-17T09:55:55Z</time>
      </trkpt>
      <trkpt lat="48.68912" lon="1.96698">
        <ele>119</ele>
        <time>2013-08-17T09:55:57Z</time>
      </trkpt>
      <trkpt lat="48.68913" lon="1.96694">
        <ele>119</ele>
        <time>2013-08-17T09:55:59Z</time>
      </trkpt>
      <trkpt lat="48.68914" lon="1.96689">
        <ele>119</ele>
        <time>2013-08-17T09:56:01Z</time>
      </trkpt>
      <trkpt lat="48.68916" lon="1.96685">
        <ele>119</ele>
        <time>2013-08-17T09:56:03Z</time>
      </trkpt>
      <trkpt lat="48.68916" lon="1.9668">
        <ele>119</ele>
        <time>2013-08-17T09:56:05Z</time>
      </trkpt>
      <trkpt lat="48.68917" lon="1.96675">
        <ele>119</ele>
        <time>2013-08-17T09:56:07Z</time>
      </trkpt>
      <trkpt lat="48.68919" lon="1.96669">
        <ele>119</ele>
        <time>2013-08-17T09:56:09Z</time>
      </trkpt>
      <trkpt lat="48.6892" lon="1.96665">
        <ele>119</ele>
        <time>2013-08-17T09:56:11Z</time>
      </trkpt>
      <trkpt lat="48.68921" lon="1.96659">
        <ele>120</ele>
        <time>2013-08-17T09:56:13Z</time>
      </trkpt>
      <trkpt lat="48.68923" lon="1.96655">
        <ele>121</ele>
        <time>2013-08-17T09:56:15Z</time>
      </trkpt>
      <trkpt lat="48.68924" lon="1.9665">
        <ele>121</ele>
        <time>2013-08-17T09:56:17Z</time>
      </trkpt>
      <trkpt lat="48.68925" lon="1.96645">
        <ele>122</ele>
        <time>2013-08-17T09:56:19Z</time>
      </trkpt>
      <trkpt lat="48.68926" lon="1.96641">
        <ele>122</ele>
        <time>2013-08-17T09:56:21Z</time>
      </trkpt>
      <trkpt lat="48.68928" lon="1.96637">
        <ele>122</ele>
        <time>2013-08-17T09:56:23Z</time>
      </trkpt>
      <trkpt lat="48.68929" lon="1.96633">
        <ele>123</ele>
        <time>2013-08-17T09:56:25Z</time>
      </trkpt>
      <trkpt lat="48.6893" lon="1.96628">
        <ele>123</ele>
        <time>2013-08-17T09:56:27Z</time>
      </trkpt>
      <trkpt lat="48.68932" lon="1.96623">
        <ele>124</ele>
        <time>2013-08-17T09:56:29Z</time>
      </trkpt>
      <trkpt lat="48.68933" lon="1.96619">
        <ele>124</ele>
        <time>2013-08-17T09:56:31Z</time>
      </trkpt>
      <trkpt lat="48.68936" lon="1.96615">
        <ele>124</ele>
        <time>2013-08-17T09:56:33Z</time>
      </trkpt>
      <trkpt lat="48.68938" lon="1.9661">
        <ele>124</ele>
        <time>2013-08-17T09:56:35Z</time>
      </trkpt>
      <trkpt lat="48.6894" lon="1.96606">
        <ele>124</ele>
        <time>2013-08-17T09:56:37Z</time>
      </trkpt>
      <trkpt lat="48.68941" lon="1.96602">
        <ele>124</ele>
        <time>2013-08-17T09:56:39Z</time>
      </trkpt>
      <trkpt lat="48.68942" lon="1.96598">
        <ele>124</ele>
        <time>2013-08-17T09:56:41Z</time>
      </trkpt>
      <trkpt lat="48.68944" lon="1.96593">
        <ele>124</ele>
        <time>2013-08-17T09:56:43Z</time>
      </trkpt>
      <trkpt lat="48.68946" lon="1.96589">
        <ele>124</ele>
        <time>2013-08-17T09:56:45Z</time>
      </trkpt>
      <trkpt lat="48.68947" lon="1.96584">
        <ele>124</ele>
        <time>2013-08-17T09:56:47Z</time>
      </trkpt>
      <trkpt lat="48.68948" lon="1.96579">
        <ele>124</ele>
        <time>2013-08-17T09:56:49Z</time>
      </trkpt>
      <trkpt lat="48.68949" lon="1.96574">
        <ele>124</ele>
        <time>2013-08-17T09:56:51Z</time>
      </trkpt>
      <trkpt lat="48.6895" lon="1.96569">
        <ele>124</ele>
        <time>2013-08-17T09:56:53Z</time>
      </trkpt>
      <trkpt lat="48.6895" lon="1.96564">
        <ele>124</ele>
        <time>2013-08-17T09:56:55Z</time>
      </trkpt>
      <trkpt lat="48.6895" lon="1.9656">
        <ele>124</ele>
        <time>2013-08-17T09:56:57Z</time>
      </trkpt>
      <trkpt lat="48.6895" lon="1.96555">
        <ele>124</ele>
        <time>2013-08-17T09:56:59Z</time>
      </trkpt>
      <trkpt lat="48.6895" lon="1.9655">
        <ele>124</ele>
        <time>2013-08-17T09:57:01Z</time>
      </trkpt>
      <trkpt lat="48.68951" lon="1.96545">
        <ele>124</ele>
        <time>2013-08-17T09:57:03Z</time>
      </trkpt>
      <trkpt lat="48.68952" lon="1.9654">
        <ele>124</ele>
        <time>2013-08-17T09:57:05Z</time>
      </trkpt>
      <trkpt lat="48.68953" lon="1.96536">
        <ele>124</ele>
        <time>2013-08-17T09:57:07Z</time>
      </trkpt>
      <trkpt lat="48.68954" lon="1.96531">
        <ele>124</ele>
        <time>2013-08-17T09:57:09Z</time>
      </trkpt>
      <trkpt lat="48.68955" lon="1.96526">
        <ele>124</ele>
        <time>2013-08-17T09:57:11Z</time>
      </trkpt>
      <trkpt lat="48.68956" lon="1.96521">
        <ele>124</ele>
        <time>2013-08-17T09:57:13Z</time>
      </trkpt>
      <trkpt lat="48.68956" lon="1.96517">
        <ele>124</ele>
        <time>2013-08-17T09:57:15Z</time>
      </trkpt>
      <trkpt lat="48.68956" lon="1.96512">
        <ele>124</ele>
        <time>2013-08-17T09:57:17Z</time>
      </trkpt>
      <trkpt lat="48.68956" lon="1.96507">
        <ele>124</ele>
        <time>2013-08-17T09:57:19Z</time>
      </trkpt>
      <trkpt lat="48.68957" lon="1.96502">
        <ele>125</ele>
        <time>2013-08-17T09:57:21Z</time>
      </trkpt>
      <trkpt lat="48.68958" lon="1.96497">
        <ele>125</ele>
        <time>2013-08-17T09:57:23Z</time>
      </trkpt>
      <trkpt lat="48.68959" lon="1.96492">
        <ele>126</ele>
        <time>2013-08-17T09:57:25Z</time>
      </trkpt>
      <trkpt lat="48.6896" lon="1.96487">
        <ele>126</ele>
        <time>2013-08-17T09:57:27Z</time>
      </trkpt>
      <trkpt lat="48.6896" lon="1.96482">
        <ele>127</ele>
        <time>2013-08-17T09:57:29Z</time>
      </trkpt>
      <trkpt lat="48.68961" lon="1.96478">
        <ele>128</ele>
        <time>2013-08-17T09:57:31Z</time>
      </trkpt>
      <trkpt lat="48.68962" lon="1.96474">
        <ele>130</ele>
        <time>2013-08-17T09:57:33Z</time>
      </trkpt>
      <trkpt lat="48.68962" lon="1.9647">
        <ele>130</ele>
        <time>2013-08-17T09:57:35Z</time>
      </trkpt>
      <trkpt lat="48.68962" lon="1.96466">
        <ele>131</ele>
        <time>2013-08-17T09:57:37Z</time>
      </trkpt>
      <trkpt lat="48.68963" lon="1.96462">
        <ele>132</ele>
        <time>2013-08-17T09:57:39Z</time>
      </trkpt>
      <trkpt lat="48.68964" lon="1.96458">
        <ele>132</ele>
        <time>2013-08-17T09:57:41Z</time>
      </trkpt>
      <trkpt lat="48.68965" lon="1.96453">
        <ele>133</ele>
        <time>2013-08-17T09:57:43Z</time>
      </trkpt>
      <trkpt lat="48.68966" lon="1.96449">
        <ele>133</ele>
        <time>2013-08-17T09:57:45Z</time>
      </trkpt>
      <trkpt lat="48.68967" lon="1.96445">
        <ele>134</ele>
        <time>2013-08-17T09:57:47Z</time>
      </trkpt>
      <trkpt lat="48.68968" lon="1.9644">
        <ele>134</ele>
        <time>2013-08-17T09:57:49Z</time>
      </trkpt>
      <trkpt lat="48.6897" lon="1.96438">
        <ele>134</ele>
        <time>2013-08-17T09:57:51Z</time>
      </trkpt>
      <trkpt lat="48.68972" lon="1.96435">
        <ele>134</ele>
        <time>2013-08-17T09:57:53Z</time>
      </trkpt>
      <trkpt lat="48.68975" lon="1.96432">
        <ele>134</ele>
        <time>2013-08-17T09:57:55Z</time>
      </trkpt>
      <trkpt lat="48.68978" lon="1.96429">
        <ele>134</ele>
        <time>2013-08-17T09:57:57Z</time>
      </trkpt>
      <trkpt lat="48.6898" lon="1.96425">
        <ele>134</ele>
        <time>2013-08-17T09:57:59Z</time>
      </trkpt>
      <trkpt lat="48.68981" lon="1.96423">
        <ele>134</ele>
        <time>2013-08-17T09:58:01Z</time>
      </trkpt>
      <trkpt lat="48.68984" lon="1.96421">
        <ele>134</ele>
        <time>2013-08-17T09:58:03Z</time>
      </trkpt>
      <trkpt lat="48.68987" lon="1.96418">
        <ele>134</ele>
        <time>2013-08-17T09:58:05Z</time>
      </trkpt>
      <trkpt lat="48.6899" lon="1.96416">
        <ele>134</ele>
        <time>2013-08-17T09:58:07Z</time>
      </trkpt>
      <trkpt lat="48.68995" lon="1.96413">
        <ele>134</ele>
        <time>2013-08-17T09:58:10Z</time>
      </trkpt>
      <trkpt lat="48.68998" lon="1.96411">
        <ele>134</ele>
        <time>2013-08-17T09:58:12Z</time>
      </trkpt>
      <trkpt lat="48.69002" lon="1.96413">
        <ele>135</ele>
        <time>2013-08-17T09:58:14Z</time>
      </trkpt>
      <trkpt lat="48.69005" lon="1.96414">
        <ele>137</ele>
        <time>2013-08-17T09:58:16Z</time>
      </trkpt>
      <trkpt lat="48.69007" lon="1.96416">
        <ele>138</ele>
        <time>2013-08-17T09:58:18Z</time>
      </trkpt>
      <trkpt lat="48.69009" lon="1.96418">
        <ele>140</ele>
        <time>2013-08-17T09:58:20Z</time>
      </trkpt>
      <trkpt lat="48.69011" lon="1.96419">
        <ele>141</ele>
        <time>2013-08-17T09:58:22Z</time>
      </trkpt>
      <trkpt lat="48.69015" lon="1.96422">
        <ele>142</ele>
        <time>2013-08-17T09:58:25Z</time>
      </trkpt>
      <trkpt lat="48.69017" lon="1.96423">
        <ele>143</ele>
        <time>2013-08-17T09:58:27Z</time>
      </trkpt>
      <trkpt lat="48.6902" lon="1.96422">
        <ele>143</ele>
        <time>2013-08-17T09:58:29Z</time>
      </trkpt>
      <trkpt lat="48.69023" lon="1.9642">
        <ele>143</ele>
        <time>2013-08-17T09:58:32Z</time>
      </trkpt>
      <trkpt lat="48.69026" lon="1.96418">
        <ele>143</ele>
        <time>2013-08-17T09:58:34Z</time>
      </trkpt>
      <trkpt lat="48.69029" lon="1.96416">
        <ele>143</ele>
        <time>2013-08-17T09:58:36Z</time>
      </trkpt>
      <trkpt lat="48.6903" lon="1.96414">
        <ele>143</ele>
        <time>2013-08-17T09:58:38Z</time>
      </trkpt>
      <trkpt lat="48.69031" lon="1.96412">
        <ele>143</ele>
        <time>2013-08-17T09:58:41Z</time>
      </trkpt>
      <trkpt lat="48.6903" lon="1.9641">
        <ele>144</ele>
        <time>2013-08-17T09:58:47Z</time>
      </trkpt>
      <trkpt lat="48.6903" lon="1.96408">
        <ele>144</ele>
        <time>2013-08-17T09:58:50Z</time>
      </trkpt>
      <trkpt lat="48.69029" lon="1.96405">
        <ele>144</ele>
        <time>2013-08-17T09:58:52Z</time>
      </trkpt>
      <trkpt lat="48.69027" lon="1.96403">
        <ele>144</ele>
        <time>2013-08-17T09:58:54Z</time>
      </trkpt>
      <trkpt lat="48.69025" lon="1.96398">
        <ele>144</ele>
        <time>2013-08-17T09:58:57Z</time>
      </trkpt>
      <trkpt lat="48.69024" lon="1.96395">
        <ele>144</ele>
        <time>2013-08-17T09:58:59Z</time>
      </trkpt>
      <trkpt lat="48.69022" lon="1.96391">
        <ele>144</ele>
        <time>2013-08-17T09:59:01Z</time>
      </trkpt>
      <trkpt lat="48.6902" lon="1.96387">
        <ele>144</ele>
        <time>2013-08-17T09:59:03Z</time>
      </trkpt>
      <trkpt lat="48.69018" lon="1.96385">
        <ele>144</ele>
        <time>2013-08-17T09:59:05Z</time>
      </trkpt>
      <trkpt lat="48.69016" lon="1.96383">
        <ele>144</ele>
        <time>2013-08-17T09:59:07Z</time>
      </trkpt>
      <trkpt lat="48.69015" lon="1.96379">
        <ele>143</ele>
        <time>2013-08-17T09:59:09Z</time>
      </trkpt>
      <trkpt lat="48.69015" lon="1.96374">
        <ele>142</ele>
        <time>2013-08-17T09:59:11Z</time>
      </trkpt>
      <trkpt lat="48.69015" lon="1.9637">
        <ele>142</ele>
        <time>2013-08-17T09:59:13Z</time>
      </trkpt>
      <trkpt lat="48.69015" lon="1.96366">
        <ele>141</ele>
        <time>2013-08-17T09:59:15Z</time>
      </trkpt>
      <trkpt lat="48.69015" lon="1.9636">
        <ele>140</ele>
        <time>2013-08-17T09:59:17Z</time>
      </trkpt>
      <trkpt lat="48.69015" lon="1.96356">
        <ele>140</ele>
        <time>2013-08-17T09:59:19Z</time>
      </trkpt>
      <trkpt lat="48.69015" lon="1.9635">
        <ele>140</ele>
        <time>2013-08-17T09:59:21Z</time>
      </trkpt>
      <trkpt lat="48.69015" lon="1.96346">
        <ele>140</ele>
        <time>2013-08-17T09:59:23Z</time>
      </trkpt>
      <trkpt lat="48.69015" lon="1.96342">
        <ele>140</ele>
        <time>2013-08-17T09:59:25Z</time>
      </trkpt>
      <trkpt lat="48.69014" lon="1.96338">
        <ele>140</ele>
        <time>2013-08-17T09:59:27Z</time>
      </trkpt>
      <trkpt lat="48.69012" lon="1.96334">
        <ele>140</ele>
        <time>2013-08-17T09:59:29Z</time>
      </trkpt>
      <trkpt lat="48.69012" lon="1.9633">
        <ele>140</ele>
        <time>2013-08-17T09:59:31Z</time>
      </trkpt>
      <trkpt lat="48.69012" lon="1.96326">
        <ele>140</ele>
        <time>2013-08-17T09:59:33Z</time>
      </trkpt>
      <trkpt lat="48.69011" lon="1.96321">
        <ele>140</ele>
        <time>2013-08-17T09:59:35Z</time>
      </trkpt>
      <trkpt lat="48.69011" lon="1.96317">
        <ele>140</ele>
        <time>2013-08-17T09:59:37Z</time>
      </trkpt>
      <trkpt lat="48.69011" lon="1.96313">
        <ele>140</ele>
        <time>2013-08-17T09:59:39Z</time>
      </trkpt>
      <trkpt lat="48.69011" lon="1.96309">
        <ele>140</ele>
        <time>2013-08-17T09:59:41Z</time>
      </trkpt>
      <trkpt lat="48.69011" lon="1.96304">
        <ele>140</ele>
        <time>2013-08-17T09:59:43Z</time>
      </trkpt>
      <trkpt lat="48.6901" lon="1.963">
        <ele>140</ele>
        <time>2013-08-17T09:59:45Z</time>
      </trkpt>
      <trkpt lat="48.6901" lon="1.96296">
        <ele>140</ele>
        <time>2013-08-17T09:59:47Z</time>
      </trkpt>
      <trkpt lat="48.6901" lon="1.96292">
        <ele>140</ele>
        <time>2013-08-17T09:59:49Z</time>
      </trkpt>
      <trkpt lat="48.69011" lon="1.96288">
        <ele>140</ele>
        <time>2013-08-17T09:59:51Z</time>
      </trkpt>
      <trkpt lat="48.69011" lon="1.96284">
        <ele>140</ele>
        <time>2013-08-17T09:59:53Z</time>
      </trkpt>
      <trkpt lat="48.69011" lon="1.96282">
        <ele>140</ele>
        <time>2013-08-17T09:59:55Z</time>
      </trkpt>
      <trkpt lat="48.69011" lon="1.96277">
        <ele>140</ele>
        <time>2013-08-17T09:59:58Z</time>
      </trkpt>
      <trkpt lat="48.69012" lon="1.96272">
        <ele>140</ele>
        <time>2013-08-17T10:00:00Z</time>
      </trkpt>
      <trkpt lat="48.69012" lon="1.96267">
        <ele>140</ele>
        <time>2013-08-17T10:00:02Z</time>
      </trkpt>
      <trkpt lat="48.69014" lon="1.96261">
        <ele>140</ele>
        <time>2013-08-17T10:00:05Z</time>
      </trkpt>
      <trkpt lat="48.69016" lon="1.96257">
        <ele>140</ele>
        <time>2013-08-17T10:00:07Z</time>
      </trkpt>
      <trkpt lat="48.69019" lon="1.96253">
        <ele>140</ele>
        <time>2013-08-17T10:00:09Z</time>
      </trkpt>
      <trkpt lat="48.6902" lon="1.96248">
        <ele>140</ele>
        <time>2013-08-17T10:00:11Z</time>
      </trkpt>
      <trkpt lat="48.69022" lon="1.96245">
        <ele>140</ele>
        <time>2013-08-17T10:00:13Z</time>
      </trkpt>
      <trkpt lat="48.69024" lon="1.9624">
        <ele>140</ele>
        <time>2013-08-17T10:00:15Z</time>
      </trkpt>
      <trkpt lat="48.69026" lon="1.96238">
        <ele>140</ele>
        <time>2013-08-17T10:00:17Z</time>
      </trkpt>
      <trkpt lat="48.69028" lon="1.96236">
        <ele>140</ele>
        <time>2013-08-17T10:00:19Z</time>
      </trkpt>
      <trkpt lat="48.6903" lon="1.96232">
        <ele>140</ele>
        <time>2013-08-17T10:00:21Z</time>
      </trkpt>
      <trkpt lat="48.69033" lon="1.96229">
        <ele>140</ele>
        <time>2013-08-17T10:00:23Z</time>
      </trkpt>
      <trkpt lat="48.69036" lon="1.96225">
        <ele>140</ele>
        <time>2013-08-17T10:00:26Z</time>
      </trkpt>
      <trkpt lat="48.69039" lon="1.96219">
        <ele>140</ele>
        <time>2013-08-17T10:00:29Z</time>
      </trkpt>
      <trkpt lat="48.69041" lon="1.96215">
        <ele>140</ele>
        <time>2013-08-17T10:00:31Z</time>
      </trkpt>
      <trkpt lat="48.69042" lon="1.96211">
        <ele>140</ele>
        <time>2013-08-17T10:00:33Z</time>
      </trkpt>
      <trkpt lat="48.69043" lon="1.96207">
        <ele>140</ele>
        <time>2013-08-17T10:00:35Z</time>
      </trkpt>
      <trkpt lat="48.69043" lon="1.96202">
        <ele>140</ele>
        <time>2013-08-17T10:00:37Z</time>
      </trkpt>
      <trkpt lat="48.69043" lon="1.96197">
        <ele>140</ele>
        <time>2013-08-17T10:00:39Z</time>
      </trkpt>
      <trkpt lat="48.69042" lon="1.96191">
        <ele>140</ele>
        <time>2013-08-17T10:00:41Z</time>
      </trkpt>
      <trkpt lat="48.69041" lon="1.96186">
        <ele>141</ele>
        <time>2013-08-17T10:00:43Z</time>
      </trkpt>
      <trkpt lat="48.69039" lon="1.96182">
        <ele>143</ele>
        <time>2013-08-17T10:00:45Z</time>
      </trkpt>
      <trkpt lat="48.69038" lon="1.96177">
        <ele>144</ele>
        <time>2013-08-17T10:00:47Z</time>
      </trkpt>
      <trkpt lat="48.69038" lon="1.96173">
        <ele>145</ele>
        <time>2013-08-17T10:00:49Z</time>
      </trkpt>
      <trkpt lat="48.69037" lon="1.9617">
        <ele>145</ele>
        <time>2013-08-17T10:00:51Z</time>
      </trkpt>
      <trkpt lat="48.69035" lon="1.96166">
        <ele>146</ele>
        <time>2013-08-17T10:00:53Z</time>
      </trkpt>
      <trkpt lat="48.69035" lon="1.96161">
        <ele>146</ele>
        <time>2013-08-17T10:00:55Z</time>
      </trkpt>
      <trkpt lat="48.69035" lon="1.96159">
        <ele>147</ele>
        <time>2013-08-17T10:00:57Z</time>
      </trkpt>
      <trkpt lat="48.69035" lon="1.96154">
        <ele>150</ele>
        <time>2013-08-17T10:01:00Z</time>
      </trkpt>
      <trkpt lat="48.69035" lon="1.9615">
        <ele>152</ele>
        <time>2013-08-17T10:01:02Z</time>
      </trkpt>
      <trkpt lat="48.69035" lon="1.96143">
        <ele>154</ele>
        <time>2013-08-17T10:01:05Z</time>
      </trkpt>
      <trkpt lat="48.69035" lon="1.96139">
        <ele>154</ele>
        <time>2013-08-17T10:01:07Z</time>
      </trkpt>
      <trkpt lat="48.69035" lon="1.96135">
        <ele>155</ele>
        <time>2013-08-17T10:01:09Z</time>
      </trkpt>
      <trkpt lat="48.69034" lon="1.96131">
        <ele>155</ele>
        <time>2013-08-17T10:01:11Z</time>
      </trkpt>
      <trkpt lat="48.69034" lon="1.96126">
        <ele>156</ele>
        <time>2013-08-17T10:01:13Z</time>
      </trkpt>
      <trkpt lat="48.69034" lon="1.96122">
        <ele>156</ele>
        <time>2013-08-17T10:01:15Z</time>
      </trkpt>
      <trkpt lat="48.69035" lon="1.96117">
        <ele>156</ele>
        <time>2013-08-17T10:01:17Z</time>
      </trkpt>
      <trkpt lat="48.69034" lon="1.96113">
        <ele>156</ele>
        <time>2013-08-17T10:01:19Z</time>
      </trkpt>
      <trkpt lat="48.69035" lon="1.96108">
        <ele>157</ele>
        <time>2013-08-17T10:01:21Z</time>
      </trkpt>
      <trkpt lat="48.69035" lon="1.96103">
        <ele>157</ele>
        <time>2013-08-17T10:01:24Z</time>
      </trkpt>
      <trkpt lat="48.69034" lon="1.96099">
        <ele>158</ele>
        <time>2013-08-17T10:01:26Z</time>
      </trkpt>
      <trkpt lat="48.69032" lon="1.96095">
        <ele>159</ele>
        <time>2013-08-17T10:01:28Z</time>
      </trkpt>
      <trkpt lat="48.6903" lon="1.96093">
        <ele>160</ele>
        <time>2013-08-17T10:01:30Z</time>
      </trkpt>
      <trkpt lat="48.69027" lon="1.9609">
        <ele>160</ele>
        <time>2013-08-17T10:01:32Z</time>
      </trkpt>
      <trkpt lat="48.69024" lon="1.96089">
        <ele>161</ele>
        <time>2013-08-17T10:01:35Z</time>
      </trkpt>
      <trkpt lat="48.69022" lon="1.96087">
        <ele>161</ele>
        <time>2013-08-17T10:01:37Z</time>
      </trkpt>
      <trkpt lat="48.6902" lon="1.96085">
        <ele>161</ele>
        <time>2013-08-17T10:01:39Z</time>
      </trkpt>
      <trkpt lat="48.69017" lon="1.96082">
        <ele>161</ele>
        <time>2013-08-17T10:01:41Z</time>
      </trkpt>
      <trkpt lat="48.69015" lon="1.96081">
        <ele>161</ele>
        <time>2013-08-17T10:01:43Z</time>
      </trkpt>
      <trkpt lat="48.69012" lon="1.96079">
        <ele>161</ele>
        <time>2013-08-17T10:01:45Z</time>
      </trkpt>
      <trkpt lat="48.69008" lon="1.96075">
        <ele>161</ele>
        <time>2013-08-17T10:01:49Z</time>
      </trkpt>
      <trkpt lat="48.69006" lon="1.96072">
        <ele>161</ele>
        <time>2013-08-17T10:01:51Z</time>
      </trkpt>
      <trkpt lat="48.69004" lon="1.96069">
        <ele>161</ele>
        <time>2013-08-17T10:01:53Z</time>
      </trkpt>
      <trkpt lat="48.69002" lon="1.96067">
        <ele>161</ele>
        <time>2013-08-17T10:01:55Z</time>
      </trkpt>
      <trkpt lat="48.68998" lon="1.9606">
        <ele>159</ele>
        <time>2013-08-17T10:01:59Z</time>
      </trkpt>
      <trkpt lat="48.68994" lon="1.96056">
        <ele>159</ele>
        <time>2013-08-17T10:02:02Z</time>
      </trkpt>
      <trkpt lat="48.68991" lon="1.96054">
        <ele>158</ele>
        <time>2013-08-17T10:02:04Z</time>
      </trkpt>
      <trkpt lat="48.68987" lon="1.96051">
        <ele>158</ele>
        <time>2013-08-17T10:02:07Z</time>
      </trkpt>
      <trkpt lat="48.68984" lon="1.96049">
        <ele>158</ele>
        <time>2013-08-17T10:02:09Z</time>
      </trkpt>
      <trkpt lat="48.68981" lon="1.96047">
        <ele>157</ele>
        <time>2013-08-17T10:02:11Z</time>
      </trkpt>
      <trkpt lat="48.68979" lon="1.96044">
        <ele>156</ele>
        <time>2013-08-17T10:02:13Z</time>
      </trkpt>
      <trkpt lat="48.68977" lon="1.96043">
        <ele>154</ele>
        <time>2013-08-17T10:02:15Z</time>
      </trkpt>
      <trkpt lat="48.68974" lon="1.96041">
        <ele>154</ele>
        <time>2013-08-17T10:02:17Z</time>
      </trkpt>
      <trkpt lat="48.68972" lon="1.96038">
        <ele>153</ele>
        <time>2013-08-17T10:02:19Z</time>
      </trkpt>
      <trkpt lat="48.68969" lon="1.96036">
        <ele>151</ele>
        <time>2013-08-17T10:02:21Z</time>
      </trkpt>
      <trkpt lat="48.68966" lon="1.96034">
        <ele>151</ele>
        <time>2013-08-17T10:02:23Z</time>
      </trkpt>
      <trkpt lat="48.68963" lon="1.96031">
        <ele>151</ele>
        <time>2013-08-17T10:02:25Z</time>
      </trkpt>
      <trkpt lat="48.6896" lon="1.96029">
        <ele>151</ele>
        <time>2013-08-17T10:02:27Z</time>
      </trkpt>
      <trkpt lat="48.68958" lon="1.96027">
        <ele>151</ele>
        <time>2013-08-17T10:02:29Z</time>
      </trkpt>
      <trkpt lat="48.68955" lon="1.96025">
        <ele>151</ele>
        <time>2013-08-17T10:02:31Z</time>
      </trkpt>
      <trkpt lat="48.68952" lon="1.96022">
        <ele>151</ele>
        <time>2013-08-17T10:02:33Z</time>
      </trkpt>
      <trkpt lat="48.68948" lon="1.9602">
        <ele>151</ele>
        <time>2013-08-17T10:02:36Z</time>
      </trkpt>
      <trkpt lat="48.68945" lon="1.96018">
        <ele>151</ele>
        <time>2013-08-17T10:02:38Z</time>
      </trkpt>
      <trkpt lat="48.68942" lon="1.96016">
        <ele>151</ele>
        <time>2013-08-17T10:02:40Z</time>
      </trkpt>
      <trkpt lat="48.6894" lon="1.96013">
        <ele>151</ele>
        <time>2013-08-17T10:02:42Z</time>
      </trkpt>
      <trkpt lat="48.68938" lon="1.9601">
        <ele>151</ele>
        <time>2013-08-17T10:02:44Z</time>
      </trkpt>
      <trkpt lat="48.68936" lon="1.96007">
        <ele>151</ele>
        <time>2013-08-17T10:02:46Z</time>
      </trkpt>
      <trkpt lat="48.68934" lon="1.96004">
        <ele>151</ele>
        <time>2013-08-17T10:02:48Z</time>
      </trkpt>
      <trkpt lat="48.68931" lon="1.96002">
        <ele>151</ele>
        <time>2013-08-17T10:02:50Z</time>
      </trkpt>
      <trkpt lat="48.68928" lon="1.95999">
        <ele>151</ele>
        <time>2013-08-17T10:02:52Z</time>
      </trkpt>
      <trkpt lat="48.68925" lon="1.95997">
        <ele>151</ele>
        <time>2013-08-17T10:02:54Z</time>
      </trkpt>
      <trkpt lat="48.68922" lon="1.95994">
        <ele>151</ele>
        <time>2013-08-17T10:02:56Z</time>
      </trkpt>
      <trkpt lat="48.68919" lon="1.95991">
        <ele>151</ele>
        <time>2013-08-17T10:02:58Z</time>
      </trkpt>
      <trkpt lat="48.68915" lon="1.95989">
        <ele>151</ele>
        <time>2013-08-17T10:03:01Z</time>
      </trkpt>
      <trkpt lat="48.68912" lon="1.95986">
        <ele>151</ele>
        <time>2013-08-17T10:03:03Z</time>
      </trkpt>
      <trkpt lat="48.68909" lon="1.95983">
        <ele>151</ele>
        <time>2013-08-17T10:03:05Z</time>
      </trkpt>
      <trkpt lat="48.68908" lon="1.95981">
        <ele>151</ele>
        <time>2013-08-17T10:03:07Z</time>
      </trkpt>
      <trkpt lat="48.68905" lon="1.95978">
        <ele>151</ele>
        <time>2013-08-17T10:03:09Z</time>
      </trkpt>
      <trkpt lat="48.68903" lon="1.95976">
        <ele>151</ele>
        <time>2013-08-17T10:03:11Z</time>
      </trkpt>
      <trkpt lat="48.68901" lon="1.95974">
        <ele>151</ele>
        <time>2013-08-17T10:03:13Z</time>
      </trkpt>
      <trkpt lat="48.68899" lon="1.95972">
        <ele>151</ele>
        <time>2013-08-17T10:03:15Z</time>
      </trkpt>
      <trkpt lat="48.68896" lon="1.95968">
        <ele>151</ele>
        <time>2013-08-17T10:03:17Z</time>
      </trkpt>
      <trkpt lat="48.68894" lon="1.95966">
        <ele>151</ele>
        <time>2013-08-17T10:03:19Z</time>
      </trkpt>
      <trkpt lat="48.68888" lon="1.95966">
        <ele>151</ele>
        <time>2013-08-17T10:03:21Z</time>
      </trkpt>
      <trkpt lat="48.68885" lon="1.95963">
        <ele>153</ele>
        <time>2013-08-17T10:03:24Z</time>
      </trkpt>
      <trkpt lat="48.6888" lon="1.9596">
        <ele>156</ele>
        <time>2013-08-17T10:03:27Z</time>
      </trkpt>
      <trkpt lat="48.68877" lon="1.95958">
        <ele>158</ele>
        <time>2013-08-17T10:03:29Z</time>
      </trkpt>
      <trkpt lat="48.68874" lon="1.95956">
        <ele>159</ele>
        <time>2013-08-17T10:03:32Z</time>
      </trkpt>
      <trkpt lat="48.68872" lon="1.95954">
        <ele>159</ele>
        <time>2013-08-17T10:03:34Z</time>
      </trkpt>
      <trkpt lat="48.68869" lon="1.95949">
        <ele>159</ele>
        <time>2013-08-17T10:03:37Z</time>
      </trkpt>
      <trkpt lat="48.68865" lon="1.95947">
        <ele>159</ele>
        <time>2013-08-17T10:03:39Z</time>
      </trkpt>
      <trkpt lat="48.68862" lon="1.95945">
        <ele>159</ele>
        <time>2013-08-17T10:03:41Z</time>
      </trkpt>
      <trkpt lat="48.68859" lon="1.95943">
        <ele>160</ele>
        <time>2013-08-17T10:03:43Z</time>
      </trkpt>
      <trkpt lat="48.68856" lon="1.9594">
        <ele>161</ele>
        <time>2013-08-17T10:03:45Z</time>
      </trkpt>
      <trkpt lat="48.68852" lon="1.95937">
        <ele>162</ele>
        <time>2013-08-17T10:03:48Z</time>
      </trkpt>
      <trkpt lat="48.6885" lon="1.95934">
        <ele>162</ele>
        <time>2013-08-17T10:03:50Z</time>
      </trkpt>
      <trkpt lat="48.68847" lon="1.95931">
        <ele>163</ele>
        <time>2013-08-17T10:03:52Z</time>
      </trkpt>
      <trkpt lat="48.68845" lon="1.95928">
        <ele>163</ele>
        <time>2013-08-17T10:03:55Z</time>
      </trkpt>
      <trkpt lat="48.68843" lon="1.95926">
        <ele>163</ele>
        <time>2013-08-17T10:03:57Z</time>
      </trkpt>
      <trkpt lat="48.6884" lon="1.95923">
        <ele>163</ele>
        <time>2013-08-17T10:03:59Z</time>
      </trkpt>
      <trkpt lat="48.68837" lon="1.95923">
        <ele>163</ele>
        <time>2013-08-17T10:04:01Z</time>
      </trkpt>
      <trkpt lat="48.68833" lon="1.95921">
        <ele>163</ele>
        <time>2013-08-17T10:04:03Z</time>
      </trkpt>
      <trkpt lat="48.6883" lon="1.95918">
        <ele>163</ele>
        <time>2013-08-17T10:04:05Z</time>
      </trkpt>
      <trkpt lat="48.68827" lon="1.95915">
        <ele>164</ele>
        <time>2013-08-17T10:04:07Z</time>
      </trkpt>
      <trkpt lat="48.68824" lon="1.95912">
        <ele>164</ele>
        <time>2013-08-17T10:04:09Z</time>
      </trkpt>
      <trkpt lat="48.68821" lon="1.9591">
        <ele>164</ele>
        <time>2013-08-17T10:04:11Z</time>
      </trkpt>
      <trkpt lat="48.68819" lon="1.95906">
        <ele>164</ele>
        <time>2013-08-17T10:04:13Z</time>
      </trkpt>
      <trkpt lat="48.68816" lon="1.95904">
        <ele>164</ele>
        <time>2013-08-17T10:04:15Z</time>
      </trkpt>
      <trkpt lat="48.68813" lon="1.95901">
        <ele>164</ele>
        <time>2013-08-17T10:04:17Z</time>
      </trkpt>
      <trkpt lat="48.6881" lon="1.95897">
        <ele>164</ele>
        <time>2013-08-17T10:04:20Z</time>
      </trkpt>
      <trkpt lat="48.68807" lon="1.95895">
        <ele>164</ele>
        <time>2013-08-17T10:04:22Z</time>
      </trkpt>
      <trkpt lat="48.68805" lon="1.95891">
        <ele>164</ele>
        <time>2013-08-17T10:04:24Z</time>
      </trkpt>
      <trkpt lat="48.68802" lon="1.95889">
        <ele>164</ele>
        <time>2013-08-17T10:04:26Z</time>
      </trkpt>
      <trkpt lat="48.688" lon="1.95885">
        <ele>164</ele>
        <time>2013-08-17T10:04:29Z</time>
      </trkpt>
      <trkpt lat="48.68797" lon="1.95884">
        <ele>164</ele>
        <time>2013-08-17T10:04:31Z</time>
      </trkpt>
      <trkpt lat="48.68793" lon="1.95881">
        <ele>164</ele>
        <time>2013-08-17T10:04:34Z</time>
      </trkpt>
      <trkpt lat="48.68791" lon="1.95879">
        <ele>163</ele>
        <time>2013-08-17T10:04:36Z</time>
      </trkpt>
      <trkpt lat="48.68788" lon="1.95876">
        <ele>163</ele>
        <time>2013-08-17T10:04:38Z</time>
      </trkpt>
      <trkpt lat="48.68784" lon="1.95873">
        <ele>162</ele>
        <time>2013-08-17T10:04:41Z</time>
      </trkpt>
      <trkpt lat="48.68781" lon="1.9587">
        <ele>161</ele>
        <time>2013-08-17T10:04:43Z</time>
      </trkpt>
      <trkpt lat="48.68777" lon="1.95866">
        <ele>161</ele>
        <time>2013-08-17T10:04:46Z</time>
      </trkpt>
      <trkpt lat="48.68775" lon="1.95864">
        <ele>161</ele>
        <time>2013-08-17T10:04:48Z</time>
      </trkpt>
      <trkpt lat="48.68771" lon="1.95863">
        <ele>161</ele>
        <time>2013-08-17T10:04:50Z</time>
      </trkpt>
      <trkpt lat="48.68768" lon="1.95861">
        <ele>161</ele>
        <time>2013-08-17T10:04:52Z</time>
      </trkpt>
      <trkpt lat="48.68766" lon="1.95858">
        <ele>161</ele>
        <time>2013-08-17T10:04:54Z</time>
      </trkpt>
      <trkpt lat="48.68762" lon="1.95853">
        <ele>161</ele>
        <time>2013-08-17T10:04:57Z</time>
      </trkpt>
      <trkpt lat="48.68759" lon="1.95851">
        <ele>161</ele>
        <time>2013-08-17T10:04:59Z</time>
      </trkpt>
      <trkpt lat="48.68756" lon="1.95848">
        <ele>161</ele>
        <time>2013-08-17T10:05:01Z</time>
      </trkpt>
      <trkpt lat="48.68753" lon="1.95845">
        <ele>161</ele>
        <time>2013-08-17T10:05:03Z</time>
      </trkpt>
      <trkpt lat="48.6875" lon="1.95842">
        <ele>161</ele>
        <time>2013-08-17T10:05:05Z</time>
      </trkpt>
      <trkpt lat="48.68748" lon="1.9584">
        <ele>161</ele>
        <time>2013-08-17T10:05:07Z</time>
      </trkpt>
      <trkpt lat="48.68745" lon="1.95837">
        <ele>160</ele>
        <time>2013-08-17T10:05:09Z</time>
      </trkpt>
      <trkpt lat="48.68742" lon="1.95835">
        <ele>160</ele>
        <time>2013-08-17T10:05:11Z</time>
      </trkpt>
      <trkpt lat="48.68738" lon="1.95834">
        <ele>160</ele>
        <time>2013-08-17T10:05:13Z</time>
      </trkpt>
      <trkpt lat="48.68734" lon="1.95833">
        <ele>160</ele>
        <time>2013-08-17T10:05:15Z</time>
      </trkpt>
      <trkpt lat="48.68731" lon="1.95831">
        <ele>160</ele>
        <time>2013-08-17T10:05:17Z</time>
      </trkpt>
      <trkpt lat="48.68729" lon="1.95828">
        <ele>160</ele>
        <time>2013-08-17T10:05:19Z</time>
      </trkpt>
      <trkpt lat="48.68726" lon="1.95826">
        <ele>160</ele>
        <time>2013-08-17T10:05:21Z</time>
      </trkpt>
      <trkpt lat="48.68724" lon="1.95824">
        <ele>160</ele>
        <time>2013-08-17T10:05:23Z</time>
      </trkpt>
      <trkpt lat="48.68721" lon="1.95821">
        <ele>160</ele>
        <time>2013-08-17T10:05:25Z</time>
      </trkpt>
      <trkpt lat="48.68719" lon="1.95819">
        <ele>160</ele>
        <time>2013-08-17T10:05:27Z</time>
      </trkpt>
      <trkpt lat="48.68715" lon="1.95815">
        <ele>160</ele>
        <time>2013-08-17T10:05:30Z</time>
      </trkpt>
      <trkpt lat="48.68712" lon="1.95813">
        <ele>160</ele>
        <time>2013-08-17T10:05:32Z</time>
      </trkpt>
      <trkpt lat="48.68709" lon="1.95811">
        <ele>160</ele>
        <time>2013-08-17T10:05:34Z</time>
      </trkpt>
      <trkpt lat="48.68706" lon="1.95808">
        <ele>160</ele>
        <time>2013-08-17T10:05:36Z</time>
      </trkpt>
      <trkpt lat="48.68703" lon="1.95805">
        <ele>160</ele>
        <time>2013-08-17T10:05:38Z</time>
      </trkpt>
      <trkpt lat="48.687" lon="1.95802">
        <ele>160</ele>
        <time>2013-08-17T10:05:40Z</time>
      </trkpt>
      <trkpt lat="48.68697" lon="1.958">
        <ele>160</ele>
        <time>2013-08-17T10:05:42Z</time>
      </trkpt>
      <trkpt lat="48.68694" lon="1.95798">
        <ele>160</ele>
        <time>2013-08-17T10:05:44Z</time>
      </trkpt>
      <trkpt lat="48.68691" lon="1.95795">
        <ele>160</ele>
        <time>2013-08-17T10:05:46Z</time>
      </trkpt>
      <trkpt lat="48.68689" lon="1.95792">
        <ele>160</ele>
        <time>2013-08-17T10:05:48Z</time>
      </trkpt>
      <trkpt lat="48.68685" lon="1.95788">
        <ele>160</ele>
        <time>2013-08-17T10:05:51Z</time>
      </trkpt>
      <trkpt lat="48.6868" lon="1.95783">
        <ele>160</ele>
        <time>2013-08-17T10:05:55Z</time>
      </trkpt>
      <trkpt lat="48.68677" lon="1.95781">
        <ele>160</ele>
        <time>2013-08-17T10:05:57Z</time>
      </trkpt>
      <trkpt lat="48.68674" lon="1.95779">
        <ele>160</ele>
        <time>2013-08-17T10:05:59Z</time>
      </trkpt>
      <trkpt lat="48.68672" lon="1.95777">
        <ele>160</ele>
        <time>2013-08-17T10:06:01Z</time>
      </trkpt>
      <trkpt lat="48.68669" lon="1.95775">
        <ele>161</ele>
        <time>2013-08-17T10:06:03Z</time>
      </trkpt>
      <trkpt lat="48.68666" lon="1.95773">
        <ele>161</ele>
        <time>2013-08-17T10:06:05Z</time>
      </trkpt>
      <trkpt lat="48.68662" lon="1.95773">
        <ele>162</ele>
        <time>2013-08-17T10:06:07Z</time>
      </trkpt>
      <trkpt lat="48.6866" lon="1.9577">
        <ele>164</ele>
        <time>2013-08-17T10:06:09Z</time>
      </trkpt>
      <trkpt lat="48.68657" lon="1.95768">
        <ele>165</ele>
        <time>2013-08-17T10:06:11Z</time>
      </trkpt>
      <trkpt lat="48.68653" lon="1.95763">
        <ele>165</ele>
        <time>2013-08-17T10:06:14Z</time>
      </trkpt>
      <trkpt lat="48.6865" lon="1.95759">
        <ele>165</ele>
        <time>2013-08-17T10:06:17Z</time>
      </trkpt>
      <trkpt lat="48.68648" lon="1.95756">
        <ele>165</ele>
        <time>2013-08-17T10:06:19Z</time>
      </trkpt>
      <trkpt lat="48.68645" lon="1.95754">
        <ele>165</ele>
        <time>2013-08-17T10:06:21Z</time>
      </trkpt>
      <trkpt lat="48.68643" lon="1.95751">
        <ele>165</ele>
        <time>2013-08-17T10:06:23Z</time>
      </trkpt>
      <trkpt lat="48.68639" lon="1.95747">
        <ele>164</ele>
        <time>2013-08-17T10:06:26Z</time>
      </trkpt>
      <trkpt lat="48.68636" lon="1.95745">
        <ele>163</ele>
        <time>2013-08-17T10:06:28Z</time>
      </trkpt>
      <trkpt lat="48.68634" lon="1.95745">
        <ele>163</ele>
        <time>2013-08-17T10:06:30Z</time>
      </trkpt>
      <trkpt lat="48.68632" lon="1.95743">
        <ele>163</ele>
        <time>2013-08-17T10:06:32Z</time>
      </trkpt>
      <trkpt lat="48.68629" lon="1.95741">
        <ele>163</ele>
        <time>2013-08-17T10:06:34Z</time>
      </trkpt>
      <trkpt lat="48.68626" lon="1.95738">
        <ele>163</ele>
        <time>2013-08-17T10:06:36Z</time>
      </trkpt>
      <trkpt lat="48.68624" lon="1.95735">
        <ele>163</ele>
        <time>2013-08-17T10:06:38Z</time>
      </trkpt>
      <trkpt lat="48.68622" lon="1.95732">
        <ele>162</ele>
        <time>2013-08-17T10:06:40Z</time>
      </trkpt>
      <trkpt lat="48.68619" lon="1.95729">
        <ele>162</ele>
        <time>2013-08-17T10:06:42Z</time>
      </trkpt>
      <trkpt lat="48.68616" lon="1.95726">
        <ele>162</ele>
        <time>2013-08-17T10:06:44Z</time>
      </trkpt>
      <trkpt lat="48.68613" lon="1.95724">
        <ele>162</ele>
        <time>2013-08-17T10:06:46Z</time>
      </trkpt>
      <trkpt lat="48.6861" lon="1.95721">
        <ele>162</ele>
        <time>2013-08-17T10:06:48Z</time>
      </trkpt>
      <trkpt lat="48.68606" lon="1.95719">
        <ele>162</ele>
        <time>2013-08-17T10:06:51Z</time>
      </trkpt>
      <trkpt lat="48.68603" lon="1.95717">
        <ele>162</ele>
        <time>2013-08-17T10:06:53Z</time>
      </trkpt>
      <trkpt lat="48.686" lon="1.95714">
        <ele>162</ele>
        <time>2013-08-17T10:06:55Z</time>
      </trkpt>
      <trkpt lat="48.68598" lon="1.95712">
        <ele>162</ele>
        <time>2013-08-17T10:06:57Z</time>
      </trkpt>
      <trkpt lat="48.68595" lon="1.9571">
        <ele>162</ele>
        <time>2013-08-17T10:06:59Z</time>
      </trkpt>
      <trkpt lat="48.68592" lon="1.95707">
        <ele>162</ele>
        <time>2013-08-17T10:07:01Z</time>
      </trkpt>
      <trkpt lat="48.68589" lon="1.95704">
        <ele>161</ele>
        <time>2013-08-17T10:07:03Z</time>
      </trkpt>
      <trkpt lat="48.68587" lon="1.95703">
        <ele>160</ele>
        <time>2013-08-17T10:07:05Z</time>
      </trkpt>
      <trkpt lat="48.68584" lon="1.95701">
        <ele>160</ele>
        <time>2013-08-17T10:07:07Z</time>
      </trkpt>
      <trkpt lat="48.68582" lon="1.95698">
        <ele>160</ele>
        <time>2013-08-17T10:07:09Z</time>
      </trkpt>
      <trkpt lat="48.68579" lon="1.95696">
        <ele>160</ele>
        <time>2013-08-17T10:07:11Z</time>
      </trkpt>
      <trkpt lat="48.68576" lon="1.95693">
        <ele>160</ele>
        <time>2013-08-17T10:07:13Z</time>
      </trkpt>
      <trkpt lat="48.68574" lon="1.95691">
        <ele>159</ele>
        <time>2013-08-17T10:07:15Z</time>
      </trkpt>
      <trkpt lat="48.6857" lon="1.95687">
        <ele>157</ele>
        <time>2013-08-17T10:07:18Z</time>
      </trkpt>
      <trkpt lat="48.68568" lon="1.95685">
        <ele>157</ele>
        <time>2013-08-17T10:07:20Z</time>
      </trkpt>
      <trkpt lat="48.68563" lon="1.95681">
        <ele>156</ele>
        <time>2013-08-17T10:07:24Z</time>
      </trkpt>
      <trkpt lat="48.6856" lon="1.9568">
        <ele>156</ele>
        <time>2013-08-17T10:07:26Z</time>
      </trkpt>
      <trkpt lat="48.68557" lon="1.95677">
        <ele>156</ele>
        <time>2013-08-17T10:07:28Z</time>
      </trkpt>
      <trkpt lat="48.68555" lon="1.95674">
        <ele>155</ele>
        <time>2013-08-17T10:07:30Z</time>
      </trkpt>
      <trkpt lat="48.68552" lon="1.95671">
        <ele>154</ele>
        <time>2013-08-17T10:07:32Z</time>
      </trkpt>
      <trkpt lat="48.68549" lon="1.95668">
        <ele>154</ele>
        <time>2013-08-17T10:07:34Z</time>
      </trkpt>
      <trkpt lat="48.68547" lon="1.95667">
        <ele>154</ele>
        <time>2013-08-17T10:07:36Z</time>
      </trkpt>
      <trkpt lat="48.68544" lon="1.95663">
        <ele>154</ele>
        <time>2013-08-17T10:07:38Z</time>
      </trkpt>
      <trkpt lat="48.6854" lon="1.95661">
        <ele>154</ele>
        <time>2013-08-17T10:07:40Z</time>
      </trkpt>
      <trkpt lat="48.68537" lon="1.95659">
        <ele>154</ele>
        <time>2013-08-17T10:07:42Z</time>
      </trkpt>
      <trkpt lat="48.68534" lon="1.95658">
        <ele>154</ele>
        <time>2013-08-17T10:07:44Z</time>
      </trkpt>
      <trkpt lat="48.68531" lon="1.95656">
        <ele>154</ele>
        <time>2013-08-17T10:07:46Z</time>
      </trkpt>
      <trkpt lat="48.68528" lon="1.95654">
        <ele>154</ele>
        <time>2013-08-17T10:07:48Z</time>
      </trkpt>
      <trkpt lat="48.68524" lon="1.95652">
        <ele>154</ele>
        <time>2013-08-17T10:07:50Z</time>
      </trkpt>
      <trkpt lat="48.68521" lon="1.95649">
        <ele>154</ele>
        <time>2013-08-17T10:07:52Z</time>
      </trkpt>
      <trkpt lat="48.68518" lon="1.95646">
        <ele>154</ele>
        <time>2013-08-17T10:07:54Z</time>
      </trkpt>
      <trkpt lat="48.68515" lon="1.95644">
        <ele>154</ele>
        <time>2013-08-17T10:07:56Z</time>
      </trkpt>
      <trkpt lat="48.68511" lon="1.95642">
        <ele>155</ele>
        <time>2013-08-17T10:07:58Z</time>
      </trkpt>
      <trkpt lat="48.68508" lon="1.9564">
        <ele>155</ele>
        <time>2013-08-17T10:08:00Z</time>
      </trkpt>
      <trkpt lat="48.68506" lon="1.95637">
        <ele>155</ele>
        <time>2013-08-17T10:08:02Z</time>
      </trkpt>
      <trkpt lat="48.68504" lon="1.95635">
        <ele>155</ele>
        <time>2013-08-17T10:08:04Z</time>
      </trkpt>
      <trkpt lat="48.68501" lon="1.95632">
        <ele>155</ele>
        <time>2013-08-17T10:08:06Z</time>
      </trkpt>
      <trkpt lat="48.68498" lon="1.95628">
        <ele>155</ele>
        <time>2013-08-17T10:08:08Z</time>
      </trkpt>
      <trkpt lat="48.68496" lon="1.95625">
        <ele>155</ele>
        <time>2013-08-17T10:08:10Z</time>
      </trkpt>
      <trkpt lat="48.68492" lon="1.95623">
        <ele>155</ele>
        <time>2013-08-17T10:08:12Z</time>
      </trkpt>
      <trkpt lat="48.68489" lon="1.95621">
        <ele>155</ele>
        <time>2013-08-17T10:08:14Z</time>
      </trkpt>
      <trkpt lat="48.68487" lon="1.95618">
        <ele>155</ele>
        <time>2013-08-17T10:08:16Z</time>
      </trkpt>
      <trkpt lat="48.68484" lon="1.95616">
        <ele>155</ele>
        <time>2013-08-17T10:08:18Z</time>
      </trkpt>
      <trkpt lat="48.68482" lon="1.95613">
        <ele>155</ele>
        <time>2013-08-17T10:08:20Z</time>
      </trkpt>
      <trkpt lat="48.68478" lon="1.95608">
        <ele>155</ele>
        <time>2013-08-17T10:08:23Z</time>
      </trkpt>
      <trkpt lat="48.68475" lon="1.95606">
        <ele>155</ele>
        <time>2013-08-17T10:08:25Z</time>
      </trkpt>
      <trkpt lat="48.68473" lon="1.95603">
        <ele>155</ele>
        <time>2013-08-17T10:08:27Z</time>
      </trkpt>
      <trkpt lat="48.6847" lon="1.956">
        <ele>155</ele>
        <time>2013-08-17T10:08:29Z</time>
      </trkpt>
      <trkpt lat="48.68467" lon="1.95598">
        <ele>155</ele>
        <time>2013-08-17T10:08:31Z</time>
      </trkpt>
      <trkpt lat="48.68461" lon="1.95597">
        <ele>155</ele>
        <time>2013-08-17T10:08:34Z</time>
      </trkpt>
      <trkpt lat="48.68459" lon="1.95595">
        <ele>155</ele>
        <time>2013-08-17T10:08:36Z</time>
      </trkpt>
      <trkpt lat="48.68455" lon="1.9559">
        <ele>155</ele>
        <time>2013-08-17T10:08:39Z</time>
      </trkpt>
      <trkpt lat="48.68453" lon="1.95587">
        <ele>155</ele>
        <time>2013-08-17T10:08:41Z</time>
      </trkpt>
      <trkpt lat="48.68449" lon="1.95583">
        <ele>155</ele>
        <time>2013-08-17T10:08:44Z</time>
      </trkpt>
      <trkpt lat="48.68446" lon="1.95581">
        <ele>155</ele>
        <time>2013-08-17T10:08:46Z</time>
      </trkpt>
      <trkpt lat="48.68443" lon="1.95577">
        <ele>155</ele>
        <time>2013-08-17T10:08:48Z</time>
      </trkpt>
      <trkpt lat="48.68441" lon="1.95575">
        <ele>155</ele>
        <time>2013-08-17T10:08:50Z</time>
      </trkpt>
      <trkpt lat="48.68438" lon="1.95572">
        <ele>155</ele>
        <time>2013-08-17T10:08:52Z</time>
      </trkpt>
      <trkpt lat="48.68435" lon="1.95571">
        <ele>155</ele>
        <time>2013-08-17T10:08:54Z</time>
      </trkpt>
      <trkpt lat="48.68432" lon="1.95568">
        <ele>155</ele>
        <time>2013-08-17T10:08:56Z</time>
      </trkpt>
      <trkpt lat="48.6843" lon="1.95565">
        <ele>155</ele>
        <time>2013-08-17T10:08:58Z</time>
      </trkpt>
      <trkpt lat="48.68427" lon="1.95563">
        <ele>155</ele>
        <time>2013-08-17T10:09:00Z</time>
      </trkpt>
      <trkpt lat="48.68424" lon="1.95562">
        <ele>155</ele>
        <time>2013-08-17T10:09:02Z</time>
      </trkpt>
      <trkpt lat="48.68421" lon="1.95561">
        <ele>155</ele>
        <time>2013-08-17T10:09:04Z</time>
      </trkpt>
      <trkpt lat="48.68418" lon="1.95559">
        <ele>155</ele>
        <time>2013-08-17T10:09:06Z</time>
      </trkpt>
      <trkpt lat="48.68415" lon="1.95556">
        <ele>155</ele>
        <time>2013-08-17T10:09:08Z</time>
      </trkpt>
      <trkpt lat="48.68411" lon="1.95551">
        <ele>155</ele>
        <time>2013-08-17T10:09:11Z</time>
      </trkpt>
      <trkpt lat="48.68408" lon="1.95549">
        <ele>155</ele>
        <time>2013-08-17T10:09:13Z</time>
      </trkpt>
      <trkpt lat="48.68406" lon="1.95546">
        <ele>155</ele>
        <time>2013-08-17T10:09:15Z</time>
      </trkpt>
      <trkpt lat="48.68402" lon="1.95543">
        <ele>155</ele>
        <time>2013-08-17T10:09:17Z</time>
      </trkpt>
      <trkpt lat="48.68398" lon="1.95541">
        <ele>155</ele>
        <time>2013-08-17T10:09:19Z</time>
      </trkpt>
      <trkpt lat="48.68395" lon="1.95538">
        <ele>155</ele>
        <time>2013-08-17T10:09:21Z</time>
      </trkpt>
      <trkpt lat="48.68392" lon="1.95535">
        <ele>156</ele>
        <time>2013-08-17T10:09:23Z</time>
      </trkpt>
      <trkpt lat="48.68389" lon="1.95532">
        <ele>156</ele>
        <time>2013-08-17T10:09:25Z</time>
      </trkpt>
      <trkpt lat="48.68386" lon="1.95528">
        <ele>156</ele>
        <time>2013-08-17T10:09:27Z</time>
      </trkpt>
      <trkpt lat="48.68383" lon="1.95526">
        <ele>157</ele>
        <time>2013-08-17T10:09:29Z</time>
      </trkpt>
      <trkpt lat="48.6838" lon="1.95524">
        <ele>157</ele>
        <time>2013-08-17T10:09:31Z</time>
      </trkpt>
      <trkpt lat="48.68378" lon="1.95521">
        <ele>158</ele>
        <time>2013-08-17T10:09:33Z</time>
      </trkpt>
      <trkpt lat="48.68375" lon="1.95518">
        <ele>158</ele>
        <time>2013-08-17T10:09:35Z</time>
      </trkpt>
      <trkpt lat="48.68373" lon="1.95516">
        <ele>158</ele>
        <time>2013-08-17T10:09:37Z</time>
      </trkpt>
      <trkpt lat="48.6837" lon="1.95515">
        <ele>158</ele>
        <time>2013-08-17T10:09:39Z</time>
      </trkpt>
      <trkpt lat="48.68371" lon="1.95513">
        <ele>160</ele>
        <time>2013-08-17T10:09:46Z</time>
      </trkpt>
      <trkpt lat="48.68371" lon="1.95509">
        <ele>160</ele>
        <time>2013-08-17T10:09:48Z</time>
      </trkpt>
      <trkpt lat="48.68372" lon="1.95507">
        <ele>160</ele>
        <time>2013-08-17T10:09:50Z</time>
      </trkpt>
      <trkpt lat="48.68372" lon="1.95505">
        <ele>160</ele>
        <time>2013-08-17T10:09:52Z</time>
      </trkpt>
      <trkpt lat="48.68372" lon="1.95503">
        <ele>160</ele>
        <time>2013-08-17T10:09:54Z</time>
      </trkpt>
      <trkpt lat="48.68372" lon="1.955">
        <ele>160</ele>
        <time>2013-08-17T10:09:56Z</time>
      </trkpt>
      <trkpt lat="48.68373" lon="1.95498">
        <ele>160</ele>
        <time>2013-08-17T10:09:58Z</time>
      </trkpt>
      <trkpt lat="48.68374" lon="1.95496">
        <ele>160</ele>
        <time>2013-08-17T10:10:01Z</time>
      </trkpt>
      <trkpt lat="48.68376" lon="1.95495">
        <ele>160</ele>
        <time>2013-08-17T10:10:03Z</time>
      </trkpt>
      <trkpt lat="48.68376" lon="1.95493">
        <ele>162</ele>
        <time>2013-08-17T10:10:17Z</time>
      </trkpt>
      <trkpt lat="48.68375" lon="1.95491">
        <ele>162</ele>
        <time>2013-08-17T10:10:25Z</time>
      </trkpt>
      <trkpt lat="48.68377" lon="1.95491">
        <ele>164</ele>
        <time>2013-08-17T10:10:42Z</time>
      </trkpt>
      <trkpt lat="48.68375" lon="1.95492">
        <ele>165</ele>
        <time>2013-08-17T10:10:47Z</time>
      </trkpt>
      <trkpt lat="48.68377" lon="1.95492">
        <ele>165</ele>
        <time>2013-08-17T10:11:00Z</time>
      </trkpt>
      <trkpt lat="48.68377" lon="1.95494">
        <ele>165</ele>
        <time>2013-08-17T10:11:04Z</time>
      </trkpt>
      <trkpt lat="48.68378" lon="1.95492">
        <ele>165</ele>
        <time>2013-08-17T10:11:08Z</time>
      </trkpt>
      <trkpt lat="48.68378" lon="1.95494">
        <ele>165</ele>
        <time>2013-08-17T10:11:34Z</time>
      </trkpt>
      <trkpt lat="48.68378" lon="1.95496">
        <ele>165</ele>
        <time>2013-08-17T10:11:49Z</time>
      </trkpt>
      <trkpt lat="48.6838" lon="1.95497">
        <ele>165</ele>
        <time>2013-08-17T10:11:55Z</time>
      </trkpt>
      <trkpt lat="48.68381" lon="1.95497">
        <ele>165</ele>
        <time>2013-08-17T10:11:57Z</time>
      </trkpt>
      <trkpt lat="48.68382" lon="1.95497">
        <ele>165</ele>
        <time>2013-08-17T10:11:59Z</time>
      </trkpt>
      <trkpt lat="48.68383" lon="1.95498">
        <ele>165</ele>
        <time>2013-08-17T10:12:01Z</time>
      </trkpt>
      <trkpt lat="48.68384" lon="1.955">
        <ele>165</ele>
        <time>2013-08-17T10:12:04Z</time>
      </trkpt>
      <trkpt lat="48.68384" lon="1.95502">
        <ele>165</ele>
        <time>2013-08-17T10:12:06Z</time>
      </trkpt>
      <trkpt lat="48.68385" lon="1.95504">
        <ele>165</ele>
        <time>2013-08-17T10:12:09Z</time>
      </trkpt>
      <trkpt lat="48.68383" lon="1.95503">
        <ele>165</ele>
        <time>2013-08-17T10:12:12Z</time>
      </trkpt>
      <trkpt lat="48.68383" lon="1.95505">
        <ele>166</ele>
        <time>2013-08-17T10:12:18Z</time>
      </trkpt>
      <trkpt lat="48.68382" lon="1.95506">
        <ele>168</ele>
        <time>2013-08-17T10:12:21Z</time>
      </trkpt>
      <trkpt lat="48.68383" lon="1.95504">
        <ele>168</ele>
        <time>2013-08-17T10:12:26Z</time>
      </trkpt>
      <trkpt lat="48.68381" lon="1.95502">
        <ele>168</ele>
        <time>2013-08-17T10:12:29Z</time>
      </trkpt>
      <trkpt lat="48.6838" lon="1.95502">
        <ele>168</ele>
        <time>2013-08-17T10:12:32Z</time>
      </trkpt>
      <trkpt lat="48.68378" lon="1.95501">
        <ele>168</ele>
        <time>2013-08-17T10:12:37Z</time>
      </trkpt>
      <trkpt lat="48.68378" lon="1.95499">
        <ele>166</ele>
        <time>2013-08-17T10:12:42Z</time>
      </trkpt>
      <trkpt lat="48.68377" lon="1.95498">
        <ele>165</ele>
        <time>2013-08-17T10:12:49Z</time>
      </trkpt>
      <trkpt lat="48.68377" lon="1.95496">
        <ele>165</ele>
        <time>2013-08-17T10:12:53Z</time>
      </trkpt>
      <trkpt lat="48.68379" lon="1.95493">
        <ele>165</ele>
        <time>2013-08-17T10:12:57Z</time>
      </trkpt>
      <trkpt lat="48.6838" lon="1.95493">
        <ele>165</ele>
        <time>2013-08-17T10:13:02Z</time>
      </trkpt>
      <trkpt lat="48.6838" lon="1.95495">
        <ele>165</ele>
        <time>2013-08-17T10:13:04Z</time>
      </trkpt>
      <trkpt lat="48.68379" lon="1.95495">
        <ele>165</ele>
        <time>2013-08-17T10:13:07Z</time>
      </trkpt>
      <trkpt lat="48.68378" lon="1.95494">
        <ele>165</ele>
        <time>2013-08-17T10:13:17Z</time>
      </trkpt>
      <trkpt lat="48.68378" lon="1.95493">
        <ele>165</ele>
        <time>2013-08-17T10:13:26Z</time>
      </trkpt>
      <trkpt lat="48.68377" lon="1.95492">
        <ele>168</ele>
        <time>2013-08-17T10:13:44Z</time>
      </trkpt>
      <trkpt lat="48.68378" lon="1.95492">
        <ele>169</ele>
        <time>2013-08-17T10:13:47Z</time>
      </trkpt>
      <trkpt lat="48.68377" lon="1.95492">
        <ele>169</ele>
        <time>2013-08-17T10:13:50Z</time>
      </trkpt>
      <trkpt lat="48.68377" lon="1.95494">
        <ele>171</ele>
        <time>2013-08-17T10:14:00Z</time>
      </trkpt>
      <trkpt lat="48.68375" lon="1.95496">
        <ele>171</ele>
        <time>2013-08-17T10:14:03Z</time>
      </trkpt>
      <trkpt lat="48.68375" lon="1.95499">
        <ele>171</ele>
        <time>2013-08-17T10:14:05Z</time>
      </trkpt>
      <trkpt lat="48.68375" lon="1.95502">
        <ele>171</ele>
        <time>2013-08-17T10:14:07Z</time>
      </trkpt>
      <trkpt lat="48.68375" lon="1.95504">
        <ele>172</ele>
        <time>2013-08-17T10:14:09Z</time>
      </trkpt>
      <trkpt lat="48.68376" lon="1.95508">
        <ele>172</ele>
        <time>2013-08-17T10:14:12Z</time>
      </trkpt>
      <trkpt lat="48.68368" lon="1.95498">
        <ele>165</ele>
        <time>2013-08-17T10:14:23Z</time>
      </trkpt>
      <trkpt lat="48.68368" lon="1.95502">
        <ele>165</ele>
        <time>2013-08-17T10:14:25Z</time>
      </trkpt>
      <trkpt lat="48.68368" lon="1.95504">
        <ele>165</ele>
        <time>2013-08-17T10:14:28Z</time>
      </trkpt>
      <trkpt lat="48.68367" lon="1.95503">
        <ele>165</ele>
        <time>2013-08-17T10:14:30Z</time>
      </trkpt>
      <trkpt lat="48.68365" lon="1.95505">
        <ele>165</ele>
        <time>2013-08-17T10:14:32Z</time>
      </trkpt>
      <trkpt lat="48.68366" lon="1.95506">
        <ele>165</ele>
        <time>2013-08-17T10:14:39Z</time>
      </trkpt>
      <trkpt lat="48.68367" lon="1.95506">
        <ele>165</ele>
        <time>2013-08-17T10:14:41Z</time>
      </trkpt>
      <trkpt lat="48.68368" lon="1.95508">
        <ele>166</ele>
        <time>2013-08-17T10:14:46Z</time>
      </trkpt>
      <trkpt lat="48.6837" lon="1.95507">
        <ele>168</ele>
        <time>2013-08-17T10:14:56Z</time>
      </trkpt>
      <trkpt lat="48.68371" lon="1.95507">
        <ele>169</ele>
        <time>2013-08-17T10:15:05Z</time>
      </trkpt>
      <trkpt lat="48.68374" lon="1.95508">
        <ele>170</ele>
        <time>2013-08-17T10:15:09Z</time>
      </trkpt>
      <trkpt lat="48.68375" lon="1.95507">
        <ele>172</ele>
        <time>2013-08-17T10:15:11Z</time>
      </trkpt>
      <trkpt lat="48.68377" lon="1.95507">
        <ele>174</ele>
        <time>2013-08-17T10:15:14Z</time>
      </trkpt>
      <trkpt lat="48.68378" lon="1.95507">
        <ele>176</ele>
        <time>2013-08-17T10:15:16Z</time>
      </trkpt>
      <trkpt lat="48.68381" lon="1.95507">
        <ele>179</ele>
        <time>2013-08-17T10:15:19Z</time>
      </trkpt>
      <trkpt lat="48.6838" lon="1.95509">
        <ele>179</ele>
        <time>2013-08-17T10:15:24Z</time>
      </trkpt>
      <trkpt lat="48.68378" lon="1.95507">
        <ele>179</ele>
        <time>2013-08-17T10:15:28Z</time>
      </trkpt>
      <trkpt lat="48.68375" lon="1.95506">
        <ele>179</ele>
        <time>2013-08-17T10:15:31Z</time>
      </trkpt>
      <trkpt lat="48.68372" lon="1.95505">
        <ele>179</ele>
        <time>2013-08-17T10:15:33Z</time>
      </trkpt>
      <trkpt lat="48.68366" lon="1.95504">
        <ele>177</ele>
        <time>2013-08-17T10:15:36Z</time>
      </trkpt>
      <trkpt lat="48.68362" lon="1.95502">
        <ele>175</ele>
        <time>2013-08-17T10:15:38Z</time>
      </trkpt>
      <trkpt lat="48.68359" lon="1.95502">
        <ele>174</ele>
        <time>2013-08-17T10:15:40Z</time>
      </trkpt>
      <trkpt lat="48.68355" lon="1.95502">
        <ele>172</ele>
        <time>2013-08-17T10:15:42Z</time>
      </trkpt>
      <trkpt lat="48.68352" lon="1.95501">
        <ele>171</ele>
        <time>2013-08-17T10:15:44Z</time>
      </trkpt>
      <trkpt lat="48.68348" lon="1.95499">
        <ele>170</ele>
        <time>2013-08-17T10:15:46Z</time>
      </trkpt>
      <trkpt lat="48.68345" lon="1.95495">
        <ele>168</ele>
        <time>2013-08-17T10:15:49Z</time>
      </trkpt>
      <trkpt lat="48.68344" lon="1.95493">
        <ele>167</ele>
        <time>2013-08-17T10:15:51Z</time>
      </trkpt>
      <trkpt lat="48.68341" lon="1.95491">
        <ele>166</ele>
        <time>2013-08-17T10:15:54Z</time>
      </trkpt>
      <trkpt lat="48.68339" lon="1.95489">
        <ele>166</ele>
        <time>2013-08-17T10:15:56Z</time>
      </trkpt>
      <trkpt lat="48.68335" lon="1.95489">
        <ele>165</ele>
        <time>2013-08-17T10:15:58Z</time>
      </trkpt>
      <trkpt lat="48.68333" lon="1.95485">
        <ele>165</ele>
        <time>2013-08-17T10:16:00Z</time>
      </trkpt>
      <trkpt lat="48.68331" lon="1.95484">
        <ele>165</ele>
        <time>2013-08-17T10:16:02Z</time>
      </trkpt>
      <trkpt lat="48.68328" lon="1.95481">
        <ele>165</ele>
        <time>2013-08-17T10:16:05Z</time>
      </trkpt>
      <trkpt lat="48.68324" lon="1.95477">
        <ele>165</ele>
        <time>2013-08-17T10:16:07Z</time>
      </trkpt>
      <trkpt lat="48.68322" lon="1.95474">
        <ele>166</ele>
        <time>2013-08-17T10:16:09Z</time>
      </trkpt>
      <trkpt lat="48.68319" lon="1.9547">
        <ele>167</ele>
        <time>2013-08-17T10:16:11Z</time>
      </trkpt>
      <trkpt lat="48.68314" lon="1.95468">
        <ele>169</ele>
        <time>2013-08-17T10:16:14Z</time>
      </trkpt>
      <trkpt lat="48.68311" lon="1.95464">
        <ele>171</ele>
        <time>2013-08-17T10:16:16Z</time>
      </trkpt>
      <trkpt lat="48.68307" lon="1.95463">
        <ele>173</ele>
        <time>2013-08-17T10:16:18Z</time>
      </trkpt>
      <trkpt lat="48.68304" lon="1.95461">
        <ele>175</ele>
        <time>2013-08-17T10:16:20Z</time>
      </trkpt>
      <trkpt lat="48.68301" lon="1.95459">
        <ele>175</ele>
        <time>2013-08-17T10:16:22Z</time>
      </trkpt>
      <trkpt lat="48.68298" lon="1.95457">
        <ele>175</ele>
        <time>2013-08-17T10:16:25Z</time>
      </trkpt>
      <trkpt lat="48.68295" lon="1.95454">
        <ele>175</ele>
        <time>2013-08-17T10:16:28Z</time>
      </trkpt>
      <trkpt lat="48.68292" lon="1.95451">
        <ele>175</ele>
        <time>2013-08-17T10:16:31Z</time>
      </trkpt>
      <trkpt lat="48.68293" lon="1.95446">
        <ele>175</ele>
        <time>2013-08-17T10:16:33Z</time>
      </trkpt>
      <trkpt lat="48.6829" lon="1.95443">
        <ele>175</ele>
        <time>2013-08-17T10:16:35Z</time>
      </trkpt>
      <trkpt lat="48.68286" lon="1.95441">
        <ele>175</ele>
        <time>2013-08-17T10:16:38Z</time>
      </trkpt>
      <trkpt lat="48.68282" lon="1.95442">
        <ele>175</ele>
        <time>2013-08-17T10:16:41Z</time>
      </trkpt>
      <trkpt lat="48.68278" lon="1.9544">
        <ele>173</ele>
        <time>2013-08-17T10:16:44Z</time>
      </trkpt>
      <trkpt lat="48.68274" lon="1.95437">
        <ele>172</ele>
        <time>2013-08-17T10:16:46Z</time>
      </trkpt>
      <trkpt lat="48.68268" lon="1.95434">
        <ele>171</ele>
        <time>2013-08-17T10:16:49Z</time>
      </trkpt>
      <trkpt lat="48.68264" lon="1.95431">
        <ele>171</ele>
        <time>2013-08-17T10:16:53Z</time>
      </trkpt>
      <trkpt lat="48.6826" lon="1.95427">
        <ele>171</ele>
        <time>2013-08-17T10:16:56Z</time>
      </trkpt>
      <trkpt lat="48.68256" lon="1.95425">
        <ele>171</ele>
        <time>2013-08-17T10:16:58Z</time>
      </trkpt>
      <trkpt lat="48.68253" lon="1.95423">
        <ele>171</ele>
        <time>2013-08-17T10:17:01Z</time>
      </trkpt>
      <trkpt lat="48.6825" lon="1.95422">
        <ele>171</ele>
        <time>2013-08-17T10:17:03Z</time>
      </trkpt>
      <trkpt lat="48.68248" lon="1.95419">
        <ele>171</ele>
        <time>2013-08-17T10:17:05Z</time>
      </trkpt>
      <trkpt lat="48.68248" lon="1.95416">
        <ele>170</ele>
        <time>2013-08-17T10:17:08Z</time>
      </trkpt>
      <trkpt lat="48.68243" lon="1.95413">
        <ele>170</ele>
        <time>2013-08-17T10:17:12Z</time>
      </trkpt>
      <trkpt lat="48.68241" lon="1.95409">
        <ele>170</ele>
        <time>2013-08-17T10:17:15Z</time>
      </trkpt>
      <trkpt lat="48.68238" lon="1.95406">
        <ele>170</ele>
        <time>2013-08-17T10:17:17Z</time>
      </trkpt>
      <trkpt lat="48.68232" lon="1.95403">
        <ele>170</ele>
        <time>2013-08-17T10:17:20Z</time>
      </trkpt>
      <trkpt lat="48.68227" lon="1.95402">
        <ele>170</ele>
        <time>2013-08-17T10:17:22Z</time>
      </trkpt>
      <trkpt lat="48.68223" lon="1.95399">
        <ele>170</ele>
        <time>2013-08-17T10:17:24Z</time>
      </trkpt>
      <trkpt lat="48.68221" lon="1.95394">
        <ele>170</ele>
        <time>2013-08-17T10:17:27Z</time>
      </trkpt>
      <trkpt lat="48.68218" lon="1.95395">
        <ele>170</ele>
        <time>2013-08-17T10:17:29Z</time>
      </trkpt>
      <trkpt lat="48.68215" lon="1.95392">
        <ele>170</ele>
        <time>2013-08-17T10:17:33Z</time>
      </trkpt>
      <trkpt lat="48.68211" lon="1.95389">
        <ele>170</ele>
        <time>2013-08-17T10:17:36Z</time>
      </trkpt>
      <trkpt lat="48.6821" lon="1.95385">
        <ele>171</ele>
        <time>2013-08-17T10:17:39Z</time>
      </trkpt>
      <trkpt lat="48.68208" lon="1.95381">
        <ele>171</ele>
        <time>2013-08-17T10:17:42Z</time>
      </trkpt>
      <trkpt lat="48.68204" lon="1.95377">
        <ele>171</ele>
        <time>2013-08-17T10:17:45Z</time>
      </trkpt>
      <trkpt lat="48.68201" lon="1.95375">
        <ele>171</ele>
        <time>2013-08-17T10:17:47Z</time>
      </trkpt>
      <trkpt lat="48.68198" lon="1.95372">
        <ele>171</ele>
        <time>2013-08-17T10:17:49Z</time>
      </trkpt>
      <trkpt lat="48.68194" lon="1.9537">
        <ele>171</ele>
        <time>2013-08-17T10:17:51Z</time>
      </trkpt>
      <trkpt lat="48.68189" lon="1.95368">
        <ele>171</ele>
        <time>2013-08-17T10:17:55Z</time>
      </trkpt>
      <trkpt lat="48.68187" lon="1.95365">
        <ele>171</ele>
        <time>2013-08-17T10:17:57Z</time>
      </trkpt>
      <trkpt lat="48.68185" lon="1.95363">
        <ele>171</ele>
        <time>2013-08-17T10:18:00Z</time>
      </trkpt>
      <trkpt lat="48.68181" lon="1.95361">
        <ele>171</ele>
        <time>2013-08-17T10:18:02Z</time>
      </trkpt>
      <trkpt lat="48.68177" lon="1.95359">
        <ele>171</ele>
        <time>2013-08-17T10:18:06Z</time>
      </trkpt>
      <trkpt lat="48.68175" lon="1.95357">
        <ele>171</ele>
        <time>2013-08-17T10:18:08Z</time>
      </trkpt>
      <trkpt lat="48.68172" lon="1.95353">
        <ele>171</ele>
        <time>2013-08-17T10:18:11Z</time>
      </trkpt>
      <trkpt lat="48.68171" lon="1.95349">
        <ele>171</ele>
        <time>2013-08-17T10:18:14Z</time>
      </trkpt>
      <trkpt lat="48.68168" lon="1.95345">
        <ele>171</ele>
        <time>2013-08-17T10:18:17Z</time>
      </trkpt>
      <trkpt lat="48.68166" lon="1.95344">
        <ele>171</ele>
        <time>2013-08-17T10:18:19Z</time>
      </trkpt>
      <trkpt lat="48.68162" lon="1.95343">
        <ele>171</ele>
        <time>2013-08-17T10:18:21Z</time>
      </trkpt>
      <trkpt lat="48.68159" lon="1.95341">
        <ele>171</ele>
        <time>2013-08-17T10:18:23Z</time>
      </trkpt>
      <trkpt lat="48.68156" lon="1.95338">
        <ele>171</ele>
        <time>2013-08-17T10:18:26Z</time>
      </trkpt>
      <trkpt lat="48.68154" lon="1.95336">
        <ele>171</ele>
        <time>2013-08-17T10:18:28Z</time>
      </trkpt>
      <trkpt lat="48.68152" lon="1.95335">
        <ele>170</ele>
        <time>2013-08-17T10:18:30Z</time>
      </trkpt>
      <trkpt lat="48.68149" lon="1.95332">
        <ele>170</ele>
        <time>2013-08-17T10:18:33Z</time>
      </trkpt>
      <trkpt lat="48.68147" lon="1.95331">
        <ele>169</ele>
        <time>2013-08-17T10:18:35Z</time>
      </trkpt>
      <trkpt lat="48.68143" lon="1.9533">
        <ele>168</ele>
        <time>2013-08-17T10:18:38Z</time>
      </trkpt>
      <trkpt lat="48.68139" lon="1.95328">
        <ele>168</ele>
        <time>2013-08-17T10:18:41Z</time>
      </trkpt>
      <trkpt lat="48.68133" lon="1.95325">
        <ele>168</ele>
        <time>2013-08-17T10:18:44Z</time>
      </trkpt>
      <trkpt lat="48.68129" lon="1.95322">
        <ele>168</ele>
        <time>2013-08-17T10:18:46Z</time>
      </trkpt>
      <trkpt lat="48.68128" lon="1.95318">
        <ele>168</ele>
        <time>2013-08-17T10:18:48Z</time>
      </trkpt>
      <trkpt lat="48.68125" lon="1.95316">
        <ele>168</ele>
        <time>2013-08-17T10:18:50Z</time>
      </trkpt>
      <trkpt lat="48.68122" lon="1.95313">
        <ele>168</ele>
        <time>2013-08-17T10:18:52Z</time>
      </trkpt>
      <trkpt lat="48.68119" lon="1.95311">
        <ele>168</ele>
        <time>2013-08-17T10:18:54Z</time>
      </trkpt>
      <trkpt lat="48.68114" lon="1.95309">
        <ele>168</ele>
        <time>2013-08-17T10:18:58Z</time>
      </trkpt>
      <trkpt lat="48.6811" lon="1.95304">
        <ele>168</ele>
        <time>2013-08-17T10:19:02Z</time>
      </trkpt>
      <trkpt lat="48.68108" lon="1.95302">
        <ele>170</ele>
        <time>2013-08-17T10:19:05Z</time>
      </trkpt>
      <trkpt lat="48.68103" lon="1.95299">
        <ele>171</ele>
        <time>2013-08-17T10:19:08Z</time>
      </trkpt>
      <trkpt lat="48.68103" lon="1.95294">
        <ele>171</ele>
        <time>2013-08-17T10:19:11Z</time>
      </trkpt>
      <trkpt lat="48.68101" lon="1.95291">
        <ele>171</ele>
        <time>2013-08-17T10:19:15Z</time>
      </trkpt>
      <trkpt lat="48.681" lon="1.95291">
        <ele>171</ele>
        <time>2013-08-17T10:19:17Z</time>
      </trkpt>
      <trkpt lat="48.68098" lon="1.95288">
        <ele>170</ele>
        <time>2013-08-17T10:19:19Z</time>
      </trkpt>
      <trkpt lat="48.68095" lon="1.95285">
        <ele>169</ele>
        <time>2013-08-17T10:19:21Z</time>
      </trkpt>
      <trkpt lat="48.68093" lon="1.95282">
        <ele>168</ele>
        <time>2013-08-17T10:19:23Z</time>
      </trkpt>
      <trkpt lat="48.68093" lon="1.95276">
        <ele>165</ele>
        <time>2013-08-17T10:19:26Z</time>
      </trkpt>
      <trkpt lat="48.68095" lon="1.95272">
        <ele>163</ele>
        <time>2013-08-17T10:19:28Z</time>
      </trkpt>
      <trkpt lat="48.68095" lon="1.95268">
        <ele>162</ele>
        <time>2013-08-17T10:19:30Z</time>
      </trkpt>
      <trkpt lat="48.68097" lon="1.95259">
        <ele>162</ele>
        <time>2013-08-17T10:19:34Z</time>
      </trkpt>
      <trkpt lat="48.68098" lon="1.95251">
        <ele>162</ele>
        <time>2013-08-17T10:19:37Z</time>
      </trkpt>
      <trkpt lat="48.68098" lon="1.95247">
        <ele>162</ele>
        <time>2013-08-17T10:19:39Z</time>
      </trkpt>
      <trkpt lat="48.68101" lon="1.95245">
        <ele>162</ele>
        <time>2013-08-17T10:19:41Z</time>
      </trkpt>
      <trkpt lat="48.68103" lon="1.9524">
        <ele>162</ele>
        <time>2013-08-17T10:19:44Z</time>
      </trkpt>
      <trkpt lat="48.68106" lon="1.95235">
        <ele>162</ele>
        <time>2013-08-17T10:19:47Z</time>
      </trkpt>
      <trkpt lat="48.68109" lon="1.95231">
        <ele>162</ele>
        <time>2013-08-17T10:19:49Z</time>
      </trkpt>
      <trkpt lat="48.68112" lon="1.95225">
        <ele>162</ele>
        <time>2013-08-17T10:19:52Z</time>
      </trkpt>
      <trkpt lat="48.68114" lon="1.95223">
        <ele>162</ele>
        <time>2013-08-17T10:19:54Z</time>
      </trkpt>
      <trkpt lat="48.68118" lon="1.9522">
        <ele>162</ele>
        <time>2013-08-17T10:19:56Z</time>
      </trkpt>
      <trkpt lat="48.6812" lon="1.95217">
        <ele>162</ele>
        <time>2013-08-17T10:19:58Z</time>
      </trkpt>
      <trkpt lat="48.68123" lon="1.9521">
        <ele>162</ele>
        <time>2013-08-17T10:20:01Z</time>
      </trkpt>
      <trkpt lat="48.68123" lon="1.95206">
        <ele>162</ele>
        <time>2013-08-17T10:20:03Z</time>
      </trkpt>
      <trkpt lat="48.68125" lon="1.95199">
        <ele>162</ele>
        <time>2013-08-17T10:20:07Z</time>
      </trkpt>
      <trkpt lat="48.68126" lon="1.95195">
        <ele>162</ele>
        <time>2013-08-17T10:20:09Z</time>
      </trkpt>
      <trkpt lat="48.68128" lon="1.95188">
        <ele>162</ele>
        <time>2013-08-17T10:20:12Z</time>
      </trkpt>
      <trkpt lat="48.6813" lon="1.95183">
        <ele>162</ele>
        <time>2013-08-17T10:20:15Z</time>
      </trkpt>
      <trkpt lat="48.68139" lon="1.95179">
        <ele>162</ele>
        <time>2013-08-17T10:20:20Z</time>
      </trkpt>
      <trkpt lat="48.68139" lon="1.95174">
        <ele>162</ele>
        <time>2013-08-17T10:20:23Z</time>
      </trkpt>
      <trkpt lat="48.68138" lon="1.95169">
        <ele>162</ele>
        <time>2013-08-17T10:20:25Z</time>
      </trkpt>
      <trkpt lat="48.68137" lon="1.95165">
        <ele>162</ele>
        <time>2013-08-17T10:20:27Z</time>
      </trkpt>
      <trkpt lat="48.68135" lon="1.95157">
        <ele>162</ele>
        <time>2013-08-17T10:20:30Z</time>
      </trkpt>
      <trkpt lat="48.68133" lon="1.95149">
        <ele>164</ele>
        <time>2013-08-17T10:20:33Z</time>
      </trkpt>
      <trkpt lat="48.68132" lon="1.95143">
        <ele>166</ele>
        <time>2013-08-17T10:20:35Z</time>
      </trkpt>
      <trkpt lat="48.6813" lon="1.95139">
        <ele>167</ele>
        <time>2013-08-17T10:20:38Z</time>
      </trkpt>
      <trkpt lat="48.6813" lon="1.95133">
        <ele>169</ele>
        <time>2013-08-17T10:20:40Z</time>
      </trkpt>
      <trkpt lat="48.68131" lon="1.95124">
        <ele>171</ele>
        <time>2013-08-17T10:20:43Z</time>
      </trkpt>
      <trkpt lat="48.68131" lon="1.95119">
        <ele>172</ele>
        <time>2013-08-17T10:20:46Z</time>
      </trkpt>
      <trkpt lat="48.68129" lon="1.95119">
        <ele>172</ele>
        <time>2013-08-17T10:20:48Z</time>
      </trkpt>
      <trkpt lat="48.68127" lon="1.95113">
        <ele>172</ele>
        <time>2013-08-17T10:20:51Z</time>
      </trkpt>
      <trkpt lat="48.68127" lon="1.95108">
        <ele>172</ele>
        <time>2013-08-17T10:20:54Z</time>
      </trkpt>
      <trkpt lat="48.68129" lon="1.95103">
        <ele>172</ele>
        <time>2013-08-17T10:20:57Z</time>
      </trkpt>
      <trkpt lat="48.6813" lon="1.95098">
        <ele>170</ele>
        <time>2013-08-17T10:21:00Z</time>
      </trkpt>
      <trkpt lat="48.68131" lon="1.95095">
        <ele>168</ele>
        <time>2013-08-17T10:21:02Z</time>
      </trkpt>
      <trkpt lat="48.68134" lon="1.95089">
        <ele>166</ele>
        <time>2013-08-17T10:21:05Z</time>
      </trkpt>
      <trkpt lat="48.68135" lon="1.95085">
        <ele>165</ele>
        <time>2013-08-17T10:21:07Z</time>
      </trkpt>
      <trkpt lat="48.68135" lon="1.95081">
        <ele>164</ele>
        <time>2013-08-17T10:21:10Z</time>
      </trkpt>
      <trkpt lat="48.68135" lon="1.95079">
        <ele>164</ele>
        <time>2013-08-17T10:21:12Z</time>
      </trkpt>
      <trkpt lat="48.68138" lon="1.95073">
        <ele>162</ele>
        <time>2013-08-17T10:21:15Z</time>
      </trkpt>
      <trkpt lat="48.6814" lon="1.95069">
        <ele>161</ele>
        <time>2013-08-17T10:21:17Z</time>
      </trkpt>
      <trkpt lat="48.68141" lon="1.95062">
        <ele>161</ele>
        <time>2013-08-17T10:21:20Z</time>
      </trkpt>
      <trkpt lat="48.68143" lon="1.95058">
        <ele>161</ele>
        <time>2013-08-17T10:21:22Z</time>
      </trkpt>
      <trkpt lat="48.68145" lon="1.95051">
        <ele>161</ele>
        <time>2013-08-17T10:21:25Z</time>
      </trkpt>
      <trkpt lat="48.68147" lon="1.95047">
        <ele>161</ele>
        <time>2013-08-17T10:21:27Z</time>
      </trkpt>
      <trkpt lat="48.68149" lon="1.95044">
        <ele>161</ele>
        <time>2013-08-17T10:21:29Z</time>
      </trkpt>
      <trkpt lat="48.6815" lon="1.95037">
        <ele>161</ele>
        <time>2013-08-17T10:21:33Z</time>
      </trkpt>
      <trkpt lat="48.68154" lon="1.95034">
        <ele>161</ele>
        <time>2013-08-17T10:21:36Z</time>
      </trkpt>
      <trkpt lat="48.68155" lon="1.95032">
        <ele>161</ele>
        <time>2013-08-17T10:21:38Z</time>
      </trkpt>
      <trkpt lat="48.68159" lon="1.95028">
        <ele>161</ele>
        <time>2013-08-17T10:21:41Z</time>
      </trkpt>
      <trkpt lat="48.6816" lon="1.95024">
        <ele>161</ele>
        <time>2013-08-17T10:21:43Z</time>
      </trkpt>
      <trkpt lat="48.68163" lon="1.95019">
        <ele>161</ele>
        <time>2013-08-17T10:21:47Z</time>
      </trkpt>
      <trkpt lat="48.68164" lon="1.95017">
        <ele>161</ele>
        <time>2013-08-17T10:21:49Z</time>
      </trkpt>
      <trkpt lat="48.68167" lon="1.9501">
        <ele>161</ele>
        <time>2013-08-17T10:21:52Z</time>
      </trkpt>
      <trkpt lat="48.68169" lon="1.95005">
        <ele>162</ele>
        <time>2013-08-17T10:21:55Z</time>
      </trkpt>
      <trkpt lat="48.6817" lon="1.95003">
        <ele>165</ele>
        <time>2013-08-17T10:21:58Z</time>
      </trkpt>
      <trkpt lat="48.68171" lon="1.95001">
        <ele>168</ele>
        <time>2013-08-17T10:22:01Z</time>
      </trkpt>
      <trkpt lat="48.68172" lon="1.94999">
        <ele>170</ele>
        <time>2013-08-17T10:22:04Z</time>
      </trkpt>
      <trkpt lat="48.68174" lon="1.95003">
        <ele>171</ele>
        <time>2013-08-17T10:22:08Z</time>
      </trkpt>
      <trkpt lat="48.68176" lon="1.95002">
        <ele>172</ele>
        <time>2013-08-17T10:22:11Z</time>
      </trkpt>
      <trkpt lat="48.68175" lon="1.95">
        <ele>172</ele>
        <time>2013-08-17T10:22:13Z</time>
      </trkpt>
      <trkpt lat="48.68174" lon="1.94995">
        <ele>172</ele>
        <time>2013-08-17T10:22:18Z</time>
      </trkpt>
      <trkpt lat="48.68174" lon="1.94993">
        <ele>171</ele>
        <time>2013-08-17T10:22:25Z</time>
      </trkpt>
      <trkpt lat="48.68175" lon="1.94992">
        <ele>171</ele>
        <time>2013-08-17T10:22:29Z</time>
      </trkpt>
      <trkpt lat="48.68179" lon="1.94988">
        <ele>170</ele>
        <time>2013-08-17T10:22:32Z</time>
      </trkpt>
      <trkpt lat="48.68182" lon="1.94984">
        <ele>170</ele>
        <time>2013-08-17T10:22:34Z</time>
      </trkpt>
      <trkpt lat="48.68185" lon="1.94978">
        <ele>170</ele>
        <time>2013-08-17T10:22:36Z</time>
      </trkpt>
      <trkpt lat="48.68188" lon="1.94971">
        <ele>170</ele>
        <time>2013-08-17T10:22:38Z</time>
      </trkpt>
      <trkpt lat="48.68192" lon="1.94964">
        <ele>170</ele>
        <time>2013-08-17T10:22:41Z</time>
      </trkpt>
      <trkpt lat="48.68195" lon="1.9496">
        <ele>170</ele>
        <time>2013-08-17T10:22:43Z</time>
      </trkpt>
      <trkpt lat="48.68198" lon="1.94957">
        <ele>170</ele>
        <time>2013-08-17T10:22:45Z</time>
      </trkpt>
      <trkpt lat="48.682" lon="1.94954">
        <ele>170</ele>
        <time>2013-08-17T10:22:47Z</time>
      </trkpt>
      <trkpt lat="48.68202" lon="1.9495">
        <ele>170</ele>
        <time>2013-08-17T10:22:50Z</time>
      </trkpt>
      <trkpt lat="48.68203" lon="1.94947">
        <ele>170</ele>
        <time>2013-08-17T10:22:52Z</time>
      </trkpt>
      <trkpt lat="48.68206" lon="1.94945">
        <ele>170</ele>
        <time>2013-08-17T10:22:54Z</time>
      </trkpt>
      <trkpt lat="48.68209" lon="1.94943">
        <ele>170</ele>
        <time>2013-08-17T10:22:56Z</time>
      </trkpt>
      <trkpt lat="48.68213" lon="1.9494">
        <ele>170</ele>
        <time>2013-08-17T10:22:59Z</time>
      </trkpt>
      <trkpt lat="48.68217" lon="1.94937">
        <ele>170</ele>
        <time>2013-08-17T10:23:02Z</time>
      </trkpt>
      <trkpt lat="48.6822" lon="1.94934">
        <ele>169</ele>
        <time>2013-08-17T10:23:05Z</time>
      </trkpt>
      <trkpt lat="48.68224" lon="1.94931">
        <ele>169</ele>
        <time>2013-08-17T10:23:08Z</time>
      </trkpt>
      <trkpt lat="48.68228" lon="1.94928">
        <ele>168</ele>
        <time>2013-08-17T10:23:11Z</time>
      </trkpt>
      <trkpt lat="48.68231" lon="1.94927">
        <ele>168</ele>
        <time>2013-08-17T10:23:13Z</time>
      </trkpt>
      <trkpt lat="48.68235" lon="1.94924">
        <ele>168</ele>
        <time>2013-08-17T10:23:16Z</time>
      </trkpt>
      <trkpt lat="48.68238" lon="1.9492">
        <ele>168</ele>
        <time>2013-08-17T10:23:19Z</time>
      </trkpt>
      <trkpt lat="48.68243" lon="1.94918">
        <ele>168</ele>
        <time>2013-08-17T10:23:21Z</time>
      </trkpt>
      <trkpt lat="48.68245" lon="1.94916">
        <ele>168</ele>
        <time>2013-08-17T10:23:23Z</time>
      </trkpt>
      <trkpt lat="48.68248" lon="1.94914">
        <ele>168</ele>
        <time>2013-08-17T10:23:25Z</time>
      </trkpt>
      <trkpt lat="48.68254" lon="1.94909">
        <ele>167</ele>
        <time>2013-08-17T10:23:28Z</time>
      </trkpt>
      <trkpt lat="48.68256" lon="1.94908">
        <ele>167</ele>
        <time>2013-08-17T10:23:30Z</time>
      </trkpt>
      <trkpt lat="48.68259" lon="1.94905">
        <ele>167</ele>
        <time>2013-08-17T10:23:32Z</time>
      </trkpt>
      <trkpt lat="48.68263" lon="1.94903">
        <ele>167</ele>
        <time>2013-08-17T10:23:34Z</time>
      </trkpt>
      <trkpt lat="48.68265" lon="1.94901">
        <ele>167</ele>
        <time>2013-08-17T10:23:36Z</time>
      </trkpt>
      <trkpt lat="48.6827" lon="1.94899">
        <ele>167</ele>
        <time>2013-08-17T10:23:40Z</time>
      </trkpt>
      <trkpt lat="48.68274" lon="1.94896">
        <ele>167</ele>
        <time>2013-08-17T10:23:42Z</time>
      </trkpt>
      <trkpt lat="48.68277" lon="1.94895">
        <ele>167</ele>
        <time>2013-08-17T10:23:44Z</time>
      </trkpt>
      <trkpt lat="48.6828" lon="1.94894">
        <ele>167</ele>
        <time>2013-08-17T10:23:46Z</time>
      </trkpt>
      <trkpt lat="48.68282" lon="1.94892">
        <ele>167</ele>
        <time>2013-08-17T10:23:48Z</time>
      </trkpt>
      <trkpt lat="48.68287" lon="1.94887">
        <ele>167</ele>
        <time>2013-08-17T10:23:51Z</time>
      </trkpt>
      <trkpt lat="48.68287" lon="1.94886">
        <ele>167</ele>
        <time>2013-08-17T10:23:53Z</time>
      </trkpt>
      <trkpt lat="48.68291" lon="1.94883">
        <ele>168</ele>
        <time>2013-08-17T10:23:56Z</time>
      </trkpt>
      <trkpt lat="48.68294" lon="1.94879">
        <ele>168</ele>
        <time>2013-08-17T10:23:58Z</time>
      </trkpt>
      <trkpt lat="48.68297" lon="1.94876">
        <ele>168</ele>
        <time>2013-08-17T10:24:00Z</time>
      </trkpt>
      <trkpt lat="48.68299" lon="1.94871">
        <ele>169</ele>
        <time>2013-08-17T10:24:02Z</time>
      </trkpt>
      <trkpt lat="48.68303" lon="1.94867">
        <ele>169</ele>
        <time>2013-08-17T10:24:04Z</time>
      </trkpt>
      <trkpt lat="48.68304" lon="1.94862">
        <ele>170</ele>
        <time>2013-08-17T10:24:06Z</time>
      </trkpt>
      <trkpt lat="48.68305" lon="1.94857">
        <ele>171</ele>
        <time>2013-08-17T10:24:08Z</time>
      </trkpt>
      <trkpt lat="48.68306" lon="1.94851">
        <ele>173</ele>
        <time>2013-08-17T10:24:11Z</time>
      </trkpt>
      <trkpt lat="48.68306" lon="1.94846">
        <ele>175</ele>
        <time>2013-08-17T10:24:13Z</time>
      </trkpt>
      <trkpt lat="48.68311" lon="1.94839">
        <ele>178</ele>
        <time>2013-08-17T10:24:16Z</time>
      </trkpt>
      <trkpt lat="48.68311" lon="1.94834">
        <ele>179</ele>
        <time>2013-08-17T10:24:19Z</time>
      </trkpt>
      <trkpt lat="48.68313" lon="1.94828">
        <ele>181</ele>
        <time>2013-08-17T10:24:21Z</time>
      </trkpt>
      <trkpt lat="48.68313" lon="1.94822">
        <ele>184</ele>
        <time>2013-08-17T10:24:24Z</time>
      </trkpt>
      <trkpt lat="48.68316" lon="1.94816">
        <ele>185</ele>
        <time>2013-08-17T10:24:28Z</time>
      </trkpt>
      <trkpt lat="48.68319" lon="1.94812">
        <ele>185</ele>
        <time>2013-08-17T10:24:31Z</time>
      </trkpt>
      <trkpt lat="48.68322" lon="1.94809">
        <ele>185</ele>
        <time>2013-08-17T10:24:33Z</time>
      </trkpt>
      <trkpt lat="48.68323" lon="1.94804">
        <ele>185</ele>
        <time>2013-08-17T10:24:35Z</time>
      </trkpt>
      <trkpt lat="48.68323" lon="1.94801">
        <ele>185</ele>
        <time>2013-08-17T10:24:37Z</time>
      </trkpt>
      <trkpt lat="48.68324" lon="1.94797">
        <ele>185</ele>
        <time>2013-08-17T10:24:40Z</time>
      </trkpt>
      <trkpt lat="48.68327" lon="1.94795">
        <ele>185</ele>
        <time>2013-08-17T10:24:42Z</time>
      </trkpt>
      <trkpt lat="48.68329" lon="1.94793">
        <ele>185</ele>
        <time>2013-08-17T10:24:44Z</time>
      </trkpt>
      <trkpt lat="48.68332" lon="1.9479">
        <ele>185</ele>
        <time>2013-08-17T10:24:46Z</time>
      </trkpt>
      <trkpt lat="48.68336" lon="1.94786">
        <ele>185</ele>
        <time>2013-08-17T10:24:48Z</time>
      </trkpt>
      <trkpt lat="48.68338" lon="1.94783">
        <ele>184</ele>
        <time>2013-08-17T10:24:50Z</time>
      </trkpt>
      <trkpt lat="48.6834" lon="1.94778">
        <ele>183</ele>
        <time>2013-08-17T10:24:53Z</time>
      </trkpt>
      <trkpt lat="48.68339" lon="1.94775">
        <ele>182</ele>
        <time>2013-08-17T10:24:55Z</time>
      </trkpt>
      <trkpt lat="48.68343" lon="1.94772">
        <ele>181</ele>
        <time>2013-08-17T10:24:57Z</time>
      </trkpt>
      <trkpt lat="48.68347" lon="1.94768">
        <ele>180</ele>
        <time>2013-08-17T10:24:59Z</time>
      </trkpt>
      <trkpt lat="48.68349" lon="1.94763">
        <ele>178</ele>
        <time>2013-08-17T10:25:01Z</time>
      </trkpt>
      <trkpt lat="48.68351" lon="1.94756">
        <ele>178</ele>
        <time>2013-08-17T10:25:04Z</time>
      </trkpt>
      <trkpt lat="48.68354" lon="1.94753">
        <ele>178</ele>
        <time>2013-08-17T10:25:06Z</time>
      </trkpt>
      <trkpt lat="48.68356" lon="1.94748">
        <ele>178</ele>
        <time>2013-08-17T10:25:08Z</time>
      </trkpt>
      <trkpt lat="48.68357" lon="1.94744">
        <ele>178</ele>
        <time>2013-08-17T10:25:10Z</time>
      </trkpt>
      <trkpt lat="48.68359" lon="1.9474">
        <ele>178</ele>
        <time>2013-08-17T10:25:12Z</time>
      </trkpt>
      <trkpt lat="48.68359" lon="1.94738">
        <ele>178</ele>
        <time>2013-08-17T10:25:14Z</time>
      </trkpt>
      <trkpt lat="48.68362" lon="1.94736">
        <ele>177</ele>
        <time>2013-08-17T10:25:16Z</time>
      </trkpt>
      <trkpt lat="48.68365" lon="1.94732">
        <ele>176</ele>
        <time>2013-08-17T10:25:18Z</time>
      </trkpt>
      <trkpt lat="48.68368" lon="1.94729">
        <ele>175</ele>
        <time>2013-08-17T10:25:20Z</time>
      </trkpt>
      <trkpt lat="48.68372" lon="1.94725">
        <ele>174</ele>
        <time>2013-08-17T10:25:23Z</time>
      </trkpt>
      <trkpt lat="48.68376" lon="1.94721">
        <ele>174</ele>
        <time>2013-08-17T10:25:25Z</time>
      </trkpt>
      <trkpt lat="48.68379" lon="1.94717">
        <ele>174</ele>
        <time>2013-08-17T10:25:27Z</time>
      </trkpt>
      <trkpt lat="48.68381" lon="1.94712">
        <ele>174</ele>
        <time>2013-08-17T10:25:29Z</time>
      </trkpt>
      <trkpt lat="48.68382" lon="1.94707">
        <ele>173</ele>
        <time>2013-08-17T10:25:31Z</time>
      </trkpt>
      <trkpt lat="48.68383" lon="1.947">
        <ele>173</ele>
        <time>2013-08-17T10:25:34Z</time>
      </trkpt>
      <trkpt lat="48.68384" lon="1.94694">
        <ele>173</ele>
        <time>2013-08-17T10:25:37Z</time>
      </trkpt>
      <trkpt lat="48.68383" lon="1.94691">
        <ele>173</ele>
        <time>2013-08-17T10:25:39Z</time>
      </trkpt>
      <trkpt lat="48.68384" lon="1.94688">
        <ele>173</ele>
        <time>2013-08-17T10:25:41Z</time>
      </trkpt>
      <trkpt lat="48.68386" lon="1.94685">
        <ele>173</ele>
        <time>2013-08-17T10:25:43Z</time>
      </trkpt>
      <trkpt lat="48.68388" lon="1.94681">
        <ele>173</ele>
        <time>2013-08-17T10:25:46Z</time>
      </trkpt>
      <trkpt lat="48.68388" lon="1.94677">
        <ele>173</ele>
        <time>2013-08-17T10:25:48Z</time>
      </trkpt>
      <trkpt lat="48.6839" lon="1.94674">
        <ele>173</ele>
        <time>2013-08-17T10:25:50Z</time>
      </trkpt>
      <trkpt lat="48.68391" lon="1.94669">
        <ele>173</ele>
        <time>2013-08-17T10:25:52Z</time>
      </trkpt>
      <trkpt lat="48.68391" lon="1.94664">
        <ele>173</ele>
        <time>2013-08-17T10:25:55Z</time>
      </trkpt>
      <trkpt lat="48.68393" lon="1.9466">
        <ele>173</ele>
        <time>2013-08-17T10:25:57Z</time>
      </trkpt>
      <trkpt lat="48.68394" lon="1.94657">
        <ele>173</ele>
        <time>2013-08-17T10:25:59Z</time>
      </trkpt>
      <trkpt lat="48.68395" lon="1.94653">
        <ele>173</ele>
        <time>2013-08-17T10:26:01Z</time>
      </trkpt>
      <trkpt lat="48.68395" lon="1.94647">
        <ele>173</ele>
        <time>2013-08-17T10:26:04Z</time>
      </trkpt>
      <trkpt lat="48.68396" lon="1.94641">
        <ele>174</ele>
        <time>2013-08-17T10:26:07Z</time>
      </trkpt>
      <trkpt lat="48.68399" lon="1.94638">
        <ele>175</ele>
        <time>2013-08-17T10:26:09Z</time>
      </trkpt>
      <trkpt lat="48.684" lon="1.94634">
        <ele>175</ele>
        <time>2013-08-17T10:26:11Z</time>
      </trkpt>
      <trkpt lat="48.68402" lon="1.94629">
        <ele>176</ele>
        <time>2013-08-17T10:26:14Z</time>
      </trkpt>
      <trkpt lat="48.68406" lon="1.94625">
        <ele>177</ele>
        <time>2013-08-17T10:26:16Z</time>
      </trkpt>
      <trkpt lat="48.68409" lon="1.94619">
        <ele>178</ele>
        <time>2013-08-17T10:26:19Z</time>
      </trkpt>
      <trkpt lat="48.68413" lon="1.94613">
        <ele>179</ele>
        <time>2013-08-17T10:26:22Z</time>
      </trkpt>
      <trkpt lat="48.68415" lon="1.9461">
        <ele>179</ele>
        <time>2013-08-17T10:26:24Z</time>
      </trkpt>
      <trkpt lat="48.68417" lon="1.94603">
        <ele>179</ele>
        <time>2013-08-17T10:26:27Z</time>
      </trkpt>
      <trkpt lat="48.68419" lon="1.94599">
        <ele>179</ele>
        <time>2013-08-17T10:26:30Z</time>
      </trkpt>
      <trkpt lat="48.68422" lon="1.94596">
        <ele>179</ele>
        <time>2013-08-17T10:26:32Z</time>
      </trkpt>
      <trkpt lat="48.68425" lon="1.94592">
        <ele>179</ele>
        <time>2013-08-17T10:26:34Z</time>
      </trkpt>
      <trkpt lat="48.68428" lon="1.94587">
        <ele>179</ele>
        <time>2013-08-17T10:26:36Z</time>
      </trkpt>
      <trkpt lat="48.68429" lon="1.94584">
        <ele>179</ele>
        <time>2013-08-17T10:26:38Z</time>
      </trkpt>
      <trkpt lat="48.68431" lon="1.94578">
        <ele>179</ele>
        <time>2013-08-17T10:26:41Z</time>
      </trkpt>
      <trkpt lat="48.68431" lon="1.94573">
        <ele>179</ele>
        <time>2013-08-17T10:26:43Z</time>
      </trkpt>
      <trkpt lat="48.68431" lon="1.94569">
        <ele>179</ele>
        <time>2013-08-17T10:26:45Z</time>
      </trkpt>
      <trkpt lat="48.68434" lon="1.94567">
        <ele>179</ele>
        <time>2013-08-17T10:26:47Z</time>
      </trkpt>
      <trkpt lat="48.68438" lon="1.94562">
        <ele>179</ele>
        <time>2013-08-17T10:26:50Z</time>
      </trkpt>
      <trkpt lat="48.68441" lon="1.94559">
        <ele>179</ele>
        <time>2013-08-17T10:26:52Z</time>
      </trkpt>
      <trkpt lat="48.68444" lon="1.94554">
        <ele>179</ele>
        <time>2013-08-17T10:26:55Z</time>
      </trkpt>
      <trkpt lat="48.68445" lon="1.94551">
        <ele>179</ele>
        <time>2013-08-17T10:26:57Z</time>
      </trkpt>
      <trkpt lat="48.68447" lon="1.94548">
        <ele>178</ele>
        <time>2013-08-17T10:26:59Z</time>
      </trkpt>
      <trkpt lat="48.68449" lon="1.94543">
        <ele>177</ele>
        <time>2013-08-17T10:27:01Z</time>
      </trkpt>
      <trkpt lat="48.68453" lon="1.94539">
        <ele>176</ele>
        <time>2013-08-17T10:27:04Z</time>
      </trkpt>
      <trkpt lat="48.68455" lon="1.94533">
        <ele>174</ele>
        <time>2013-08-17T10:27:08Z</time>
      </trkpt>
      <trkpt lat="48.68457" lon="1.94529">
        <ele>174</ele>
        <time>2013-08-17T10:27:10Z</time>
      </trkpt>
      <trkpt lat="48.68458" lon="1.94526">
        <ele>174</ele>
        <time>2013-08-17T10:27:12Z</time>
      </trkpt>
      <trkpt lat="48.68459" lon="1.94521">
        <ele>174</ele>
        <time>2013-08-17T10:27:14Z</time>
      </trkpt>
      <trkpt lat="48.68461" lon="1.94517">
        <ele>174</ele>
        <time>2013-08-17T10:27:17Z</time>
      </trkpt>
      <trkpt lat="48.68462" lon="1.94509">
        <ele>174</ele>
        <time>2013-08-17T10:27:20Z</time>
      </trkpt>
      <trkpt lat="48.68463" lon="1.94506">
        <ele>174</ele>
        <time>2013-08-17T10:27:22Z</time>
      </trkpt>
      <trkpt lat="48.68464" lon="1.94502">
        <ele>174</ele>
        <time>2013-08-17T10:27:24Z</time>
      </trkpt>
      <trkpt lat="48.68465" lon="1.94496">
        <ele>174</ele>
        <time>2013-08-17T10:27:27Z</time>
      </trkpt>
      <trkpt lat="48.68467" lon="1.94491">
        <ele>174</ele>
        <time>2013-08-17T10:27:32Z</time>
      </trkpt>
      <trkpt lat="48.6847" lon="1.94487">
        <ele>174</ele>
        <time>2013-08-17T10:27:34Z</time>
      </trkpt>
      <trkpt lat="48.68476" lon="1.94479">
        <ele>174</ele>
        <time>2013-08-17T10:27:37Z</time>
      </trkpt>
      <trkpt lat="48.68478" lon="1.94474">
        <ele>174</ele>
        <time>2013-08-17T10:27:39Z</time>
      </trkpt>
      <trkpt lat="48.68481" lon="1.94465">
        <ele>174</ele>
        <time>2013-08-17T10:27:42Z</time>
      </trkpt>
      <trkpt lat="48.68483" lon="1.9446">
        <ele>174</ele>
        <time>2013-08-17T10:27:44Z</time>
      </trkpt>
      <trkpt lat="48.68485" lon="1.94455">
        <ele>174</ele>
        <time>2013-08-17T10:27:48Z</time>
      </trkpt>
      <trkpt lat="48.68486" lon="1.94454">
        <ele>174</ele>
        <time>2013-08-17T10:27:50Z</time>
      </trkpt>
      <trkpt lat="48.68489" lon="1.94449">
        <ele>174</ele>
        <time>2013-08-17T10:27:52Z</time>
      </trkpt>
      <trkpt lat="48.68493" lon="1.94445">
        <ele>174</ele>
        <time>2013-08-17T10:27:54Z</time>
      </trkpt>
      <trkpt lat="48.68494" lon="1.94441">
        <ele>174</ele>
        <time>2013-08-17T10:27:56Z</time>
      </trkpt>
      <trkpt lat="48.68495" lon="1.94435">
        <ele>174</ele>
        <time>2013-08-17T10:27:59Z</time>
      </trkpt>
      <trkpt lat="48.68496" lon="1.9443">
        <ele>174</ele>
        <time>2013-08-17T10:28:01Z</time>
      </trkpt>
      <trkpt lat="48.685" lon="1.94426">
        <ele>174</ele>
        <time>2013-08-17T10:28:03Z</time>
      </trkpt>
      <trkpt lat="48.68504" lon="1.94422">
        <ele>174</ele>
        <time>2013-08-17T10:28:06Z</time>
      </trkpt>
      <trkpt lat="48.68505" lon="1.94418">
        <ele>174</ele>
        <time>2013-08-17T10:28:08Z</time>
      </trkpt>
      <trkpt lat="48.68507" lon="1.94411">
        <ele>174</ele>
        <time>2013-08-17T10:28:11Z</time>
      </trkpt>
      <trkpt lat="48.68507" lon="1.94406">
        <ele>174</ele>
        <time>2013-08-17T10:28:13Z</time>
      </trkpt>
      <trkpt lat="48.6851" lon="1.94402">
        <ele>174</ele>
        <time>2013-08-17T10:28:16Z</time>
      </trkpt>
      <trkpt lat="48.68515" lon="1.94396">
        <ele>174</ele>
        <time>2013-08-17T10:28:19Z</time>
      </trkpt>
      <trkpt lat="48.68517" lon="1.94392">
        <ele>174</ele>
        <time>2013-08-17T10:28:21Z</time>
      </trkpt>
      <trkpt lat="48.68518" lon="1.94388">
        <ele>173</ele>
        <time>2013-08-17T10:28:24Z</time>
      </trkpt>
      <trkpt lat="48.68521" lon="1.94385">
        <ele>171</ele>
        <time>2013-08-17T10:28:26Z</time>
      </trkpt>
      <trkpt lat="48.68523" lon="1.94379">
        <ele>170</ele>
        <time>2013-08-17T10:28:29Z</time>
      </trkpt>
      <trkpt lat="48.68526" lon="1.94373">
        <ele>170</ele>
        <time>2013-08-17T10:28:32Z</time>
      </trkpt>
      <trkpt lat="48.68526" lon="1.9437">
        <ele>170</ele>
        <time>2013-08-17T10:28:34Z</time>
      </trkpt>
      <trkpt lat="48.68529" lon="1.94363">
        <ele>170</ele>
        <time>2013-08-17T10:28:38Z</time>
      </trkpt>
      <trkpt lat="48.6853" lon="1.94357">
        <ele>170</ele>
        <time>2013-08-17T10:28:41Z</time>
      </trkpt>
      <trkpt lat="48.6853" lon="1.94352">
        <ele>170</ele>
        <time>2013-08-17T10:28:44Z</time>
      </trkpt>
      <trkpt lat="48.68534" lon="1.94344">
        <ele>170</ele>
        <time>2013-08-17T10:28:48Z</time>
      </trkpt>
      <trkpt lat="48.68536" lon="1.9434">
        <ele>170</ele>
        <time>2013-08-17T10:28:50Z</time>
      </trkpt>
      <trkpt lat="48.68538" lon="1.94336">
        <ele>170</ele>
        <time>2013-08-17T10:28:52Z</time>
      </trkpt>
      <trkpt lat="48.68543" lon="1.94329">
        <ele>170</ele>
        <time>2013-08-17T10:28:55Z</time>
      </trkpt>
      <trkpt lat="48.68546" lon="1.94326">
        <ele>170</ele>
        <time>2013-08-17T10:28:57Z</time>
      </trkpt>
      <trkpt lat="48.6855" lon="1.94319">
        <ele>168</ele>
        <time>2013-08-17T10:29:01Z</time>
      </trkpt>
      <trkpt lat="48.68552" lon="1.94316">
        <ele>167</ele>
        <time>2013-08-17T10:29:03Z</time>
      </trkpt>
      <trkpt lat="48.68555" lon="1.94311">
        <ele>165</ele>
        <time>2013-08-17T10:29:05Z</time>
      </trkpt>
      <trkpt lat="48.68557" lon="1.94307">
        <ele>164</ele>
        <time>2013-08-17T10:29:07Z</time>
      </trkpt>
      <trkpt lat="48.6856" lon="1.94301">
        <ele>162</ele>
        <time>2013-08-17T10:29:10Z</time>
      </trkpt>
      <trkpt lat="48.68562" lon="1.94298">
        <ele>161</ele>
        <time>2013-08-17T10:29:12Z</time>
      </trkpt>
      <trkpt lat="48.68565" lon="1.94294">
        <ele>161</ele>
        <time>2013-08-17T10:29:14Z</time>
      </trkpt>
      <trkpt lat="48.6857" lon="1.9429">
        <ele>161</ele>
        <time>2013-08-17T10:29:17Z</time>
      </trkpt>
      <trkpt lat="48.68573" lon="1.94289">
        <ele>161</ele>
        <time>2013-08-17T10:29:20Z</time>
      </trkpt>
      <trkpt lat="48.68577" lon="1.94287">
        <ele>161</ele>
        <time>2013-08-17T10:29:23Z</time>
      </trkpt>
      <trkpt lat="48.68576" lon="1.94284">
        <ele>161</ele>
        <time>2013-08-17T10:29:25Z</time>
      </trkpt>
      <trkpt lat="48.68576" lon="1.94282">
        <ele>161</ele>
        <time>2013-08-17T10:29:27Z</time>
      </trkpt>
      <trkpt lat="48.68576" lon="1.9428">
        <ele>161</ele>
        <time>2013-08-17T10:29:29Z</time>
      </trkpt>
      <trkpt lat="48.68577" lon="1.94273">
        <ele>161</ele>
        <time>2013-08-17T10:29:33Z</time>
      </trkpt>
      <trkpt lat="48.68578" lon="1.9427">
        <ele>161</ele>
        <time>2013-08-17T10:29:35Z</time>
      </trkpt>
      <trkpt lat="48.68578" lon="1.94267">
        <ele>161</ele>
        <time>2013-08-17T10:29:37Z</time>
      </trkpt>
      <trkpt lat="48.68578" lon="1.94265">
        <ele>161</ele>
        <time>2013-08-17T10:29:39Z</time>
      </trkpt>
      <trkpt lat="48.68579" lon="1.94261">
        <ele>161</ele>
        <time>2013-08-17T10:29:43Z</time>
      </trkpt>
      <trkpt lat="48.68579" lon="1.94258">
        <ele>160</ele>
        <time>2013-08-17T10:29:45Z</time>
      </trkpt>
      <trkpt lat="48.68581" lon="1.94252">
        <ele>159</ele>
        <time>2013-08-17T10:29:48Z</time>
      </trkpt>
      <trkpt lat="48.68582" lon="1.94246">
        <ele>159</ele>
        <time>2013-08-17T10:29:50Z</time>
      </trkpt>
      <trkpt lat="48.68586" lon="1.94238">
        <ele>159</ele>
        <time>2013-08-17T10:29:53Z</time>
      </trkpt>
      <trkpt lat="48.6859" lon="1.94233">
        <ele>159</ele>
        <time>2013-08-17T10:29:55Z</time>
      </trkpt>
      <trkpt lat="48.68591" lon="1.94229">
        <ele>159</ele>
        <time>2013-08-17T10:29:57Z</time>
      </trkpt>
      <trkpt lat="48.68592" lon="1.94226">
        <ele>160</ele>
        <time>2013-08-17T10:29:59Z</time>
      </trkpt>
      <trkpt lat="48.6859" lon="1.94226">
        <ele>161</ele>
        <time>2013-08-17T10:30:02Z</time>
      </trkpt>
      <trkpt lat="48.68592" lon="1.94223">
        <ele>161</ele>
        <time>2013-08-17T10:30:05Z</time>
      </trkpt>
      <trkpt lat="48.68593" lon="1.94218">
        <ele>161</ele>
        <time>2013-08-17T10:30:08Z</time>
      </trkpt>
      <trkpt lat="48.68594" lon="1.94212">
        <ele>163</ele>
        <time>2013-08-17T10:30:11Z</time>
      </trkpt>
      <trkpt lat="48.68595" lon="1.94206">
        <ele>165</ele>
        <time>2013-08-17T10:30:13Z</time>
      </trkpt>
      <trkpt lat="48.68597" lon="1.942">
        <ele>168</ele>
        <time>2013-08-17T10:30:16Z</time>
      </trkpt>
      <trkpt lat="48.686" lon="1.94193">
        <ele>171</ele>
        <time>2013-08-17T10:30:19Z</time>
      </trkpt>
      <trkpt lat="48.68602" lon="1.94189">
        <ele>173</ele>
        <time>2013-08-17T10:30:21Z</time>
      </trkpt>
      <trkpt lat="48.68605" lon="1.94184">
        <ele>175</ele>
        <time>2013-08-17T10:30:23Z</time>
      </trkpt>
      <trkpt lat="48.68607" lon="1.94179">
        <ele>175</ele>
        <time>2013-08-17T10:30:25Z</time>
      </trkpt>
      <trkpt lat="48.6861" lon="1.94173">
        <ele>175</ele>
        <time>2013-08-17T10:30:29Z</time>
      </trkpt>
      <trkpt lat="48.68614" lon="1.94169">
        <ele>175</ele>
        <time>2013-08-17T10:30:32Z</time>
      </trkpt>
      <trkpt lat="48.68615" lon="1.94166">
        <ele>175</ele>
        <time>2013-08-17T10:30:34Z</time>
      </trkpt>
      <trkpt lat="48.68618" lon="1.94159">
        <ele>175</ele>
        <time>2013-08-17T10:30:37Z</time>
      </trkpt>
      <trkpt lat="48.68621" lon="1.94152">
        <ele>175</ele>
        <time>2013-08-17T10:30:40Z</time>
      </trkpt>
      <trkpt lat="48.68622" lon="1.94148">
        <ele>175</ele>
        <time>2013-08-17T10:30:43Z</time>
      </trkpt>
      <trkpt lat="48.68623" lon="1.94145">
        <ele>175</ele>
        <time>2013-08-17T10:30:45Z</time>
      </trkpt>
      <trkpt lat="48.68625" lon="1.9414">
        <ele>175</ele>
        <time>2013-08-17T10:30:47Z</time>
      </trkpt>
      <trkpt lat="48.68627" lon="1.94132">
        <ele>175</ele>
        <time>2013-08-17T10:30:51Z</time>
      </trkpt>
      <trkpt lat="48.68629" lon="1.94128">
        <ele>175</ele>
        <time>2013-08-17T10:30:53Z</time>
      </trkpt>
      <trkpt lat="48.68631" lon="1.94124">
        <ele>175</ele>
        <time>2013-08-17T10:30:55Z</time>
      </trkpt>
      <trkpt lat="48.68634" lon="1.94121">
        <ele>175</ele>
        <time>2013-08-17T10:30:57Z</time>
      </trkpt>
      <trkpt lat="48.68638" lon="1.94116">
        <ele>175</ele>
        <time>2013-08-17T10:31:00Z</time>
      </trkpt>
      <trkpt lat="48.68641" lon="1.94111">
        <ele>175</ele>
        <time>2013-08-17T10:31:03Z</time>
      </trkpt>
      <trkpt lat="48.68643" lon="1.94107">
        <ele>175</ele>
        <time>2013-08-17T10:31:05Z</time>
      </trkpt>
      <trkpt lat="48.68645" lon="1.94103">
        <ele>175</ele>
        <time>2013-08-17T10:31:07Z</time>
      </trkpt>
      <trkpt lat="48.68646" lon="1.941">
        <ele>175</ele>
        <time>2013-08-17T10:31:09Z</time>
      </trkpt>
      <trkpt lat="48.68648" lon="1.94097">
        <ele>175</ele>
        <time>2013-08-17T10:31:11Z</time>
      </trkpt>
      <trkpt lat="48.6865" lon="1.94093">
        <ele>174</ele>
        <time>2013-08-17T10:31:13Z</time>
      </trkpt>
      <trkpt lat="48.68652" lon="1.94088">
        <ele>174</ele>
        <time>2013-08-17T10:31:15Z</time>
      </trkpt>
      <trkpt lat="48.68652" lon="1.94085">
        <ele>174</ele>
        <time>2013-08-17T10:31:17Z</time>
      </trkpt>
      <trkpt lat="48.68653" lon="1.94079">
        <ele>174</ele>
        <time>2013-08-17T10:31:20Z</time>
      </trkpt>
      <trkpt lat="48.68652" lon="1.94076">
        <ele>174</ele>
        <time>2013-08-17T10:31:23Z</time>
      </trkpt>
      <trkpt lat="48.6865" lon="1.94073">
        <ele>174</ele>
        <time>2013-08-17T10:31:25Z</time>
      </trkpt>
      <trkpt lat="48.6865" lon="1.94069">
        <ele>174</ele>
        <time>2013-08-17T10:31:27Z</time>
      </trkpt>
      <trkpt lat="48.68652" lon="1.94064">
        <ele>177</ele>
        <time>2013-08-17T10:31:30Z</time>
      </trkpt>
      <trkpt lat="48.68656" lon="1.94059">
        <ele>177</ele>
        <time>2013-08-17T10:31:33Z</time>
      </trkpt>
      <trkpt lat="48.68658" lon="1.94055">
        <ele>177</ele>
        <time>2013-08-17T10:31:35Z</time>
      </trkpt>
      <trkpt lat="48.68662" lon="1.9405">
        <ele>177</ele>
        <time>2013-08-17T10:31:38Z</time>
      </trkpt>
      <trkpt lat="48.68664" lon="1.94046">
        <ele>177</ele>
        <time>2013-08-17T10:31:41Z</time>
      </trkpt>
      <trkpt lat="48.68667" lon="1.94041">
        <ele>177</ele>
        <time>2013-08-17T10:31:44Z</time>
      </trkpt>
      <trkpt lat="48.6867" lon="1.94034">
        <ele>177</ele>
        <time>2013-08-17T10:31:47Z</time>
      </trkpt>
      <trkpt lat="48.68672" lon="1.9403">
        <ele>175</ele>
        <time>2013-08-17T10:31:49Z</time>
      </trkpt>
      <trkpt lat="48.68674" lon="1.94025">
        <ele>174</ele>
        <time>2013-08-17T10:31:53Z</time>
      </trkpt>
      <trkpt lat="48.68675" lon="1.94021">
        <ele>174</ele>
        <time>2013-08-17T10:31:55Z</time>
      </trkpt>
      <trkpt lat="48.68676" lon="1.94018">
        <ele>174</ele>
        <time>2013-08-17T10:31:57Z</time>
      </trkpt>
      <trkpt lat="48.6868" lon="1.94014">
        <ele>174</ele>
        <time>2013-08-17T10:32:00Z</time>
      </trkpt>
      <trkpt lat="48.68683" lon="1.94011">
        <ele>174</ele>
        <time>2013-08-17T10:32:02Z</time>
      </trkpt>
      <trkpt lat="48.68686" lon="1.94009">
        <ele>174</ele>
        <time>2013-08-17T10:32:04Z</time>
      </trkpt>
      <trkpt lat="48.68686" lon="1.94004">
        <ele>174</ele>
        <time>2013-08-17T10:32:07Z</time>
      </trkpt>
      <trkpt lat="48.68688" lon="1.94002">
        <ele>174</ele>
        <time>2013-08-17T10:32:09Z</time>
      </trkpt>
      <trkpt lat="48.6869" lon="1.93999">
        <ele>174</ele>
        <time>2013-08-17T10:32:11Z</time>
      </trkpt>
      <trkpt lat="48.68694" lon="1.93993">
        <ele>174</ele>
        <time>2013-08-17T10:32:14Z</time>
      </trkpt>
      <trkpt lat="48.68696" lon="1.9399">
        <ele>175</ele>
        <time>2013-08-17T10:32:16Z</time>
      </trkpt>
      <trkpt lat="48.687" lon="1.93984">
        <ele>175</ele>
        <time>2013-08-17T10:32:19Z</time>
      </trkpt>
      <trkpt lat="48.68704" lon="1.9398">
        <ele>175</ele>
        <time>2013-08-17T10:32:21Z</time>
      </trkpt>
      <trkpt lat="48.68707" lon="1.93975">
        <ele>175</ele>
        <time>2013-08-17T10:32:23Z</time>
      </trkpt>
      <trkpt lat="48.6871" lon="1.93971">
        <ele>175</ele>
        <time>2013-08-17T10:32:25Z</time>
      </trkpt>
      <trkpt lat="48.68712" lon="1.93964">
        <ele>175</ele>
        <time>2013-08-17T10:32:29Z</time>
      </trkpt>
      <trkpt lat="48.68712" lon="1.93957">
        <ele>175</ele>
        <time>2013-08-17T10:32:31Z</time>
      </trkpt>
      <trkpt lat="48.68714" lon="1.9395">
        <ele>175</ele>
        <time>2013-08-17T10:32:33Z</time>
      </trkpt>
      <trkpt lat="48.68716" lon="1.93944">
        <ele>175</ele>
        <time>2013-08-17T10:32:36Z</time>
      </trkpt>
      <trkpt lat="48.68717" lon="1.9394">
        <ele>175</ele>
        <time>2013-08-17T10:32:38Z</time>
      </trkpt>
      <trkpt lat="48.68718" lon="1.93936">
        <ele>175</ele>
        <time>2013-08-17T10:32:40Z</time>
      </trkpt>
      <trkpt lat="48.68719" lon="1.93932">
        <ele>175</ele>
        <time>2013-08-17T10:32:42Z</time>
      </trkpt>
      <trkpt lat="48.68718" lon="1.93927">
        <ele>175</ele>
        <time>2013-08-17T10:32:45Z</time>
      </trkpt>
      <trkpt lat="48.68719" lon="1.93923">
        <ele>177</ele>
        <time>2013-08-17T10:32:47Z</time>
      </trkpt>
      <trkpt lat="48.68722" lon="1.93919">
        <ele>177</ele>
        <time>2013-08-17T10:32:51Z</time>
      </trkpt>
      <trkpt lat="48.68722" lon="1.93917">
        <ele>177</ele>
        <time>2013-08-17T10:32:54Z</time>
      </trkpt>
      <trkpt lat="48.68724" lon="1.93917">
        <ele>177</ele>
        <time>2013-08-17T10:32:59Z</time>
      </trkpt>
      <trkpt lat="48.68725" lon="1.93917">
        <ele>177</ele>
        <time>2013-08-17T10:33:05Z</time>
      </trkpt>
      <trkpt lat="48.68726" lon="1.93914">
        <ele>177</ele>
        <time>2013-08-17T10:33:10Z</time>
      </trkpt>
      <trkpt lat="48.68727" lon="1.93912">
        <ele>177</ele>
        <time>2013-08-17T10:33:12Z</time>
      </trkpt>
      <trkpt lat="48.68731" lon="1.93906">
        <ele>177</ele>
        <time>2013-08-17T10:33:16Z</time>
      </trkpt>
      <trkpt lat="48.68732" lon="1.93905">
        <ele>177</ele>
        <time>2013-08-17T10:33:20Z</time>
      </trkpt>
      <trkpt lat="48.68734" lon="1.93905">
        <ele>177</ele>
        <time>2013-08-17T10:33:29Z</time>
      </trkpt>
      <trkpt lat="48.68735" lon="1.93906">
        <ele>177</ele>
        <time>2013-08-17T10:33:33Z</time>
      </trkpt>
      <trkpt lat="48.68737" lon="1.93908">
        <ele>177</ele>
        <time>2013-08-17T10:33:35Z</time>
      </trkpt>
      <trkpt lat="48.68738" lon="1.93909">
        <ele>176</ele>
        <time>2013-08-17T10:33:37Z</time>
      </trkpt>
      <trkpt lat="48.68739" lon="1.9391">
        <ele>175</ele>
        <time>2013-08-17T10:33:40Z</time>
      </trkpt>
      <trkpt lat="48.6874" lon="1.93913">
        <ele>175</ele>
        <time>2013-08-17T10:33:43Z</time>
      </trkpt>
      <trkpt lat="48.68741" lon="1.93916">
        <ele>175</ele>
        <time>2013-08-17T10:33:45Z</time>
      </trkpt>
      <trkpt lat="48.68742" lon="1.93919">
        <ele>175</ele>
        <time>2013-08-17T10:33:47Z</time>
      </trkpt>
      <trkpt lat="48.68742" lon="1.93916">
        <ele>175</ele>
        <time>2013-08-17T10:33:52Z</time>
      </trkpt>
      <trkpt lat="48.68744" lon="1.93913">
        <ele>175</ele>
        <time>2013-08-17T10:33:57Z</time>
      </trkpt>
      <trkpt lat="48.68745" lon="1.93911">
        <ele>175</ele>
        <time>2013-08-17T10:34:02Z</time>
      </trkpt>
      <trkpt lat="48.68744" lon="1.9391">
        <ele>174</ele>
        <time>2013-08-17T10:34:06Z</time>
      </trkpt>
      <trkpt lat="48.68742" lon="1.9391">
        <ele>174</ele>
        <time>2013-08-17T10:34:09Z</time>
      </trkpt>
      <trkpt lat="48.6874" lon="1.93915">
        <ele>174</ele>
        <time>2013-08-17T10:34:12Z</time>
      </trkpt>
      <trkpt lat="48.68738" lon="1.93918">
        <ele>174</ele>
        <time>2013-08-17T10:34:14Z</time>
      </trkpt>
      <trkpt lat="48.68735" lon="1.9392">
        <ele>174</ele>
        <time>2013-08-17T10:34:16Z</time>
      </trkpt>
      <trkpt lat="48.68734" lon="1.93923">
        <ele>174</ele>
        <time>2013-08-17T10:34:18Z</time>
      </trkpt>
      <trkpt lat="48.68731" lon="1.93925">
        <ele>174</ele>
        <time>2013-08-17T10:34:20Z</time>
      </trkpt>
      <trkpt lat="48.68728" lon="1.93926">
        <ele>174</ele>
        <time>2013-08-17T10:34:22Z</time>
      </trkpt>
      <trkpt lat="48.68724" lon="1.93928">
        <ele>174</ele>
        <time>2013-08-17T10:34:24Z</time>
      </trkpt>
      <trkpt lat="48.68717" lon="1.93931">
        <ele>174</ele>
        <time>2013-08-17T10:34:28Z</time>
      </trkpt>
      <trkpt lat="48.68714" lon="1.93931">
        <ele>174</ele>
        <time>2013-08-17T10:34:30Z</time>
      </trkpt>
      <trkpt lat="48.68708" lon="1.93931">
        <ele>174</ele>
        <time>2013-08-17T10:34:33Z</time>
      </trkpt>
      <trkpt lat="48.68704" lon="1.9393">
        <ele>173</ele>
        <time>2013-08-17T10:34:35Z</time>
      </trkpt>
      <trkpt lat="48.687" lon="1.93928">
        <ele>172</ele>
        <time>2013-08-17T10:34:37Z</time>
      </trkpt>
      <trkpt lat="48.68696" lon="1.93927">
        <ele>171</ele>
        <time>2013-08-17T10:34:39Z</time>
      </trkpt>
      <trkpt lat="48.68693" lon="1.93926">
        <ele>171</ele>
        <time>2013-08-17T10:34:41Z</time>
      </trkpt>
      <trkpt lat="48.68692" lon="1.93927">
        <ele>170</ele>
        <time>2013-08-17T10:34:43Z</time>
      </trkpt>
      <trkpt lat="48.68689" lon="1.93929">
        <ele>169</ele>
        <time>2013-08-17T10:34:45Z</time>
      </trkpt>
      <trkpt lat="48.68685" lon="1.93927">
        <ele>168</ele>
        <time>2013-08-17T10:34:48Z</time>
      </trkpt>
      <trkpt lat="48.68682" lon="1.93924">
        <ele>167</ele>
        <time>2013-08-17T10:34:50Z</time>
      </trkpt>
      <trkpt lat="48.68679" lon="1.93922">
        <ele>167</ele>
        <time>2013-08-17T10:34:52Z</time>
      </trkpt>
      <trkpt lat="48.68674" lon="1.93921">
        <ele>167</ele>
        <time>2013-08-17T10:34:55Z</time>
      </trkpt>
      <trkpt lat="48.6867" lon="1.9392">
        <ele>167</ele>
        <time>2013-08-17T10:34:57Z</time>
      </trkpt>
      <trkpt lat="48.68667" lon="1.93919">
        <ele>167</ele>
        <time>2013-08-17T10:35:01Z</time>
      </trkpt>
      <trkpt lat="48.68662" lon="1.93916">
        <ele>167</ele>
        <time>2013-08-17T10:35:04Z</time>
      </trkpt>
      <trkpt lat="48.68655" lon="1.93912">
        <ele>167</ele>
        <time>2013-08-17T10:35:07Z</time>
      </trkpt>
      <trkpt lat="48.6865" lon="1.93906">
        <ele>167</ele>
        <time>2013-08-17T10:35:10Z</time>
      </trkpt>
      <trkpt lat="48.68647" lon="1.93904">
        <ele>167</ele>
        <time>2013-08-17T10:35:13Z</time>
      </trkpt>
      <trkpt lat="48.68645" lon="1.93903">
        <ele>167</ele>
        <time>2013-08-17T10:35:15Z</time>
      </trkpt>
      <trkpt lat="48.68642" lon="1.93902">
        <ele>167</ele>
        <time>2013-08-17T10:35:18Z</time>
      </trkpt>
      <trkpt lat="48.6864" lon="1.93902">
        <ele>167</ele>
        <time>2013-08-17T10:35:21Z</time>
      </trkpt>
      <trkpt lat="48.68638" lon="1.93902">
        <ele>167</ele>
        <time>2013-08-17T10:35:23Z</time>
      </trkpt>
      <trkpt lat="48.68635" lon="1.93902">
        <ele>167</ele>
        <time>2013-08-17T10:35:25Z</time>
      </trkpt>
      <trkpt lat="48.68632" lon="1.93904">
        <ele>167</ele>
        <time>2013-08-17T10:35:28Z</time>
      </trkpt>
      <trkpt lat="48.68628" lon="1.93906">
        <ele>167</ele>
        <time>2013-08-17T10:35:31Z</time>
      </trkpt>
      <trkpt lat="48.68623" lon="1.93911">
        <ele>167</ele>
        <time>2013-08-17T10:35:35Z</time>
      </trkpt>
      <trkpt lat="48.6862" lon="1.93914">
        <ele>167</ele>
        <time>2013-08-17T10:35:37Z</time>
      </trkpt>
      <trkpt lat="48.68616" lon="1.93918">
        <ele>167</ele>
        <time>2013-08-17T10:35:41Z</time>
      </trkpt>
      <trkpt lat="48.68611" lon="1.9392">
        <ele>167</ele>
        <time>2013-08-17T10:35:43Z</time>
      </trkpt>
      <trkpt lat="48.68607" lon="1.93922">
        <ele>167</ele>
        <time>2013-08-17T10:35:45Z</time>
      </trkpt>
      <trkpt lat="48.68604" lon="1.93923">
        <ele>167</ele>
        <time>2013-08-17T10:35:47Z</time>
      </trkpt>
      <trkpt lat="48.68602" lon="1.93924">
        <ele>167</ele>
        <time>2013-08-17T10:35:49Z</time>
      </trkpt>
      <trkpt lat="48.68598" lon="1.93925">
        <ele>167</ele>
        <time>2013-08-17T10:35:51Z</time>
      </trkpt>
      <trkpt lat="48.68595" lon="1.93927">
        <ele>167</ele>
        <time>2013-08-17T10:35:53Z</time>
      </trkpt>
      <trkpt lat="48.68592" lon="1.93927">
        <ele>167</ele>
        <time>2013-08-17T10:35:55Z</time>
      </trkpt>
      <trkpt lat="48.68586" lon="1.93929">
        <ele>167</ele>
        <time>2013-08-17T10:35:58Z</time>
      </trkpt>
      <trkpt lat="48.68584" lon="1.93929">
        <ele>166</ele>
        <time>2013-08-17T10:36:00Z</time>
      </trkpt>
      <trkpt lat="48.68581" lon="1.9393">
        <ele>166</ele>
        <time>2013-08-17T10:36:02Z</time>
      </trkpt>
      <trkpt lat="48.68578" lon="1.93933">
        <ele>166</ele>
        <time>2013-08-17T10:36:05Z</time>
      </trkpt>
      <trkpt lat="48.68576" lon="1.93935">
        <ele>165</ele>
        <time>2013-08-17T10:36:07Z</time>
      </trkpt>
      <trkpt lat="48.68573" lon="1.93938">
        <ele>165</ele>
        <time>2013-08-17T10:36:09Z</time>
      </trkpt>
      <trkpt lat="48.6857" lon="1.93942">
        <ele>165</ele>
        <time>2013-08-17T10:36:11Z</time>
      </trkpt>
      <trkpt lat="48.68566" lon="1.93948">
        <ele>165</ele>
        <time>2013-08-17T10:36:14Z</time>
      </trkpt>
      <trkpt lat="48.68563" lon="1.9395">
        <ele>165</ele>
        <time>2013-08-17T10:36:16Z</time>
      </trkpt>
      <trkpt lat="48.6856" lon="1.93953">
        <ele>165</ele>
        <time>2013-08-17T10:36:19Z</time>
      </trkpt>
      <trkpt lat="48.68558" lon="1.93954">
        <ele>165</ele>
        <time>2013-08-17T10:36:21Z</time>
      </trkpt>
      <trkpt lat="48.68555" lon="1.93956">
        <ele>164</ele>
        <time>2013-08-17T10:36:23Z</time>
      </trkpt>
      <trkpt lat="48.68553" lon="1.93959">
        <ele>164</ele>
        <time>2013-08-17T10:36:25Z</time>
      </trkpt>
      <trkpt lat="48.6855" lon="1.93963">
        <ele>163</ele>
        <time>2013-08-17T10:36:28Z</time>
      </trkpt>
      <trkpt lat="48.68548" lon="1.93966">
        <ele>163</ele>
        <time>2013-08-17T10:36:30Z</time>
      </trkpt>
      <trkpt lat="48.68545" lon="1.9397">
        <ele>163</ele>
        <time>2013-08-17T10:36:32Z</time>
      </trkpt>
      <trkpt lat="48.68542" lon="1.93973">
        <ele>162</ele>
        <time>2013-08-17T10:36:35Z</time>
      </trkpt>
      <trkpt lat="48.68538" lon="1.93978">
        <ele>162</ele>
        <time>2013-08-17T10:36:39Z</time>
      </trkpt>
      <trkpt lat="48.68535" lon="1.93983">
        <ele>162</ele>
        <time>2013-08-17T10:36:42Z</time>
      </trkpt>
      <trkpt lat="48.68532" lon="1.93986">
        <ele>161</ele>
        <time>2013-08-17T10:36:44Z</time>
      </trkpt>
      <trkpt lat="48.68529" lon="1.93991">
        <ele>160</ele>
        <time>2013-08-17T10:36:47Z</time>
      </trkpt>
      <trkpt lat="48.68526" lon="1.93994">
        <ele>160</ele>
        <time>2013-08-17T10:36:49Z</time>
      </trkpt>
      <trkpt lat="48.68524" lon="1.93997">
        <ele>160</ele>
        <time>2013-08-17T10:36:51Z</time>
      </trkpt>
      <trkpt lat="48.6852" lon="1.93999">
        <ele>160</ele>
        <time>2013-08-17T10:36:53Z</time>
      </trkpt>
      <trkpt lat="48.68518" lon="1.94">
        <ele>160</ele>
        <time>2013-08-17T10:36:55Z</time>
      </trkpt>
      <trkpt lat="48.68514" lon="1.94003">
        <ele>159</ele>
        <time>2013-08-17T10:36:58Z</time>
      </trkpt>
      <trkpt lat="48.68511" lon="1.94005">
        <ele>159</ele>
        <time>2013-08-17T10:37:00Z</time>
      </trkpt>
      <trkpt lat="48.68507" lon="1.94008">
        <ele>158</ele>
        <time>2013-08-17T10:37:03Z</time>
      </trkpt>
      <trkpt lat="48.68504" lon="1.94011">
        <ele>158</ele>
        <time>2013-08-17T10:37:05Z</time>
      </trkpt>
      <trkpt lat="48.68502" lon="1.94013">
        <ele>158</ele>
        <time>2013-08-17T10:37:07Z</time>
      </trkpt>
      <trkpt lat="48.68499" lon="1.94016">
        <ele>158</ele>
        <time>2013-08-17T10:37:09Z</time>
      </trkpt>
      <trkpt lat="48.68495" lon="1.94019">
        <ele>158</ele>
        <time>2013-08-17T10:37:12Z</time>
      </trkpt>
      <trkpt lat="48.68492" lon="1.94022">
        <ele>158</ele>
        <time>2013-08-17T10:37:14Z</time>
      </trkpt>
      <trkpt lat="48.68489" lon="1.94028">
        <ele>158</ele>
        <time>2013-08-17T10:37:17Z</time>
      </trkpt>
      <trkpt lat="48.68486" lon="1.94034">
        <ele>158</ele>
        <time>2013-08-17T10:37:19Z</time>
      </trkpt>
      <trkpt lat="48.68482" lon="1.94039">
        <ele>158</ele>
        <time>2013-08-17T10:37:22Z</time>
      </trkpt>
      <trkpt lat="48.68479" lon="1.94043">
        <ele>158</ele>
        <time>2013-08-17T10:37:25Z</time>
      </trkpt>
      <trkpt lat="48.68478" lon="1.94044">
        <ele>158</ele>
        <time>2013-08-17T10:37:27Z</time>
      </trkpt>
      <trkpt lat="48.68476" lon="1.94046">
        <ele>158</ele>
        <time>2013-08-17T10:37:30Z</time>
      </trkpt>
      <trkpt lat="48.68474" lon="1.94048">
        <ele>158</ele>
        <time>2013-08-17T10:37:32Z</time>
      </trkpt>
      <trkpt lat="48.68471" lon="1.94052">
        <ele>158</ele>
        <time>2013-08-17T10:37:36Z</time>
      </trkpt>
      <trkpt lat="48.6847" lon="1.94056">
        <ele>158</ele>
        <time>2013-08-17T10:37:38Z</time>
      </trkpt>
      <trkpt lat="48.68471" lon="1.9406">
        <ele>158</ele>
        <time>2013-08-17T10:37:40Z</time>
      </trkpt>
      <trkpt lat="48.68472" lon="1.94064">
        <ele>158</ele>
        <time>2013-08-17T10:37:45Z</time>
      </trkpt>
      <trkpt lat="48.68472" lon="1.94067">
        <ele>158</ele>
        <time>2013-08-17T10:37:49Z</time>
      </trkpt>
      <trkpt lat="48.68472" lon="1.9407">
        <ele>158</ele>
        <time>2013-08-17T10:37:51Z</time>
      </trkpt>
      <trkpt lat="48.68472" lon="1.94074">
        <ele>158</ele>
        <time>2013-08-17T10:37:53Z</time>
      </trkpt>
      <trkpt lat="48.68472" lon="1.94077">
        <ele>158</ele>
        <time>2013-08-17T10:37:55Z</time>
      </trkpt>
      <trkpt lat="48.68472" lon="1.94078">
        <ele>159</ele>
        <time>2013-08-17T10:37:58Z</time>
      </trkpt>
      <trkpt lat="48.68471" lon="1.94079">
        <ele>159</ele>
        <time>2013-08-17T10:38:01Z</time>
      </trkpt>
      <trkpt lat="48.6847" lon="1.94081">
        <ele>159</ele>
        <time>2013-08-17T10:38:04Z</time>
      </trkpt>
      <trkpt lat="48.68469" lon="1.94081">
        <ele>159</ele>
        <time>2013-08-17T10:38:08Z</time>
      </trkpt>
      <trkpt lat="48.68468" lon="1.94084">
        <ele>159</ele>
        <time>2013-08-17T10:38:13Z</time>
      </trkpt>
      <trkpt lat="48.68469" lon="1.94086">
        <ele>159</ele>
        <time>2013-08-17T10:38:15Z</time>
      </trkpt>
      <trkpt lat="48.68471" lon="1.9409">
        <ele>159</ele>
        <time>2013-08-17T10:38:18Z</time>
      </trkpt>
      <trkpt lat="48.68471" lon="1.94095">
        <ele>159</ele>
        <time>2013-08-17T10:38:20Z</time>
      </trkpt>
      <trkpt lat="48.6847" lon="1.94099">
        <ele>159</ele>
        <time>2013-08-17T10:38:22Z</time>
      </trkpt>
      <trkpt lat="48.6847" lon="1.94101">
        <ele>159</ele>
        <time>2013-08-17T10:38:24Z</time>
      </trkpt>
      <trkpt lat="48.6847" lon="1.94106">
        <ele>159</ele>
        <time>2013-08-17T10:38:28Z</time>
      </trkpt>
      <trkpt lat="48.68469" lon="1.94111">
        <ele>159</ele>
        <time>2013-08-17T10:38:31Z</time>
      </trkpt>
      <trkpt lat="48.68468" lon="1.94115">
        <ele>159</ele>
        <time>2013-08-17T10:38:35Z</time>
      </trkpt>
      <trkpt lat="48.68467" lon="1.94119">
        <ele>158</ele>
        <time>2013-08-17T10:38:38Z</time>
      </trkpt>
      <trkpt lat="48.68465" lon="1.94121">
        <ele>157</ele>
        <time>2013-08-17T10:38:40Z</time>
      </trkpt>
      <trkpt lat="48.68463" lon="1.94123">
        <ele>156</ele>
        <time>2013-08-17T10:38:42Z</time>
      </trkpt>
      <trkpt lat="48.68461" lon="1.94125">
        <ele>154</ele>
        <time>2013-08-17T10:38:44Z</time>
      </trkpt>
      <trkpt lat="48.68458" lon="1.94129">
        <ele>153</ele>
        <time>2013-08-17T10:38:48Z</time>
      </trkpt>
      <trkpt lat="48.68456" lon="1.9413">
        <ele>153</ele>
        <time>2013-08-17T10:38:50Z</time>
      </trkpt>
      <trkpt lat="48.68454" lon="1.94129">
        <ele>152</ele>
        <time>2013-08-17T10:38:54Z</time>
      </trkpt>
      <trkpt lat="48.68452" lon="1.9413">
        <ele>151</ele>
        <time>2013-08-17T10:38:56Z</time>
      </trkpt>
      <trkpt lat="48.68449" lon="1.9413">
        <ele>149</ele>
        <time>2013-08-17T10:39:00Z</time>
      </trkpt>
      <trkpt lat="48.68445" lon="1.9413">
        <ele>147</ele>
        <time>2013-08-17T10:39:04Z</time>
      </trkpt>
      <trkpt lat="48.68442" lon="1.9413">
        <ele>145</ele>
        <time>2013-08-17T10:39:08Z</time>
      </trkpt>
      <trkpt lat="48.68439" lon="1.94129">
        <ele>144</ele>
        <time>2013-08-17T10:39:12Z</time>
      </trkpt>
      <trkpt lat="48.68436" lon="1.9413">
        <ele>144</ele>
        <time>2013-08-17T10:39:16Z</time>
      </trkpt>
      <trkpt lat="48.68433" lon="1.94129">
        <ele>144</ele>
        <time>2013-08-17T10:39:20Z</time>
      </trkpt>
      <trkpt lat="48.68432" lon="1.94127">
        <ele>143</ele>
        <time>2013-08-17T10:39:23Z</time>
      </trkpt>
      <trkpt lat="48.68427" lon="1.94127">
        <ele>143</ele>
        <time>2013-08-17T10:39:27Z</time>
      </trkpt>
      <trkpt lat="48.68422" lon="1.9413">
        <ele>142</ele>
        <time>2013-08-17T10:39:31Z</time>
      </trkpt>
      <trkpt lat="48.6842" lon="1.94132">
        <ele>141</ele>
        <time>2013-08-17T10:39:33Z</time>
      </trkpt>
      <trkpt lat="48.68418" lon="1.94133">
        <ele>141</ele>
        <time>2013-08-17T10:39:36Z</time>
      </trkpt>
      <trkpt lat="48.68415" lon="1.94134">
        <ele>141</ele>
        <time>2013-08-17T10:39:39Z</time>
      </trkpt>
      <trkpt lat="48.68412" lon="1.94135">
        <ele>140</ele>
        <time>2013-08-17T10:39:41Z</time>
      </trkpt>
      <trkpt lat="48.68411" lon="1.94136">
        <ele>139</ele>
        <time>2013-08-17T10:39:43Z</time>
      </trkpt>
      <trkpt lat="48.68406" lon="1.94138">
        <ele>138</ele>
        <time>2013-08-17T10:39:47Z</time>
      </trkpt>
      <trkpt lat="48.68405" lon="1.94141">
        <ele>136</ele>
        <time>2013-08-17T10:39:52Z</time>
      </trkpt>
      <trkpt lat="48.68404" lon="1.94143">
        <ele>136</ele>
        <time>2013-08-17T10:39:54Z</time>
      </trkpt>
      <trkpt lat="48.68401" lon="1.94146">
        <ele>136</ele>
        <time>2013-08-17T10:39:57Z</time>
      </trkpt>
      <trkpt lat="48.684" lon="1.94151">
        <ele>136</ele>
        <time>2013-08-17T10:40:00Z</time>
      </trkpt>
      <trkpt lat="48.68397" lon="1.94154">
        <ele>135</ele>
        <time>2013-08-17T10:40:02Z</time>
      </trkpt>
      <trkpt lat="48.68395" lon="1.94156">
        <ele>135</ele>
        <time>2013-08-17T10:40:04Z</time>
      </trkpt>
      <trkpt lat="48.68392" lon="1.94158">
        <ele>134</ele>
        <time>2013-08-17T10:40:07Z</time>
      </trkpt>
      <trkpt lat="48.68391" lon="1.94159">
        <ele>134</ele>
        <time>2013-08-17T10:40:09Z</time>
      </trkpt>
      <trkpt lat="48.68389" lon="1.9416">
        <ele>134</ele>
        <time>2013-08-17T10:40:11Z</time>
      </trkpt>
      <trkpt lat="48.68387" lon="1.9416">
        <ele>134</ele>
        <time>2013-08-17T10:40:13Z</time>
      </trkpt>
      <trkpt lat="48.68386" lon="1.94161">
        <ele>133</ele>
        <time>2013-08-17T10:40:16Z</time>
      </trkpt>
      <trkpt lat="48.68383" lon="1.94161">
        <ele>132</ele>
        <time>2013-08-17T10:40:19Z</time>
      </trkpt>
      <trkpt lat="48.68381" lon="1.9416">
        <ele>132</ele>
        <time>2013-08-17T10:40:22Z</time>
      </trkpt>
      <trkpt lat="48.68379" lon="1.94158">
        <ele>132</ele>
        <time>2013-08-17T10:40:24Z</time>
      </trkpt>
      <trkpt lat="48.68377" lon="1.94158">
        <ele>132</ele>
        <time>2013-08-17T10:40:26Z</time>
      </trkpt>
      <trkpt lat="48.68374" lon="1.94159">
        <ele>132</ele>
        <time>2013-08-17T10:40:28Z</time>
      </trkpt>
      <trkpt lat="48.68368" lon="1.94159">
        <ele>132</ele>
        <time>2013-08-17T10:40:31Z</time>
      </trkpt>
      <trkpt lat="48.68364" lon="1.9416">
        <ele>132</ele>
        <time>2013-08-17T10:40:33Z</time>
      </trkpt>
      <trkpt lat="48.68357" lon="1.9416">
        <ele>132</ele>
        <time>2013-08-17T10:40:36Z</time>
      </trkpt>
      <trkpt lat="48.68352" lon="1.94162">
        <ele>132</ele>
        <time>2013-08-17T10:40:38Z</time>
      </trkpt>
      <trkpt lat="48.68348" lon="1.94163">
        <ele>132</ele>
        <time>2013-08-17T10:40:40Z</time>
      </trkpt>
      <trkpt lat="48.68346" lon="1.94165">
        <ele>130</ele>
        <time>2013-08-17T10:40:43Z</time>
      </trkpt>
      <trkpt lat="48.68345" lon="1.94167">
        <ele>128</ele>
        <time>2013-08-17T10:40:45Z</time>
      </trkpt>
      <trkpt lat="48.6834" lon="1.94171">
        <ele>127</ele>
        <time>2013-08-17T10:40:48Z</time>
      </trkpt>
      <trkpt lat="48.68336" lon="1.94175">
        <ele>127</ele>
        <time>2013-08-17T10:40:50Z</time>
      </trkpt>
      <trkpt lat="48.68333" lon="1.94175">
        <ele>127</ele>
        <time>2013-08-17T10:40:53Z</time>
      </trkpt>
      <trkpt lat="48.68329" lon="1.94172">
        <ele>126</ele>
        <time>2013-08-17T10:40:55Z</time>
      </trkpt>
      <trkpt lat="48.68326" lon="1.94165">
        <ele>126</ele>
        <time>2013-08-17T10:40:57Z</time>
      </trkpt>
      <trkpt lat="48.68325" lon="1.94155">
        <ele>126</ele>
        <time>2013-08-17T10:41:00Z</time>
      </trkpt>
      <trkpt lat="48.68326" lon="1.94151">
        <ele>126</ele>
        <time>2013-08-17T10:41:02Z</time>
      </trkpt>
      <trkpt lat="48.68328" lon="1.94142">
        <ele>126</ele>
        <time>2013-08-17T10:41:05Z</time>
      </trkpt>
      <trkpt lat="48.68329" lon="1.94133">
        <ele>124</ele>
        <time>2013-08-17T10:41:08Z</time>
      </trkpt>
      <trkpt lat="48.68328" lon="1.94128">
        <ele>123</ele>
        <time>2013-08-17T10:41:10Z</time>
      </trkpt>
      <trkpt lat="48.68326" lon="1.94122">
        <ele>123</ele>
        <time>2013-08-17T10:41:12Z</time>
      </trkpt>
      <trkpt lat="48.68325" lon="1.94115">
        <ele>123</ele>
        <time>2013-08-17T10:41:15Z</time>
      </trkpt>
      <trkpt lat="48.68326" lon="1.9411">
        <ele>123</ele>
        <time>2013-08-17T10:41:17Z</time>
      </trkpt>
      <trkpt lat="48.68327" lon="1.94103">
        <ele>123</ele>
        <time>2013-08-17T10:41:20Z</time>
      </trkpt>
      <trkpt lat="48.68328" lon="1.94098">
        <ele>123</ele>
        <time>2013-08-17T10:41:22Z</time>
      </trkpt>
      <trkpt lat="48.6833" lon="1.94092">
        <ele>123</ele>
        <time>2013-08-17T10:41:24Z</time>
      </trkpt>
      <trkpt lat="48.6833" lon="1.94088">
        <ele>123</ele>
        <time>2013-08-17T10:41:26Z</time>
      </trkpt>
      <trkpt lat="48.68332" lon="1.94081">
        <ele>123</ele>
        <time>2013-08-17T10:41:28Z</time>
      </trkpt>
      <trkpt lat="48.68333" lon="1.94076">
        <ele>123</ele>
        <time>2013-08-17T10:41:30Z</time>
      </trkpt>
      <trkpt lat="48.68335" lon="1.94071">
        <ele>123</ele>
        <time>2013-08-17T10:41:32Z</time>
      </trkpt>
      <trkpt lat="48.68336" lon="1.94066">
        <ele>122</ele>
        <time>2013-08-17T10:41:34Z</time>
      </trkpt>
      <trkpt lat="48.68338" lon="1.94061">
        <ele>122</ele>
        <time>2013-08-17T10:41:36Z</time>
      </trkpt>
      <trkpt lat="48.68342" lon="1.94053">
        <ele>122</ele>
        <time>2013-08-17T10:41:39Z</time>
      </trkpt>
      <trkpt lat="48.68343" lon="1.94048">
        <ele>122</ele>
        <time>2013-08-17T10:41:41Z</time>
      </trkpt>
      <trkpt lat="48.68344" lon="1.94044">
        <ele>122</ele>
        <time>2013-08-17T10:41:43Z</time>
      </trkpt>
      <trkpt lat="48.68344" lon="1.94039">
        <ele>122</ele>
        <time>2013-08-17T10:41:45Z</time>
      </trkpt>
      <trkpt lat="48.68345" lon="1.94032">
        <ele>122</ele>
        <time>2013-08-17T10:41:48Z</time>
      </trkpt>
      <trkpt lat="48.68346" lon="1.94028">
        <ele>122</ele>
        <time>2013-08-17T10:41:50Z</time>
      </trkpt>
      <trkpt lat="48.68346" lon="1.94021">
        <ele>122</ele>
        <time>2013-08-17T10:41:53Z</time>
      </trkpt>
      <trkpt lat="48.68348" lon="1.94015">
        <ele>122</ele>
        <time>2013-08-17T10:41:56Z</time>
      </trkpt>
      <trkpt lat="48.6835" lon="1.9401">
        <ele>122</ele>
        <time>2013-08-17T10:41:59Z</time>
      </trkpt>
      <trkpt lat="48.68352" lon="1.94007">
        <ele>122</ele>
        <time>2013-08-17T10:42:01Z</time>
      </trkpt>
      <trkpt lat="48.68354" lon="1.94003">
        <ele>122</ele>
        <time>2013-08-17T10:42:03Z</time>
      </trkpt>
      <trkpt lat="48.68354" lon="1.93999">
        <ele>122</ele>
        <time>2013-08-17T10:42:05Z</time>
      </trkpt>
      <trkpt lat="48.68361" lon="1.93993">
        <ele>122</ele>
        <time>2013-08-17T10:42:09Z</time>
      </trkpt>
      <trkpt lat="48.68359" lon="1.93988">
        <ele>123</ele>
        <time>2013-08-17T10:42:11Z</time>
      </trkpt>
      <trkpt lat="48.68361" lon="1.93985">
        <ele>125</ele>
        <time>2013-08-17T10:42:14Z</time>
      </trkpt>
      <trkpt lat="48.68364" lon="1.93983">
        <ele>125</ele>
        <time>2013-08-17T10:42:16Z</time>
      </trkpt>
      <trkpt lat="48.68366" lon="1.93979">
        <ele>125</ele>
        <time>2013-08-17T10:42:18Z</time>
      </trkpt>
      <trkpt lat="48.68366" lon="1.93975">
        <ele>125</ele>
        <time>2013-08-17T10:42:20Z</time>
      </trkpt>
      <trkpt lat="48.6837" lon="1.93971">
        <ele>125</ele>
        <time>2013-08-17T10:42:23Z</time>
      </trkpt>
      <trkpt lat="48.68372" lon="1.93967">
        <ele>125</ele>
        <time>2013-08-17T10:42:25Z</time>
      </trkpt>
      <trkpt lat="48.68375" lon="1.93964">
        <ele>125</ele>
        <time>2013-08-17T10:42:27Z</time>
      </trkpt>
      <trkpt lat="48.68377" lon="1.93959">
        <ele>125</ele>
        <time>2013-08-17T10:42:29Z</time>
      </trkpt>
      <trkpt lat="48.6838" lon="1.93954">
        <ele>125</ele>
        <time>2013-08-17T10:42:32Z</time>
      </trkpt>
      <trkpt lat="48.68385" lon="1.93949">
        <ele>125</ele>
        <time>2013-08-17T10:42:35Z</time>
      </trkpt>
      <trkpt lat="48.68388" lon="1.93947">
        <ele>123</ele>
        <time>2013-08-17T10:42:37Z</time>
      </trkpt>
      <trkpt lat="48.68391" lon="1.93944">
        <ele>122</ele>
        <time>2013-08-17T10:42:39Z</time>
      </trkpt>
      <trkpt lat="48.68391" lon="1.93941">
        <ele>122</ele>
        <time>2013-08-17T10:42:41Z</time>
      </trkpt>
      <trkpt lat="48.68393" lon="1.93939">
        <ele>122</ele>
        <time>2013-08-17T10:42:43Z</time>
      </trkpt>
      <trkpt lat="48.68394" lon="1.93935">
        <ele>122</ele>
        <time>2013-08-17T10:42:46Z</time>
      </trkpt>
      <trkpt lat="48.68394" lon="1.93932">
        <ele>122</ele>
        <time>2013-08-17T10:42:48Z</time>
      </trkpt>
      <trkpt lat="48.68397" lon="1.9393">
        <ele>124</ele>
        <time>2013-08-17T10:42:50Z</time>
      </trkpt>
      <trkpt lat="48.684" lon="1.93927">
        <ele>126</ele>
        <time>2013-08-17T10:42:54Z</time>
      </trkpt>
      <trkpt lat="48.68402" lon="1.93925">
        <ele>126</ele>
        <time>2013-08-17T10:42:56Z</time>
      </trkpt>
      <trkpt lat="48.68407" lon="1.93922">
        <ele>127</ele>
        <time>2013-08-17T10:42:59Z</time>
      </trkpt>
      <trkpt lat="48.68417" lon="1.93918">
        <ele>127</ele>
        <time>2013-08-17T10:43:01Z</time>
      </trkpt>
      <trkpt lat="48.68421" lon="1.93913">
        <ele>126</ele>
        <time>2013-08-17T10:43:03Z</time>
      </trkpt>
      <trkpt lat="48.68424" lon="1.93909">
        <ele>123</ele>
        <time>2013-08-17T10:43:06Z</time>
      </trkpt>
      <trkpt lat="48.68427" lon="1.93904">
        <ele>122</ele>
        <time>2013-08-17T10:43:08Z</time>
      </trkpt>
      <trkpt lat="48.68425" lon="1.939">
        <ele>122</ele>
        <time>2013-08-17T10:43:10Z</time>
      </trkpt>
      <trkpt lat="48.68421" lon="1.93897">
        <ele>122</ele>
        <time>2013-08-17T10:43:12Z</time>
      </trkpt>
      <trkpt lat="48.68422" lon="1.93892">
        <ele>123</ele>
        <time>2013-08-17T10:43:15Z</time>
      </trkpt>
      <trkpt lat="48.68423" lon="1.93889">
        <ele>125</ele>
        <time>2013-08-17T10:43:17Z</time>
      </trkpt>
      <trkpt lat="48.68424" lon="1.93885">
        <ele>127</ele>
        <time>2013-08-17T10:43:19Z</time>
      </trkpt>
      <trkpt lat="48.68426" lon="1.93879">
        <ele>128</ele>
        <time>2013-08-17T10:43:22Z</time>
      </trkpt>
      <trkpt lat="48.68428" lon="1.93874">
        <ele>128</ele>
        <time>2013-08-17T10:43:24Z</time>
      </trkpt>
      <trkpt lat="48.6843" lon="1.93869">
        <ele>129</ele>
        <time>2013-08-17T10:43:26Z</time>
      </trkpt>
      <trkpt lat="48.68435" lon="1.93864">
        <ele>129</ele>
        <time>2013-08-17T10:43:29Z</time>
      </trkpt>
      <trkpt lat="48.68438" lon="1.9386">
        <ele>129</ele>
        <time>2013-08-17T10:43:32Z</time>
      </trkpt>
      <trkpt lat="48.68438" lon="1.93856">
        <ele>129</ele>
        <time>2013-08-17T10:43:34Z</time>
      </trkpt>
      <trkpt lat="48.68441" lon="1.93851">
        <ele>131</ele>
        <time>2013-08-17T10:43:37Z</time>
      </trkpt>
      <trkpt lat="48.68444" lon="1.93849">
        <ele>131</ele>
        <time>2013-08-17T10:43:39Z</time>
      </trkpt>
      <trkpt lat="48.68446" lon="1.93844">
        <ele>131</ele>
        <time>2013-08-17T10:43:41Z</time>
      </trkpt>
      <trkpt lat="48.68449" lon="1.9384">
        <ele>131</ele>
        <time>2013-08-17T10:43:43Z</time>
      </trkpt>
      <trkpt lat="48.68452" lon="1.93837">
        <ele>131</ele>
        <time>2013-08-17T10:43:46Z</time>
      </trkpt>
      <trkpt lat="48.68457" lon="1.93833">
        <ele>131</ele>
        <time>2013-08-17T10:43:49Z</time>
      </trkpt>
      <trkpt lat="48.68462" lon="1.93829">
        <ele>131</ele>
        <time>2013-08-17T10:43:51Z</time>
      </trkpt>
      <trkpt lat="48.68466" lon="1.93825">
        <ele>131</ele>
        <time>2013-08-17T10:43:54Z</time>
      </trkpt>
      <trkpt lat="48.68467" lon="1.93822">
        <ele>131</ele>
        <time>2013-08-17T10:43:57Z</time>
      </trkpt>
      <trkpt lat="48.68473" lon="1.93814">
        <ele>131</ele>
        <time>2013-08-17T10:44:00Z</time>
      </trkpt>
      <trkpt lat="48.68477" lon="1.93808">
        <ele>131</ele>
        <time>2013-08-17T10:44:03Z</time>
      </trkpt>
      <trkpt lat="48.6848" lon="1.93804">
        <ele>131</ele>
        <time>2013-08-17T10:44:05Z</time>
      </trkpt>
      <trkpt lat="48.68483" lon="1.93799">
        <ele>131</ele>
        <time>2013-08-17T10:44:07Z</time>
      </trkpt>
      <trkpt lat="48.68483" lon="1.93794">
        <ele>131</ele>
        <time>2013-08-17T10:44:09Z</time>
      </trkpt>
      <trkpt lat="48.68483" lon="1.93788">
        <ele>131</ele>
        <time>2013-08-17T10:44:12Z</time>
      </trkpt>
      <trkpt lat="48.68483" lon="1.93783">
        <ele>131</ele>
        <time>2013-08-17T10:44:14Z</time>
      </trkpt>
      <trkpt lat="48.68483" lon="1.93778">
        <ele>131</ele>
        <time>2013-08-17T10:44:16Z</time>
      </trkpt>
      <trkpt lat="48.68485" lon="1.93773">
        <ele>131</ele>
        <time>2013-08-17T10:44:18Z</time>
      </trkpt>
      <trkpt lat="48.68486" lon="1.93768">
        <ele>131</ele>
        <time>2013-08-17T10:44:20Z</time>
      </trkpt>
      <trkpt lat="48.68487" lon="1.93763">
        <ele>131</ele>
        <time>2013-08-17T10:44:23Z</time>
      </trkpt>
      <trkpt lat="48.6849" lon="1.93757">
        <ele>131</ele>
        <time>2013-08-17T10:44:26Z</time>
      </trkpt>
      <trkpt lat="48.68492" lon="1.93753">
        <ele>130</ele>
        <time>2013-08-17T10:44:28Z</time>
      </trkpt>
      <trkpt lat="48.68494" lon="1.93747">
        <ele>128</ele>
        <time>2013-08-17T10:44:30Z</time>
      </trkpt>
      <trkpt lat="48.68496" lon="1.93739">
        <ele>127</ele>
        <time>2013-08-17T10:44:33Z</time>
      </trkpt>
      <trkpt lat="48.68497" lon="1.93735">
        <ele>127</ele>
        <time>2013-08-17T10:44:35Z</time>
      </trkpt>
      <trkpt lat="48.68499" lon="1.9373">
        <ele>127</ele>
        <time>2013-08-17T10:44:37Z</time>
      </trkpt>
      <trkpt lat="48.68499" lon="1.93726">
        <ele>127</ele>
        <time>2013-08-17T10:44:39Z</time>
      </trkpt>
      <trkpt lat="48.68501" lon="1.93722">
        <ele>127</ele>
        <time>2013-08-17T10:44:41Z</time>
      </trkpt>
      <trkpt lat="48.68502" lon="1.93718">
        <ele>126</ele>
        <time>2013-08-17T10:44:43Z</time>
      </trkpt>
      <trkpt lat="48.68502" lon="1.93714">
        <ele>125</ele>
        <time>2013-08-17T10:44:45Z</time>
      </trkpt>
      <trkpt lat="48.68504" lon="1.9371">
        <ele>124</ele>
        <time>2013-08-17T10:44:47Z</time>
      </trkpt>
      <trkpt lat="48.68506" lon="1.93704">
        <ele>122</ele>
        <time>2013-08-17T10:44:50Z</time>
      </trkpt>
      <trkpt lat="48.68504" lon="1.93701">
        <ele>121</ele>
        <time>2013-08-17T10:44:52Z</time>
      </trkpt>
      <trkpt lat="48.68506" lon="1.93697">
        <ele>121</ele>
        <time>2013-08-17T10:44:54Z</time>
      </trkpt>
      <trkpt lat="48.68508" lon="1.93692">
        <ele>121</ele>
        <time>2013-08-17T10:44:56Z</time>
      </trkpt>
      <trkpt lat="48.68511" lon="1.93686">
        <ele>121</ele>
        <time>2013-08-17T10:44:59Z</time>
      </trkpt>
      <trkpt lat="48.68514" lon="1.9368">
        <ele>119</ele>
        <time>2013-08-17T10:45:01Z</time>
      </trkpt>
      <trkpt lat="48.68519" lon="1.93672">
        <ele>117</ele>
        <time>2013-08-17T10:45:04Z</time>
      </trkpt>
      <trkpt lat="48.68523" lon="1.93666">
        <ele>115</ele>
        <time>2013-08-17T10:45:06Z</time>
      </trkpt>
      <trkpt lat="48.68527" lon="1.9366">
        <ele>113</ele>
        <time>2013-08-17T10:45:08Z</time>
      </trkpt>
      <trkpt lat="48.68531" lon="1.93654">
        <ele>110</ele>
        <time>2013-08-17T10:45:11Z</time>
      </trkpt>
      <trkpt lat="48.68536" lon="1.9365">
        <ele>110</ele>
        <time>2013-08-17T10:45:13Z</time>
      </trkpt>
      <trkpt lat="48.68542" lon="1.93643">
        <ele>109</ele>
        <time>2013-08-17T10:45:16Z</time>
      </trkpt>
      <trkpt lat="48.68543" lon="1.93638">
        <ele>108</ele>
        <time>2013-08-17T10:45:18Z</time>
      </trkpt>
      <trkpt lat="48.68545" lon="1.93633">
        <ele>106</ele>
        <time>2013-08-17T10:45:20Z</time>
      </trkpt>
      <trkpt lat="48.68547" lon="1.93627">
        <ele>105</ele>
        <time>2013-08-17T10:45:22Z</time>
      </trkpt>
      <trkpt lat="48.68549" lon="1.93622">
        <ele>104</ele>
        <time>2013-08-17T10:45:24Z</time>
      </trkpt>
      <trkpt lat="48.68552" lon="1.93616">
        <ele>104</ele>
        <time>2013-08-17T10:45:26Z</time>
      </trkpt>
      <trkpt lat="48.68554" lon="1.93612">
        <ele>103</ele>
        <time>2013-08-17T10:45:28Z</time>
      </trkpt>
      <trkpt lat="48.68556" lon="1.93608">
        <ele>103</ele>
        <time>2013-08-17T10:45:30Z</time>
      </trkpt>
      <trkpt lat="48.68556" lon="1.93603">
        <ele>103</ele>
        <time>2013-08-17T10:45:33Z</time>
      </trkpt>
      <trkpt lat="48.68554" lon="1.93599">
        <ele>103</ele>
        <time>2013-08-17T10:45:36Z</time>
      </trkpt>
      <trkpt lat="48.68555" lon="1.93594">
        <ele>103</ele>
        <time>2013-08-17T10:45:39Z</time>
      </trkpt>
      <trkpt lat="48.68556" lon="1.93591">
        <ele>103</ele>
        <time>2013-08-17T10:45:41Z</time>
      </trkpt>
      <trkpt lat="48.68557" lon="1.93588">
        <ele>103</ele>
        <time>2013-08-17T10:45:43Z</time>
      </trkpt>
      <trkpt lat="48.68558" lon="1.93584">
        <ele>104</ele>
        <time>2013-08-17T10:45:45Z</time>
      </trkpt>
      <trkpt lat="48.6856" lon="1.93578">
        <ele>105</ele>
        <time>2013-08-17T10:45:48Z</time>
      </trkpt>
      <trkpt lat="48.68561" lon="1.93574">
        <ele>105</ele>
        <time>2013-08-17T10:45:50Z</time>
      </trkpt>
      <trkpt lat="48.68561" lon="1.93569">
        <ele>107</ele>
        <time>2013-08-17T10:45:53Z</time>
      </trkpt>
      <trkpt lat="48.68562" lon="1.93563">
        <ele>108</ele>
        <time>2013-08-17T10:45:56Z</time>
      </trkpt>
      <trkpt lat="48.68563" lon="1.9356">
        <ele>108</ele>
        <time>2013-08-17T10:45:58Z</time>
      </trkpt>
      <trkpt lat="48.68565" lon="1.93553">
        <ele>108</ele>
        <time>2013-08-17T10:46:00Z</time>
      </trkpt>
      <trkpt lat="48.68566" lon="1.93545">
        <ele>108</ele>
        <time>2013-08-17T10:46:03Z</time>
      </trkpt>
      <trkpt lat="48.68567" lon="1.93543">
        <ele>109</ele>
        <time>2013-08-17T10:46:05Z</time>
      </trkpt>
      <trkpt lat="48.68568" lon="1.93539">
        <ele>109</ele>
        <time>2013-08-17T10:46:07Z</time>
      </trkpt>
      <trkpt lat="48.68569" lon="1.93534">
        <ele>109</ele>
        <time>2013-08-17T10:46:11Z</time>
      </trkpt>
      <trkpt lat="48.68569" lon="1.93529">
        <ele>110</ele>
        <time>2013-08-17T10:46:14Z</time>
      </trkpt>
      <trkpt lat="48.68569" lon="1.93526">
        <ele>111</ele>
        <time>2013-08-17T10:46:16Z</time>
      </trkpt>
      <trkpt lat="48.6857" lon="1.9352">
        <ele>111</ele>
        <time>2013-08-17T10:46:19Z</time>
      </trkpt>
      <trkpt lat="48.68571" lon="1.93516">
        <ele>111</ele>
        <time>2013-08-17T10:46:21Z</time>
      </trkpt>
      <trkpt lat="48.68571" lon="1.93512">
        <ele>111</ele>
        <time>2013-08-17T10:46:23Z</time>
      </trkpt>
      <trkpt lat="48.68569" lon="1.93509">
        <ele>111</ele>
        <time>2013-08-17T10:46:25Z</time>
      </trkpt>
      <trkpt lat="48.68569" lon="1.93502">
        <ele>112</ele>
        <time>2013-08-17T10:46:28Z</time>
      </trkpt>
      <trkpt lat="48.6857" lon="1.93498">
        <ele>112</ele>
        <time>2013-08-17T10:46:30Z</time>
      </trkpt>
      <trkpt lat="48.68571" lon="1.93494">
        <ele>112</ele>
        <time>2013-08-17T10:46:32Z</time>
      </trkpt>
      <trkpt lat="48.68573" lon="1.9349">
        <ele>112</ele>
        <time>2013-08-17T10:46:34Z</time>
      </trkpt>
      <trkpt lat="48.68575" lon="1.93486">
        <ele>112</ele>
        <time>2013-08-17T10:46:36Z</time>
      </trkpt>
      <trkpt lat="48.68576" lon="1.93482">
        <ele>112</ele>
        <time>2013-08-17T10:46:38Z</time>
      </trkpt>
      <trkpt lat="48.68579" lon="1.93477">
        <ele>112</ele>
        <time>2013-08-17T10:46:41Z</time>
      </trkpt>
      <trkpt lat="48.68582" lon="1.93473">
        <ele>112</ele>
        <time>2013-08-17T10:46:44Z</time>
      </trkpt>
      <trkpt lat="48.68585" lon="1.93469">
        <ele>112</ele>
        <time>2013-08-17T10:46:47Z</time>
      </trkpt>
      <trkpt lat="48.68586" lon="1.93466">
        <ele>112</ele>
        <time>2013-08-17T10:46:49Z</time>
      </trkpt>
      <trkpt lat="48.68588" lon="1.93462">
        <ele>112</ele>
        <time>2013-08-17T10:46:51Z</time>
      </trkpt>
      <trkpt lat="48.68588" lon="1.93458">
        <ele>112</ele>
        <time>2013-08-17T10:46:53Z</time>
      </trkpt>
      <trkpt lat="48.68589" lon="1.93453">
        <ele>113</ele>
        <time>2013-08-17T10:46:55Z</time>
      </trkpt>
      <trkpt lat="48.68591" lon="1.93447">
        <ele>115</ele>
        <time>2013-08-17T10:46:58Z</time>
      </trkpt>
      <trkpt lat="48.68592" lon="1.93444">
        <ele>116</ele>
        <time>2013-08-17T10:47:00Z</time>
      </trkpt>
      <trkpt lat="48.68595" lon="1.93439">
        <ele>117</ele>
        <time>2013-08-17T10:47:04Z</time>
      </trkpt>
      <trkpt lat="48.68597" lon="1.93435">
        <ele>118</ele>
        <time>2013-08-17T10:47:07Z</time>
      </trkpt>
      <trkpt lat="48.68598" lon="1.9343">
        <ele>118</ele>
        <time>2013-08-17T10:47:10Z</time>
      </trkpt>
      <trkpt lat="48.686" lon="1.93427">
        <ele>119</ele>
        <time>2013-08-17T10:47:12Z</time>
      </trkpt>
      <trkpt lat="48.68602" lon="1.93422">
        <ele>122</ele>
        <time>2013-08-17T10:47:15Z</time>
      </trkpt>
      <trkpt lat="48.68603" lon="1.93419">
        <ele>123</ele>
        <time>2013-08-17T10:47:17Z</time>
      </trkpt>
      <trkpt lat="48.68604" lon="1.93417">
        <ele>123</ele>
        <time>2013-08-17T10:47:19Z</time>
      </trkpt>
      <trkpt lat="48.68607" lon="1.93413">
        <ele>124</ele>
        <time>2013-08-17T10:47:21Z</time>
      </trkpt>
      <trkpt lat="48.68608" lon="1.9341">
        <ele>124</ele>
        <time>2013-08-17T10:47:23Z</time>
      </trkpt>
      <trkpt lat="48.68609" lon="1.93406">
        <ele>125</ele>
        <time>2013-08-17T10:47:25Z</time>
      </trkpt>
      <trkpt lat="48.68611" lon="1.93401">
        <ele>126</ele>
        <time>2013-08-17T10:47:28Z</time>
      </trkpt>
      <trkpt lat="48.68612" lon="1.93398">
        <ele>128</ele>
        <time>2013-08-17T10:47:30Z</time>
      </trkpt>
      <trkpt lat="48.68613" lon="1.93394">
        <ele>130</ele>
        <time>2013-08-17T10:47:32Z</time>
      </trkpt>
      <trkpt lat="48.68615" lon="1.93387">
        <ele>132</ele>
        <time>2013-08-17T10:47:36Z</time>
      </trkpt>
      <trkpt lat="48.68618" lon="1.93382">
        <ele>134</ele>
        <time>2013-08-17T10:47:39Z</time>
      </trkpt>
      <trkpt lat="48.68621" lon="1.9338">
        <ele>134</ele>
        <time>2013-08-17T10:47:41Z</time>
      </trkpt>
      <trkpt lat="48.68624" lon="1.93379">
        <ele>134</ele>
        <time>2013-08-17T10:47:43Z</time>
      </trkpt>
      <trkpt lat="48.68627" lon="1.93379">
        <ele>134</ele>
        <time>2013-08-17T10:47:45Z</time>
      </trkpt>
      <trkpt lat="48.68629" lon="1.93377">
        <ele>134</ele>
        <time>2013-08-17T10:47:47Z</time>
      </trkpt>
      <trkpt lat="48.68632" lon="1.93376">
        <ele>134</ele>
        <time>2013-08-17T10:47:49Z</time>
      </trkpt>
      <trkpt lat="48.68633" lon="1.93375">
        <ele>134</ele>
        <time>2013-08-17T10:47:52Z</time>
      </trkpt>
      <trkpt lat="48.68637" lon="1.93373">
        <ele>134</ele>
        <time>2013-08-17T10:47:57Z</time>
      </trkpt>
      <trkpt lat="48.68641" lon="1.93373">
        <ele>134</ele>
        <time>2013-08-17T10:48:00Z</time>
      </trkpt>
      <trkpt lat="48.68644" lon="1.93371">
        <ele>136</ele>
        <time>2013-08-17T10:48:03Z</time>
      </trkpt>
      <trkpt lat="48.68646" lon="1.93369">
        <ele>136</ele>
        <time>2013-08-17T10:48:05Z</time>
      </trkpt>
      <trkpt lat="48.68647" lon="1.93366">
        <ele>137</ele>
        <time>2013-08-17T10:48:07Z</time>
      </trkpt>
      <trkpt lat="48.68649" lon="1.93361">
        <ele>138</ele>
        <time>2013-08-17T10:48:10Z</time>
      </trkpt>
      <trkpt lat="48.68651" lon="1.93357">
        <ele>138</ele>
        <time>2013-08-17T10:48:12Z</time>
      </trkpt>
      <trkpt lat="48.68652" lon="1.93352">
        <ele>138</ele>
        <time>2013-08-17T10:48:14Z</time>
      </trkpt>
      <trkpt lat="48.68652" lon="1.93344">
        <ele>138</ele>
        <time>2013-08-17T10:48:17Z</time>
      </trkpt>
      <trkpt lat="48.68652" lon="1.93339">
        <ele>138</ele>
        <time>2013-08-17T10:48:19Z</time>
      </trkpt>
      <trkpt lat="48.68653" lon="1.93334">
        <ele>138</ele>
        <time>2013-08-17T10:48:21Z</time>
      </trkpt>
      <trkpt lat="48.68652" lon="1.93327">
        <ele>138</ele>
        <time>2013-08-17T10:48:24Z</time>
      </trkpt>
      <trkpt lat="48.68652" lon="1.93325">
        <ele>138</ele>
        <time>2013-08-17T10:48:26Z</time>
      </trkpt>
      <trkpt lat="48.68652" lon="1.93317">
        <ele>136</ele>
        <time>2013-08-17T10:48:29Z</time>
      </trkpt>
      <trkpt lat="48.68652" lon="1.9331">
        <ele>133</ele>
        <time>2013-08-17T10:48:32Z</time>
      </trkpt>
      <trkpt lat="48.68653" lon="1.93305">
        <ele>132</ele>
        <time>2013-08-17T10:48:34Z</time>
      </trkpt>
      <trkpt lat="48.68653" lon="1.93301">
        <ele>130</ele>
        <time>2013-08-17T10:48:36Z</time>
      </trkpt>
      <trkpt lat="48.68653" lon="1.93297">
        <ele>128</ele>
        <time>2013-08-17T10:48:38Z</time>
      </trkpt>
      <trkpt lat="48.68652" lon="1.93293">
        <ele>127</ele>
        <time>2013-08-17T10:48:40Z</time>
      </trkpt>
      <trkpt lat="48.68652" lon="1.93288">
        <ele>126</ele>
        <time>2013-08-17T10:48:42Z</time>
      </trkpt>
      <trkpt lat="48.68653" lon="1.93283">
        <ele>125</ele>
        <time>2013-08-17T10:48:44Z</time>
      </trkpt>
      <trkpt lat="48.68653" lon="1.9328">
        <ele>124</ele>
        <time>2013-08-17T10:48:46Z</time>
      </trkpt>
      <trkpt lat="48.68652" lon="1.93276">
        <ele>123</ele>
        <time>2013-08-17T10:48:48Z</time>
      </trkpt>
      <trkpt lat="48.6865" lon="1.93269">
        <ele>123</ele>
        <time>2013-08-17T10:48:51Z</time>
      </trkpt>
      <trkpt lat="48.6865" lon="1.93265">
        <ele>123</ele>
        <time>2013-08-17T10:48:53Z</time>
      </trkpt>
      <trkpt lat="48.68649" lon="1.93262">
        <ele>122</ele>
        <time>2013-08-17T10:48:55Z</time>
      </trkpt>
      <trkpt lat="48.68648" lon="1.93258">
        <ele>121</ele>
        <time>2013-08-17T10:48:57Z</time>
      </trkpt>
      <trkpt lat="48.6865" lon="1.93253">
        <ele>120</ele>
        <time>2013-08-17T10:48:59Z</time>
      </trkpt>
      <trkpt lat="48.6865" lon="1.93248">
        <ele>119</ele>
        <time>2013-08-17T10:49:01Z</time>
      </trkpt>
      <trkpt lat="48.68649" lon="1.93241">
        <ele>118</ele>
        <time>2013-08-17T10:49:04Z</time>
      </trkpt>
      <trkpt lat="48.6865" lon="1.93235">
        <ele>118</ele>
        <time>2013-08-17T10:49:06Z</time>
      </trkpt>
      <trkpt lat="48.68651" lon="1.93228">
        <ele>118</ele>
        <time>2013-08-17T10:49:08Z</time>
      </trkpt>
      <trkpt lat="48.68653" lon="1.93221">
        <ele>118</ele>
        <time>2013-08-17T10:49:11Z</time>
      </trkpt>
      <trkpt lat="48.68653" lon="1.93215">
        <ele>117</ele>
        <time>2013-08-17T10:49:13Z</time>
      </trkpt>
      <trkpt lat="48.68656" lon="1.93205">
        <ele>115</ele>
        <time>2013-08-17T10:49:16Z</time>
      </trkpt>
      <trkpt lat="48.68657" lon="1.93199">
        <ele>114</ele>
        <time>2013-08-17T10:49:18Z</time>
      </trkpt>
      <trkpt lat="48.68659" lon="1.93191">
        <ele>114</ele>
        <time>2013-08-17T10:49:21Z</time>
      </trkpt>
      <trkpt lat="48.6866" lon="1.93184">
        <ele>114</ele>
        <time>2013-08-17T10:49:24Z</time>
      </trkpt>
      <trkpt lat="48.6866" lon="1.93177">
        <ele>114</ele>
        <time>2013-08-17T10:49:27Z</time>
      </trkpt>
      <trkpt lat="48.6866" lon="1.93172">
        <ele>114</ele>
        <time>2013-08-17T10:49:29Z</time>
      </trkpt>
      <trkpt lat="48.6866" lon="1.93163">
        <ele>114</ele>
        <time>2013-08-17T10:49:32Z</time>
      </trkpt>
      <trkpt lat="48.6866" lon="1.93157">
        <ele>116</ele>
        <time>2013-08-17T10:49:34Z</time>
      </trkpt>
      <trkpt lat="48.6866" lon="1.93152">
        <ele>118</ele>
        <time>2013-08-17T10:49:36Z</time>
      </trkpt>
      <trkpt lat="48.68659" lon="1.93144">
        <ele>121</ele>
        <time>2013-08-17T10:49:39Z</time>
      </trkpt>
      <trkpt lat="48.68657" lon="1.93139">
        <ele>124</ele>
        <time>2013-08-17T10:49:42Z</time>
      </trkpt>
      <trkpt lat="48.68656" lon="1.93136">
        <ele>126</ele>
        <time>2013-08-17T10:49:44Z</time>
      </trkpt>
      <trkpt lat="48.68656" lon="1.93131">
        <ele>128</ele>
        <time>2013-08-17T10:49:46Z</time>
      </trkpt>
      <trkpt lat="48.68657" lon="1.93125">
        <ele>130</ele>
        <time>2013-08-17T10:49:48Z</time>
      </trkpt>
      <trkpt lat="48.68657" lon="1.93119">
        <ele>132</ele>
        <time>2013-08-17T10:49:51Z</time>
      </trkpt>
      <trkpt lat="48.68658" lon="1.93114">
        <ele>132</ele>
        <time>2013-08-17T10:49:53Z</time>
      </trkpt>
      <trkpt lat="48.68659" lon="1.9311">
        <ele>132</ele>
        <time>2013-08-17T10:49:55Z</time>
      </trkpt>
      <trkpt lat="48.6866" lon="1.93104">
        <ele>132</ele>
        <time>2013-08-17T10:49:58Z</time>
      </trkpt>
      <trkpt lat="48.6866" lon="1.93098">
        <ele>132</ele>
        <time>2013-08-17T10:50:00Z</time>
      </trkpt>
      <trkpt lat="48.68662" lon="1.9309">
        <ele>132</ele>
        <time>2013-08-17T10:50:03Z</time>
      </trkpt>
      <trkpt lat="48.68665" lon="1.93082">
        <ele>132</ele>
        <time>2013-08-17T10:50:06Z</time>
      </trkpt>
      <trkpt lat="48.68666" lon="1.93078">
        <ele>132</ele>
        <time>2013-08-17T10:50:08Z</time>
      </trkpt>
      <trkpt lat="48.68668" lon="1.93073">
        <ele>130</ele>
        <time>2013-08-17T10:50:10Z</time>
      </trkpt>
      <trkpt lat="48.68669" lon="1.93065">
        <ele>128</ele>
        <time>2013-08-17T10:50:13Z</time>
      </trkpt>
      <trkpt lat="48.68669" lon="1.9306">
        <ele>128</ele>
        <time>2013-08-17T10:50:15Z</time>
      </trkpt>
      <trkpt lat="48.68668" lon="1.93055">
        <ele>128</ele>
        <time>2013-08-17T10:50:17Z</time>
      </trkpt>
      <trkpt lat="48.68667" lon="1.93051">
        <ele>128</ele>
        <time>2013-08-17T10:50:19Z</time>
      </trkpt>
      <trkpt lat="48.68668" lon="1.93045">
        <ele>128</ele>
        <time>2013-08-17T10:50:21Z</time>
      </trkpt>
      <trkpt lat="48.6867" lon="1.9304">
        <ele>128</ele>
        <time>2013-08-17T10:50:23Z</time>
      </trkpt>
      <trkpt lat="48.68669" lon="1.93035">
        <ele>128</ele>
        <time>2013-08-17T10:50:25Z</time>
      </trkpt>
      <trkpt lat="48.68669" lon="1.9303">
        <ele>128</ele>
        <time>2013-08-17T10:50:28Z</time>
      </trkpt>
      <trkpt lat="48.68671" lon="1.93026">
        <ele>128</ele>
        <time>2013-08-17T10:50:31Z</time>
      </trkpt>
      <trkpt lat="48.68673" lon="1.93021">
        <ele>128</ele>
        <time>2013-08-17T10:50:33Z</time>
      </trkpt>
      <trkpt lat="48.68675" lon="1.93016">
        <ele>127</ele>
        <time>2013-08-17T10:50:35Z</time>
      </trkpt>
      <trkpt lat="48.68676" lon="1.93012">
        <ele>127</ele>
        <time>2013-08-17T10:50:37Z</time>
      </trkpt>
      <trkpt lat="48.68677" lon="1.93008">
        <ele>126</ele>
        <time>2013-08-17T10:50:39Z</time>
      </trkpt>
      <trkpt lat="48.68678" lon="1.93003">
        <ele>126</ele>
        <time>2013-08-17T10:50:41Z</time>
      </trkpt>
      <trkpt lat="48.68679" lon="1.92996">
        <ele>126</ele>
        <time>2013-08-17T10:50:44Z</time>
      </trkpt>
      <trkpt lat="48.68678" lon="1.9299">
        <ele>126</ele>
        <time>2013-08-17T10:50:47Z</time>
      </trkpt>
      <trkpt lat="48.68676" lon="1.92984">
        <ele>126</ele>
        <time>2013-08-17T10:50:49Z</time>
      </trkpt>
      <trkpt lat="48.68676" lon="1.92981">
        <ele>126</ele>
        <time>2013-08-17T10:50:51Z</time>
      </trkpt>
      <trkpt lat="48.68675" lon="1.92978">
        <ele>128</ele>
        <time>2013-08-17T10:50:53Z</time>
      </trkpt>
      <trkpt lat="48.68678" lon="1.9297">
        <ele>130</ele>
        <time>2013-08-17T10:50:56Z</time>
      </trkpt>
      <trkpt lat="48.68678" lon="1.92966">
        <ele>131</ele>
        <time>2013-08-17T10:50:58Z</time>
      </trkpt>
      <trkpt lat="48.68679" lon="1.92958">
        <ele>131</ele>
        <time>2013-08-17T10:51:01Z</time>
      </trkpt>
      <trkpt lat="48.68681" lon="1.92953">
        <ele>132</ele>
        <time>2013-08-17T10:51:03Z</time>
      </trkpt>
      <trkpt lat="48.68679" lon="1.92947">
        <ele>135</ele>
        <time>2013-08-17T10:51:06Z</time>
      </trkpt>
      <trkpt lat="48.68679" lon="1.92942">
        <ele>136</ele>
        <time>2013-08-17T10:51:08Z</time>
      </trkpt>
      <trkpt lat="48.68678" lon="1.92938">
        <ele>138</ele>
        <time>2013-08-17T10:51:10Z</time>
      </trkpt>
      <trkpt lat="48.6868" lon="1.92933">
        <ele>139</ele>
        <time>2013-08-17T10:51:12Z</time>
      </trkpt>
      <trkpt lat="48.68684" lon="1.92929">
        <ele>139</ele>
        <time>2013-08-17T10:51:15Z</time>
      </trkpt>
      <trkpt lat="48.68688" lon="1.92924">
        <ele>139</ele>
        <time>2013-08-17T10:51:17Z</time>
      </trkpt>
      <trkpt lat="48.68689" lon="1.92919">
        <ele>139</ele>
        <time>2013-08-17T10:51:19Z</time>
      </trkpt>
      <trkpt lat="48.68691" lon="1.92915">
        <ele>138</ele>
        <time>2013-08-17T10:51:21Z</time>
      </trkpt>
      <trkpt lat="48.68692" lon="1.92911">
        <ele>137</ele>
        <time>2013-08-17T10:51:23Z</time>
      </trkpt>
      <trkpt lat="48.68694" lon="1.92902">
        <ele>136</ele>
        <time>2013-08-17T10:51:26Z</time>
      </trkpt>
      <trkpt lat="48.68694" lon="1.92899">
        <ele>136</ele>
        <time>2013-08-17T10:51:28Z</time>
      </trkpt>
      <trkpt lat="48.68696" lon="1.92894">
        <ele>136</ele>
        <time>2013-08-17T10:51:31Z</time>
      </trkpt>
      <trkpt lat="48.68699" lon="1.92891">
        <ele>136</ele>
        <time>2013-08-17T10:51:33Z</time>
      </trkpt>
      <trkpt lat="48.68702" lon="1.92885">
        <ele>136</ele>
        <time>2013-08-17T10:51:36Z</time>
      </trkpt>
      <trkpt lat="48.68703" lon="1.92882">
        <ele>136</ele>
        <time>2013-08-17T10:51:38Z</time>
      </trkpt>
      <trkpt lat="48.68706" lon="1.92877">
        <ele>136</ele>
        <time>2013-08-17T10:51:41Z</time>
      </trkpt>
      <trkpt lat="48.6871" lon="1.92871">
        <ele>136</ele>
        <time>2013-08-17T10:51:43Z</time>
      </trkpt>
      <trkpt lat="48.68711" lon="1.92868">
        <ele>136</ele>
        <time>2013-08-17T10:51:45Z</time>
      </trkpt>
      <trkpt lat="48.68713" lon="1.92864">
        <ele>136</ele>
        <time>2013-08-17T10:51:47Z</time>
      </trkpt>
      <trkpt lat="48.68716" lon="1.9286">
        <ele>136</ele>
        <time>2013-08-17T10:51:49Z</time>
      </trkpt>
      <trkpt lat="48.68717" lon="1.92857">
        <ele>136</ele>
        <time>2013-08-17T10:51:51Z</time>
      </trkpt>
      <trkpt lat="48.68718" lon="1.92851">
        <ele>136</ele>
        <time>2013-08-17T10:51:54Z</time>
      </trkpt>
      <trkpt lat="48.6872" lon="1.92847">
        <ele>136</ele>
        <time>2013-08-17T10:51:56Z</time>
      </trkpt>
      <trkpt lat="48.68721" lon="1.92842">
        <ele>136</ele>
        <time>2013-08-17T10:51:59Z</time>
      </trkpt>
      <trkpt lat="48.68723" lon="1.92838">
        <ele>136</ele>
        <time>2013-08-17T10:52:01Z</time>
      </trkpt>
      <trkpt lat="48.68725" lon="1.92834">
        <ele>136</ele>
        <time>2013-08-17T10:52:03Z</time>
      </trkpt>
      <trkpt lat="48.68728" lon="1.92828">
        <ele>136</ele>
        <time>2013-08-17T10:52:06Z</time>
      </trkpt>
      <trkpt lat="48.68729" lon="1.92824">
        <ele>136</ele>
        <time>2013-08-17T10:52:08Z</time>
      </trkpt>
      <trkpt lat="48.68731" lon="1.9282">
        <ele>136</ele>
        <time>2013-08-17T10:52:11Z</time>
      </trkpt>
      <trkpt lat="48.68732" lon="1.92817">
        <ele>136</ele>
        <time>2013-08-17T10:52:13Z</time>
      </trkpt>
      <trkpt lat="48.68734" lon="1.92813">
        <ele>136</ele>
        <time>2013-08-17T10:52:15Z</time>
      </trkpt>
      <trkpt lat="48.68737" lon="1.92809">
        <ele>136</ele>
        <time>2013-08-17T10:52:17Z</time>
      </trkpt>
      <trkpt lat="48.68739" lon="1.92803">
        <ele>136</ele>
        <time>2013-08-17T10:52:20Z</time>
      </trkpt>
      <trkpt lat="48.68742" lon="1.92798">
        <ele>136</ele>
        <time>2013-08-17T10:52:23Z</time>
      </trkpt>
      <trkpt lat="48.68744" lon="1.92794">
        <ele>136</ele>
        <time>2013-08-17T10:52:25Z</time>
      </trkpt>
      <trkpt lat="48.68747" lon="1.9279">
        <ele>136</ele>
        <time>2013-08-17T10:52:27Z</time>
      </trkpt>
      <trkpt lat="48.68749" lon="1.92787">
        <ele>136</ele>
        <time>2013-08-17T10:52:29Z</time>
      </trkpt>
      <trkpt lat="48.68752" lon="1.92781">
        <ele>136</ele>
        <time>2013-08-17T10:52:33Z</time>
      </trkpt>
      <trkpt lat="48.68757" lon="1.92774">
        <ele>136</ele>
        <time>2013-08-17T10:52:36Z</time>
      </trkpt>
      <trkpt lat="48.68758" lon="1.92772">
        <ele>136</ele>
        <time>2013-08-17T10:52:38Z</time>
      </trkpt>
      <trkpt lat="48.68759" lon="1.92769">
        <ele>136</ele>
        <time>2013-08-17T10:52:40Z</time>
      </trkpt>
      <trkpt lat="48.68761" lon="1.92763">
        <ele>136</ele>
        <time>2013-08-17T10:52:43Z</time>
      </trkpt>
      <trkpt lat="48.68763" lon="1.92759">
        <ele>136</ele>
        <time>2013-08-17T10:52:45Z</time>
      </trkpt>
      <trkpt lat="48.68764" lon="1.92755">
        <ele>136</ele>
        <time>2013-08-17T10:52:47Z</time>
      </trkpt>
      <trkpt lat="48.68766" lon="1.92748">
        <ele>136</ele>
        <time>2013-08-17T10:52:50Z</time>
      </trkpt>
      <trkpt lat="48.68767" lon="1.92744">
        <ele>136</ele>
        <time>2013-08-17T10:52:52Z</time>
      </trkpt>
      <trkpt lat="48.68768" lon="1.92739">
        <ele>136</ele>
        <time>2013-08-17T10:52:54Z</time>
      </trkpt>
      <trkpt lat="48.68769" lon="1.92733">
        <ele>136</ele>
        <time>2013-08-17T10:52:57Z</time>
      </trkpt>
      <trkpt lat="48.68771" lon="1.92727">
        <ele>136</ele>
        <time>2013-08-17T10:52:59Z</time>
      </trkpt>
      <trkpt lat="48.68774" lon="1.92722">
        <ele>136</ele>
        <time>2013-08-17T10:53:01Z</time>
      </trkpt>
      <trkpt lat="48.68775" lon="1.92715">
        <ele>136</ele>
        <time>2013-08-17T10:53:04Z</time>
      </trkpt>
      <trkpt lat="48.68776" lon="1.92709">
        <ele>136</ele>
        <time>2013-08-17T10:53:06Z</time>
      </trkpt>
      <trkpt lat="48.68778" lon="1.92703">
        <ele>135</ele>
        <time>2013-08-17T10:53:08Z</time>
      </trkpt>
      <trkpt lat="48.6878" lon="1.92699">
        <ele>134</ele>
        <time>2013-08-17T10:53:10Z</time>
      </trkpt>
      <trkpt lat="48.68782" lon="1.92695">
        <ele>133</ele>
        <time>2013-08-17T10:53:12Z</time>
      </trkpt>
      <trkpt lat="48.68785" lon="1.92687">
        <ele>132</ele>
        <time>2013-08-17T10:53:15Z</time>
      </trkpt>
      <trkpt lat="48.68787" lon="1.92683">
        <ele>132</ele>
        <time>2013-08-17T10:53:18Z</time>
      </trkpt>
      <trkpt lat="48.68789" lon="1.92679">
        <ele>131</ele>
        <time>2013-08-17T10:53:20Z</time>
      </trkpt>
      <trkpt lat="48.6879" lon="1.92676">
        <ele>130</ele>
        <time>2013-08-17T10:53:22Z</time>
      </trkpt>
      <trkpt lat="48.68791" lon="1.92669">
        <ele>129</ele>
        <time>2013-08-17T10:53:25Z</time>
      </trkpt>
      <trkpt lat="48.68791" lon="1.92665">
        <ele>129</ele>
        <time>2013-08-17T10:53:27Z</time>
      </trkpt>
      <trkpt lat="48.68793" lon="1.92661">
        <ele>129</ele>
        <time>2013-08-17T10:53:29Z</time>
      </trkpt>
      <trkpt lat="48.68796" lon="1.92653">
        <ele>129</ele>
        <time>2013-08-17T10:53:32Z</time>
      </trkpt>
      <trkpt lat="48.68799" lon="1.92646">
        <ele>129</ele>
        <time>2013-08-17T10:53:35Z</time>
      </trkpt>
      <trkpt lat="48.68801" lon="1.92641">
        <ele>129</ele>
        <time>2013-08-17T10:53:38Z</time>
      </trkpt>
      <trkpt lat="48.68805" lon="1.92637">
        <ele>130</ele>
        <time>2013-08-17T10:53:42Z</time>
      </trkpt>
      <trkpt lat="48.68807" lon="1.92635">
        <ele>130</ele>
        <time>2013-08-17T10:53:44Z</time>
      </trkpt>
      <trkpt lat="48.68807" lon="1.92631">
        <ele>131</ele>
        <time>2013-08-17T10:53:47Z</time>
      </trkpt>
      <trkpt lat="48.68809" lon="1.92627">
        <ele>133</ele>
        <time>2013-08-17T10:53:49Z</time>
      </trkpt>
      <trkpt lat="48.68814" lon="1.92623">
        <ele>133</ele>
        <time>2013-08-17T10:53:52Z</time>
      </trkpt>
      <trkpt lat="48.68819" lon="1.9262">
        <ele>133</ele>
        <time>2013-08-17T10:53:55Z</time>
      </trkpt>
      <trkpt lat="48.68822" lon="1.92616">
        <ele>134</ele>
        <time>2013-08-17T10:53:58Z</time>
      </trkpt>
      <trkpt lat="48.68825" lon="1.92612">
        <ele>135</ele>
        <time>2013-08-17T10:54:00Z</time>
      </trkpt>
      <trkpt lat="48.68828" lon="1.92608">
        <ele>135</ele>
        <time>2013-08-17T10:54:03Z</time>
      </trkpt>
      <trkpt lat="48.6883" lon="1.92606">
        <ele>135</ele>
        <time>2013-08-17T10:54:05Z</time>
      </trkpt>
      <trkpt lat="48.68831" lon="1.926">
        <ele>136</ele>
        <time>2013-08-17T10:54:08Z</time>
      </trkpt>
      <trkpt lat="48.68831" lon="1.92595">
        <ele>136</ele>
        <time>2013-08-17T10:54:10Z</time>
      </trkpt>
      <trkpt lat="48.68832" lon="1.92592">
        <ele>136</ele>
        <time>2013-08-17T10:54:12Z</time>
      </trkpt>
      <trkpt lat="48.6883" lon="1.92588">
        <ele>136</ele>
        <time>2013-08-17T10:54:14Z</time>
      </trkpt>
      <trkpt lat="48.68827" lon="1.92584">
        <ele>136</ele>
        <time>2013-08-17T10:54:17Z</time>
      </trkpt>
      <trkpt lat="48.68826" lon="1.9258">
        <ele>135</ele>
        <time>2013-08-17T10:54:21Z</time>
      </trkpt>
      <trkpt lat="48.68824" lon="1.92576">
        <ele>131</ele>
        <time>2013-08-17T10:54:25Z</time>
      </trkpt>
      <trkpt lat="48.68823" lon="1.92573">
        <ele>129</ele>
        <time>2013-08-17T10:54:27Z</time>
      </trkpt>
      <trkpt lat="48.68821" lon="1.92571">
        <ele>129</ele>
        <time>2013-08-17T10:54:29Z</time>
      </trkpt>
      <trkpt lat="48.68817" lon="1.92569">
        <ele>129</ele>
        <time>2013-08-17T10:54:32Z</time>
      </trkpt>
      <trkpt lat="48.68814" lon="1.92566">
        <ele>128</ele>
        <time>2013-08-17T10:54:35Z</time>
      </trkpt>
      <trkpt lat="48.68813" lon="1.92562">
        <ele>127</ele>
        <time>2013-08-17T10:54:37Z</time>
      </trkpt>
      <trkpt lat="48.68813" lon="1.92558">
        <ele>127</ele>
        <time>2013-08-17T10:54:39Z</time>
      </trkpt>
      <trkpt lat="48.68813" lon="1.9255">
        <ele>127</ele>
        <time>2013-08-17T10:54:42Z</time>
      </trkpt>
      <trkpt lat="48.68813" lon="1.92544">
        <ele>127</ele>
        <time>2013-08-17T10:54:44Z</time>
      </trkpt>
      <trkpt lat="48.68811" lon="1.9254">
        <ele>125</ele>
        <time>2013-08-17T10:54:46Z</time>
      </trkpt>
      <trkpt lat="48.6881" lon="1.92532">
        <ele>124</ele>
        <time>2013-08-17T10:54:49Z</time>
      </trkpt>
      <trkpt lat="48.68808" lon="1.92526">
        <ele>124</ele>
        <time>2013-08-17T10:54:51Z</time>
      </trkpt>
      <trkpt lat="48.68809" lon="1.9252">
        <ele>124</ele>
        <time>2013-08-17T10:54:53Z</time>
      </trkpt>
      <trkpt lat="48.68809" lon="1.92516">
        <ele>123</ele>
        <time>2013-08-17T10:54:55Z</time>
      </trkpt>
      <trkpt lat="48.68809" lon="1.92508">
        <ele>123</ele>
        <time>2013-08-17T10:54:58Z</time>
      </trkpt>
      <trkpt lat="48.68809" lon="1.92503">
        <ele>123</ele>
        <time>2013-08-17T10:55:00Z</time>
      </trkpt>
      <trkpt lat="48.68809" lon="1.92495">
        <ele>121</ele>
        <time>2013-08-17T10:55:03Z</time>
      </trkpt>
      <trkpt lat="48.68808" lon="1.92489">
        <ele>120</ele>
        <time>2013-08-17T10:55:05Z</time>
      </trkpt>
      <trkpt lat="48.68807" lon="1.92484">
        <ele>120</ele>
        <time>2013-08-17T10:55:07Z</time>
      </trkpt>
      <trkpt lat="48.68806" lon="1.9248">
        <ele>120</ele>
        <time>2013-08-17T10:55:09Z</time>
      </trkpt>
      <trkpt lat="48.68804" lon="1.92473">
        <ele>120</ele>
        <time>2013-08-17T10:55:12Z</time>
      </trkpt>
      <trkpt lat="48.68805" lon="1.92467">
        <ele>120</ele>
        <time>2013-08-17T10:55:14Z</time>
      </trkpt>
      <trkpt lat="48.68803" lon="1.9246">
        <ele>120</ele>
        <time>2013-08-17T10:55:17Z</time>
      </trkpt>
      <trkpt lat="48.68803" lon="1.92455">
        <ele>120</ele>
        <time>2013-08-17T10:55:20Z</time>
      </trkpt>
      <trkpt lat="48.68804" lon="1.92451">
        <ele>120</ele>
        <time>2013-08-17T10:55:22Z</time>
      </trkpt>
      <trkpt lat="48.68805" lon="1.92447">
        <ele>120</ele>
        <time>2013-08-17T10:55:24Z</time>
      </trkpt>
      <trkpt lat="48.68806" lon="1.92441">
        <ele>120</ele>
        <time>2013-08-17T10:55:27Z</time>
      </trkpt>
      <trkpt lat="48.68806" lon="1.92437">
        <ele>122</ele>
        <time>2013-08-17T10:55:30Z</time>
      </trkpt>
      <trkpt lat="48.68805" lon="1.92434">
        <ele>124</ele>
        <time>2013-08-17T10:55:33Z</time>
      </trkpt>
      <trkpt lat="48.68804" lon="1.92435">
        <ele>124</ele>
        <time>2013-08-17T10:55:35Z</time>
      </trkpt>
      <trkpt lat="48.68804" lon="1.92437">
        <ele>125</ele>
        <time>2013-08-17T10:55:37Z</time>
      </trkpt>
      <trkpt lat="48.68803" lon="1.92441">
        <ele>126</ele>
        <time>2013-08-17T10:55:40Z</time>
      </trkpt>
      <trkpt lat="48.68802" lon="1.92446">
        <ele>126</ele>
        <time>2013-08-17T10:55:42Z</time>
      </trkpt>
      <trkpt lat="48.68802" lon="1.92449">
        <ele>126</ele>
        <time>2013-08-17T10:55:44Z</time>
      </trkpt>
      <trkpt lat="48.68801" lon="1.92452">
        <ele>126</ele>
        <time>2013-08-17T10:55:46Z</time>
      </trkpt>
      <trkpt lat="48.68798" lon="1.92452">
        <ele>126</ele>
        <time>2013-08-17T10:55:48Z</time>
      </trkpt>
      <trkpt lat="48.68797" lon="1.92452">
        <ele>126</ele>
        <time>2013-08-17T10:55:50Z</time>
      </trkpt>
      <trkpt lat="48.68798" lon="1.9245">
        <ele>126</ele>
        <time>2013-08-17T10:55:53Z</time>
      </trkpt>
      <trkpt lat="48.68799" lon="1.9245">
        <ele>126</ele>
        <time>2013-08-17T10:55:55Z</time>
      </trkpt>
      <trkpt lat="48.688" lon="1.9245">
        <ele>126</ele>
        <time>2013-08-17T10:55:59Z</time>
      </trkpt>
      <trkpt lat="48.688" lon="1.92452">
        <ele>126</ele>
        <time>2013-08-17T10:56:03Z</time>
      </trkpt>
      <trkpt lat="48.68801" lon="1.92453">
        <ele>127</ele>
        <time>2013-08-17T10:56:05Z</time>
      </trkpt>
      <trkpt lat="48.68803" lon="1.92454">
        <ele>128</ele>
        <time>2013-08-17T10:56:08Z</time>
      </trkpt>
      <trkpt lat="48.68801" lon="1.92455">
        <ele>130</ele>
        <time>2013-08-17T10:56:12Z</time>
      </trkpt>
      <trkpt lat="48.68799" lon="1.92455">
        <ele>130</ele>
        <time>2013-08-17T10:56:17Z</time>
      </trkpt>
      <trkpt lat="48.68798" lon="1.92453">
        <ele>130</ele>
        <time>2013-08-17T10:56:23Z</time>
      </trkpt>
      <trkpt lat="48.68797" lon="1.92452">
        <ele>130</ele>
        <time>2013-08-17T10:56:25Z</time>
      </trkpt>
      <trkpt lat="48.68796" lon="1.92449">
        <ele>130</ele>
        <time>2013-08-17T10:56:28Z</time>
      </trkpt>
      <trkpt lat="48.68798" lon="1.92446">
        <ele>130</ele>
        <time>2013-08-17T10:56:31Z</time>
      </trkpt>
      <trkpt lat="48.688" lon="1.92448">
        <ele>130</ele>
        <time>2013-08-17T10:56:34Z</time>
      </trkpt>
      <trkpt lat="48.68801" lon="1.9245">
        <ele>130</ele>
        <time>2013-08-17T10:56:36Z</time>
      </trkpt>
      <trkpt lat="48.68801" lon="1.92452">
        <ele>130</ele>
        <time>2013-08-17T10:56:39Z</time>
      </trkpt>
      <trkpt lat="48.68803" lon="1.92451">
        <ele>130</ele>
        <time>2013-08-17T10:56:41Z</time>
      </trkpt>
      <trkpt lat="48.68804" lon="1.92448">
        <ele>130</ele>
        <time>2013-08-17T10:56:44Z</time>
      </trkpt>
      <trkpt lat="48.68804" lon="1.92447">
        <ele>130</ele>
        <time>2013-08-17T10:56:48Z</time>
      </trkpt>
      <trkpt lat="48.68803" lon="1.92443">
        <ele>130</ele>
        <time>2013-08-17T10:56:52Z</time>
      </trkpt>
      <trkpt lat="48.68803" lon="1.92439">
        <ele>130</ele>
        <time>2013-08-17T10:56:55Z</time>
      </trkpt>
      <trkpt lat="48.68804" lon="1.92437">
        <ele>130</ele>
        <time>2013-08-17T10:56:57Z</time>
      </trkpt>
      <trkpt lat="48.68806" lon="1.92431">
        <ele>131</ele>
        <time>2013-08-17T10:57:00Z</time>
      </trkpt>
      <trkpt lat="48.68811" lon="1.92425">
        <ele>131</ele>
        <time>2013-08-17T10:57:04Z</time>
      </trkpt>
      <trkpt lat="48.68813" lon="1.92424">
        <ele>131</ele>
        <time>2013-08-17T10:57:06Z</time>
      </trkpt>
      <trkpt lat="48.68815" lon="1.92423">
        <ele>131</ele>
        <time>2013-08-17T10:57:08Z</time>
      </trkpt>
      <trkpt lat="48.6882" lon="1.92421">
        <ele>131</ele>
        <time>2013-08-17T10:57:11Z</time>
      </trkpt>
      <trkpt lat="48.68824" lon="1.92419">
        <ele>131</ele>
        <time>2013-08-17T10:57:14Z</time>
      </trkpt>
      <trkpt lat="48.68826" lon="1.92416">
        <ele>131</ele>
        <time>2013-08-17T10:57:17Z</time>
      </trkpt>
      <trkpt lat="48.68826" lon="1.92414">
        <ele>131</ele>
        <time>2013-08-17T10:57:19Z</time>
      </trkpt>
      <trkpt lat="48.68824" lon="1.92413">
        <ele>132</ele>
        <time>2013-08-17T10:57:21Z</time>
      </trkpt>
      <trkpt lat="48.68829" lon="1.92411">
        <ele>135</ele>
        <time>2013-08-17T10:57:24Z</time>
      </trkpt>
      <trkpt lat="48.6883" lon="1.92409">
        <ele>137</ele>
        <time>2013-08-17T10:57:26Z</time>
      </trkpt>
      <trkpt lat="48.68832" lon="1.92407">
        <ele>139</ele>
        <time>2013-08-17T10:57:28Z</time>
      </trkpt>
      <trkpt lat="48.68837" lon="1.92405">
        <ele>140</ele>
        <time>2013-08-17T10:57:30Z</time>
      </trkpt>
      <trkpt lat="48.68839" lon="1.92404">
        <ele>141</ele>
        <time>2013-08-17T10:57:32Z</time>
      </trkpt>
      <trkpt lat="48.68844" lon="1.92399">
        <ele>142</ele>
        <time>2013-08-17T10:57:35Z</time>
      </trkpt>
      <trkpt lat="48.68848" lon="1.92394">
        <ele>143</ele>
        <time>2013-08-17T10:57:38Z</time>
      </trkpt>
      <trkpt lat="48.68854" lon="1.92389">
        <ele>143</ele>
        <time>2013-08-17T10:57:41Z</time>
      </trkpt>
      <trkpt lat="48.68858" lon="1.92385">
        <ele>143</ele>
        <time>2013-08-17T10:57:43Z</time>
      </trkpt>
      <trkpt lat="48.68863" lon="1.92379">
        <ele>142</ele>
        <time>2013-08-17T10:57:46Z</time>
      </trkpt>
      <trkpt lat="48.68866" lon="1.92374">
        <ele>141</ele>
        <time>2013-08-17T10:57:48Z</time>
      </trkpt>
      <trkpt lat="48.68867" lon="1.92371">
        <ele>140</ele>
        <time>2013-08-17T10:57:50Z</time>
      </trkpt>
      <trkpt lat="48.68871" lon="1.92369">
        <ele>140</ele>
        <time>2013-08-17T10:57:54Z</time>
      </trkpt>
      <trkpt lat="48.68874" lon="1.92368">
        <ele>140</ele>
        <time>2013-08-17T10:57:56Z</time>
      </trkpt>
      <trkpt lat="48.68881" lon="1.92365">
        <ele>140</ele>
        <time>2013-08-17T10:57:59Z</time>
      </trkpt>
      <trkpt lat="48.68889" lon="1.92361">
        <ele>140</ele>
        <time>2013-08-17T10:58:01Z</time>
      </trkpt>
      <trkpt lat="48.68892" lon="1.92359">
        <ele>138</ele>
        <time>2013-08-17T10:58:03Z</time>
      </trkpt>
      <trkpt lat="48.68894" lon="1.92356">
        <ele>136</ele>
        <time>2013-08-17T10:58:05Z</time>
      </trkpt>
      <trkpt lat="48.68895" lon="1.92352">
        <ele>134</ele>
        <time>2013-08-17T10:58:07Z</time>
      </trkpt>
      <trkpt lat="48.68897" lon="1.92348">
        <ele>134</ele>
        <time>2013-08-17T10:58:10Z</time>
      </trkpt>
      <trkpt lat="48.68898" lon="1.92344">
        <ele>134</ele>
        <time>2013-08-17T10:58:12Z</time>
      </trkpt>
      <trkpt lat="48.68901" lon="1.92341">
        <ele>134</ele>
        <time>2013-08-17T10:58:14Z</time>
      </trkpt>
      <trkpt lat="48.68904" lon="1.92334">
        <ele>134</ele>
        <time>2013-08-17T10:58:17Z</time>
      </trkpt>
      <trkpt lat="48.68906" lon="1.92329">
        <ele>134</ele>
        <time>2013-08-17T10:58:19Z</time>
      </trkpt>
      <trkpt lat="48.68908" lon="1.92323">
        <ele>134</ele>
        <time>2013-08-17T10:58:23Z</time>
      </trkpt>
      <trkpt lat="48.68909" lon="1.92316">
        <ele>135</ele>
        <time>2013-08-17T10:58:26Z</time>
      </trkpt>
      <trkpt lat="48.6891" lon="1.92314">
        <ele>136</ele>
        <time>2013-08-17T10:58:28Z</time>
      </trkpt>
      <trkpt lat="48.68911" lon="1.92312">
        <ele>136</ele>
        <time>2013-08-17T10:58:30Z</time>
      </trkpt>
      <trkpt lat="48.68913" lon="1.92311">
        <ele>138</ele>
        <time>2013-08-17T10:58:36Z</time>
      </trkpt>
      <trkpt lat="48.68914" lon="1.92308">
        <ele>138</ele>
        <time>2013-08-17T10:58:38Z</time>
      </trkpt>
      <trkpt lat="48.68916" lon="1.92306">
        <ele>138</ele>
        <time>2013-08-17T10:58:42Z</time>
      </trkpt>
      <trkpt lat="48.68916" lon="1.92301">
        <ele>138</ele>
        <time>2013-08-17T10:58:44Z</time>
      </trkpt>
      <trkpt lat="48.68917" lon="1.92296">
        <ele>138</ele>
        <time>2013-08-17T10:58:48Z</time>
      </trkpt>
      <trkpt lat="48.6892" lon="1.92297">
        <ele>138</ele>
        <time>2013-08-17T10:58:53Z</time>
      </trkpt>
      <trkpt lat="48.68922" lon="1.92294">
        <ele>138</ele>
        <time>2013-08-17T10:58:56Z</time>
      </trkpt>
      <trkpt lat="48.68923" lon="1.92289">
        <ele>138</ele>
        <time>2013-08-17T10:58:58Z</time>
      </trkpt>
      <trkpt lat="48.68923" lon="1.92285">
        <ele>138</ele>
        <time>2013-08-17T10:59:00Z</time>
      </trkpt>
      <trkpt lat="48.68922" lon="1.9228">
        <ele>138</ele>
        <time>2013-08-17T10:59:03Z</time>
      </trkpt>
      <trkpt lat="48.68924" lon="1.92275">
        <ele>138</ele>
        <time>2013-08-17T10:59:06Z</time>
      </trkpt>
      <trkpt lat="48.68924" lon="1.92269">
        <ele>138</ele>
        <time>2013-08-17T10:59:09Z</time>
      </trkpt>
      <trkpt lat="48.68926" lon="1.92265">
        <ele>139</ele>
        <time>2013-08-17T10:59:11Z</time>
      </trkpt>
      <trkpt lat="48.68927" lon="1.92261">
        <ele>139</ele>
        <time>2013-08-17T10:59:13Z</time>
      </trkpt>
      <trkpt lat="48.68928" lon="1.92257">
        <ele>139</ele>
        <time>2013-08-17T10:59:15Z</time>
      </trkpt>
      <trkpt lat="48.68929" lon="1.92252">
        <ele>139</ele>
        <time>2013-08-17T10:59:17Z</time>
      </trkpt>
      <trkpt lat="48.68931" lon="1.92245">
        <ele>139</ele>
        <time>2013-08-17T10:59:20Z</time>
      </trkpt>
      <trkpt lat="48.68932" lon="1.92239">
        <ele>140</ele>
        <time>2013-08-17T10:59:23Z</time>
      </trkpt>
      <trkpt lat="48.68932" lon="1.92235">
        <ele>140</ele>
        <time>2013-08-17T10:59:25Z</time>
      </trkpt>
      <trkpt lat="48.68933" lon="1.9223">
        <ele>140</ele>
        <time>2013-08-17T10:59:27Z</time>
      </trkpt>
      <trkpt lat="48.68933" lon="1.92228">
        <ele>141</ele>
        <time>2013-08-17T10:59:29Z</time>
      </trkpt>
      <trkpt lat="48.68933" lon="1.92224">
        <ele>142</ele>
        <time>2013-08-17T10:59:31Z</time>
      </trkpt>
      <trkpt lat="48.68935" lon="1.92218">
        <ele>142</ele>
        <time>2013-08-17T10:59:33Z</time>
      </trkpt>
      <trkpt lat="48.68936" lon="1.92214">
        <ele>143</ele>
        <time>2013-08-17T10:59:35Z</time>
      </trkpt>
      <trkpt lat="48.68939" lon="1.92209">
        <ele>143</ele>
        <time>2013-08-17T10:59:37Z</time>
      </trkpt>
      <trkpt lat="48.68942" lon="1.92201">
        <ele>143</ele>
        <time>2013-08-17T10:59:41Z</time>
      </trkpt>
      <trkpt lat="48.68943" lon="1.92196">
        <ele>143</ele>
        <time>2013-08-17T10:59:43Z</time>
      </trkpt>
      <trkpt lat="48.68942" lon="1.92189">
        <ele>143</ele>
        <time>2013-08-17T10:59:46Z</time>
      </trkpt>
      <trkpt lat="48.68941" lon="1.92184">
        <ele>143</ele>
        <time>2013-08-17T10:59:48Z</time>
      </trkpt>
      <trkpt lat="48.68941" lon="1.9218">
        <ele>143</ele>
        <time>2013-08-17T10:59:50Z</time>
      </trkpt>
      <trkpt lat="48.68942" lon="1.92174">
        <ele>143</ele>
        <time>2013-08-17T10:59:52Z</time>
      </trkpt>
      <trkpt lat="48.68941" lon="1.9217">
        <ele>143</ele>
        <time>2013-08-17T10:59:54Z</time>
      </trkpt>
      <trkpt lat="48.68941" lon="1.92166">
        <ele>143</ele>
        <time>2013-08-17T10:59:56Z</time>
      </trkpt>
      <trkpt lat="48.68943" lon="1.92159">
        <ele>143</ele>
        <time>2013-08-17T10:59:59Z</time>
      </trkpt>
      <trkpt lat="48.68944" lon="1.92154">
        <ele>143</ele>
        <time>2013-08-17T11:00:01Z</time>
      </trkpt>
      <trkpt lat="48.68945" lon="1.92148">
        <ele>143</ele>
        <time>2013-08-17T11:00:03Z</time>
      </trkpt>
      <trkpt lat="48.68947" lon="1.92139">
        <ele>143</ele>
        <time>2013-08-17T11:00:06Z</time>
      </trkpt>
      <trkpt lat="48.68948" lon="1.92133">
        <ele>143</ele>
        <time>2013-08-17T11:00:08Z</time>
      </trkpt>
      <trkpt lat="48.6895" lon="1.92124">
        <ele>142</ele>
        <time>2013-08-17T11:00:11Z</time>
      </trkpt>
      <trkpt lat="48.6895" lon="1.92119">
        <ele>141</ele>
        <time>2013-08-17T11:00:13Z</time>
      </trkpt>
      <trkpt lat="48.6895" lon="1.92113">
        <ele>141</ele>
        <time>2013-08-17T11:00:16Z</time>
      </trkpt>
      <trkpt lat="48.68951" lon="1.92107">
        <ele>141</ele>
        <time>2013-08-17T11:00:19Z</time>
      </trkpt>
      <trkpt lat="48.68951" lon="1.92103">
        <ele>141</ele>
        <time>2013-08-17T11:00:21Z</time>
      </trkpt>
      <trkpt lat="48.68948" lon="1.92098">
        <ele>141</ele>
        <time>2013-08-17T11:00:24Z</time>
      </trkpt>
      <trkpt lat="48.68946" lon="1.92096">
        <ele>141</ele>
        <time>2013-08-17T11:00:26Z</time>
      </trkpt>
      <trkpt lat="48.68944" lon="1.92094">
        <ele>141</ele>
        <time>2013-08-17T11:00:28Z</time>
      </trkpt>
      <trkpt lat="48.68941" lon="1.9209">
        <ele>141</ele>
        <time>2013-08-17T11:00:31Z</time>
      </trkpt>
      <trkpt lat="48.68938" lon="1.92088">
        <ele>139</ele>
        <time>2013-08-17T11:00:33Z</time>
      </trkpt>
      <trkpt lat="48.68936" lon="1.92086">
        <ele>138</ele>
        <time>2013-08-17T11:00:35Z</time>
      </trkpt>
      <trkpt lat="48.68932" lon="1.9208">
        <ele>137</ele>
        <time>2013-08-17T11:00:39Z</time>
      </trkpt>
      <trkpt lat="48.68933" lon="1.92075">
        <ele>134</ele>
        <time>2013-08-17T11:00:42Z</time>
      </trkpt>
      <trkpt lat="48.68933" lon="1.92072">
        <ele>133</ele>
        <time>2013-08-17T11:00:44Z</time>
      </trkpt>
      <trkpt lat="48.68932" lon="1.9207">
        <ele>132</ele>
        <time>2013-08-17T11:00:46Z</time>
      </trkpt>
      <trkpt lat="48.68927" lon="1.92069">
        <ele>132</ele>
        <time>2013-08-17T11:00:49Z</time>
      </trkpt>
      <trkpt lat="48.68924" lon="1.92067">
        <ele>134</ele>
        <time>2013-08-17T11:00:53Z</time>
      </trkpt>
      <trkpt lat="48.68922" lon="1.92064">
        <ele>135</ele>
        <time>2013-08-17T11:00:55Z</time>
      </trkpt>
      <trkpt lat="48.68918" lon="1.92062">
        <ele>136</ele>
        <time>2013-08-17T11:00:57Z</time>
      </trkpt>
      <trkpt lat="48.68916" lon="1.92059">
        <ele>136</ele>
        <time>2013-08-17T11:00:59Z</time>
      </trkpt>
      <trkpt lat="48.68914" lon="1.92056">
        <ele>136</ele>
        <time>2013-08-17T11:01:01Z</time>
      </trkpt>
      <trkpt lat="48.6891" lon="1.92052">
        <ele>136</ele>
        <time>2013-08-17T11:01:04Z</time>
      </trkpt>
      <trkpt lat="48.68907" lon="1.92049">
        <ele>136</ele>
        <time>2013-08-17T11:01:06Z</time>
      </trkpt>
      <trkpt lat="48.68906" lon="1.92046">
        <ele>135</ele>
        <time>2013-08-17T11:01:08Z</time>
      </trkpt>
      <trkpt lat="48.68905" lon="1.92042">
        <ele>133</ele>
        <time>2013-08-17T11:01:11Z</time>
      </trkpt>
      <trkpt lat="48.68905" lon="1.92039">
        <ele>132</ele>
        <time>2013-08-17T11:01:13Z</time>
      </trkpt>
      <trkpt lat="48.68903" lon="1.92037">
        <ele>130</ele>
        <time>2013-08-17T11:01:15Z</time>
      </trkpt>
      <trkpt lat="48.689" lon="1.92034">
        <ele>129</ele>
        <time>2013-08-17T11:01:17Z</time>
      </trkpt>
      <trkpt lat="48.68896" lon="1.92029">
        <ele>126</ele>
        <time>2013-08-17T11:01:20Z</time>
      </trkpt>
      <trkpt lat="48.68894" lon="1.92026">
        <ele>124</ele>
        <time>2013-08-17T11:01:22Z</time>
      </trkpt>
      <trkpt lat="48.68891" lon="1.92023">
        <ele>122</ele>
        <time>2013-08-17T11:01:24Z</time>
      </trkpt>
      <trkpt lat="48.68886" lon="1.92018">
        <ele>120</ele>
        <time>2013-08-17T11:01:28Z</time>
      </trkpt>
      <trkpt lat="48.68884" lon="1.92016">
        <ele>120</ele>
        <time>2013-08-17T11:01:30Z</time>
      </trkpt>
      <trkpt lat="48.68883" lon="1.92015">
        <ele>120</ele>
        <time>2013-08-17T11:01:32Z</time>
      </trkpt>
      <trkpt lat="48.6888" lon="1.92013">
        <ele>120</ele>
        <time>2013-08-17T11:01:36Z</time>
      </trkpt>
      <trkpt lat="48.68877" lon="1.92011">
        <ele>120</ele>
        <time>2013-08-17T11:01:39Z</time>
      </trkpt>
      <trkpt lat="48.68875" lon="1.92011">
        <ele>120</ele>
        <time>2013-08-17T11:01:41Z</time>
      </trkpt>
      <trkpt lat="48.68872" lon="1.92007">
        <ele>121</ele>
        <time>2013-08-17T11:01:44Z</time>
      </trkpt>
      <trkpt lat="48.68868" lon="1.92002">
        <ele>121</ele>
        <time>2013-08-17T11:01:47Z</time>
      </trkpt>
      <trkpt lat="48.68866" lon="1.91999">
        <ele>121</ele>
        <time>2013-08-17T11:01:49Z</time>
      </trkpt>
      <trkpt lat="48.68864" lon="1.91996">
        <ele>121</ele>
        <time>2013-08-17T11:01:51Z</time>
      </trkpt>
      <trkpt lat="48.68861" lon="1.91992">
        <ele>121</ele>
        <time>2013-08-17T11:01:54Z</time>
      </trkpt>
      <trkpt lat="48.68858" lon="1.9199">
        <ele>121</ele>
        <time>2013-08-17T11:01:56Z</time>
      </trkpt>
      <trkpt lat="48.68854" lon="1.91987">
        <ele>121</ele>
        <time>2013-08-17T11:01:59Z</time>
      </trkpt>
      <trkpt lat="48.68852" lon="1.91987">
        <ele>121</ele>
        <time>2013-08-17T11:02:01Z</time>
      </trkpt>
      <trkpt lat="48.68848" lon="1.91983">
        <ele>121</ele>
        <time>2013-08-17T11:02:05Z</time>
      </trkpt>
      <trkpt lat="48.68846" lon="1.91981">
        <ele>121</ele>
        <time>2013-08-17T11:02:07Z</time>
      </trkpt>
      <trkpt lat="48.68843" lon="1.91978">
        <ele>121</ele>
        <time>2013-08-17T11:02:09Z</time>
      </trkpt>
      <trkpt lat="48.68839" lon="1.91974">
        <ele>121</ele>
        <time>2013-08-17T11:02:11Z</time>
      </trkpt>
      <trkpt lat="48.68835" lon="1.91969">
        <ele>121</ele>
        <time>2013-08-17T11:02:14Z</time>
      </trkpt>
      <trkpt lat="48.68832" lon="1.91967">
        <ele>121</ele>
        <time>2013-08-17T11:02:16Z</time>
      </trkpt>
      <trkpt lat="48.68829" lon="1.91964">
        <ele>124</ele>
        <time>2013-08-17T11:02:19Z</time>
      </trkpt>
      <trkpt lat="48.68826" lon="1.91962">
        <ele>125</ele>
        <time>2013-08-17T11:02:21Z</time>
      </trkpt>
      <trkpt lat="48.68823" lon="1.9196">
        <ele>126</ele>
        <time>2013-08-17T11:02:23Z</time>
      </trkpt>
      <trkpt lat="48.6882" lon="1.91958">
        <ele>127</ele>
        <time>2013-08-17T11:02:25Z</time>
      </trkpt>
      <trkpt lat="48.68818" lon="1.91954">
        <ele>129</ele>
        <time>2013-08-17T11:02:28Z</time>
      </trkpt>
      <trkpt lat="48.68815" lon="1.91951">
        <ele>129</ele>
        <time>2013-08-17T11:02:30Z</time>
      </trkpt>
      <trkpt lat="48.68812" lon="1.91947">
        <ele>129</ele>
        <time>2013-08-17T11:02:33Z</time>
      </trkpt>
      <trkpt lat="48.68809" lon="1.91943">
        <ele>129</ele>
        <time>2013-08-17T11:02:36Z</time>
      </trkpt>
      <trkpt lat="48.68806" lon="1.9194">
        <ele>129</ele>
        <time>2013-08-17T11:02:38Z</time>
      </trkpt>
      <trkpt lat="48.68802" lon="1.91936">
        <ele>129</ele>
        <time>2013-08-17T11:02:41Z</time>
      </trkpt>
      <trkpt lat="48.68798" lon="1.91934">
        <ele>130</ele>
        <time>2013-08-17T11:02:44Z</time>
      </trkpt>
      <trkpt lat="48.68797" lon="1.91931">
        <ele>132</ele>
        <time>2013-08-17T11:02:46Z</time>
      </trkpt>
      <trkpt lat="48.68794" lon="1.9193">
        <ele>133</ele>
        <time>2013-08-17T11:02:48Z</time>
      </trkpt>
      <trkpt lat="48.68792" lon="1.91927">
        <ele>134</ele>
        <time>2013-08-17T11:02:50Z</time>
      </trkpt>
      <trkpt lat="48.68791" lon="1.91924">
        <ele>135</ele>
        <time>2013-08-17T11:02:52Z</time>
      </trkpt>
      <trkpt lat="48.68788" lon="1.9192">
        <ele>137</ele>
        <time>2013-08-17T11:02:55Z</time>
      </trkpt>
      <trkpt lat="48.68785" lon="1.91919">
        <ele>139</ele>
        <time>2013-08-17T11:02:57Z</time>
      </trkpt>
      <trkpt lat="48.68781" lon="1.91915">
        <ele>141</ele>
        <time>2013-08-17T11:03:00Z</time>
      </trkpt>
      <trkpt lat="48.68777" lon="1.91911">
        <ele>141</ele>
        <time>2013-08-17T11:03:03Z</time>
      </trkpt>
      <trkpt lat="48.68775" lon="1.91907">
        <ele>141</ele>
        <time>2013-08-17T11:03:05Z</time>
      </trkpt>
      <trkpt lat="48.68771" lon="1.919">
        <ele>141</ele>
        <time>2013-08-17T11:03:08Z</time>
      </trkpt>
      <trkpt lat="48.68767" lon="1.91893">
        <ele>143</ele>
        <time>2013-08-17T11:03:11Z</time>
      </trkpt>
      <trkpt lat="48.68766" lon="1.91889">
        <ele>145</ele>
        <time>2013-08-17T11:03:13Z</time>
      </trkpt>
      <trkpt lat="48.68765" lon="1.91884">
        <ele>147</ele>
        <time>2013-08-17T11:03:15Z</time>
      </trkpt>
      <trkpt lat="48.68767" lon="1.91877">
        <ele>148</ele>
        <time>2013-08-17T11:03:18Z</time>
      </trkpt>
      <trkpt lat="48.68767" lon="1.91872">
        <ele>148</ele>
        <time>2013-08-17T11:03:20Z</time>
      </trkpt>
      <trkpt lat="48.68767" lon="1.91867">
        <ele>148</ele>
        <time>2013-08-17T11:03:22Z</time>
      </trkpt>
      <trkpt lat="48.68766" lon="1.91862">
        <ele>148</ele>
        <time>2013-08-17T11:03:24Z</time>
      </trkpt>
      <trkpt lat="48.68765" lon="1.91858">
        <ele>148</ele>
        <time>2013-08-17T11:03:26Z</time>
      </trkpt>
      <trkpt lat="48.68763" lon="1.91855">
        <ele>148</ele>
        <time>2013-08-17T11:03:28Z</time>
      </trkpt>
      <trkpt lat="48.68761" lon="1.91851">
        <ele>148</ele>
        <time>2013-08-17T11:03:30Z</time>
      </trkpt>
      <trkpt lat="48.68758" lon="1.91845">
        <ele>148</ele>
        <time>2013-08-17T11:03:34Z</time>
      </trkpt>
      <trkpt lat="48.68759" lon="1.91843">
        <ele>148</ele>
        <time>2013-08-17T11:03:37Z</time>
      </trkpt>
      <trkpt lat="48.6876" lon="1.91841">
        <ele>148</ele>
        <time>2013-08-17T11:03:39Z</time>
      </trkpt>
      <trkpt lat="48.68763" lon="1.91838">
        <ele>146</ele>
        <time>2013-08-17T11:03:41Z</time>
      </trkpt>
      <trkpt lat="48.68767" lon="1.91837">
        <ele>145</ele>
        <time>2013-08-17T11:03:44Z</time>
      </trkpt>
      <trkpt lat="48.68769" lon="1.91835">
        <ele>145</ele>
        <time>2013-08-17T11:03:46Z</time>
      </trkpt>
      <trkpt lat="48.68772" lon="1.91829">
        <ele>145</ele>
        <time>2013-08-17T11:03:49Z</time>
      </trkpt>
      <trkpt lat="48.68772" lon="1.91825">
        <ele>144</ele>
        <time>2013-08-17T11:03:51Z</time>
      </trkpt>
      <trkpt lat="48.68771" lon="1.91819">
        <ele>144</ele>
        <time>2013-08-17T11:03:54Z</time>
      </trkpt>
      <trkpt lat="48.6877" lon="1.91815">
        <ele>144</ele>
        <time>2013-08-17T11:03:56Z</time>
      </trkpt>
      <trkpt lat="48.68769" lon="1.9181">
        <ele>143</ele>
        <time>2013-08-17T11:03:58Z</time>
      </trkpt>
      <trkpt lat="48.68768" lon="1.91806">
        <ele>142</ele>
        <time>2013-08-17T11:04:00Z</time>
      </trkpt>
      <trkpt lat="48.68766" lon="1.91799">
        <ele>141</ele>
        <time>2013-08-17T11:04:03Z</time>
      </trkpt>
      <trkpt lat="48.68765" lon="1.91795">
        <ele>141</ele>
        <time>2013-08-17T11:04:05Z</time>
      </trkpt>
      <trkpt lat="48.68763" lon="1.91788">
        <ele>141</ele>
        <time>2013-08-17T11:04:08Z</time>
      </trkpt>
      <trkpt lat="48.68761" lon="1.91784">
        <ele>141</ele>
        <time>2013-08-17T11:04:10Z</time>
      </trkpt>
      <trkpt lat="48.6876" lon="1.91779">
        <ele>141</ele>
        <time>2013-08-17T11:04:12Z</time>
      </trkpt>
      <trkpt lat="48.68758" lon="1.91774">
        <ele>141</ele>
        <time>2013-08-17T11:04:14Z</time>
      </trkpt>
      <trkpt lat="48.68756" lon="1.91768">
        <ele>141</ele>
        <time>2013-08-17T11:04:17Z</time>
      </trkpt>
      <trkpt lat="48.68755" lon="1.91763">
        <ele>141</ele>
        <time>2013-08-17T11:04:19Z</time>
      </trkpt>
      <trkpt lat="48.68754" lon="1.91759">
        <ele>141</ele>
        <time>2013-08-17T11:04:21Z</time>
      </trkpt>
      <trkpt lat="48.68754" lon="1.91754">
        <ele>141</ele>
        <time>2013-08-17T11:04:23Z</time>
      </trkpt>
      <trkpt lat="48.68754" lon="1.91749">
        <ele>141</ele>
        <time>2013-08-17T11:04:25Z</time>
      </trkpt>
      <trkpt lat="48.68753" lon="1.91745">
        <ele>141</ele>
        <time>2013-08-17T11:04:27Z</time>
      </trkpt>
      <trkpt lat="48.68755" lon="1.91739">
        <ele>141</ele>
        <time>2013-08-17T11:04:29Z</time>
      </trkpt>
      <trkpt lat="48.68756" lon="1.91734">
        <ele>141</ele>
        <time>2013-08-17T11:04:31Z</time>
      </trkpt>
      <trkpt lat="48.68756" lon="1.91729">
        <ele>141</ele>
        <time>2013-08-17T11:04:33Z</time>
      </trkpt>
      <trkpt lat="48.68756" lon="1.91724">
        <ele>141</ele>
        <time>2013-08-17T11:04:35Z</time>
      </trkpt>
      <trkpt lat="48.68756" lon="1.9172">
        <ele>141</ele>
        <time>2013-08-17T11:04:37Z</time>
      </trkpt>
      <trkpt lat="48.68757" lon="1.91714">
        <ele>139</ele>
        <time>2013-08-17T11:04:39Z</time>
      </trkpt>
      <trkpt lat="48.68757" lon="1.91709">
        <ele>138</ele>
        <time>2013-08-17T11:04:41Z</time>
      </trkpt>
      <trkpt lat="48.68757" lon="1.91703">
        <ele>137</ele>
        <time>2013-08-17T11:04:43Z</time>
      </trkpt>
      <trkpt lat="48.68757" lon="1.91695">
        <ele>135</ele>
        <time>2013-08-17T11:04:46Z</time>
      </trkpt>
      <trkpt lat="48.68755" lon="1.91692">
        <ele>135</ele>
        <time>2013-08-17T11:04:48Z</time>
      </trkpt>
      <trkpt lat="48.68754" lon="1.91685">
        <ele>135</ele>
        <time>2013-08-17T11:04:51Z</time>
      </trkpt>
      <trkpt lat="48.68753" lon="1.91681">
        <ele>135</ele>
        <time>2013-08-17T11:04:53Z</time>
      </trkpt>
      <trkpt lat="48.68752" lon="1.91676">
        <ele>135</ele>
        <time>2013-08-17T11:04:55Z</time>
      </trkpt>
      <trkpt lat="48.68751" lon="1.91672">
        <ele>135</ele>
        <time>2013-08-17T11:04:57Z</time>
      </trkpt>
      <trkpt lat="48.68749" lon="1.91669">
        <ele>135</ele>
        <time>2013-08-17T11:04:59Z</time>
      </trkpt>
      <trkpt lat="48.68747" lon="1.91665">
        <ele>135</ele>
        <time>2013-08-17T11:05:01Z</time>
      </trkpt>
      <trkpt lat="48.68745" lon="1.91662">
        <ele>135</ele>
        <time>2013-08-17T11:05:03Z</time>
      </trkpt>
      <trkpt lat="48.68743" lon="1.9166">
        <ele>135</ele>
        <time>2013-08-17T11:05:05Z</time>
      </trkpt>
      <trkpt lat="48.68739" lon="1.91654">
        <ele>135</ele>
        <time>2013-08-17T11:05:09Z</time>
      </trkpt>
      <trkpt lat="48.68737" lon="1.9165">
        <ele>135</ele>
        <time>2013-08-17T11:05:11Z</time>
      </trkpt>
      <trkpt lat="48.68733" lon="1.91646">
        <ele>135</ele>
        <time>2013-08-17T11:05:14Z</time>
      </trkpt>
      <trkpt lat="48.6873" lon="1.91643">
        <ele>135</ele>
        <time>2013-08-17T11:05:16Z</time>
      </trkpt>
      <trkpt lat="48.68728" lon="1.9164">
        <ele>135</ele>
        <time>2013-08-17T11:05:18Z</time>
      </trkpt>
      <trkpt lat="48.68726" lon="1.91637">
        <ele>135</ele>
        <time>2013-08-17T11:05:20Z</time>
      </trkpt>
      <trkpt lat="48.68724" lon="1.91635">
        <ele>135</ele>
        <time>2013-08-17T11:05:22Z</time>
      </trkpt>
      <trkpt lat="48.68721" lon="1.91631">
        <ele>135</ele>
        <time>2013-08-17T11:05:25Z</time>
      </trkpt>
      <trkpt lat="48.68716" lon="1.91629">
        <ele>135</ele>
        <time>2013-08-17T11:05:28Z</time>
      </trkpt>
      <trkpt lat="48.68713" lon="1.91627">
        <ele>134</ele>
        <time>2013-08-17T11:05:30Z</time>
      </trkpt>
      <trkpt lat="48.6871" lon="1.91625">
        <ele>134</ele>
        <time>2013-08-17T11:05:32Z</time>
      </trkpt>
      <trkpt lat="48.68708" lon="1.91622">
        <ele>134</ele>
        <time>2013-08-17T11:05:34Z</time>
      </trkpt>
      <trkpt lat="48.68705" lon="1.91619">
        <ele>133</ele>
        <time>2013-08-17T11:05:36Z</time>
      </trkpt>
      <trkpt lat="48.68703" lon="1.91615">
        <ele>133</ele>
        <time>2013-08-17T11:05:38Z</time>
      </trkpt>
      <trkpt lat="48.68701" lon="1.91611">
        <ele>133</ele>
        <time>2013-08-17T11:05:40Z</time>
      </trkpt>
      <trkpt lat="48.68697" lon="1.91605">
        <ele>133</ele>
        <time>2013-08-17T11:05:43Z</time>
      </trkpt>
      <trkpt lat="48.68696" lon="1.91601">
        <ele>133</ele>
        <time>2013-08-17T11:05:45Z</time>
      </trkpt>
      <trkpt lat="48.68694" lon="1.91594">
        <ele>133</ele>
        <time>2013-08-17T11:05:48Z</time>
      </trkpt>
      <trkpt lat="48.68694" lon="1.91588">
        <ele>133</ele>
        <time>2013-08-17T11:05:50Z</time>
      </trkpt>
      <trkpt lat="48.68691" lon="1.91585">
        <ele>133</ele>
        <time>2013-08-17T11:05:52Z</time>
      </trkpt>
      <trkpt lat="48.6869" lon="1.91578">
        <ele>135</ele>
        <time>2013-08-17T11:05:55Z</time>
      </trkpt>
      <trkpt lat="48.68689" lon="1.91573">
        <ele>137</ele>
        <time>2013-08-17T11:05:57Z</time>
      </trkpt>
      <trkpt lat="48.68687" lon="1.91566">
        <ele>139</ele>
        <time>2013-08-17T11:06:00Z</time>
      </trkpt>
      <trkpt lat="48.68686" lon="1.9156">
        <ele>141</ele>
        <time>2013-08-17T11:06:02Z</time>
      </trkpt>
      <trkpt lat="48.68689" lon="1.91553">
        <ele>142</ele>
        <time>2013-08-17T11:06:05Z</time>
      </trkpt>
      <trkpt lat="48.6869" lon="1.91547">
        <ele>143</ele>
        <time>2013-08-17T11:06:07Z</time>
      </trkpt>
      <trkpt lat="48.6869" lon="1.91541">
        <ele>143</ele>
        <time>2013-08-17T11:06:09Z</time>
      </trkpt>
      <trkpt lat="48.68689" lon="1.91536">
        <ele>144</ele>
        <time>2013-08-17T11:06:11Z</time>
      </trkpt>
      <trkpt lat="48.68691" lon="1.9153">
        <ele>144</ele>
        <time>2013-08-17T11:06:14Z</time>
      </trkpt>
      <trkpt lat="48.6869" lon="1.91525">
        <ele>144</ele>
        <time>2013-08-17T11:06:16Z</time>
      </trkpt>
      <trkpt lat="48.68689" lon="1.91519">
        <ele>145</ele>
        <time>2013-08-17T11:06:18Z</time>
      </trkpt>
      <trkpt lat="48.68689" lon="1.91514">
        <ele>145</ele>
        <time>2013-08-17T11:06:20Z</time>
      </trkpt>
      <trkpt lat="48.68688" lon="1.91506">
        <ele>146</ele>
        <time>2013-08-17T11:06:23Z</time>
      </trkpt>
      <trkpt lat="48.68686" lon="1.91499">
        <ele>146</ele>
        <time>2013-08-17T11:06:26Z</time>
      </trkpt>
      <trkpt lat="48.68684" lon="1.91495">
        <ele>146</ele>
        <time>2013-08-17T11:06:28Z</time>
      </trkpt>
      <trkpt lat="48.68681" lon="1.9149">
        <ele>146</ele>
        <time>2013-08-17T11:06:30Z</time>
      </trkpt>
      <trkpt lat="48.68681" lon="1.91486">
        <ele>146</ele>
        <time>2013-08-17T11:06:32Z</time>
      </trkpt>
      <trkpt lat="48.6868" lon="1.91481">
        <ele>146</ele>
        <time>2013-08-17T11:06:34Z</time>
      </trkpt>
      <trkpt lat="48.68679" lon="1.91477">
        <ele>145</ele>
        <time>2013-08-17T11:06:36Z</time>
      </trkpt>
      <trkpt lat="48.68678" lon="1.91471">
        <ele>142</ele>
        <time>2013-08-17T11:06:39Z</time>
      </trkpt>
      <trkpt lat="48.68677" lon="1.91466">
        <ele>141</ele>
        <time>2013-08-17T11:06:41Z</time>
      </trkpt>
      <trkpt lat="48.68676" lon="1.9146">
        <ele>140</ele>
        <time>2013-08-17T11:06:43Z</time>
      </trkpt>
      <trkpt lat="48.68676" lon="1.91456">
        <ele>139</ele>
        <time>2013-08-17T11:06:45Z</time>
      </trkpt>
      <trkpt lat="48.68676" lon="1.91451">
        <ele>139</ele>
        <time>2013-08-17T11:06:47Z</time>
      </trkpt>
      <trkpt lat="48.68676" lon="1.91446">
        <ele>139</ele>
        <time>2013-08-17T11:06:49Z</time>
      </trkpt>
      <trkpt lat="48.68674" lon="1.91439">
        <ele>139</ele>
        <time>2013-08-17T11:06:51Z</time>
      </trkpt>
      <trkpt lat="48.68673" lon="1.91434">
        <ele>138</ele>
        <time>2013-08-17T11:06:53Z</time>
      </trkpt>
      <trkpt lat="48.68673" lon="1.91428">
        <ele>136</ele>
        <time>2013-08-17T11:06:55Z</time>
      </trkpt>
      <trkpt lat="48.68672" lon="1.91423">
        <ele>136</ele>
        <time>2013-08-17T11:06:57Z</time>
      </trkpt>
      <trkpt lat="48.68671" lon="1.91418">
        <ele>136</ele>
        <time>2013-08-17T11:06:59Z</time>
      </trkpt>
      <trkpt lat="48.68671" lon="1.9141">
        <ele>136</ele>
        <time>2013-08-17T11:07:02Z</time>
      </trkpt>
      <trkpt lat="48.68668" lon="1.91402">
        <ele>136</ele>
        <time>2013-08-17T11:07:05Z</time>
      </trkpt>
      <trkpt lat="48.68668" lon="1.91396">
        <ele>136</ele>
        <time>2013-08-17T11:07:07Z</time>
      </trkpt>
      <trkpt lat="48.68668" lon="1.91392">
        <ele>136</ele>
        <time>2013-08-17T11:07:09Z</time>
      </trkpt>
      <trkpt lat="48.68668" lon="1.91387">
        <ele>137</ele>
        <time>2013-08-17T11:07:11Z</time>
      </trkpt>
      <trkpt lat="48.68669" lon="1.91382">
        <ele>138</ele>
        <time>2013-08-17T11:07:13Z</time>
      </trkpt>
      <trkpt lat="48.6867" lon="1.91375">
        <ele>139</ele>
        <time>2013-08-17T11:07:16Z</time>
      </trkpt>
      <trkpt lat="48.68671" lon="1.91372">
        <ele>141</ele>
        <time>2013-08-17T11:07:18Z</time>
      </trkpt>
      <trkpt lat="48.68672" lon="1.91369">
        <ele>142</ele>
        <time>2013-08-17T11:07:20Z</time>
      </trkpt>
      <trkpt lat="48.68673" lon="1.91363">
        <ele>143</ele>
        <time>2013-08-17T11:07:22Z</time>
      </trkpt>
      <trkpt lat="48.68676" lon="1.91361">
        <ele>144</ele>
        <time>2013-08-17T11:07:24Z</time>
      </trkpt>
      <trkpt lat="48.6868" lon="1.91356">
        <ele>145</ele>
        <time>2013-08-17T11:07:27Z</time>
      </trkpt>
      <trkpt lat="48.68682" lon="1.91351">
        <ele>145</ele>
        <time>2013-08-17T11:07:29Z</time>
      </trkpt>
      <trkpt lat="48.68685" lon="1.91348">
        <ele>145</ele>
        <time>2013-08-17T11:07:31Z</time>
      </trkpt>
      <trkpt lat="48.68688" lon="1.9134">
        <ele>145</ele>
        <time>2013-08-17T11:07:33Z</time>
      </trkpt>
      <trkpt lat="48.68689" lon="1.91334">
        <ele>145</ele>
        <time>2013-08-17T11:07:35Z</time>
      </trkpt>
      <trkpt lat="48.68691" lon="1.91329">
        <ele>145</ele>
        <time>2013-08-17T11:07:40Z</time>
      </trkpt>
      <trkpt lat="48.68691" lon="1.91325">
        <ele>145</ele>
        <time>2013-08-17T11:07:42Z</time>
      </trkpt>
      <trkpt lat="48.6869" lon="1.9132">
        <ele>145</ele>
        <time>2013-08-17T11:07:44Z</time>
      </trkpt>
      <trkpt lat="48.68691" lon="1.91315">
        <ele>145</ele>
        <time>2013-08-17T11:07:46Z</time>
      </trkpt>
      <trkpt lat="48.68691" lon="1.91309">
        <ele>145</ele>
        <time>2013-08-17T11:07:48Z</time>
      </trkpt>
      <trkpt lat="48.68691" lon="1.91304">
        <ele>145</ele>
        <time>2013-08-17T11:07:50Z</time>
      </trkpt>
      <trkpt lat="48.6869" lon="1.913">
        <ele>145</ele>
        <time>2013-08-17T11:07:52Z</time>
      </trkpt>
      <trkpt lat="48.68689" lon="1.91297">
        <ele>144</ele>
        <time>2013-08-17T11:07:54Z</time>
      </trkpt>
      <trkpt lat="48.68688" lon="1.91293">
        <ele>143</ele>
        <time>2013-08-17T11:07:56Z</time>
      </trkpt>
      <trkpt lat="48.68686" lon="1.91289">
        <ele>143</ele>
        <time>2013-08-17T11:07:58Z</time>
      </trkpt>
      <trkpt lat="48.68684" lon="1.91285">
        <ele>142</ele>
        <time>2013-08-17T11:08:00Z</time>
      </trkpt>
      <trkpt lat="48.68681" lon="1.91281">
        <ele>142</ele>
        <time>2013-08-17T11:08:02Z</time>
      </trkpt>
      <trkpt lat="48.68678" lon="1.91278">
        <ele>141</ele>
        <time>2013-08-17T11:08:04Z</time>
      </trkpt>
      <trkpt lat="48.68676" lon="1.91274">
        <ele>141</ele>
        <time>2013-08-17T11:08:06Z</time>
      </trkpt>
      <trkpt lat="48.68675" lon="1.9127">
        <ele>140</ele>
        <time>2013-08-17T11:08:08Z</time>
      </trkpt>
      <trkpt lat="48.68674" lon="1.91267">
        <ele>140</ele>
        <time>2013-08-17T11:08:10Z</time>
      </trkpt>
      <trkpt lat="48.68673" lon="1.91262">
        <ele>139</ele>
        <time>2013-08-17T11:08:12Z</time>
      </trkpt>
      <trkpt lat="48.68672" lon="1.91258">
        <ele>138</ele>
        <time>2013-08-17T11:08:14Z</time>
      </trkpt>
      <trkpt lat="48.68671" lon="1.91255">
        <ele>137</ele>
        <time>2013-08-17T11:08:16Z</time>
      </trkpt>
      <trkpt lat="48.68669" lon="1.9125">
        <ele>136</ele>
        <time>2013-08-17T11:08:18Z</time>
      </trkpt>
      <trkpt lat="48.68668" lon="1.91246">
        <ele>136</ele>
        <time>2013-08-17T11:08:20Z</time>
      </trkpt>
      <trkpt lat="48.68667" lon="1.91243">
        <ele>136</ele>
        <time>2013-08-17T11:08:22Z</time>
      </trkpt>
      <trkpt lat="48.68667" lon="1.91238">
        <ele>136</ele>
        <time>2013-08-17T11:08:24Z</time>
      </trkpt>
      <trkpt lat="48.68666" lon="1.91234">
        <ele>136</ele>
        <time>2013-08-17T11:08:26Z</time>
      </trkpt>
      <trkpt lat="48.68666" lon="1.9123">
        <ele>136</ele>
        <time>2013-08-17T11:08:28Z</time>
      </trkpt>
      <trkpt lat="48.68665" lon="1.91227">
        <ele>136</ele>
        <time>2013-08-17T11:08:30Z</time>
      </trkpt>
      <trkpt lat="48.68666" lon="1.91223">
        <ele>136</ele>
        <time>2013-08-17T11:08:32Z</time>
      </trkpt>
      <trkpt lat="48.68666" lon="1.91218">
        <ele>136</ele>
        <time>2013-08-17T11:08:34Z</time>
      </trkpt>
      <trkpt lat="48.68666" lon="1.91213">
        <ele>136</ele>
        <time>2013-08-17T11:08:36Z</time>
      </trkpt>
      <trkpt lat="48.68665" lon="1.91208">
        <ele>136</ele>
        <time>2013-08-17T11:08:38Z</time>
      </trkpt>
      <trkpt lat="48.68664" lon="1.91202">
        <ele>136</ele>
        <time>2013-08-17T11:08:40Z</time>
      </trkpt>
      <trkpt lat="48.68663" lon="1.91198">
        <ele>136</ele>
        <time>2013-08-17T11:08:42Z</time>
      </trkpt>
      <trkpt lat="48.68661" lon="1.91192">
        <ele>136</ele>
        <time>2013-08-17T11:08:45Z</time>
      </trkpt>
      <trkpt lat="48.6866" lon="1.91187">
        <ele>136</ele>
        <time>2013-08-17T11:08:47Z</time>
      </trkpt>
      <trkpt lat="48.68658" lon="1.91182">
        <ele>136</ele>
        <time>2013-08-17T11:08:49Z</time>
      </trkpt>
      <trkpt lat="48.68656" lon="1.91178">
        <ele>137</ele>
        <time>2013-08-17T11:08:51Z</time>
      </trkpt>
      <trkpt lat="48.68655" lon="1.91173">
        <ele>139</ele>
        <time>2013-08-17T11:08:53Z</time>
      </trkpt>
      <trkpt lat="48.68655" lon="1.91169">
        <ele>141</ele>
        <time>2013-08-17T11:08:55Z</time>
      </trkpt>
      <trkpt lat="48.68653" lon="1.91164">
        <ele>143</ele>
        <time>2013-08-17T11:08:57Z</time>
      </trkpt>
      <trkpt lat="48.68653" lon="1.91159">
        <ele>144</ele>
        <time>2013-08-17T11:08:59Z</time>
      </trkpt>
      <trkpt lat="48.68653" lon="1.91154">
        <ele>144</ele>
        <time>2013-08-17T11:09:01Z</time>
      </trkpt>
      <trkpt lat="48.68653" lon="1.91149">
        <ele>144</ele>
        <time>2013-08-17T11:09:03Z</time>
      </trkpt>
      <trkpt lat="48.68652" lon="1.91144">
        <ele>144</ele>
        <time>2013-08-17T11:09:05Z</time>
      </trkpt>
      <trkpt lat="48.68652" lon="1.91138">
        <ele>144</ele>
        <time>2013-08-17T11:09:07Z</time>
      </trkpt>
      <trkpt lat="48.68651" lon="1.9113">
        <ele>144</ele>
        <time>2013-08-17T11:09:10Z</time>
      </trkpt>
      <trkpt lat="48.68651" lon="1.91123">
        <ele>144</ele>
        <time>2013-08-17T11:09:12Z</time>
      </trkpt>
      <trkpt lat="48.68651" lon="1.91115">
        <ele>144</ele>
        <time>2013-08-17T11:09:15Z</time>
      </trkpt>
      <trkpt lat="48.68652" lon="1.91107">
        <ele>144</ele>
        <time>2013-08-17T11:09:18Z</time>
      </trkpt>
      <trkpt lat="48.68651" lon="1.91103">
        <ele>142</ele>
        <time>2013-08-17T11:09:20Z</time>
      </trkpt>
      <trkpt lat="48.68651" lon="1.91098">
        <ele>142</ele>
        <time>2013-08-17T11:09:22Z</time>
      </trkpt>
      <trkpt lat="48.6865" lon="1.91094">
        <ele>141</ele>
        <time>2013-08-17T11:09:24Z</time>
      </trkpt>
      <trkpt lat="48.6865" lon="1.9109">
        <ele>141</ele>
        <time>2013-08-17T11:09:26Z</time>
      </trkpt>
      <trkpt lat="48.68649" lon="1.91085">
        <ele>141</ele>
        <time>2013-08-17T11:09:28Z</time>
      </trkpt>
      <trkpt lat="48.68648" lon="1.91079">
        <ele>141</ele>
        <time>2013-08-17T11:09:31Z</time>
      </trkpt>
      <trkpt lat="48.68647" lon="1.91078">
        <ele>141</ele>
        <time>2013-08-17T11:09:35Z</time>
      </trkpt>
      <trkpt lat="48.68645" lon="1.91079">
        <ele>142</ele>
        <time>2013-08-17T11:09:39Z</time>
      </trkpt>
      <trkpt lat="48.68642" lon="1.91077">
        <ele>145</ele>
        <time>2013-08-17T11:09:42Z</time>
      </trkpt>
      <trkpt lat="48.68641" lon="1.91076">
        <ele>147</ele>
        <time>2013-08-17T11:09:44Z</time>
      </trkpt>
      <trkpt lat="48.6864" lon="1.91074">
        <ele>150</ele>
        <time>2013-08-17T11:09:48Z</time>
      </trkpt>
      <trkpt lat="48.6864" lon="1.91072">
        <ele>151</ele>
        <time>2013-08-17T11:09:51Z</time>
      </trkpt>
      <trkpt lat="48.68638" lon="1.91072">
        <ele>151</ele>
        <time>2013-08-17T11:09:54Z</time>
      </trkpt>
      <trkpt lat="48.68638" lon="1.91074">
        <ele>153</ele>
        <time>2013-08-17T11:09:56Z</time>
      </trkpt>
      <trkpt lat="48.68637" lon="1.91074">
        <ele>155</ele>
        <time>2013-08-17T11:09:58Z</time>
      </trkpt>
      <trkpt lat="48.68637" lon="1.91068">
        <ele>156</ele>
        <time>2013-08-17T11:10:01Z</time>
      </trkpt>
      <trkpt lat="48.68637" lon="1.91062">
        <ele>156</ele>
        <time>2013-08-17T11:10:03Z</time>
      </trkpt>
      <trkpt lat="48.68637" lon="1.91059">
        <ele>156</ele>
        <time>2013-08-17T11:10:05Z</time>
      </trkpt>
      <trkpt lat="48.68637" lon="1.91056">
        <ele>156</ele>
        <time>2013-08-17T11:10:07Z</time>
      </trkpt>
      <trkpt lat="48.68636" lon="1.91051">
        <ele>155</ele>
        <time>2013-08-17T11:10:09Z</time>
      </trkpt>
      <trkpt lat="48.68633" lon="1.91046">
        <ele>152</ele>
        <time>2013-08-17T11:10:12Z</time>
      </trkpt>
      <trkpt lat="48.68631" lon="1.91041">
        <ele>151</ele>
        <time>2013-08-17T11:10:15Z</time>
      </trkpt>
      <trkpt lat="48.6863" lon="1.91035">
        <ele>150</ele>
        <time>2013-08-17T11:10:18Z</time>
      </trkpt>
      <trkpt lat="48.68628" lon="1.9103">
        <ele>149</ele>
        <time>2013-08-17T11:10:20Z</time>
      </trkpt>
      <trkpt lat="48.68628" lon="1.91025">
        <ele>147</ele>
        <time>2013-08-17T11:10:22Z</time>
      </trkpt>
      <trkpt lat="48.68626" lon="1.91023">
        <ele>145</ele>
        <time>2013-08-17T11:10:24Z</time>
      </trkpt>
      <trkpt lat="48.68623" lon="1.91017">
        <ele>145</ele>
        <time>2013-08-17T11:10:28Z</time>
      </trkpt>
      <trkpt lat="48.6862" lon="1.91013">
        <ele>144</ele>
        <time>2013-08-17T11:10:30Z</time>
      </trkpt>
      <trkpt lat="48.68618" lon="1.91008">
        <ele>143</ele>
        <time>2013-08-17T11:10:33Z</time>
      </trkpt>
      <trkpt lat="48.68615" lon="1.91003">
        <ele>143</ele>
        <time>2013-08-17T11:10:35Z</time>
      </trkpt>
      <trkpt lat="48.68614" lon="1.90998">
        <ele>143</ele>
        <time>2013-08-17T11:10:37Z</time>
      </trkpt>
      <trkpt lat="48.68612" lon="1.90994">
        <ele>143</ele>
        <time>2013-08-17T11:10:40Z</time>
      </trkpt>
      <trkpt lat="48.6861" lon="1.9099">
        <ele>143</ele>
        <time>2013-08-17T11:10:42Z</time>
      </trkpt>
      <trkpt lat="48.68607" lon="1.90984">
        <ele>141</ele>
        <time>2013-08-17T11:10:45Z</time>
      </trkpt>
      <trkpt lat="48.68605" lon="1.9098">
        <ele>139</ele>
        <time>2013-08-17T11:10:48Z</time>
      </trkpt>
      <trkpt lat="48.68604" lon="1.90976">
        <ele>138</ele>
        <time>2013-08-17T11:10:50Z</time>
      </trkpt>
      <trkpt lat="48.68603" lon="1.90971">
        <ele>137</ele>
        <time>2013-08-17T11:10:52Z</time>
      </trkpt>
      <trkpt lat="48.68601" lon="1.90964">
        <ele>136</ele>
        <time>2013-08-17T11:10:55Z</time>
      </trkpt>
      <trkpt lat="48.68597" lon="1.90956">
        <ele>133</ele>
        <time>2013-08-17T11:10:59Z</time>
      </trkpt>
      <trkpt lat="48.68596" lon="1.90948">
        <ele>130</ele>
        <time>2013-08-17T11:11:02Z</time>
      </trkpt>
      <trkpt lat="48.68595" lon="1.90943">
        <ele>128</ele>
        <time>2013-08-17T11:11:04Z</time>
      </trkpt>
      <trkpt lat="48.68594" lon="1.90939">
        <ele>126</ele>
        <time>2013-08-17T11:11:06Z</time>
      </trkpt>
      <trkpt lat="48.68593" lon="1.90936">
        <ele>125</ele>
        <time>2013-08-17T11:11:08Z</time>
      </trkpt>
      <trkpt lat="48.68592" lon="1.90934">
        <ele>125</ele>
        <time>2013-08-17T11:11:10Z</time>
      </trkpt>
      <trkpt lat="48.6859" lon="1.90927">
        <ele>125</ele>
        <time>2013-08-17T11:11:13Z</time>
      </trkpt>
      <trkpt lat="48.68589" lon="1.9092">
        <ele>125</ele>
        <time>2013-08-17T11:11:15Z</time>
      </trkpt>
      <trkpt lat="48.68587" lon="1.90914">
        <ele>124</ele>
        <time>2013-08-17T11:11:18Z</time>
      </trkpt>
      <trkpt lat="48.68586" lon="1.90906">
        <ele>122</ele>
        <time>2013-08-17T11:11:21Z</time>
      </trkpt>
      <trkpt lat="48.68585" lon="1.90901">
        <ele>120</ele>
        <time>2013-08-17T11:11:23Z</time>
      </trkpt>
      <trkpt lat="48.68584" lon="1.90895">
        <ele>119</ele>
        <time>2013-08-17T11:11:26Z</time>
      </trkpt>
      <trkpt lat="48.68584" lon="1.9089">
        <ele>118</ele>
        <time>2013-08-17T11:11:28Z</time>
      </trkpt>
      <trkpt lat="48.68584" lon="1.90885">
        <ele>118</ele>
        <time>2013-08-17T11:11:30Z</time>
      </trkpt>
      <trkpt lat="48.68584" lon="1.9088">
        <ele>117</ele>
        <time>2013-08-17T11:11:32Z</time>
      </trkpt>
      <trkpt lat="48.68584" lon="1.90876">
        <ele>116</ele>
        <time>2013-08-17T11:11:34Z</time>
      </trkpt>
      <trkpt lat="48.68584" lon="1.90869">
        <ele>116</ele>
        <time>2013-08-17T11:11:38Z</time>
      </trkpt>
      <trkpt lat="48.68583" lon="1.90865">
        <ele>116</ele>
        <time>2013-08-17T11:11:42Z</time>
      </trkpt>
      <trkpt lat="48.68583" lon="1.90861">
        <ele>118</ele>
        <time>2013-08-17T11:11:44Z</time>
      </trkpt>
      <trkpt lat="48.68583" lon="1.90859">
        <ele>121</ele>
        <time>2013-08-17T11:11:47Z</time>
      </trkpt>
      <trkpt lat="48.68583" lon="1.90855">
        <ele>127</ele>
        <time>2013-08-17T11:11:51Z</time>
      </trkpt>
      <trkpt lat="48.68582" lon="1.90853">
        <ele>131</ele>
        <time>2013-08-17T11:11:53Z</time>
      </trkpt>
      <trkpt lat="48.68582" lon="1.9085">
        <ele>135</ele>
        <time>2013-08-17T11:11:55Z</time>
      </trkpt>
      <trkpt lat="48.68584" lon="1.90847">
        <ele>139</ele>
        <time>2013-08-17T11:11:57Z</time>
      </trkpt>
      <trkpt lat="48.68586" lon="1.90843">
        <ele>143</ele>
        <time>2013-08-17T11:11:59Z</time>
      </trkpt>
      <trkpt lat="48.68589" lon="1.90837">
        <ele>148</ele>
        <time>2013-08-17T11:12:02Z</time>
      </trkpt>
      <trkpt lat="48.6859" lon="1.90834">
        <ele>150</ele>
        <time>2013-08-17T11:12:04Z</time>
      </trkpt>
      <trkpt lat="48.68592" lon="1.90829">
        <ele>153</ele>
        <time>2013-08-17T11:12:07Z</time>
      </trkpt>
      <trkpt lat="48.68593" lon="1.90825">
        <ele>155</ele>
        <time>2013-08-17T11:12:09Z</time>
      </trkpt>
      <trkpt lat="48.68594" lon="1.9082">
        <ele>157</ele>
        <time>2013-08-17T11:12:11Z</time>
      </trkpt>
      <trkpt lat="48.68596" lon="1.90815">
        <ele>160</ele>
        <time>2013-08-17T11:12:14Z</time>
      </trkpt>
      <trkpt lat="48.68596" lon="1.9081">
        <ele>161</ele>
        <time>2013-08-17T11:12:18Z</time>
      </trkpt>
      <trkpt lat="48.68597" lon="1.90806">
        <ele>161</ele>
        <time>2013-08-17T11:12:20Z</time>
      </trkpt>
      <trkpt lat="48.68597" lon="1.90801">
        <ele>162</ele>
        <time>2013-08-17T11:12:22Z</time>
      </trkpt>
      <trkpt lat="48.68597" lon="1.90797">
        <ele>163</ele>
        <time>2013-08-17T11:12:24Z</time>
      </trkpt>
      <trkpt lat="48.68597" lon="1.90793">
        <ele>164</ele>
        <time>2013-08-17T11:12:26Z</time>
      </trkpt>
      <trkpt lat="48.68597" lon="1.90787">
        <ele>164</ele>
        <time>2013-08-17T11:12:28Z</time>
      </trkpt>
      <trkpt lat="48.68599" lon="1.90781">
        <ele>164</ele>
        <time>2013-08-17T11:12:30Z</time>
      </trkpt>
      <trkpt lat="48.686" lon="1.90775">
        <ele>164</ele>
        <time>2013-08-17T11:12:32Z</time>
      </trkpt>
      <trkpt lat="48.68601" lon="1.90771">
        <ele>164</ele>
        <time>2013-08-17T11:12:34Z</time>
      </trkpt>
      <trkpt lat="48.68599" lon="1.90766">
        <ele>164</ele>
        <time>2013-08-17T11:12:37Z</time>
      </trkpt>
      <trkpt lat="48.68597" lon="1.90761">
        <ele>165</ele>
        <time>2013-08-17T11:12:40Z</time>
      </trkpt>
      <trkpt lat="48.68596" lon="1.90756">
        <ele>167</ele>
        <time>2013-08-17T11:12:42Z</time>
      </trkpt>
      <trkpt lat="48.68596" lon="1.9075">
        <ele>170</ele>
        <time>2013-08-17T11:12:45Z</time>
      </trkpt>
      <trkpt lat="48.68596" lon="1.90746">
        <ele>172</ele>
        <time>2013-08-17T11:12:47Z</time>
      </trkpt>
      <trkpt lat="48.68596" lon="1.90742">
        <ele>174</ele>
        <time>2013-08-17T11:12:49Z</time>
      </trkpt>
      <trkpt lat="48.68595" lon="1.90736">
        <ele>175</ele>
        <time>2013-08-17T11:12:52Z</time>
      </trkpt>
      <trkpt lat="48.68596" lon="1.90731">
        <ele>176</ele>
        <time>2013-08-17T11:12:54Z</time>
      </trkpt>
      <trkpt lat="48.68596" lon="1.90726">
        <ele>176</ele>
        <time>2013-08-17T11:12:56Z</time>
      </trkpt>
      <trkpt lat="48.68596" lon="1.90723">
        <ele>176</ele>
        <time>2013-08-17T11:12:58Z</time>
      </trkpt>
      <trkpt lat="48.68595" lon="1.90716">
        <ele>176</ele>
        <time>2013-08-17T11:13:01Z</time>
      </trkpt>
      <trkpt lat="48.68596" lon="1.90711">
        <ele>176</ele>
        <time>2013-08-17T11:13:03Z</time>
      </trkpt>
      <trkpt lat="48.68596" lon="1.90707">
        <ele>176</ele>
        <time>2013-08-17T11:13:05Z</time>
      </trkpt>
      <trkpt lat="48.68596" lon="1.90699">
        <ele>176</ele>
        <time>2013-08-17T11:13:08Z</time>
      </trkpt>
      <trkpt lat="48.68597" lon="1.90693">
        <ele>176</ele>
        <time>2013-08-17T11:13:10Z</time>
      </trkpt>
      <trkpt lat="48.68597" lon="1.90689">
        <ele>176</ele>
        <time>2013-08-17T11:13:12Z</time>
      </trkpt>
      <trkpt lat="48.68599" lon="1.90684">
        <ele>176</ele>
        <time>2013-08-17T11:13:14Z</time>
      </trkpt>
      <trkpt lat="48.68599" lon="1.9068">
        <ele>176</ele>
        <time>2013-08-17T11:13:16Z</time>
      </trkpt>
      <trkpt lat="48.68599" lon="1.90676">
        <ele>176</ele>
        <time>2013-08-17T11:13:18Z</time>
      </trkpt>
      <trkpt lat="48.68601" lon="1.9067">
        <ele>176</ele>
        <time>2013-08-17T11:13:21Z</time>
      </trkpt>
      <trkpt lat="48.68601" lon="1.90665">
        <ele>176</ele>
        <time>2013-08-17T11:13:23Z</time>
      </trkpt>
      <trkpt lat="48.686" lon="1.90661">
        <ele>176</ele>
        <time>2013-08-17T11:13:25Z</time>
      </trkpt>
      <trkpt lat="48.686" lon="1.90657">
        <ele>176</ele>
        <time>2013-08-17T11:13:27Z</time>
      </trkpt>
      <trkpt lat="48.68599" lon="1.9065">
        <ele>176</ele>
        <time>2013-08-17T11:13:30Z</time>
      </trkpt>
      <trkpt lat="48.68599" lon="1.90643">
        <ele>176</ele>
        <time>2013-08-17T11:13:33Z</time>
      </trkpt>
      <trkpt lat="48.686" lon="1.90638">
        <ele>176</ele>
        <time>2013-08-17T11:13:35Z</time>
      </trkpt>
      <trkpt lat="48.68601" lon="1.90631">
        <ele>176</ele>
        <time>2013-08-17T11:13:38Z</time>
      </trkpt>
      <trkpt lat="48.68601" lon="1.90626">
        <ele>175</ele>
        <time>2013-08-17T11:13:40Z</time>
      </trkpt>
      <trkpt lat="48.68601" lon="1.9062">
        <ele>174</ele>
        <time>2013-08-17T11:13:42Z</time>
      </trkpt>
      <trkpt lat="48.68602" lon="1.90609">
        <ele>173</ele>
        <time>2013-08-17T11:13:44Z</time>
      </trkpt>
      <trkpt lat="48.68602" lon="1.90597">
        <ele>172</ele>
        <time>2013-08-17T11:13:46Z</time>
      </trkpt>
      <trkpt lat="48.68602" lon="1.90587">
        <ele>171</ele>
        <time>2013-08-17T11:13:48Z</time>
      </trkpt>
      <trkpt lat="48.68599" lon="1.90572">
        <ele>171</ele>
        <time>2013-08-17T11:13:51Z</time>
      </trkpt>
      <trkpt lat="48.68599" lon="1.90562">
        <ele>171</ele>
        <time>2013-08-17T11:13:53Z</time>
      </trkpt>
      <trkpt lat="48.686" lon="1.90553">
        <ele>171</ele>
        <time>2013-08-17T11:13:55Z</time>
      </trkpt>
      <trkpt lat="48.686" lon="1.90544">
        <ele>171</ele>
        <time>2013-08-17T11:13:57Z</time>
      </trkpt>
      <trkpt lat="48.686" lon="1.90531">
        <ele>171</ele>
        <time>2013-08-17T11:13:59Z</time>
      </trkpt>
      <trkpt lat="48.68599" lon="1.90513">
        <ele>171</ele>
        <time>2013-08-17T11:14:02Z</time>
      </trkpt>
      <trkpt lat="48.68599" lon="1.90502">
        <ele>172</ele>
        <time>2013-08-17T11:14:04Z</time>
      </trkpt>
      <trkpt lat="48.68599" lon="1.90489">
        <ele>174</ele>
        <time>2013-08-17T11:14:06Z</time>
      </trkpt>
      <trkpt lat="48.68599" lon="1.90471">
        <ele>174</ele>
        <time>2013-08-17T11:14:09Z</time>
      </trkpt>
      <trkpt lat="48.68599" lon="1.90458">
        <ele>174</ele>
        <time>2013-08-17T11:14:11Z</time>
      </trkpt>
      <trkpt lat="48.68599" lon="1.90445">
        <ele>174</ele>
        <time>2013-08-17T11:14:13Z</time>
      </trkpt>
      <trkpt lat="48.686" lon="1.90434">
        <ele>174</ele>
        <time>2013-08-17T11:14:15Z</time>
      </trkpt>
      <trkpt lat="48.68599" lon="1.90422">
        <ele>174</ele>
        <time>2013-08-17T11:14:17Z</time>
      </trkpt>
      <trkpt lat="48.68597" lon="1.9041">
        <ele>174</ele>
        <time>2013-08-17T11:14:19Z</time>
      </trkpt>
      <trkpt lat="48.68596" lon="1.90394">
        <ele>176</ele>
        <time>2013-08-17T11:14:22Z</time>
      </trkpt>
      <trkpt lat="48.68594" lon="1.90383">
        <ele>178</ele>
        <time>2013-08-17T11:14:24Z</time>
      </trkpt>
      <trkpt lat="48.68592" lon="1.90372">
        <ele>180</ele>
        <time>2013-08-17T11:14:26Z</time>
      </trkpt>
      <trkpt lat="48.6859" lon="1.90362">
        <ele>182</ele>
        <time>2013-08-17T11:14:28Z</time>
      </trkpt>
      <trkpt lat="48.68589" lon="1.90351">
        <ele>184</ele>
        <time>2013-08-17T11:14:30Z</time>
      </trkpt>
      <trkpt lat="48.68589" lon="1.90339">
        <ele>186</ele>
        <time>2013-08-17T11:14:32Z</time>
      </trkpt>
      <trkpt lat="48.68588" lon="1.9032">
        <ele>189</ele>
        <time>2013-08-17T11:14:35Z</time>
      </trkpt>
      <trkpt lat="48.68589" lon="1.90307">
        <ele>191</ele>
        <time>2013-08-17T11:14:37Z</time>
      </trkpt>
      <trkpt lat="48.68589" lon="1.90295">
        <ele>193</ele>
        <time>2013-08-17T11:14:39Z</time>
      </trkpt>
      <trkpt lat="48.68588" lon="1.90282">
        <ele>195</ele>
        <time>2013-08-17T11:14:41Z</time>
      </trkpt>
      <trkpt lat="48.68588" lon="1.90268">
        <ele>197</ele>
        <time>2013-08-17T11:14:43Z</time>
      </trkpt>
      <trkpt lat="48.68588" lon="1.90255">
        <ele>198</ele>
        <time>2013-08-17T11:14:45Z</time>
      </trkpt>
      <trkpt lat="48.68588" lon="1.90237">
        <ele>199</ele>
        <time>2013-08-17T11:14:48Z</time>
      </trkpt>
      <trkpt lat="48.68589" lon="1.90225">
        <ele>200</ele>
        <time>2013-08-17T11:14:50Z</time>
      </trkpt>
      <trkpt lat="48.68591" lon="1.90218">
        <ele>200</ele>
        <time>2013-08-17T11:14:52Z</time>
      </trkpt>
      <trkpt lat="48.68592" lon="1.90201">
        <ele>200</ele>
        <time>2013-08-17T11:14:55Z</time>
      </trkpt>
      <trkpt lat="48.68593" lon="1.90188">
        <ele>200</ele>
        <time>2013-08-17T11:14:57Z</time>
      </trkpt>
      <trkpt lat="48.68596" lon="1.90168">
        <ele>197</ele>
        <time>2013-08-17T11:15:00Z</time>
      </trkpt>
      <trkpt lat="48.68595" lon="1.90157">
        <ele>195</ele>
        <time>2013-08-17T11:15:02Z</time>
      </trkpt>
      <trkpt lat="48.68597" lon="1.90137">
        <ele>194</ele>
        <time>2013-08-17T11:15:05Z</time>
      </trkpt>
      <trkpt lat="48.68598" lon="1.90123">
        <ele>192</ele>
        <time>2013-08-17T11:15:07Z</time>
      </trkpt>
      <trkpt lat="48.68597" lon="1.90112">
        <ele>190</ele>
        <time>2013-08-17T11:15:09Z</time>
      </trkpt>
      <trkpt lat="48.68598" lon="1.901">
        <ele>188</ele>
        <time>2013-08-17T11:15:11Z</time>
      </trkpt>
      <trkpt lat="48.68596" lon="1.90083">
        <ele>186</ele>
        <time>2013-08-17T11:15:14Z</time>
      </trkpt>
      <trkpt lat="48.68596" lon="1.90073">
        <ele>186</ele>
        <time>2013-08-17T11:15:16Z</time>
      </trkpt>
      <trkpt lat="48.68594" lon="1.90057">
        <ele>186</ele>
        <time>2013-08-17T11:15:19Z</time>
      </trkpt>
      <trkpt lat="48.68593" lon="1.90045">
        <ele>186</ele>
        <time>2013-08-17T11:15:21Z</time>
      </trkpt>
      <trkpt lat="48.68593" lon="1.90028">
        <ele>188</ele>
        <time>2013-08-17T11:15:24Z</time>
      </trkpt>
      <trkpt lat="48.68593" lon="1.90015">
        <ele>190</ele>
        <time>2013-08-17T11:15:26Z</time>
      </trkpt>
      <trkpt lat="48.68595" lon="1.89996">
        <ele>190</ele>
        <time>2013-08-17T11:15:29Z</time>
      </trkpt>
      <trkpt lat="48.68597" lon="1.89982">
        <ele>190</ele>
        <time>2013-08-17T11:15:31Z</time>
      </trkpt>
      <trkpt lat="48.68598" lon="1.89962">
        <ele>187</ele>
        <time>2013-08-17T11:15:34Z</time>
      </trkpt>
      <trkpt lat="48.68598" lon="1.89949">
        <ele>185</ele>
        <time>2013-08-17T11:15:36Z</time>
      </trkpt>
      <trkpt lat="48.68598" lon="1.89929">
        <ele>182</ele>
        <time>2013-08-17T11:15:39Z</time>
      </trkpt>
      <trkpt lat="48.68599" lon="1.89917">
        <ele>180</ele>
        <time>2013-08-17T11:15:41Z</time>
      </trkpt>
      <trkpt lat="48.686" lon="1.89898">
        <ele>177</ele>
        <time>2013-08-17T11:15:44Z</time>
      </trkpt>
      <trkpt lat="48.68602" lon="1.89878">
        <ele>174</ele>
        <time>2013-08-17T11:15:47Z</time>
      </trkpt>
      <trkpt lat="48.68605" lon="1.89859">
        <ele>171</ele>
        <time>2013-08-17T11:15:50Z</time>
      </trkpt>
      <trkpt lat="48.68607" lon="1.89847">
        <ele>169</ele>
        <time>2013-08-17T11:15:52Z</time>
      </trkpt>
      <trkpt lat="48.68608" lon="1.89824">
        <ele>166</ele>
        <time>2013-08-17T11:15:55Z</time>
      </trkpt>
      <trkpt lat="48.68608" lon="1.8981">
        <ele>164</ele>
        <time>2013-08-17T11:15:57Z</time>
      </trkpt>
      <trkpt lat="48.68609" lon="1.8979">
        <ele>161</ele>
        <time>2013-08-17T11:16:00Z</time>
      </trkpt>
      <trkpt lat="48.68609" lon="1.89776">
        <ele>158</ele>
        <time>2013-08-17T11:16:02Z</time>
      </trkpt>
      <trkpt lat="48.6861" lon="1.89756">
        <ele>155</ele>
        <time>2013-08-17T11:16:05Z</time>
      </trkpt>
      <trkpt lat="48.68611" lon="1.89743">
        <ele>153</ele>
        <time>2013-08-17T11:16:07Z</time>
      </trkpt>
      <trkpt lat="48.68614" lon="1.89723">
        <ele>150</ele>
        <time>2013-08-17T11:16:10Z</time>
      </trkpt>
      <trkpt lat="48.68615" lon="1.89709">
        <ele>148</ele>
        <time>2013-08-17T11:16:12Z</time>
      </trkpt>
      <trkpt lat="48.68615" lon="1.89689">
        <ele>145</ele>
        <time>2013-08-17T11:16:15Z</time>
      </trkpt>
      <trkpt lat="48.68616" lon="1.89674">
        <ele>143</ele>
        <time>2013-08-17T11:16:17Z</time>
      </trkpt>
      <trkpt lat="48.68617" lon="1.89663">
        <ele>141</ele>
        <time>2013-08-17T11:16:19Z</time>
      </trkpt>
      <trkpt lat="48.68619" lon="1.89644">
        <ele>138</ele>
        <time>2013-08-17T11:16:22Z</time>
      </trkpt>
      <trkpt lat="48.68621" lon="1.89628">
        <ele>135</ele>
        <time>2013-08-17T11:16:25Z</time>
      </trkpt>
      <trkpt lat="48.68622" lon="1.89616">
        <ele>133</ele>
        <time>2013-08-17T11:16:27Z</time>
      </trkpt>
      <trkpt lat="48.68623" lon="1.89597">
        <ele>130</ele>
        <time>2013-08-17T11:16:30Z</time>
      </trkpt>
      <trkpt lat="48.68622" lon="1.89584">
        <ele>129</ele>
        <time>2013-08-17T11:16:32Z</time>
      </trkpt>
      <trkpt lat="48.68621" lon="1.89563">
        <ele>126</ele>
        <time>2013-08-17T11:16:35Z</time>
      </trkpt>
      <trkpt lat="48.68622" lon="1.89551">
        <ele>124</ele>
        <time>2013-08-17T11:16:37Z</time>
      </trkpt>
      <trkpt lat="48.68626" lon="1.89524">
        <ele>122</ele>
        <time>2013-08-17T11:16:41Z</time>
      </trkpt>
      <trkpt lat="48.68628" lon="1.89511">
        <ele>120</ele>
        <time>2013-08-17T11:16:43Z</time>
      </trkpt>
      <trkpt lat="48.68631" lon="1.89496">
        <ele>118</ele>
        <time>2013-08-17T11:16:45Z</time>
      </trkpt>
      <trkpt lat="48.68634" lon="1.89479">
        <ele>116</ele>
        <time>2013-08-17T11:16:47Z</time>
      </trkpt>
      <trkpt lat="48.68637" lon="1.89457">
        <ele>111</ele>
        <time>2013-08-17T11:16:50Z</time>
      </trkpt>
      <trkpt lat="48.68639" lon="1.89435">
        <ele>105</ele>
        <time>2013-08-17T11:16:53Z</time>
      </trkpt>
      <trkpt lat="48.6864" lon="1.89418">
        <ele>101</ele>
        <time>2013-08-17T11:16:55Z</time>
      </trkpt>
      <trkpt lat="48.68645" lon="1.89398">
        <ele>95</ele>
        <time>2013-08-17T11:16:58Z</time>
      </trkpt>
      <trkpt lat="48.68647" lon="1.89368">
        <ele>86</ele>
        <time>2013-08-17T11:17:01Z</time>
      </trkpt>
      <trkpt lat="48.6865" lon="1.89351">
        <ele>80</ele>
        <time>2013-08-17T11:17:03Z</time>
      </trkpt>
      <trkpt lat="48.68655" lon="1.89318">
        <ele>70</ele>
        <time>2013-08-17T11:17:07Z</time>
      </trkpt>
      <trkpt lat="48.68657" lon="1.89302">
        <ele>62</ele>
        <time>2013-08-17T11:17:09Z</time>
      </trkpt>
      <trkpt lat="48.68658" lon="1.89285">
        <ele>54</ele>
        <time>2013-08-17T11:17:11Z</time>
      </trkpt>
      <trkpt lat="48.68661" lon="1.89267">
        <ele>47</ele>
        <time>2013-08-17T11:17:13Z</time>
      </trkpt>
      <trkpt lat="48.68664" lon="1.89244">
        <ele>37</ele>
        <time>2013-08-17T11:17:16Z</time>
      </trkpt>
      <trkpt lat="48.68666" lon="1.89229">
        <ele>31</ele>
        <time>2013-08-17T11:17:18Z</time>
      </trkpt>
      <trkpt lat="48.6867" lon="1.89203">
        <ele>22</ele>
        <time>2013-08-17T11:17:21Z</time>
      </trkpt>
      <trkpt lat="48.68673" lon="1.89186">
        <ele>16</ele>
        <time>2013-08-17T11:17:23Z</time>
      </trkpt>
      <trkpt lat="48.68676" lon="1.89161">
        <ele>8</ele>
        <time>2013-08-17T11:17:26Z</time>
      </trkpt>
      <trkpt lat="48.68679" lon="1.89135">
        <ele>3</ele>
        <time>2013-08-17T11:17:29Z</time>
      </trkpt>
      <trkpt lat="48.6868" lon="1.8911">
        <ele>-2</ele>
        <time>2013-08-17T11:17:32Z</time>
      </trkpt>
      <trkpt lat="48.68681" lon="1.89093">
        <ele>-7</ele>
        <time>2013-08-17T11:17:34Z</time>
      </trkpt>
      <trkpt lat="48.68683" lon="1.89076">
        <ele>-16</ele>
        <time>2013-08-17T11:17:36Z</time>
      </trkpt>
      <trkpt lat="48.68685" lon="1.8906">
        <ele>-22</ele>
        <time>2013-08-17T11:17:38Z</time>
      </trkpt>
      <trkpt lat="48.68687" lon="1.89045">
        <ele>-27</ele>
        <time>2013-08-17T11:17:40Z</time>
      </trkpt>
      <trkpt lat="48.68691" lon="1.89026">
        <ele>-34</ele>
        <time>2013-08-17T11:17:43Z</time>
      </trkpt>
      <trkpt lat="48.68695" lon="1.88999">
        <ele>-40</ele>
        <time>2013-08-17T11:17:47Z</time>
      </trkpt>
      <trkpt lat="48.68697" lon="1.88976">
        <ele>-48</ele>
        <time>2013-08-17T11:17:49Z</time>
      </trkpt>
      <trkpt lat="48.687" lon="1.88956">
        <ele>-55</ele>
        <time>2013-08-17T11:17:51Z</time>
      </trkpt>
      <trkpt lat="48.68702" lon="1.8894">
        <ele>-62</ele>
        <time>2013-08-17T11:17:53Z</time>
      </trkpt>
      <trkpt lat="48.68705" lon="1.88914">
        <ele>-76</ele>
        <time>2013-08-17T11:17:56Z</time>
      </trkpt>
      <trkpt lat="48.68708" lon="1.88897">
        <ele>-86</ele>
        <time>2013-08-17T11:17:58Z</time>
      </trkpt>
      <trkpt lat="48.6871" lon="1.88883">
        <ele>-96</ele>
        <time>2013-08-17T11:18:00Z</time>
      </trkpt>
      <trkpt lat="48.68714" lon="1.88854">
        <ele>-104</ele>
        <time>2013-08-17T11:18:04Z</time>
      </trkpt>
      <trkpt lat="48.68716" lon="1.88822">
        <ele>-117</ele>
        <time>2013-08-17T11:18:08Z</time>
      </trkpt>
      <trkpt lat="48.68719" lon="1.88798">
        <ele>-126</ele>
        <time>2013-08-17T11:18:11Z</time>
      </trkpt>
      <trkpt lat="48.68719" lon="1.88773">
        <ele>-136</ele>
        <time>2013-08-17T11:18:15Z</time>
      </trkpt>
      <trkpt lat="48.68719" lon="1.88762">
        <ele>-147</ele>
        <time>2013-08-17T11:18:18Z</time>
      </trkpt>
      <trkpt lat="48.68719" lon="1.88757">
        <ele>-151</ele>
        <time>2013-08-17T11:18:20Z</time>
      </trkpt>
      <trkpt lat="48.68716" lon="1.88749">
        <ele>-158</ele>
        <time>2013-08-17T11:18:24Z</time>
      </trkpt>
      <trkpt lat="48.68713" lon="1.88744">
        <ele>-160</ele>
        <time>2013-08-17T11:18:27Z</time>
      </trkpt>
      <trkpt lat="48.68712" lon="1.88737">
        <ele>-162</ele>
        <time>2013-08-17T11:18:31Z</time>
      </trkpt>
      <trkpt lat="48.6871" lon="1.88734">
        <ele>-160</ele>
        <time>2013-08-17T11:18:35Z</time>
      </trkpt>
      <trkpt lat="48.68709" lon="1.88733">
        <ele>-157</ele>
        <time>2013-08-17T11:18:38Z</time>
      </trkpt>
      <trkpt lat="48.68708" lon="1.8873">
        <ele>-153</ele>
        <time>2013-08-17T11:18:41Z</time>
      </trkpt>
      <trkpt lat="48.68707" lon="1.88728">
        <ele>-151</ele>
        <time>2013-08-17T11:18:43Z</time>
      </trkpt>
      <trkpt lat="48.68705" lon="1.88723">
        <ele>-147</ele>
        <time>2013-08-17T11:18:46Z</time>
      </trkpt>
      <trkpt lat="48.68705" lon="1.88719">
        <ele>-144</ele>
        <time>2013-08-17T11:18:48Z</time>
      </trkpt>
      <trkpt lat="48.68704" lon="1.88714">
        <ele>-138</ele>
        <time>2013-08-17T11:18:51Z</time>
      </trkpt>
      <trkpt lat="48.68703" lon="1.88711">
        <ele>-135</ele>
        <time>2013-08-17T11:18:53Z</time>
      </trkpt>
      <trkpt lat="48.68703" lon="1.88705">
        <ele>-130</ele>
        <time>2013-08-17T11:18:57Z</time>
      </trkpt>
      <trkpt lat="48.68702" lon="1.88701">
        <ele>-128</ele>
        <time>2013-08-17T11:18:59Z</time>
      </trkpt>
      <trkpt lat="48.68699" lon="1.88698">
        <ele>-124</ele>
        <time>2013-08-17T11:19:02Z</time>
      </trkpt>
      <trkpt lat="48.68697" lon="1.88697">
        <ele>-122</ele>
        <time>2013-08-17T11:19:04Z</time>
      </trkpt>
      <trkpt lat="48.68695" lon="1.88693">
        <ele>-121</ele>
        <time>2013-08-17T11:19:06Z</time>
      </trkpt>
      <trkpt lat="48.68695" lon="1.88688">
        <ele>-117</ele>
        <time>2013-08-17T11:19:08Z</time>
      </trkpt>
      <trkpt lat="48.68694" lon="1.88679">
        <ele>-111</ele>
        <time>2013-08-17T11:19:11Z</time>
      </trkpt>
      <trkpt lat="48.68695" lon="1.8867">
        <ele>-109</ele>
        <time>2013-08-17T11:19:14Z</time>
      </trkpt>
      <trkpt lat="48.68695" lon="1.88665">
        <ele>-106</ele>
        <time>2013-08-17T11:19:16Z</time>
      </trkpt>
      <trkpt lat="48.68694" lon="1.88661">
        <ele>-104</ele>
        <time>2013-08-17T11:19:18Z</time>
      </trkpt>
      <trkpt lat="48.68693" lon="1.88655">
        <ele>-102</ele>
        <time>2013-08-17T11:19:20Z</time>
      </trkpt>
      <trkpt lat="48.68692" lon="1.88651">
        <ele>-99</ele>
        <time>2013-08-17T11:19:22Z</time>
      </trkpt>
      <trkpt lat="48.68692" lon="1.88646">
        <ele>-97</ele>
        <time>2013-08-17T11:19:24Z</time>
      </trkpt>
      <trkpt lat="48.68691" lon="1.88642">
        <ele>-94</ele>
        <time>2013-08-17T11:19:26Z</time>
      </trkpt>
      <trkpt lat="48.6869" lon="1.88637">
        <ele>-92</ele>
        <time>2013-08-17T11:19:28Z</time>
      </trkpt>
      <trkpt lat="48.6869" lon="1.88633">
        <ele>-90</ele>
        <time>2013-08-17T11:19:30Z</time>
      </trkpt>
      <trkpt lat="48.6869" lon="1.88628">
        <ele>-88</ele>
        <time>2013-08-17T11:19:32Z</time>
      </trkpt>
      <trkpt lat="48.6869" lon="1.88624">
        <ele>-87</ele>
        <time>2013-08-17T11:19:34Z</time>
      </trkpt>
      <trkpt lat="48.68689" lon="1.88619">
        <ele>-85</ele>
        <time>2013-08-17T11:19:37Z</time>
      </trkpt>
      <trkpt lat="48.68688" lon="1.88615">
        <ele>-82</ele>
        <time>2013-08-17T11:19:39Z</time>
      </trkpt>
      <trkpt lat="48.68687" lon="1.88607">
        <ele>-80</ele>
        <time>2013-08-17T11:19:42Z</time>
      </trkpt>
      <trkpt lat="48.68686" lon="1.88602">
        <ele>-78</ele>
        <time>2013-08-17T11:19:45Z</time>
      </trkpt>
      <trkpt lat="48.68684" lon="1.88595">
        <ele>-76</ele>
        <time>2013-08-17T11:19:48Z</time>
      </trkpt>
      <trkpt lat="48.68683" lon="1.88588">
        <ele>-75</ele>
        <time>2013-08-17T11:19:51Z</time>
      </trkpt>
      <trkpt lat="48.68682" lon="1.88584">
        <ele>-74</ele>
        <time>2013-08-17T11:19:53Z</time>
      </trkpt>
      <trkpt lat="48.6868" lon="1.88578">
        <ele>-70</ele>
        <time>2013-08-17T11:19:56Z</time>
      </trkpt>
      <trkpt lat="48.68679" lon="1.88573">
        <ele>-68</ele>
        <time>2013-08-17T11:19:58Z</time>
      </trkpt>
      <trkpt lat="48.68678" lon="1.88568">
        <ele>-66</ele>
        <time>2013-08-17T11:20:00Z</time>
      </trkpt>
      <trkpt lat="48.68676" lon="1.88563">
        <ele>-64</ele>
        <time>2013-08-17T11:20:03Z</time>
      </trkpt>
      <trkpt lat="48.68676" lon="1.88559">
        <ele>-62</ele>
        <time>2013-08-17T11:20:05Z</time>
      </trkpt>
      <trkpt lat="48.68676" lon="1.88553">
        <ele>-58</ele>
        <time>2013-08-17T11:20:08Z</time>
      </trkpt>
      <trkpt lat="48.68675" lon="1.8855">
        <ele>-55</ele>
        <time>2013-08-17T11:20:10Z</time>
      </trkpt>
      <trkpt lat="48.68674" lon="1.88546">
        <ele>-52</ele>
        <time>2013-08-17T11:20:12Z</time>
      </trkpt>
      <trkpt lat="48.68673" lon="1.88542">
        <ele>-49</ele>
        <time>2013-08-17T11:20:14Z</time>
      </trkpt>
      <trkpt lat="48.68672" lon="1.88538">
        <ele>-46</ele>
        <time>2013-08-17T11:20:16Z</time>
      </trkpt>
      <trkpt lat="48.68671" lon="1.88534">
        <ele>-43</ele>
        <time>2013-08-17T11:20:18Z</time>
      </trkpt>
      <trkpt lat="48.68671" lon="1.88531">
        <ele>-40</ele>
        <time>2013-08-17T11:20:20Z</time>
      </trkpt>
      <trkpt lat="48.6867" lon="1.88526">
        <ele>-38</ele>
        <time>2013-08-17T11:20:22Z</time>
      </trkpt>
      <trkpt lat="48.68669" lon="1.88521">
        <ele>-36</ele>
        <time>2013-08-17T11:20:25Z</time>
      </trkpt>
      <trkpt lat="48.68668" lon="1.88518">
        <ele>-33</ele>
        <time>2013-08-17T11:20:27Z</time>
      </trkpt>
      <trkpt lat="48.68666" lon="1.88515">
        <ele>-30</ele>
        <time>2013-08-17T11:20:29Z</time>
      </trkpt>
      <trkpt lat="48.68665" lon="1.88512">
        <ele>-27</ele>
        <time>2013-08-17T11:20:31Z</time>
      </trkpt>
      <trkpt lat="48.68665" lon="1.88508">
        <ele>-25</ele>
        <time>2013-08-17T11:20:33Z</time>
      </trkpt>
      <trkpt lat="48.68663" lon="1.88503">
        <ele>-21</ele>
        <time>2013-08-17T11:20:36Z</time>
      </trkpt>
      <trkpt lat="48.68663" lon="1.88499">
        <ele>-19</ele>
        <time>2013-08-17T11:20:38Z</time>
      </trkpt>
      <trkpt lat="48.68662" lon="1.88494">
        <ele>-16</ele>
        <time>2013-08-17T11:20:40Z</time>
      </trkpt>
      <trkpt lat="48.68661" lon="1.88489">
        <ele>-14</ele>
        <time>2013-08-17T11:20:42Z</time>
      </trkpt>
      <trkpt lat="48.68661" lon="1.88484">
        <ele>-12</ele>
        <time>2013-08-17T11:20:44Z</time>
      </trkpt>
      <trkpt lat="48.6866" lon="1.88478">
        <ele>-8</ele>
        <time>2013-08-17T11:20:47Z</time>
      </trkpt>
      <trkpt lat="48.68658" lon="1.88473">
        <ele>-6</ele>
        <time>2013-08-17T11:20:49Z</time>
      </trkpt>
      <trkpt lat="48.68657" lon="1.8847">
        <ele>-4</ele>
        <time>2013-08-17T11:20:51Z</time>
      </trkpt>
      <trkpt lat="48.68655" lon="1.88464">
        <ele>-3</ele>
        <time>2013-08-17T11:20:54Z</time>
      </trkpt>
      <trkpt lat="48.68653" lon="1.88461">
        <ele>-2</ele>
        <time>2013-08-17T11:20:56Z</time>
      </trkpt>
      <trkpt lat="48.6865" lon="1.88456">
        <ele>172</ele>
        <time>2013-08-17T11:20:59Z</time>
      </trkpt>
      <trkpt lat="48.68647" lon="1.8845">
        <ele>172</ele>
        <time>2013-08-17T11:21:02Z</time>
      </trkpt>
      <trkpt lat="48.68646" lon="1.88445">
        <ele>172</ele>
        <time>2013-08-17T11:21:04Z</time>
      </trkpt>
      <trkpt lat="48.68644" lon="1.88441">
        <ele>172</ele>
        <time>2013-08-17T11:21:06Z</time>
      </trkpt>
      <trkpt lat="48.68641" lon="1.88437">
        <ele>172</ele>
        <time>2013-08-17T11:21:08Z</time>
      </trkpt>
      <trkpt lat="48.68637" lon="1.88429">
        <ele>2</ele>
        <time>2013-08-17T11:21:12Z</time>
      </trkpt>
      <trkpt lat="48.68634" lon="1.88423">
        <ele>4</ele>
        <time>2013-08-17T11:21:15Z</time>
      </trkpt>
      <trkpt lat="48.68633" lon="1.88419">
        <ele>7</ele>
        <time>2013-08-17T11:21:17Z</time>
      </trkpt>
      <trkpt lat="48.68631" lon="1.88414">
        <ele>8</ele>
        <time>2013-08-17T11:21:19Z</time>
      </trkpt>
      <trkpt lat="48.68629" lon="1.8841">
        <ele>10</ele>
        <time>2013-08-17T11:21:21Z</time>
      </trkpt>
      <trkpt lat="48.68628" lon="1.88404">
        <ele>12</ele>
        <time>2013-08-17T11:21:24Z</time>
      </trkpt>
      <trkpt lat="48.68626" lon="1.88399">
        <ele>13</ele>
        <time>2013-08-17T11:21:27Z</time>
      </trkpt>
      <trkpt lat="48.68623" lon="1.88396">
        <ele>13</ele>
        <time>2013-08-17T11:21:29Z</time>
      </trkpt>
      <trkpt lat="48.68621" lon="1.88391">
        <ele>14</ele>
        <time>2013-08-17T11:21:31Z</time>
      </trkpt>
      <trkpt lat="48.68618" lon="1.88385">
        <ele>16</ele>
        <time>2013-08-17T11:21:34Z</time>
      </trkpt>
      <trkpt lat="48.68615" lon="1.88382">
        <ele>16</ele>
        <time>2013-08-17T11:21:36Z</time>
      </trkpt>
      <trkpt lat="48.68613" lon="1.88377">
        <ele>17</ele>
        <time>2013-08-17T11:21:38Z</time>
      </trkpt>
      <trkpt lat="48.68609" lon="1.88372">
        <ele>19</ele>
        <time>2013-08-17T11:21:41Z</time>
      </trkpt>
      <trkpt lat="48.68607" lon="1.88368">
        <ele>20</ele>
        <time>2013-08-17T11:21:43Z</time>
      </trkpt>
      <trkpt lat="48.68606" lon="1.88365">
        <ele>22</ele>
        <time>2013-08-17T11:21:45Z</time>
      </trkpt>
      <trkpt lat="48.68604" lon="1.88361">
        <ele>23</ele>
        <time>2013-08-17T11:21:47Z</time>
      </trkpt>
      <trkpt lat="48.68602" lon="1.88358">
        <ele>25</ele>
        <time>2013-08-17T11:21:49Z</time>
      </trkpt>
      <trkpt lat="48.686" lon="1.88354">
        <ele>26</ele>
        <time>2013-08-17T11:21:51Z</time>
      </trkpt>
      <trkpt lat="48.68597" lon="1.88349">
        <ele>29</ele>
        <time>2013-08-17T11:21:54Z</time>
      </trkpt>
      <trkpt lat="48.68595" lon="1.88345">
        <ele>30</ele>
        <time>2013-08-17T11:21:56Z</time>
      </trkpt>
      <trkpt lat="48.68592" lon="1.88339">
        <ele>32</ele>
        <time>2013-08-17T11:21:59Z</time>
      </trkpt>
      <trkpt lat="48.6859" lon="1.88334">
        <ele>34</ele>
        <time>2013-08-17T11:22:02Z</time>
      </trkpt>
      <trkpt lat="48.68588" lon="1.8833">
        <ele>34</ele>
        <time>2013-08-17T11:22:04Z</time>
      </trkpt>
      <trkpt lat="48.68586" lon="1.88326">
        <ele>35</ele>
        <time>2013-08-17T11:22:06Z</time>
      </trkpt>
      <trkpt lat="48.68584" lon="1.8832">
        <ele>37</ele>
        <time>2013-08-17T11:22:09Z</time>
      </trkpt>
      <trkpt lat="48.68584" lon="1.88314">
        <ele>38</ele>
        <time>2013-08-17T11:22:12Z</time>
      </trkpt>
      <trkpt lat="48.68582" lon="1.88311">
        <ele>38</ele>
        <time>2013-08-17T11:22:14Z</time>
      </trkpt>
      <trkpt lat="48.68579" lon="1.88304">
        <ele>40</ele>
        <time>2013-08-17T11:22:17Z</time>
      </trkpt>
      <trkpt lat="48.68578" lon="1.88301">
        <ele>41</ele>
        <time>2013-08-17T11:22:19Z</time>
      </trkpt>
      <trkpt lat="48.68578" lon="1.88297">
        <ele>41</ele>
        <time>2013-08-17T11:22:21Z</time>
      </trkpt>
      <trkpt lat="48.68576" lon="1.88292">
        <ele>43</ele>
        <time>2013-08-17T11:22:24Z</time>
      </trkpt>
      <trkpt lat="48.68575" lon="1.88288">
        <ele>44</ele>
        <time>2013-08-17T11:22:26Z</time>
      </trkpt>
      <trkpt lat="48.68572" lon="1.88281">
        <ele>46</ele>
        <time>2013-08-17T11:22:29Z</time>
      </trkpt>
      <trkpt lat="48.68568" lon="1.88275">
        <ele>47</ele>
        <time>2013-08-17T11:22:32Z</time>
      </trkpt>
      <trkpt lat="48.68566" lon="1.88269">
        <ele>48</ele>
        <time>2013-08-17T11:22:35Z</time>
      </trkpt>
      <trkpt lat="48.68565" lon="1.88265">
        <ele>49</ele>
        <time>2013-08-17T11:22:37Z</time>
      </trkpt>
      <trkpt lat="48.68562" lon="1.8826">
        <ele>52</ele>
        <time>2013-08-17T11:22:40Z</time>
      </trkpt>
      <trkpt lat="48.6856" lon="1.88254">
        <ele>53</ele>
        <time>2013-08-17T11:22:42Z</time>
      </trkpt>
      <trkpt lat="48.68555" lon="1.88249">
        <ele>54</ele>
        <time>2013-08-17T11:22:46Z</time>
      </trkpt>
      <trkpt lat="48.6855" lon="1.88242">
        <ele>55</ele>
        <time>2013-08-17T11:22:50Z</time>
      </trkpt>
      <trkpt lat="48.68548" lon="1.88238">
        <ele>55</ele>
        <time>2013-08-17T11:22:52Z</time>
      </trkpt>
      <trkpt lat="48.68545" lon="1.88235">
        <ele>55</ele>
        <time>2013-08-17T11:22:54Z</time>
      </trkpt>
      <trkpt lat="48.68544" lon="1.88232">
        <ele>55</ele>
        <time>2013-08-17T11:22:56Z</time>
      </trkpt>
      <trkpt lat="48.68543" lon="1.88226">
        <ele>55</ele>
        <time>2013-08-17T11:22:59Z</time>
      </trkpt>
      <trkpt lat="48.68542" lon="1.8822">
        <ele>55</ele>
        <time>2013-08-17T11:23:02Z</time>
      </trkpt>
      <trkpt lat="48.68541" lon="1.88215">
        <ele>55</ele>
        <time>2013-08-17T11:23:04Z</time>
      </trkpt>
      <trkpt lat="48.68539" lon="1.88208">
        <ele>55</ele>
        <time>2013-08-17T11:23:07Z</time>
      </trkpt>
      <trkpt lat="48.68537" lon="1.88201">
        <ele>55</ele>
        <time>2013-08-17T11:23:10Z</time>
      </trkpt>
      <trkpt lat="48.68534" lon="1.88195">
        <ele>55</ele>
        <time>2013-08-17T11:23:13Z</time>
      </trkpt>
      <trkpt lat="48.68532" lon="1.8819">
        <ele>55</ele>
        <time>2013-08-17T11:23:15Z</time>
      </trkpt>
      <trkpt lat="48.68531" lon="1.88186">
        <ele>55</ele>
        <time>2013-08-17T11:23:17Z</time>
      </trkpt>
      <trkpt lat="48.68529" lon="1.88182">
        <ele>55</ele>
        <time>2013-08-17T11:23:19Z</time>
      </trkpt>
      <trkpt lat="48.68526" lon="1.88175">
        <ele>55</ele>
        <time>2013-08-17T11:23:22Z</time>
      </trkpt>
      <trkpt lat="48.68524" lon="1.88171">
        <ele>55</ele>
        <time>2013-08-17T11:23:24Z</time>
      </trkpt>
      <trkpt lat="48.68521" lon="1.88166">
        <ele>56</ele>
        <time>2013-08-17T11:23:27Z</time>
      </trkpt>
      <trkpt lat="48.6852" lon="1.88162">
        <ele>57</ele>
        <time>2013-08-17T11:23:29Z</time>
      </trkpt>
      <trkpt lat="48.68518" lon="1.88158">
        <ele>59</ele>
        <time>2013-08-17T11:23:31Z</time>
      </trkpt>
      <trkpt lat="48.68514" lon="1.88151">
        <ele>61</ele>
        <time>2013-08-17T11:23:35Z</time>
      </trkpt>
      <trkpt lat="48.68512" lon="1.88146">
        <ele>61</ele>
        <time>2013-08-17T11:23:38Z</time>
      </trkpt>
      <trkpt lat="48.68509" lon="1.88142">
        <ele>63</ele>
        <time>2013-08-17T11:23:40Z</time>
      </trkpt>
      <trkpt lat="48.68506" lon="1.88136">
        <ele>65</ele>
        <time>2013-08-17T11:23:42Z</time>
      </trkpt>
      <trkpt lat="48.68504" lon="1.88132">
        <ele>67</ele>
        <time>2013-08-17T11:23:44Z</time>
      </trkpt>
      <trkpt lat="48.68501" lon="1.88126">
        <ele>69</ele>
        <time>2013-08-17T11:23:47Z</time>
      </trkpt>
      <trkpt lat="48.68499" lon="1.88122">
        <ele>70</ele>
        <time>2013-08-17T11:23:49Z</time>
      </trkpt>
      <trkpt lat="48.68498" lon="1.88117">
        <ele>71</ele>
        <time>2013-08-17T11:23:51Z</time>
      </trkpt>
      <trkpt lat="48.68496" lon="1.88113">
        <ele>72</ele>
        <time>2013-08-17T11:23:53Z</time>
      </trkpt>
      <trkpt lat="48.68494" lon="1.88109">
        <ele>73</ele>
        <time>2013-08-17T11:23:55Z</time>
      </trkpt>
      <trkpt lat="48.68493" lon="1.88105">
        <ele>74</ele>
        <time>2013-08-17T11:23:57Z</time>
      </trkpt>
      <trkpt lat="48.68491" lon="1.88101">
        <ele>75</ele>
        <time>2013-08-17T11:23:59Z</time>
      </trkpt>
      <trkpt lat="48.6849" lon="1.88097">
        <ele>76</ele>
        <time>2013-08-17T11:24:01Z</time>
      </trkpt>
      <trkpt lat="48.68489" lon="1.88093">
        <ele>77</ele>
        <time>2013-08-17T11:24:03Z</time>
      </trkpt>
      <trkpt lat="48.68487" lon="1.88089">
        <ele>78</ele>
        <time>2013-08-17T11:24:05Z</time>
      </trkpt>
      <trkpt lat="48.68484" lon="1.88085">
        <ele>81</ele>
        <time>2013-08-17T11:24:08Z</time>
      </trkpt>
      <trkpt lat="48.6848" lon="1.8808">
        <ele>82</ele>
        <time>2013-08-17T11:24:12Z</time>
      </trkpt>
      <trkpt lat="48.68478" lon="1.88075">
        <ele>84</ele>
        <time>2013-08-17T11:24:15Z</time>
      </trkpt>
      <trkpt lat="48.68475" lon="1.88069">
        <ele>86</ele>
        <time>2013-08-17T11:24:18Z</time>
      </trkpt>
      <trkpt lat="48.68471" lon="1.88063">
        <ele>87</ele>
        <time>2013-08-17T11:24:21Z</time>
      </trkpt>
      <trkpt lat="48.68469" lon="1.88059">
        <ele>88</ele>
        <time>2013-08-17T11:24:23Z</time>
      </trkpt>
      <trkpt lat="48.68465" lon="1.88056">
        <ele>90</ele>
        <time>2013-08-17T11:24:26Z</time>
      </trkpt>
      <trkpt lat="48.68464" lon="1.88053">
        <ele>91</ele>
        <time>2013-08-17T11:24:28Z</time>
      </trkpt>
      <trkpt lat="48.68462" lon="1.88049">
        <ele>92</ele>
        <time>2013-08-17T11:24:30Z</time>
      </trkpt>
      <trkpt lat="48.68461" lon="1.88044">
        <ele>92</ele>
        <time>2013-08-17T11:24:32Z</time>
      </trkpt>
      <trkpt lat="48.68459" lon="1.8804">
        <ele>93</ele>
        <time>2013-08-17T11:24:34Z</time>
      </trkpt>
      <trkpt lat="48.68457" lon="1.88034">
        <ele>94</ele>
        <time>2013-08-17T11:24:37Z</time>
      </trkpt>
      <trkpt lat="48.68455" lon="1.8803">
        <ele>95</ele>
        <time>2013-08-17T11:24:39Z</time>
      </trkpt>
      <trkpt lat="48.68453" lon="1.88026">
        <ele>95</ele>
        <time>2013-08-17T11:24:41Z</time>
      </trkpt>
      <trkpt lat="48.68452" lon="1.88022">
        <ele>96</ele>
        <time>2013-08-17T11:24:43Z</time>
      </trkpt>
      <trkpt lat="48.6845" lon="1.88017">
        <ele>97</ele>
        <time>2013-08-17T11:24:46Z</time>
      </trkpt>
      <trkpt lat="48.68448" lon="1.88013">
        <ele>98</ele>
        <time>2013-08-17T11:24:48Z</time>
      </trkpt>
      <trkpt lat="48.68446" lon="1.88007">
        <ele>98</ele>
        <time>2013-08-17T11:24:51Z</time>
      </trkpt>
      <trkpt lat="48.68444" lon="1.88001">
        <ele>99</ele>
        <time>2013-08-17T11:24:54Z</time>
      </trkpt>
      <trkpt lat="48.68442" lon="1.87997">
        <ele>99</ele>
        <time>2013-08-17T11:24:56Z</time>
      </trkpt>
      <trkpt lat="48.68441" lon="1.87993">
        <ele>99</ele>
        <time>2013-08-17T11:24:58Z</time>
      </trkpt>
      <trkpt lat="48.68439" lon="1.87988">
        <ele>100</ele>
        <time>2013-08-17T11:25:00Z</time>
      </trkpt>
      <trkpt lat="48.68436" lon="1.87983">
        <ele>100</ele>
        <time>2013-08-17T11:25:03Z</time>
      </trkpt>
      <trkpt lat="48.68435" lon="1.87979">
        <ele>101</ele>
        <time>2013-08-17T11:25:05Z</time>
      </trkpt>
      <trkpt lat="48.68432" lon="1.87972">
        <ele>102</ele>
        <time>2013-08-17T11:25:08Z</time>
      </trkpt>
      <trkpt lat="48.68429" lon="1.87965">
        <ele>103</ele>
        <time>2013-08-17T11:25:11Z</time>
      </trkpt>
      <trkpt lat="48.68428" lon="1.87961">
        <ele>103</ele>
        <time>2013-08-17T11:25:13Z</time>
      </trkpt>
      <trkpt lat="48.68426" lon="1.87958">
        <ele>104</ele>
        <time>2013-08-17T11:25:15Z</time>
      </trkpt>
      <trkpt lat="48.68425" lon="1.87954">
        <ele>105</ele>
        <time>2013-08-17T11:25:17Z</time>
      </trkpt>
      <trkpt lat="48.68422" lon="1.87948">
        <ele>105</ele>
        <time>2013-08-17T11:25:20Z</time>
      </trkpt>
      <trkpt lat="48.68419" lon="1.87942">
        <ele>106</ele>
        <time>2013-08-17T11:25:23Z</time>
      </trkpt>
      <trkpt lat="48.68418" lon="1.87938">
        <ele>107</ele>
        <time>2013-08-17T11:25:25Z</time>
      </trkpt>
      <trkpt lat="48.68416" lon="1.87933">
        <ele>108</ele>
        <time>2013-08-17T11:25:28Z</time>
      </trkpt>
      <trkpt lat="48.68415" lon="1.87928">
        <ele>108</ele>
        <time>2013-08-17T11:25:30Z</time>
      </trkpt>
      <trkpt lat="48.68413" lon="1.87924">
        <ele>109</ele>
        <time>2013-08-17T11:25:32Z</time>
      </trkpt>
      <trkpt lat="48.6841" lon="1.87919">
        <ele>109</ele>
        <time>2013-08-17T11:25:35Z</time>
      </trkpt>
      <trkpt lat="48.68409" lon="1.87916">
        <ele>109</ele>
        <time>2013-08-17T11:25:37Z</time>
      </trkpt>
      <trkpt lat="48.68406" lon="1.8791">
        <ele>110</ele>
        <time>2013-08-17T11:25:40Z</time>
      </trkpt>
      <trkpt lat="48.68405" lon="1.87906">
        <ele>110</ele>
        <time>2013-08-17T11:25:42Z</time>
      </trkpt>
      <trkpt lat="48.68404" lon="1.87902">
        <ele>111</ele>
        <time>2013-08-17T11:25:44Z</time>
      </trkpt>
      <trkpt lat="48.68401" lon="1.87896">
        <ele>111</ele>
        <time>2013-08-17T11:25:48Z</time>
      </trkpt>
      <trkpt lat="48.684" lon="1.87893">
        <ele>112</ele>
        <time>2013-08-17T11:25:50Z</time>
      </trkpt>
      <trkpt lat="48.68399" lon="1.8789">
        <ele>113</ele>
        <time>2013-08-17T11:25:52Z</time>
      </trkpt>
      <trkpt lat="48.68396" lon="1.87886">
        <ele>114</ele>
        <time>2013-08-17T11:25:55Z</time>
      </trkpt>
      <trkpt lat="48.68393" lon="1.87881">
        <ele>115</ele>
        <time>2013-08-17T11:25:58Z</time>
      </trkpt>
      <trkpt lat="48.68392" lon="1.87877">
        <ele>115</ele>
        <time>2013-08-17T11:26:00Z</time>
      </trkpt>
      <trkpt lat="48.68389" lon="1.8787">
        <ele>115</ele>
        <time>2013-08-17T11:26:03Z</time>
      </trkpt>
      <trkpt lat="48.68387" lon="1.87867">
        <ele>116</ele>
        <time>2013-08-17T11:26:05Z</time>
      </trkpt>
      <trkpt lat="48.68385" lon="1.87863">
        <ele>116</ele>
        <time>2013-08-17T11:26:07Z</time>
      </trkpt>
      <trkpt lat="48.68384" lon="1.87858">
        <ele>117</ele>
        <time>2013-08-17T11:26:09Z</time>
      </trkpt>
      <trkpt lat="48.68382" lon="1.87854">
        <ele>117</ele>
        <time>2013-08-17T11:26:12Z</time>
      </trkpt>
      <trkpt lat="48.68381" lon="1.87849">
        <ele>117</ele>
        <time>2013-08-17T11:26:14Z</time>
      </trkpt>
      <trkpt lat="48.68379" lon="1.87844">
        <ele>117</ele>
        <time>2013-08-17T11:26:17Z</time>
      </trkpt>
      <trkpt lat="48.68378" lon="1.87839">
        <ele>117</ele>
        <time>2013-08-17T11:26:19Z</time>
      </trkpt>
      <trkpt lat="48.68376" lon="1.87835">
        <ele>117</ele>
        <time>2013-08-17T11:26:21Z</time>
      </trkpt>
      <trkpt lat="48.68374" lon="1.87831">
        <ele>117</ele>
        <time>2013-08-17T11:26:23Z</time>
      </trkpt>
      <trkpt lat="48.68372" lon="1.87827">
        <ele>118</ele>
        <time>2013-08-17T11:26:25Z</time>
      </trkpt>
      <trkpt lat="48.68369" lon="1.8782">
        <ele>118</ele>
        <time>2013-08-17T11:26:29Z</time>
      </trkpt>
      <trkpt lat="48.68367" lon="1.87813">
        <ele>118</ele>
        <time>2013-08-17T11:26:32Z</time>
      </trkpt>
      <trkpt lat="48.68366" lon="1.87809">
        <ele>118</ele>
        <time>2013-08-17T11:26:34Z</time>
      </trkpt>
      <trkpt lat="48.68364" lon="1.87806">
        <ele>118</ele>
        <time>2013-08-17T11:26:36Z</time>
      </trkpt>
      <trkpt lat="48.68353" lon="1.87809">
        <ele>119</ele>
        <time>2013-08-17T11:26:39Z</time>
      </trkpt>
      <trkpt lat="48.68348" lon="1.87808">
        <ele>124</ele>
        <time>2013-08-17T11:26:41Z</time>
      </trkpt>
      <trkpt lat="48.68345" lon="1.87804">
        <ele>132</ele>
        <time>2013-08-17T11:26:43Z</time>
      </trkpt>
      <trkpt lat="48.68343" lon="1.87802">
        <ele>140</ele>
        <time>2013-08-17T11:26:45Z</time>
      </trkpt>
      <trkpt lat="48.68341" lon="1.878">
        <ele>147</ele>
        <time>2013-08-17T11:26:47Z</time>
      </trkpt>
      <trkpt lat="48.6834" lon="1.87799">
        <ele>152</ele>
        <time>2013-08-17T11:26:49Z</time>
      </trkpt>
      <trkpt lat="48.68338" lon="1.87796">
        <ele>156</ele>
        <time>2013-08-17T11:26:51Z</time>
      </trkpt>
      <trkpt lat="48.68335" lon="1.87789">
        <ele>160</ele>
        <time>2013-08-17T11:26:54Z</time>
      </trkpt>
      <trkpt lat="48.68334" lon="1.87784">
        <ele>162</ele>
        <time>2013-08-17T11:26:56Z</time>
      </trkpt>
      <trkpt lat="48.68332" lon="1.87777">
        <ele>165</ele>
        <time>2013-08-17T11:26:59Z</time>
      </trkpt>
      <trkpt lat="48.68331" lon="1.87774">
        <ele>166</ele>
        <time>2013-08-17T11:27:01Z</time>
      </trkpt>
      <trkpt lat="48.6833" lon="1.8777">
        <ele>167</ele>
        <time>2013-08-17T11:27:03Z</time>
      </trkpt>
      <trkpt lat="48.68329" lon="1.87766">
        <ele>167</ele>
        <time>2013-08-17T11:27:05Z</time>
      </trkpt>
      <trkpt lat="48.68328" lon="1.87761">
        <ele>167</ele>
        <time>2013-08-17T11:27:07Z</time>
      </trkpt>
      <trkpt lat="48.68327" lon="1.87755">
        <ele>167</ele>
        <time>2013-08-17T11:27:10Z</time>
      </trkpt>
      <trkpt lat="48.68326" lon="1.87751">
        <ele>167</ele>
        <time>2013-08-17T11:27:12Z</time>
      </trkpt>
      <trkpt lat="48.68324" lon="1.87748">
        <ele>168</ele>
        <time>2013-08-17T11:27:14Z</time>
      </trkpt>
      <trkpt lat="48.68322" lon="1.87745">
        <ele>168</ele>
        <time>2013-08-17T11:27:16Z</time>
      </trkpt>
      <trkpt lat="48.68319" lon="1.87738">
        <ele>168</ele>
        <time>2013-08-17T11:27:19Z</time>
      </trkpt>
      <trkpt lat="48.68317" lon="1.87734">
        <ele>168</ele>
        <time>2013-08-17T11:27:21Z</time>
      </trkpt>
      <trkpt lat="48.68316" lon="1.8773">
        <ele>168</ele>
        <time>2013-08-17T11:27:23Z</time>
      </trkpt>
      <trkpt lat="48.68314" lon="1.87725">
        <ele>168</ele>
        <time>2013-08-17T11:27:25Z</time>
      </trkpt>
      <trkpt lat="48.68312" lon="1.87719">
        <ele>168</ele>
        <time>2013-08-17T11:27:28Z</time>
      </trkpt>
      <trkpt lat="48.68311" lon="1.87715">
        <ele>169</ele>
        <time>2013-08-17T11:27:30Z</time>
      </trkpt>
      <trkpt lat="48.68309" lon="1.8771">
        <ele>169</ele>
        <time>2013-08-17T11:27:32Z</time>
      </trkpt>
      <trkpt lat="48.68307" lon="1.87706">
        <ele>169</ele>
        <time>2013-08-17T11:27:34Z</time>
      </trkpt>
      <trkpt lat="48.68306" lon="1.87701">
        <ele>169</ele>
        <time>2013-08-17T11:27:36Z</time>
      </trkpt>
      <trkpt lat="48.68304" lon="1.87695">
        <ele>169</ele>
        <time>2013-08-17T11:27:39Z</time>
      </trkpt>
      <trkpt lat="48.68302" lon="1.8769">
        <ele>169</ele>
        <time>2013-08-17T11:27:41Z</time>
      </trkpt>
      <trkpt lat="48.68301" lon="1.87685">
        <ele>169</ele>
        <time>2013-08-17T11:27:43Z</time>
      </trkpt>
      <trkpt lat="48.68298" lon="1.87679">
        <ele>169</ele>
        <time>2013-08-17T11:27:46Z</time>
      </trkpt>
      <trkpt lat="48.68296" lon="1.87674">
        <ele>169</ele>
        <time>2013-08-17T11:27:48Z</time>
      </trkpt>
      <trkpt lat="48.68293" lon="1.8767">
        <ele>169</ele>
        <time>2013-08-17T11:27:51Z</time>
      </trkpt>
      <trkpt lat="48.68289" lon="1.87672">
        <ele>169</ele>
        <time>2013-08-17T11:27:54Z</time>
      </trkpt>
      <trkpt lat="48.68286" lon="1.87675">
        <ele>169</ele>
        <time>2013-08-17T11:27:56Z</time>
      </trkpt>
      <trkpt lat="48.68283" lon="1.87678">
        <ele>169</ele>
        <time>2013-08-17T11:27:58Z</time>
      </trkpt>
      <trkpt lat="48.68279" lon="1.8768">
        <ele>170</ele>
        <time>2013-08-17T11:28:00Z</time>
      </trkpt>
      <trkpt lat="48.68276" lon="1.87682">
        <ele>170</ele>
        <time>2013-08-17T11:28:02Z</time>
      </trkpt>
      <trkpt lat="48.68271" lon="1.87684">
        <ele>171</ele>
        <time>2013-08-17T11:28:05Z</time>
      </trkpt>
      <trkpt lat="48.68268" lon="1.87687">
        <ele>171</ele>
        <time>2013-08-17T11:28:07Z</time>
      </trkpt>
      <trkpt lat="48.68262" lon="1.87691">
        <ele>171</ele>
        <time>2013-08-17T11:28:10Z</time>
      </trkpt>
      <trkpt lat="48.68259" lon="1.87694">
        <ele>172</ele>
        <time>2013-08-17T11:28:12Z</time>
      </trkpt>
      <trkpt lat="48.68253" lon="1.87699">
        <ele>174</ele>
        <time>2013-08-17T11:28:15Z</time>
      </trkpt>
      <trkpt lat="48.68248" lon="1.87703">
        <ele>176</ele>
        <time>2013-08-17T11:28:17Z</time>
      </trkpt>
      <trkpt lat="48.68244" lon="1.87707">
        <ele>179</ele>
        <time>2013-08-17T11:28:20Z</time>
      </trkpt>
      <trkpt lat="48.6824" lon="1.87711">
        <ele>182</ele>
        <time>2013-08-17T11:28:23Z</time>
      </trkpt>
      <trkpt lat="48.68237" lon="1.87714">
        <ele>182</ele>
        <time>2013-08-17T11:28:26Z</time>
      </trkpt>
      <trkpt lat="48.68235" lon="1.87716">
        <ele>182</ele>
        <time>2013-08-17T11:28:28Z</time>
      </trkpt>
      <trkpt lat="48.6823" lon="1.8772">
        <ele>182</ele>
        <time>2013-08-17T11:28:31Z</time>
      </trkpt>
      <trkpt lat="48.68226" lon="1.87723">
        <ele>182</ele>
        <time>2013-08-17T11:28:33Z</time>
      </trkpt>
      <trkpt lat="48.68223" lon="1.87725">
        <ele>182</ele>
        <time>2013-08-17T11:28:35Z</time>
      </trkpt>
      <trkpt lat="48.68219" lon="1.87728">
        <ele>182</ele>
        <time>2013-08-17T11:28:38Z</time>
      </trkpt>
      <trkpt lat="48.68216" lon="1.87731">
        <ele>181</ele>
        <time>2013-08-17T11:28:40Z</time>
      </trkpt>
      <trkpt lat="48.68214" lon="1.87734">
        <ele>180</ele>
        <time>2013-08-17T11:28:42Z</time>
      </trkpt>
      <trkpt lat="48.68211" lon="1.87736">
        <ele>180</ele>
        <time>2013-08-17T11:28:44Z</time>
      </trkpt>
      <trkpt lat="48.68206" lon="1.87739">
        <ele>179</ele>
        <time>2013-08-17T11:28:47Z</time>
      </trkpt>
      <trkpt lat="48.68203" lon="1.87741">
        <ele>178</ele>
        <time>2013-08-17T11:28:49Z</time>
      </trkpt>
      <trkpt lat="48.682" lon="1.87743">
        <ele>178</ele>
        <time>2013-08-17T11:28:51Z</time>
      </trkpt>
      <trkpt lat="48.68196" lon="1.87746">
        <ele>177</ele>
        <time>2013-08-17T11:28:54Z</time>
      </trkpt>
      <trkpt lat="48.68193" lon="1.87749">
        <ele>177</ele>
        <time>2013-08-17T11:28:56Z</time>
      </trkpt>
      <trkpt lat="48.68188" lon="1.87751">
        <ele>176</ele>
        <time>2013-08-17T11:28:59Z</time>
      </trkpt>
      <trkpt lat="48.68185" lon="1.87754">
        <ele>176</ele>
        <time>2013-08-17T11:29:01Z</time>
      </trkpt>
      <trkpt lat="48.68182" lon="1.87756">
        <ele>176</ele>
        <time>2013-08-17T11:29:03Z</time>
      </trkpt>
      <trkpt lat="48.6818" lon="1.87758">
        <ele>175</ele>
        <time>2013-08-17T11:29:05Z</time>
      </trkpt>
      <trkpt lat="48.68177" lon="1.8776">
        <ele>175</ele>
        <time>2013-08-17T11:29:07Z</time>
      </trkpt>
      <trkpt lat="48.68174" lon="1.87763">
        <ele>174</ele>
        <time>2013-08-17T11:29:09Z</time>
      </trkpt>
      <trkpt lat="48.68171" lon="1.87765">
        <ele>174</ele>
        <time>2013-08-17T11:29:11Z</time>
      </trkpt>
      <trkpt lat="48.68166" lon="1.87768">
        <ele>174</ele>
        <time>2013-08-17T11:29:14Z</time>
      </trkpt>
      <trkpt lat="48.68163" lon="1.87771">
        <ele>173</ele>
        <time>2013-08-17T11:29:16Z</time>
      </trkpt>
      <trkpt lat="48.68159" lon="1.87774">
        <ele>173</ele>
        <time>2013-08-17T11:29:19Z</time>
      </trkpt>
      <trkpt lat="48.68156" lon="1.87777">
        <ele>173</ele>
        <time>2013-08-17T11:29:21Z</time>
      </trkpt>
      <trkpt lat="48.68151" lon="1.87781">
        <ele>172</ele>
        <time>2013-08-17T11:29:24Z</time>
      </trkpt>
      <trkpt lat="48.68148" lon="1.87783">
        <ele>172</ele>
        <time>2013-08-17T11:29:26Z</time>
      </trkpt>
      <trkpt lat="48.68145" lon="1.87786">
        <ele>172</ele>
        <time>2013-08-17T11:29:29Z</time>
      </trkpt>
      <trkpt lat="48.68142" lon="1.87789">
        <ele>172</ele>
        <time>2013-08-17T11:29:31Z</time>
      </trkpt>
      <trkpt lat="48.68139" lon="1.87792">
        <ele>172</ele>
        <time>2013-08-17T11:29:33Z</time>
      </trkpt>
      <trkpt lat="48.68136" lon="1.87794">
        <ele>171</ele>
        <time>2013-08-17T11:29:35Z</time>
      </trkpt>
      <trkpt lat="48.68132" lon="1.87798">
        <ele>171</ele>
        <time>2013-08-17T11:29:38Z</time>
      </trkpt>
      <trkpt lat="48.68128" lon="1.87801">
        <ele>171</ele>
        <time>2013-08-17T11:29:40Z</time>
      </trkpt>
      <trkpt lat="48.68125" lon="1.87803">
        <ele>171</ele>
        <time>2013-08-17T11:29:42Z</time>
      </trkpt>
      <trkpt lat="48.68121" lon="1.87807">
        <ele>171</ele>
        <time>2013-08-17T11:29:45Z</time>
      </trkpt>
      <trkpt lat="48.68118" lon="1.8781">
        <ele>171</ele>
        <time>2013-08-17T11:29:47Z</time>
      </trkpt>
      <trkpt lat="48.68113" lon="1.87813">
        <ele>171</ele>
        <time>2013-08-17T11:29:50Z</time>
      </trkpt>
      <trkpt lat="48.6811" lon="1.87815">
        <ele>170</ele>
        <time>2013-08-17T11:29:52Z</time>
      </trkpt>
      <trkpt lat="48.68106" lon="1.87819">
        <ele>170</ele>
        <time>2013-08-17T11:29:55Z</time>
      </trkpt>
      <trkpt lat="48.68103" lon="1.87821">
        <ele>170</ele>
        <time>2013-08-17T11:29:57Z</time>
      </trkpt>
      <trkpt lat="48.681" lon="1.87823">
        <ele>169</ele>
        <time>2013-08-17T11:29:59Z</time>
      </trkpt>
      <trkpt lat="48.68097" lon="1.87826">
        <ele>169</ele>
        <time>2013-08-17T11:30:01Z</time>
      </trkpt>
      <trkpt lat="48.68094" lon="1.87829">
        <ele>169</ele>
        <time>2013-08-17T11:30:03Z</time>
      </trkpt>
      <trkpt lat="48.68091" lon="1.87831">
        <ele>169</ele>
        <time>2013-08-17T11:30:05Z</time>
      </trkpt>
      <trkpt lat="48.68086" lon="1.87836">
        <ele>169</ele>
        <time>2013-08-17T11:30:08Z</time>
      </trkpt>
      <trkpt lat="48.68083" lon="1.87838">
        <ele>169</ele>
        <time>2013-08-17T11:30:10Z</time>
      </trkpt>
      <trkpt lat="48.6808" lon="1.8784">
        <ele>168</ele>
        <time>2013-08-17T11:30:12Z</time>
      </trkpt>
      <trkpt lat="48.68077" lon="1.87843">
        <ele>168</ele>
        <time>2013-08-17T11:30:14Z</time>
      </trkpt>
      <trkpt lat="48.68074" lon="1.87845">
        <ele>168</ele>
        <time>2013-08-17T11:30:16Z</time>
      </trkpt>
      <trkpt lat="48.68068" lon="1.87848">
        <ele>168</ele>
        <time>2013-08-17T11:30:19Z</time>
      </trkpt>
      <trkpt lat="48.68066" lon="1.87851">
        <ele>168</ele>
        <time>2013-08-17T11:30:21Z</time>
      </trkpt>
      <trkpt lat="48.68062" lon="1.87853">
        <ele>168</ele>
        <time>2013-08-17T11:30:23Z</time>
      </trkpt>
      <trkpt lat="48.68059" lon="1.87855">
        <ele>168</ele>
        <time>2013-08-17T11:30:25Z</time>
      </trkpt>
      <trkpt lat="48.68057" lon="1.87858">
        <ele>168</ele>
        <time>2013-08-17T11:30:27Z</time>
      </trkpt>
      <trkpt lat="48.68054" lon="1.8786">
        <ele>168</ele>
        <time>2013-08-17T11:30:29Z</time>
      </trkpt>
      <trkpt lat="48.68051" lon="1.87862">
        <ele>167</ele>
        <time>2013-08-17T11:30:31Z</time>
      </trkpt>
      <trkpt lat="48.68047" lon="1.87864">
        <ele>167</ele>
        <time>2013-08-17T11:30:33Z</time>
      </trkpt>
      <trkpt lat="48.68044" lon="1.87867">
        <ele>167</ele>
        <time>2013-08-17T11:30:35Z</time>
      </trkpt>
      <trkpt lat="48.68041" lon="1.87869">
        <ele>167</ele>
        <time>2013-08-17T11:30:37Z</time>
      </trkpt>
      <trkpt lat="48.68038" lon="1.87871">
        <ele>167</ele>
        <time>2013-08-17T11:30:39Z</time>
      </trkpt>
      <trkpt lat="48.68035" lon="1.87873">
        <ele>167</ele>
        <time>2013-08-17T11:30:41Z</time>
      </trkpt>
      <trkpt lat="48.68031" lon="1.87876">
        <ele>166</ele>
        <time>2013-08-17T11:30:44Z</time>
      </trkpt>
      <trkpt lat="48.68028" lon="1.87878">
        <ele>166</ele>
        <time>2013-08-17T11:30:46Z</time>
      </trkpt>
      <trkpt lat="48.68024" lon="1.87882">
        <ele>166</ele>
        <time>2013-08-17T11:30:49Z</time>
      </trkpt>
      <trkpt lat="48.68021" lon="1.87885">
        <ele>166</ele>
        <time>2013-08-17T11:30:51Z</time>
      </trkpt>
      <trkpt lat="48.68017" lon="1.87887">
        <ele>166</ele>
        <time>2013-08-17T11:30:53Z</time>
      </trkpt>
      <trkpt lat="48.68014" lon="1.8789">
        <ele>166</ele>
        <time>2013-08-17T11:30:55Z</time>
      </trkpt>
      <trkpt lat="48.68011" lon="1.87893">
        <ele>165</ele>
        <time>2013-08-17T11:30:57Z</time>
      </trkpt>
      <trkpt lat="48.68008" lon="1.87895">
        <ele>165</ele>
        <time>2013-08-17T11:30:59Z</time>
      </trkpt>
      <trkpt lat="48.68003" lon="1.87899">
        <ele>165</ele>
        <time>2013-08-17T11:31:02Z</time>
      </trkpt>
      <trkpt lat="48.68" lon="1.87902">
        <ele>165</ele>
        <time>2013-08-17T11:31:04Z</time>
      </trkpt>
      <trkpt lat="48.67997" lon="1.87904">
        <ele>165</ele>
        <time>2013-08-17T11:31:06Z</time>
      </trkpt>
      <trkpt lat="48.67994" lon="1.87907">
        <ele>165</ele>
        <time>2013-08-17T11:31:08Z</time>
      </trkpt>
      <trkpt lat="48.6799" lon="1.87909">
        <ele>165</ele>
        <time>2013-08-17T11:31:10Z</time>
      </trkpt>
      <trkpt lat="48.67986" lon="1.87913">
        <ele>165</ele>
        <time>2013-08-17T11:31:13Z</time>
      </trkpt>
      <trkpt lat="48.67983" lon="1.87915">
        <ele>164</ele>
        <time>2013-08-17T11:31:15Z</time>
      </trkpt>
      <trkpt lat="48.67978" lon="1.87918">
        <ele>164</ele>
        <time>2013-08-17T11:31:19Z</time>
      </trkpt>
      <trkpt lat="48.67976" lon="1.87919">
        <ele>164</ele>
        <time>2013-08-17T11:31:21Z</time>
      </trkpt>
      <trkpt lat="48.67975" lon="1.8792">
        <ele>164</ele>
        <time>2013-08-17T11:31:24Z</time>
      </trkpt>
      <trkpt lat="48.67974" lon="1.87921">
        <ele>164</ele>
        <time>2013-08-17T11:31:29Z</time>
      </trkpt>
      <trkpt lat="48.67972" lon="1.87921">
        <ele>163</ele>
        <time>2013-08-17T11:31:59Z</time>
      </trkpt>
      <trkpt lat="48.67971" lon="1.87922">
        <ele>163</ele>
        <time>2013-08-17T11:32:01Z</time>
      </trkpt>
      <trkpt lat="48.6797" lon="1.87925">
        <ele>163</ele>
        <time>2013-08-17T11:32:03Z</time>
      </trkpt>
      <trkpt lat="48.67971" lon="1.87925">
        <ele>163</ele>
        <time>2013-08-17T11:32:06Z</time>
      </trkpt>
      <trkpt lat="48.67974" lon="1.87923">
        <ele>163</ele>
        <time>2013-08-17T11:32:08Z</time>
      </trkpt>
      <trkpt lat="48.67977" lon="1.87919">
        <ele>163</ele>
        <time>2013-08-17T11:32:10Z</time>
      </trkpt>
      <trkpt lat="48.6798" lon="1.87917">
        <ele>163</ele>
        <time>2013-08-17T11:32:12Z</time>
      </trkpt>
      <trkpt lat="48.67984" lon="1.87915">
        <ele>163</ele>
        <time>2013-08-17T11:32:14Z</time>
      </trkpt>
      <trkpt lat="48.67987" lon="1.87913">
        <ele>163</ele>
        <time>2013-08-17T11:32:16Z</time>
      </trkpt>
      <trkpt lat="48.67992" lon="1.87909">
        <ele>163</ele>
        <time>2013-08-17T11:32:19Z</time>
      </trkpt>
      <trkpt lat="48.67995" lon="1.87906">
        <ele>163</ele>
        <time>2013-08-17T11:32:21Z</time>
      </trkpt>
      <trkpt lat="48.67998" lon="1.87903">
        <ele>163</ele>
        <time>2013-08-17T11:32:23Z</time>
      </trkpt>
      <trkpt lat="48.68001" lon="1.87901">
        <ele>163</ele>
        <time>2013-08-17T11:32:25Z</time>
      </trkpt>
      <trkpt lat="48.68005" lon="1.87898">
        <ele>163</ele>
        <time>2013-08-17T11:32:27Z</time>
      </trkpt>
      <trkpt lat="48.6801" lon="1.87895">
        <ele>163</ele>
        <time>2013-08-17T11:32:30Z</time>
      </trkpt>
      <trkpt lat="48.68013" lon="1.87893">
        <ele>163</ele>
        <time>2013-08-17T11:32:32Z</time>
      </trkpt>
      <trkpt lat="48.68016" lon="1.87891">
        <ele>163</ele>
        <time>2013-08-17T11:32:34Z</time>
      </trkpt>
      <trkpt lat="48.68021" lon="1.87888">
        <ele>163</ele>
        <time>2013-08-17T11:32:37Z</time>
      </trkpt>
      <trkpt lat="48.68024" lon="1.87886">
        <ele>163</ele>
        <time>2013-08-17T11:32:39Z</time>
      </trkpt>
      <trkpt lat="48.68027" lon="1.87883">
        <ele>163</ele>
        <time>2013-08-17T11:32:41Z</time>
      </trkpt>
      <trkpt lat="48.68031" lon="1.87881">
        <ele>163</ele>
        <time>2013-08-17T11:32:43Z</time>
      </trkpt>
      <trkpt lat="48.68035" lon="1.87876">
        <ele>163</ele>
        <time>2013-08-17T11:32:46Z</time>
      </trkpt>
      <trkpt lat="48.68038" lon="1.87874">
        <ele>163</ele>
        <time>2013-08-17T11:32:48Z</time>
      </trkpt>
      <trkpt lat="48.68042" lon="1.87872">
        <ele>163</ele>
        <time>2013-08-17T11:32:50Z</time>
      </trkpt>
      <trkpt lat="48.68045" lon="1.8787">
        <ele>163</ele>
        <time>2013-08-17T11:32:52Z</time>
      </trkpt>
      <trkpt lat="48.68048" lon="1.87867">
        <ele>163</ele>
        <time>2013-08-17T11:32:54Z</time>
      </trkpt>
      <trkpt lat="48.68053" lon="1.87864">
        <ele>163</ele>
        <time>2013-08-17T11:32:57Z</time>
      </trkpt>
      <trkpt lat="48.68055" lon="1.87861">
        <ele>164</ele>
        <time>2013-08-17T11:32:59Z</time>
      </trkpt>
      <trkpt lat="48.6806" lon="1.87857">
        <ele>164</ele>
        <time>2013-08-17T11:33:02Z</time>
      </trkpt>
      <trkpt lat="48.68063" lon="1.87855">
        <ele>164</ele>
        <time>2013-08-17T11:33:04Z</time>
      </trkpt>
      <trkpt lat="48.68066" lon="1.87852">
        <ele>164</ele>
        <time>2013-08-17T11:33:06Z</time>
      </trkpt>
      <trkpt lat="48.6807" lon="1.87849">
        <ele>165</ele>
        <time>2013-08-17T11:33:08Z</time>
      </trkpt>
      <trkpt lat="48.68073" lon="1.87848">
        <ele>165</ele>
        <time>2013-08-17T11:33:10Z</time>
      </trkpt>
      <trkpt lat="48.68077" lon="1.87844">
        <ele>165</ele>
        <time>2013-08-17T11:33:13Z</time>
      </trkpt>
      <trkpt lat="48.6808" lon="1.87842">
        <ele>165</ele>
        <time>2013-08-17T11:33:15Z</time>
      </trkpt>
      <trkpt lat="48.68083" lon="1.8784">
        <ele>165</ele>
        <time>2013-08-17T11:33:17Z</time>
      </trkpt>
      <trkpt lat="48.68087" lon="1.87835">
        <ele>165</ele>
        <time>2013-08-17T11:33:20Z</time>
      </trkpt>
      <trkpt lat="48.6809" lon="1.87833">
        <ele>165</ele>
        <time>2013-08-17T11:33:22Z</time>
      </trkpt>
      <trkpt lat="48.68095" lon="1.87829">
        <ele>166</ele>
        <time>2013-08-17T11:33:25Z</time>
      </trkpt>
      <trkpt lat="48.68098" lon="1.87827">
        <ele>166</ele>
        <time>2013-08-17T11:33:27Z</time>
      </trkpt>
      <trkpt lat="48.68101" lon="1.87824">
        <ele>166</ele>
        <time>2013-08-17T11:33:30Z</time>
      </trkpt>
      <trkpt lat="48.68104" lon="1.87822">
        <ele>166</ele>
        <time>2013-08-17T11:33:32Z</time>
      </trkpt>
      <trkpt lat="48.68107" lon="1.87819">
        <ele>166</ele>
        <time>2013-08-17T11:33:34Z</time>
      </trkpt>
      <trkpt lat="48.6811" lon="1.87817">
        <ele>166</ele>
        <time>2013-08-17T11:33:36Z</time>
      </trkpt>
      <trkpt lat="48.68113" lon="1.87814">
        <ele>167</ele>
        <time>2013-08-17T11:33:38Z</time>
      </trkpt>
      <trkpt lat="48.68116" lon="1.87812">
        <ele>167</ele>
        <time>2013-08-17T11:33:40Z</time>
      </trkpt>
      <trkpt lat="48.6812" lon="1.8781">
        <ele>168</ele>
        <time>2013-08-17T11:33:43Z</time>
      </trkpt>
      <trkpt lat="48.68123" lon="1.87806">
        <ele>168</ele>
        <time>2013-08-17T11:33:45Z</time>
      </trkpt>
      <trkpt lat="48.68126" lon="1.87804">
        <ele>168</ele>
        <time>2013-08-17T11:33:47Z</time>
      </trkpt>
      <trkpt lat="48.68129" lon="1.87802">
        <ele>169</ele>
        <time>2013-08-17T11:33:49Z</time>
      </trkpt>
      <trkpt lat="48.68133" lon="1.87797">
        <ele>169</ele>
        <time>2013-08-17T11:33:52Z</time>
      </trkpt>
      <trkpt lat="48.68135" lon="1.87795">
        <ele>169</ele>
        <time>2013-08-17T11:33:54Z</time>
      </trkpt>
      <trkpt lat="48.68138" lon="1.87793">
        <ele>169</ele>
        <time>2013-08-17T11:33:56Z</time>
      </trkpt>
      <trkpt lat="48.68143" lon="1.87789">
        <ele>169</ele>
        <time>2013-08-17T11:33:59Z</time>
      </trkpt>
      <trkpt lat="48.68146" lon="1.87787">
        <ele>169</ele>
        <time>2013-08-17T11:34:01Z</time>
      </trkpt>
      <trkpt lat="48.6815" lon="1.87784">
        <ele>169</ele>
        <time>2013-08-17T11:34:03Z</time>
      </trkpt>
      <trkpt lat="48.68155" lon="1.87779">
        <ele>169</ele>
        <time>2013-08-17T11:34:06Z</time>
      </trkpt>
      <trkpt lat="48.68158" lon="1.87777">
        <ele>169</ele>
        <time>2013-08-17T11:34:08Z</time>
      </trkpt>
      <trkpt lat="48.68163" lon="1.87773">
        <ele>169</ele>
        <time>2013-08-17T11:34:11Z</time>
      </trkpt>
      <trkpt lat="48.68165" lon="1.8777">
        <ele>169</ele>
        <time>2013-08-17T11:34:13Z</time>
      </trkpt>
      <trkpt lat="48.68168" lon="1.87767">
        <ele>169</ele>
        <time>2013-08-17T11:34:15Z</time>
      </trkpt>
      <trkpt lat="48.68171" lon="1.87765">
        <ele>169</ele>
        <time>2013-08-17T11:34:17Z</time>
      </trkpt>
      <trkpt lat="48.68174" lon="1.87762">
        <ele>169</ele>
        <time>2013-08-17T11:34:19Z</time>
      </trkpt>
      <trkpt lat="48.68177" lon="1.8776">
        <ele>169</ele>
        <time>2013-08-17T11:34:21Z</time>
      </trkpt>
      <trkpt lat="48.6818" lon="1.87757">
        <ele>169</ele>
        <time>2013-08-17T11:34:23Z</time>
      </trkpt>
      <trkpt lat="48.68182" lon="1.87755">
        <ele>169</ele>
        <time>2013-08-17T11:34:25Z</time>
      </trkpt>
      <trkpt lat="48.68186" lon="1.87751">
        <ele>169</ele>
        <time>2013-08-17T11:34:28Z</time>
      </trkpt>
      <trkpt lat="48.68189" lon="1.87749">
        <ele>169</ele>
        <time>2013-08-17T11:34:30Z</time>
      </trkpt>
      <trkpt lat="48.68191" lon="1.87747">
        <ele>169</ele>
        <time>2013-08-17T11:34:32Z</time>
      </trkpt>
      <trkpt lat="48.68194" lon="1.87745">
        <ele>169</ele>
        <time>2013-08-17T11:34:34Z</time>
      </trkpt>
      <trkpt lat="48.68197" lon="1.87743">
        <ele>169</ele>
        <time>2013-08-17T11:34:36Z</time>
      </trkpt>
      <trkpt lat="48.682" lon="1.8774">
        <ele>169</ele>
        <time>2013-08-17T11:34:38Z</time>
      </trkpt>
      <trkpt lat="48.68202" lon="1.87738">
        <ele>169</ele>
        <time>2013-08-17T11:34:40Z</time>
      </trkpt>
      <trkpt lat="48.68206" lon="1.87734">
        <ele>170</ele>
        <time>2013-08-17T11:34:43Z</time>
      </trkpt>
      <trkpt lat="48.6821" lon="1.87732">
        <ele>171</ele>
        <time>2013-08-17T11:34:46Z</time>
      </trkpt>
      <trkpt lat="48.68216" lon="1.8773">
        <ele>171</ele>
        <time>2013-08-17T11:34:49Z</time>
      </trkpt>
      <trkpt lat="48.68219" lon="1.87728">
        <ele>172</ele>
        <time>2013-08-17T11:34:51Z</time>
      </trkpt>
      <trkpt lat="48.68222" lon="1.87724">
        <ele>172</ele>
        <time>2013-08-17T11:34:53Z</time>
      </trkpt>
      <trkpt lat="48.68225" lon="1.87723">
        <ele>172</ele>
        <time>2013-08-17T11:34:55Z</time>
      </trkpt>
      <trkpt lat="48.68228" lon="1.87721">
        <ele>172</ele>
        <time>2013-08-17T11:34:57Z</time>
      </trkpt>
      <trkpt lat="48.68232" lon="1.87717">
        <ele>173</ele>
        <time>2013-08-17T11:35:00Z</time>
      </trkpt>
      <trkpt lat="48.68237" lon="1.87714">
        <ele>173</ele>
        <time>2013-08-17T11:35:03Z</time>
      </trkpt>
      <trkpt lat="48.6824" lon="1.87711">
        <ele>173</ele>
        <time>2013-08-17T11:35:05Z</time>
      </trkpt>
      <trkpt lat="48.68243" lon="1.87709">
        <ele>173</ele>
        <time>2013-08-17T11:35:07Z</time>
      </trkpt>
      <trkpt lat="48.68248" lon="1.87705">
        <ele>173</ele>
        <time>2013-08-17T11:35:10Z</time>
      </trkpt>
      <trkpt lat="48.68251" lon="1.87703">
        <ele>173</ele>
        <time>2013-08-17T11:35:12Z</time>
      </trkpt>
      <trkpt lat="48.68255" lon="1.87699">
        <ele>173</ele>
        <time>2013-08-17T11:35:15Z</time>
      </trkpt>
      <trkpt lat="48.68258" lon="1.87697">
        <ele>173</ele>
        <time>2013-08-17T11:35:17Z</time>
      </trkpt>
      <trkpt lat="48.68261" lon="1.87694">
        <ele>173</ele>
        <time>2013-08-17T11:35:19Z</time>
      </trkpt>
      <trkpt lat="48.68264" lon="1.87692">
        <ele>173</ele>
        <time>2013-08-17T11:35:21Z</time>
      </trkpt>
      <trkpt lat="48.68267" lon="1.8769">
        <ele>173</ele>
        <time>2013-08-17T11:35:23Z</time>
      </trkpt>
      <trkpt lat="48.68271" lon="1.87687">
        <ele>173</ele>
        <time>2013-08-17T11:35:26Z</time>
      </trkpt>
      <trkpt lat="48.68274" lon="1.87685">
        <ele>173</ele>
        <time>2013-08-17T11:35:28Z</time>
      </trkpt>
      <trkpt lat="48.68277" lon="1.87683">
        <ele>173</ele>
        <time>2013-08-17T11:35:30Z</time>
      </trkpt>
      <trkpt lat="48.6828" lon="1.87681">
        <ele>173</ele>
        <time>2013-08-17T11:35:32Z</time>
      </trkpt>
      <trkpt lat="48.68282" lon="1.87679">
        <ele>173</ele>
        <time>2013-08-17T11:35:34Z</time>
      </trkpt>
      <trkpt lat="48.68285" lon="1.87676">
        <ele>173</ele>
        <time>2013-08-17T11:35:36Z</time>
      </trkpt>
      <trkpt lat="48.68288" lon="1.87673">
        <ele>173</ele>
        <time>2013-08-17T11:35:38Z</time>
      </trkpt>
      <trkpt lat="48.68291" lon="1.87668">
        <ele>173</ele>
        <time>2013-08-17T11:35:41Z</time>
      </trkpt>
      <trkpt lat="48.68292" lon="1.87664">
        <ele>173</ele>
        <time>2013-08-17T11:35:43Z</time>
      </trkpt>
      <trkpt lat="48.68291" lon="1.8766">
        <ele>173</ele>
        <time>2013-08-17T11:35:45Z</time>
      </trkpt>
      <trkpt lat="48.6829" lon="1.87655">
        <ele>172</ele>
        <time>2013-08-17T11:35:47Z</time>
      </trkpt>
      <trkpt lat="48.68288" lon="1.87648">
        <ele>172</ele>
        <time>2013-08-17T11:35:50Z</time>
      </trkpt>
      <trkpt lat="48.68286" lon="1.87644">
        <ele>172</ele>
        <time>2013-08-17T11:35:52Z</time>
      </trkpt>
      <trkpt lat="48.68285" lon="1.8764">
        <ele>172</ele>
        <time>2013-08-17T11:35:54Z</time>
      </trkpt>
      <trkpt lat="48.68282" lon="1.87633">
        <ele>172</ele>
        <time>2013-08-17T11:35:57Z</time>
      </trkpt>
      <trkpt lat="48.6828" lon="1.87627">
        <ele>171</ele>
        <time>2013-08-17T11:35:59Z</time>
      </trkpt>
      <trkpt lat="48.68279" lon="1.87623">
        <ele>171</ele>
        <time>2013-08-17T11:36:01Z</time>
      </trkpt>
      <trkpt lat="48.68277" lon="1.87618">
        <ele>170</ele>
        <time>2013-08-17T11:36:03Z</time>
      </trkpt>
      <trkpt lat="48.68275" lon="1.87614">
        <ele>170</ele>
        <time>2013-08-17T11:36:05Z</time>
      </trkpt>
      <trkpt lat="48.68274" lon="1.8761">
        <ele>169</ele>
        <time>2013-08-17T11:36:07Z</time>
      </trkpt>
      <trkpt lat="48.68272" lon="1.87605">
        <ele>169</ele>
        <time>2013-08-17T11:36:09Z</time>
      </trkpt>
      <trkpt lat="48.6827" lon="1.87601">
        <ele>168</ele>
        <time>2013-08-17T11:36:11Z</time>
      </trkpt>
      <trkpt lat="48.68268" lon="1.87597">
        <ele>168</ele>
        <time>2013-08-17T11:36:13Z</time>
      </trkpt>
      <trkpt lat="48.68266" lon="1.8759">
        <ele>168</ele>
        <time>2013-08-17T11:36:16Z</time>
      </trkpt>
      <trkpt lat="48.68264" lon="1.87585">
        <ele>168</ele>
        <time>2013-08-17T11:36:18Z</time>
      </trkpt>
      <trkpt lat="48.68263" lon="1.8758">
        <ele>168</ele>
        <time>2013-08-17T11:36:20Z</time>
      </trkpt>
      <trkpt lat="48.68261" lon="1.87576">
        <ele>168</ele>
        <time>2013-08-17T11:36:22Z</time>
      </trkpt>
      <trkpt lat="48.68258" lon="1.87568">
        <ele>168</ele>
        <time>2013-08-17T11:36:25Z</time>
      </trkpt>
      <trkpt lat="48.68256" lon="1.87563">
        <ele>168</ele>
        <time>2013-08-17T11:36:27Z</time>
      </trkpt>
      <trkpt lat="48.68255" lon="1.87558">
        <ele>168</ele>
        <time>2013-08-17T11:36:29Z</time>
      </trkpt>
      <trkpt lat="48.68252" lon="1.87551">
        <ele>168</ele>
        <time>2013-08-17T11:36:32Z</time>
      </trkpt>
      <trkpt lat="48.6825" lon="1.87544">
        <ele>168</ele>
        <time>2013-08-17T11:36:35Z</time>
      </trkpt>
      <trkpt lat="48.68248" lon="1.87539">
        <ele>168</ele>
        <time>2013-08-17T11:36:37Z</time>
      </trkpt>
      <trkpt lat="48.68246" lon="1.87535">
        <ele>168</ele>
        <time>2013-08-17T11:36:39Z</time>
      </trkpt>
      <trkpt lat="48.68245" lon="1.87531">
        <ele>168</ele>
        <time>2013-08-17T11:36:41Z</time>
      </trkpt>
      <trkpt lat="48.68243" lon="1.87526">
        <ele>168</ele>
        <time>2013-08-17T11:36:43Z</time>
      </trkpt>
      <trkpt lat="48.68242" lon="1.87522">
        <ele>168</ele>
        <time>2013-08-17T11:36:45Z</time>
      </trkpt>
      <trkpt lat="48.6824" lon="1.87518">
        <ele>168</ele>
        <time>2013-08-17T11:36:47Z</time>
      </trkpt>
      <trkpt lat="48.68238" lon="1.87513">
        <ele>168</ele>
        <time>2013-08-17T11:36:49Z</time>
      </trkpt>
      <trkpt lat="48.68237" lon="1.87509">
        <ele>168</ele>
        <time>2013-08-17T11:36:51Z</time>
      </trkpt>
      <trkpt lat="48.68236" lon="1.87505">
        <ele>168</ele>
        <time>2013-08-17T11:36:53Z</time>
      </trkpt>
      <trkpt lat="48.68233" lon="1.87499">
        <ele>168</ele>
        <time>2013-08-17T11:36:56Z</time>
      </trkpt>
      <trkpt lat="48.68231" lon="1.87494">
        <ele>168</ele>
        <time>2013-08-17T11:36:58Z</time>
      </trkpt>
      <trkpt lat="48.68229" lon="1.8749">
        <ele>168</ele>
        <time>2013-08-17T11:37:00Z</time>
      </trkpt>
      <trkpt lat="48.68227" lon="1.87484">
        <ele>168</ele>
        <time>2013-08-17T11:37:03Z</time>
      </trkpt>
      <trkpt lat="48.68225" lon="1.8748">
        <ele>168</ele>
        <time>2013-08-17T11:37:05Z</time>
      </trkpt>
      <trkpt lat="48.68223" lon="1.87475">
        <ele>168</ele>
        <time>2013-08-17T11:37:07Z</time>
      </trkpt>
      <trkpt lat="48.68221" lon="1.87471">
        <ele>168</ele>
        <time>2013-08-17T11:37:09Z</time>
      </trkpt>
      <trkpt lat="48.6822" lon="1.87466">
        <ele>168</ele>
        <time>2013-08-17T11:37:11Z</time>
      </trkpt>
      <trkpt lat="48.68218" lon="1.87462">
        <ele>168</ele>
        <time>2013-08-17T11:37:13Z</time>
      </trkpt>
      <trkpt lat="48.68216" lon="1.87458">
        <ele>168</ele>
        <time>2013-08-17T11:37:15Z</time>
      </trkpt>
      <trkpt lat="48.68214" lon="1.87451">
        <ele>168</ele>
        <time>2013-08-17T11:37:18Z</time>
      </trkpt>
      <trkpt lat="48.68213" lon="1.87446">
        <ele>168</ele>
        <time>2013-08-17T11:37:20Z</time>
      </trkpt>
      <trkpt lat="48.68211" lon="1.87442">
        <ele>168</ele>
        <time>2013-08-17T11:37:22Z</time>
      </trkpt>
      <trkpt lat="48.68209" lon="1.87438">
        <ele>168</ele>
        <time>2013-08-17T11:37:24Z</time>
      </trkpt>
      <trkpt lat="48.68208" lon="1.87434">
        <ele>168</ele>
        <time>2013-08-17T11:37:26Z</time>
      </trkpt>
      <trkpt lat="48.68205" lon="1.87428">
        <ele>168</ele>
        <time>2013-08-17T11:37:29Z</time>
      </trkpt>
      <trkpt lat="48.68204" lon="1.87424">
        <ele>168</ele>
        <time>2013-08-17T11:37:31Z</time>
      </trkpt>
      <trkpt lat="48.68202" lon="1.8742">
        <ele>168</ele>
        <time>2013-08-17T11:37:33Z</time>
      </trkpt>
      <trkpt lat="48.68199" lon="1.87416">
        <ele>168</ele>
        <time>2013-08-17T11:37:36Z</time>
      </trkpt>
      <trkpt lat="48.68197" lon="1.87414">
        <ele>168</ele>
        <time>2013-08-17T11:37:38Z</time>
      </trkpt>
      <trkpt lat="48.68194" lon="1.87408">
        <ele>168</ele>
        <time>2013-08-17T11:37:42Z</time>
      </trkpt>
      <trkpt lat="48.68194" lon="1.87404">
        <ele>168</ele>
        <time>2013-08-17T11:37:44Z</time>
      </trkpt>
      <trkpt lat="48.68193" lon="1.87399">
        <ele>168</ele>
        <time>2013-08-17T11:37:46Z</time>
      </trkpt>
      <trkpt lat="48.68193" lon="1.87394">
        <ele>168</ele>
        <time>2013-08-17T11:37:48Z</time>
      </trkpt>
      <trkpt lat="48.68192" lon="1.8739">
        <ele>168</ele>
        <time>2013-08-17T11:37:50Z</time>
      </trkpt>
      <trkpt lat="48.68191" lon="1.87385">
        <ele>168</ele>
        <time>2013-08-17T11:37:52Z</time>
      </trkpt>
      <trkpt lat="48.68189" lon="1.87381">
        <ele>168</ele>
        <time>2013-08-17T11:37:54Z</time>
      </trkpt>
      <trkpt lat="48.68187" lon="1.87376">
        <ele>168</ele>
        <time>2013-08-17T11:37:56Z</time>
      </trkpt>
      <trkpt lat="48.68186" lon="1.87372">
        <ele>168</ele>
        <time>2013-08-17T11:37:58Z</time>
      </trkpt>
      <trkpt lat="48.68184" lon="1.87368">
        <ele>168</ele>
        <time>2013-08-17T11:38:00Z</time>
      </trkpt>
      <trkpt lat="48.68183" lon="1.87364">
        <ele>168</ele>
        <time>2013-08-17T11:38:02Z</time>
      </trkpt>
      <trkpt lat="48.6818" lon="1.87357">
        <ele>168</ele>
        <time>2013-08-17T11:38:05Z</time>
      </trkpt>
      <trkpt lat="48.68179" lon="1.87352">
        <ele>168</ele>
        <time>2013-08-17T11:38:07Z</time>
      </trkpt>
      <trkpt lat="48.68177" lon="1.87348">
        <ele>168</ele>
        <time>2013-08-17T11:38:09Z</time>
      </trkpt>
      <trkpt lat="48.68176" lon="1.87343">
        <ele>168</ele>
        <time>2013-08-17T11:38:11Z</time>
      </trkpt>
      <trkpt lat="48.68174" lon="1.87339">
        <ele>168</ele>
        <time>2013-08-17T11:38:13Z</time>
      </trkpt>
      <trkpt lat="48.68173" lon="1.87335">
        <ele>168</ele>
        <time>2013-08-17T11:38:15Z</time>
      </trkpt>
      <trkpt lat="48.68171" lon="1.87329">
        <ele>168</ele>
        <time>2013-08-17T11:38:18Z</time>
      </trkpt>
      <trkpt lat="48.68169" lon="1.87325">
        <ele>168</ele>
        <time>2013-08-17T11:38:20Z</time>
      </trkpt>
      <trkpt lat="48.68168" lon="1.8732">
        <ele>168</ele>
        <time>2013-08-17T11:38:22Z</time>
      </trkpt>
      <trkpt lat="48.68166" lon="1.87317">
        <ele>168</ele>
        <time>2013-08-17T11:38:24Z</time>
      </trkpt>
      <trkpt lat="48.68165" lon="1.87313">
        <ele>168</ele>
        <time>2013-08-17T11:38:26Z</time>
      </trkpt>
      <trkpt lat="48.68164" lon="1.87307">
        <ele>168</ele>
        <time>2013-08-17T11:38:29Z</time>
      </trkpt>
      <trkpt lat="48.68162" lon="1.87303">
        <ele>168</ele>
        <time>2013-08-17T11:38:31Z</time>
      </trkpt>
      <trkpt lat="48.6816" lon="1.87298">
        <ele>168</ele>
        <time>2013-08-17T11:38:35Z</time>
      </trkpt>
      <trkpt lat="48.68157" lon="1.87293">
        <ele>168</ele>
        <time>2013-08-17T11:38:39Z</time>
      </trkpt>
      <trkpt lat="48.68156" lon="1.8729">
        <ele>168</ele>
        <time>2013-08-17T11:38:41Z</time>
      </trkpt>
      <trkpt lat="48.68155" lon="1.87286">
        <ele>168</ele>
        <time>2013-08-17T11:38:43Z</time>
      </trkpt>
      <trkpt lat="48.68154" lon="1.87281">
        <ele>168</ele>
        <time>2013-08-17T11:38:45Z</time>
      </trkpt>
      <trkpt lat="48.68152" lon="1.87277">
        <ele>168</ele>
        <time>2013-08-17T11:38:47Z</time>
      </trkpt>
      <trkpt lat="48.68151" lon="1.87273">
        <ele>168</ele>
        <time>2013-08-17T11:38:49Z</time>
      </trkpt>
      <trkpt lat="48.68149" lon="1.87268">
        <ele>168</ele>
        <time>2013-08-17T11:38:51Z</time>
      </trkpt>
      <trkpt lat="48.68148" lon="1.87264">
        <ele>168</ele>
        <time>2013-08-17T11:38:53Z</time>
      </trkpt>
      <trkpt lat="48.68146" lon="1.87259">
        <ele>168</ele>
        <time>2013-08-17T11:38:55Z</time>
      </trkpt>
      <trkpt lat="48.68144" lon="1.87255">
        <ele>168</ele>
        <time>2013-08-17T11:38:57Z</time>
      </trkpt>
      <trkpt lat="48.68143" lon="1.8725">
        <ele>168</ele>
        <time>2013-08-17T11:38:59Z</time>
      </trkpt>
      <trkpt lat="48.6814" lon="1.87244">
        <ele>168</ele>
        <time>2013-08-17T11:39:02Z</time>
      </trkpt>
      <trkpt lat="48.68138" lon="1.87239">
        <ele>168</ele>
        <time>2013-08-17T11:39:04Z</time>
      </trkpt>
      <trkpt lat="48.68134" lon="1.87226">
        <ele>168</ele>
        <time>2013-08-17T11:39:07Z</time>
      </trkpt>
      <trkpt lat="48.6813" lon="1.87215">
        <ele>168</ele>
        <time>2013-08-17T11:39:10Z</time>
      </trkpt>
      <trkpt lat="48.68128" lon="1.8721">
        <ele>168</ele>
        <time>2013-08-17T11:39:12Z</time>
      </trkpt>
      <trkpt lat="48.68127" lon="1.87206">
        <ele>168</ele>
        <time>2013-08-17T11:39:14Z</time>
      </trkpt>
      <trkpt lat="48.68124" lon="1.87199">
        <ele>168</ele>
        <time>2013-08-17T11:39:17Z</time>
      </trkpt>
      <trkpt lat="48.68122" lon="1.87194">
        <ele>168</ele>
        <time>2013-08-17T11:39:19Z</time>
      </trkpt>
      <trkpt lat="48.68121" lon="1.8719">
        <ele>168</ele>
        <time>2013-08-17T11:39:21Z</time>
      </trkpt>
      <trkpt lat="48.68118" lon="1.87183">
        <ele>168</ele>
        <time>2013-08-17T11:39:24Z</time>
      </trkpt>
      <trkpt lat="48.68116" lon="1.87179">
        <ele>168</ele>
        <time>2013-08-17T11:39:26Z</time>
      </trkpt>
      <trkpt lat="48.68114" lon="1.87172">
        <ele>168</ele>
        <time>2013-08-17T11:39:29Z</time>
      </trkpt>
      <trkpt lat="48.68113" lon="1.87168">
        <ele>168</ele>
        <time>2013-08-17T11:39:31Z</time>
      </trkpt>
      <trkpt lat="48.68111" lon="1.87163">
        <ele>168</ele>
        <time>2013-08-17T11:39:33Z</time>
      </trkpt>
      <trkpt lat="48.6811" lon="1.87159">
        <ele>168</ele>
        <time>2013-08-17T11:39:35Z</time>
      </trkpt>
      <trkpt lat="48.68108" lon="1.87153">
        <ele>168</ele>
        <time>2013-08-17T11:39:38Z</time>
      </trkpt>
      <trkpt lat="48.68105" lon="1.87147">
        <ele>168</ele>
        <time>2013-08-17T11:39:41Z</time>
      </trkpt>
      <trkpt lat="48.68104" lon="1.87143">
        <ele>168</ele>
        <time>2013-08-17T11:39:43Z</time>
      </trkpt>
      <trkpt lat="48.68102" lon="1.87137">
        <ele>168</ele>
        <time>2013-08-17T11:39:46Z</time>
      </trkpt>
      <trkpt lat="48.68101" lon="1.87133">
        <ele>168</ele>
        <time>2013-08-17T11:39:48Z</time>
      </trkpt>
      <trkpt lat="48.68099" lon="1.87128">
        <ele>168</ele>
        <time>2013-08-17T11:39:50Z</time>
      </trkpt>
      <trkpt lat="48.68098" lon="1.87124">
        <ele>168</ele>
        <time>2013-08-17T11:39:52Z</time>
      </trkpt>
      <trkpt lat="48.68096" lon="1.87117">
        <ele>168</ele>
        <time>2013-08-17T11:39:55Z</time>
      </trkpt>
      <trkpt lat="48.68095" lon="1.87112">
        <ele>168</ele>
        <time>2013-08-17T11:39:57Z</time>
      </trkpt>
      <trkpt lat="48.68093" lon="1.87108">
        <ele>169</ele>
        <time>2013-08-17T11:39:59Z</time>
      </trkpt>
      <trkpt lat="48.68092" lon="1.87104">
        <ele>169</ele>
        <time>2013-08-17T11:40:01Z</time>
      </trkpt>
      <trkpt lat="48.6809" lon="1.871">
        <ele>169</ele>
        <time>2013-08-17T11:40:03Z</time>
      </trkpt>
      <trkpt lat="48.68089" lon="1.87096">
        <ele>169</ele>
        <time>2013-08-17T11:40:05Z</time>
      </trkpt>
      <trkpt lat="48.68088" lon="1.87092">
        <ele>169</ele>
        <time>2013-08-17T11:40:07Z</time>
      </trkpt>
      <trkpt lat="48.68086" lon="1.87087">
        <ele>169</ele>
        <time>2013-08-17T11:40:09Z</time>
      </trkpt>
      <trkpt lat="48.68085" lon="1.87083">
        <ele>169</ele>
        <time>2013-08-17T11:40:11Z</time>
      </trkpt>
      <trkpt lat="48.68083" lon="1.87079">
        <ele>169</ele>
        <time>2013-08-17T11:40:13Z</time>
      </trkpt>
      <trkpt lat="48.68082" lon="1.87076">
        <ele>169</ele>
        <time>2013-08-17T11:40:15Z</time>
      </trkpt>
      <trkpt lat="48.68079" lon="1.8707">
        <ele>169</ele>
        <time>2013-08-17T11:40:18Z</time>
      </trkpt>
      <trkpt lat="48.68078" lon="1.87066">
        <ele>169</ele>
        <time>2013-08-17T11:40:20Z</time>
      </trkpt>
      <trkpt lat="48.68076" lon="1.87064">
        <ele>169</ele>
        <time>2013-08-17T11:40:22Z</time>
      </trkpt>
      <trkpt lat="48.68074" lon="1.87063">
        <ele>169</ele>
        <time>2013-08-17T11:40:24Z</time>
      </trkpt>
      <trkpt lat="48.68071" lon="1.87064">
        <ele>169</ele>
        <time>2013-08-17T11:40:27Z</time>
      </trkpt>
      <trkpt lat="48.68068" lon="1.87067">
        <ele>169</ele>
        <time>2013-08-17T11:40:33Z</time>
      </trkpt>
      <trkpt lat="48.68068" lon="1.87069">
        <ele>169</ele>
        <time>2013-08-17T11:40:36Z</time>
      </trkpt>
      <trkpt lat="48.68067" lon="1.87072">
        <ele>169</ele>
        <time>2013-08-17T11:40:38Z</time>
      </trkpt>
      <trkpt lat="48.68066" lon="1.87073">
        <ele>168</ele>
        <time>2013-08-17T11:40:40Z</time>
      </trkpt>
      <trkpt lat="48.68063" lon="1.87076">
        <ele>167</ele>
        <time>2013-08-17T11:40:43Z</time>
      </trkpt>
      <trkpt lat="48.68061" lon="1.8708">
        <ele>167</ele>
        <time>2013-08-17T11:40:45Z</time>
      </trkpt>
      <trkpt lat="48.6806" lon="1.87083">
        <ele>167</ele>
        <time>2013-08-17T11:40:47Z</time>
      </trkpt>
      <trkpt lat="48.68056" lon="1.87087">
        <ele>166</ele>
        <time>2013-08-17T11:40:50Z</time>
      </trkpt>
      <trkpt lat="48.68053" lon="1.87089">
        <ele>165</ele>
        <time>2013-08-17T11:40:52Z</time>
      </trkpt>
      <trkpt lat="48.68048" lon="1.87089">
        <ele>165</ele>
        <time>2013-08-17T11:40:55Z</time>
      </trkpt>
      <trkpt lat="48.68044" lon="1.87089">
        <ele>165</ele>
        <time>2013-08-17T11:40:57Z</time>
      </trkpt>
      <trkpt lat="48.6804" lon="1.87088">
        <ele>165</ele>
        <time>2013-08-17T11:41:00Z</time>
      </trkpt>
      <trkpt lat="48.68036" lon="1.87089">
        <ele>165</ele>
        <time>2013-08-17T11:41:02Z</time>
      </trkpt>
      <trkpt lat="48.68031" lon="1.87091">
        <ele>165</ele>
        <time>2013-08-17T11:41:05Z</time>
      </trkpt>
      <trkpt lat="48.68028" lon="1.87091">
        <ele>165</ele>
        <time>2013-08-17T11:41:07Z</time>
      </trkpt>
      <trkpt lat="48.68023" lon="1.87091">
        <ele>165</ele>
        <time>2013-08-17T11:41:10Z</time>
      </trkpt>
      <trkpt lat="48.68019" lon="1.87091">
        <ele>165</ele>
        <time>2013-08-17T11:41:12Z</time>
      </trkpt>
      <trkpt lat="48.68016" lon="1.87091">
        <ele>165</ele>
        <time>2013-08-17T11:41:14Z</time>
      </trkpt>
      <trkpt lat="48.68012" lon="1.87092">
        <ele>165</ele>
        <time>2013-08-17T11:41:16Z</time>
      </trkpt>
      <trkpt lat="48.68008" lon="1.87094">
        <ele>165</ele>
        <time>2013-08-17T11:41:18Z</time>
      </trkpt>
      <trkpt lat="48.68004" lon="1.87094">
        <ele>165</ele>
        <time>2013-08-17T11:41:21Z</time>
      </trkpt>
      <trkpt lat="48.68" lon="1.87095">
        <ele>165</ele>
        <time>2013-08-17T11:41:23Z</time>
      </trkpt>
      <trkpt lat="48.67995" lon="1.87096">
        <ele>163</ele>
        <time>2013-08-17T11:41:26Z</time>
      </trkpt>
      <trkpt lat="48.67991" lon="1.87099">
        <ele>162</ele>
        <time>2013-08-17T11:41:28Z</time>
      </trkpt>
      <trkpt lat="48.67986" lon="1.87102">
        <ele>162</ele>
        <time>2013-08-17T11:41:31Z</time>
      </trkpt>
      <trkpt lat="48.67982" lon="1.87105">
        <ele>162</ele>
        <time>2013-08-17T11:41:33Z</time>
      </trkpt>
      <trkpt lat="48.67978" lon="1.87107">
        <ele>162</ele>
        <time>2013-08-17T11:41:35Z</time>
      </trkpt>
      <trkpt lat="48.67973" lon="1.87109">
        <ele>163</ele>
        <time>2013-08-17T11:41:38Z</time>
      </trkpt>
      <trkpt lat="48.67971" lon="1.8711">
        <ele>164</ele>
        <time>2013-08-17T11:41:40Z</time>
      </trkpt>
      <trkpt lat="48.67968" lon="1.87111">
        <ele>164</ele>
        <time>2013-08-17T11:41:42Z</time>
      </trkpt>
      <trkpt lat="48.67965" lon="1.87111">
        <ele>164</ele>
        <time>2013-08-17T11:41:44Z</time>
      </trkpt>
      <trkpt lat="48.67962" lon="1.87111">
        <ele>164</ele>
        <time>2013-08-17T11:41:46Z</time>
      </trkpt>
      <trkpt lat="48.67959" lon="1.87112">
        <ele>164</ele>
        <time>2013-08-17T11:41:48Z</time>
      </trkpt>
      <trkpt lat="48.67956" lon="1.87113">
        <ele>163</ele>
        <time>2013-08-17T11:41:50Z</time>
      </trkpt>
      <trkpt lat="48.67952" lon="1.87112">
        <ele>162</ele>
        <time>2013-08-17T11:41:52Z</time>
      </trkpt>
      <trkpt lat="48.67949" lon="1.87113">
        <ele>161</ele>
        <time>2013-08-17T11:41:54Z</time>
      </trkpt>
      <trkpt lat="48.67944" lon="1.87114">
        <ele>158</ele>
        <time>2013-08-17T11:41:57Z</time>
      </trkpt>
      <trkpt lat="48.67939" lon="1.87116">
        <ele>155</ele>
        <time>2013-08-17T11:42:00Z</time>
      </trkpt>
      <trkpt lat="48.67936" lon="1.87119">
        <ele>155</ele>
        <time>2013-08-17T11:42:02Z</time>
      </trkpt>
      <trkpt lat="48.67932" lon="1.8712">
        <ele>155</ele>
        <time>2013-08-17T11:42:04Z</time>
      </trkpt>
      <trkpt lat="48.67929" lon="1.87121">
        <ele>155</ele>
        <time>2013-08-17T11:42:06Z</time>
      </trkpt>
      <trkpt lat="48.67925" lon="1.87122">
        <ele>157</ele>
        <time>2013-08-17T11:42:08Z</time>
      </trkpt>
      <trkpt lat="48.67922" lon="1.87122">
        <ele>158</ele>
        <time>2013-08-17T11:42:10Z</time>
      </trkpt>
      <trkpt lat="48.67918" lon="1.87124">
        <ele>159</ele>
        <time>2013-08-17T11:42:12Z</time>
      </trkpt>
      <trkpt lat="48.67915" lon="1.87124">
        <ele>159</ele>
        <time>2013-08-17T11:42:14Z</time>
      </trkpt>
      <trkpt lat="48.67912" lon="1.87124">
        <ele>160</ele>
        <time>2013-08-17T11:42:16Z</time>
      </trkpt>
      <trkpt lat="48.67908" lon="1.87124">
        <ele>161</ele>
        <time>2013-08-17T11:42:18Z</time>
      </trkpt>
      <trkpt lat="48.67903" lon="1.87124">
        <ele>162</ele>
        <time>2013-08-17T11:42:21Z</time>
      </trkpt>
      <trkpt lat="48.679" lon="1.87123">
        <ele>162</ele>
        <time>2013-08-17T11:42:23Z</time>
      </trkpt>
      <trkpt lat="48.67896" lon="1.87124">
        <ele>162</ele>
        <time>2013-08-17T11:42:25Z</time>
      </trkpt>
      <trkpt lat="48.67892" lon="1.87124">
        <ele>162</ele>
        <time>2013-08-17T11:42:27Z</time>
      </trkpt>
      <trkpt lat="48.67889" lon="1.87124">
        <ele>162</ele>
        <time>2013-08-17T11:42:29Z</time>
      </trkpt>
      <trkpt lat="48.67886" lon="1.87126">
        <ele>162</ele>
        <time>2013-08-17T11:42:31Z</time>
      </trkpt>
      <trkpt lat="48.67883" lon="1.87126">
        <ele>162</ele>
        <time>2013-08-17T11:42:33Z</time>
      </trkpt>
      <trkpt lat="48.6788" lon="1.87125">
        <ele>162</ele>
        <time>2013-08-17T11:42:35Z</time>
      </trkpt>
      <trkpt lat="48.67876" lon="1.87123">
        <ele>162</ele>
        <time>2013-08-17T11:42:38Z</time>
      </trkpt>
      <trkpt lat="48.67873" lon="1.87123">
        <ele>162</ele>
        <time>2013-08-17T11:42:40Z</time>
      </trkpt>
      <trkpt lat="48.6787" lon="1.87122">
        <ele>162</ele>
        <time>2013-08-17T11:42:42Z</time>
      </trkpt>
      <trkpt lat="48.67865" lon="1.87121">
        <ele>162</ele>
        <time>2013-08-17T11:42:45Z</time>
      </trkpt>
      <trkpt lat="48.67862" lon="1.87122">
        <ele>162</ele>
        <time>2013-08-17T11:42:47Z</time>
      </trkpt>
      <trkpt lat="48.67859" lon="1.87123">
        <ele>162</ele>
        <time>2013-08-17T11:42:49Z</time>
      </trkpt>
      <trkpt lat="48.67856" lon="1.87122">
        <ele>162</ele>
        <time>2013-08-17T11:42:51Z</time>
      </trkpt>
      <trkpt lat="48.67851" lon="1.87121">
        <ele>160</ele>
        <time>2013-08-17T11:42:54Z</time>
      </trkpt>
      <trkpt lat="48.67848" lon="1.87122">
        <ele>160</ele>
        <time>2013-08-17T11:42:56Z</time>
      </trkpt>
      <trkpt lat="48.67843" lon="1.87122">
        <ele>159</ele>
        <time>2013-08-17T11:42:59Z</time>
      </trkpt>
      <trkpt lat="48.67839" lon="1.87123">
        <ele>159</ele>
        <time>2013-08-17T11:43:01Z</time>
      </trkpt>
      <trkpt lat="48.67836" lon="1.87123">
        <ele>158</ele>
        <time>2013-08-17T11:43:03Z</time>
      </trkpt>
      <trkpt lat="48.67832" lon="1.87122">
        <ele>156</ele>
        <time>2013-08-17T11:43:05Z</time>
      </trkpt>
      <trkpt lat="48.67828" lon="1.87122">
        <ele>154</ele>
        <time>2013-08-17T11:43:07Z</time>
      </trkpt>
      <trkpt lat="48.67825" lon="1.87122">
        <ele>152</ele>
        <time>2013-08-17T11:43:09Z</time>
      </trkpt>
      <trkpt lat="48.67821" lon="1.87121">
        <ele>150</ele>
        <time>2013-08-17T11:43:11Z</time>
      </trkpt>
      <trkpt lat="48.67818" lon="1.87121">
        <ele>148</ele>
        <time>2013-08-17T11:43:13Z</time>
      </trkpt>
      <trkpt lat="48.67815" lon="1.87121">
        <ele>146</ele>
        <time>2013-08-17T11:43:15Z</time>
      </trkpt>
      <trkpt lat="48.67812" lon="1.87121">
        <ele>144</ele>
        <time>2013-08-17T11:43:17Z</time>
      </trkpt>
      <trkpt lat="48.67807" lon="1.87121">
        <ele>141</ele>
        <time>2013-08-17T11:43:20Z</time>
      </trkpt>
      <trkpt lat="48.67804" lon="1.87122">
        <ele>141</ele>
        <time>2013-08-17T11:43:22Z</time>
      </trkpt>
      <trkpt lat="48.678" lon="1.87124">
        <ele>141</ele>
        <time>2013-08-17T11:43:24Z</time>
      </trkpt>
      <trkpt lat="48.67795" lon="1.87124">
        <ele>141</ele>
        <time>2013-08-17T11:43:27Z</time>
      </trkpt>
      <trkpt lat="48.67792" lon="1.87124">
        <ele>141</ele>
        <time>2013-08-17T11:43:29Z</time>
      </trkpt>
      <trkpt lat="48.67786" lon="1.87128">
        <ele>143</ele>
        <time>2013-08-17T11:43:32Z</time>
      </trkpt>
      <trkpt lat="48.67781" lon="1.87131">
        <ele>145</ele>
        <time>2013-08-17T11:43:34Z</time>
      </trkpt>
      <trkpt lat="48.67776" lon="1.87133">
        <ele>148</ele>
        <time>2013-08-17T11:43:37Z</time>
      </trkpt>
      <trkpt lat="48.6777" lon="1.87135">
        <ele>149</ele>
        <time>2013-08-17T11:43:40Z</time>
      </trkpt>
      <trkpt lat="48.67766" lon="1.87137">
        <ele>150</ele>
        <time>2013-08-17T11:43:42Z</time>
      </trkpt>
      <trkpt lat="48.67764" lon="1.87138">
        <ele>151</ele>
        <time>2013-08-17T11:43:44Z</time>
      </trkpt>
      <trkpt lat="48.6776" lon="1.8714">
        <ele>152</ele>
        <time>2013-08-17T11:43:46Z</time>
      </trkpt>
      <trkpt lat="48.67758" lon="1.87141">
        <ele>153</ele>
        <time>2013-08-17T11:43:48Z</time>
      </trkpt>
      <trkpt lat="48.67755" lon="1.87142">
        <ele>154</ele>
        <time>2013-08-17T11:43:50Z</time>
      </trkpt>
      <trkpt lat="48.67751" lon="1.87142">
        <ele>155</ele>
        <time>2013-08-17T11:43:53Z</time>
      </trkpt>
      <trkpt lat="48.67746" lon="1.87141">
        <ele>155</ele>
        <time>2013-08-17T11:43:56Z</time>
      </trkpt>
      <trkpt lat="48.67744" lon="1.87142">
        <ele>155</ele>
        <time>2013-08-17T11:43:58Z</time>
      </trkpt>
      <trkpt lat="48.67742" lon="1.87138">
        <ele>155</ele>
        <time>2013-08-17T11:44:01Z</time>
      </trkpt>
      <trkpt lat="48.67741" lon="1.87135">
        <ele>156</ele>
        <time>2013-08-17T11:44:04Z</time>
      </trkpt>
      <trkpt lat="48.6774" lon="1.87136">
        <ele>165</ele>
        <time>2013-08-17T11:45:05Z</time>
      </trkpt>
      <trkpt lat="48.6774" lon="1.87134">
        <ele>165</ele>
        <time>2013-08-17T11:45:34Z</time>
      </trkpt>
      <trkpt lat="48.6774" lon="1.87131">
        <ele>165</ele>
        <time>2013-08-17T11:45:36Z</time>
      </trkpt>
      <trkpt lat="48.67739" lon="1.87126">
        <ele>165</ele>
        <time>2013-08-17T11:45:39Z</time>
      </trkpt>
      <trkpt lat="48.67739" lon="1.87122">
        <ele>165</ele>
        <time>2013-08-17T11:45:41Z</time>
      </trkpt>
      <trkpt lat="48.67739" lon="1.87117">
        <ele>165</ele>
        <time>2013-08-17T11:45:43Z</time>
      </trkpt>
      <trkpt lat="48.67738" lon="1.87112">
        <ele>165</ele>
        <time>2013-08-17T11:45:45Z</time>
      </trkpt>
      <trkpt lat="48.67738" lon="1.87108">
        <ele>165</ele>
        <time>2013-08-17T11:45:47Z</time>
      </trkpt>
      <trkpt lat="48.67736" lon="1.87102">
        <ele>165</ele>
        <time>2013-08-17T11:45:50Z</time>
      </trkpt>
      <trkpt lat="48.67734" lon="1.87096">
        <ele>165</ele>
        <time>2013-08-17T11:45:53Z</time>
      </trkpt>
      <trkpt lat="48.67732" lon="1.8709">
        <ele>165</ele>
        <time>2013-08-17T11:45:56Z</time>
      </trkpt>
      <trkpt lat="48.67731" lon="1.87085">
        <ele>165</ele>
        <time>2013-08-17T11:45:58Z</time>
      </trkpt>
      <trkpt lat="48.67729" lon="1.8708">
        <ele>165</ele>
        <time>2013-08-17T11:46:01Z</time>
      </trkpt>
      <trkpt lat="48.67727" lon="1.87075">
        <ele>165</ele>
        <time>2013-08-17T11:46:03Z</time>
      </trkpt>
      <trkpt lat="48.67725" lon="1.87071">
        <ele>165</ele>
        <time>2013-08-17T11:46:05Z</time>
      </trkpt>
      <trkpt lat="48.67722" lon="1.87065">
        <ele>165</ele>
        <time>2013-08-17T11:46:08Z</time>
      </trkpt>
      <trkpt lat="48.6772" lon="1.87059">
        <ele>165</ele>
        <time>2013-08-17T11:46:11Z</time>
      </trkpt>
      <trkpt lat="48.67719" lon="1.87055">
        <ele>165</ele>
        <time>2013-08-17T11:46:13Z</time>
      </trkpt>
      <trkpt lat="48.67719" lon="1.8705">
        <ele>165</ele>
        <time>2013-08-17T11:46:15Z</time>
      </trkpt>
      <trkpt lat="48.67719" lon="1.87046">
        <ele>165</ele>
        <time>2013-08-17T11:46:17Z</time>
      </trkpt>
      <trkpt lat="48.67719" lon="1.87041">
        <ele>165</ele>
        <time>2013-08-17T11:46:19Z</time>
      </trkpt>
      <trkpt lat="48.6772" lon="1.87037">
        <ele>165</ele>
        <time>2013-08-17T11:46:21Z</time>
      </trkpt>
      <trkpt lat="48.6772" lon="1.8703">
        <ele>165</ele>
        <time>2013-08-17T11:46:24Z</time>
      </trkpt>
      <trkpt lat="48.67721" lon="1.87026">
        <ele>166</ele>
        <time>2013-08-17T11:46:26Z</time>
      </trkpt>
      <trkpt lat="48.67721" lon="1.87022">
        <ele>166</ele>
        <time>2013-08-17T11:46:28Z</time>
      </trkpt>
      <trkpt lat="48.67722" lon="1.87018">
        <ele>166</ele>
        <time>2013-08-17T11:46:30Z</time>
      </trkpt>
      <trkpt lat="48.67722" lon="1.87011">
        <ele>166</ele>
        <time>2013-08-17T11:46:33Z</time>
      </trkpt>
      <trkpt lat="48.67723" lon="1.87006">
        <ele>166</ele>
        <time>2013-08-17T11:46:35Z</time>
      </trkpt>
      <trkpt lat="48.67723" lon="1.87001">
        <ele>166</ele>
        <time>2013-08-17T11:46:37Z</time>
      </trkpt>
      <trkpt lat="48.67723" lon="1.86996">
        <ele>166</ele>
        <time>2013-08-17T11:46:39Z</time>
      </trkpt>
      <trkpt lat="48.67723" lon="1.86992">
        <ele>166</ele>
        <time>2013-08-17T11:46:41Z</time>
      </trkpt>
      <trkpt lat="48.67724" lon="1.86986">
        <ele>166</ele>
        <time>2013-08-17T11:46:44Z</time>
      </trkpt>
      <trkpt lat="48.67725" lon="1.8698">
        <ele>167</ele>
        <time>2013-08-17T11:46:46Z</time>
      </trkpt>
      <trkpt lat="48.67725" lon="1.86975">
        <ele>167</ele>
        <time>2013-08-17T11:46:48Z</time>
      </trkpt>
      <trkpt lat="48.67726" lon="1.8697">
        <ele>167</ele>
        <time>2013-08-17T11:46:50Z</time>
      </trkpt>
      <trkpt lat="48.67726" lon="1.86966">
        <ele>167</ele>
        <time>2013-08-17T11:46:52Z</time>
      </trkpt>
      <trkpt lat="48.67727" lon="1.86961">
        <ele>167</ele>
        <time>2013-08-17T11:46:54Z</time>
      </trkpt>
      <trkpt lat="48.67727" lon="1.86955">
        <ele>167</ele>
        <time>2013-08-17T11:46:57Z</time>
      </trkpt>
      <trkpt lat="48.67728" lon="1.86948">
        <ele>167</ele>
        <time>2013-08-17T11:47:00Z</time>
      </trkpt>
      <trkpt lat="48.67729" lon="1.86944">
        <ele>167</ele>
        <time>2013-08-17T11:47:02Z</time>
      </trkpt>
      <trkpt lat="48.6773" lon="1.86938">
        <ele>167</ele>
        <time>2013-08-17T11:47:05Z</time>
      </trkpt>
      <trkpt lat="48.6773" lon="1.86933">
        <ele>167</ele>
        <time>2013-08-17T11:47:07Z</time>
      </trkpt>
      <trkpt lat="48.6773" lon="1.86926">
        <ele>167</ele>
        <time>2013-08-17T11:47:10Z</time>
      </trkpt>
      <trkpt lat="48.6773" lon="1.86921">
        <ele>167</ele>
        <time>2013-08-17T11:47:12Z</time>
      </trkpt>
      <trkpt lat="48.67731" lon="1.86917">
        <ele>167</ele>
        <time>2013-08-17T11:47:14Z</time>
      </trkpt>
      <trkpt lat="48.67731" lon="1.86912">
        <ele>167</ele>
        <time>2013-08-17T11:47:16Z</time>
      </trkpt>
      <trkpt lat="48.67731" lon="1.86907">
        <ele>167</ele>
        <time>2013-08-17T11:47:18Z</time>
      </trkpt>
      <trkpt lat="48.67731" lon="1.86903">
        <ele>167</ele>
        <time>2013-08-17T11:47:20Z</time>
      </trkpt>
      <trkpt lat="48.67732" lon="1.86895">
        <ele>167</ele>
        <time>2013-08-17T11:47:23Z</time>
      </trkpt>
      <trkpt lat="48.67732" lon="1.86891">
        <ele>167</ele>
        <time>2013-08-17T11:47:25Z</time>
      </trkpt>
      <trkpt lat="48.67733" lon="1.86887">
        <ele>167</ele>
        <time>2013-08-17T11:47:27Z</time>
      </trkpt>
      <trkpt lat="48.67733" lon="1.8688">
        <ele>167</ele>
        <time>2013-08-17T11:47:30Z</time>
      </trkpt>
      <trkpt lat="48.67734" lon="1.86874">
        <ele>167</ele>
        <time>2013-08-17T11:47:33Z</time>
      </trkpt>
      <trkpt lat="48.67734" lon="1.86868">
        <ele>167</ele>
        <time>2013-08-17T11:47:36Z</time>
      </trkpt>
      <trkpt lat="48.67735" lon="1.86863">
        <ele>167</ele>
        <time>2013-08-17T11:47:38Z</time>
      </trkpt>
      <trkpt lat="48.67736" lon="1.86857">
        <ele>167</ele>
        <time>2013-08-17T11:47:41Z</time>
      </trkpt>
      <trkpt lat="48.67737" lon="1.86852">
        <ele>167</ele>
        <time>2013-08-17T11:47:43Z</time>
      </trkpt>
      <trkpt lat="48.67738" lon="1.86848">
        <ele>167</ele>
        <time>2013-08-17T11:47:45Z</time>
      </trkpt>
      <trkpt lat="48.67739" lon="1.86841">
        <ele>167</ele>
        <time>2013-08-17T11:47:48Z</time>
      </trkpt>
      <trkpt lat="48.67738" lon="1.86836">
        <ele>167</ele>
        <time>2013-08-17T11:47:50Z</time>
      </trkpt>
      <trkpt lat="48.67738" lon="1.86831">
        <ele>167</ele>
        <time>2013-08-17T11:47:52Z</time>
      </trkpt>
      <trkpt lat="48.67739" lon="1.86826">
        <ele>167</ele>
        <time>2013-08-17T11:47:54Z</time>
      </trkpt>
      <trkpt lat="48.6774" lon="1.8682">
        <ele>167</ele>
        <time>2013-08-17T11:47:57Z</time>
      </trkpt>
      <trkpt lat="48.67741" lon="1.86815">
        <ele>167</ele>
        <time>2013-08-17T11:47:59Z</time>
      </trkpt>
      <trkpt lat="48.67741" lon="1.86811">
        <ele>167</ele>
        <time>2013-08-17T11:48:01Z</time>
      </trkpt>
      <trkpt lat="48.67742" lon="1.86807">
        <ele>167</ele>
        <time>2013-08-17T11:48:03Z</time>
      </trkpt>
      <trkpt lat="48.67741" lon="1.86803">
        <ele>166</ele>
        <time>2013-08-17T11:48:05Z</time>
      </trkpt>
      <trkpt lat="48.67741" lon="1.86798">
        <ele>166</ele>
        <time>2013-08-17T11:48:07Z</time>
      </trkpt>
      <trkpt lat="48.67741" lon="1.86792">
        <ele>165</ele>
        <time>2013-08-17T11:48:10Z</time>
      </trkpt>
      <trkpt lat="48.67742" lon="1.86788">
        <ele>164</ele>
        <time>2013-08-17T11:48:12Z</time>
      </trkpt>
      <trkpt lat="48.67742" lon="1.86784">
        <ele>164</ele>
        <time>2013-08-17T11:48:14Z</time>
      </trkpt>
      <trkpt lat="48.67743" lon="1.8678">
        <ele>163</ele>
        <time>2013-08-17T11:48:16Z</time>
      </trkpt>
      <trkpt lat="48.67744" lon="1.86776">
        <ele>163</ele>
        <time>2013-08-17T11:48:18Z</time>
      </trkpt>
      <trkpt lat="48.67744" lon="1.86771">
        <ele>163</ele>
        <time>2013-08-17T11:48:20Z</time>
      </trkpt>
      <trkpt lat="48.67744" lon="1.86767">
        <ele>163</ele>
        <time>2013-08-17T11:48:22Z</time>
      </trkpt>
      <trkpt lat="48.67745" lon="1.86763">
        <ele>163</ele>
        <time>2013-08-17T11:48:24Z</time>
      </trkpt>
      <trkpt lat="48.67746" lon="1.86758">
        <ele>163</ele>
        <time>2013-08-17T11:48:26Z</time>
      </trkpt>
      <trkpt lat="48.67747" lon="1.86754">
        <ele>163</ele>
        <time>2013-08-17T11:48:28Z</time>
      </trkpt>
      <trkpt lat="48.67747" lon="1.86749">
        <ele>163</ele>
        <time>2013-08-17T11:48:30Z</time>
      </trkpt>
      <trkpt lat="48.67747" lon="1.86741">
        <ele>163</ele>
        <time>2013-08-17T11:48:33Z</time>
      </trkpt>
      <trkpt lat="48.67747" lon="1.86737">
        <ele>163</ele>
        <time>2013-08-17T11:48:35Z</time>
      </trkpt>
      <trkpt lat="48.67748" lon="1.86733">
        <ele>163</ele>
        <time>2013-08-17T11:48:37Z</time>
      </trkpt>
      <trkpt lat="48.67749" lon="1.86728">
        <ele>163</ele>
        <time>2013-08-17T11:48:39Z</time>
      </trkpt>
      <trkpt lat="48.67747" lon="1.8672">
        <ele>163</ele>
        <time>2013-08-17T11:48:42Z</time>
      </trkpt>
      <trkpt lat="48.67747" lon="1.86713">
        <ele>162</ele>
        <time>2013-08-17T11:48:45Z</time>
      </trkpt>
      <trkpt lat="48.67747" lon="1.86705">
        <ele>161</ele>
        <time>2013-08-17T11:48:48Z</time>
      </trkpt>
      <trkpt lat="48.67748" lon="1.867">
        <ele>161</ele>
        <time>2013-08-17T11:48:50Z</time>
      </trkpt>
      <trkpt lat="48.67748" lon="1.86696">
        <ele>161</ele>
        <time>2013-08-17T11:48:52Z</time>
      </trkpt>
      <trkpt lat="48.67749" lon="1.86689">
        <ele>161</ele>
        <time>2013-08-17T11:48:55Z</time>
      </trkpt>
      <trkpt lat="48.67749" lon="1.86683">
        <ele>161</ele>
        <time>2013-08-17T11:48:57Z</time>
      </trkpt>
      <trkpt lat="48.67749" lon="1.86679">
        <ele>161</ele>
        <time>2013-08-17T11:48:59Z</time>
      </trkpt>
      <trkpt lat="48.6775" lon="1.86673">
        <ele>161</ele>
        <time>2013-08-17T11:49:01Z</time>
      </trkpt>
      <trkpt lat="48.6775" lon="1.86669">
        <ele>161</ele>
        <time>2013-08-17T11:49:03Z</time>
      </trkpt>
      <trkpt lat="48.67751" lon="1.86663">
        <ele>161</ele>
        <time>2013-08-17T11:49:06Z</time>
      </trkpt>
      <trkpt lat="48.67752" lon="1.86659">
        <ele>161</ele>
        <time>2013-08-17T11:49:08Z</time>
      </trkpt>
      <trkpt lat="48.67753" lon="1.86652">
        <ele>161</ele>
        <time>2013-08-17T11:49:11Z</time>
      </trkpt>
      <trkpt lat="48.67754" lon="1.86647">
        <ele>161</ele>
        <time>2013-08-17T11:49:13Z</time>
      </trkpt>
      <trkpt lat="48.67754" lon="1.86642">
        <ele>161</ele>
        <time>2013-08-17T11:49:15Z</time>
      </trkpt>
      <trkpt lat="48.67755" lon="1.86635">
        <ele>161</ele>
        <time>2013-08-17T11:49:18Z</time>
      </trkpt>
      <trkpt lat="48.67756" lon="1.8663">
        <ele>161</ele>
        <time>2013-08-17T11:49:20Z</time>
      </trkpt>
      <trkpt lat="48.67756" lon="1.86625">
        <ele>162</ele>
        <time>2013-08-17T11:49:22Z</time>
      </trkpt>
      <trkpt lat="48.67756" lon="1.86621">
        <ele>162</ele>
        <time>2013-08-17T11:49:24Z</time>
      </trkpt>
      <trkpt lat="48.67756" lon="1.86615">
        <ele>162</ele>
        <time>2013-08-17T11:49:27Z</time>
      </trkpt>
      <trkpt lat="48.67757" lon="1.8661">
        <ele>162</ele>
        <time>2013-08-17T11:49:29Z</time>
      </trkpt>
      <trkpt lat="48.67757" lon="1.86606">
        <ele>162</ele>
        <time>2013-08-17T11:49:31Z</time>
      </trkpt>
      <trkpt lat="48.67758" lon="1.86601">
        <ele>163</ele>
        <time>2013-08-17T11:49:33Z</time>
      </trkpt>
      <trkpt lat="48.67759" lon="1.86597">
        <ele>163</ele>
        <time>2013-08-17T11:49:35Z</time>
      </trkpt>
      <trkpt lat="48.67761" lon="1.86593">
        <ele>163</ele>
        <time>2013-08-17T11:49:37Z</time>
      </trkpt>
      <trkpt lat="48.67762" lon="1.86589">
        <ele>163</ele>
        <time>2013-08-17T11:49:39Z</time>
      </trkpt>
      <trkpt lat="48.67762" lon="1.86585">
        <ele>163</ele>
        <time>2013-08-17T11:49:41Z</time>
      </trkpt>
      <trkpt lat="48.67763" lon="1.86581">
        <ele>163</ele>
        <time>2013-08-17T11:49:43Z</time>
      </trkpt>
      <trkpt lat="48.67762" lon="1.86577">
        <ele>163</ele>
        <time>2013-08-17T11:49:46Z</time>
      </trkpt>
      <trkpt lat="48.67762" lon="1.86574">
        <ele>163</ele>
        <time>2013-08-17T11:49:54Z</time>
      </trkpt>
      <trkpt lat="48.67762" lon="1.86571">
        <ele>164</ele>
        <time>2013-08-17T11:49:56Z</time>
      </trkpt>
      <trkpt lat="48.67761" lon="1.86565">
        <ele>164</ele>
        <time>2013-08-17T11:49:59Z</time>
      </trkpt>
      <trkpt lat="48.67758" lon="1.86561">
        <ele>164</ele>
        <time>2013-08-17T11:50:01Z</time>
      </trkpt>
      <trkpt lat="48.67757" lon="1.86556">
        <ele>164</ele>
        <time>2013-08-17T11:50:03Z</time>
      </trkpt>
      <trkpt lat="48.67756" lon="1.86551">
        <ele>164</ele>
        <time>2013-08-17T11:50:05Z</time>
      </trkpt>
      <trkpt lat="48.67755" lon="1.86547">
        <ele>164</ele>
        <time>2013-08-17T11:50:07Z</time>
      </trkpt>
      <trkpt lat="48.67753" lon="1.86538">
        <ele>164</ele>
        <time>2013-08-17T11:50:10Z</time>
      </trkpt>
      <trkpt lat="48.67753" lon="1.86533">
        <ele>164</ele>
        <time>2013-08-17T11:50:12Z</time>
      </trkpt>
      <trkpt lat="48.67753" lon="1.86529">
        <ele>164</ele>
        <time>2013-08-17T11:50:14Z</time>
      </trkpt>
      <trkpt lat="48.67752" lon="1.86525">
        <ele>164</ele>
        <time>2013-08-17T11:50:16Z</time>
      </trkpt>
      <trkpt lat="48.67753" lon="1.8652">
        <ele>164</ele>
        <time>2013-08-17T11:50:18Z</time>
      </trkpt>
      <trkpt lat="48.67752" lon="1.86514">
        <ele>164</ele>
        <time>2013-08-17T11:50:21Z</time>
      </trkpt>
      <trkpt lat="48.67754" lon="1.8651">
        <ele>164</ele>
        <time>2013-08-17T11:50:23Z</time>
      </trkpt>
      <trkpt lat="48.67754" lon="1.86505">
        <ele>164</ele>
        <time>2013-08-17T11:50:25Z</time>
      </trkpt>
      <trkpt lat="48.67755" lon="1.865">
        <ele>164</ele>
        <time>2013-08-17T11:50:27Z</time>
      </trkpt>
      <trkpt lat="48.67755" lon="1.86494">
        <ele>164</ele>
        <time>2013-08-17T11:50:29Z</time>
      </trkpt>
      <trkpt lat="48.67756" lon="1.86489">
        <ele>164</ele>
        <time>2013-08-17T11:50:31Z</time>
      </trkpt>
      <trkpt lat="48.67756" lon="1.86483">
        <ele>164</ele>
        <time>2013-08-17T11:50:33Z</time>
      </trkpt>
      <trkpt lat="48.67757" lon="1.86478">
        <ele>164</ele>
        <time>2013-08-17T11:50:35Z</time>
      </trkpt>
      <trkpt lat="48.67757" lon="1.86473">
        <ele>164</ele>
        <time>2013-08-17T11:50:37Z</time>
      </trkpt>
      <trkpt lat="48.67756" lon="1.86467">
        <ele>164</ele>
        <time>2013-08-17T11:50:40Z</time>
      </trkpt>
      <trkpt lat="48.67756" lon="1.86462">
        <ele>165</ele>
        <time>2013-08-17T11:50:42Z</time>
      </trkpt>
      <trkpt lat="48.67756" lon="1.86456">
        <ele>166</ele>
        <time>2013-08-17T11:50:44Z</time>
      </trkpt>
      <trkpt lat="48.67756" lon="1.8645">
        <ele>166</ele>
        <time>2013-08-17T11:50:47Z</time>
      </trkpt>
      <trkpt lat="48.67756" lon="1.86437">
        <ele>166</ele>
        <time>2013-08-17T11:50:50Z</time>
      </trkpt>
      <trkpt lat="48.67756" lon="1.86426">
        <ele>166</ele>
        <time>2013-08-17T11:50:52Z</time>
      </trkpt>
      <trkpt lat="48.67756" lon="1.86413">
        <ele>166</ele>
        <time>2013-08-17T11:50:54Z</time>
      </trkpt>
      <trkpt lat="48.67755" lon="1.86401">
        <ele>166</ele>
        <time>2013-08-17T11:50:56Z</time>
      </trkpt>
      <trkpt lat="48.67756" lon="1.86387">
        <ele>166</ele>
        <time>2013-08-17T11:50:59Z</time>
      </trkpt>
      <trkpt lat="48.67759" lon="1.8637">
        <ele>165</ele>
        <time>2013-08-17T11:51:02Z</time>
      </trkpt>
      <trkpt lat="48.67762" lon="1.86355">
        <ele>164</ele>
        <time>2013-08-17T11:51:04Z</time>
      </trkpt>
      <trkpt lat="48.67764" lon="1.86338">
        <ele>164</ele>
        <time>2013-08-17T11:51:06Z</time>
      </trkpt>
      <trkpt lat="48.67764" lon="1.86322">
        <ele>164</ele>
        <time>2013-08-17T11:51:08Z</time>
      </trkpt>
      <trkpt lat="48.67765" lon="1.86307">
        <ele>164</ele>
        <time>2013-08-17T11:51:10Z</time>
      </trkpt>
      <trkpt lat="48.67767" lon="1.86292">
        <ele>164</ele>
        <time>2013-08-17T11:51:12Z</time>
      </trkpt>
      <trkpt lat="48.6777" lon="1.86275">
        <ele>164</ele>
        <time>2013-08-17T11:51:14Z</time>
      </trkpt>
      <trkpt lat="48.67772" lon="1.86261">
        <ele>164</ele>
        <time>2013-08-17T11:51:16Z</time>
      </trkpt>
      <trkpt lat="48.67773" lon="1.86237">
        <ele>164</ele>
        <time>2013-08-17T11:51:19Z</time>
      </trkpt>
      <trkpt lat="48.67774" lon="1.86219">
        <ele>165</ele>
        <time>2013-08-17T11:51:21Z</time>
      </trkpt>
      <trkpt lat="48.67774" lon="1.86191">
        <ele>167</ele>
        <time>2013-08-17T11:51:24Z</time>
      </trkpt>
      <trkpt lat="48.67775" lon="1.86173">
        <ele>167</ele>
        <time>2013-08-17T11:51:26Z</time>
      </trkpt>
      <trkpt lat="48.67775" lon="1.86155">
        <ele>167</ele>
        <time>2013-08-17T11:51:28Z</time>
      </trkpt>
      <trkpt lat="48.67777" lon="1.86137">
        <ele>167</ele>
        <time>2013-08-17T11:51:30Z</time>
      </trkpt>
      <trkpt lat="48.67778" lon="1.86109">
        <ele>167</ele>
        <time>2013-08-17T11:51:33Z</time>
      </trkpt>
      <trkpt lat="48.67778" lon="1.86091">
        <ele>167</ele>
        <time>2013-08-17T11:51:35Z</time>
      </trkpt>
      <trkpt lat="48.67778" lon="1.86064">
        <ele>167</ele>
        <time>2013-08-17T11:51:38Z</time>
      </trkpt>
      <trkpt lat="48.67779" lon="1.86046">
        <ele>167</ele>
        <time>2013-08-17T11:51:40Z</time>
      </trkpt>
      <trkpt lat="48.67781" lon="1.86029">
        <ele>167</ele>
        <time>2013-08-17T11:51:42Z</time>
      </trkpt>
      <trkpt lat="48.67783" lon="1.86011">
        <ele>167</ele>
        <time>2013-08-17T11:51:44Z</time>
      </trkpt>
      <trkpt lat="48.67783" lon="1.85993">
        <ele>167</ele>
        <time>2013-08-17T11:51:46Z</time>
      </trkpt>
      <trkpt lat="48.67784" lon="1.85976">
        <ele>167</ele>
        <time>2013-08-17T11:51:48Z</time>
      </trkpt>
      <trkpt lat="48.67785" lon="1.85958">
        <ele>167</ele>
        <time>2013-08-17T11:51:50Z</time>
      </trkpt>
      <trkpt lat="48.67785" lon="1.85939">
        <ele>167</ele>
        <time>2013-08-17T11:51:52Z</time>
      </trkpt>
      <trkpt lat="48.67786" lon="1.85921">
        <ele>167</ele>
        <time>2013-08-17T11:51:54Z</time>
      </trkpt>
      <trkpt lat="48.67786" lon="1.85904">
        <ele>167</ele>
        <time>2013-08-17T11:51:56Z</time>
      </trkpt>
      <trkpt lat="48.67788" lon="1.85879">
        <ele>167</ele>
        <time>2013-08-17T11:51:59Z</time>
      </trkpt>
      <trkpt lat="48.67788" lon="1.85861">
        <ele>167</ele>
        <time>2013-08-17T11:52:01Z</time>
      </trkpt>
      <trkpt lat="48.6779" lon="1.85835">
        <ele>167</ele>
        <time>2013-08-17T11:52:04Z</time>
      </trkpt>
      <trkpt lat="48.67792" lon="1.85819">
        <ele>167</ele>
        <time>2013-08-17T11:52:06Z</time>
      </trkpt>
      <trkpt lat="48.67794" lon="1.85795">
        <ele>167</ele>
        <time>2013-08-17T11:52:09Z</time>
      </trkpt>
      <trkpt lat="48.67795" lon="1.85771">
        <ele>167</ele>
        <time>2013-08-17T11:52:12Z</time>
      </trkpt>
      <trkpt lat="48.67797" lon="1.85746">
        <ele>167</ele>
        <time>2013-08-17T11:52:15Z</time>
      </trkpt>
      <trkpt lat="48.67798" lon="1.85727">
        <ele>167</ele>
        <time>2013-08-17T11:52:17Z</time>
      </trkpt>
      <trkpt lat="48.67799" lon="1.85708">
        <ele>167</ele>
        <time>2013-08-17T11:52:19Z</time>
      </trkpt>
      <trkpt lat="48.67801" lon="1.85689">
        <ele>167</ele>
        <time>2013-08-17T11:52:21Z</time>
      </trkpt>
      <trkpt lat="48.67802" lon="1.85672">
        <ele>167</ele>
        <time>2013-08-17T11:52:23Z</time>
      </trkpt>
      <trkpt lat="48.67803" lon="1.85655">
        <ele>167</ele>
        <time>2013-08-17T11:52:25Z</time>
      </trkpt>
      <trkpt lat="48.67804" lon="1.85627">
        <ele>167</ele>
        <time>2013-08-17T11:52:28Z</time>
      </trkpt>
      <trkpt lat="48.67805" lon="1.85609">
        <ele>167</ele>
        <time>2013-08-17T11:52:30Z</time>
      </trkpt>
      <trkpt lat="48.67807" lon="1.85589">
        <ele>167</ele>
        <time>2013-08-17T11:52:32Z</time>
      </trkpt>
      <trkpt lat="48.6781" lon="1.85557">
        <ele>169</ele>
        <time>2013-08-17T11:52:35Z</time>
      </trkpt>
      <trkpt lat="48.67812" lon="1.85535">
        <ele>171</ele>
        <time>2013-08-17T11:52:37Z</time>
      </trkpt>
      <trkpt lat="48.67812" lon="1.85512">
        <ele>173</ele>
        <time>2013-08-17T11:52:39Z</time>
      </trkpt>
      <trkpt lat="48.67813" lon="1.8549">
        <ele>173</ele>
        <time>2013-08-17T11:52:41Z</time>
      </trkpt>
      <trkpt lat="48.67815" lon="1.85469">
        <ele>173</ele>
        <time>2013-08-17T11:52:43Z</time>
      </trkpt>
      <trkpt lat="48.67817" lon="1.85449">
        <ele>173</ele>
        <time>2013-08-17T11:52:45Z</time>
      </trkpt>
      <trkpt lat="48.67818" lon="1.85427">
        <ele>173</ele>
        <time>2013-08-17T11:52:47Z</time>
      </trkpt>
      <trkpt lat="48.67818" lon="1.85407">
        <ele>173</ele>
        <time>2013-08-17T11:52:49Z</time>
      </trkpt>
      <trkpt lat="48.67819" lon="1.85388">
        <ele>173</ele>
        <time>2013-08-17T11:52:51Z</time>
      </trkpt>
      <trkpt lat="48.6782" lon="1.85371">
        <ele>173</ele>
        <time>2013-08-17T11:52:53Z</time>
      </trkpt>
      <trkpt lat="48.67821" lon="1.85356">
        <ele>173</ele>
        <time>2013-08-17T11:52:55Z</time>
      </trkpt>
      <trkpt lat="48.67821" lon="1.85337">
        <ele>173</ele>
        <time>2013-08-17T11:52:58Z</time>
      </trkpt>
      <trkpt lat="48.67822" lon="1.85321">
        <ele>173</ele>
        <time>2013-08-17T11:53:01Z</time>
      </trkpt>
      <trkpt lat="48.67823" lon="1.85311">
        <ele>173</ele>
        <time>2013-08-17T11:53:04Z</time>
      </trkpt>
      <trkpt lat="48.67823" lon="1.8531">
        <ele>173</ele>
        <time>2013-08-17T11:53:06Z</time>
      </trkpt>
      <trkpt lat="48.67822" lon="1.85308">
        <ele>174</ele>
        <time>2013-08-17T11:53:16Z</time>
      </trkpt>
      <trkpt lat="48.67821" lon="1.85307">
        <ele>174</ele>
        <time>2013-08-17T11:53:20Z</time>
      </trkpt>
      <trkpt lat="48.67819" lon="1.85307">
        <ele>175</ele>
        <time>2013-08-17T11:53:36Z</time>
      </trkpt>
      <trkpt lat="48.67817" lon="1.85306">
        <ele>175</ele>
        <time>2013-08-17T11:53:38Z</time>
      </trkpt>
      <trkpt lat="48.67812" lon="1.85304">
        <ele>175</ele>
        <time>2013-08-17T11:53:41Z</time>
      </trkpt>
      <trkpt lat="48.67809" lon="1.85304">
        <ele>175</ele>
        <time>2013-08-17T11:53:43Z</time>
      </trkpt>
      <trkpt lat="48.67806" lon="1.85303">
        <ele>173</ele>
        <time>2013-08-17T11:53:45Z</time>
      </trkpt>
      <trkpt lat="48.67803" lon="1.85302">
        <ele>173</ele>
        <time>2013-08-17T11:53:47Z</time>
      </trkpt>
      <trkpt lat="48.67799" lon="1.853">
        <ele>171</ele>
        <time>2013-08-17T11:53:50Z</time>
      </trkpt>
      <trkpt lat="48.67795" lon="1.85298">
        <ele>170</ele>
        <time>2013-08-17T11:53:52Z</time>
      </trkpt>
      <trkpt lat="48.67792" lon="1.85297">
        <ele>169</ele>
        <time>2013-08-17T11:53:54Z</time>
      </trkpt>
      <trkpt lat="48.67789" lon="1.85295">
        <ele>169</ele>
        <time>2013-08-17T11:53:56Z</time>
      </trkpt>
      <trkpt lat="48.67786" lon="1.85295">
        <ele>169</ele>
        <time>2013-08-17T11:53:58Z</time>
      </trkpt>
      <trkpt lat="48.67781" lon="1.85294">
        <ele>168</ele>
        <time>2013-08-17T11:54:01Z</time>
      </trkpt>
      <trkpt lat="48.67778" lon="1.85293">
        <ele>168</ele>
        <time>2013-08-17T11:54:03Z</time>
      </trkpt>
      <trkpt lat="48.67775" lon="1.85291">
        <ele>167</ele>
        <time>2013-08-17T11:54:05Z</time>
      </trkpt>
      <trkpt lat="48.67771" lon="1.8529">
        <ele>167</ele>
        <time>2013-08-17T11:54:07Z</time>
      </trkpt>
      <trkpt lat="48.67766" lon="1.85289">
        <ele>166</ele>
        <time>2013-08-17T11:54:10Z</time>
      </trkpt>
      <trkpt lat="48.67763" lon="1.85287">
        <ele>166</ele>
        <time>2013-08-17T11:54:12Z</time>
      </trkpt>
      <trkpt lat="48.67757" lon="1.85285">
        <ele>166</ele>
        <time>2013-08-17T11:54:16Z</time>
      </trkpt>
      <trkpt lat="48.67754" lon="1.85284">
        <ele>166</ele>
        <time>2013-08-17T11:54:18Z</time>
      </trkpt>
      <trkpt lat="48.67749" lon="1.85282">
        <ele>165</ele>
        <time>2013-08-17T11:54:21Z</time>
      </trkpt>
      <trkpt lat="48.67746" lon="1.85281">
        <ele>165</ele>
        <time>2013-08-17T11:54:23Z</time>
      </trkpt>
      <trkpt lat="48.67743" lon="1.8528">
        <ele>164</ele>
        <time>2013-08-17T11:54:25Z</time>
      </trkpt>
      <trkpt lat="48.6774" lon="1.85278">
        <ele>163</ele>
        <time>2013-08-17T11:54:27Z</time>
      </trkpt>
      <trkpt lat="48.67737" lon="1.85277">
        <ele>163</ele>
        <time>2013-08-17T11:54:29Z</time>
      </trkpt>
      <trkpt lat="48.67733" lon="1.85276">
        <ele>163</ele>
        <time>2013-08-17T11:54:32Z</time>
      </trkpt>
      <trkpt lat="48.6773" lon="1.85275">
        <ele>163</ele>
        <time>2013-08-17T11:54:34Z</time>
      </trkpt>
      <trkpt lat="48.67726" lon="1.85274">
        <ele>163</ele>
        <time>2013-08-17T11:54:36Z</time>
      </trkpt>
      <trkpt lat="48.67723" lon="1.85272">
        <ele>162</ele>
        <time>2013-08-17T11:54:38Z</time>
      </trkpt>
      <trkpt lat="48.6772" lon="1.85271">
        <ele>162</ele>
        <time>2013-08-17T11:54:40Z</time>
      </trkpt>
      <trkpt lat="48.67718" lon="1.85269">
        <ele>161</ele>
        <time>2013-08-17T11:54:42Z</time>
      </trkpt>
      <trkpt lat="48.67714" lon="1.85268">
        <ele>161</ele>
        <time>2013-08-17T11:54:44Z</time>
      </trkpt>
      <trkpt lat="48.67712" lon="1.85266">
        <ele>161</ele>
        <time>2013-08-17T11:54:46Z</time>
      </trkpt>
      <trkpt lat="48.67709" lon="1.85265">
        <ele>161</ele>
        <time>2013-08-17T11:54:48Z</time>
      </trkpt>
      <trkpt lat="48.67704" lon="1.85263">
        <ele>161</ele>
        <time>2013-08-17T11:54:51Z</time>
      </trkpt>
      <trkpt lat="48.67701" lon="1.85261">
        <ele>161</ele>
        <time>2013-08-17T11:54:53Z</time>
      </trkpt>
      <trkpt lat="48.67698" lon="1.8526">
        <ele>161</ele>
        <time>2013-08-17T11:54:55Z</time>
      </trkpt>
      <trkpt lat="48.67695" lon="1.85259">
        <ele>161</ele>
        <time>2013-08-17T11:54:57Z</time>
      </trkpt>
      <trkpt lat="48.67691" lon="1.85257">
        <ele>161</ele>
        <time>2013-08-17T11:55:00Z</time>
      </trkpt>
      <trkpt lat="48.67688" lon="1.85256">
        <ele>160</ele>
        <time>2013-08-17T11:55:02Z</time>
      </trkpt>
      <trkpt lat="48.67685" lon="1.85254">
        <ele>160</ele>
        <time>2013-08-17T11:55:04Z</time>
      </trkpt>
      <trkpt lat="48.67682" lon="1.85252">
        <ele>160</ele>
        <time>2013-08-17T11:55:06Z</time>
      </trkpt>
      <trkpt lat="48.67679" lon="1.85251">
        <ele>160</ele>
        <time>2013-08-17T11:55:08Z</time>
      </trkpt>
      <trkpt lat="48.67674" lon="1.85249">
        <ele>159</ele>
        <time>2013-08-17T11:55:11Z</time>
      </trkpt>
      <trkpt lat="48.6767" lon="1.85247">
        <ele>158</ele>
        <time>2013-08-17T11:55:14Z</time>
      </trkpt>
      <trkpt lat="48.67666" lon="1.85246">
        <ele>158</ele>
        <time>2013-08-17T11:55:16Z</time>
      </trkpt>
      <trkpt lat="48.67664" lon="1.85245">
        <ele>158</ele>
        <time>2013-08-17T11:55:18Z</time>
      </trkpt>
      <trkpt lat="48.67661" lon="1.85243">
        <ele>158</ele>
        <time>2013-08-17T11:55:20Z</time>
      </trkpt>
      <trkpt lat="48.67656" lon="1.85241">
        <ele>157</ele>
        <time>2013-08-17T11:55:23Z</time>
      </trkpt>
      <trkpt lat="48.67653" lon="1.8524">
        <ele>157</ele>
        <time>2013-08-17T11:55:25Z</time>
      </trkpt>
      <trkpt lat="48.6765" lon="1.85238">
        <ele>156</ele>
        <time>2013-08-17T11:55:27Z</time>
      </trkpt>
      <trkpt lat="48.67647" lon="1.85237">
        <ele>155</ele>
        <time>2013-08-17T11:55:29Z</time>
      </trkpt>
      <trkpt lat="48.67645" lon="1.85236">
        <ele>155</ele>
        <time>2013-08-17T11:55:31Z</time>
      </trkpt>
      <trkpt lat="48.67642" lon="1.85236">
        <ele>155</ele>
        <time>2013-08-17T11:55:33Z</time>
      </trkpt>
      <trkpt lat="48.67639" lon="1.85235">
        <ele>155</ele>
        <time>2013-08-17T11:55:35Z</time>
      </trkpt>
      <trkpt lat="48.67636" lon="1.85234">
        <ele>155</ele>
        <time>2013-08-17T11:55:37Z</time>
      </trkpt>
      <trkpt lat="48.67633" lon="1.85232">
        <ele>155</ele>
        <time>2013-08-17T11:55:39Z</time>
      </trkpt>
      <trkpt lat="48.67629" lon="1.85231">
        <ele>155</ele>
        <time>2013-08-17T11:55:41Z</time>
      </trkpt>
      <trkpt lat="48.67626" lon="1.8523">
        <ele>155</ele>
        <time>2013-08-17T11:55:43Z</time>
      </trkpt>
      <trkpt lat="48.67623" lon="1.85228">
        <ele>155</ele>
        <time>2013-08-17T11:55:45Z</time>
      </trkpt>
      <trkpt lat="48.6762" lon="1.85227">
        <ele>155</ele>
        <time>2013-08-17T11:55:47Z</time>
      </trkpt>
      <trkpt lat="48.67617" lon="1.85226">
        <ele>155</ele>
        <time>2013-08-17T11:55:49Z</time>
      </trkpt>
      <trkpt lat="48.67612" lon="1.85223">
        <ele>155</ele>
        <time>2013-08-17T11:55:52Z</time>
      </trkpt>
      <trkpt lat="48.67608" lon="1.85222">
        <ele>155</ele>
        <time>2013-08-17T11:55:54Z</time>
      </trkpt>
      <trkpt lat="48.67605" lon="1.85222">
        <ele>155</ele>
        <time>2013-08-17T11:55:56Z</time>
      </trkpt>
      <trkpt lat="48.67599" lon="1.85221">
        <ele>155</ele>
        <time>2013-08-17T11:55:59Z</time>
      </trkpt>
      <trkpt lat="48.67596" lon="1.8522">
        <ele>155</ele>
        <time>2013-08-17T11:56:01Z</time>
      </trkpt>
      <trkpt lat="48.67592" lon="1.85219">
        <ele>155</ele>
        <time>2013-08-17T11:56:03Z</time>
      </trkpt>
      <trkpt lat="48.67589" lon="1.85217">
        <ele>156</ele>
        <time>2013-08-17T11:56:05Z</time>
      </trkpt>
      <trkpt lat="48.67584" lon="1.85215">
        <ele>156</ele>
        <time>2013-08-17T11:56:08Z</time>
      </trkpt>
      <trkpt lat="48.67581" lon="1.85213">
        <ele>156</ele>
        <time>2013-08-17T11:56:10Z</time>
      </trkpt>
      <trkpt lat="48.67576" lon="1.85212">
        <ele>156</ele>
        <time>2013-08-17T11:56:13Z</time>
      </trkpt>
      <trkpt lat="48.67573" lon="1.8521">
        <ele>156</ele>
        <time>2013-08-17T11:56:15Z</time>
      </trkpt>
      <trkpt lat="48.6757" lon="1.85209">
        <ele>156</ele>
        <time>2013-08-17T11:56:17Z</time>
      </trkpt>
      <trkpt lat="48.67566" lon="1.85208">
        <ele>156</ele>
        <time>2013-08-17T11:56:19Z</time>
      </trkpt>
      <trkpt lat="48.67563" lon="1.85207">
        <ele>156</ele>
        <time>2013-08-17T11:56:21Z</time>
      </trkpt>
      <trkpt lat="48.6756" lon="1.85206">
        <ele>156</ele>
        <time>2013-08-17T11:56:23Z</time>
      </trkpt>
      <trkpt lat="48.67556" lon="1.85205">
        <ele>156</ele>
        <time>2013-08-17T11:56:25Z</time>
      </trkpt>
      <trkpt lat="48.67554" lon="1.85202">
        <ele>156</ele>
        <time>2013-08-17T11:56:27Z</time>
      </trkpt>
      <trkpt lat="48.67551" lon="1.852">
        <ele>156</ele>
        <time>2013-08-17T11:56:29Z</time>
      </trkpt>
      <trkpt lat="48.67548" lon="1.85199">
        <ele>156</ele>
        <time>2013-08-17T11:56:31Z</time>
      </trkpt>
      <trkpt lat="48.67544" lon="1.85197">
        <ele>156</ele>
        <time>2013-08-17T11:56:33Z</time>
      </trkpt>
      <trkpt lat="48.67541" lon="1.85196">
        <ele>156</ele>
        <time>2013-08-17T11:56:35Z</time>
      </trkpt>
      <trkpt lat="48.67538" lon="1.85195">
        <ele>156</ele>
        <time>2013-08-17T11:56:37Z</time>
      </trkpt>
      <trkpt lat="48.67534" lon="1.85195">
        <ele>156</ele>
        <time>2013-08-17T11:56:39Z</time>
      </trkpt>
      <trkpt lat="48.67531" lon="1.85194">
        <ele>156</ele>
        <time>2013-08-17T11:56:41Z</time>
      </trkpt>
      <trkpt lat="48.67527" lon="1.85193">
        <ele>156</ele>
        <time>2013-08-17T11:56:43Z</time>
      </trkpt>
      <trkpt lat="48.67524" lon="1.85191">
        <ele>156</ele>
        <time>2013-08-17T11:56:45Z</time>
      </trkpt>
      <trkpt lat="48.6752" lon="1.85191">
        <ele>156</ele>
        <time>2013-08-17T11:56:47Z</time>
      </trkpt>
      <trkpt lat="48.67517" lon="1.8519">
        <ele>156</ele>
        <time>2013-08-17T11:56:49Z</time>
      </trkpt>
      <trkpt lat="48.67514" lon="1.85188">
        <ele>156</ele>
        <time>2013-08-17T11:56:51Z</time>
      </trkpt>
      <trkpt lat="48.67511" lon="1.85187">
        <ele>157</ele>
        <time>2013-08-17T11:56:53Z</time>
      </trkpt>
      <trkpt lat="48.67507" lon="1.85186">
        <ele>157</ele>
        <time>2013-08-17T11:56:55Z</time>
      </trkpt>
      <trkpt lat="48.67504" lon="1.85184">
        <ele>157</ele>
        <time>2013-08-17T11:56:57Z</time>
      </trkpt>
      <trkpt lat="48.67501" lon="1.85182">
        <ele>157</ele>
        <time>2013-08-17T11:56:59Z</time>
      </trkpt>
      <trkpt lat="48.67498" lon="1.8518">
        <ele>157</ele>
        <time>2013-08-17T11:57:01Z</time>
      </trkpt>
      <trkpt lat="48.67495" lon="1.85178">
        <ele>157</ele>
        <time>2013-08-17T11:57:03Z</time>
      </trkpt>
      <trkpt lat="48.67492" lon="1.85177">
        <ele>157</ele>
        <time>2013-08-17T11:57:05Z</time>
      </trkpt>
      <trkpt lat="48.67489" lon="1.85176">
        <ele>157</ele>
        <time>2013-08-17T11:57:07Z</time>
      </trkpt>
      <trkpt lat="48.67483" lon="1.85175">
        <ele>157</ele>
        <time>2013-08-17T11:57:10Z</time>
      </trkpt>
      <trkpt lat="48.67478" lon="1.85173">
        <ele>158</ele>
        <time>2013-08-17T11:57:13Z</time>
      </trkpt>
      <trkpt lat="48.67476" lon="1.85171">
        <ele>158</ele>
        <time>2013-08-17T11:57:15Z</time>
      </trkpt>
      <trkpt lat="48.67476" lon="1.85165">
        <ele>159</ele>
        <time>2013-08-17T11:57:18Z</time>
      </trkpt>
      <trkpt lat="48.67476" lon="1.85158">
        <ele>159</ele>
        <time>2013-08-17T11:57:21Z</time>
      </trkpt>
      <trkpt lat="48.67476" lon="1.85151">
        <ele>159</ele>
        <time>2013-08-17T11:57:24Z</time>
      </trkpt>
      <trkpt lat="48.67476" lon="1.85146">
        <ele>159</ele>
        <time>2013-08-17T11:57:26Z</time>
      </trkpt>
      <trkpt lat="48.67476" lon="1.8514">
        <ele>159</ele>
        <time>2013-08-17T11:57:29Z</time>
      </trkpt>
      <trkpt lat="48.67476" lon="1.85135">
        <ele>159</ele>
        <time>2013-08-17T11:57:31Z</time>
      </trkpt>
      <trkpt lat="48.67476" lon="1.85128">
        <ele>159</ele>
        <time>2013-08-17T11:57:34Z</time>
      </trkpt>
      <trkpt lat="48.67477" lon="1.85122">
        <ele>159</ele>
        <time>2013-08-17T11:57:37Z</time>
      </trkpt>
      <trkpt lat="48.67478" lon="1.85117">
        <ele>159</ele>
        <time>2013-08-17T11:57:39Z</time>
      </trkpt>
      <trkpt lat="48.67478" lon="1.8511">
        <ele>159</ele>
        <time>2013-08-17T11:57:42Z</time>
      </trkpt>
      <trkpt lat="48.67478" lon="1.85105">
        <ele>159</ele>
        <time>2013-08-17T11:57:44Z</time>
      </trkpt>
      <trkpt lat="48.67479" lon="1.851">
        <ele>159</ele>
        <time>2013-08-17T11:57:46Z</time>
      </trkpt>
      <trkpt lat="48.67479" lon="1.85096">
        <ele>159</ele>
        <time>2013-08-17T11:57:48Z</time>
      </trkpt>
      <trkpt lat="48.6748" lon="1.85088">
        <ele>159</ele>
        <time>2013-08-17T11:57:51Z</time>
      </trkpt>
      <trkpt lat="48.67481" lon="1.85083">
        <ele>159</ele>
        <time>2013-08-17T11:57:53Z</time>
      </trkpt>
      <trkpt lat="48.67482" lon="1.85076">
        <ele>159</ele>
        <time>2013-08-17T11:57:56Z</time>
      </trkpt>
      <trkpt lat="48.67482" lon="1.85071">
        <ele>159</ele>
        <time>2013-08-17T11:57:58Z</time>
      </trkpt>
      <trkpt lat="48.67482" lon="1.85067">
        <ele>160</ele>
        <time>2013-08-17T11:58:00Z</time>
      </trkpt>
      <trkpt lat="48.67482" lon="1.85061">
        <ele>160</ele>
        <time>2013-08-17T11:58:03Z</time>
      </trkpt>
      <trkpt lat="48.67482" lon="1.85056">
        <ele>160</ele>
        <time>2013-08-17T11:58:07Z</time>
      </trkpt>
      <trkpt lat="48.6748" lon="1.85056">
        <ele>160</ele>
        <time>2013-08-17T11:58:13Z</time>
      </trkpt>
      <trkpt lat="48.6748" lon="1.85054">
        <ele>160</ele>
        <time>2013-08-17T11:58:18Z</time>
      </trkpt>
      <trkpt lat="48.67481" lon="1.85052">
        <ele>160</ele>
        <time>2013-08-17T11:58:22Z</time>
      </trkpt>
      <trkpt lat="48.67482" lon="1.8505">
        <ele>160</ele>
        <time>2013-08-17T11:58:25Z</time>
      </trkpt>
      <trkpt lat="48.67482" lon="1.85048">
        <ele>160</ele>
        <time>2013-08-17T11:58:27Z</time>
      </trkpt>
      <trkpt lat="48.67484" lon="1.85046">
        <ele>163</ele>
        <time>2013-08-17T11:58:32Z</time>
      </trkpt>
      <trkpt lat="48.67484" lon="1.85044">
        <ele>167</ele>
        <time>2013-08-17T11:58:36Z</time>
      </trkpt>
      <trkpt lat="48.67483" lon="1.85042">
        <ele>171</ele>
        <time>2013-08-17T11:58:40Z</time>
      </trkpt>
      <trkpt lat="48.67483" lon="1.85023">
        <ele>170</ele>
        <time>2013-08-17T11:58:52Z</time>
      </trkpt>
      <trkpt lat="48.67484" lon="1.85014">
        <ele>169</ele>
        <time>2013-08-17T11:58:55Z</time>
      </trkpt>
      <trkpt lat="48.67486" lon="1.85007">
        <ele>169</ele>
        <time>2013-08-17T11:58:58Z</time>
      </trkpt>
      <trkpt lat="48.67485" lon="1.85006">
        <ele>169</ele>
        <time>2013-08-17T11:59:01Z</time>
      </trkpt>
      <trkpt lat="48.67485" lon="1.85008">
        <ele>169</ele>
        <time>2013-08-17T11:59:04Z</time>
      </trkpt>
      <trkpt lat="48.67485" lon="1.8501">
        <ele>168</ele>
        <time>2013-08-17T11:59:08Z</time>
      </trkpt>
      <trkpt lat="48.67484" lon="1.85008">
        <ele>168</ele>
        <time>2013-08-17T11:59:13Z</time>
      </trkpt>
      <trkpt lat="48.67483" lon="1.85006">
        <ele>168</ele>
        <time>2013-08-17T11:59:17Z</time>
      </trkpt>
      <trkpt lat="48.67483" lon="1.85005">
        <ele>168</ele>
        <time>2013-08-17T11:59:23Z</time>
      </trkpt>
      <trkpt lat="48.67485" lon="1.85">
        <ele>168</ele>
        <time>2013-08-17T11:59:27Z</time>
      </trkpt>
      <trkpt lat="48.67485" lon="1.84997">
        <ele>168</ele>
        <time>2013-08-17T11:59:30Z</time>
      </trkpt>
      <trkpt lat="48.67484" lon="1.84997">
        <ele>168</ele>
        <time>2013-08-17T11:59:34Z</time>
      </trkpt>
      <trkpt lat="48.67483" lon="1.84997">
        <ele>168</ele>
        <time>2013-08-17T11:59:39Z</time>
      </trkpt>
      <trkpt lat="48.67482" lon="1.84999">
        <ele>168</ele>
        <time>2013-08-17T11:59:43Z</time>
      </trkpt>
      <trkpt lat="48.6748" lon="1.84999">
        <ele>168</ele>
        <time>2013-08-17T11:59:47Z</time>
      </trkpt>
      <trkpt lat="48.67479" lon="1.85">
        <ele>168</ele>
        <time>2013-08-17T11:59:53Z</time>
      </trkpt>
      <trkpt lat="48.67479" lon="1.84998">
        <ele>166</ele>
        <time>2013-08-17T12:00:02Z</time>
      </trkpt>
      <trkpt lat="48.67478" lon="1.84996">
        <ele>163</ele>
        <time>2013-08-17T12:00:05Z</time>
      </trkpt>
      <trkpt lat="48.67478" lon="1.84994">
        <ele>158</ele>
        <time>2013-08-17T12:00:10Z</time>
      </trkpt>
      <trkpt lat="48.6748" lon="1.84991">
        <ele>158</ele>
        <time>2013-08-17T12:00:14Z</time>
      </trkpt>
      <trkpt lat="48.67481" lon="1.84989">
        <ele>157</ele>
        <time>2013-08-17T12:00:30Z</time>
      </trkpt>
      <trkpt lat="48.67482" lon="1.84982">
        <ele>157</ele>
        <time>2013-08-17T12:00:33Z</time>
      </trkpt>
      <trkpt lat="48.67482" lon="1.84976">
        <ele>157</ele>
        <time>2013-08-17T12:00:35Z</time>
      </trkpt>
      <trkpt lat="48.67483" lon="1.84967">
        <ele>157</ele>
        <time>2013-08-17T12:00:38Z</time>
      </trkpt>
      <trkpt lat="48.67484" lon="1.84962">
        <ele>157</ele>
        <time>2013-08-17T12:00:40Z</time>
      </trkpt>
      <trkpt lat="48.67484" lon="1.84956">
        <ele>157</ele>
        <time>2013-08-17T12:00:43Z</time>
      </trkpt>
      <trkpt lat="48.67486" lon="1.84951">
        <ele>158</ele>
        <time>2013-08-17T12:00:45Z</time>
      </trkpt>
      <trkpt lat="48.67487" lon="1.84944">
        <ele>161</ele>
        <time>2013-08-17T12:00:48Z</time>
      </trkpt>
      <trkpt lat="48.67489" lon="1.84936">
        <ele>164</ele>
        <time>2013-08-17T12:00:51Z</time>
      </trkpt>
      <trkpt lat="48.67489" lon="1.84928">
        <ele>167</ele>
        <time>2013-08-17T12:00:54Z</time>
      </trkpt>
      <trkpt lat="48.67489" lon="1.84923">
        <ele>168</ele>
        <time>2013-08-17T12:00:56Z</time>
      </trkpt>
      <trkpt lat="48.6749" lon="1.84918">
        <ele>169</ele>
        <time>2013-08-17T12:00:58Z</time>
      </trkpt>
      <trkpt lat="48.6749" lon="1.84914">
        <ele>170</ele>
        <time>2013-08-17T12:01:00Z</time>
      </trkpt>
      <trkpt lat="48.67491" lon="1.84909">
        <ele>171</ele>
        <time>2013-08-17T12:01:02Z</time>
      </trkpt>
      <trkpt lat="48.67492" lon="1.84904">
        <ele>172</ele>
        <time>2013-08-17T12:01:04Z</time>
      </trkpt>
      <trkpt lat="48.67493" lon="1.84896">
        <ele>174</ele>
        <time>2013-08-17T12:01:07Z</time>
      </trkpt>
      <trkpt lat="48.67493" lon="1.84891">
        <ele>175</ele>
        <time>2013-08-17T12:01:09Z</time>
      </trkpt>
      <trkpt lat="48.67493" lon="1.84884">
        <ele>176</ele>
        <time>2013-08-17T12:01:12Z</time>
      </trkpt>
      <trkpt lat="48.67494" lon="1.84877">
        <ele>176</ele>
        <time>2013-08-17T12:01:15Z</time>
      </trkpt>
      <trkpt lat="48.67495" lon="1.8487">
        <ele>177</ele>
        <time>2013-08-17T12:01:18Z</time>
      </trkpt>
      <trkpt lat="48.67495" lon="1.84866">
        <ele>177</ele>
        <time>2013-08-17T12:01:20Z</time>
      </trkpt>
      <trkpt lat="48.67496" lon="1.84862">
        <ele>178</ele>
        <time>2013-08-17T12:01:22Z</time>
      </trkpt>
      <trkpt lat="48.67496" lon="1.84855">
        <ele>178</ele>
        <time>2013-08-17T12:01:24Z</time>
      </trkpt>
      <trkpt lat="48.67496" lon="1.84851">
        <ele>179</ele>
        <time>2013-08-17T12:01:26Z</time>
      </trkpt>
      <trkpt lat="48.67496" lon="1.84845">
        <ele>179</ele>
        <time>2013-08-17T12:01:28Z</time>
      </trkpt>
      <trkpt lat="48.67496" lon="1.84841">
        <ele>179</ele>
        <time>2013-08-17T12:01:30Z</time>
      </trkpt>
      <trkpt lat="48.67497" lon="1.84835">
        <ele>179</ele>
        <time>2013-08-17T12:01:32Z</time>
      </trkpt>
      <trkpt lat="48.67496" lon="1.84828">
        <ele>179</ele>
        <time>2013-08-17T12:01:36Z</time>
      </trkpt>
      <trkpt lat="48.67497" lon="1.84824">
        <ele>179</ele>
        <time>2013-08-17T12:01:38Z</time>
      </trkpt>
      <trkpt lat="48.67497" lon="1.84819">
        <ele>178</ele>
        <time>2013-08-17T12:01:40Z</time>
      </trkpt>
      <trkpt lat="48.67498" lon="1.8481">
        <ele>177</ele>
        <time>2013-08-17T12:01:43Z</time>
      </trkpt>
      <trkpt lat="48.67498" lon="1.84805">
        <ele>177</ele>
        <time>2013-08-17T12:01:45Z</time>
      </trkpt>
      <trkpt lat="48.67498" lon="1.84801">
        <ele>177</ele>
        <time>2013-08-17T12:01:48Z</time>
      </trkpt>
      <trkpt lat="48.67497" lon="1.84797">
        <ele>177</ele>
        <time>2013-08-17T12:01:50Z</time>
      </trkpt>
      <trkpt lat="48.67497" lon="1.84792">
        <ele>177</ele>
        <time>2013-08-17T12:01:52Z</time>
      </trkpt>
      <trkpt lat="48.67498" lon="1.84785">
        <ele>176</ele>
        <time>2013-08-17T12:01:55Z</time>
      </trkpt>
      <trkpt lat="48.67497" lon="1.84778">
        <ele>174</ele>
        <time>2013-08-17T12:01:58Z</time>
      </trkpt>
      <trkpt lat="48.67498" lon="1.84773">
        <ele>173</ele>
        <time>2013-08-17T12:02:00Z</time>
      </trkpt>
      <trkpt lat="48.67498" lon="1.84767">
        <ele>172</ele>
        <time>2013-08-17T12:02:03Z</time>
      </trkpt>
      <trkpt lat="48.67498" lon="1.84763">
        <ele>171</ele>
        <time>2013-08-17T12:02:05Z</time>
      </trkpt>
      <trkpt lat="48.67498" lon="1.84756">
        <ele>170</ele>
        <time>2013-08-17T12:02:08Z</time>
      </trkpt>
      <trkpt lat="48.67498" lon="1.84751">
        <ele>170</ele>
        <time>2013-08-17T12:02:10Z</time>
      </trkpt>
      <trkpt lat="48.67499" lon="1.84744">
        <ele>170</ele>
        <time>2013-08-17T12:02:13Z</time>
      </trkpt>
      <trkpt lat="48.675" lon="1.84738">
        <ele>169</ele>
        <time>2013-08-17T12:02:15Z</time>
      </trkpt>
      <trkpt lat="48.675" lon="1.8473">
        <ele>169</ele>
        <time>2013-08-17T12:02:18Z</time>
      </trkpt>
      <trkpt lat="48.67501" lon="1.84725">
        <ele>169</ele>
        <time>2013-08-17T12:02:21Z</time>
      </trkpt>
      <trkpt lat="48.67502" lon="1.84719">
        <ele>169</ele>
        <time>2013-08-17T12:02:24Z</time>
      </trkpt>
      <trkpt lat="48.67503" lon="1.84714">
        <ele>169</ele>
        <time>2013-08-17T12:02:26Z</time>
      </trkpt>
      <trkpt lat="48.67503" lon="1.8471">
        <ele>169</ele>
        <time>2013-08-17T12:02:28Z</time>
      </trkpt>
      <trkpt lat="48.67503" lon="1.84702">
        <ele>169</ele>
        <time>2013-08-17T12:02:31Z</time>
      </trkpt>
      <trkpt lat="48.67503" lon="1.84694">
        <ele>169</ele>
        <time>2013-08-17T12:02:34Z</time>
      </trkpt>
      <trkpt lat="48.67503" lon="1.8469">
        <ele>169</ele>
        <time>2013-08-17T12:02:36Z</time>
      </trkpt>
      <trkpt lat="48.67502" lon="1.84683">
        <ele>169</ele>
        <time>2013-08-17T12:02:39Z</time>
      </trkpt>
      <trkpt lat="48.67502" lon="1.84679">
        <ele>168</ele>
        <time>2013-08-17T12:02:41Z</time>
      </trkpt>
      <trkpt lat="48.67502" lon="1.84675">
        <ele>167</ele>
        <time>2013-08-17T12:02:43Z</time>
      </trkpt>
      <trkpt lat="48.67501" lon="1.84671">
        <ele>166</ele>
        <time>2013-08-17T12:02:45Z</time>
      </trkpt>
      <trkpt lat="48.67501" lon="1.84666">
        <ele>165</ele>
        <time>2013-08-17T12:02:47Z</time>
      </trkpt>
      <trkpt lat="48.67501" lon="1.84659">
        <ele>164</ele>
        <time>2013-08-17T12:02:50Z</time>
      </trkpt>
      <trkpt lat="48.67501" lon="1.84655">
        <ele>164</ele>
        <time>2013-08-17T12:02:52Z</time>
      </trkpt>
      <trkpt lat="48.67502" lon="1.84649">
        <ele>163</ele>
        <time>2013-08-17T12:02:55Z</time>
      </trkpt>
      <trkpt lat="48.67503" lon="1.84645">
        <ele>163</ele>
        <time>2013-08-17T12:02:57Z</time>
      </trkpt>
      <trkpt lat="48.67505" lon="1.8464">
        <ele>163</ele>
        <time>2013-08-17T12:02:59Z</time>
      </trkpt>
      <trkpt lat="48.67505" lon="1.84632">
        <ele>163</ele>
        <time>2013-08-17T12:03:02Z</time>
      </trkpt>
      <trkpt lat="48.67505" lon="1.84625">
        <ele>162</ele>
        <time>2013-08-17T12:03:05Z</time>
      </trkpt>
      <trkpt lat="48.67506" lon="1.84621">
        <ele>162</ele>
        <time>2013-08-17T12:03:07Z</time>
      </trkpt>
      <trkpt lat="48.67507" lon="1.84616">
        <ele>162</ele>
        <time>2013-08-17T12:03:09Z</time>
      </trkpt>
      <trkpt lat="48.67509" lon="1.84614">
        <ele>162</ele>
        <time>2013-08-17T12:03:11Z</time>
      </trkpt>
      <trkpt lat="48.6751" lon="1.8461">
        <ele>162</ele>
        <time>2013-08-17T12:03:13Z</time>
      </trkpt>
      <trkpt lat="48.67511" lon="1.84606">
        <ele>163</ele>
        <time>2013-08-17T12:03:15Z</time>
      </trkpt>
      <trkpt lat="48.67511" lon="1.84597">
        <ele>165</ele>
        <time>2013-08-17T12:03:18Z</time>
      </trkpt>
      <trkpt lat="48.67511" lon="1.8459">
        <ele>168</ele>
        <time>2013-08-17T12:03:21Z</time>
      </trkpt>
      <trkpt lat="48.6751" lon="1.84584">
        <ele>168</ele>
        <time>2013-08-17T12:03:23Z</time>
      </trkpt>
      <trkpt lat="48.6751" lon="1.84577">
        <ele>168</ele>
        <time>2013-08-17T12:03:26Z</time>
      </trkpt>
      <trkpt lat="48.67511" lon="1.84572">
        <ele>170</ele>
        <time>2013-08-17T12:03:28Z</time>
      </trkpt>
      <trkpt lat="48.67511" lon="1.84568">
        <ele>171</ele>
        <time>2013-08-17T12:03:30Z</time>
      </trkpt>
      <trkpt lat="48.67511" lon="1.84564">
        <ele>171</ele>
        <time>2013-08-17T12:03:32Z</time>
      </trkpt>
      <trkpt lat="48.67511" lon="1.84559">
        <ele>171</ele>
        <time>2013-08-17T12:03:34Z</time>
      </trkpt>
      <trkpt lat="48.67514" lon="1.84555">
        <ele>171</ele>
        <time>2013-08-17T12:03:36Z</time>
      </trkpt>
      <trkpt lat="48.67517" lon="1.84552">
        <ele>171</ele>
        <time>2013-08-17T12:03:38Z</time>
      </trkpt>
      <trkpt lat="48.67519" lon="1.84548">
        <ele>171</ele>
        <time>2013-08-17T12:03:40Z</time>
      </trkpt>
      <trkpt lat="48.67522" lon="1.84546">
        <ele>172</ele>
        <time>2013-08-17T12:03:42Z</time>
      </trkpt>
      <trkpt lat="48.67525" lon="1.84543">
        <ele>173</ele>
        <time>2013-08-17T12:03:44Z</time>
      </trkpt>
      <trkpt lat="48.6753" lon="1.8454">
        <ele>175</ele>
        <time>2013-08-17T12:03:47Z</time>
      </trkpt>
      <trkpt lat="48.67535" lon="1.84538">
        <ele>176</ele>
        <time>2013-08-17T12:03:49Z</time>
      </trkpt>
      <trkpt lat="48.67537" lon="1.84538">
        <ele>176</ele>
        <time>2013-08-17T12:03:51Z</time>
      </trkpt>
      <trkpt lat="48.67542" lon="1.84534">
        <ele>177</ele>
        <time>2013-08-17T12:03:54Z</time>
      </trkpt>
      <trkpt lat="48.67545" lon="1.84531">
        <ele>179</ele>
        <time>2013-08-17T12:03:56Z</time>
      </trkpt>
      <trkpt lat="48.67549" lon="1.84528">
        <ele>182</ele>
        <time>2013-08-17T12:03:59Z</time>
      </trkpt>
      <trkpt lat="48.67552" lon="1.84524">
        <ele>183</ele>
        <time>2013-08-17T12:04:01Z</time>
      </trkpt>
      <trkpt lat="48.67555" lon="1.84521">
        <ele>185</ele>
        <time>2013-08-17T12:04:03Z</time>
      </trkpt>
      <trkpt lat="48.67559" lon="1.84518">
        <ele>188</ele>
        <time>2013-08-17T12:04:06Z</time>
      </trkpt>
      <trkpt lat="48.67562" lon="1.84517">
        <ele>190</ele>
        <time>2013-08-17T12:04:08Z</time>
      </trkpt>
      <trkpt lat="48.67566" lon="1.84516">
        <ele>191</ele>
        <time>2013-08-17T12:04:10Z</time>
      </trkpt>
      <trkpt lat="48.6757" lon="1.84515">
        <ele>192</ele>
        <time>2013-08-17T12:04:12Z</time>
      </trkpt>
      <trkpt lat="48.67573" lon="1.84514">
        <ele>193</ele>
        <time>2013-08-17T12:04:15Z</time>
      </trkpt>
      <trkpt lat="48.67576" lon="1.84514">
        <ele>193</ele>
        <time>2013-08-17T12:04:18Z</time>
      </trkpt>
      <trkpt lat="48.67581" lon="1.84514">
        <ele>193</ele>
        <time>2013-08-17T12:04:20Z</time>
      </trkpt>
      <trkpt lat="48.67585" lon="1.84514">
        <ele>193</ele>
        <time>2013-08-17T12:04:23Z</time>
      </trkpt>
      <trkpt lat="48.67588" lon="1.84514">
        <ele>192</ele>
        <time>2013-08-17T12:04:25Z</time>
      </trkpt>
      <trkpt lat="48.67589" lon="1.84513">
        <ele>192</ele>
        <time>2013-08-17T12:04:27Z</time>
      </trkpt>
      <trkpt lat="48.6759" lon="1.84511">
        <ele>192</ele>
        <time>2013-08-17T12:04:29Z</time>
      </trkpt>
      <trkpt lat="48.67595" lon="1.84507">
        <ele>192</ele>
        <time>2013-08-17T12:04:32Z</time>
      </trkpt>
      <trkpt lat="48.67598" lon="1.84503">
        <ele>192</ele>
        <time>2013-08-17T12:04:34Z</time>
      </trkpt>
      <trkpt lat="48.67601" lon="1.845">
        <ele>192</ele>
        <time>2013-08-17T12:04:38Z</time>
      </trkpt>
      <trkpt lat="48.67604" lon="1.84497">
        <ele>191</ele>
        <time>2013-08-17T12:04:40Z</time>
      </trkpt>
      <trkpt lat="48.67607" lon="1.84495">
        <ele>191</ele>
        <time>2013-08-17T12:04:42Z</time>
      </trkpt>
      <trkpt lat="48.6761" lon="1.84493">
        <ele>191</ele>
        <time>2013-08-17T12:04:44Z</time>
      </trkpt>
      <trkpt lat="48.67613" lon="1.84489">
        <ele>191</ele>
        <time>2013-08-17T12:04:47Z</time>
      </trkpt>
      <trkpt lat="48.67616" lon="1.84485">
        <ele>189</ele>
        <time>2013-08-17T12:04:50Z</time>
      </trkpt>
      <trkpt lat="48.6762" lon="1.8448">
        <ele>189</ele>
        <time>2013-08-17T12:04:53Z</time>
      </trkpt>
      <trkpt lat="48.67623" lon="1.84478">
        <ele>189</ele>
        <time>2013-08-17T12:04:55Z</time>
      </trkpt>
      <trkpt lat="48.67625" lon="1.84476">
        <ele>189</ele>
        <time>2013-08-17T12:04:57Z</time>
      </trkpt>
      <trkpt lat="48.67628" lon="1.84472">
        <ele>189</ele>
        <time>2013-08-17T12:04:59Z</time>
      </trkpt>
      <trkpt lat="48.67632" lon="1.84469">
        <ele>189</ele>
        <time>2013-08-17T12:05:02Z</time>
      </trkpt>
      <trkpt lat="48.67635" lon="1.84467">
        <ele>189</ele>
        <time>2013-08-17T12:05:04Z</time>
      </trkpt>
      <trkpt lat="48.67638" lon="1.84466">
        <ele>189</ele>
        <time>2013-08-17T12:05:06Z</time>
      </trkpt>
      <trkpt lat="48.67643" lon="1.84462">
        <ele>189</ele>
        <time>2013-08-17T12:05:10Z</time>
      </trkpt>
      <trkpt lat="48.67647" lon="1.84462">
        <ele>189</ele>
        <time>2013-08-17T12:05:13Z</time>
      </trkpt>
      <trkpt lat="48.67651" lon="1.8446">
        <ele>189</ele>
        <time>2013-08-17T12:05:15Z</time>
      </trkpt>
      <trkpt lat="48.67656" lon="1.84461">
        <ele>190</ele>
        <time>2013-08-17T12:05:17Z</time>
      </trkpt>
      <trkpt lat="48.67659" lon="1.84463">
        <ele>192</ele>
        <time>2013-08-17T12:05:19Z</time>
      </trkpt>
      <trkpt lat="48.67662" lon="1.84465">
        <ele>193</ele>
        <time>2013-08-17T12:05:21Z</time>
      </trkpt>
      <trkpt lat="48.67666" lon="1.84466">
        <ele>193</ele>
        <time>2013-08-17T12:05:23Z</time>
      </trkpt>
      <trkpt lat="48.67669" lon="1.84467">
        <ele>193</ele>
        <time>2013-08-17T12:05:25Z</time>
      </trkpt>
      <trkpt lat="48.67674" lon="1.84471">
        <ele>193</ele>
        <time>2013-08-17T12:05:28Z</time>
      </trkpt>
      <trkpt lat="48.67677" lon="1.84474">
        <ele>193</ele>
        <time>2013-08-17T12:05:30Z</time>
      </trkpt>
      <trkpt lat="48.67681" lon="1.84476">
        <ele>190</ele>
        <time>2013-08-17T12:05:33Z</time>
      </trkpt>
      <trkpt lat="48.67685" lon="1.84478">
        <ele>188</ele>
        <time>2013-08-17T12:05:36Z</time>
      </trkpt>
      <trkpt lat="48.67688" lon="1.8448">
        <ele>186</ele>
        <time>2013-08-17T12:05:38Z</time>
      </trkpt>
      <trkpt lat="48.67691" lon="1.84481">
        <ele>185</ele>
        <time>2013-08-17T12:05:40Z</time>
      </trkpt>
      <trkpt lat="48.67693" lon="1.84482">
        <ele>183</ele>
        <time>2013-08-17T12:05:42Z</time>
      </trkpt>
      <trkpt lat="48.67697" lon="1.84482">
        <ele>181</ele>
        <time>2013-08-17T12:05:44Z</time>
      </trkpt>
      <trkpt lat="48.67702" lon="1.84482">
        <ele>179</ele>
        <time>2013-08-17T12:05:47Z</time>
      </trkpt>
      <trkpt lat="48.67705" lon="1.84483">
        <ele>179</ele>
        <time>2013-08-17T12:05:49Z</time>
      </trkpt>
      <trkpt lat="48.67708" lon="1.84485">
        <ele>178</ele>
        <time>2013-08-17T12:05:51Z</time>
      </trkpt>
      <trkpt lat="48.67712" lon="1.84486">
        <ele>178</ele>
        <time>2013-08-17T12:05:53Z</time>
      </trkpt>
      <trkpt lat="48.67715" lon="1.84486">
        <ele>178</ele>
        <time>2013-08-17T12:05:55Z</time>
      </trkpt>
      <trkpt lat="48.67717" lon="1.84487">
        <ele>178</ele>
        <time>2013-08-17T12:05:57Z</time>
      </trkpt>
      <trkpt lat="48.67721" lon="1.84489">
        <ele>178</ele>
        <time>2013-08-17T12:06:00Z</time>
      </trkpt>
      <trkpt lat="48.67724" lon="1.84491">
        <ele>178</ele>
        <time>2013-08-17T12:06:02Z</time>
      </trkpt>
      <trkpt lat="48.67727" lon="1.84494">
        <ele>177</ele>
        <time>2013-08-17T12:06:04Z</time>
      </trkpt>
      <trkpt lat="48.67729" lon="1.84496">
        <ele>176</ele>
        <time>2013-08-17T12:06:06Z</time>
      </trkpt>
      <trkpt lat="48.67732" lon="1.84501">
        <ele>174</ele>
        <time>2013-08-17T12:06:09Z</time>
      </trkpt>
      <trkpt lat="48.67734" lon="1.84504">
        <ele>172</ele>
        <time>2013-08-17T12:06:11Z</time>
      </trkpt>
      <trkpt lat="48.67737" lon="1.84507">
        <ele>171</ele>
        <time>2013-08-17T12:06:13Z</time>
      </trkpt>
      <trkpt lat="48.67739" lon="1.84511">
        <ele>170</ele>
        <time>2013-08-17T12:06:15Z</time>
      </trkpt>
      <trkpt lat="48.67743" lon="1.84515">
        <ele>169</ele>
        <time>2013-08-17T12:06:18Z</time>
      </trkpt>
      <trkpt lat="48.67746" lon="1.84518">
        <ele>169</ele>
        <time>2013-08-17T12:06:20Z</time>
      </trkpt>
      <trkpt lat="48.67747" lon="1.84521">
        <ele>169</ele>
        <time>2013-08-17T12:06:22Z</time>
      </trkpt>
      <trkpt lat="48.6775" lon="1.84524">
        <ele>169</ele>
        <time>2013-08-17T12:06:24Z</time>
      </trkpt>
      <trkpt lat="48.67752" lon="1.84528">
        <ele>168</ele>
        <time>2013-08-17T12:06:26Z</time>
      </trkpt>
      <trkpt lat="48.67754" lon="1.84531">
        <ele>168</ele>
        <time>2013-08-17T12:06:28Z</time>
      </trkpt>
      <trkpt lat="48.67756" lon="1.84536">
        <ele>168</ele>
        <time>2013-08-17T12:06:30Z</time>
      </trkpt>
      <trkpt lat="48.67759" lon="1.84541">
        <ele>168</ele>
        <time>2013-08-17T12:06:33Z</time>
      </trkpt>
      <trkpt lat="48.67762" lon="1.84546">
        <ele>168</ele>
        <time>2013-08-17T12:06:36Z</time>
      </trkpt>
      <trkpt lat="48.67764" lon="1.8455">
        <ele>168</ele>
        <time>2013-08-17T12:06:38Z</time>
      </trkpt>
      <trkpt lat="48.67765" lon="1.84554">
        <ele>168</ele>
        <time>2013-08-17T12:06:40Z</time>
      </trkpt>
      <trkpt lat="48.67768" lon="1.84557">
        <ele>168</ele>
        <time>2013-08-17T12:06:42Z</time>
      </trkpt>
      <trkpt lat="48.67771" lon="1.84561">
        <ele>168</ele>
        <time>2013-08-17T12:06:45Z</time>
      </trkpt>
      <trkpt lat="48.67774" lon="1.84565">
        <ele>168</ele>
        <time>2013-08-17T12:06:48Z</time>
      </trkpt>
      <trkpt lat="48.67776" lon="1.84569">
        <ele>168</ele>
        <time>2013-08-17T12:06:50Z</time>
      </trkpt>
      <trkpt lat="48.6778" lon="1.84575">
        <ele>168</ele>
        <time>2013-08-17T12:06:53Z</time>
      </trkpt>
      <trkpt lat="48.67781" lon="1.84578">
        <ele>168</ele>
        <time>2013-08-17T12:06:55Z</time>
      </trkpt>
      <trkpt lat="48.67783" lon="1.84584">
        <ele>168</ele>
        <time>2013-08-17T12:06:58Z</time>
      </trkpt>
      <trkpt lat="48.67785" lon="1.84589">
        <ele>169</ele>
        <time>2013-08-17T12:07:00Z</time>
      </trkpt>
      <trkpt lat="48.67786" lon="1.84595">
        <ele>170</ele>
        <time>2013-08-17T12:07:03Z</time>
      </trkpt>
      <trkpt lat="48.67789" lon="1.84602">
        <ele>171</ele>
        <time>2013-08-17T12:07:07Z</time>
      </trkpt>
      <trkpt lat="48.67791" lon="1.84606">
        <ele>172</ele>
        <time>2013-08-17T12:07:09Z</time>
      </trkpt>
      <trkpt lat="48.67793" lon="1.84609">
        <ele>172</ele>
        <time>2013-08-17T12:07:11Z</time>
      </trkpt>
      <trkpt lat="48.67796" lon="1.84614">
        <ele>173</ele>
        <time>2013-08-17T12:07:15Z</time>
      </trkpt>
      <trkpt lat="48.67799" lon="1.84615">
        <ele>173</ele>
        <time>2013-08-17T12:07:17Z</time>
      </trkpt>
      <trkpt lat="48.67802" lon="1.84617">
        <ele>173</ele>
        <time>2013-08-17T12:07:19Z</time>
      </trkpt>
      <trkpt lat="48.67805" lon="1.84618">
        <ele>173</ele>
        <time>2013-08-17T12:07:21Z</time>
      </trkpt>
      <trkpt lat="48.67809" lon="1.84621">
        <ele>173</ele>
        <time>2013-08-17T12:07:23Z</time>
      </trkpt>
      <trkpt lat="48.67813" lon="1.84624">
        <ele>173</ele>
        <time>2013-08-17T12:07:26Z</time>
      </trkpt>
      <trkpt lat="48.67816" lon="1.84624">
        <ele>173</ele>
        <time>2013-08-17T12:07:28Z</time>
      </trkpt>
      <trkpt lat="48.67818" lon="1.84627">
        <ele>174</ele>
        <time>2013-08-17T12:07:30Z</time>
      </trkpt>
      <trkpt lat="48.67821" lon="1.84629">
        <ele>174</ele>
        <time>2013-08-17T12:07:32Z</time>
      </trkpt>
      <trkpt lat="48.67824" lon="1.84631">
        <ele>175</ele>
        <time>2013-08-17T12:07:34Z</time>
      </trkpt>
      <trkpt lat="48.67826" lon="1.84633">
        <ele>175</ele>
        <time>2013-08-17T12:07:36Z</time>
      </trkpt>
      <trkpt lat="48.67829" lon="1.84634">
        <ele>175</ele>
        <time>2013-08-17T12:07:38Z</time>
      </trkpt>
      <trkpt lat="48.67833" lon="1.84637">
        <ele>175</ele>
        <time>2013-08-17T12:07:41Z</time>
      </trkpt>
      <trkpt lat="48.67835" lon="1.84637">
        <ele>175</ele>
        <time>2013-08-17T12:07:43Z</time>
      </trkpt>
      <trkpt lat="48.67837" lon="1.84637">
        <ele>175</ele>
        <time>2013-08-17T12:07:45Z</time>
      </trkpt>
      <trkpt lat="48.6784" lon="1.84636">
        <ele>175</ele>
        <time>2013-08-17T12:07:47Z</time>
      </trkpt>
      <trkpt lat="48.67843" lon="1.84635">
        <ele>175</ele>
        <time>2013-08-17T12:07:49Z</time>
      </trkpt>
      <trkpt lat="48.67846" lon="1.84633">
        <ele>175</ele>
        <time>2013-08-17T12:07:52Z</time>
      </trkpt>
      <trkpt lat="48.67849" lon="1.84632">
        <ele>175</ele>
        <time>2013-08-17T12:07:54Z</time>
      </trkpt>
      <trkpt lat="48.67853" lon="1.8463">
        <ele>175</ele>
        <time>2013-08-17T12:07:56Z</time>
      </trkpt>
      <trkpt lat="48.67855" lon="1.84628">
        <ele>177</ele>
        <time>2013-08-17T12:07:58Z</time>
      </trkpt>
      <trkpt lat="48.67857" lon="1.84622">
        <ele>179</ele>
        <time>2013-08-17T12:08:01Z</time>
      </trkpt>
      <trkpt lat="48.67859" lon="1.84617">
        <ele>180</ele>
        <time>2013-08-17T12:08:04Z</time>
      </trkpt>
      <trkpt lat="48.67861" lon="1.84616">
        <ele>180</ele>
        <time>2013-08-17T12:08:06Z</time>
      </trkpt>
      <trkpt lat="48.67864" lon="1.84617">
        <ele>180</ele>
        <time>2013-08-17T12:08:08Z</time>
      </trkpt>
      <trkpt lat="48.67866" lon="1.84618">
        <ele>180</ele>
        <time>2013-08-17T12:08:10Z</time>
      </trkpt>
      <trkpt lat="48.67871" lon="1.84619">
        <ele>180</ele>
        <time>2013-08-17T12:08:13Z</time>
      </trkpt>
      <trkpt lat="48.67875" lon="1.84619">
        <ele>180</ele>
        <time>2013-08-17T12:08:15Z</time>
      </trkpt>
      <trkpt lat="48.67878" lon="1.84619">
        <ele>180</ele>
        <time>2013-08-17T12:08:17Z</time>
      </trkpt>
      <trkpt lat="48.67881" lon="1.84618">
        <ele>180</ele>
        <time>2013-08-17T12:08:19Z</time>
      </trkpt>
      <trkpt lat="48.67884" lon="1.84617">
        <ele>180</ele>
        <time>2013-08-17T12:08:21Z</time>
      </trkpt>
      <trkpt lat="48.67888" lon="1.84615">
        <ele>180</ele>
        <time>2013-08-17T12:08:23Z</time>
      </trkpt>
      <trkpt lat="48.6789" lon="1.84611">
        <ele>180</ele>
        <time>2013-08-17T12:08:25Z</time>
      </trkpt>
      <trkpt lat="48.67894" lon="1.84611">
        <ele>180</ele>
        <time>2013-08-17T12:08:27Z</time>
      </trkpt>
      <trkpt lat="48.67897" lon="1.8461">
        <ele>180</ele>
        <time>2013-08-17T12:08:29Z</time>
      </trkpt>
      <trkpt lat="48.67901" lon="1.84609">
        <ele>180</ele>
        <time>2013-08-17T12:08:31Z</time>
      </trkpt>
      <trkpt lat="48.67905" lon="1.84607">
        <ele>180</ele>
        <time>2013-08-17T12:08:33Z</time>
      </trkpt>
      <trkpt lat="48.67907" lon="1.84604">
        <ele>181</ele>
        <time>2013-08-17T12:08:35Z</time>
      </trkpt>
      <trkpt lat="48.6791" lon="1.84601">
        <ele>182</ele>
        <time>2013-08-17T12:08:37Z</time>
      </trkpt>
      <trkpt lat="48.67914" lon="1.84597">
        <ele>183</ele>
        <time>2013-08-17T12:08:40Z</time>
      </trkpt>
      <trkpt lat="48.67918" lon="1.84592">
        <ele>184</ele>
        <time>2013-08-17T12:08:43Z</time>
      </trkpt>
      <trkpt lat="48.67921" lon="1.84589">
        <ele>184</ele>
        <time>2013-08-17T12:08:45Z</time>
      </trkpt>
      <trkpt lat="48.67923" lon="1.84586">
        <ele>184</ele>
        <time>2013-08-17T12:08:47Z</time>
      </trkpt>
      <trkpt lat="48.67926" lon="1.84583">
        <ele>184</ele>
        <time>2013-08-17T12:08:49Z</time>
      </trkpt>
      <trkpt lat="48.67928" lon="1.84578">
        <ele>184</ele>
        <time>2013-08-17T12:08:52Z</time>
      </trkpt>
      <trkpt lat="48.6793" lon="1.84575">
        <ele>184</ele>
        <time>2013-08-17T12:08:54Z</time>
      </trkpt>
      <trkpt lat="48.67933" lon="1.84572">
        <ele>184</ele>
        <time>2013-08-17T12:08:57Z</time>
      </trkpt>
      <trkpt lat="48.67938" lon="1.84569">
        <ele>184</ele>
        <time>2013-08-17T12:09:00Z</time>
      </trkpt>
      <trkpt lat="48.67943" lon="1.84565">
        <ele>184</ele>
        <time>2013-08-17T12:09:03Z</time>
      </trkpt>
      <trkpt lat="48.67946" lon="1.84562">
        <ele>184</ele>
        <time>2013-08-17T12:09:05Z</time>
      </trkpt>
      <trkpt lat="48.67949" lon="1.8456">
        <ele>184</ele>
        <time>2013-08-17T12:09:07Z</time>
      </trkpt>
      <trkpt lat="48.67953" lon="1.84558">
        <ele>184</ele>
        <time>2013-08-17T12:09:10Z</time>
      </trkpt>
      <trkpt lat="48.67955" lon="1.84555">
        <ele>184</ele>
        <time>2013-08-17T12:09:12Z</time>
      </trkpt>
      <trkpt lat="48.67958" lon="1.84555">
        <ele>184</ele>
        <time>2013-08-17T12:09:14Z</time>
      </trkpt>
      <trkpt lat="48.67961" lon="1.84554">
        <ele>184</ele>
        <time>2013-08-17T12:09:16Z</time>
      </trkpt>
      <trkpt lat="48.67964" lon="1.84553">
        <ele>184</ele>
        <time>2013-08-17T12:09:18Z</time>
      </trkpt>
      <trkpt lat="48.67969" lon="1.84552">
        <ele>184</ele>
        <time>2013-08-17T12:09:21Z</time>
      </trkpt>
      <trkpt lat="48.67972" lon="1.8455">
        <ele>184</ele>
        <time>2013-08-17T12:09:23Z</time>
      </trkpt>
      <trkpt lat="48.67976" lon="1.84548">
        <ele>184</ele>
        <time>2013-08-17T12:09:25Z</time>
      </trkpt>
      <trkpt lat="48.67979" lon="1.84547">
        <ele>184</ele>
        <time>2013-08-17T12:09:27Z</time>
      </trkpt>
      <trkpt lat="48.67983" lon="1.84546">
        <ele>184</ele>
        <time>2013-08-17T12:09:29Z</time>
      </trkpt>
      <trkpt lat="48.67987" lon="1.84543">
        <ele>184</ele>
        <time>2013-08-17T12:09:31Z</time>
      </trkpt>
      <trkpt lat="48.67991" lon="1.8454">
        <ele>184</ele>
        <time>2013-08-17T12:09:35Z</time>
      </trkpt>
      <trkpt lat="48.67995" lon="1.84534">
        <ele>185</ele>
        <time>2013-08-17T12:09:37Z</time>
      </trkpt>
      <trkpt lat="48.67996" lon="1.84529">
        <ele>187</ele>
        <time>2013-08-17T12:09:39Z</time>
      </trkpt>
      <trkpt lat="48.67998" lon="1.84523">
        <ele>189</ele>
        <time>2013-08-17T12:09:42Z</time>
      </trkpt>
      <trkpt lat="48.68001" lon="1.84519">
        <ele>189</ele>
        <time>2013-08-17T12:09:44Z</time>
      </trkpt>
      <trkpt lat="48.68003" lon="1.84516">
        <ele>189</ele>
        <time>2013-08-17T12:09:46Z</time>
      </trkpt>
      <trkpt lat="48.68005" lon="1.84514">
        <ele>190</ele>
        <time>2013-08-17T12:09:48Z</time>
      </trkpt>
      <trkpt lat="48.6801" lon="1.84508">
        <ele>190</ele>
        <time>2013-08-17T12:09:51Z</time>
      </trkpt>
      <trkpt lat="48.68013" lon="1.84504">
        <ele>190</ele>
        <time>2013-08-17T12:09:53Z</time>
      </trkpt>
      <trkpt lat="48.68016" lon="1.84502">
        <ele>190</ele>
        <time>2013-08-17T12:09:55Z</time>
      </trkpt>
      <trkpt lat="48.68019" lon="1.84498">
        <ele>190</ele>
        <time>2013-08-17T12:09:57Z</time>
      </trkpt>
      <trkpt lat="48.68022" lon="1.84493">
        <ele>190</ele>
        <time>2013-08-17T12:10:00Z</time>
      </trkpt>
      <trkpt lat="48.68024" lon="1.84488">
        <ele>190</ele>
        <time>2013-08-17T12:10:02Z</time>
      </trkpt>
      <trkpt lat="48.68025" lon="1.84479">
        <ele>190</ele>
        <time>2013-08-17T12:10:05Z</time>
      </trkpt>
      <trkpt lat="48.68026" lon="1.84471">
        <ele>190</ele>
        <time>2013-08-17T12:10:08Z</time>
      </trkpt>
      <trkpt lat="48.68027" lon="1.84467">
        <ele>190</ele>
        <time>2013-08-17T12:10:10Z</time>
      </trkpt>
      <trkpt lat="48.68027" lon="1.84461">
        <ele>188</ele>
        <time>2013-08-17T12:10:12Z</time>
      </trkpt>
      <trkpt lat="48.68029" lon="1.84455">
        <ele>186</ele>
        <time>2013-08-17T12:10:15Z</time>
      </trkpt>
      <trkpt lat="48.68031" lon="1.8445">
        <ele>184</ele>
        <time>2013-08-17T12:10:17Z</time>
      </trkpt>
      <trkpt lat="48.68034" lon="1.84445">
        <ele>182</ele>
        <time>2013-08-17T12:10:20Z</time>
      </trkpt>
      <trkpt lat="48.68036" lon="1.84441">
        <ele>181</ele>
        <time>2013-08-17T12:10:22Z</time>
      </trkpt>
      <trkpt lat="48.68038" lon="1.84438">
        <ele>180</ele>
        <time>2013-08-17T12:10:24Z</time>
      </trkpt>
      <trkpt lat="48.6804" lon="1.84433">
        <ele>180</ele>
        <time>2013-08-17T12:10:26Z</time>
      </trkpt>
      <trkpt lat="48.68045" lon="1.84427">
        <ele>180</ele>
        <time>2013-08-17T12:10:29Z</time>
      </trkpt>
      <trkpt lat="48.68047" lon="1.84424">
        <ele>180</ele>
        <time>2013-08-17T12:10:31Z</time>
      </trkpt>
      <trkpt lat="48.6805" lon="1.84422">
        <ele>180</ele>
        <time>2013-08-17T12:10:33Z</time>
      </trkpt>
      <trkpt lat="48.68054" lon="1.84418">
        <ele>180</ele>
        <time>2013-08-17T12:10:36Z</time>
      </trkpt>
      <trkpt lat="48.68057" lon="1.84416">
        <ele>180</ele>
        <time>2013-08-17T12:10:38Z</time>
      </trkpt>
      <trkpt lat="48.6806" lon="1.84413">
        <ele>180</ele>
        <time>2013-08-17T12:10:41Z</time>
      </trkpt>
      <trkpt lat="48.68062" lon="1.8441">
        <ele>180</ele>
        <time>2013-08-17T12:10:43Z</time>
      </trkpt>
      <trkpt lat="48.68067" lon="1.84406">
        <ele>180</ele>
        <time>2013-08-17T12:10:46Z</time>
      </trkpt>
      <trkpt lat="48.68068" lon="1.84402">
        <ele>180</ele>
        <time>2013-08-17T12:10:48Z</time>
      </trkpt>
      <trkpt lat="48.68071" lon="1.84399">
        <ele>180</ele>
        <time>2013-08-17T12:10:50Z</time>
      </trkpt>
      <trkpt lat="48.68074" lon="1.84394">
        <ele>180</ele>
        <time>2013-08-17T12:10:53Z</time>
      </trkpt>
      <trkpt lat="48.68076" lon="1.8439">
        <ele>180</ele>
        <time>2013-08-17T12:10:55Z</time>
      </trkpt>
      <trkpt lat="48.6808" lon="1.84385">
        <ele>180</ele>
        <time>2013-08-17T12:10:58Z</time>
      </trkpt>
      <trkpt lat="48.68084" lon="1.84381">
        <ele>180</ele>
        <time>2013-08-17T12:11:01Z</time>
      </trkpt>
      <trkpt lat="48.68085" lon="1.84377">
        <ele>180</ele>
        <time>2013-08-17T12:11:03Z</time>
      </trkpt>
      <trkpt lat="48.68089" lon="1.84372">
        <ele>180</ele>
        <time>2013-08-17T12:11:06Z</time>
      </trkpt>
      <trkpt lat="48.6809" lon="1.84368">
        <ele>180</ele>
        <time>2013-08-17T12:11:08Z</time>
      </trkpt>
      <trkpt lat="48.68092" lon="1.84366">
        <ele>180</ele>
        <time>2013-08-17T12:11:10Z</time>
      </trkpt>
      <trkpt lat="48.68095" lon="1.84363">
        <ele>180</ele>
        <time>2013-08-17T12:11:12Z</time>
      </trkpt>
      <trkpt lat="48.68098" lon="1.8436">
        <ele>180</ele>
        <time>2013-08-17T12:11:14Z</time>
      </trkpt>
      <trkpt lat="48.68102" lon="1.84356">
        <ele>180</ele>
        <time>2013-08-17T12:11:17Z</time>
      </trkpt>
      <trkpt lat="48.68106" lon="1.84354">
        <ele>180</ele>
        <time>2013-08-17T12:11:20Z</time>
      </trkpt>
      <trkpt lat="48.6811" lon="1.84353">
        <ele>180</ele>
        <time>2013-08-17T12:11:22Z</time>
      </trkpt>
      <trkpt lat="48.68113" lon="1.84352">
        <ele>180</ele>
        <time>2013-08-17T12:11:24Z</time>
      </trkpt>
      <trkpt lat="48.68116" lon="1.84351">
        <ele>180</ele>
        <time>2013-08-17T12:11:26Z</time>
      </trkpt>
      <trkpt lat="48.6812" lon="1.84351">
        <ele>180</ele>
        <time>2013-08-17T12:11:28Z</time>
      </trkpt>
      <trkpt lat="48.68124" lon="1.8435">
        <ele>180</ele>
        <time>2013-08-17T12:11:30Z</time>
      </trkpt>
      <trkpt lat="48.68127" lon="1.84348">
        <ele>180</ele>
        <time>2013-08-17T12:11:32Z</time>
      </trkpt>
      <trkpt lat="48.68131" lon="1.84343">
        <ele>180</ele>
        <time>2013-08-17T12:11:35Z</time>
      </trkpt>
      <trkpt lat="48.68133" lon="1.84339">
        <ele>180</ele>
        <time>2013-08-17T12:11:37Z</time>
      </trkpt>
      <trkpt lat="48.68135" lon="1.84336">
        <ele>180</ele>
        <time>2013-08-17T12:11:39Z</time>
      </trkpt>
      <trkpt lat="48.68138" lon="1.84332">
        <ele>179</ele>
        <time>2013-08-17T12:11:42Z</time>
      </trkpt>
      <trkpt lat="48.6814" lon="1.84327">
        <ele>178</ele>
        <time>2013-08-17T12:11:44Z</time>
      </trkpt>
      <trkpt lat="48.68142" lon="1.84323">
        <ele>177</ele>
        <time>2013-08-17T12:11:46Z</time>
      </trkpt>
      <trkpt lat="48.68144" lon="1.84319">
        <ele>177</ele>
        <time>2013-08-17T12:11:48Z</time>
      </trkpt>
      <trkpt lat="48.68145" lon="1.84315">
        <ele>177</ele>
        <time>2013-08-17T12:11:50Z</time>
      </trkpt>
      <trkpt lat="48.68147" lon="1.84311">
        <ele>176</ele>
        <time>2013-08-17T12:11:52Z</time>
      </trkpt>
      <trkpt lat="48.6815" lon="1.84305">
        <ele>176</ele>
        <time>2013-08-17T12:11:55Z</time>
      </trkpt>
      <trkpt lat="48.68153" lon="1.84302">
        <ele>176</ele>
        <time>2013-08-17T12:11:57Z</time>
      </trkpt>
      <trkpt lat="48.68157" lon="1.843">
        <ele>176</ele>
        <time>2013-08-17T12:12:00Z</time>
      </trkpt>
      <trkpt lat="48.68159" lon="1.84297">
        <ele>176</ele>
        <time>2013-08-17T12:12:02Z</time>
      </trkpt>
      <trkpt lat="48.68162" lon="1.84294">
        <ele>176</ele>
        <time>2013-08-17T12:12:04Z</time>
      </trkpt>
      <trkpt lat="48.68166" lon="1.84289">
        <ele>176</ele>
        <time>2013-08-17T12:12:07Z</time>
      </trkpt>
      <trkpt lat="48.6817" lon="1.84284">
        <ele>176</ele>
        <time>2013-08-17T12:12:10Z</time>
      </trkpt>
      <trkpt lat="48.68172" lon="1.84278">
        <ele>176</ele>
        <time>2013-08-17T12:12:13Z</time>
      </trkpt>
      <trkpt lat="48.68175" lon="1.84273">
        <ele>176</ele>
        <time>2013-08-17T12:12:15Z</time>
      </trkpt>
      <trkpt lat="48.68178" lon="1.84268">
        <ele>176</ele>
        <time>2013-08-17T12:12:18Z</time>
      </trkpt>
      <trkpt lat="48.6818" lon="1.84263">
        <ele>176</ele>
        <time>2013-08-17T12:12:20Z</time>
      </trkpt>
      <trkpt lat="48.68184" lon="1.84257">
        <ele>176</ele>
        <time>2013-08-17T12:12:24Z</time>
      </trkpt>
      <trkpt lat="48.68184" lon="1.84253">
        <ele>176</ele>
        <time>2013-08-17T12:12:26Z</time>
      </trkpt>
      <trkpt lat="48.68183" lon="1.84247">
        <ele>176</ele>
        <time>2013-08-17T12:12:29Z</time>
      </trkpt>
      <trkpt lat="48.68182" lon="1.84245">
        <ele>176</ele>
        <time>2013-08-17T12:12:31Z</time>
      </trkpt>
      <trkpt lat="48.68181" lon="1.84241">
        <ele>175</ele>
        <time>2013-08-17T12:12:36Z</time>
      </trkpt>
      <trkpt lat="48.6818" lon="1.84239">
        <ele>173</ele>
        <time>2013-08-17T12:12:43Z</time>
      </trkpt>
      <trkpt lat="48.68179" lon="1.84236">
        <ele>172</ele>
        <time>2013-08-17T12:12:45Z</time>
      </trkpt>
      <trkpt lat="48.68178" lon="1.84233">
        <ele>171</ele>
        <time>2013-08-17T12:12:47Z</time>
      </trkpt>
      <trkpt lat="48.68176" lon="1.84231">
        <ele>171</ele>
        <time>2013-08-17T12:12:49Z</time>
      </trkpt>
      <trkpt lat="48.68173" lon="1.84231">
        <ele>171</ele>
        <time>2013-08-17T12:12:52Z</time>
      </trkpt>
      <trkpt lat="48.68169" lon="1.84231">
        <ele>171</ele>
        <time>2013-08-17T12:12:54Z</time>
      </trkpt>
      <trkpt lat="48.68166" lon="1.84231">
        <ele>171</ele>
        <time>2013-08-17T12:12:57Z</time>
      </trkpt>
      <trkpt lat="48.68163" lon="1.84231">
        <ele>171</ele>
        <time>2013-08-17T12:12:59Z</time>
      </trkpt>
      <trkpt lat="48.6816" lon="1.84231">
        <ele>171</ele>
        <time>2013-08-17T12:13:01Z</time>
      </trkpt>
      <trkpt lat="48.68157" lon="1.84232">
        <ele>171</ele>
        <time>2013-08-17T12:13:03Z</time>
      </trkpt>
      <trkpt lat="48.68155" lon="1.84233">
        <ele>171</ele>
        <time>2013-08-17T12:13:05Z</time>
      </trkpt>
      <trkpt lat="48.6815" lon="1.84234">
        <ele>171</ele>
        <time>2013-08-17T12:13:08Z</time>
      </trkpt>
      <trkpt lat="48.68147" lon="1.84234">
        <ele>171</ele>
        <time>2013-08-17T12:13:10Z</time>
      </trkpt>
      <trkpt lat="48.68143" lon="1.84234">
        <ele>171</ele>
        <time>2013-08-17T12:13:13Z</time>
      </trkpt>
      <trkpt lat="48.68139" lon="1.84234">
        <ele>171</ele>
        <time>2013-08-17T12:13:16Z</time>
      </trkpt>
      <trkpt lat="48.68135" lon="1.84235">
        <ele>171</ele>
        <time>2013-08-17T12:13:18Z</time>
      </trkpt>
      <trkpt lat="48.68132" lon="1.84235">
        <ele>171</ele>
        <time>2013-08-17T12:13:20Z</time>
      </trkpt>
      <trkpt lat="48.68129" lon="1.84236">
        <ele>171</ele>
        <time>2013-08-17T12:13:22Z</time>
      </trkpt>
      <trkpt lat="48.68126" lon="1.84237">
        <ele>171</ele>
        <time>2013-08-17T12:13:24Z</time>
      </trkpt>
      <trkpt lat="48.68124" lon="1.84237">
        <ele>171</ele>
        <time>2013-08-17T12:13:26Z</time>
      </trkpt>
      <trkpt lat="48.68121" lon="1.84237">
        <ele>171</ele>
        <time>2013-08-17T12:13:28Z</time>
      </trkpt>
      <trkpt lat="48.68119" lon="1.84238">
        <ele>171</ele>
        <time>2013-08-17T12:13:30Z</time>
      </trkpt>
      <trkpt lat="48.68116" lon="1.84238">
        <ele>171</ele>
        <time>2013-08-17T12:13:32Z</time>
      </trkpt>
      <trkpt lat="48.68114" lon="1.84238">
        <ele>171</ele>
        <time>2013-08-17T12:13:34Z</time>
      </trkpt>
      <trkpt lat="48.6811" lon="1.84237">
        <ele>171</ele>
        <time>2013-08-17T12:13:37Z</time>
      </trkpt>
      <trkpt lat="48.68107" lon="1.84239">
        <ele>171</ele>
        <time>2013-08-17T12:13:39Z</time>
      </trkpt>
      <trkpt lat="48.68104" lon="1.84239">
        <ele>171</ele>
        <time>2013-08-17T12:13:41Z</time>
      </trkpt>
      <trkpt lat="48.68101" lon="1.8424">
        <ele>171</ele>
        <time>2013-08-17T12:13:43Z</time>
      </trkpt>
      <trkpt lat="48.68098" lon="1.8424">
        <ele>171</ele>
        <time>2013-08-17T12:13:45Z</time>
      </trkpt>
      <trkpt lat="48.68095" lon="1.8424">
        <ele>171</ele>
        <time>2013-08-17T12:13:48Z</time>
      </trkpt>
      <trkpt lat="48.68091" lon="1.8424">
        <ele>171</ele>
        <time>2013-08-17T12:13:51Z</time>
      </trkpt>
      <trkpt lat="48.68088" lon="1.8424">
        <ele>171</ele>
        <time>2013-08-17T12:13:53Z</time>
      </trkpt>
      <trkpt lat="48.68084" lon="1.84241">
        <ele>171</ele>
        <time>2013-08-17T12:13:56Z</time>
      </trkpt>
      <trkpt lat="48.68082" lon="1.84241">
        <ele>171</ele>
        <time>2013-08-17T12:13:58Z</time>
      </trkpt>
      <trkpt lat="48.68078" lon="1.8424">
        <ele>171</ele>
        <time>2013-08-17T12:14:01Z</time>
      </trkpt>
      <trkpt lat="48.68073" lon="1.84241">
        <ele>171</ele>
        <time>2013-08-17T12:14:04Z</time>
      </trkpt>
      <trkpt lat="48.68068" lon="1.8424">
        <ele>171</ele>
        <time>2013-08-17T12:14:07Z</time>
      </trkpt>
      <trkpt lat="48.68066" lon="1.84239">
        <ele>171</ele>
        <time>2013-08-17T12:14:09Z</time>
      </trkpt>
      <trkpt lat="48.68063" lon="1.84238">
        <ele>171</ele>
        <time>2013-08-17T12:14:11Z</time>
      </trkpt>
      <trkpt lat="48.6806" lon="1.84237">
        <ele>171</ele>
        <time>2013-08-17T12:14:13Z</time>
      </trkpt>
      <trkpt lat="48.68058" lon="1.84234">
        <ele>171</ele>
        <time>2013-08-17T12:14:15Z</time>
      </trkpt>
      <trkpt lat="48.68055" lon="1.84231">
        <ele>171</ele>
        <time>2013-08-17T12:14:17Z</time>
      </trkpt>
      <trkpt lat="48.68054" lon="1.84227">
        <ele>171</ele>
        <time>2013-08-17T12:14:19Z</time>
      </trkpt>
      <trkpt lat="48.68052" lon="1.84223">
        <ele>171</ele>
        <time>2013-08-17T12:14:21Z</time>
      </trkpt>
      <trkpt lat="48.68051" lon="1.84219">
        <ele>171</ele>
        <time>2013-08-17T12:14:23Z</time>
      </trkpt>
      <trkpt lat="48.6805" lon="1.84214">
        <ele>172</ele>
        <time>2013-08-17T12:14:25Z</time>
      </trkpt>
      <trkpt lat="48.68048" lon="1.84211">
        <ele>172</ele>
        <time>2013-08-17T12:14:27Z</time>
      </trkpt>
      <trkpt lat="48.68047" lon="1.84204">
        <ele>172</ele>
        <time>2013-08-17T12:14:30Z</time>
      </trkpt>
      <trkpt lat="48.68045" lon="1.842">
        <ele>173</ele>
        <time>2013-08-17T12:14:32Z</time>
      </trkpt>
      <trkpt lat="48.68045" lon="1.84195">
        <ele>173</ele>
        <time>2013-08-17T12:14:34Z</time>
      </trkpt>
      <trkpt lat="48.68044" lon="1.84188">
        <ele>173</ele>
        <time>2013-08-17T12:14:37Z</time>
      </trkpt>
      <trkpt lat="48.68043" lon="1.84182">
        <ele>173</ele>
        <time>2013-08-17T12:14:40Z</time>
      </trkpt>
      <trkpt lat="48.68042" lon="1.84178">
        <ele>173</ele>
        <time>2013-08-17T12:14:42Z</time>
      </trkpt>
      <trkpt lat="48.68042" lon="1.84171">
        <ele>173</ele>
        <time>2013-08-17T12:14:45Z</time>
      </trkpt>
      <trkpt lat="48.68041" lon="1.84167">
        <ele>173</ele>
        <time>2013-08-17T12:14:47Z</time>
      </trkpt>
      <trkpt lat="48.6804" lon="1.84163">
        <ele>173</ele>
        <time>2013-08-17T12:14:49Z</time>
      </trkpt>
      <trkpt lat="48.6804" lon="1.84159">
        <ele>173</ele>
        <time>2013-08-17T12:14:51Z</time>
      </trkpt>
      <trkpt lat="48.68039" lon="1.84152">
        <ele>173</ele>
        <time>2013-08-17T12:14:54Z</time>
      </trkpt>
      <trkpt lat="48.68038" lon="1.84148">
        <ele>173</ele>
        <time>2013-08-17T12:14:56Z</time>
      </trkpt>
      <trkpt lat="48.68038" lon="1.84142">
        <ele>173</ele>
        <time>2013-08-17T12:14:58Z</time>
      </trkpt>
      <trkpt lat="48.68037" lon="1.84136">
        <ele>173</ele>
        <time>2013-08-17T12:15:00Z</time>
      </trkpt>
      <trkpt lat="48.68036" lon="1.84131">
        <ele>173</ele>
        <time>2013-08-17T12:15:02Z</time>
      </trkpt>
      <trkpt lat="48.68035" lon="1.84124">
        <ele>173</ele>
        <time>2013-08-17T12:15:05Z</time>
      </trkpt>
      <trkpt lat="48.68034" lon="1.8412">
        <ele>173</ele>
        <time>2013-08-17T12:15:07Z</time>
      </trkpt>
      <trkpt lat="48.68034" lon="1.84116">
        <ele>173</ele>
        <time>2013-08-17T12:15:09Z</time>
      </trkpt>
      <trkpt lat="48.68034" lon="1.84111">
        <ele>173</ele>
        <time>2013-08-17T12:15:11Z</time>
      </trkpt>
      <trkpt lat="48.68033" lon="1.84104">
        <ele>173</ele>
        <time>2013-08-17T12:15:14Z</time>
      </trkpt>
      <trkpt lat="48.68032" lon="1.84098">
        <ele>174</ele>
        <time>2013-08-17T12:15:17Z</time>
      </trkpt>
      <trkpt lat="48.68032" lon="1.84093">
        <ele>175</ele>
        <time>2013-08-17T12:15:19Z</time>
      </trkpt>
      <trkpt lat="48.68031" lon="1.84086">
        <ele>175</ele>
        <time>2013-08-17T12:15:22Z</time>
      </trkpt>
      <trkpt lat="48.6803" lon="1.84082">
        <ele>175</ele>
        <time>2013-08-17T12:15:24Z</time>
      </trkpt>
      <trkpt lat="48.68029" lon="1.84079">
        <ele>175</ele>
        <time>2013-08-17T12:15:26Z</time>
      </trkpt>
      <trkpt lat="48.68027" lon="1.84073">
        <ele>175</ele>
        <time>2013-08-17T12:15:29Z</time>
      </trkpt>
      <trkpt lat="48.68025" lon="1.84068">
        <ele>175</ele>
        <time>2013-08-17T12:15:32Z</time>
      </trkpt>
      <trkpt lat="48.68021" lon="1.84063">
        <ele>175</ele>
        <time>2013-08-17T12:15:35Z</time>
      </trkpt>
      <trkpt lat="48.68019" lon="1.84061">
        <ele>175</ele>
        <time>2013-08-17T12:15:37Z</time>
      </trkpt>
      <trkpt lat="48.68016" lon="1.84056">
        <ele>175</ele>
        <time>2013-08-17T12:15:40Z</time>
      </trkpt>
      <trkpt lat="48.68013" lon="1.84053">
        <ele>175</ele>
        <time>2013-08-17T12:15:43Z</time>
      </trkpt>
      <trkpt lat="48.6801" lon="1.84052">
        <ele>175</ele>
        <time>2013-08-17T12:15:45Z</time>
      </trkpt>
      <trkpt lat="48.68005" lon="1.84051">
        <ele>175</ele>
        <time>2013-08-17T12:15:48Z</time>
      </trkpt>
      <trkpt lat="48.68002" lon="1.8405">
        <ele>175</ele>
        <time>2013-08-17T12:15:50Z</time>
      </trkpt>
      <trkpt lat="48.68" lon="1.8405">
        <ele>175</ele>
        <time>2013-08-17T12:15:52Z</time>
      </trkpt>
      <trkpt lat="48.67995" lon="1.8405">
        <ele>175</ele>
        <time>2013-08-17T12:15:55Z</time>
      </trkpt>
      <trkpt lat="48.67992" lon="1.8405">
        <ele>175</ele>
        <time>2013-08-17T12:15:57Z</time>
      </trkpt>
      <trkpt lat="48.67989" lon="1.8405">
        <ele>175</ele>
        <time>2013-08-17T12:15:59Z</time>
      </trkpt>
      <trkpt lat="48.67985" lon="1.84051">
        <ele>175</ele>
        <time>2013-08-17T12:16:02Z</time>
      </trkpt>
      <trkpt lat="48.67983" lon="1.84052">
        <ele>175</ele>
        <time>2013-08-17T12:16:04Z</time>
      </trkpt>
      <trkpt lat="48.6798" lon="1.84053">
        <ele>175</ele>
        <time>2013-08-17T12:16:06Z</time>
      </trkpt>
      <trkpt lat="48.67977" lon="1.84055">
        <ele>175</ele>
        <time>2013-08-17T12:16:08Z</time>
      </trkpt>
      <trkpt lat="48.67974" lon="1.84056">
        <ele>175</ele>
        <time>2013-08-17T12:16:10Z</time>
      </trkpt>
      <trkpt lat="48.67971" lon="1.84058">
        <ele>175</ele>
        <time>2013-08-17T12:16:13Z</time>
      </trkpt>
      <trkpt lat="48.67967" lon="1.8406">
        <ele>175</ele>
        <time>2013-08-17T12:16:16Z</time>
      </trkpt>
      <trkpt lat="48.67965" lon="1.84062">
        <ele>175</ele>
        <time>2013-08-17T12:16:18Z</time>
      </trkpt>
      <trkpt lat="48.67962" lon="1.84063">
        <ele>174</ele>
        <time>2013-08-17T12:16:20Z</time>
      </trkpt>
      <trkpt lat="48.67959" lon="1.84065">
        <ele>174</ele>
        <time>2013-08-17T12:16:22Z</time>
      </trkpt>
      <trkpt lat="48.67954" lon="1.84068">
        <ele>174</ele>
        <time>2013-08-17T12:16:25Z</time>
      </trkpt>
      <trkpt lat="48.6795" lon="1.84071">
        <ele>174</ele>
        <time>2013-08-17T12:16:28Z</time>
      </trkpt>
      <trkpt lat="48.67947" lon="1.84073">
        <ele>174</ele>
        <time>2013-08-17T12:16:30Z</time>
      </trkpt>
      <trkpt lat="48.67942" lon="1.84075">
        <ele>174</ele>
        <time>2013-08-17T12:16:33Z</time>
      </trkpt>
      <trkpt lat="48.67939" lon="1.84077">
        <ele>174</ele>
        <time>2013-08-17T12:16:35Z</time>
      </trkpt>
      <trkpt lat="48.67936" lon="1.84078">
        <ele>174</ele>
        <time>2013-08-17T12:16:37Z</time>
      </trkpt>
      <trkpt lat="48.67931" lon="1.84082">
        <ele>174</ele>
        <time>2013-08-17T12:16:40Z</time>
      </trkpt>
      <trkpt lat="48.67928" lon="1.84083">
        <ele>174</ele>
        <time>2013-08-17T12:16:42Z</time>
      </trkpt>
      <trkpt lat="48.67925" lon="1.84084">
        <ele>174</ele>
        <time>2013-08-17T12:16:44Z</time>
      </trkpt>
      <trkpt lat="48.67921" lon="1.84085">
        <ele>174</ele>
        <time>2013-08-17T12:16:46Z</time>
      </trkpt>
      <trkpt lat="48.67917" lon="1.84087">
        <ele>174</ele>
        <time>2013-08-17T12:16:49Z</time>
      </trkpt>
      <trkpt lat="48.67913" lon="1.84089">
        <ele>174</ele>
        <time>2013-08-17T12:16:51Z</time>
      </trkpt>
      <trkpt lat="48.67909" lon="1.84091">
        <ele>174</ele>
        <time>2013-08-17T12:16:53Z</time>
      </trkpt>
      <trkpt lat="48.67905" lon="1.84092">
        <ele>174</ele>
        <time>2013-08-17T12:16:56Z</time>
      </trkpt>
      <trkpt lat="48.67902" lon="1.84093">
        <ele>173</ele>
        <time>2013-08-17T12:16:58Z</time>
      </trkpt>
      <trkpt lat="48.67899" lon="1.84095">
        <ele>173</ele>
        <time>2013-08-17T12:17:00Z</time>
      </trkpt>
      <trkpt lat="48.67895" lon="1.84095">
        <ele>173</ele>
        <time>2013-08-17T12:17:02Z</time>
      </trkpt>
      <trkpt lat="48.67892" lon="1.84097">
        <ele>173</ele>
        <time>2013-08-17T12:17:04Z</time>
      </trkpt>
      <trkpt lat="48.67887" lon="1.84097">
        <ele>173</ele>
        <time>2013-08-17T12:17:07Z</time>
      </trkpt>
      <trkpt lat="48.67884" lon="1.84097">
        <ele>173</ele>
        <time>2013-08-17T12:17:09Z</time>
      </trkpt>
      <trkpt lat="48.67881" lon="1.84096">
        <ele>173</ele>
        <time>2013-08-17T12:17:11Z</time>
      </trkpt>
      <trkpt lat="48.6788" lon="1.84092">
        <ele>173</ele>
        <time>2013-08-17T12:17:14Z</time>
      </trkpt>
      <trkpt lat="48.67882" lon="1.84089">
        <ele>173</ele>
        <time>2013-08-17T12:17:16Z</time>
      </trkpt>
      <trkpt lat="48.67884" lon="1.84088">
        <ele>173</ele>
        <time>2013-08-17T12:17:18Z</time>
      </trkpt>
      <trkpt lat="48.67887" lon="1.84086">
        <ele>172</ele>
        <time>2013-08-17T12:17:20Z</time>
      </trkpt>
      <trkpt lat="48.6789" lon="1.84078">
        <ele>172</ele>
        <time>2013-08-17T12:17:23Z</time>
      </trkpt>
      <trkpt lat="48.67891" lon="1.84073">
        <ele>172</ele>
        <time>2013-08-17T12:17:25Z</time>
      </trkpt>
      <trkpt lat="48.67891" lon="1.84067">
        <ele>171</ele>
        <time>2013-08-17T12:17:27Z</time>
      </trkpt>
      <trkpt lat="48.67892" lon="1.84062">
        <ele>171</ele>
        <time>2013-08-17T12:17:29Z</time>
      </trkpt>
      <trkpt lat="48.67892" lon="1.84056">
        <ele>170</ele>
        <time>2013-08-17T12:17:31Z</time>
      </trkpt>
      <trkpt lat="48.67892" lon="1.84051">
        <ele>170</ele>
        <time>2013-08-17T12:17:33Z</time>
      </trkpt>
      <trkpt lat="48.67892" lon="1.84042">
        <ele>169</ele>
        <time>2013-08-17T12:17:36Z</time>
      </trkpt>
      <trkpt lat="48.67892" lon="1.84037">
        <ele>169</ele>
        <time>2013-08-17T12:17:38Z</time>
      </trkpt>
      <trkpt lat="48.67892" lon="1.84029">
        <ele>169</ele>
        <time>2013-08-17T12:17:41Z</time>
      </trkpt>
      <trkpt lat="48.67892" lon="1.84021">
        <ele>168</ele>
        <time>2013-08-17T12:17:44Z</time>
      </trkpt>
      <trkpt lat="48.67893" lon="1.84015">
        <ele>168</ele>
        <time>2013-08-17T12:17:46Z</time>
      </trkpt>
      <trkpt lat="48.67894" lon="1.84008">
        <ele>168</ele>
        <time>2013-08-17T12:17:49Z</time>
      </trkpt>
      <trkpt lat="48.67894" lon="1.84004">
        <ele>168</ele>
        <time>2013-08-17T12:17:51Z</time>
      </trkpt>
      <trkpt lat="48.67893" lon="1.84">
        <ele>168</ele>
        <time>2013-08-17T12:17:53Z</time>
      </trkpt>
      <trkpt lat="48.67892" lon="1.83995">
        <ele>168</ele>
        <time>2013-08-17T12:17:56Z</time>
      </trkpt>
      <trkpt lat="48.6789" lon="1.83992">
        <ele>166</ele>
        <time>2013-08-17T12:17:58Z</time>
      </trkpt>
      <trkpt lat="48.67889" lon="1.83989">
        <ele>165</ele>
        <time>2013-08-17T12:18:00Z</time>
      </trkpt>
      <trkpt lat="48.67886" lon="1.83984">
        <ele>163</ele>
        <time>2013-08-17T12:18:03Z</time>
      </trkpt>
      <trkpt lat="48.67884" lon="1.83981">
        <ele>162</ele>
        <time>2013-08-17T12:18:05Z</time>
      </trkpt>
      <trkpt lat="48.67882" lon="1.83976">
        <ele>161</ele>
        <time>2013-08-17T12:18:07Z</time>
      </trkpt>
      <trkpt lat="48.67881" lon="1.83972">
        <ele>161</ele>
        <time>2013-08-17T12:18:09Z</time>
      </trkpt>
      <trkpt lat="48.67878" lon="1.83967">
        <ele>161</ele>
        <time>2013-08-17T12:18:12Z</time>
      </trkpt>
      <trkpt lat="48.67876" lon="1.83964">
        <ele>161</ele>
        <time>2013-08-17T12:18:14Z</time>
      </trkpt>
      <trkpt lat="48.67874" lon="1.8396">
        <ele>161</ele>
        <time>2013-08-17T12:18:16Z</time>
      </trkpt>
      <trkpt lat="48.6787" lon="1.83953">
        <ele>161</ele>
        <time>2013-08-17T12:18:20Z</time>
      </trkpt>
      <trkpt lat="48.67868" lon="1.8395">
        <ele>161</ele>
        <time>2013-08-17T12:18:22Z</time>
      </trkpt>
      <trkpt lat="48.67865" lon="1.83948">
        <ele>161</ele>
        <time>2013-08-17T12:18:24Z</time>
      </trkpt>
      <trkpt lat="48.67862" lon="1.83944">
        <ele>162</ele>
        <time>2013-08-17T12:18:27Z</time>
      </trkpt>
      <trkpt lat="48.67859" lon="1.83941">
        <ele>162</ele>
        <time>2013-08-17T12:18:29Z</time>
      </trkpt>
      <trkpt lat="48.67857" lon="1.83938">
        <ele>162</ele>
        <time>2013-08-17T12:18:31Z</time>
      </trkpt>
      <trkpt lat="48.67854" lon="1.83933">
        <ele>162</ele>
        <time>2013-08-17T12:18:34Z</time>
      </trkpt>
      <trkpt lat="48.67851" lon="1.8393">
        <ele>162</ele>
        <time>2013-08-17T12:18:36Z</time>
      </trkpt>
      <trkpt lat="48.67849" lon="1.83926">
        <ele>162</ele>
        <time>2013-08-17T12:18:38Z</time>
      </trkpt>
      <trkpt lat="48.67847" lon="1.83922">
        <ele>162</ele>
        <time>2013-08-17T12:18:40Z</time>
      </trkpt>
      <trkpt lat="48.67845" lon="1.83919">
        <ele>162</ele>
        <time>2013-08-17T12:18:42Z</time>
      </trkpt>
      <trkpt lat="48.67842" lon="1.83914">
        <ele>162</ele>
        <time>2013-08-17T12:18:45Z</time>
      </trkpt>
      <trkpt lat="48.67838" lon="1.8391">
        <ele>162</ele>
        <time>2013-08-17T12:18:48Z</time>
      </trkpt>
      <trkpt lat="48.67835" lon="1.83907">
        <ele>162</ele>
        <time>2013-08-17T12:18:50Z</time>
      </trkpt>
      <trkpt lat="48.67832" lon="1.83903">
        <ele>162</ele>
        <time>2013-08-17T12:18:53Z</time>
      </trkpt>
      <trkpt lat="48.6783" lon="1.83899">
        <ele>162</ele>
        <time>2013-08-17T12:18:55Z</time>
      </trkpt>
      <trkpt lat="48.67826" lon="1.83893">
        <ele>162</ele>
        <time>2013-08-17T12:18:58Z</time>
      </trkpt>
      <trkpt lat="48.67824" lon="1.8389">
        <ele>162</ele>
        <time>2013-08-17T12:19:00Z</time>
      </trkpt>
      <trkpt lat="48.67822" lon="1.83886">
        <ele>162</ele>
        <time>2013-08-17T12:19:02Z</time>
      </trkpt>
      <trkpt lat="48.67817" lon="1.83883">
        <ele>162</ele>
        <time>2013-08-17T12:19:05Z</time>
      </trkpt>
      <trkpt lat="48.67815" lon="1.83879">
        <ele>162</ele>
        <time>2013-08-17T12:19:07Z</time>
      </trkpt>
      <trkpt lat="48.67812" lon="1.83876">
        <ele>162</ele>
        <time>2013-08-17T12:19:09Z</time>
      </trkpt>
      <trkpt lat="48.6781" lon="1.83873">
        <ele>162</ele>
        <time>2013-08-17T12:19:11Z</time>
      </trkpt>
      <trkpt lat="48.67808" lon="1.8387">
        <ele>162</ele>
        <time>2013-08-17T12:19:13Z</time>
      </trkpt>
      <trkpt lat="48.67805" lon="1.83865">
        <ele>162</ele>
        <time>2013-08-17T12:19:16Z</time>
      </trkpt>
      <trkpt lat="48.67803" lon="1.83862">
        <ele>162</ele>
        <time>2013-08-17T12:19:18Z</time>
      </trkpt>
      <trkpt lat="48.67801" lon="1.83858">
        <ele>162</ele>
        <time>2013-08-17T12:19:20Z</time>
      </trkpt>
      <trkpt lat="48.67799" lon="1.83855">
        <ele>162</ele>
        <time>2013-08-17T12:19:22Z</time>
      </trkpt>
      <trkpt lat="48.67795" lon="1.8385">
        <ele>162</ele>
        <time>2013-08-17T12:19:25Z</time>
      </trkpt>
      <trkpt lat="48.67791" lon="1.83846">
        <ele>162</ele>
        <time>2013-08-17T12:19:28Z</time>
      </trkpt>
      <trkpt lat="48.67789" lon="1.83842">
        <ele>162</ele>
        <time>2013-08-17T12:19:30Z</time>
      </trkpt>
      <trkpt lat="48.67787" lon="1.83835">
        <ele>162</ele>
        <time>2013-08-17T12:19:33Z</time>
      </trkpt>
      <trkpt lat="48.67786" lon="1.83828">
        <ele>163</ele>
        <time>2013-08-17T12:19:36Z</time>
      </trkpt>
      <trkpt lat="48.67785" lon="1.83822">
        <ele>163</ele>
        <time>2013-08-17T12:19:39Z</time>
      </trkpt>
      <trkpt lat="48.67785" lon="1.83819">
        <ele>163</ele>
        <time>2013-08-17T12:19:41Z</time>
      </trkpt>
      <trkpt lat="48.67784" lon="1.83811">
        <ele>163</ele>
        <time>2013-08-17T12:19:44Z</time>
      </trkpt>
      <trkpt lat="48.67783" lon="1.83805">
        <ele>163</ele>
        <time>2013-08-17T12:19:46Z</time>
      </trkpt>
      <trkpt lat="48.67782" lon="1.83797">
        <ele>164</ele>
        <time>2013-08-17T12:19:49Z</time>
      </trkpt>
      <trkpt lat="48.67781" lon="1.83789">
        <ele>164</ele>
        <time>2013-08-17T12:19:52Z</time>
      </trkpt>
      <trkpt lat="48.67781" lon="1.83784">
        <ele>164</ele>
        <time>2013-08-17T12:19:54Z</time>
      </trkpt>
      <trkpt lat="48.6778" lon="1.83779">
        <ele>164</ele>
        <time>2013-08-17T12:19:56Z</time>
      </trkpt>
      <trkpt lat="48.67778" lon="1.83774">
        <ele>164</ele>
        <time>2013-08-17T12:19:58Z</time>
      </trkpt>
      <trkpt lat="48.67778" lon="1.83769">
        <ele>164</ele>
        <time>2013-08-17T12:20:00Z</time>
      </trkpt>
      <trkpt lat="48.67777" lon="1.83763">
        <ele>164</ele>
        <time>2013-08-17T12:20:03Z</time>
      </trkpt>
      <trkpt lat="48.67776" lon="1.83758">
        <ele>164</ele>
        <time>2013-08-17T12:20:05Z</time>
      </trkpt>
      <trkpt lat="48.67776" lon="1.8375">
        <ele>164</ele>
        <time>2013-08-17T12:20:08Z</time>
      </trkpt>
      <trkpt lat="48.67775" lon="1.83746">
        <ele>164</ele>
        <time>2013-08-17T12:20:10Z</time>
      </trkpt>
      <trkpt lat="48.67775" lon="1.83741">
        <ele>164</ele>
        <time>2013-08-17T12:20:12Z</time>
      </trkpt>
      <trkpt lat="48.67775" lon="1.83737">
        <ele>164</ele>
        <time>2013-08-17T12:20:14Z</time>
      </trkpt>
      <trkpt lat="48.67774" lon="1.83733">
        <ele>164</ele>
        <time>2013-08-17T12:20:16Z</time>
      </trkpt>
      <trkpt lat="48.67774" lon="1.83729">
        <ele>164</ele>
        <time>2013-08-17T12:20:18Z</time>
      </trkpt>
      <trkpt lat="48.67773" lon="1.83721">
        <ele>164</ele>
        <time>2013-08-17T12:20:21Z</time>
      </trkpt>
      <trkpt lat="48.67773" lon="1.83715">
        <ele>164</ele>
        <time>2013-08-17T12:20:24Z</time>
      </trkpt>
      <trkpt lat="48.67772" lon="1.8371">
        <ele>164</ele>
        <time>2013-08-17T12:20:26Z</time>
      </trkpt>
      <trkpt lat="48.67771" lon="1.83706">
        <ele>164</ele>
        <time>2013-08-17T12:20:28Z</time>
      </trkpt>
      <trkpt lat="48.67771" lon="1.837">
        <ele>164</ele>
        <time>2013-08-17T12:20:30Z</time>
      </trkpt>
      <trkpt lat="48.6777" lon="1.83694">
        <ele>164</ele>
        <time>2013-08-17T12:20:32Z</time>
      </trkpt>
      <trkpt lat="48.6777" lon="1.83689">
        <ele>164</ele>
        <time>2013-08-17T12:20:34Z</time>
      </trkpt>
      <trkpt lat="48.67769" lon="1.83684">
        <ele>164</ele>
        <time>2013-08-17T12:20:36Z</time>
      </trkpt>
      <trkpt lat="48.67769" lon="1.83679">
        <ele>164</ele>
        <time>2013-08-17T12:20:38Z</time>
      </trkpt>
      <trkpt lat="48.67768" lon="1.83672">
        <ele>164</ele>
        <time>2013-08-17T12:20:41Z</time>
      </trkpt>
      <trkpt lat="48.67767" lon="1.83667">
        <ele>164</ele>
        <time>2013-08-17T12:20:43Z</time>
      </trkpt>
      <trkpt lat="48.67767" lon="1.83657">
        <ele>164</ele>
        <time>2013-08-17T12:20:46Z</time>
      </trkpt>
      <trkpt lat="48.67767" lon="1.83649">
        <ele>164</ele>
        <time>2013-08-17T12:20:48Z</time>
      </trkpt>
      <trkpt lat="48.67766" lon="1.83641">
        <ele>164</ele>
        <time>2013-08-17T12:20:50Z</time>
      </trkpt>
      <trkpt lat="48.67764" lon="1.8363">
        <ele>164</ele>
        <time>2013-08-17T12:20:52Z</time>
      </trkpt>
      <trkpt lat="48.67762" lon="1.83618">
        <ele>164</ele>
        <time>2013-08-17T12:20:54Z</time>
      </trkpt>
      <trkpt lat="48.6776" lon="1.83608">
        <ele>164</ele>
        <time>2013-08-17T12:20:56Z</time>
      </trkpt>
      <trkpt lat="48.67759" lon="1.83591">
        <ele>164</ele>
        <time>2013-08-17T12:20:59Z</time>
      </trkpt>
      <trkpt lat="48.67757" lon="1.83579">
        <ele>164</ele>
        <time>2013-08-17T12:21:01Z</time>
      </trkpt>
      <trkpt lat="48.67754" lon="1.83561">
        <ele>164</ele>
        <time>2013-08-17T12:21:04Z</time>
      </trkpt>
      <trkpt lat="48.67753" lon="1.83546">
        <ele>164</ele>
        <time>2013-08-17T12:21:06Z</time>
      </trkpt>
      <trkpt lat="48.6775" lon="1.83525">
        <ele>164</ele>
        <time>2013-08-17T12:21:09Z</time>
      </trkpt>
      <trkpt lat="48.67749" lon="1.83512">
        <ele>165</ele>
        <time>2013-08-17T12:21:11Z</time>
      </trkpt>
      <trkpt lat="48.67749" lon="1.83498">
        <ele>167</ele>
        <time>2013-08-17T12:21:13Z</time>
      </trkpt>
      <trkpt lat="48.67747" lon="1.83472">
        <ele>169</ele>
        <time>2013-08-17T12:21:16Z</time>
      </trkpt>
      <trkpt lat="48.67743" lon="1.83438">
        <ele>169</ele>
        <time>2013-08-17T12:21:19Z</time>
      </trkpt>
      <trkpt lat="48.67741" lon="1.83415">
        <ele>169</ele>
        <time>2013-08-17T12:21:21Z</time>
      </trkpt>
      <trkpt lat="48.67738" lon="1.83389">
        <ele>169</ele>
        <time>2013-08-17T12:21:23Z</time>
      </trkpt>
      <trkpt lat="48.67733" lon="1.83348">
        <ele>169</ele>
        <time>2013-08-17T12:21:26Z</time>
      </trkpt>
      <trkpt lat="48.67729" lon="1.83311">
        <ele>169</ele>
        <time>2013-08-17T12:21:29Z</time>
      </trkpt>
      <trkpt lat="48.67727" lon="1.83288">
        <ele>169</ele>
        <time>2013-08-17T12:21:31Z</time>
      </trkpt>
      <trkpt lat="48.67724" lon="1.83258">
        <ele>169</ele>
        <time>2013-08-17T12:21:34Z</time>
      </trkpt>
      <trkpt lat="48.67722" lon="1.83239">
        <ele>169</ele>
        <time>2013-08-17T12:21:36Z</time>
      </trkpt>
      <trkpt lat="48.6772" lon="1.83219">
        <ele>169</ele>
        <time>2013-08-17T12:21:38Z</time>
      </trkpt>
      <trkpt lat="48.67718" lon="1.83197">
        <ele>168</ele>
        <time>2013-08-17T12:21:40Z</time>
      </trkpt>
      <trkpt lat="48.67714" lon="1.83161">
        <ele>168</ele>
        <time>2013-08-17T12:21:43Z</time>
      </trkpt>
      <trkpt lat="48.67711" lon="1.83137">
        <ele>168</ele>
        <time>2013-08-17T12:21:45Z</time>
      </trkpt>
      <trkpt lat="48.67707" lon="1.83101">
        <ele>168</ele>
        <time>2013-08-17T12:21:48Z</time>
      </trkpt>
      <trkpt lat="48.67704" lon="1.83069">
        <ele>168</ele>
        <time>2013-08-17T12:21:51Z</time>
      </trkpt>
      <trkpt lat="48.67701" lon="1.83046">
        <ele>168</ele>
        <time>2013-08-17T12:21:53Z</time>
      </trkpt>
      <trkpt lat="48.67698" lon="1.83016">
        <ele>168</ele>
        <time>2013-08-17T12:21:56Z</time>
      </trkpt>
      <trkpt lat="48.67695" lon="1.82984">
        <ele>168</ele>
        <time>2013-08-17T12:21:59Z</time>
      </trkpt>
      <trkpt lat="48.67692" lon="1.82956">
        <ele>168</ele>
        <time>2013-08-17T12:22:02Z</time>
      </trkpt>
      <trkpt lat="48.6769" lon="1.82938">
        <ele>168</ele>
        <time>2013-08-17T12:22:04Z</time>
      </trkpt>
      <trkpt lat="48.67687" lon="1.8292">
        <ele>168</ele>
        <time>2013-08-17T12:22:06Z</time>
      </trkpt>
      <trkpt lat="48.67685" lon="1.82903">
        <ele>168</ele>
        <time>2013-08-17T12:22:08Z</time>
      </trkpt>
      <trkpt lat="48.67682" lon="1.82873">
        <ele>168</ele>
        <time>2013-08-17T12:22:11Z</time>
      </trkpt>
      <trkpt lat="48.6768" lon="1.82848">
        <ele>168</ele>
        <time>2013-08-17T12:22:13Z</time>
      </trkpt>
      <trkpt lat="48.67674" lon="1.82817">
        <ele>168</ele>
        <time>2013-08-17T12:22:16Z</time>
      </trkpt>
      <trkpt lat="48.67672" lon="1.82801">
        <ele>168</ele>
        <time>2013-08-17T12:22:18Z</time>
      </trkpt>
      <trkpt lat="48.67671" lon="1.82786">
        <ele>168</ele>
        <time>2013-08-17T12:22:20Z</time>
      </trkpt>
      <trkpt lat="48.6767" lon="1.82773">
        <ele>168</ele>
        <time>2013-08-17T12:22:22Z</time>
      </trkpt>
      <trkpt lat="48.67669" lon="1.82758">
        <ele>168</ele>
        <time>2013-08-17T12:22:24Z</time>
      </trkpt>
      <trkpt lat="48.67667" lon="1.8274">
        <ele>168</ele>
        <time>2013-08-17T12:22:26Z</time>
      </trkpt>
      <trkpt lat="48.67667" lon="1.82717">
        <ele>166</ele>
        <time>2013-08-17T12:22:28Z</time>
      </trkpt>
      <trkpt lat="48.67666" lon="1.82692">
        <ele>164</ele>
        <time>2013-08-17T12:22:30Z</time>
      </trkpt>
      <trkpt lat="48.67663" lon="1.82668">
        <ele>162</ele>
        <time>2013-08-17T12:22:32Z</time>
      </trkpt>
      <trkpt lat="48.67658" lon="1.82635">
        <ele>159</ele>
        <time>2013-08-17T12:22:35Z</time>
      </trkpt>
      <trkpt lat="48.67654" lon="1.82607">
        <ele>156</ele>
        <time>2013-08-17T12:22:38Z</time>
      </trkpt>
      <trkpt lat="48.67651" lon="1.82591">
        <ele>154</ele>
        <time>2013-08-17T12:22:40Z</time>
      </trkpt>
      <trkpt lat="48.6765" lon="1.82572">
        <ele>154</ele>
        <time>2013-08-17T12:22:43Z</time>
      </trkpt>
      <trkpt lat="48.67649" lon="1.82563">
        <ele>154</ele>
        <time>2013-08-17T12:22:45Z</time>
      </trkpt>
      <trkpt lat="48.67649" lon="1.82558">
        <ele>154</ele>
        <time>2013-08-17T12:22:47Z</time>
      </trkpt>
      <trkpt lat="48.67648" lon="1.82554">
        <ele>156</ele>
        <time>2013-08-17T12:22:49Z</time>
      </trkpt>
      <trkpt lat="48.67647" lon="1.82551">
        <ele>157</ele>
        <time>2013-08-17T12:22:51Z</time>
      </trkpt>
      <trkpt lat="48.67647" lon="1.82547">
        <ele>157</ele>
        <time>2013-08-17T12:22:53Z</time>
      </trkpt>
      <trkpt lat="48.67646" lon="1.82542">
        <ele>157</ele>
        <time>2013-08-17T12:22:55Z</time>
      </trkpt>
      <trkpt lat="48.67645" lon="1.82534">
        <ele>157</ele>
        <time>2013-08-17T12:22:58Z</time>
      </trkpt>
      <trkpt lat="48.67644" lon="1.82529">
        <ele>157</ele>
        <time>2013-08-17T12:23:00Z</time>
      </trkpt>
      <trkpt lat="48.67643" lon="1.82525">
        <ele>157</ele>
        <time>2013-08-17T12:23:02Z</time>
      </trkpt>
      <trkpt lat="48.67643" lon="1.82518">
        <ele>157</ele>
        <time>2013-08-17T12:23:05Z</time>
      </trkpt>
      <trkpt lat="48.67642" lon="1.82512">
        <ele>157</ele>
        <time>2013-08-17T12:23:07Z</time>
      </trkpt>
      <trkpt lat="48.67642" lon="1.82507">
        <ele>158</ele>
        <time>2013-08-17T12:23:09Z</time>
      </trkpt>
      <trkpt lat="48.67641" lon="1.82503">
        <ele>158</ele>
        <time>2013-08-17T12:23:11Z</time>
      </trkpt>
      <trkpt lat="48.67641" lon="1.82499">
        <ele>158</ele>
        <time>2013-08-17T12:23:13Z</time>
      </trkpt>
      <trkpt lat="48.67641" lon="1.82495">
        <ele>158</ele>
        <time>2013-08-17T12:23:15Z</time>
      </trkpt>
      <trkpt lat="48.67641" lon="1.82492">
        <ele>158</ele>
        <time>2013-08-17T12:23:17Z</time>
      </trkpt>
      <trkpt lat="48.67639" lon="1.82486">
        <ele>158</ele>
        <time>2013-08-17T12:23:19Z</time>
      </trkpt>
      <trkpt lat="48.67638" lon="1.82482">
        <ele>158</ele>
        <time>2013-08-17T12:23:21Z</time>
      </trkpt>
      <trkpt lat="48.67637" lon="1.82478">
        <ele>158</ele>
        <time>2013-08-17T12:23:23Z</time>
      </trkpt>
      <trkpt lat="48.67635" lon="1.8247">
        <ele>158</ele>
        <time>2013-08-17T12:23:26Z</time>
      </trkpt>
      <trkpt lat="48.67635" lon="1.82466">
        <ele>158</ele>
        <time>2013-08-17T12:23:28Z</time>
      </trkpt>
      <trkpt lat="48.67634" lon="1.82462">
        <ele>158</ele>
        <time>2013-08-17T12:23:30Z</time>
      </trkpt>
      <trkpt lat="48.67633" lon="1.82457">
        <ele>158</ele>
        <time>2013-08-17T12:23:32Z</time>
      </trkpt>
      <trkpt lat="48.67633" lon="1.82451">
        <ele>158</ele>
        <time>2013-08-17T12:23:34Z</time>
      </trkpt>
      <trkpt lat="48.67632" lon="1.82446">
        <ele>158</ele>
        <time>2013-08-17T12:23:36Z</time>
      </trkpt>
      <trkpt lat="48.6763" lon="1.82438">
        <ele>158</ele>
        <time>2013-08-17T12:23:38Z</time>
      </trkpt>
      <trkpt lat="48.67629" lon="1.82432">
        <ele>158</ele>
        <time>2013-08-17T12:23:40Z</time>
      </trkpt>
      <trkpt lat="48.67628" lon="1.82426">
        <ele>158</ele>
        <time>2013-08-17T12:23:42Z</time>
      </trkpt>
      <trkpt lat="48.67628" lon="1.82422">
        <ele>158</ele>
        <time>2013-08-17T12:23:44Z</time>
      </trkpt>
      <trkpt lat="48.6763" lon="1.82417">
        <ele>158</ele>
        <time>2013-08-17T12:23:46Z</time>
      </trkpt>
      <trkpt lat="48.6763" lon="1.82413">
        <ele>158</ele>
        <time>2013-08-17T12:23:48Z</time>
      </trkpt>
      <trkpt lat="48.6763" lon="1.82408">
        <ele>158</ele>
        <time>2013-08-17T12:23:50Z</time>
      </trkpt>
      <trkpt lat="48.6763" lon="1.82402">
        <ele>158</ele>
        <time>2013-08-17T12:23:52Z</time>
      </trkpt>
      <trkpt lat="48.6763" lon="1.82396">
        <ele>158</ele>
        <time>2013-08-17T12:23:54Z</time>
      </trkpt>
      <trkpt lat="48.67628" lon="1.82389">
        <ele>158</ele>
        <time>2013-08-17T12:23:56Z</time>
      </trkpt>
      <trkpt lat="48.67628" lon="1.82385">
        <ele>158</ele>
        <time>2013-08-17T12:23:58Z</time>
      </trkpt>
      <trkpt lat="48.67627" lon="1.82381">
        <ele>158</ele>
        <time>2013-08-17T12:24:00Z</time>
      </trkpt>
      <trkpt lat="48.67627" lon="1.82376">
        <ele>158</ele>
        <time>2013-08-17T12:24:02Z</time>
      </trkpt>
      <trkpt lat="48.67626" lon="1.8237">
        <ele>158</ele>
        <time>2013-08-17T12:24:04Z</time>
      </trkpt>
      <trkpt lat="48.67625" lon="1.82364">
        <ele>158</ele>
        <time>2013-08-17T12:24:06Z</time>
      </trkpt>
      <trkpt lat="48.67625" lon="1.82357">
        <ele>158</ele>
        <time>2013-08-17T12:24:08Z</time>
      </trkpt>
      <trkpt lat="48.67624" lon="1.82349">
        <ele>158</ele>
        <time>2013-08-17T12:24:11Z</time>
      </trkpt>
      <trkpt lat="48.67623" lon="1.8234">
        <ele>158</ele>
        <time>2013-08-17T12:24:14Z</time>
      </trkpt>
      <trkpt lat="48.67622" lon="1.82333">
        <ele>158</ele>
        <time>2013-08-17T12:24:17Z</time>
      </trkpt>
      <trkpt lat="48.67621" lon="1.82326">
        <ele>158</ele>
        <time>2013-08-17T12:24:19Z</time>
      </trkpt>
      <trkpt lat="48.6762" lon="1.8232">
        <ele>158</ele>
        <time>2013-08-17T12:24:21Z</time>
      </trkpt>
      <trkpt lat="48.6762" lon="1.82313">
        <ele>158</ele>
        <time>2013-08-17T12:24:23Z</time>
      </trkpt>
      <trkpt lat="48.67619" lon="1.82306">
        <ele>158</ele>
        <time>2013-08-17T12:24:25Z</time>
      </trkpt>
      <trkpt lat="48.67619" lon="1.82298">
        <ele>158</ele>
        <time>2013-08-17T12:24:27Z</time>
      </trkpt>
      <trkpt lat="48.67618" lon="1.8229">
        <ele>158</ele>
        <time>2013-08-17T12:24:29Z</time>
      </trkpt>
      <trkpt lat="48.67617" lon="1.82281">
        <ele>158</ele>
        <time>2013-08-17T12:24:31Z</time>
      </trkpt>
      <trkpt lat="48.67616" lon="1.82273">
        <ele>158</ele>
        <time>2013-08-17T12:24:33Z</time>
      </trkpt>
      <trkpt lat="48.67615" lon="1.82264">
        <ele>158</ele>
        <time>2013-08-17T12:24:35Z</time>
      </trkpt>
      <trkpt lat="48.67614" lon="1.82248">
        <ele>158</ele>
        <time>2013-08-17T12:24:38Z</time>
      </trkpt>
      <trkpt lat="48.67611" lon="1.82233">
        <ele>158</ele>
        <time>2013-08-17T12:24:41Z</time>
      </trkpt>
      <trkpt lat="48.6761" lon="1.82223">
        <ele>158</ele>
        <time>2013-08-17T12:24:43Z</time>
      </trkpt>
      <trkpt lat="48.67609" lon="1.82213">
        <ele>159</ele>
        <time>2013-08-17T12:24:45Z</time>
      </trkpt>
      <trkpt lat="48.67608" lon="1.82203">
        <ele>159</ele>
        <time>2013-08-17T12:24:47Z</time>
      </trkpt>
      <trkpt lat="48.67606" lon="1.82191">
        <ele>161</ele>
        <time>2013-08-17T12:24:50Z</time>
      </trkpt>
      <trkpt lat="48.67604" lon="1.82181">
        <ele>162</ele>
        <time>2013-08-17T12:24:52Z</time>
      </trkpt>
      <trkpt lat="48.67603" lon="1.82171">
        <ele>162</ele>
        <time>2013-08-17T12:24:54Z</time>
      </trkpt>
      <trkpt lat="48.67602" lon="1.8216">
        <ele>163</ele>
        <time>2013-08-17T12:24:56Z</time>
      </trkpt>
      <trkpt lat="48.67601" lon="1.82149">
        <ele>164</ele>
        <time>2013-08-17T12:24:58Z</time>
      </trkpt>
      <trkpt lat="48.67599" lon="1.82134">
        <ele>165</ele>
        <time>2013-08-17T12:25:01Z</time>
      </trkpt>
      <trkpt lat="48.67598" lon="1.82123">
        <ele>165</ele>
        <time>2013-08-17T12:25:03Z</time>
      </trkpt>
      <trkpt lat="48.67596" lon="1.82106">
        <ele>165</ele>
        <time>2013-08-17T12:25:06Z</time>
      </trkpt>
      <trkpt lat="48.67595" lon="1.82095">
        <ele>165</ele>
        <time>2013-08-17T12:25:08Z</time>
      </trkpt>
      <trkpt lat="48.67593" lon="1.82078">
        <ele>165</ele>
        <time>2013-08-17T12:25:11Z</time>
      </trkpt>
      <trkpt lat="48.67592" lon="1.82068">
        <ele>165</ele>
        <time>2013-08-17T12:25:13Z</time>
      </trkpt>
      <trkpt lat="48.67591" lon="1.82057">
        <ele>165</ele>
        <time>2013-08-17T12:25:15Z</time>
      </trkpt>
      <trkpt lat="48.6759" lon="1.82047">
        <ele>165</ele>
        <time>2013-08-17T12:25:17Z</time>
      </trkpt>
      <trkpt lat="48.67589" lon="1.8203">
        <ele>165</ele>
        <time>2013-08-17T12:25:20Z</time>
      </trkpt>
      <trkpt lat="48.67587" lon="1.82018">
        <ele>165</ele>
        <time>2013-08-17T12:25:22Z</time>
      </trkpt>
      <trkpt lat="48.67586" lon="1.82006">
        <ele>165</ele>
        <time>2013-08-17T12:25:24Z</time>
      </trkpt>
      <trkpt lat="48.67584" lon="1.81989">
        <ele>165</ele>
        <time>2013-08-17T12:25:27Z</time>
      </trkpt>
      <trkpt lat="48.67582" lon="1.81973">
        <ele>165</ele>
        <time>2013-08-17T12:25:30Z</time>
      </trkpt>
      <trkpt lat="48.67582" lon="1.81962">
        <ele>165</ele>
        <time>2013-08-17T12:25:32Z</time>
      </trkpt>
      <trkpt lat="48.6758" lon="1.81951">
        <ele>165</ele>
        <time>2013-08-17T12:25:34Z</time>
      </trkpt>
      <trkpt lat="48.67579" lon="1.81939">
        <ele>165</ele>
        <time>2013-08-17T12:25:36Z</time>
      </trkpt>
      <trkpt lat="48.67577" lon="1.81921">
        <ele>165</ele>
        <time>2013-08-17T12:25:39Z</time>
      </trkpt>
      <trkpt lat="48.67575" lon="1.81903">
        <ele>165</ele>
        <time>2013-08-17T12:25:42Z</time>
      </trkpt>
      <trkpt lat="48.67574" lon="1.81891">
        <ele>165</ele>
        <time>2013-08-17T12:25:44Z</time>
      </trkpt>
      <trkpt lat="48.67572" lon="1.81879">
        <ele>165</ele>
        <time>2013-08-17T12:25:46Z</time>
      </trkpt>
      <trkpt lat="48.67571" lon="1.81867">
        <ele>165</ele>
        <time>2013-08-17T12:25:48Z</time>
      </trkpt>
      <trkpt lat="48.67569" lon="1.8185">
        <ele>165</ele>
        <time>2013-08-17T12:25:51Z</time>
      </trkpt>
      <trkpt lat="48.67568" lon="1.81839">
        <ele>165</ele>
        <time>2013-08-17T12:25:53Z</time>
      </trkpt>
      <trkpt lat="48.67567" lon="1.81828">
        <ele>165</ele>
        <time>2013-08-17T12:25:55Z</time>
      </trkpt>
      <trkpt lat="48.67564" lon="1.8181">
        <ele>165</ele>
        <time>2013-08-17T12:25:58Z</time>
      </trkpt>
      <trkpt lat="48.67562" lon="1.818">
        <ele>165</ele>
        <time>2013-08-17T12:26:00Z</time>
      </trkpt>
      <trkpt lat="48.67561" lon="1.81785">
        <ele>165</ele>
        <time>2013-08-17T12:26:03Z</time>
      </trkpt>
      <trkpt lat="48.6756" lon="1.81774">
        <ele>165</ele>
        <time>2013-08-17T12:26:05Z</time>
      </trkpt>
      <trkpt lat="48.67558" lon="1.81757">
        <ele>165</ele>
        <time>2013-08-17T12:26:08Z</time>
      </trkpt>
      <trkpt lat="48.67557" lon="1.81747">
        <ele>165</ele>
        <time>2013-08-17T12:26:10Z</time>
      </trkpt>
      <trkpt lat="48.67555" lon="1.81729">
        <ele>165</ele>
        <time>2013-08-17T12:26:13Z</time>
      </trkpt>
      <trkpt lat="48.67554" lon="1.81717">
        <ele>165</ele>
        <time>2013-08-17T12:26:15Z</time>
      </trkpt>
      <trkpt lat="48.67552" lon="1.81703">
        <ele>165</ele>
        <time>2013-08-17T12:26:17Z</time>
      </trkpt>
      <trkpt lat="48.67551" lon="1.81691">
        <ele>165</ele>
        <time>2013-08-17T12:26:19Z</time>
      </trkpt>
      <trkpt lat="48.67549" lon="1.81674">
        <ele>165</ele>
        <time>2013-08-17T12:26:22Z</time>
      </trkpt>
      <trkpt lat="48.67547" lon="1.81657">
        <ele>165</ele>
        <time>2013-08-17T12:26:25Z</time>
      </trkpt>
      <trkpt lat="48.67545" lon="1.81644">
        <ele>165</ele>
        <time>2013-08-17T12:26:27Z</time>
      </trkpt>
      <trkpt lat="48.67543" lon="1.81623">
        <ele>165</ele>
        <time>2013-08-17T12:26:30Z</time>
      </trkpt>
      <trkpt lat="48.67541" lon="1.8161">
        <ele>165</ele>
        <time>2013-08-17T12:26:32Z</time>
      </trkpt>
      <trkpt lat="48.67539" lon="1.81591">
        <ele>165</ele>
        <time>2013-08-17T12:26:35Z</time>
      </trkpt>
      <trkpt lat="48.67537" lon="1.81579">
        <ele>165</ele>
        <time>2013-08-17T12:26:37Z</time>
      </trkpt>
      <trkpt lat="48.67535" lon="1.81566">
        <ele>165</ele>
        <time>2013-08-17T12:26:39Z</time>
      </trkpt>
      <trkpt lat="48.67534" lon="1.81555">
        <ele>165</ele>
        <time>2013-08-17T12:26:41Z</time>
      </trkpt>
      <trkpt lat="48.67532" lon="1.81541">
        <ele>165</ele>
        <time>2013-08-17T12:26:43Z</time>
      </trkpt>
      <trkpt lat="48.6753" lon="1.81526">
        <ele>165</ele>
        <time>2013-08-17T12:26:45Z</time>
      </trkpt>
      <trkpt lat="48.67528" lon="1.81507">
        <ele>167</ele>
        <time>2013-08-17T12:26:48Z</time>
      </trkpt>
      <trkpt lat="48.67525" lon="1.81489">
        <ele>167</ele>
        <time>2013-08-17T12:26:51Z</time>
      </trkpt>
      <trkpt lat="48.67524" lon="1.81477">
        <ele>167</ele>
        <time>2013-08-17T12:26:53Z</time>
      </trkpt>
      <trkpt lat="48.67523" lon="1.81466">
        <ele>167</ele>
        <time>2013-08-17T12:26:55Z</time>
      </trkpt>
      <trkpt lat="48.67522" lon="1.81453">
        <ele>167</ele>
        <time>2013-08-17T12:26:58Z</time>
      </trkpt>
      <trkpt lat="48.67521" lon="1.81446">
        <ele>167</ele>
        <time>2013-08-17T12:27:00Z</time>
      </trkpt>
      <trkpt lat="48.67521" lon="1.81442">
        <ele>168</ele>
        <time>2013-08-17T12:27:02Z</time>
      </trkpt>
      <trkpt lat="48.6752" lon="1.81438">
        <ele>168</ele>
        <time>2013-08-17T12:27:04Z</time>
      </trkpt>
      <trkpt lat="48.67519" lon="1.81433">
        <ele>168</ele>
        <time>2013-08-17T12:27:06Z</time>
      </trkpt>
      <trkpt lat="48.67519" lon="1.8143">
        <ele>168</ele>
        <time>2013-08-17T12:27:08Z</time>
      </trkpt>
      <trkpt lat="48.67519" lon="1.81429">
        <ele>168</ele>
        <time>2013-08-17T12:27:10Z</time>
      </trkpt>
      <trkpt lat="48.67518" lon="1.81427">
        <ele>169</ele>
        <time>2013-08-17T12:27:13Z</time>
      </trkpt>
      <trkpt lat="48.67517" lon="1.81422">
        <ele>169</ele>
        <time>2013-08-17T12:27:16Z</time>
      </trkpt>
      <trkpt lat="48.67517" lon="1.81418">
        <ele>169</ele>
        <time>2013-08-17T12:27:18Z</time>
      </trkpt>
      <trkpt lat="48.67517" lon="1.81413">
        <ele>169</ele>
        <time>2013-08-17T12:27:20Z</time>
      </trkpt>
      <trkpt lat="48.67518" lon="1.81409">
        <ele>169</ele>
        <time>2013-08-17T12:27:22Z</time>
      </trkpt>
      <trkpt lat="48.67521" lon="1.81405">
        <ele>169</ele>
        <time>2013-08-17T12:27:24Z</time>
      </trkpt>
      <trkpt lat="48.67524" lon="1.81401">
        <ele>169</ele>
        <time>2013-08-17T12:27:27Z</time>
      </trkpt>
      <trkpt lat="48.67528" lon="1.814">
        <ele>169</ele>
        <time>2013-08-17T12:27:29Z</time>
      </trkpt>
      <trkpt lat="48.67532" lon="1.81399">
        <ele>169</ele>
        <time>2013-08-17T12:27:32Z</time>
      </trkpt>
      <trkpt lat="48.67536" lon="1.81399">
        <ele>169</ele>
        <time>2013-08-17T12:27:34Z</time>
      </trkpt>
      <trkpt lat="48.67539" lon="1.814">
        <ele>169</ele>
        <time>2013-08-17T12:27:36Z</time>
      </trkpt>
      <trkpt lat="48.67542" lon="1.814">
        <ele>169</ele>
        <time>2013-08-17T12:27:38Z</time>
      </trkpt>
      <trkpt lat="48.67547" lon="1.814">
        <ele>169</ele>
        <time>2013-08-17T12:27:41Z</time>
      </trkpt>
      <trkpt lat="48.6755" lon="1.81399">
        <ele>169</ele>
        <time>2013-08-17T12:27:43Z</time>
      </trkpt>
      <trkpt lat="48.67553" lon="1.81398">
        <ele>169</ele>
        <time>2013-08-17T12:27:45Z</time>
      </trkpt>
      <trkpt lat="48.67558" lon="1.81396">
        <ele>169</ele>
        <time>2013-08-17T12:27:48Z</time>
      </trkpt>
      <trkpt lat="48.67563" lon="1.81395">
        <ele>169</ele>
        <time>2013-08-17T12:27:51Z</time>
      </trkpt>
      <trkpt lat="48.67567" lon="1.81396">
        <ele>169</ele>
        <time>2013-08-17T12:27:53Z</time>
      </trkpt>
      <trkpt lat="48.67572" lon="1.81397">
        <ele>169</ele>
        <time>2013-08-17T12:27:56Z</time>
      </trkpt>
      <trkpt lat="48.67575" lon="1.81397">
        <ele>169</ele>
        <time>2013-08-17T12:27:58Z</time>
      </trkpt>
      <trkpt lat="48.67579" lon="1.81396">
        <ele>169</ele>
        <time>2013-08-17T12:28:01Z</time>
      </trkpt>
      <trkpt lat="48.67582" lon="1.81396">
        <ele>169</ele>
        <time>2013-08-17T12:28:03Z</time>
      </trkpt>
      <trkpt lat="48.67586" lon="1.81394">
        <ele>169</ele>
        <time>2013-08-17T12:28:06Z</time>
      </trkpt>
      <trkpt lat="48.67589" lon="1.81392">
        <ele>169</ele>
        <time>2013-08-17T12:28:08Z</time>
      </trkpt>
      <trkpt lat="48.67593" lon="1.81391">
        <ele>169</ele>
        <time>2013-08-17T12:28:11Z</time>
      </trkpt>
      <trkpt lat="48.67597" lon="1.81391">
        <ele>169</ele>
        <time>2013-08-17T12:28:13Z</time>
      </trkpt>
      <trkpt lat="48.67602" lon="1.81391">
        <ele>169</ele>
        <time>2013-08-17T12:28:16Z</time>
      </trkpt>
      <trkpt lat="48.67606" lon="1.8139">
        <ele>170</ele>
        <time>2013-08-17T12:28:18Z</time>
      </trkpt>
      <trkpt lat="48.67611" lon="1.81388">
        <ele>171</ele>
        <time>2013-08-17T12:28:21Z</time>
      </trkpt>
      <trkpt lat="48.67614" lon="1.81387">
        <ele>172</ele>
        <time>2013-08-17T12:28:23Z</time>
      </trkpt>
      <trkpt lat="48.67617" lon="1.81386">
        <ele>172</ele>
        <time>2013-08-17T12:28:25Z</time>
      </trkpt>
      <trkpt lat="48.6762" lon="1.81385">
        <ele>173</ele>
        <time>2013-08-17T12:28:27Z</time>
      </trkpt>
      <trkpt lat="48.67623" lon="1.81385">
        <ele>174</ele>
        <time>2013-08-17T12:28:29Z</time>
      </trkpt>
      <trkpt lat="48.67628" lon="1.81387">
        <ele>174</ele>
        <time>2013-08-17T12:28:32Z</time>
      </trkpt>
      <trkpt lat="48.6763" lon="1.81388">
        <ele>174</ele>
        <time>2013-08-17T12:28:34Z</time>
      </trkpt>
      <trkpt lat="48.67634" lon="1.81388">
        <ele>174</ele>
        <time>2013-08-17T12:28:36Z</time>
      </trkpt>
      <trkpt lat="48.67638" lon="1.81389">
        <ele>174</ele>
        <time>2013-08-17T12:28:38Z</time>
      </trkpt>
      <trkpt lat="48.67642" lon="1.81389">
        <ele>174</ele>
        <time>2013-08-17T12:28:40Z</time>
      </trkpt>
      <trkpt lat="48.67646" lon="1.81388">
        <ele>174</ele>
        <time>2013-08-17T12:28:43Z</time>
      </trkpt>
      <trkpt lat="48.67649" lon="1.81387">
        <ele>173</ele>
        <time>2013-08-17T12:28:45Z</time>
      </trkpt>
      <trkpt lat="48.67653" lon="1.81386">
        <ele>173</ele>
        <time>2013-08-17T12:28:48Z</time>
      </trkpt>
      <trkpt lat="48.67656" lon="1.81385">
        <ele>172</ele>
        <time>2013-08-17T12:28:50Z</time>
      </trkpt>
      <trkpt lat="48.6766" lon="1.81385">
        <ele>170</ele>
        <time>2013-08-17T12:28:53Z</time>
      </trkpt>
      <trkpt lat="48.67664" lon="1.81384">
        <ele>169</ele>
        <time>2013-08-17T12:28:56Z</time>
      </trkpt>
      <trkpt lat="48.67667" lon="1.81382">
        <ele>169</ele>
        <time>2013-08-17T12:28:58Z</time>
      </trkpt>
      <trkpt lat="48.6767" lon="1.81379">
        <ele>169</ele>
        <time>2013-08-17T12:29:00Z</time>
      </trkpt>
      <trkpt lat="48.67673" lon="1.81379">
        <ele>169</ele>
        <time>2013-08-17T12:29:02Z</time>
      </trkpt>
      <trkpt lat="48.67676" lon="1.81378">
        <ele>169</ele>
        <time>2013-08-17T12:29:04Z</time>
      </trkpt>
      <trkpt lat="48.6768" lon="1.81374">
        <ele>169</ele>
        <time>2013-08-17T12:29:07Z</time>
      </trkpt>
      <trkpt lat="48.67682" lon="1.81371">
        <ele>169</ele>
        <time>2013-08-17T12:29:09Z</time>
      </trkpt>
      <trkpt lat="48.67683" lon="1.81365">
        <ele>169</ele>
        <time>2013-08-17T12:29:12Z</time>
      </trkpt>
      <trkpt lat="48.67684" lon="1.81361">
        <ele>169</ele>
        <time>2013-08-17T12:29:14Z</time>
      </trkpt>
      <trkpt lat="48.67684" lon="1.81357">
        <ele>169</ele>
        <time>2013-08-17T12:29:16Z</time>
      </trkpt>
      <trkpt lat="48.67685" lon="1.81352">
        <ele>169</ele>
        <time>2013-08-17T12:29:18Z</time>
      </trkpt>
      <trkpt lat="48.67686" lon="1.81348">
        <ele>169</ele>
        <time>2013-08-17T12:29:21Z</time>
      </trkpt>
      <trkpt lat="48.67687" lon="1.81346">
        <ele>169</ele>
        <time>2013-08-17T12:29:23Z</time>
      </trkpt>
      <trkpt lat="48.67689" lon="1.8134">
        <ele>169</ele>
        <time>2013-08-17T12:29:26Z</time>
      </trkpt>
      <trkpt lat="48.67694" lon="1.81336">
        <ele>169</ele>
        <time>2013-08-17T12:29:30Z</time>
      </trkpt>
      <trkpt lat="48.67696" lon="1.81331">
        <ele>169</ele>
        <time>2013-08-17T12:29:33Z</time>
      </trkpt>
      <trkpt lat="48.67699" lon="1.81329">
        <ele>169</ele>
        <time>2013-08-17T12:29:35Z</time>
      </trkpt>
      <trkpt lat="48.67702" lon="1.81323">
        <ele>168</ele>
        <time>2013-08-17T12:29:39Z</time>
      </trkpt>
      <trkpt lat="48.67704" lon="1.8132">
        <ele>167</ele>
        <time>2013-08-17T12:29:41Z</time>
      </trkpt>
      <trkpt lat="48.67706" lon="1.81312">
        <ele>167</ele>
        <time>2013-08-17T12:29:44Z</time>
      </trkpt>
      <trkpt lat="48.67707" lon="1.81306">
        <ele>167</ele>
        <time>2013-08-17T12:29:46Z</time>
      </trkpt>
      <trkpt lat="48.6771" lon="1.813">
        <ele>167</ele>
        <time>2013-08-17T12:29:49Z</time>
      </trkpt>
      <trkpt lat="48.6771" lon="1.81295">
        <ele>167</ele>
        <time>2013-08-17T12:29:51Z</time>
      </trkpt>
      <trkpt lat="48.67712" lon="1.81289">
        <ele>167</ele>
        <time>2013-08-17T12:29:54Z</time>
      </trkpt>
      <trkpt lat="48.67713" lon="1.81283">
        <ele>167</ele>
        <time>2013-08-17T12:29:56Z</time>
      </trkpt>
      <trkpt lat="48.67715" lon="1.81279">
        <ele>167</ele>
        <time>2013-08-17T12:29:58Z</time>
      </trkpt>
      <trkpt lat="48.67717" lon="1.81275">
        <ele>167</ele>
        <time>2013-08-17T12:30:00Z</time>
      </trkpt>
      <trkpt lat="48.67719" lon="1.81272">
        <ele>167</ele>
        <time>2013-08-17T12:30:02Z</time>
      </trkpt>
      <trkpt lat="48.67722" lon="1.8127">
        <ele>167</ele>
        <time>2013-08-17T12:30:04Z</time>
      </trkpt>
      <trkpt lat="48.67724" lon="1.81268">
        <ele>167</ele>
        <time>2013-08-17T12:30:06Z</time>
      </trkpt>
      <trkpt lat="48.67726" lon="1.81265">
        <ele>167</ele>
        <time>2013-08-17T12:30:08Z</time>
      </trkpt>
      <trkpt lat="48.67729" lon="1.8126">
        <ele>168</ele>
        <time>2013-08-17T12:30:11Z</time>
      </trkpt>
      <trkpt lat="48.67731" lon="1.81257">
        <ele>169</ele>
        <time>2013-08-17T12:30:13Z</time>
      </trkpt>
      <trkpt lat="48.67735" lon="1.81259">
        <ele>169</ele>
        <time>2013-08-17T12:30:15Z</time>
      </trkpt>
      <trkpt lat="48.67736" lon="1.81263">
        <ele>169</ele>
        <time>2013-08-17T12:30:18Z</time>
      </trkpt>
      <trkpt lat="48.67738" lon="1.81268">
        <ele>169</ele>
        <time>2013-08-17T12:30:21Z</time>
      </trkpt>
      <trkpt lat="48.6774" lon="1.81272">
        <ele>169</ele>
        <time>2013-08-17T12:30:25Z</time>
      </trkpt>
      <trkpt lat="48.67744" lon="1.81274">
        <ele>168</ele>
        <time>2013-08-17T12:30:28Z</time>
      </trkpt>
      <trkpt lat="48.67746" lon="1.81275">
        <ele>168</ele>
        <time>2013-08-17T12:30:30Z</time>
      </trkpt>
      <trkpt lat="48.67748" lon="1.81276">
        <ele>167</ele>
        <time>2013-08-17T12:30:32Z</time>
      </trkpt>
      <trkpt lat="48.6775" lon="1.81277">
        <ele>167</ele>
        <time>2013-08-17T12:30:34Z</time>
      </trkpt>
      <trkpt lat="48.67752" lon="1.81277">
        <ele>167</ele>
        <time>2013-08-17T12:30:36Z</time>
      </trkpt>
      <trkpt lat="48.67753" lon="1.81275">
        <ele>167</ele>
        <time>2013-08-17T12:30:38Z</time>
      </trkpt>
      <trkpt lat="48.67754" lon="1.81273">
        <ele>167</ele>
        <time>2013-08-17T12:30:40Z</time>
      </trkpt>
      <trkpt lat="48.67755" lon="1.81271">
        <ele>167</ele>
        <time>2013-08-17T12:30:42Z</time>
      </trkpt>
      <trkpt lat="48.67756" lon="1.8127">
        <ele>167</ele>
        <time>2013-08-17T12:30:44Z</time>
      </trkpt>
      <trkpt lat="48.67756" lon="1.81268">
        <ele>166</ele>
        <time>2013-08-17T12:30:46Z</time>
      </trkpt>
      <trkpt lat="48.67757" lon="1.81266">
        <ele>165</ele>
        <time>2013-08-17T12:30:49Z</time>
      </trkpt>
      <trkpt lat="48.67758" lon="1.81263">
        <ele>165</ele>
        <time>2013-08-17T12:30:52Z</time>
      </trkpt>
      <trkpt lat="48.67758" lon="1.81261">
        <ele>165</ele>
        <time>2013-08-17T12:30:54Z</time>
      </trkpt>
      <trkpt lat="48.67759" lon="1.81257">
        <ele>165</ele>
        <time>2013-08-17T12:30:59Z</time>
      </trkpt>
      <trkpt lat="48.6776" lon="1.81255">
        <ele>164</ele>
        <time>2013-08-17T12:31:01Z</time>
      </trkpt>
      <trkpt lat="48.67761" lon="1.81254">
        <ele>164</ele>
        <time>2013-08-17T12:31:03Z</time>
      </trkpt>
      <trkpt lat="48.67762" lon="1.81252">
        <ele>164</ele>
        <time>2013-08-17T12:31:05Z</time>
      </trkpt>
      <trkpt lat="48.67765" lon="1.81247">
        <ele>164</ele>
        <time>2013-08-17T12:31:09Z</time>
      </trkpt>
      <trkpt lat="48.67765" lon="1.81246">
        <ele>164</ele>
        <time>2013-08-17T12:31:13Z</time>
      </trkpt>
      <trkpt lat="48.67766" lon="1.81243">
        <ele>164</ele>
        <time>2013-08-17T12:31:16Z</time>
      </trkpt>
      <trkpt lat="48.67765" lon="1.81242">
        <ele>164</ele>
        <time>2013-08-17T12:31:26Z</time>
      </trkpt>
      <trkpt lat="48.67762" lon="1.81238">
        <ele>164</ele>
        <time>2013-08-17T12:31:30Z</time>
      </trkpt>
      <trkpt lat="48.6776" lon="1.81236">
        <ele>164</ele>
        <time>2013-08-17T12:31:32Z</time>
      </trkpt>
      <trkpt lat="48.67758" lon="1.81234">
        <ele>164</ele>
        <time>2013-08-17T12:31:34Z</time>
      </trkpt>
      <trkpt lat="48.67753" lon="1.81233">
        <ele>164</ele>
        <time>2013-08-17T12:31:36Z</time>
      </trkpt>
      <trkpt lat="48.67749" lon="1.81228">
        <ele>164</ele>
        <time>2013-08-17T12:31:40Z</time>
      </trkpt>
      <trkpt lat="48.67746" lon="1.81228">
        <ele>164</ele>
        <time>2013-08-17T12:31:44Z</time>
      </trkpt>
      <trkpt lat="48.67746" lon="1.81226">
        <ele>164</ele>
        <time>2013-08-17T12:31:53Z</time>
      </trkpt>
      <trkpt lat="48.67745" lon="1.81225">
        <ele>164</ele>
        <time>2013-08-17T12:32:05Z</time>
      </trkpt>
      <trkpt lat="48.67744" lon="1.81223">
        <ele>165</ele>
        <time>2013-08-17T12:32:19Z</time>
      </trkpt>
      <trkpt lat="48.67742" lon="1.81223">
        <ele>165</ele>
        <time>2013-08-17T12:32:34Z</time>
      </trkpt>
      <trkpt lat="48.67743" lon="1.81222">
        <ele>167</ele>
        <time>2013-08-17T12:32:44Z</time>
      </trkpt>
      <trkpt lat="48.67744" lon="1.81223">
        <ele>168</ele>
        <time>2013-08-17T12:32:51Z</time>
      </trkpt>
      <trkpt lat="48.67746" lon="1.81223">
        <ele>168</ele>
        <time>2013-08-17T12:33:05Z</time>
      </trkpt>
      <trkpt lat="48.67747" lon="1.81223">
        <ele>168</ele>
        <time>2013-08-17T12:33:09Z</time>
      </trkpt>
      <trkpt lat="48.67747" lon="1.81225">
        <ele>168</ele>
        <time>2013-08-17T12:33:13Z</time>
      </trkpt>
      <trkpt lat="48.67746" lon="1.81226">
        <ele>168</ele>
        <time>2013-08-17T12:33:23Z</time>
      </trkpt>
      <trkpt lat="48.67746" lon="1.81228">
        <ele>168</ele>
        <time>2013-08-17T12:33:27Z</time>
      </trkpt>
      <trkpt lat="48.67748" lon="1.81227">
        <ele>168</ele>
        <time>2013-08-17T12:33:33Z</time>
      </trkpt>
      <trkpt lat="48.67749" lon="1.81227">
        <ele>168</ele>
        <time>2013-08-17T12:33:38Z</time>
      </trkpt>
      <trkpt lat="48.67751" lon="1.81226">
        <ele>171</ele>
        <time>2013-08-17T12:33:41Z</time>
      </trkpt>
      <trkpt lat="48.67749" lon="1.81228">
        <ele>172</ele>
        <time>2013-08-17T12:33:47Z</time>
      </trkpt>
      <trkpt lat="48.67748" lon="1.81226">
        <ele>172</ele>
        <time>2013-08-17T12:33:59Z</time>
      </trkpt>
      <trkpt lat="48.67747" lon="1.81225">
        <ele>172</ele>
        <time>2013-08-17T12:34:02Z</time>
      </trkpt>
      <trkpt lat="48.67745" lon="1.81225">
        <ele>172</ele>
        <time>2013-08-17T12:34:07Z</time>
      </trkpt>
      <trkpt lat="48.67744" lon="1.81225">
        <ele>171</ele>
        <time>2013-08-17T12:34:14Z</time>
      </trkpt>
      <trkpt lat="48.67743" lon="1.81224">
        <ele>171</ele>
        <time>2013-08-17T12:34:22Z</time>
      </trkpt>
      <trkpt lat="48.67742" lon="1.81222">
        <ele>171</ele>
        <time>2013-08-17T12:34:33Z</time>
      </trkpt>
      <trkpt lat="48.67741" lon="1.81222">
        <ele>171</ele>
        <time>2013-08-17T12:34:39Z</time>
      </trkpt>
      <trkpt lat="48.6774" lon="1.81222">
        <ele>171</ele>
        <time>2013-08-17T12:34:46Z</time>
      </trkpt>
      <trkpt lat="48.67739" lon="1.81224">
        <ele>171</ele>
        <time>2013-08-17T12:34:51Z</time>
      </trkpt>
      <trkpt lat="48.67741" lon="1.81225">
        <ele>171</ele>
        <time>2013-08-17T12:34:58Z</time>
      </trkpt>
      <trkpt lat="48.67742" lon="1.81227">
        <ele>171</ele>
        <time>2013-08-17T12:35:04Z</time>
      </trkpt>
      <trkpt lat="48.67741" lon="1.81225">
        <ele>171</ele>
        <time>2013-08-17T12:35:07Z</time>
      </trkpt>
      <trkpt lat="48.67743" lon="1.81223">
        <ele>171</ele>
        <time>2013-08-17T12:35:13Z</time>
      </trkpt>
      <trkpt lat="48.67741" lon="1.81223">
        <ele>171</ele>
        <time>2013-08-17T12:35:25Z</time>
      </trkpt>
      <trkpt lat="48.6774" lon="1.81225">
        <ele>171</ele>
        <time>2013-08-17T12:35:30Z</time>
      </trkpt>
      <trkpt lat="48.67738" lon="1.81227">
        <ele>171</ele>
        <time>2013-08-17T12:35:34Z</time>
      </trkpt>
      <trkpt lat="48.67737" lon="1.81228">
        <ele>171</ele>
        <time>2013-08-17T12:35:39Z</time>
      </trkpt>
      <trkpt lat="48.67738" lon="1.81226">
        <ele>170</ele>
        <time>2013-08-17T12:35:44Z</time>
      </trkpt>
      <trkpt lat="48.67791" lon="1.81164">
        <ele>175</ele>
        <time>2013-08-17T12:35:46Z</time>
      </trkpt>
      <trkpt lat="48.67791" lon="1.81161">
        <ele>175</ele>
        <time>2013-08-17T12:35:48Z</time>
      </trkpt>
      <trkpt lat="48.67792" lon="1.81157">
        <ele>175</ele>
        <time>2013-08-17T12:35:50Z</time>
      </trkpt>
      <trkpt lat="48.67795" lon="1.81155">
        <ele>175</ele>
        <time>2013-08-17T12:35:52Z</time>
      </trkpt>
      <trkpt lat="48.67797" lon="1.8115">
        <ele>175</ele>
        <time>2013-08-17T12:35:55Z</time>
      </trkpt>
      <trkpt lat="48.67798" lon="1.81148">
        <ele>175</ele>
        <time>2013-08-17T12:35:57Z</time>
      </trkpt>
      <trkpt lat="48.67799" lon="1.81146">
        <ele>175</ele>
        <time>2013-08-17T12:36:02Z</time>
      </trkpt>
      <trkpt lat="48.67802" lon="1.81143">
        <ele>175</ele>
        <time>2013-08-17T12:36:04Z</time>
      </trkpt>
      <trkpt lat="48.67802" lon="1.8114">
        <ele>175</ele>
        <time>2013-08-17T12:36:06Z</time>
      </trkpt>
      <trkpt lat="48.67804" lon="1.81137">
        <ele>175</ele>
        <time>2013-08-17T12:36:08Z</time>
      </trkpt>
      <trkpt lat="48.67806" lon="1.81132">
        <ele>175</ele>
        <time>2013-08-17T12:36:11Z</time>
      </trkpt>
      <trkpt lat="48.67809" lon="1.81131">
        <ele>175</ele>
        <time>2013-08-17T12:36:13Z</time>
      </trkpt>
      <trkpt lat="48.67812" lon="1.81129">
        <ele>174</ele>
        <time>2013-08-17T12:36:15Z</time>
      </trkpt>
      <trkpt lat="48.67815" lon="1.81129">
        <ele>173</ele>
        <time>2013-08-17T12:36:18Z</time>
      </trkpt>
      <trkpt lat="48.67821" lon="1.81128">
        <ele>173</ele>
        <time>2013-08-17T12:36:20Z</time>
      </trkpt>
      <trkpt lat="48.67825" lon="1.81127">
        <ele>173</ele>
        <time>2013-08-17T12:36:22Z</time>
      </trkpt>
      <trkpt lat="48.67825" lon="1.81125">
        <ele>173</ele>
        <time>2013-08-17T12:36:24Z</time>
      </trkpt>
      <trkpt lat="48.67823" lon="1.8112">
        <ele>173</ele>
        <time>2013-08-17T12:36:27Z</time>
      </trkpt>
      <trkpt lat="48.67822" lon="1.81118">
        <ele>172</ele>
        <time>2013-08-17T12:36:29Z</time>
      </trkpt>
      <trkpt lat="48.6782" lon="1.81114">
        <ele>170</ele>
        <time>2013-08-17T12:36:33Z</time>
      </trkpt>
      <trkpt lat="48.67819" lon="1.8111">
        <ele>169</ele>
        <time>2013-08-17T12:36:36Z</time>
      </trkpt>
      <trkpt lat="48.67819" lon="1.81108">
        <ele>169</ele>
        <time>2013-08-17T12:36:38Z</time>
      </trkpt>
      <trkpt lat="48.67818" lon="1.81107">
        <ele>169</ele>
        <time>2013-08-17T12:36:40Z</time>
      </trkpt>
      <trkpt lat="48.67816" lon="1.81106">
        <ele>169</ele>
        <time>2013-08-17T12:36:42Z</time>
      </trkpt>
      <trkpt lat="48.67816" lon="1.81102">
        <ele>169</ele>
        <time>2013-08-17T12:36:44Z</time>
      </trkpt>
      <trkpt lat="48.67815" lon="1.81098">
        <ele>169</ele>
        <time>2013-08-17T12:36:46Z</time>
      </trkpt>
      <trkpt lat="48.67817" lon="1.81094">
        <ele>169</ele>
        <time>2013-08-17T12:36:48Z</time>
      </trkpt>
      <trkpt lat="48.67815" lon="1.81089">
        <ele>169</ele>
        <time>2013-08-17T12:36:50Z</time>
      </trkpt>
      <trkpt lat="48.67817" lon="1.81084">
        <ele>169</ele>
        <time>2013-08-17T12:36:52Z</time>
      </trkpt>
      <trkpt lat="48.67818" lon="1.8108">
        <ele>169</ele>
        <time>2013-08-17T12:36:54Z</time>
      </trkpt>
      <trkpt lat="48.67821" lon="1.81076">
        <ele>169</ele>
        <time>2013-08-17T12:36:56Z</time>
      </trkpt>
      <trkpt lat="48.67824" lon="1.81074">
        <ele>169</ele>
        <time>2013-08-17T12:36:58Z</time>
      </trkpt>
      <trkpt lat="48.67825" lon="1.8107">
        <ele>169</ele>
        <time>2013-08-17T12:37:00Z</time>
      </trkpt>
      <trkpt lat="48.67825" lon="1.81064">
        <ele>169</ele>
        <time>2013-08-17T12:37:02Z</time>
      </trkpt>
      <trkpt lat="48.67827" lon="1.8106">
        <ele>169</ele>
        <time>2013-08-17T12:37:04Z</time>
      </trkpt>
      <trkpt lat="48.6783" lon="1.81053">
        <ele>169</ele>
        <time>2013-08-17T12:37:06Z</time>
      </trkpt>
      <trkpt lat="48.67831" lon="1.81046">
        <ele>169</ele>
        <time>2013-08-17T12:37:08Z</time>
      </trkpt>
      <trkpt lat="48.67833" lon="1.81043">
        <ele>169</ele>
        <time>2013-08-17T12:37:10Z</time>
      </trkpt>
      <trkpt lat="48.67836" lon="1.81039">
        <ele>169</ele>
        <time>2013-08-17T12:37:12Z</time>
      </trkpt>
      <trkpt lat="48.67839" lon="1.81035">
        <ele>169</ele>
        <time>2013-08-17T12:37:14Z</time>
      </trkpt>
      <trkpt lat="48.6784" lon="1.8103">
        <ele>169</ele>
        <time>2013-08-17T12:37:17Z</time>
      </trkpt>
      <trkpt lat="48.67843" lon="1.81027">
        <ele>169</ele>
        <time>2013-08-17T12:37:20Z</time>
      </trkpt>
      <trkpt lat="48.67843" lon="1.81023">
        <ele>169</ele>
        <time>2013-08-17T12:37:22Z</time>
      </trkpt>
      <trkpt lat="48.67845" lon="1.81021">
        <ele>170</ele>
        <time>2013-08-17T12:37:24Z</time>
      </trkpt>
      <trkpt lat="48.67848" lon="1.81017">
        <ele>170</ele>
        <time>2013-08-17T12:37:26Z</time>
      </trkpt>
      <trkpt lat="48.67851" lon="1.8101">
        <ele>170</ele>
        <time>2013-08-17T12:37:30Z</time>
      </trkpt>
      <trkpt lat="48.67852" lon="1.81006">
        <ele>170</ele>
        <time>2013-08-17T12:37:33Z</time>
      </trkpt>
      <trkpt lat="48.67854" lon="1.81002">
        <ele>170</ele>
        <time>2013-08-17T12:37:35Z</time>
      </trkpt>
      <trkpt lat="48.67855" lon="1.80998">
        <ele>170</ele>
        <time>2013-08-17T12:37:37Z</time>
      </trkpt>
      <trkpt lat="48.67856" lon="1.80994">
        <ele>170</ele>
        <time>2013-08-17T12:37:39Z</time>
      </trkpt>
      <trkpt lat="48.67858" lon="1.80992">
        <ele>168</ele>
        <time>2013-08-17T12:37:41Z</time>
      </trkpt>
      <trkpt lat="48.67861" lon="1.80989">
        <ele>167</ele>
        <time>2013-08-17T12:37:43Z</time>
      </trkpt>
      <trkpt lat="48.67864" lon="1.80984">
        <ele>164</ele>
        <time>2013-08-17T12:37:46Z</time>
      </trkpt>
      <trkpt lat="48.67865" lon="1.80981">
        <ele>162</ele>
        <time>2013-08-17T12:37:48Z</time>
      </trkpt>
      <trkpt lat="48.67867" lon="1.80975">
        <ele>161</ele>
        <time>2013-08-17T12:37:50Z</time>
      </trkpt>
      <trkpt lat="48.67865" lon="1.80967">
        <ele>161</ele>
        <time>2013-08-17T12:37:52Z</time>
      </trkpt>
      <trkpt lat="48.67867" lon="1.80962">
        <ele>161</ele>
        <time>2013-08-17T12:37:55Z</time>
      </trkpt>
      <trkpt lat="48.67863" lon="1.80954">
        <ele>161</ele>
        <time>2013-08-17T12:37:57Z</time>
      </trkpt>
      <trkpt lat="48.67863" lon="1.8095">
        <ele>161</ele>
        <time>2013-08-17T12:37:59Z</time>
      </trkpt>
      <trkpt lat="48.67863" lon="1.80946">
        <ele>162</ele>
        <time>2013-08-17T12:38:01Z</time>
      </trkpt>
      <trkpt lat="48.67864" lon="1.80942">
        <ele>162</ele>
        <time>2013-08-17T12:38:03Z</time>
      </trkpt>
      <trkpt lat="48.67865" lon="1.80934">
        <ele>162</ele>
        <time>2013-08-17T12:38:07Z</time>
      </trkpt>
      <trkpt lat="48.67864" lon="1.80928">
        <ele>162</ele>
        <time>2013-08-17T12:38:09Z</time>
      </trkpt>
      <trkpt lat="48.67865" lon="1.80924">
        <ele>162</ele>
        <time>2013-08-17T12:38:11Z</time>
      </trkpt>
      <trkpt lat="48.67866" lon="1.80919">
        <ele>162</ele>
        <time>2013-08-17T12:38:13Z</time>
      </trkpt>
      <trkpt lat="48.67868" lon="1.80915">
        <ele>162</ele>
        <time>2013-08-17T12:38:15Z</time>
      </trkpt>
      <trkpt lat="48.67863" lon="1.80906">
        <ele>162</ele>
        <time>2013-08-17T12:38:17Z</time>
      </trkpt>
      <trkpt lat="48.67862" lon="1.80898">
        <ele>165</ele>
        <time>2013-08-17T12:38:20Z</time>
      </trkpt>
      <trkpt lat="48.67863" lon="1.80895">
        <ele>167</ele>
        <time>2013-08-17T12:38:22Z</time>
      </trkpt>
      <trkpt lat="48.67865" lon="1.8089">
        <ele>168</ele>
        <time>2013-08-17T12:38:24Z</time>
      </trkpt>
      <trkpt lat="48.67867" lon="1.80886">
        <ele>168</ele>
        <time>2013-08-17T12:38:26Z</time>
      </trkpt>
      <trkpt lat="48.67868" lon="1.80882">
        <ele>168</ele>
        <time>2013-08-17T12:38:28Z</time>
      </trkpt>
      <trkpt lat="48.67869" lon="1.80875">
        <ele>168</ele>
        <time>2013-08-17T12:38:31Z</time>
      </trkpt>
      <trkpt lat="48.6787" lon="1.80871">
        <ele>168</ele>
        <time>2013-08-17T12:38:33Z</time>
      </trkpt>
      <trkpt lat="48.67873" lon="1.80868">
        <ele>168</ele>
        <time>2013-08-17T12:38:35Z</time>
      </trkpt>
      <trkpt lat="48.67875" lon="1.80863">
        <ele>168</ele>
        <time>2013-08-17T12:38:37Z</time>
      </trkpt>
      <trkpt lat="48.67876" lon="1.80859">
        <ele>168</ele>
        <time>2013-08-17T12:38:39Z</time>
      </trkpt>
      <trkpt lat="48.67878" lon="1.80854">
        <ele>168</ele>
        <time>2013-08-17T12:38:41Z</time>
      </trkpt>
      <trkpt lat="48.6788" lon="1.80851">
        <ele>168</ele>
        <time>2013-08-17T12:38:43Z</time>
      </trkpt>
      <trkpt lat="48.67881" lon="1.80847">
        <ele>167</ele>
        <time>2013-08-17T12:38:45Z</time>
      </trkpt>
      <trkpt lat="48.67879" lon="1.80841">
        <ele>167</ele>
        <time>2013-08-17T12:38:47Z</time>
      </trkpt>
      <trkpt lat="48.67881" lon="1.80837">
        <ele>167</ele>
        <time>2013-08-17T12:38:49Z</time>
      </trkpt>
      <trkpt lat="48.67884" lon="1.80832">
        <ele>167</ele>
        <time>2013-08-17T12:38:51Z</time>
      </trkpt>
      <trkpt lat="48.67886" lon="1.80828">
        <ele>167</ele>
        <time>2013-08-17T12:38:53Z</time>
      </trkpt>
      <trkpt lat="48.67887" lon="1.80824">
        <ele>167</ele>
        <time>2013-08-17T12:38:55Z</time>
      </trkpt>
      <trkpt lat="48.67889" lon="1.8082">
        <ele>167</ele>
        <time>2013-08-17T12:38:57Z</time>
      </trkpt>
      <trkpt lat="48.67891" lon="1.80816">
        <ele>167</ele>
        <time>2013-08-17T12:38:59Z</time>
      </trkpt>
      <trkpt lat="48.67892" lon="1.8081">
        <ele>167</ele>
        <time>2013-08-17T12:39:02Z</time>
      </trkpt>
      <trkpt lat="48.67894" lon="1.80803">
        <ele>167</ele>
        <time>2013-08-17T12:39:05Z</time>
      </trkpt>
      <trkpt lat="48.67895" lon="1.80796">
        <ele>167</ele>
        <time>2013-08-17T12:39:08Z</time>
      </trkpt>
      <trkpt lat="48.67895" lon="1.80789">
        <ele>167</ele>
        <time>2013-08-17T12:39:11Z</time>
      </trkpt>
      <trkpt lat="48.67897" lon="1.80783">
        <ele>167</ele>
        <time>2013-08-17T12:39:14Z</time>
      </trkpt>
      <trkpt lat="48.67899" lon="1.80779">
        <ele>167</ele>
        <time>2013-08-17T12:39:16Z</time>
      </trkpt>
      <trkpt lat="48.679" lon="1.80774">
        <ele>167</ele>
        <time>2013-08-17T12:39:18Z</time>
      </trkpt>
      <trkpt lat="48.67901" lon="1.80769">
        <ele>167</ele>
        <time>2013-08-17T12:39:20Z</time>
      </trkpt>
      <trkpt lat="48.67904" lon="1.80765">
        <ele>167</ele>
        <time>2013-08-17T12:39:23Z</time>
      </trkpt>
      <trkpt lat="48.67906" lon="1.80761">
        <ele>167</ele>
        <time>2013-08-17T12:39:25Z</time>
      </trkpt>
      <trkpt lat="48.67907" lon="1.80757">
        <ele>167</ele>
        <time>2013-08-17T12:39:27Z</time>
      </trkpt>
      <trkpt lat="48.67911" lon="1.8075">
        <ele>166</ele>
        <time>2013-08-17T12:39:30Z</time>
      </trkpt>
      <trkpt lat="48.67913" lon="1.80747">
        <ele>166</ele>
        <time>2013-08-17T12:39:32Z</time>
      </trkpt>
      <trkpt lat="48.67915" lon="1.80743">
        <ele>165</ele>
        <time>2013-08-17T12:39:34Z</time>
      </trkpt>
      <trkpt lat="48.67914" lon="1.80737">
        <ele>165</ele>
        <time>2013-08-17T12:39:37Z</time>
      </trkpt>
      <trkpt lat="48.67913" lon="1.80731">
        <ele>165</ele>
        <time>2013-08-17T12:39:39Z</time>
      </trkpt>
      <trkpt lat="48.67916" lon="1.80728">
        <ele>165</ele>
        <time>2013-08-17T12:39:41Z</time>
      </trkpt>
      <trkpt lat="48.67921" lon="1.80723">
        <ele>165</ele>
        <time>2013-08-17T12:39:44Z</time>
      </trkpt>
      <trkpt lat="48.67924" lon="1.8072">
        <ele>165</ele>
        <time>2013-08-17T12:39:46Z</time>
      </trkpt>
      <trkpt lat="48.67927" lon="1.80716">
        <ele>164</ele>
        <time>2013-08-17T12:39:48Z</time>
      </trkpt>
      <trkpt lat="48.67929" lon="1.80712">
        <ele>163</ele>
        <time>2013-08-17T12:39:50Z</time>
      </trkpt>
      <trkpt lat="48.67932" lon="1.80709">
        <ele>162</ele>
        <time>2013-08-17T12:39:52Z</time>
      </trkpt>
      <trkpt lat="48.67938" lon="1.80704">
        <ele>161</ele>
        <time>2013-08-17T12:39:56Z</time>
      </trkpt>
      <trkpt lat="48.67942" lon="1.80701">
        <ele>160</ele>
        <time>2013-08-17T12:39:59Z</time>
      </trkpt>
      <trkpt lat="48.67943" lon="1.80697">
        <ele>160</ele>
        <time>2013-08-17T12:40:01Z</time>
      </trkpt>
      <trkpt lat="48.67939" lon="1.80689">
        <ele>160</ele>
        <time>2013-08-17T12:40:03Z</time>
      </trkpt>
      <trkpt lat="48.67937" lon="1.80683">
        <ele>160</ele>
        <time>2013-08-17T12:40:05Z</time>
      </trkpt>
      <trkpt lat="48.67936" lon="1.80677">
        <ele>162</ele>
        <time>2013-08-17T12:40:07Z</time>
      </trkpt>
      <trkpt lat="48.67937" lon="1.80672">
        <ele>164</ele>
        <time>2013-08-17T12:40:09Z</time>
      </trkpt>
      <trkpt lat="48.67942" lon="1.80667">
        <ele>167</ele>
        <time>2013-08-17T12:40:12Z</time>
      </trkpt>
      <trkpt lat="48.67946" lon="1.80663">
        <ele>170</ele>
        <time>2013-08-17T12:40:15Z</time>
      </trkpt>
      <trkpt lat="48.67944" lon="1.80656">
        <ele>172</ele>
        <time>2013-08-17T12:40:17Z</time>
      </trkpt>
      <trkpt lat="48.67942" lon="1.80648">
        <ele>175</ele>
        <time>2013-08-17T12:40:20Z</time>
      </trkpt>
      <trkpt lat="48.67941" lon="1.80643">
        <ele>177</ele>
        <time>2013-08-17T12:40:22Z</time>
      </trkpt>
      <trkpt lat="48.6794" lon="1.80639">
        <ele>180</ele>
        <time>2013-08-17T12:40:25Z</time>
      </trkpt>
      <trkpt lat="48.67939" lon="1.80635">
        <ele>182</ele>
        <time>2013-08-17T12:40:27Z</time>
      </trkpt>
      <trkpt lat="48.67947" lon="1.80632">
        <ele>183</ele>
        <time>2013-08-17T12:40:30Z</time>
      </trkpt>
      <trkpt lat="48.67951" lon="1.8063">
        <ele>183</ele>
        <time>2013-08-17T12:40:32Z</time>
      </trkpt>
      <trkpt lat="48.67957" lon="1.80626">
        <ele>183</ele>
        <time>2013-08-17T12:40:35Z</time>
      </trkpt>
      <trkpt lat="48.67961" lon="1.80623">
        <ele>183</ele>
        <time>2013-08-17T12:40:37Z</time>
      </trkpt>
      <trkpt lat="48.67966" lon="1.80621">
        <ele>182</ele>
        <time>2013-08-17T12:40:40Z</time>
      </trkpt>
      <trkpt lat="48.67968" lon="1.80619">
        <ele>180</ele>
        <time>2013-08-17T12:40:42Z</time>
      </trkpt>
      <trkpt lat="48.67972" lon="1.80615">
        <ele>178</ele>
        <time>2013-08-17T12:40:45Z</time>
      </trkpt>
      <trkpt lat="48.67976" lon="1.80613">
        <ele>177</ele>
        <time>2013-08-17T12:40:47Z</time>
      </trkpt>
      <trkpt lat="48.67979" lon="1.80611">
        <ele>175</ele>
        <time>2013-08-17T12:40:50Z</time>
      </trkpt>
      <trkpt lat="48.6798" lon="1.80607">
        <ele>175</ele>
        <time>2013-08-17T12:40:52Z</time>
      </trkpt>
      <trkpt lat="48.67981" lon="1.806">
        <ele>175</ele>
        <time>2013-08-17T12:40:55Z</time>
      </trkpt>
      <trkpt lat="48.67983" lon="1.80596">
        <ele>175</ele>
        <time>2013-08-17T12:40:57Z</time>
      </trkpt>
      <trkpt lat="48.67983" lon="1.80589">
        <ele>175</ele>
        <time>2013-08-17T12:41:00Z</time>
      </trkpt>
      <trkpt lat="48.67984" lon="1.80585">
        <ele>175</ele>
        <time>2013-08-17T12:41:02Z</time>
      </trkpt>
      <trkpt lat="48.67989" lon="1.80579">
        <ele>176</ele>
        <time>2013-08-17T12:41:06Z</time>
      </trkpt>
      <trkpt lat="48.6799" lon="1.8058">
        <ele>178</ele>
        <time>2013-08-17T12:41:09Z</time>
      </trkpt>
      <trkpt lat="48.67993" lon="1.80583">
        <ele>178</ele>
        <time>2013-08-17T12:41:12Z</time>
      </trkpt>
      <trkpt lat="48.67995" lon="1.8058">
        <ele>178</ele>
        <time>2013-08-17T12:41:14Z</time>
      </trkpt>
      <trkpt lat="48.68004" lon="1.80576">
        <ele>178</ele>
        <time>2013-08-17T12:41:17Z</time>
      </trkpt>
      <trkpt lat="48.6801" lon="1.80573">
        <ele>178</ele>
        <time>2013-08-17T12:41:19Z</time>
      </trkpt>
      <trkpt lat="48.68013" lon="1.80569">
        <ele>178</ele>
        <time>2013-08-17T12:41:21Z</time>
      </trkpt>
      <trkpt lat="48.68019" lon="1.80565">
        <ele>178</ele>
        <time>2013-08-17T12:41:24Z</time>
      </trkpt>
      <trkpt lat="48.68024" lon="1.8056">
        <ele>178</ele>
        <time>2013-08-17T12:41:27Z</time>
      </trkpt>
      <trkpt lat="48.68028" lon="1.80557">
        <ele>177</ele>
        <time>2013-08-17T12:41:29Z</time>
      </trkpt>
      <trkpt lat="48.68034" lon="1.80554">
        <ele>175</ele>
        <time>2013-08-17T12:41:32Z</time>
      </trkpt>
      <trkpt lat="48.68035" lon="1.8055">
        <ele>175</ele>
        <time>2013-08-17T12:41:34Z</time>
      </trkpt>
      <trkpt lat="48.68041" lon="1.80546">
        <ele>175</ele>
        <time>2013-08-17T12:41:37Z</time>
      </trkpt>
      <trkpt lat="48.68045" lon="1.80544">
        <ele>174</ele>
        <time>2013-08-17T12:41:39Z</time>
      </trkpt>
      <trkpt lat="48.68049" lon="1.80542">
        <ele>173</ele>
        <time>2013-08-17T12:41:41Z</time>
      </trkpt>
      <trkpt lat="48.68052" lon="1.8054">
        <ele>172</ele>
        <time>2013-08-17T12:41:43Z</time>
      </trkpt>
      <trkpt lat="48.68054" lon="1.80537">
        <ele>171</ele>
        <time>2013-08-17T12:41:45Z</time>
      </trkpt>
      <trkpt lat="48.68057" lon="1.80533">
        <ele>171</ele>
        <time>2013-08-17T12:41:48Z</time>
      </trkpt>
      <trkpt lat="48.68061" lon="1.80531">
        <ele>171</ele>
        <time>2013-08-17T12:41:50Z</time>
      </trkpt>
      <trkpt lat="48.68065" lon="1.80527">
        <ele>171</ele>
        <time>2013-08-17T12:41:52Z</time>
      </trkpt>
      <trkpt lat="48.68068" lon="1.80525">
        <ele>170</ele>
        <time>2013-08-17T12:41:54Z</time>
      </trkpt>
      <trkpt lat="48.68071" lon="1.80522">
        <ele>169</ele>
        <time>2013-08-17T12:41:57Z</time>
      </trkpt>
      <trkpt lat="48.68073" lon="1.80519">
        <ele>168</ele>
        <time>2013-08-17T12:41:59Z</time>
      </trkpt>
      <trkpt lat="48.68072" lon="1.80514">
        <ele>168</ele>
        <time>2013-08-17T12:42:01Z</time>
      </trkpt>
      <trkpt lat="48.68073" lon="1.8051">
        <ele>168</ele>
        <time>2013-08-17T12:42:04Z</time>
      </trkpt>
      <trkpt lat="48.68073" lon="1.80508">
        <ele>168</ele>
        <time>2013-08-17T12:42:06Z</time>
      </trkpt>
      <trkpt lat="48.68073" lon="1.80503">
        <ele>168</ele>
        <time>2013-08-17T12:42:08Z</time>
      </trkpt>
      <trkpt lat="48.68076" lon="1.80499">
        <ele>168</ele>
        <time>2013-08-17T12:42:10Z</time>
      </trkpt>
      <trkpt lat="48.68077" lon="1.80494">
        <ele>168</ele>
        <time>2013-08-17T12:42:12Z</time>
      </trkpt>
      <trkpt lat="48.68079" lon="1.80489">
        <ele>168</ele>
        <time>2013-08-17T12:42:14Z</time>
      </trkpt>
      <trkpt lat="48.68081" lon="1.80485">
        <ele>168</ele>
        <time>2013-08-17T12:42:16Z</time>
      </trkpt>
      <trkpt lat="48.68084" lon="1.80481">
        <ele>168</ele>
        <time>2013-08-17T12:42:18Z</time>
      </trkpt>
      <trkpt lat="48.68085" lon="1.80476">
        <ele>168</ele>
        <time>2013-08-17T12:42:20Z</time>
      </trkpt>
      <trkpt lat="48.68087" lon="1.80469">
        <ele>168</ele>
        <time>2013-08-17T12:42:23Z</time>
      </trkpt>
      <trkpt lat="48.68088" lon="1.80464">
        <ele>168</ele>
        <time>2013-08-17T12:42:25Z</time>
      </trkpt>
      <trkpt lat="48.68089" lon="1.80457">
        <ele>168</ele>
        <time>2013-08-17T12:42:28Z</time>
      </trkpt>
      <trkpt lat="48.6809" lon="1.80452">
        <ele>168</ele>
        <time>2013-08-17T12:42:30Z</time>
      </trkpt>
      <trkpt lat="48.68091" lon="1.80446">
        <ele>168</ele>
        <time>2013-08-17T12:42:33Z</time>
      </trkpt>
      <trkpt lat="48.68093" lon="1.80441">
        <ele>168</ele>
        <time>2013-08-17T12:42:35Z</time>
      </trkpt>
      <trkpt lat="48.68094" lon="1.80433">
        <ele>168</ele>
        <time>2013-08-17T12:42:38Z</time>
      </trkpt>
      <trkpt lat="48.68094" lon="1.80428">
        <ele>168</ele>
        <time>2013-08-17T12:42:40Z</time>
      </trkpt>
      <trkpt lat="48.68095" lon="1.80421">
        <ele>168</ele>
        <time>2013-08-17T12:42:43Z</time>
      </trkpt>
      <trkpt lat="48.68095" lon="1.80417">
        <ele>168</ele>
        <time>2013-08-17T12:42:45Z</time>
      </trkpt>
      <trkpt lat="48.68094" lon="1.80412">
        <ele>168</ele>
        <time>2013-08-17T12:42:48Z</time>
      </trkpt>
      <trkpt lat="48.68095" lon="1.80408">
        <ele>168</ele>
        <time>2013-08-17T12:42:50Z</time>
      </trkpt>
      <trkpt lat="48.68095" lon="1.80404">
        <ele>168</ele>
        <time>2013-08-17T12:42:52Z</time>
      </trkpt>
      <trkpt lat="48.68095" lon="1.80399">
        <ele>168</ele>
        <time>2013-08-17T12:42:54Z</time>
      </trkpt>
      <trkpt lat="48.68095" lon="1.80394">
        <ele>168</ele>
        <time>2013-08-17T12:42:56Z</time>
      </trkpt>
      <trkpt lat="48.68095" lon="1.80388">
        <ele>168</ele>
        <time>2013-08-17T12:42:59Z</time>
      </trkpt>
      <trkpt lat="48.68095" lon="1.80384">
        <ele>168</ele>
        <time>2013-08-17T12:43:01Z</time>
      </trkpt>
      <trkpt lat="48.68095" lon="1.80377">
        <ele>168</ele>
        <time>2013-08-17T12:43:04Z</time>
      </trkpt>
      <trkpt lat="48.68095" lon="1.80372">
        <ele>168</ele>
        <time>2013-08-17T12:43:06Z</time>
      </trkpt>
      <trkpt lat="48.68095" lon="1.80368">
        <ele>168</ele>
        <time>2013-08-17T12:43:08Z</time>
      </trkpt>
      <trkpt lat="48.68095" lon="1.80363">
        <ele>168</ele>
        <time>2013-08-17T12:43:10Z</time>
      </trkpt>
      <trkpt lat="48.68095" lon="1.80358">
        <ele>168</ele>
        <time>2013-08-17T12:43:12Z</time>
      </trkpt>
      <trkpt lat="48.68094" lon="1.80352">
        <ele>168</ele>
        <time>2013-08-17T12:43:15Z</time>
      </trkpt>
      <trkpt lat="48.68094" lon="1.80348">
        <ele>168</ele>
        <time>2013-08-17T12:43:17Z</time>
      </trkpt>
      <trkpt lat="48.68095" lon="1.80341">
        <ele>168</ele>
        <time>2013-08-17T12:43:20Z</time>
      </trkpt>
      <trkpt lat="48.68095" lon="1.80337">
        <ele>168</ele>
        <time>2013-08-17T12:43:22Z</time>
      </trkpt>
      <trkpt lat="48.68095" lon="1.8033">
        <ele>168</ele>
        <time>2013-08-17T12:43:25Z</time>
      </trkpt>
      <trkpt lat="48.68095" lon="1.80326">
        <ele>168</ele>
        <time>2013-08-17T12:43:27Z</time>
      </trkpt>
      <trkpt lat="48.68096" lon="1.8032">
        <ele>168</ele>
        <time>2013-08-17T12:43:30Z</time>
      </trkpt>
      <trkpt lat="48.68096" lon="1.80316">
        <ele>168</ele>
        <time>2013-08-17T12:43:32Z</time>
      </trkpt>
      <trkpt lat="48.68098" lon="1.80309">
        <ele>168</ele>
        <time>2013-08-17T12:43:35Z</time>
      </trkpt>
      <trkpt lat="48.68099" lon="1.80305">
        <ele>168</ele>
        <time>2013-08-17T12:43:37Z</time>
      </trkpt>
      <trkpt lat="48.681" lon="1.80298">
        <ele>168</ele>
        <time>2013-08-17T12:43:40Z</time>
      </trkpt>
      <trkpt lat="48.68101" lon="1.80294">
        <ele>167</ele>
        <time>2013-08-17T12:43:42Z</time>
      </trkpt>
      <trkpt lat="48.68102" lon="1.80287">
        <ele>166</ele>
        <time>2013-08-17T12:43:45Z</time>
      </trkpt>
      <trkpt lat="48.68102" lon="1.80282">
        <ele>165</ele>
        <time>2013-08-17T12:43:47Z</time>
      </trkpt>
      <trkpt lat="48.68103" lon="1.80275">
        <ele>165</ele>
        <time>2013-08-17T12:43:50Z</time>
      </trkpt>
      <trkpt lat="48.68103" lon="1.8027">
        <ele>165</ele>
        <time>2013-08-17T12:43:52Z</time>
      </trkpt>
      <trkpt lat="48.68103" lon="1.80265">
        <ele>165</ele>
        <time>2013-08-17T12:43:54Z</time>
      </trkpt>
      <trkpt lat="48.68104" lon="1.80258">
        <ele>165</ele>
        <time>2013-08-17T12:43:57Z</time>
      </trkpt>
      <trkpt lat="48.68105" lon="1.80251">
        <ele>165</ele>
        <time>2013-08-17T12:44:00Z</time>
      </trkpt>
      <trkpt lat="48.68106" lon="1.80246">
        <ele>165</ele>
        <time>2013-08-17T12:44:02Z</time>
      </trkpt>
      <trkpt lat="48.68107" lon="1.80239">
        <ele>165</ele>
        <time>2013-08-17T12:44:05Z</time>
      </trkpt>
      <trkpt lat="48.68107" lon="1.80235">
        <ele>165</ele>
        <time>2013-08-17T12:44:07Z</time>
      </trkpt>
      <trkpt lat="48.68108" lon="1.80228">
        <ele>165</ele>
        <time>2013-08-17T12:44:10Z</time>
      </trkpt>
      <trkpt lat="48.68108" lon="1.80223">
        <ele>165</ele>
        <time>2013-08-17T12:44:12Z</time>
      </trkpt>
      <trkpt lat="48.68108" lon="1.80216">
        <ele>165</ele>
        <time>2013-08-17T12:44:15Z</time>
      </trkpt>
      <trkpt lat="48.68109" lon="1.80212">
        <ele>165</ele>
        <time>2013-08-17T12:44:17Z</time>
      </trkpt>
      <trkpt lat="48.68109" lon="1.80205">
        <ele>165</ele>
        <time>2013-08-17T12:44:20Z</time>
      </trkpt>
      <trkpt lat="48.68108" lon="1.802">
        <ele>165</ele>
        <time>2013-08-17T12:44:22Z</time>
      </trkpt>
      <trkpt lat="48.68109" lon="1.80193">
        <ele>165</ele>
        <time>2013-08-17T12:44:25Z</time>
      </trkpt>
      <trkpt lat="48.68109" lon="1.80189">
        <ele>165</ele>
        <time>2013-08-17T12:44:27Z</time>
      </trkpt>
      <trkpt lat="48.68109" lon="1.80182">
        <ele>165</ele>
        <time>2013-08-17T12:44:30Z</time>
      </trkpt>
      <trkpt lat="48.68108" lon="1.80177">
        <ele>165</ele>
        <time>2013-08-17T12:44:32Z</time>
      </trkpt>
      <trkpt lat="48.68108" lon="1.80169">
        <ele>165</ele>
        <time>2013-08-17T12:44:35Z</time>
      </trkpt>
      <trkpt lat="48.6811" lon="1.80164">
        <ele>165</ele>
        <time>2013-08-17T12:44:37Z</time>
      </trkpt>
      <trkpt lat="48.6811" lon="1.80157">
        <ele>165</ele>
        <time>2013-08-17T12:44:40Z</time>
      </trkpt>
      <trkpt lat="48.6811" lon="1.80152">
        <ele>165</ele>
        <time>2013-08-17T12:44:42Z</time>
      </trkpt>
      <trkpt lat="48.68111" lon="1.80146">
        <ele>165</ele>
        <time>2013-08-17T12:44:45Z</time>
      </trkpt>
      <trkpt lat="48.68111" lon="1.80141">
        <ele>165</ele>
        <time>2013-08-17T12:44:47Z</time>
      </trkpt>
      <trkpt lat="48.68112" lon="1.80134">
        <ele>165</ele>
        <time>2013-08-17T12:44:51Z</time>
      </trkpt>
      <trkpt lat="48.68113" lon="1.80127">
        <ele>165</ele>
        <time>2013-08-17T12:44:53Z</time>
      </trkpt>
      <trkpt lat="48.68112" lon="1.8012">
        <ele>165</ele>
        <time>2013-08-17T12:44:56Z</time>
      </trkpt>
      <trkpt lat="48.68112" lon="1.80115">
        <ele>165</ele>
        <time>2013-08-17T12:44:58Z</time>
      </trkpt>
      <trkpt lat="48.68113" lon="1.8011">
        <ele>165</ele>
        <time>2013-08-17T12:45:00Z</time>
      </trkpt>
      <trkpt lat="48.68114" lon="1.80105">
        <ele>165</ele>
        <time>2013-08-17T12:45:02Z</time>
      </trkpt>
      <trkpt lat="48.68114" lon="1.80099">
        <ele>165</ele>
        <time>2013-08-17T12:45:05Z</time>
      </trkpt>
      <trkpt lat="48.68115" lon="1.80094">
        <ele>165</ele>
        <time>2013-08-17T12:45:07Z</time>
      </trkpt>
      <trkpt lat="48.68115" lon="1.80089">
        <ele>165</ele>
        <time>2013-08-17T12:45:09Z</time>
      </trkpt>
      <trkpt lat="48.68114" lon="1.80081">
        <ele>165</ele>
        <time>2013-08-17T12:45:12Z</time>
      </trkpt>
      <trkpt lat="48.68114" lon="1.80076">
        <ele>165</ele>
        <time>2013-08-17T12:45:14Z</time>
      </trkpt>
      <trkpt lat="48.68113" lon="1.80071">
        <ele>165</ele>
        <time>2013-08-17T12:45:16Z</time>
      </trkpt>
      <trkpt lat="48.68114" lon="1.80067">
        <ele>165</ele>
        <time>2013-08-17T12:45:18Z</time>
      </trkpt>
      <trkpt lat="48.68114" lon="1.80059">
        <ele>165</ele>
        <time>2013-08-17T12:45:21Z</time>
      </trkpt>
      <trkpt lat="48.68115" lon="1.80054">
        <ele>165</ele>
        <time>2013-08-17T12:45:23Z</time>
      </trkpt>
      <trkpt lat="48.68116" lon="1.80051">
        <ele>165</ele>
        <time>2013-08-17T12:45:25Z</time>
      </trkpt>
      <trkpt lat="48.68116" lon="1.80043">
        <ele>165</ele>
        <time>2013-08-17T12:45:28Z</time>
      </trkpt>
      <trkpt lat="48.68117" lon="1.80039">
        <ele>165</ele>
        <time>2013-08-17T12:45:30Z</time>
      </trkpt>
      <trkpt lat="48.68118" lon="1.80033">
        <ele>165</ele>
        <time>2013-08-17T12:45:33Z</time>
      </trkpt>
      <trkpt lat="48.68118" lon="1.80026">
        <ele>165</ele>
        <time>2013-08-17T12:45:36Z</time>
      </trkpt>
      <trkpt lat="48.68119" lon="1.80022">
        <ele>165</ele>
        <time>2013-08-17T12:45:38Z</time>
      </trkpt>
      <trkpt lat="48.6812" lon="1.80018">
        <ele>165</ele>
        <time>2013-08-17T12:45:40Z</time>
      </trkpt>
      <trkpt lat="48.68121" lon="1.80013">
        <ele>165</ele>
        <time>2013-08-17T12:45:42Z</time>
      </trkpt>
      <trkpt lat="48.68122" lon="1.80007">
        <ele>164</ele>
        <time>2013-08-17T12:45:45Z</time>
      </trkpt>
      <trkpt lat="48.68124" lon="1.80003">
        <ele>163</ele>
        <time>2013-08-17T12:45:47Z</time>
      </trkpt>
      <trkpt lat="48.68126" lon="1.79998">
        <ele>161</ele>
        <time>2013-08-17T12:45:49Z</time>
      </trkpt>
      <trkpt lat="48.68127" lon="1.79991">
        <ele>159</ele>
        <time>2013-08-17T12:45:52Z</time>
      </trkpt>
      <trkpt lat="48.68128" lon="1.79987">
        <ele>157</ele>
        <time>2013-08-17T12:45:54Z</time>
      </trkpt>
      <trkpt lat="48.68132" lon="1.79981">
        <ele>155</ele>
        <time>2013-08-17T12:45:57Z</time>
      </trkpt>
      <trkpt lat="48.68132" lon="1.79977">
        <ele>154</ele>
        <time>2013-08-17T12:45:59Z</time>
      </trkpt>
      <trkpt lat="48.68132" lon="1.79972">
        <ele>154</ele>
        <time>2013-08-17T12:46:01Z</time>
      </trkpt>
      <trkpt lat="48.68133" lon="1.79967">
        <ele>154</ele>
        <time>2013-08-17T12:46:03Z</time>
      </trkpt>
      <trkpt lat="48.68134" lon="1.79962">
        <ele>154</ele>
        <time>2013-08-17T12:46:05Z</time>
      </trkpt>
      <trkpt lat="48.68136" lon="1.79957">
        <ele>154</ele>
        <time>2013-08-17T12:46:08Z</time>
      </trkpt>
      <trkpt lat="48.68136" lon="1.79949">
        <ele>154</ele>
        <time>2013-08-17T12:46:11Z</time>
      </trkpt>
      <trkpt lat="48.68135" lon="1.79944">
        <ele>154</ele>
        <time>2013-08-17T12:46:13Z</time>
      </trkpt>
      <trkpt lat="48.68134" lon="1.79938">
        <ele>154</ele>
        <time>2013-08-17T12:46:15Z</time>
      </trkpt>
      <trkpt lat="48.68134" lon="1.79934">
        <ele>154</ele>
        <time>2013-08-17T12:46:17Z</time>
      </trkpt>
      <trkpt lat="48.68133" lon="1.79928">
        <ele>154</ele>
        <time>2013-08-17T12:46:19Z</time>
      </trkpt>
      <trkpt lat="48.68133" lon="1.79923">
        <ele>154</ele>
        <time>2013-08-17T12:46:21Z</time>
      </trkpt>
      <trkpt lat="48.68134" lon="1.79919">
        <ele>154</ele>
        <time>2013-08-17T12:46:23Z</time>
      </trkpt>
      <trkpt lat="48.68133" lon="1.79913">
        <ele>154</ele>
        <time>2013-08-17T12:46:25Z</time>
      </trkpt>
      <trkpt lat="48.68133" lon="1.79909">
        <ele>154</ele>
        <time>2013-08-17T12:46:27Z</time>
      </trkpt>
      <trkpt lat="48.68132" lon="1.79901">
        <ele>154</ele>
        <time>2013-08-17T12:46:30Z</time>
      </trkpt>
      <trkpt lat="48.68129" lon="1.79894">
        <ele>156</ele>
        <time>2013-08-17T12:46:33Z</time>
      </trkpt>
      <trkpt lat="48.68129" lon="1.79889">
        <ele>157</ele>
        <time>2013-08-17T12:46:35Z</time>
      </trkpt>
      <trkpt lat="48.6813" lon="1.79884">
        <ele>158</ele>
        <time>2013-08-17T12:46:37Z</time>
      </trkpt>
      <trkpt lat="48.68134" lon="1.7988">
        <ele>158</ele>
        <time>2013-08-17T12:46:39Z</time>
      </trkpt>
      <trkpt lat="48.68133" lon="1.79874">
        <ele>158</ele>
        <time>2013-08-17T12:46:41Z</time>
      </trkpt>
      <trkpt lat="48.68132" lon="1.79867">
        <ele>158</ele>
        <time>2013-08-17T12:46:43Z</time>
      </trkpt>
      <trkpt lat="48.68128" lon="1.79859">
        <ele>159</ele>
        <time>2013-08-17T12:46:46Z</time>
      </trkpt>
      <trkpt lat="48.68127" lon="1.79856">
        <ele>160</ele>
        <time>2013-08-17T12:46:48Z</time>
      </trkpt>
      <trkpt lat="48.68127" lon="1.79849">
        <ele>160</ele>
        <time>2013-08-17T12:46:51Z</time>
      </trkpt>
      <trkpt lat="48.68127" lon="1.79844">
        <ele>160</ele>
        <time>2013-08-17T12:46:53Z</time>
      </trkpt>
      <trkpt lat="48.68128" lon="1.79841">
        <ele>160</ele>
        <time>2013-08-17T12:46:55Z</time>
      </trkpt>
      <trkpt lat="48.6813" lon="1.79836">
        <ele>160</ele>
        <time>2013-08-17T12:46:57Z</time>
      </trkpt>
      <trkpt lat="48.68132" lon="1.79829">
        <ele>160</ele>
        <time>2013-08-17T12:47:00Z</time>
      </trkpt>
      <trkpt lat="48.68132" lon="1.79824">
        <ele>160</ele>
        <time>2013-08-17T12:47:02Z</time>
      </trkpt>
      <trkpt lat="48.68132" lon="1.7982">
        <ele>160</ele>
        <time>2013-08-17T12:47:04Z</time>
      </trkpt>
      <trkpt lat="48.68133" lon="1.79815">
        <ele>160</ele>
        <time>2013-08-17T12:47:06Z</time>
      </trkpt>
      <trkpt lat="48.6813" lon="1.79809">
        <ele>160</ele>
        <time>2013-08-17T12:47:08Z</time>
      </trkpt>
      <trkpt lat="48.6813" lon="1.79805">
        <ele>160</ele>
        <time>2013-08-17T12:47:10Z</time>
      </trkpt>
      <trkpt lat="48.68132" lon="1.798">
        <ele>160</ele>
        <time>2013-08-17T12:47:12Z</time>
      </trkpt>
      <trkpt lat="48.68132" lon="1.79795">
        <ele>160</ele>
        <time>2013-08-17T12:47:14Z</time>
      </trkpt>
      <trkpt lat="48.68132" lon="1.7979">
        <ele>160</ele>
        <time>2013-08-17T12:47:16Z</time>
      </trkpt>
      <trkpt lat="48.6813" lon="1.79785">
        <ele>160</ele>
        <time>2013-08-17T12:47:18Z</time>
      </trkpt>
      <trkpt lat="48.6813" lon="1.7978">
        <ele>160</ele>
        <time>2013-08-17T12:47:20Z</time>
      </trkpt>
      <trkpt lat="48.68128" lon="1.79774">
        <ele>160</ele>
        <time>2013-08-17T12:47:22Z</time>
      </trkpt>
      <trkpt lat="48.68129" lon="1.79769">
        <ele>160</ele>
        <time>2013-08-17T12:47:24Z</time>
      </trkpt>
      <trkpt lat="48.6813" lon="1.79762">
        <ele>161</ele>
        <time>2013-08-17T12:47:26Z</time>
      </trkpt>
      <trkpt lat="48.68131" lon="1.79758">
        <ele>162</ele>
        <time>2013-08-17T12:47:28Z</time>
      </trkpt>
      <trkpt lat="48.68132" lon="1.79753">
        <ele>162</ele>
        <time>2013-08-17T12:47:30Z</time>
      </trkpt>
      <trkpt lat="48.68133" lon="1.79748">
        <ele>163</ele>
        <time>2013-08-17T12:47:33Z</time>
      </trkpt>
      <trkpt lat="48.68135" lon="1.79745">
        <ele>163</ele>
        <time>2013-08-17T12:47:35Z</time>
      </trkpt>
      <trkpt lat="48.68136" lon="1.79738">
        <ele>163</ele>
        <time>2013-08-17T12:47:37Z</time>
      </trkpt>
      <trkpt lat="48.68136" lon="1.79729">
        <ele>163</ele>
        <time>2013-08-17T12:47:39Z</time>
      </trkpt>
      <trkpt lat="48.68134" lon="1.79722">
        <ele>163</ele>
        <time>2013-08-17T12:47:41Z</time>
      </trkpt>
      <trkpt lat="48.68136" lon="1.79717">
        <ele>163</ele>
        <time>2013-08-17T12:47:43Z</time>
      </trkpt>
      <trkpt lat="48.68137" lon="1.79712">
        <ele>163</ele>
        <time>2013-08-17T12:47:45Z</time>
      </trkpt>
      <trkpt lat="48.68137" lon="1.79707">
        <ele>163</ele>
        <time>2013-08-17T12:47:47Z</time>
      </trkpt>
      <trkpt lat="48.68138" lon="1.79702">
        <ele>163</ele>
        <time>2013-08-17T12:47:49Z</time>
      </trkpt>
      <trkpt lat="48.68137" lon="1.79697">
        <ele>163</ele>
        <time>2013-08-17T12:47:51Z</time>
      </trkpt>
      <trkpt lat="48.68135" lon="1.79688">
        <ele>163</ele>
        <time>2013-08-17T12:47:54Z</time>
      </trkpt>
      <trkpt lat="48.68135" lon="1.79681">
        <ele>163</ele>
        <time>2013-08-17T12:47:57Z</time>
      </trkpt>
      <trkpt lat="48.68134" lon="1.79676">
        <ele>163</ele>
        <time>2013-08-17T12:47:59Z</time>
      </trkpt>
      <trkpt lat="48.68132" lon="1.79669">
        <ele>163</ele>
        <time>2013-08-17T12:48:02Z</time>
      </trkpt>
      <trkpt lat="48.68132" lon="1.79665">
        <ele>163</ele>
        <time>2013-08-17T12:48:04Z</time>
      </trkpt>
      <trkpt lat="48.68135" lon="1.79661">
        <ele>163</ele>
        <time>2013-08-17T12:48:06Z</time>
      </trkpt>
      <trkpt lat="48.68134" lon="1.79654">
        <ele>163</ele>
        <time>2013-08-17T12:48:09Z</time>
      </trkpt>
      <trkpt lat="48.68133" lon="1.79649">
        <ele>163</ele>
        <time>2013-08-17T12:48:11Z</time>
      </trkpt>
      <trkpt lat="48.68133" lon="1.79645">
        <ele>163</ele>
        <time>2013-08-17T12:48:13Z</time>
      </trkpt>
      <trkpt lat="48.68133" lon="1.7964">
        <ele>163</ele>
        <time>2013-08-17T12:48:15Z</time>
      </trkpt>
      <trkpt lat="48.68136" lon="1.79635">
        <ele>163</ele>
        <time>2013-08-17T12:48:17Z</time>
      </trkpt>
      <trkpt lat="48.68138" lon="1.79631">
        <ele>163</ele>
        <time>2013-08-17T12:48:19Z</time>
      </trkpt>
      <trkpt lat="48.68137" lon="1.79625">
        <ele>163</ele>
        <time>2013-08-17T12:48:21Z</time>
      </trkpt>
      <trkpt lat="48.68136" lon="1.7962">
        <ele>163</ele>
        <time>2013-08-17T12:48:23Z</time>
      </trkpt>
      <trkpt lat="48.68136" lon="1.79615">
        <ele>163</ele>
        <time>2013-08-17T12:48:25Z</time>
      </trkpt>
      <trkpt lat="48.68135" lon="1.7961">
        <ele>163</ele>
        <time>2013-08-17T12:48:27Z</time>
      </trkpt>
      <trkpt lat="48.68137" lon="1.79604">
        <ele>163</ele>
        <time>2013-08-17T12:48:30Z</time>
      </trkpt>
      <trkpt lat="48.68137" lon="1.79596">
        <ele>163</ele>
        <time>2013-08-17T12:48:33Z</time>
      </trkpt>
      <trkpt lat="48.68137" lon="1.7959">
        <ele>163</ele>
        <time>2013-08-17T12:48:35Z</time>
      </trkpt>
      <trkpt lat="48.68138" lon="1.79585">
        <ele>163</ele>
        <time>2013-08-17T12:48:37Z</time>
      </trkpt>
      <trkpt lat="48.68138" lon="1.79579">
        <ele>163</ele>
        <time>2013-08-17T12:48:39Z</time>
      </trkpt>
      <trkpt lat="48.68138" lon="1.79574">
        <ele>163</ele>
        <time>2013-08-17T12:48:41Z</time>
      </trkpt>
      <trkpt lat="48.68138" lon="1.79566">
        <ele>163</ele>
        <time>2013-08-17T12:48:44Z</time>
      </trkpt>
      <trkpt lat="48.68138" lon="1.7956">
        <ele>163</ele>
        <time>2013-08-17T12:48:46Z</time>
      </trkpt>
      <trkpt lat="48.68139" lon="1.7955">
        <ele>163</ele>
        <time>2013-08-17T12:48:49Z</time>
      </trkpt>
      <trkpt lat="48.68139" lon="1.79541">
        <ele>163</ele>
        <time>2013-08-17T12:48:52Z</time>
      </trkpt>
      <trkpt lat="48.6814" lon="1.79537">
        <ele>163</ele>
        <time>2013-08-17T12:48:54Z</time>
      </trkpt>
      <trkpt lat="48.68141" lon="1.79532">
        <ele>163</ele>
        <time>2013-08-17T12:48:56Z</time>
      </trkpt>
      <trkpt lat="48.68142" lon="1.79527">
        <ele>163</ele>
        <time>2013-08-17T12:48:58Z</time>
      </trkpt>
      <trkpt lat="48.68142" lon="1.79523">
        <ele>163</ele>
        <time>2013-08-17T12:49:00Z</time>
      </trkpt>
      <trkpt lat="48.68142" lon="1.79519">
        <ele>163</ele>
        <time>2013-08-17T12:49:02Z</time>
      </trkpt>
      <trkpt lat="48.68143" lon="1.79512">
        <ele>163</ele>
        <time>2013-08-17T12:49:05Z</time>
      </trkpt>
      <trkpt lat="48.68143" lon="1.79506">
        <ele>163</ele>
        <time>2013-08-17T12:49:07Z</time>
      </trkpt>
      <trkpt lat="48.68144" lon="1.79499">
        <ele>163</ele>
        <time>2013-08-17T12:49:09Z</time>
      </trkpt>
      <trkpt lat="48.68144" lon="1.79494">
        <ele>163</ele>
        <time>2013-08-17T12:49:11Z</time>
      </trkpt>
      <trkpt lat="48.68144" lon="1.79489">
        <ele>163</ele>
        <time>2013-08-17T12:49:13Z</time>
      </trkpt>
      <trkpt lat="48.68145" lon="1.79484">
        <ele>163</ele>
        <time>2013-08-17T12:49:15Z</time>
      </trkpt>
      <trkpt lat="48.68146" lon="1.79477">
        <ele>163</ele>
        <time>2013-08-17T12:49:18Z</time>
      </trkpt>
      <trkpt lat="48.68147" lon="1.79472">
        <ele>163</ele>
        <time>2013-08-17T12:49:20Z</time>
      </trkpt>
      <trkpt lat="48.68148" lon="1.79467">
        <ele>163</ele>
        <time>2013-08-17T12:49:22Z</time>
      </trkpt>
      <trkpt lat="48.68149" lon="1.79461">
        <ele>163</ele>
        <time>2013-08-17T12:49:25Z</time>
      </trkpt>
      <trkpt lat="48.68149" lon="1.79456">
        <ele>163</ele>
        <time>2013-08-17T12:49:27Z</time>
      </trkpt>
      <trkpt lat="48.6815" lon="1.79452">
        <ele>163</ele>
        <time>2013-08-17T12:49:29Z</time>
      </trkpt>
      <trkpt lat="48.6815" lon="1.79447">
        <ele>163</ele>
        <time>2013-08-17T12:49:31Z</time>
      </trkpt>
      <trkpt lat="48.6815" lon="1.79442">
        <ele>163</ele>
        <time>2013-08-17T12:49:33Z</time>
      </trkpt>
      <trkpt lat="48.6815" lon="1.79435">
        <ele>163</ele>
        <time>2013-08-17T12:49:36Z</time>
      </trkpt>
      <trkpt lat="48.6815" lon="1.7943">
        <ele>163</ele>
        <time>2013-08-17T12:49:38Z</time>
      </trkpt>
      <trkpt lat="48.6815" lon="1.79422">
        <ele>164</ele>
        <time>2013-08-17T12:49:41Z</time>
      </trkpt>
      <trkpt lat="48.68148" lon="1.79414">
        <ele>165</ele>
        <time>2013-08-17T12:49:44Z</time>
      </trkpt>
      <trkpt lat="48.68147" lon="1.79409">
        <ele>165</ele>
        <time>2013-08-17T12:49:46Z</time>
      </trkpt>
      <trkpt lat="48.68146" lon="1.79401">
        <ele>166</ele>
        <time>2013-08-17T12:49:49Z</time>
      </trkpt>
      <trkpt lat="48.68147" lon="1.79397">
        <ele>167</ele>
        <time>2013-08-17T12:49:51Z</time>
      </trkpt>
      <trkpt lat="48.68148" lon="1.79392">
        <ele>167</ele>
        <time>2013-08-17T12:49:53Z</time>
      </trkpt>
      <trkpt lat="48.68149" lon="1.79385">
        <ele>167</ele>
        <time>2013-08-17T12:49:56Z</time>
      </trkpt>
      <trkpt lat="48.6815" lon="1.79381">
        <ele>167</ele>
        <time>2013-08-17T12:49:58Z</time>
      </trkpt>
      <trkpt lat="48.68149" lon="1.79373">
        <ele>167</ele>
        <time>2013-08-17T12:50:01Z</time>
      </trkpt>
      <trkpt lat="48.68148" lon="1.79367">
        <ele>167</ele>
        <time>2013-08-17T12:50:03Z</time>
      </trkpt>
      <trkpt lat="48.68148" lon="1.7936">
        <ele>167</ele>
        <time>2013-08-17T12:50:06Z</time>
      </trkpt>
      <trkpt lat="48.68148" lon="1.79355">
        <ele>167</ele>
        <time>2013-08-17T12:50:08Z</time>
      </trkpt>
      <trkpt lat="48.68148" lon="1.7935">
        <ele>167</ele>
        <time>2013-08-17T12:50:10Z</time>
      </trkpt>
      <trkpt lat="48.68149" lon="1.79341">
        <ele>167</ele>
        <time>2013-08-17T12:50:13Z</time>
      </trkpt>
      <trkpt lat="48.68149" lon="1.79336">
        <ele>167</ele>
        <time>2013-08-17T12:50:15Z</time>
      </trkpt>
      <trkpt lat="48.68149" lon="1.79331">
        <ele>167</ele>
        <time>2013-08-17T12:50:17Z</time>
      </trkpt>
      <trkpt lat="48.6815" lon="1.79325">
        <ele>167</ele>
        <time>2013-08-17T12:50:19Z</time>
      </trkpt>
      <trkpt lat="48.68151" lon="1.79321">
        <ele>167</ele>
        <time>2013-08-17T12:50:21Z</time>
      </trkpt>
      <trkpt lat="48.68152" lon="1.79316">
        <ele>167</ele>
        <time>2013-08-17T12:50:23Z</time>
      </trkpt>
      <trkpt lat="48.68153" lon="1.79312">
        <ele>167</ele>
        <time>2013-08-17T12:50:25Z</time>
      </trkpt>
      <trkpt lat="48.68154" lon="1.79307">
        <ele>167</ele>
        <time>2013-08-17T12:50:27Z</time>
      </trkpt>
      <trkpt lat="48.68155" lon="1.79302">
        <ele>167</ele>
        <time>2013-08-17T12:50:29Z</time>
      </trkpt>
      <trkpt lat="48.68156" lon="1.79295">
        <ele>167</ele>
        <time>2013-08-17T12:50:32Z</time>
      </trkpt>
      <trkpt lat="48.68157" lon="1.7929">
        <ele>167</ele>
        <time>2013-08-17T12:50:34Z</time>
      </trkpt>
      <trkpt lat="48.68158" lon="1.79283">
        <ele>167</ele>
        <time>2013-08-17T12:50:37Z</time>
      </trkpt>
      <trkpt lat="48.68159" lon="1.79279">
        <ele>167</ele>
        <time>2013-08-17T12:50:39Z</time>
      </trkpt>
      <trkpt lat="48.6816" lon="1.79272">
        <ele>167</ele>
        <time>2013-08-17T12:50:42Z</time>
      </trkpt>
      <trkpt lat="48.6816" lon="1.79265">
        <ele>167</ele>
        <time>2013-08-17T12:50:45Z</time>
      </trkpt>
      <trkpt lat="48.68159" lon="1.79258">
        <ele>167</ele>
        <time>2013-08-17T12:50:48Z</time>
      </trkpt>
      <trkpt lat="48.68158" lon="1.79253">
        <ele>167</ele>
        <time>2013-08-17T12:50:50Z</time>
      </trkpt>
      <trkpt lat="48.68158" lon="1.79248">
        <ele>167</ele>
        <time>2013-08-17T12:50:52Z</time>
      </trkpt>
      <trkpt lat="48.68159" lon="1.79241">
        <ele>167</ele>
        <time>2013-08-17T12:50:55Z</time>
      </trkpt>
      <trkpt lat="48.6816" lon="1.79236">
        <ele>167</ele>
        <time>2013-08-17T12:50:57Z</time>
      </trkpt>
      <trkpt lat="48.68159" lon="1.79231">
        <ele>167</ele>
        <time>2013-08-17T12:50:59Z</time>
      </trkpt>
      <trkpt lat="48.68158" lon="1.79226">
        <ele>167</ele>
        <time>2013-08-17T12:51:01Z</time>
      </trkpt>
      <trkpt lat="48.68158" lon="1.79221">
        <ele>167</ele>
        <time>2013-08-17T12:51:03Z</time>
      </trkpt>
      <trkpt lat="48.68158" lon="1.79213">
        <ele>167</ele>
        <time>2013-08-17T12:51:06Z</time>
      </trkpt>
      <trkpt lat="48.68159" lon="1.79209">
        <ele>167</ele>
        <time>2013-08-17T12:51:08Z</time>
      </trkpt>
      <trkpt lat="48.68161" lon="1.79202">
        <ele>167</ele>
        <time>2013-08-17T12:51:11Z</time>
      </trkpt>
      <trkpt lat="48.6816" lon="1.79193">
        <ele>167</ele>
        <time>2013-08-17T12:51:14Z</time>
      </trkpt>
      <trkpt lat="48.6816" lon="1.79187">
        <ele>167</ele>
        <time>2013-08-17T12:51:16Z</time>
      </trkpt>
      <trkpt lat="48.6816" lon="1.79182">
        <ele>167</ele>
        <time>2013-08-17T12:51:18Z</time>
      </trkpt>
      <trkpt lat="48.68159" lon="1.79177">
        <ele>167</ele>
        <time>2013-08-17T12:51:20Z</time>
      </trkpt>
      <trkpt lat="48.6816" lon="1.79172">
        <ele>167</ele>
        <time>2013-08-17T12:51:22Z</time>
      </trkpt>
      <trkpt lat="48.6816" lon="1.79166">
        <ele>167</ele>
        <time>2013-08-17T12:51:24Z</time>
      </trkpt>
      <trkpt lat="48.6816" lon="1.79161">
        <ele>167</ele>
        <time>2013-08-17T12:51:26Z</time>
      </trkpt>
      <trkpt lat="48.6816" lon="1.79153">
        <ele>167</ele>
        <time>2013-08-17T12:51:29Z</time>
      </trkpt>
      <trkpt lat="48.68161" lon="1.79145">
        <ele>167</ele>
        <time>2013-08-17T12:51:32Z</time>
      </trkpt>
      <trkpt lat="48.68161" lon="1.7914">
        <ele>167</ele>
        <time>2013-08-17T12:51:34Z</time>
      </trkpt>
      <trkpt lat="48.68163" lon="1.79133">
        <ele>167</ele>
        <time>2013-08-17T12:51:37Z</time>
      </trkpt>
      <trkpt lat="48.68164" lon="1.79127">
        <ele>167</ele>
        <time>2013-08-17T12:51:40Z</time>
      </trkpt>
      <trkpt lat="48.68166" lon="1.79122">
        <ele>167</ele>
        <time>2013-08-17T12:51:42Z</time>
      </trkpt>
      <trkpt lat="48.68167" lon="1.79118">
        <ele>167</ele>
        <time>2013-08-17T12:51:44Z</time>
      </trkpt>
      <trkpt lat="48.68168" lon="1.79114">
        <ele>167</ele>
        <time>2013-08-17T12:51:46Z</time>
      </trkpt>
      <trkpt lat="48.68169" lon="1.79109">
        <ele>167</ele>
        <time>2013-08-17T12:51:48Z</time>
      </trkpt>
      <trkpt lat="48.6817" lon="1.79102">
        <ele>167</ele>
        <time>2013-08-17T12:51:51Z</time>
      </trkpt>
      <trkpt lat="48.68171" lon="1.79097">
        <ele>167</ele>
        <time>2013-08-17T12:51:53Z</time>
      </trkpt>
      <trkpt lat="48.68171" lon="1.7909">
        <ele>166</ele>
        <time>2013-08-17T12:51:56Z</time>
      </trkpt>
      <trkpt lat="48.68172" lon="1.79085">
        <ele>166</ele>
        <time>2013-08-17T12:51:58Z</time>
      </trkpt>
      <trkpt lat="48.68173" lon="1.7908">
        <ele>166</ele>
        <time>2013-08-17T12:52:00Z</time>
      </trkpt>
      <trkpt lat="48.68174" lon="1.79075">
        <ele>166</ele>
        <time>2013-08-17T12:52:02Z</time>
      </trkpt>
      <trkpt lat="48.68175" lon="1.7907">
        <ele>166</ele>
        <time>2013-08-17T12:52:04Z</time>
      </trkpt>
      <trkpt lat="48.68175" lon="1.79065">
        <ele>166</ele>
        <time>2013-08-17T12:52:06Z</time>
      </trkpt>
      <trkpt lat="48.68176" lon="1.79061">
        <ele>166</ele>
        <time>2013-08-17T12:52:08Z</time>
      </trkpt>
      <trkpt lat="48.68176" lon="1.79056">
        <ele>166</ele>
        <time>2013-08-17T12:52:10Z</time>
      </trkpt>
      <trkpt lat="48.68175" lon="1.7905">
        <ele>166</ele>
        <time>2013-08-17T12:52:12Z</time>
      </trkpt>
      <trkpt lat="48.68174" lon="1.79044">
        <ele>166</ele>
        <time>2013-08-17T12:52:14Z</time>
      </trkpt>
      <trkpt lat="48.68174" lon="1.79039">
        <ele>166</ele>
        <time>2013-08-17T12:52:16Z</time>
      </trkpt>
      <trkpt lat="48.68174" lon="1.79034">
        <ele>166</ele>
        <time>2013-08-17T12:52:18Z</time>
      </trkpt>
      <trkpt lat="48.68172" lon="1.79026">
        <ele>166</ele>
        <time>2013-08-17T12:52:21Z</time>
      </trkpt>
      <trkpt lat="48.68172" lon="1.79022">
        <ele>166</ele>
        <time>2013-08-17T12:52:23Z</time>
      </trkpt>
      <trkpt lat="48.68172" lon="1.79014">
        <ele>166</ele>
        <time>2013-08-17T12:52:26Z</time>
      </trkpt>
      <trkpt lat="48.68174" lon="1.79008">
        <ele>166</ele>
        <time>2013-08-17T12:52:29Z</time>
      </trkpt>
      <trkpt lat="48.68175" lon="1.79004">
        <ele>166</ele>
        <time>2013-08-17T12:52:31Z</time>
      </trkpt>
      <trkpt lat="48.68176" lon="1.78999">
        <ele>166</ele>
        <time>2013-08-17T12:52:33Z</time>
      </trkpt>
      <trkpt lat="48.68177" lon="1.78995">
        <ele>166</ele>
        <time>2013-08-17T12:52:35Z</time>
      </trkpt>
      <trkpt lat="48.68175" lon="1.78989">
        <ele>166</ele>
        <time>2013-08-17T12:52:37Z</time>
      </trkpt>
      <trkpt lat="48.68173" lon="1.78983">
        <ele>166</ele>
        <time>2013-08-17T12:52:39Z</time>
      </trkpt>
      <trkpt lat="48.68172" lon="1.78977">
        <ele>166</ele>
        <time>2013-08-17T12:52:41Z</time>
      </trkpt>
      <trkpt lat="48.68172" lon="1.78972">
        <ele>166</ele>
        <time>2013-08-17T12:52:43Z</time>
      </trkpt>
      <trkpt lat="48.68172" lon="1.78966">
        <ele>166</ele>
        <time>2013-08-17T12:52:45Z</time>
      </trkpt>
      <trkpt lat="48.68172" lon="1.78961">
        <ele>166</ele>
        <time>2013-08-17T12:52:47Z</time>
      </trkpt>
      <trkpt lat="48.68172" lon="1.78954">
        <ele>166</ele>
        <time>2013-08-17T12:52:50Z</time>
      </trkpt>
      <trkpt lat="48.68171" lon="1.78949">
        <ele>166</ele>
        <time>2013-08-17T12:52:52Z</time>
      </trkpt>
      <trkpt lat="48.68172" lon="1.78943">
        <ele>166</ele>
        <time>2013-08-17T12:52:55Z</time>
      </trkpt>
      <trkpt lat="48.68173" lon="1.78938">
        <ele>166</ele>
        <time>2013-08-17T12:52:57Z</time>
      </trkpt>
      <trkpt lat="48.68175" lon="1.78932">
        <ele>166</ele>
        <time>2013-08-17T12:53:00Z</time>
      </trkpt>
      <trkpt lat="48.68176" lon="1.78925">
        <ele>166</ele>
        <time>2013-08-17T12:53:03Z</time>
      </trkpt>
      <trkpt lat="48.68177" lon="1.78921">
        <ele>166</ele>
        <time>2013-08-17T12:53:05Z</time>
      </trkpt>
      <trkpt lat="48.68178" lon="1.78916">
        <ele>166</ele>
        <time>2013-08-17T12:53:07Z</time>
      </trkpt>
      <trkpt lat="48.68179" lon="1.78911">
        <ele>166</ele>
        <time>2013-08-17T12:53:09Z</time>
      </trkpt>
      <trkpt lat="48.6818" lon="1.78907">
        <ele>166</ele>
        <time>2013-08-17T12:53:11Z</time>
      </trkpt>
      <trkpt lat="48.68182" lon="1.78904">
        <ele>166</ele>
        <time>2013-08-17T12:53:13Z</time>
      </trkpt>
      <trkpt lat="48.68183" lon="1.78898">
        <ele>166</ele>
        <time>2013-08-17T12:53:16Z</time>
      </trkpt>
      <trkpt lat="48.68184" lon="1.78893">
        <ele>166</ele>
        <time>2013-08-17T12:53:18Z</time>
      </trkpt>
      <trkpt lat="48.68186" lon="1.78886">
        <ele>166</ele>
        <time>2013-08-17T12:53:21Z</time>
      </trkpt>
      <trkpt lat="48.68185" lon="1.78881">
        <ele>166</ele>
        <time>2013-08-17T12:53:23Z</time>
      </trkpt>
      <trkpt lat="48.68187" lon="1.78877">
        <ele>166</ele>
        <time>2013-08-17T12:53:25Z</time>
      </trkpt>
      <trkpt lat="48.68192" lon="1.78872">
        <ele>165</ele>
        <time>2013-08-17T12:53:28Z</time>
      </trkpt>
      <trkpt lat="48.68191" lon="1.78866">
        <ele>165</ele>
        <time>2013-08-17T12:53:30Z</time>
      </trkpt>
      <trkpt lat="48.68194" lon="1.7886">
        <ele>165</ele>
        <time>2013-08-17T12:53:33Z</time>
      </trkpt>
      <trkpt lat="48.68196" lon="1.78857">
        <ele>165</ele>
        <time>2013-08-17T12:53:35Z</time>
      </trkpt>
      <trkpt lat="48.68199" lon="1.78854">
        <ele>165</ele>
        <time>2013-08-17T12:53:37Z</time>
      </trkpt>
      <trkpt lat="48.68198" lon="1.78845">
        <ele>165</ele>
        <time>2013-08-17T12:53:40Z</time>
      </trkpt>
      <trkpt lat="48.68196" lon="1.78839">
        <ele>165</ele>
        <time>2013-08-17T12:53:42Z</time>
      </trkpt>
      <trkpt lat="48.68196" lon="1.78834">
        <ele>165</ele>
        <time>2013-08-17T12:53:44Z</time>
      </trkpt>
      <trkpt lat="48.68196" lon="1.78829">
        <ele>165</ele>
        <time>2013-08-17T12:53:46Z</time>
      </trkpt>
      <trkpt lat="48.68199" lon="1.78823">
        <ele>165</ele>
        <time>2013-08-17T12:53:49Z</time>
      </trkpt>
      <trkpt lat="48.68201" lon="1.78819">
        <ele>165</ele>
        <time>2013-08-17T12:53:51Z</time>
      </trkpt>
      <trkpt lat="48.68204" lon="1.7881">
        <ele>165</ele>
        <time>2013-08-17T12:53:54Z</time>
      </trkpt>
      <trkpt lat="48.6821" lon="1.78796">
        <ele>165</ele>
        <time>2013-08-17T12:53:57Z</time>
      </trkpt>
      <trkpt lat="48.68212" lon="1.78782">
        <ele>165</ele>
        <time>2013-08-17T12:53:59Z</time>
      </trkpt>
      <trkpt lat="48.68218" lon="1.78772">
        <ele>165</ele>
        <time>2013-08-17T12:54:01Z</time>
      </trkpt>
      <trkpt lat="48.68225" lon="1.78763">
        <ele>165</ele>
        <time>2013-08-17T12:54:03Z</time>
      </trkpt>
      <trkpt lat="48.68233" lon="1.78753">
        <ele>165</ele>
        <time>2013-08-17T12:54:05Z</time>
      </trkpt>
      <trkpt lat="48.68236" lon="1.78741">
        <ele>165</ele>
        <time>2013-08-17T12:54:07Z</time>
      </trkpt>
      <trkpt lat="48.68243" lon="1.78729">
        <ele>165</ele>
        <time>2013-08-17T12:54:09Z</time>
      </trkpt>
      <trkpt lat="48.68252" lon="1.78705">
        <ele>164</ele>
        <time>2013-08-17T12:54:12Z</time>
      </trkpt>
      <trkpt lat="48.68256" lon="1.78678">
        <ele>164</ele>
        <time>2013-08-17T12:54:14Z</time>
      </trkpt>
      <trkpt lat="48.68274" lon="1.78643">
        <ele>164</ele>
        <time>2013-08-17T12:54:17Z</time>
      </trkpt>
      <trkpt lat="48.68285" lon="1.78616">
        <ele>163</ele>
        <time>2013-08-17T12:54:19Z</time>
      </trkpt>
      <trkpt lat="48.68294" lon="1.78585">
        <ele>163</ele>
        <time>2013-08-17T12:54:21Z</time>
      </trkpt>
      <trkpt lat="48.68309" lon="1.78543">
        <ele>163</ele>
        <time>2013-08-17T12:54:24Z</time>
      </trkpt>
      <trkpt lat="48.68322" lon="1.78516">
        <ele>163</ele>
        <time>2013-08-17T12:54:27Z</time>
      </trkpt>
      <trkpt lat="48.68332" lon="1.78502">
        <ele>163</ele>
        <time>2013-08-17T12:54:29Z</time>
      </trkpt>
      <trkpt lat="48.6834" lon="1.78487">
        <ele>163</ele>
        <time>2013-08-17T12:54:31Z</time>
      </trkpt>
      <trkpt lat="48.68352" lon="1.78468">
        <ele>163</ele>
        <time>2013-08-17T12:54:34Z</time>
      </trkpt>
      <trkpt lat="48.68359" lon="1.78454">
        <ele>164</ele>
        <time>2013-08-17T12:54:36Z</time>
      </trkpt>
      <trkpt lat="48.68369" lon="1.78435">
        <ele>166</ele>
        <time>2013-08-17T12:54:39Z</time>
      </trkpt>
      <trkpt lat="48.68372" lon="1.78424">
        <ele>167</ele>
        <time>2013-08-17T12:54:41Z</time>
      </trkpt>
      <trkpt lat="48.68379" lon="1.78415">
        <ele>167</ele>
        <time>2013-08-17T12:54:43Z</time>
      </trkpt>
      <trkpt lat="48.68386" lon="1.78405">
        <ele>167</ele>
        <time>2013-08-17T12:54:45Z</time>
      </trkpt>
      <trkpt lat="48.68397" lon="1.78394">
        <ele>167</ele>
        <time>2013-08-17T12:54:48Z</time>
      </trkpt>
      <trkpt lat="48.68403" lon="1.7839">
        <ele>167</ele>
        <time>2013-08-17T12:54:50Z</time>
      </trkpt>
      <trkpt lat="48.68407" lon="1.78388">
        <ele>167</ele>
        <time>2013-08-17T12:54:52Z</time>
      </trkpt>
      <trkpt lat="48.68401" lon="1.78381">
        <ele>167</ele>
        <time>2013-08-17T12:54:54Z</time>
      </trkpt>
      <trkpt lat="48.68399" lon="1.78376">
        <ele>167</ele>
        <time>2013-08-17T12:54:56Z</time>
      </trkpt>
      <trkpt lat="48.68396" lon="1.78374">
        <ele>167</ele>
        <time>2013-08-17T12:54:58Z</time>
      </trkpt>
      <trkpt lat="48.68393" lon="1.78373">
        <ele>167</ele>
        <time>2013-08-17T12:55:03Z</time>
      </trkpt>
      <trkpt lat="48.68392" lon="1.78372">
        <ele>167</ele>
        <time>2013-08-17T12:55:06Z</time>
      </trkpt>
      <trkpt lat="48.6839" lon="1.78373">
        <ele>167</ele>
        <time>2013-08-17T12:55:09Z</time>
      </trkpt>
      <trkpt lat="48.68391" lon="1.78373">
        <ele>167</ele>
        <time>2013-08-17T12:55:13Z</time>
      </trkpt>
      <trkpt lat="48.68391" lon="1.78375">
        <ele>168</ele>
        <time>2013-08-17T12:55:18Z</time>
      </trkpt>
      <trkpt lat="48.6839" lon="1.78375">
        <ele>169</ele>
        <time>2013-08-17T12:55:24Z</time>
      </trkpt>
      <trkpt lat="48.68389" lon="1.78376">
        <ele>172</ele>
        <time>2013-08-17T12:55:29Z</time>
      </trkpt>
      <trkpt lat="48.68387" lon="1.78376">
        <ele>174</ele>
        <time>2013-08-17T12:55:31Z</time>
      </trkpt>
      <trkpt lat="48.68388" lon="1.78378">
        <ele>174</ele>
        <time>2013-08-17T12:55:33Z</time>
      </trkpt>
      <trkpt lat="48.68391" lon="1.78379">
        <ele>174</ele>
        <time>2013-08-17T12:55:37Z</time>
      </trkpt>
      <trkpt lat="48.68392" lon="1.78378">
        <ele>174</ele>
        <time>2013-08-17T12:55:41Z</time>
      </trkpt>
      <trkpt lat="48.68393" lon="1.78377">
        <ele>174</ele>
        <time>2013-08-17T12:55:44Z</time>
      </trkpt>
      <trkpt lat="48.68394" lon="1.78376">
        <ele>173</ele>
        <time>2013-08-17T12:55:52Z</time>
      </trkpt>
      <trkpt lat="48.68393" lon="1.78376">
        <ele>173</ele>
        <time>2013-08-17T12:55:56Z</time>
      </trkpt>
      <trkpt lat="48.68393" lon="1.78374">
        <ele>173</ele>
        <time>2013-08-17T12:56:05Z</time>
      </trkpt>
      <trkpt lat="48.68394" lon="1.78374">
        <ele>173</ele>
        <time>2013-08-17T12:56:17Z</time>
      </trkpt>
      <trkpt lat="48.68393" lon="1.78372">
        <ele>173</ele>
        <time>2013-08-17T12:56:26Z</time>
      </trkpt>
      <trkpt lat="48.68394" lon="1.7837">
        <ele>173</ele>
        <time>2013-08-17T12:56:33Z</time>
      </trkpt>
      <trkpt lat="48.68392" lon="1.7837">
        <ele>173</ele>
        <time>2013-08-17T12:56:36Z</time>
      </trkpt>
      <trkpt lat="48.68388" lon="1.78371">
        <ele>173</ele>
        <time>2013-08-17T12:56:39Z</time>
      </trkpt>
      <trkpt lat="48.68387" lon="1.78371">
        <ele>175</ele>
        <time>2013-08-17T12:56:42Z</time>
      </trkpt>
      <trkpt lat="48.68386" lon="1.78369">
        <ele>176</ele>
        <time>2013-08-17T12:56:44Z</time>
      </trkpt>
      <trkpt lat="48.68387" lon="1.78365">
        <ele>177</ele>
        <time>2013-08-17T12:56:46Z</time>
      </trkpt>
      <trkpt lat="48.68388" lon="1.78361">
        <ele>177</ele>
        <time>2013-08-17T12:56:48Z</time>
      </trkpt>
      <trkpt lat="48.68392" lon="1.78355">
        <ele>177</ele>
        <time>2013-08-17T12:56:51Z</time>
      </trkpt>
      <trkpt lat="48.68395" lon="1.78347">
        <ele>177</ele>
        <time>2013-08-17T12:56:53Z</time>
      </trkpt>
      <trkpt lat="48.684" lon="1.78337">
        <ele>177</ele>
        <time>2013-08-17T12:56:56Z</time>
      </trkpt>
      <trkpt lat="48.68405" lon="1.78331">
        <ele>177</ele>
        <time>2013-08-17T12:56:58Z</time>
      </trkpt>
      <trkpt lat="48.68406" lon="1.78327">
        <ele>177</ele>
        <time>2013-08-17T12:57:00Z</time>
      </trkpt>
      <trkpt lat="48.68406" lon="1.78323">
        <ele>177</ele>
        <time>2013-08-17T12:57:02Z</time>
      </trkpt>
      <trkpt lat="48.6841" lon="1.78319">
        <ele>176</ele>
        <time>2013-08-17T12:57:05Z</time>
      </trkpt>
      <trkpt lat="48.68415" lon="1.78318">
        <ele>174</ele>
        <time>2013-08-17T12:57:07Z</time>
      </trkpt>
      <trkpt lat="48.68416" lon="1.78313">
        <ele>174</ele>
        <time>2013-08-17T12:57:09Z</time>
      </trkpt>
      <trkpt lat="48.68419" lon="1.7831">
        <ele>173</ele>
        <time>2013-08-17T12:57:11Z</time>
      </trkpt>
      <trkpt lat="48.68424" lon="1.78309">
        <ele>172</ele>
        <time>2013-08-17T12:57:13Z</time>
      </trkpt>
      <trkpt lat="48.68428" lon="1.78306">
        <ele>171</ele>
        <time>2013-08-17T12:57:15Z</time>
      </trkpt>
      <trkpt lat="48.68431" lon="1.78305">
        <ele>170</ele>
        <time>2013-08-17T12:57:17Z</time>
      </trkpt>
      <trkpt lat="48.68435" lon="1.78299">
        <ele>168</ele>
        <time>2013-08-17T12:57:20Z</time>
      </trkpt>
      <trkpt lat="48.68441" lon="1.78297">
        <ele>166</ele>
        <time>2013-08-17T12:57:23Z</time>
      </trkpt>
      <trkpt lat="48.68446" lon="1.78296">
        <ele>165</ele>
        <time>2013-08-17T12:57:25Z</time>
      </trkpt>
      <trkpt lat="48.6845" lon="1.78294">
        <ele>163</ele>
        <time>2013-08-17T12:57:27Z</time>
      </trkpt>
      <trkpt lat="48.68454" lon="1.78291">
        <ele>161</ele>
        <time>2013-08-17T12:57:29Z</time>
      </trkpt>
      <trkpt lat="48.68459" lon="1.78288">
        <ele>159</ele>
        <time>2013-08-17T12:57:32Z</time>
      </trkpt>
      <trkpt lat="48.68462" lon="1.78286">
        <ele>158</ele>
        <time>2013-08-17T12:57:34Z</time>
      </trkpt>
      <trkpt lat="48.68467" lon="1.78284">
        <ele>156</ele>
        <time>2013-08-17T12:57:37Z</time>
      </trkpt>
      <trkpt lat="48.68468" lon="1.78276">
        <ele>153</ele>
        <time>2013-08-17T12:57:40Z</time>
      </trkpt>
      <trkpt lat="48.68465" lon="1.78269">
        <ele>153</ele>
        <time>2013-08-17T12:57:42Z</time>
      </trkpt>
      <trkpt lat="48.68464" lon="1.78263">
        <ele>153</ele>
        <time>2013-08-17T12:57:44Z</time>
      </trkpt>
      <trkpt lat="48.68464" lon="1.78259">
        <ele>153</ele>
        <time>2013-08-17T12:57:46Z</time>
      </trkpt>
      <trkpt lat="48.68465" lon="1.78254">
        <ele>153</ele>
        <time>2013-08-17T12:57:48Z</time>
      </trkpt>
      <trkpt lat="48.68469" lon="1.78247">
        <ele>153</ele>
        <time>2013-08-17T12:57:52Z</time>
      </trkpt>
      <trkpt lat="48.68474" lon="1.78243">
        <ele>152</ele>
        <time>2013-08-17T12:57:55Z</time>
      </trkpt>
      <trkpt lat="48.68479" lon="1.7824">
        <ele>151</ele>
        <time>2013-08-17T12:57:57Z</time>
      </trkpt>
      <trkpt lat="48.68481" lon="1.78236">
        <ele>151</ele>
        <time>2013-08-17T12:57:59Z</time>
      </trkpt>
      <trkpt lat="48.68484" lon="1.78232">
        <ele>151</ele>
        <time>2013-08-17T12:58:01Z</time>
      </trkpt>
      <trkpt lat="48.68487" lon="1.78228">
        <ele>151</ele>
        <time>2013-08-17T12:58:03Z</time>
      </trkpt>
      <trkpt lat="48.68492" lon="1.78222">
        <ele>151</ele>
        <time>2013-08-17T12:58:06Z</time>
      </trkpt>
      <trkpt lat="48.68494" lon="1.78218">
        <ele>151</ele>
        <time>2013-08-17T12:58:09Z</time>
      </trkpt>
      <trkpt lat="48.68496" lon="1.78215">
        <ele>151</ele>
        <time>2013-08-17T12:58:11Z</time>
      </trkpt>
      <trkpt lat="48.68501" lon="1.7821">
        <ele>151</ele>
        <time>2013-08-17T12:58:13Z</time>
      </trkpt>
      <trkpt lat="48.68505" lon="1.78208">
        <ele>151</ele>
        <time>2013-08-17T12:58:15Z</time>
      </trkpt>
      <trkpt lat="48.68509" lon="1.78204">
        <ele>151</ele>
        <time>2013-08-17T12:58:18Z</time>
      </trkpt>
      <trkpt lat="48.68511" lon="1.782">
        <ele>151</ele>
        <time>2013-08-17T12:58:20Z</time>
      </trkpt>
      <trkpt lat="48.68511" lon="1.78195">
        <ele>151</ele>
        <time>2013-08-17T12:58:23Z</time>
      </trkpt>
      <trkpt lat="48.68514" lon="1.7819">
        <ele>151</ele>
        <time>2013-08-17T12:58:26Z</time>
      </trkpt>
      <trkpt lat="48.68517" lon="1.78186">
        <ele>151</ele>
        <time>2013-08-17T12:58:28Z</time>
      </trkpt>
      <trkpt lat="48.68518" lon="1.78184">
        <ele>151</ele>
        <time>2013-08-17T12:58:30Z</time>
      </trkpt>
      <trkpt lat="48.68518" lon="1.7818">
        <ele>151</ele>
        <time>2013-08-17T12:58:32Z</time>
      </trkpt>
      <trkpt lat="48.68518" lon="1.78175">
        <ele>151</ele>
        <time>2013-08-17T12:58:35Z</time>
      </trkpt>
      <trkpt lat="48.68523" lon="1.7817">
        <ele>151</ele>
        <time>2013-08-17T12:58:37Z</time>
      </trkpt>
      <trkpt lat="48.68525" lon="1.78164">
        <ele>151</ele>
        <time>2013-08-17T12:58:39Z</time>
      </trkpt>
      <trkpt lat="48.68525" lon="1.78159">
        <ele>151</ele>
        <time>2013-08-17T12:58:41Z</time>
      </trkpt>
      <trkpt lat="48.68526" lon="1.78153">
        <ele>151</ele>
        <time>2013-08-17T12:58:44Z</time>
      </trkpt>
      <trkpt lat="48.68528" lon="1.7815">
        <ele>151</ele>
        <time>2013-08-17T12:58:46Z</time>
      </trkpt>
      <trkpt lat="48.68534" lon="1.78148">
        <ele>151</ele>
        <time>2013-08-17T12:58:48Z</time>
      </trkpt>
      <trkpt lat="48.68535" lon="1.78146">
        <ele>152</ele>
        <time>2013-08-17T12:58:50Z</time>
      </trkpt>
      <trkpt lat="48.68537" lon="1.78143">
        <ele>152</ele>
        <time>2013-08-17T12:58:52Z</time>
      </trkpt>
      <trkpt lat="48.68539" lon="1.78139">
        <ele>152</ele>
        <time>2013-08-17T12:58:54Z</time>
      </trkpt>
      <trkpt lat="48.68543" lon="1.78134">
        <ele>152</ele>
        <time>2013-08-17T12:58:56Z</time>
      </trkpt>
      <trkpt lat="48.68544" lon="1.7813">
        <ele>152</ele>
        <time>2013-08-17T12:58:58Z</time>
      </trkpt>
      <trkpt lat="48.6855" lon="1.78128">
        <ele>153</ele>
        <time>2013-08-17T12:59:00Z</time>
      </trkpt>
      <trkpt lat="48.68556" lon="1.78126">
        <ele>153</ele>
        <time>2013-08-17T12:59:02Z</time>
      </trkpt>
      <trkpt lat="48.68562" lon="1.78123">
        <ele>154</ele>
        <time>2013-08-17T12:59:04Z</time>
      </trkpt>
      <trkpt lat="48.6857" lon="1.7812">
        <ele>155</ele>
        <time>2013-08-17T12:59:07Z</time>
      </trkpt>
      <trkpt lat="48.68569" lon="1.78114">
        <ele>155</ele>
        <time>2013-08-17T12:59:09Z</time>
      </trkpt>
      <trkpt lat="48.68569" lon="1.7811">
        <ele>156</ele>
        <time>2013-08-17T12:59:11Z</time>
      </trkpt>
      <trkpt lat="48.68569" lon="1.78105">
        <ele>156</ele>
        <time>2013-08-17T12:59:13Z</time>
      </trkpt>
      <trkpt lat="48.68573" lon="1.78101">
        <ele>158</ele>
        <time>2013-08-17T12:59:16Z</time>
      </trkpt>
      <trkpt lat="48.68578" lon="1.78096">
        <ele>160</ele>
        <time>2013-08-17T12:59:19Z</time>
      </trkpt>
      <trkpt lat="48.68581" lon="1.78093">
        <ele>161</ele>
        <time>2013-08-17T12:59:21Z</time>
      </trkpt>
      <trkpt lat="48.68584" lon="1.78089">
        <ele>161</ele>
        <time>2013-08-17T12:59:23Z</time>
      </trkpt>
      <trkpt lat="48.68589" lon="1.78085">
        <ele>162</ele>
        <time>2013-08-17T12:59:26Z</time>
      </trkpt>
      <trkpt lat="48.68589" lon="1.78081">
        <ele>162</ele>
        <time>2013-08-17T12:59:28Z</time>
      </trkpt>
      <trkpt lat="48.6859" lon="1.78079">
        <ele>162</ele>
        <time>2013-08-17T12:59:30Z</time>
      </trkpt>
      <trkpt lat="48.68592" lon="1.78077">
        <ele>162</ele>
        <time>2013-08-17T12:59:32Z</time>
      </trkpt>
      <trkpt lat="48.68594" lon="1.78071">
        <ele>162</ele>
        <time>2013-08-17T12:59:35Z</time>
      </trkpt>
      <trkpt lat="48.68596" lon="1.78069">
        <ele>163</ele>
        <time>2013-08-17T12:59:37Z</time>
      </trkpt>
      <trkpt lat="48.68598" lon="1.78066">
        <ele>163</ele>
        <time>2013-08-17T12:59:39Z</time>
      </trkpt>
      <trkpt lat="48.68601" lon="1.78061">
        <ele>164</ele>
        <time>2013-08-17T12:59:43Z</time>
      </trkpt>
      <trkpt lat="48.68603" lon="1.78058">
        <ele>164</ele>
        <time>2013-08-17T12:59:45Z</time>
      </trkpt>
      <trkpt lat="48.68607" lon="1.78056">
        <ele>164</ele>
        <time>2013-08-17T12:59:47Z</time>
      </trkpt>
      <trkpt lat="48.68609" lon="1.78054">
        <ele>164</ele>
        <time>2013-08-17T12:59:49Z</time>
      </trkpt>
      <trkpt lat="48.68614" lon="1.7805">
        <ele>164</ele>
        <time>2013-08-17T12:59:52Z</time>
      </trkpt>
      <trkpt lat="48.68614" lon="1.78045">
        <ele>164</ele>
        <time>2013-08-17T12:59:54Z</time>
      </trkpt>
      <trkpt lat="48.68614" lon="1.78042">
        <ele>164</ele>
        <time>2013-08-17T12:59:56Z</time>
      </trkpt>
      <trkpt lat="48.6862" lon="1.78037">
        <ele>164</ele>
        <time>2013-08-17T12:59:59Z</time>
      </trkpt>
      <trkpt lat="48.68624" lon="1.78033">
        <ele>164</ele>
        <time>2013-08-17T13:00:01Z</time>
      </trkpt>
      <trkpt lat="48.68626" lon="1.78031">
        <ele>164</ele>
        <time>2013-08-17T13:00:03Z</time>
      </trkpt>
      <trkpt lat="48.68632" lon="1.78029">
        <ele>164</ele>
        <time>2013-08-17T13:00:06Z</time>
      </trkpt>
      <trkpt lat="48.68636" lon="1.78024">
        <ele>164</ele>
        <time>2013-08-17T13:00:09Z</time>
      </trkpt>
      <trkpt lat="48.68636" lon="1.78021">
        <ele>164</ele>
        <time>2013-08-17T13:00:11Z</time>
      </trkpt>
      <trkpt lat="48.68639" lon="1.78015">
        <ele>164</ele>
        <time>2013-08-17T13:00:14Z</time>
      </trkpt>
      <trkpt lat="48.68641" lon="1.7801">
        <ele>164</ele>
        <time>2013-08-17T13:00:16Z</time>
      </trkpt>
      <trkpt lat="48.68641" lon="1.78005">
        <ele>164</ele>
        <time>2013-08-17T13:00:18Z</time>
      </trkpt>
      <trkpt lat="48.68641" lon="1.78003">
        <ele>165</ele>
        <time>2013-08-17T13:00:20Z</time>
      </trkpt>
      <trkpt lat="48.68639" lon="1.77997">
        <ele>166</ele>
        <time>2013-08-17T13:00:23Z</time>
      </trkpt>
      <trkpt lat="48.68639" lon="1.77995">
        <ele>167</ele>
        <time>2013-08-17T13:00:25Z</time>
      </trkpt>
      <trkpt lat="48.68641" lon="1.77996">
        <ele>168</ele>
        <time>2013-08-17T13:00:27Z</time>
      </trkpt>
      <trkpt lat="48.68646" lon="1.77998">
        <ele>169</ele>
        <time>2013-08-17T13:00:30Z</time>
      </trkpt>
      <trkpt lat="48.68649" lon="1.77999">
        <ele>170</ele>
        <time>2013-08-17T13:00:32Z</time>
      </trkpt>
      <trkpt lat="48.68653" lon="1.78">
        <ele>171</ele>
        <time>2013-08-17T13:00:34Z</time>
      </trkpt>
      <trkpt lat="48.68658" lon="1.78002">
        <ele>172</ele>
        <time>2013-08-17T13:00:37Z</time>
      </trkpt>
      <trkpt lat="48.6866" lon="1.78003">
        <ele>172</ele>
        <time>2013-08-17T13:00:39Z</time>
      </trkpt>
      <trkpt lat="48.68664" lon="1.78006">
        <ele>172</ele>
        <time>2013-08-17T13:00:42Z</time>
      </trkpt>
      <trkpt lat="48.6867" lon="1.78007">
        <ele>172</ele>
        <time>2013-08-17T13:00:44Z</time>
      </trkpt>
      <trkpt lat="48.68676" lon="1.7801">
        <ele>172</ele>
        <time>2013-08-17T13:00:47Z</time>
      </trkpt>
      <trkpt lat="48.6868" lon="1.78011">
        <ele>172</ele>
        <time>2013-08-17T13:00:49Z</time>
      </trkpt>
      <trkpt lat="48.68683" lon="1.78012">
        <ele>172</ele>
        <time>2013-08-17T13:00:51Z</time>
      </trkpt>
      <trkpt lat="48.68687" lon="1.78013">
        <ele>172</ele>
        <time>2013-08-17T13:00:53Z</time>
      </trkpt>
      <trkpt lat="48.68689" lon="1.78014">
        <ele>172</ele>
        <time>2013-08-17T13:00:55Z</time>
      </trkpt>
      <trkpt lat="48.68694" lon="1.78016">
        <ele>172</ele>
        <time>2013-08-17T13:00:57Z</time>
      </trkpt>
      <trkpt lat="48.68698" lon="1.78019">
        <ele>172</ele>
        <time>2013-08-17T13:01:00Z</time>
      </trkpt>
      <trkpt lat="48.68703" lon="1.78023">
        <ele>172</ele>
        <time>2013-08-17T13:01:03Z</time>
      </trkpt>
      <trkpt lat="48.68705" lon="1.78024">
        <ele>172</ele>
        <time>2013-08-17T13:01:06Z</time>
      </trkpt>
      <trkpt lat="48.68708" lon="1.78027">
        <ele>172</ele>
        <time>2013-08-17T13:01:08Z</time>
      </trkpt>
      <trkpt lat="48.68713" lon="1.78031">
        <ele>172</ele>
        <time>2013-08-17T13:01:11Z</time>
      </trkpt>
      <trkpt lat="48.68716" lon="1.78033">
        <ele>172</ele>
        <time>2013-08-17T13:01:13Z</time>
      </trkpt>
      <trkpt lat="48.68717" lon="1.78034">
        <ele>172</ele>
        <time>2013-08-17T13:01:15Z</time>
      </trkpt>
      <trkpt lat="48.68721" lon="1.78036">
        <ele>172</ele>
        <time>2013-08-17T13:01:17Z</time>
      </trkpt>
      <trkpt lat="48.68724" lon="1.78038">
        <ele>172</ele>
        <time>2013-08-17T13:01:19Z</time>
      </trkpt>
      <trkpt lat="48.68727" lon="1.7804">
        <ele>172</ele>
        <time>2013-08-17T13:01:21Z</time>
      </trkpt>
      <trkpt lat="48.68731" lon="1.7804">
        <ele>172</ele>
        <time>2013-08-17T13:01:23Z</time>
      </trkpt>
      <trkpt lat="48.68737" lon="1.7804">
        <ele>172</ele>
        <time>2013-08-17T13:01:26Z</time>
      </trkpt>
      <trkpt lat="48.6874" lon="1.78038">
        <ele>174</ele>
        <time>2013-08-17T13:01:31Z</time>
      </trkpt>
      <trkpt lat="48.68739" lon="1.78034">
        <ele>175</ele>
        <time>2013-08-17T13:01:33Z</time>
      </trkpt>
      <trkpt lat="48.68736" lon="1.78028">
        <ele>175</ele>
        <time>2013-08-17T13:01:36Z</time>
      </trkpt>
      <trkpt lat="48.68734" lon="1.78024">
        <ele>175</ele>
        <time>2013-08-17T13:01:38Z</time>
      </trkpt>
      <trkpt lat="48.68733" lon="1.7802">
        <ele>175</ele>
        <time>2013-08-17T13:01:40Z</time>
      </trkpt>
      <trkpt lat="48.68731" lon="1.78012">
        <ele>175</ele>
        <time>2013-08-17T13:01:43Z</time>
      </trkpt>
      <trkpt lat="48.68729" lon="1.78006">
        <ele>175</ele>
        <time>2013-08-17T13:01:46Z</time>
      </trkpt>
      <trkpt lat="48.68728" lon="1.78002">
        <ele>175</ele>
        <time>2013-08-17T13:01:48Z</time>
      </trkpt>
      <trkpt lat="48.68727" lon="1.77996">
        <ele>175</ele>
        <time>2013-08-17T13:01:51Z</time>
      </trkpt>
      <trkpt lat="48.68726" lon="1.77992">
        <ele>175</ele>
        <time>2013-08-17T13:01:53Z</time>
      </trkpt>
      <trkpt lat="48.68725" lon="1.77986">
        <ele>175</ele>
        <time>2013-08-17T13:01:56Z</time>
      </trkpt>
      <trkpt lat="48.68726" lon="1.77979">
        <ele>175</ele>
        <time>2013-08-17T13:01:59Z</time>
      </trkpt>
      <trkpt lat="48.68726" lon="1.77976">
        <ele>175</ele>
        <time>2013-08-17T13:02:01Z</time>
      </trkpt>
      <trkpt lat="48.68724" lon="1.7797">
        <ele>174</ele>
        <time>2013-08-17T13:02:04Z</time>
      </trkpt>
      <trkpt lat="48.68725" lon="1.77966">
        <ele>174</ele>
        <time>2013-08-17T13:02:06Z</time>
      </trkpt>
      <trkpt lat="48.68724" lon="1.77962">
        <ele>174</ele>
        <time>2013-08-17T13:02:08Z</time>
      </trkpt>
      <trkpt lat="48.68725" lon="1.77956">
        <ele>174</ele>
        <time>2013-08-17T13:02:11Z</time>
      </trkpt>
      <trkpt lat="48.68727" lon="1.77951">
        <ele>173</ele>
        <time>2013-08-17T13:02:14Z</time>
      </trkpt>
      <trkpt lat="48.68728" lon="1.77947">
        <ele>172</ele>
        <time>2013-08-17T13:02:16Z</time>
      </trkpt>
      <trkpt lat="48.68729" lon="1.77944">
        <ele>171</ele>
        <time>2013-08-17T13:02:18Z</time>
      </trkpt>
      <trkpt lat="48.6873" lon="1.77942">
        <ele>170</ele>
        <time>2013-08-17T13:02:20Z</time>
      </trkpt>
      <trkpt lat="48.68732" lon="1.77937">
        <ele>168</ele>
        <time>2013-08-17T13:02:23Z</time>
      </trkpt>
      <trkpt lat="48.68731" lon="1.7793">
        <ele>166</ele>
        <time>2013-08-17T13:02:26Z</time>
      </trkpt>
      <trkpt lat="48.68726" lon="1.77923">
        <ele>166</ele>
        <time>2013-08-17T13:02:28Z</time>
      </trkpt>
      <trkpt lat="48.68723" lon="1.77915">
        <ele>166</ele>
        <time>2013-08-17T13:02:31Z</time>
      </trkpt>
      <trkpt lat="48.6872" lon="1.77909">
        <ele>165</ele>
        <time>2013-08-17T13:02:33Z</time>
      </trkpt>
      <trkpt lat="48.6872" lon="1.77905">
        <ele>165</ele>
        <time>2013-08-17T13:02:35Z</time>
      </trkpt>
      <trkpt lat="48.68718" lon="1.77896">
        <ele>164</ele>
        <time>2013-08-17T13:02:38Z</time>
      </trkpt>
      <trkpt lat="48.68716" lon="1.77892">
        <ele>164</ele>
        <time>2013-08-17T13:02:40Z</time>
      </trkpt>
      <trkpt lat="48.68712" lon="1.77885">
        <ele>164</ele>
        <time>2013-08-17T13:02:42Z</time>
      </trkpt>
      <trkpt lat="48.68711" lon="1.7788">
        <ele>164</ele>
        <time>2013-08-17T13:02:44Z</time>
      </trkpt>
      <trkpt lat="48.6871" lon="1.77873">
        <ele>164</ele>
        <time>2013-08-17T13:02:47Z</time>
      </trkpt>
      <trkpt lat="48.6871" lon="1.77868">
        <ele>164</ele>
        <time>2013-08-17T13:02:49Z</time>
      </trkpt>
      <trkpt lat="48.68708" lon="1.77862">
        <ele>164</ele>
        <time>2013-08-17T13:02:51Z</time>
      </trkpt>
      <trkpt lat="48.68708" lon="1.77857">
        <ele>164</ele>
        <time>2013-08-17T13:02:54Z</time>
      </trkpt>
      <trkpt lat="48.68709" lon="1.77852">
        <ele>164</ele>
        <time>2013-08-17T13:02:56Z</time>
      </trkpt>
      <trkpt lat="48.68709" lon="1.77845">
        <ele>164</ele>
        <time>2013-08-17T13:02:59Z</time>
      </trkpt>
      <trkpt lat="48.68707" lon="1.77838">
        <ele>164</ele>
        <time>2013-08-17T13:03:02Z</time>
      </trkpt>
      <trkpt lat="48.68706" lon="1.77833">
        <ele>164</ele>
        <time>2013-08-17T13:03:04Z</time>
      </trkpt>
      <trkpt lat="48.68706" lon="1.77829">
        <ele>163</ele>
        <time>2013-08-17T13:03:06Z</time>
      </trkpt>
      <trkpt lat="48.68706" lon="1.77825">
        <ele>162</ele>
        <time>2013-08-17T13:03:08Z</time>
      </trkpt>
      <trkpt lat="48.68705" lon="1.7782">
        <ele>161</ele>
        <time>2013-08-17T13:03:10Z</time>
      </trkpt>
      <trkpt lat="48.68707" lon="1.77815">
        <ele>161</ele>
        <time>2013-08-17T13:03:12Z</time>
      </trkpt>
      <trkpt lat="48.68707" lon="1.7781">
        <ele>161</ele>
        <time>2013-08-17T13:03:14Z</time>
      </trkpt>
      <trkpt lat="48.68706" lon="1.77805">
        <ele>161</ele>
        <time>2013-08-17T13:03:16Z</time>
      </trkpt>
      <trkpt lat="48.68705" lon="1.77801">
        <ele>161</ele>
        <time>2013-08-17T13:03:18Z</time>
      </trkpt>
      <trkpt lat="48.68705" lon="1.77797">
        <ele>161</ele>
        <time>2013-08-17T13:03:20Z</time>
      </trkpt>
      <trkpt lat="48.68705" lon="1.77792">
        <ele>160</ele>
        <time>2013-08-17T13:03:22Z</time>
      </trkpt>
      <trkpt lat="48.68703" lon="1.77787">
        <ele>160</ele>
        <time>2013-08-17T13:03:24Z</time>
      </trkpt>
      <trkpt lat="48.68701" lon="1.77782">
        <ele>159</ele>
        <time>2013-08-17T13:03:26Z</time>
      </trkpt>
      <trkpt lat="48.687" lon="1.77778">
        <ele>159</ele>
        <time>2013-08-17T13:03:28Z</time>
      </trkpt>
      <trkpt lat="48.68701" lon="1.77773">
        <ele>159</ele>
        <time>2013-08-17T13:03:30Z</time>
      </trkpt>
      <trkpt lat="48.68699" lon="1.77765">
        <ele>159</ele>
        <time>2013-08-17T13:03:33Z</time>
      </trkpt>
      <trkpt lat="48.68697" lon="1.77757">
        <ele>159</ele>
        <time>2013-08-17T13:03:36Z</time>
      </trkpt>
      <trkpt lat="48.68695" lon="1.77752">
        <ele>159</ele>
        <time>2013-08-17T13:03:38Z</time>
      </trkpt>
      <trkpt lat="48.68694" lon="1.77743">
        <ele>159</ele>
        <time>2013-08-17T13:03:41Z</time>
      </trkpt>
      <trkpt lat="48.68693" lon="1.77738">
        <ele>159</ele>
        <time>2013-08-17T13:03:43Z</time>
      </trkpt>
      <trkpt lat="48.68693" lon="1.77734">
        <ele>158</ele>
        <time>2013-08-17T13:03:45Z</time>
      </trkpt>
      <trkpt lat="48.68694" lon="1.77731">
        <ele>158</ele>
        <time>2013-08-17T13:03:47Z</time>
      </trkpt>
      <trkpt lat="48.68695" lon="1.77727">
        <ele>157</ele>
        <time>2013-08-17T13:03:49Z</time>
      </trkpt>
      <trkpt lat="48.68695" lon="1.77722">
        <ele>156</ele>
        <time>2013-08-17T13:03:51Z</time>
      </trkpt>
      <trkpt lat="48.68696" lon="1.77718">
        <ele>155</ele>
        <time>2013-08-17T13:03:53Z</time>
      </trkpt>
      <trkpt lat="48.68696" lon="1.77714">
        <ele>155</ele>
        <time>2013-08-17T13:03:55Z</time>
      </trkpt>
      <trkpt lat="48.68695" lon="1.77708">
        <ele>155</ele>
        <time>2013-08-17T13:03:57Z</time>
      </trkpt>
      <trkpt lat="48.68692" lon="1.77703">
        <ele>155</ele>
        <time>2013-08-17T13:03:59Z</time>
      </trkpt>
      <trkpt lat="48.68689" lon="1.77696">
        <ele>154</ele>
        <time>2013-08-17T13:04:02Z</time>
      </trkpt>
      <trkpt lat="48.68688" lon="1.77689">
        <ele>153</ele>
        <time>2013-08-17T13:04:05Z</time>
      </trkpt>
      <trkpt lat="48.68688" lon="1.77685">
        <ele>153</ele>
        <time>2013-08-17T13:04:07Z</time>
      </trkpt>
      <trkpt lat="48.6869" lon="1.77681">
        <ele>153</ele>
        <time>2013-08-17T13:04:09Z</time>
      </trkpt>
      <trkpt lat="48.68691" lon="1.77676">
        <ele>153</ele>
        <time>2013-08-17T13:04:11Z</time>
      </trkpt>
      <trkpt lat="48.68692" lon="1.77672">
        <ele>153</ele>
        <time>2013-08-17T13:04:13Z</time>
      </trkpt>
      <trkpt lat="48.68689" lon="1.77666">
        <ele>153</ele>
        <time>2013-08-17T13:04:15Z</time>
      </trkpt>
      <trkpt lat="48.68688" lon="1.77662">
        <ele>153</ele>
        <time>2013-08-17T13:04:17Z</time>
      </trkpt>
      <trkpt lat="48.68686" lon="1.77657">
        <ele>153</ele>
        <time>2013-08-17T13:04:19Z</time>
      </trkpt>
      <trkpt lat="48.68685" lon="1.77651">
        <ele>153</ele>
        <time>2013-08-17T13:04:21Z</time>
      </trkpt>
      <trkpt lat="48.68684" lon="1.77646">
        <ele>153</ele>
        <time>2013-08-17T13:04:23Z</time>
      </trkpt>
      <trkpt lat="48.68681" lon="1.77639">
        <ele>153</ele>
        <time>2013-08-17T13:04:25Z</time>
      </trkpt>
      <trkpt lat="48.6868" lon="1.77634">
        <ele>153</ele>
        <time>2013-08-17T13:04:27Z</time>
      </trkpt>
      <trkpt lat="48.68677" lon="1.77626">
        <ele>153</ele>
        <time>2013-08-17T13:04:30Z</time>
      </trkpt>
      <trkpt lat="48.68678" lon="1.77621">
        <ele>153</ele>
        <time>2013-08-17T13:04:32Z</time>
      </trkpt>
      <trkpt lat="48.68678" lon="1.77616">
        <ele>153</ele>
        <time>2013-08-17T13:04:34Z</time>
      </trkpt>
      <trkpt lat="48.68677" lon="1.77611">
        <ele>153</ele>
        <time>2013-08-17T13:04:36Z</time>
      </trkpt>
      <trkpt lat="48.68678" lon="1.77606">
        <ele>153</ele>
        <time>2013-08-17T13:04:38Z</time>
      </trkpt>
      <trkpt lat="48.68677" lon="1.776">
        <ele>153</ele>
        <time>2013-08-17T13:04:41Z</time>
      </trkpt>
      <trkpt lat="48.68676" lon="1.77594">
        <ele>153</ele>
        <time>2013-08-17T13:04:43Z</time>
      </trkpt>
      <trkpt lat="48.68675" lon="1.77589">
        <ele>153</ele>
        <time>2013-08-17T13:04:45Z</time>
      </trkpt>
      <trkpt lat="48.68675" lon="1.77585">
        <ele>153</ele>
        <time>2013-08-17T13:04:47Z</time>
      </trkpt>
      <trkpt lat="48.68674" lon="1.7758">
        <ele>153</ele>
        <time>2013-08-17T13:04:49Z</time>
      </trkpt>
      <trkpt lat="48.68673" lon="1.77574">
        <ele>153</ele>
        <time>2013-08-17T13:04:51Z</time>
      </trkpt>
      <trkpt lat="48.68675" lon="1.77569">
        <ele>153</ele>
        <time>2013-08-17T13:04:53Z</time>
      </trkpt>
      <trkpt lat="48.68676" lon="1.77565">
        <ele>153</ele>
        <time>2013-08-17T13:04:55Z</time>
      </trkpt>
      <trkpt lat="48.68676" lon="1.77559">
        <ele>153</ele>
        <time>2013-08-17T13:04:57Z</time>
      </trkpt>
      <trkpt lat="48.68675" lon="1.77551">
        <ele>153</ele>
        <time>2013-08-17T13:05:00Z</time>
      </trkpt>
      <trkpt lat="48.68674" lon="1.77546">
        <ele>153</ele>
        <time>2013-08-17T13:05:02Z</time>
      </trkpt>
      <trkpt lat="48.68674" lon="1.77541">
        <ele>153</ele>
        <time>2013-08-17T13:05:04Z</time>
      </trkpt>
      <trkpt lat="48.68674" lon="1.77537">
        <ele>153</ele>
        <time>2013-08-17T13:05:06Z</time>
      </trkpt>
      <trkpt lat="48.68674" lon="1.77532">
        <ele>153</ele>
        <time>2013-08-17T13:05:08Z</time>
      </trkpt>
      <trkpt lat="48.68674" lon="1.77528">
        <ele>151</ele>
        <time>2013-08-17T13:05:10Z</time>
      </trkpt>
      <trkpt lat="48.68674" lon="1.77523">
        <ele>150</ele>
        <time>2013-08-17T13:05:12Z</time>
      </trkpt>
      <trkpt lat="48.68675" lon="1.77518">
        <ele>149</ele>
        <time>2013-08-17T13:05:14Z</time>
      </trkpt>
      <trkpt lat="48.68677" lon="1.77515">
        <ele>149</ele>
        <time>2013-08-17T13:05:16Z</time>
      </trkpt>
      <trkpt lat="48.68678" lon="1.7751">
        <ele>148</ele>
        <time>2013-08-17T13:05:18Z</time>
      </trkpt>
      <trkpt lat="48.68684" lon="1.77506">
        <ele>148</ele>
        <time>2013-08-17T13:05:21Z</time>
      </trkpt>
      <trkpt lat="48.68687" lon="1.77502">
        <ele>148</ele>
        <time>2013-08-17T13:05:23Z</time>
      </trkpt>
      <trkpt lat="48.68684" lon="1.77496">
        <ele>147</ele>
        <time>2013-08-17T13:05:25Z</time>
      </trkpt>
      <trkpt lat="48.68683" lon="1.7749">
        <ele>146</ele>
        <time>2013-08-17T13:05:27Z</time>
      </trkpt>
      <trkpt lat="48.68683" lon="1.77486">
        <ele>146</ele>
        <time>2013-08-17T13:05:29Z</time>
      </trkpt>
      <trkpt lat="48.68685" lon="1.77481">
        <ele>146</ele>
        <time>2013-08-17T13:05:31Z</time>
      </trkpt>
      <trkpt lat="48.68688" lon="1.77477">
        <ele>146</ele>
        <time>2013-08-17T13:05:33Z</time>
      </trkpt>
      <trkpt lat="48.68692" lon="1.77472">
        <ele>145</ele>
        <time>2013-08-17T13:05:36Z</time>
      </trkpt>
      <trkpt lat="48.68693" lon="1.77468">
        <ele>145</ele>
        <time>2013-08-17T13:05:38Z</time>
      </trkpt>
      <trkpt lat="48.68695" lon="1.77463">
        <ele>145</ele>
        <time>2013-08-17T13:05:40Z</time>
      </trkpt>
      <trkpt lat="48.68696" lon="1.77459">
        <ele>144</ele>
        <time>2013-08-17T13:05:42Z</time>
      </trkpt>
      <trkpt lat="48.68698" lon="1.77453">
        <ele>143</ele>
        <time>2013-08-17T13:05:45Z</time>
      </trkpt>
      <trkpt lat="48.68699" lon="1.77447">
        <ele>143</ele>
        <time>2013-08-17T13:05:47Z</time>
      </trkpt>
      <trkpt lat="48.68699" lon="1.77442">
        <ele>143</ele>
        <time>2013-08-17T13:05:49Z</time>
      </trkpt>
      <trkpt lat="48.68699" lon="1.77439">
        <ele>142</ele>
        <time>2013-08-17T13:05:51Z</time>
      </trkpt>
      <trkpt lat="48.68697" lon="1.7743">
        <ele>141</ele>
        <time>2013-08-17T13:05:54Z</time>
      </trkpt>
      <trkpt lat="48.68697" lon="1.77421">
        <ele>141</ele>
        <time>2013-08-17T13:05:57Z</time>
      </trkpt>
      <trkpt lat="48.68697" lon="1.77416">
        <ele>141</ele>
        <time>2013-08-17T13:05:59Z</time>
      </trkpt>
      <trkpt lat="48.68699" lon="1.77412">
        <ele>141</ele>
        <time>2013-08-17T13:06:01Z</time>
      </trkpt>
      <trkpt lat="48.687" lon="1.77408">
        <ele>141</ele>
        <time>2013-08-17T13:06:03Z</time>
      </trkpt>
      <trkpt lat="48.68697" lon="1.774">
        <ele>141</ele>
        <time>2013-08-17T13:06:05Z</time>
      </trkpt>
      <trkpt lat="48.68696" lon="1.77394">
        <ele>141</ele>
        <time>2013-08-17T13:06:07Z</time>
      </trkpt>
      <trkpt lat="48.68696" lon="1.77389">
        <ele>141</ele>
        <time>2013-08-17T13:06:09Z</time>
      </trkpt>
      <trkpt lat="48.68696" lon="1.77385">
        <ele>141</ele>
        <time>2013-08-17T13:06:11Z</time>
      </trkpt>
      <trkpt lat="48.68696" lon="1.7738">
        <ele>141</ele>
        <time>2013-08-17T13:06:13Z</time>
      </trkpt>
      <trkpt lat="48.68696" lon="1.77374">
        <ele>141</ele>
        <time>2013-08-17T13:06:15Z</time>
      </trkpt>
      <trkpt lat="48.68696" lon="1.77369">
        <ele>141</ele>
        <time>2013-08-17T13:06:17Z</time>
      </trkpt>
      <trkpt lat="48.68695" lon="1.77363">
        <ele>141</ele>
        <time>2013-08-17T13:06:19Z</time>
      </trkpt>
      <trkpt lat="48.68693" lon="1.77356">
        <ele>141</ele>
        <time>2013-08-17T13:06:21Z</time>
      </trkpt>
      <trkpt lat="48.68691" lon="1.7735">
        <ele>141</ele>
        <time>2013-08-17T13:06:23Z</time>
      </trkpt>
      <trkpt lat="48.6869" lon="1.77345">
        <ele>141</ele>
        <time>2013-08-17T13:06:25Z</time>
      </trkpt>
      <trkpt lat="48.68689" lon="1.7734">
        <ele>141</ele>
        <time>2013-08-17T13:06:27Z</time>
      </trkpt>
      <trkpt lat="48.6869" lon="1.77337">
        <ele>141</ele>
        <time>2013-08-17T13:06:29Z</time>
      </trkpt>
      <trkpt lat="48.68692" lon="1.77333">
        <ele>141</ele>
        <time>2013-08-17T13:06:31Z</time>
      </trkpt>
      <trkpt lat="48.68695" lon="1.7733">
        <ele>141</ele>
        <time>2013-08-17T13:06:33Z</time>
      </trkpt>
      <trkpt lat="48.68695" lon="1.77325">
        <ele>141</ele>
        <time>2013-08-17T13:06:35Z</time>
      </trkpt>
      <trkpt lat="48.68693" lon="1.77318">
        <ele>141</ele>
        <time>2013-08-17T13:06:38Z</time>
      </trkpt>
      <trkpt lat="48.68692" lon="1.77313">
        <ele>141</ele>
        <time>2013-08-17T13:06:40Z</time>
      </trkpt>
      <trkpt lat="48.68694" lon="1.77309">
        <ele>141</ele>
        <time>2013-08-17T13:06:42Z</time>
      </trkpt>
      <trkpt lat="48.68698" lon="1.77306">
        <ele>141</ele>
        <time>2013-08-17T13:06:45Z</time>
      </trkpt>
      <trkpt lat="48.68701" lon="1.77303">
        <ele>141</ele>
        <time>2013-08-17T13:06:47Z</time>
      </trkpt>
      <trkpt lat="48.68703" lon="1.773">
        <ele>139</ele>
        <time>2013-08-17T13:06:49Z</time>
      </trkpt>
      <trkpt lat="48.68706" lon="1.77297">
        <ele>137</ele>
        <time>2013-08-17T13:06:51Z</time>
      </trkpt>
      <trkpt lat="48.68709" lon="1.77293">
        <ele>135</ele>
        <time>2013-08-17T13:06:54Z</time>
      </trkpt>
      <trkpt lat="48.68711" lon="1.7729">
        <ele>134</ele>
        <time>2013-08-17T13:06:56Z</time>
      </trkpt>
      <trkpt lat="48.68714" lon="1.77286">
        <ele>134</ele>
        <time>2013-08-17T13:06:59Z</time>
      </trkpt>
      <trkpt lat="48.68711" lon="1.77277">
        <ele>134</ele>
        <time>2013-08-17T13:07:01Z</time>
      </trkpt>
      <trkpt lat="48.68713" lon="1.77273">
        <ele>134</ele>
        <time>2013-08-17T13:07:03Z</time>
      </trkpt>
      <trkpt lat="48.68712" lon="1.77267">
        <ele>134</ele>
        <time>2013-08-17T13:07:05Z</time>
      </trkpt>
      <trkpt lat="48.68711" lon="1.77259">
        <ele>134</ele>
        <time>2013-08-17T13:07:07Z</time>
      </trkpt>
      <trkpt lat="48.68709" lon="1.77252">
        <ele>134</ele>
        <time>2013-08-17T13:07:09Z</time>
      </trkpt>
      <trkpt lat="48.6871" lon="1.77247">
        <ele>134</ele>
        <time>2013-08-17T13:07:11Z</time>
      </trkpt>
      <trkpt lat="48.6871" lon="1.77242">
        <ele>134</ele>
        <time>2013-08-17T13:07:13Z</time>
      </trkpt>
      <trkpt lat="48.68706" lon="1.77233">
        <ele>134</ele>
        <time>2013-08-17T13:07:15Z</time>
      </trkpt>
      <trkpt lat="48.68706" lon="1.77229">
        <ele>134</ele>
        <time>2013-08-17T13:07:17Z</time>
      </trkpt>
      <trkpt lat="48.68708" lon="1.77227">
        <ele>134</ele>
        <time>2013-08-17T13:07:19Z</time>
      </trkpt>
      <trkpt lat="48.6871" lon="1.77224">
        <ele>134</ele>
        <time>2013-08-17T13:07:21Z</time>
      </trkpt>
      <trkpt lat="48.68712" lon="1.77221">
        <ele>134</ele>
        <time>2013-08-17T13:07:23Z</time>
      </trkpt>
      <trkpt lat="48.68714" lon="1.77218">
        <ele>134</ele>
        <time>2013-08-17T13:07:25Z</time>
      </trkpt>
      <trkpt lat="48.68718" lon="1.77215">
        <ele>134</ele>
        <time>2013-08-17T13:07:27Z</time>
      </trkpt>
      <trkpt lat="48.68716" lon="1.77207">
        <ele>134</ele>
        <time>2013-08-17T13:07:29Z</time>
      </trkpt>
      <trkpt lat="48.68717" lon="1.77202">
        <ele>134</ele>
        <time>2013-08-17T13:07:31Z</time>
      </trkpt>
      <trkpt lat="48.6872" lon="1.77199">
        <ele>134</ele>
        <time>2013-08-17T13:07:33Z</time>
      </trkpt>
      <trkpt lat="48.68724" lon="1.77196">
        <ele>134</ele>
        <time>2013-08-17T13:07:35Z</time>
      </trkpt>
      <trkpt lat="48.68727" lon="1.77192">
        <ele>134</ele>
        <time>2013-08-17T13:07:38Z</time>
      </trkpt>
      <trkpt lat="48.6873" lon="1.77189">
        <ele>134</ele>
        <time>2013-08-17T13:07:40Z</time>
      </trkpt>
      <trkpt lat="48.68728" lon="1.77181">
        <ele>134</ele>
        <time>2013-08-17T13:07:42Z</time>
      </trkpt>
      <trkpt lat="48.68728" lon="1.77175">
        <ele>136</ele>
        <time>2013-08-17T13:07:44Z</time>
      </trkpt>
      <trkpt lat="48.68729" lon="1.7717">
        <ele>137</ele>
        <time>2013-08-17T13:07:46Z</time>
      </trkpt>
      <trkpt lat="48.68729" lon="1.77164">
        <ele>138</ele>
        <time>2013-08-17T13:07:48Z</time>
      </trkpt>
      <trkpt lat="48.6873" lon="1.7716">
        <ele>139</ele>
        <time>2013-08-17T13:07:50Z</time>
      </trkpt>
      <trkpt lat="48.68729" lon="1.77155">
        <ele>140</ele>
        <time>2013-08-17T13:07:52Z</time>
      </trkpt>
      <trkpt lat="48.68728" lon="1.7715">
        <ele>140</ele>
        <time>2013-08-17T13:07:54Z</time>
      </trkpt>
      <trkpt lat="48.68725" lon="1.77145">
        <ele>140</ele>
        <time>2013-08-17T13:07:56Z</time>
      </trkpt>
      <trkpt lat="48.68723" lon="1.7714">
        <ele>141</ele>
        <time>2013-08-17T13:07:58Z</time>
      </trkpt>
      <trkpt lat="48.68719" lon="1.77135">
        <ele>141</ele>
        <time>2013-08-17T13:08:01Z</time>
      </trkpt>
      <trkpt lat="48.68717" lon="1.77131">
        <ele>141</ele>
        <time>2013-08-17T13:08:03Z</time>
      </trkpt>
      <trkpt lat="48.68715" lon="1.77128">
        <ele>142</ele>
        <time>2013-08-17T13:08:05Z</time>
      </trkpt>
      <trkpt lat="48.68713" lon="1.77124">
        <ele>143</ele>
        <time>2013-08-17T13:08:07Z</time>
      </trkpt>
      <trkpt lat="48.68711" lon="1.77119">
        <ele>143</ele>
        <time>2013-08-17T13:08:09Z</time>
      </trkpt>
      <trkpt lat="48.6871" lon="1.77114">
        <ele>143</ele>
        <time>2013-08-17T13:08:11Z</time>
      </trkpt>
      <trkpt lat="48.68709" lon="1.7711">
        <ele>143</ele>
        <time>2013-08-17T13:08:13Z</time>
      </trkpt>
      <trkpt lat="48.68708" lon="1.77104">
        <ele>143</ele>
        <time>2013-08-17T13:08:15Z</time>
      </trkpt>
      <trkpt lat="48.68708" lon="1.77099">
        <ele>143</ele>
        <time>2013-08-17T13:08:17Z</time>
      </trkpt>
      <trkpt lat="48.68708" lon="1.77094">
        <ele>143</ele>
        <time>2013-08-17T13:08:19Z</time>
      </trkpt>
      <trkpt lat="48.68708" lon="1.77089">
        <ele>143</ele>
        <time>2013-08-17T13:08:21Z</time>
      </trkpt>
      <trkpt lat="48.68708" lon="1.77084">
        <ele>143</ele>
        <time>2013-08-17T13:08:23Z</time>
      </trkpt>
      <trkpt lat="48.68709" lon="1.7708">
        <ele>143</ele>
        <time>2013-08-17T13:08:25Z</time>
      </trkpt>
      <trkpt lat="48.6871" lon="1.77072">
        <ele>143</ele>
        <time>2013-08-17T13:08:28Z</time>
      </trkpt>
      <trkpt lat="48.6871" lon="1.77067">
        <ele>143</ele>
        <time>2013-08-17T13:08:30Z</time>
      </trkpt>
      <trkpt lat="48.68711" lon="1.77062">
        <ele>143</ele>
        <time>2013-08-17T13:08:32Z</time>
      </trkpt>
      <trkpt lat="48.68713" lon="1.77058">
        <ele>143</ele>
        <time>2013-08-17T13:08:34Z</time>
      </trkpt>
      <trkpt lat="48.68714" lon="1.77054">
        <ele>143</ele>
        <time>2013-08-17T13:08:36Z</time>
      </trkpt>
      <trkpt lat="48.68715" lon="1.7705">
        <ele>143</ele>
        <time>2013-08-17T13:08:38Z</time>
      </trkpt>
      <trkpt lat="48.68716" lon="1.77045">
        <ele>143</ele>
        <time>2013-08-17T13:08:40Z</time>
      </trkpt>
      <trkpt lat="48.68716" lon="1.7704">
        <ele>143</ele>
        <time>2013-08-17T13:08:42Z</time>
      </trkpt>
      <trkpt lat="48.68717" lon="1.77034">
        <ele>143</ele>
        <time>2013-08-17T13:08:44Z</time>
      </trkpt>
      <trkpt lat="48.68717" lon="1.7703">
        <ele>143</ele>
        <time>2013-08-17T13:08:46Z</time>
      </trkpt>
      <trkpt lat="48.68717" lon="1.77024">
        <ele>143</ele>
        <time>2013-08-17T13:08:48Z</time>
      </trkpt>
      <trkpt lat="48.68717" lon="1.77017">
        <ele>143</ele>
        <time>2013-08-17T13:08:51Z</time>
      </trkpt>
      <trkpt lat="48.68717" lon="1.77013">
        <ele>143</ele>
        <time>2013-08-17T13:08:53Z</time>
      </trkpt>
      <trkpt lat="48.68718" lon="1.77008">
        <ele>143</ele>
        <time>2013-08-17T13:08:55Z</time>
      </trkpt>
      <trkpt lat="48.68718" lon="1.77004">
        <ele>143</ele>
        <time>2013-08-17T13:08:57Z</time>
      </trkpt>
      <trkpt lat="48.68716" lon="1.76997">
        <ele>143</ele>
        <time>2013-08-17T13:08:59Z</time>
      </trkpt>
      <trkpt lat="48.68716" lon="1.76992">
        <ele>143</ele>
        <time>2013-08-17T13:09:01Z</time>
      </trkpt>
      <trkpt lat="48.68715" lon="1.76987">
        <ele>143</ele>
        <time>2013-08-17T13:09:03Z</time>
      </trkpt>
      <trkpt lat="48.68715" lon="1.76982">
        <ele>143</ele>
        <time>2013-08-17T13:09:05Z</time>
      </trkpt>
      <trkpt lat="48.68716" lon="1.76978">
        <ele>143</ele>
        <time>2013-08-17T13:09:07Z</time>
      </trkpt>
      <trkpt lat="48.68716" lon="1.76973">
        <ele>143</ele>
        <time>2013-08-17T13:09:09Z</time>
      </trkpt>
      <trkpt lat="48.68715" lon="1.76968">
        <ele>143</ele>
        <time>2013-08-17T13:09:11Z</time>
      </trkpt>
      <trkpt lat="48.68715" lon="1.76962">
        <ele>144</ele>
        <time>2013-08-17T13:09:13Z</time>
      </trkpt>
      <trkpt lat="48.68714" lon="1.76957">
        <ele>144</ele>
        <time>2013-08-17T13:09:15Z</time>
      </trkpt>
      <trkpt lat="48.68714" lon="1.76952">
        <ele>144</ele>
        <time>2013-08-17T13:09:17Z</time>
      </trkpt>
      <trkpt lat="48.68714" lon="1.76947">
        <ele>144</ele>
        <time>2013-08-17T13:09:19Z</time>
      </trkpt>
      <trkpt lat="48.68714" lon="1.76943">
        <ele>144</ele>
        <time>2013-08-17T13:09:21Z</time>
      </trkpt>
      <trkpt lat="48.68714" lon="1.76939">
        <ele>144</ele>
        <time>2013-08-17T13:09:23Z</time>
      </trkpt>
      <trkpt lat="48.68715" lon="1.76935">
        <ele>144</ele>
        <time>2013-08-17T13:09:25Z</time>
      </trkpt>
      <trkpt lat="48.68716" lon="1.76931">
        <ele>144</ele>
        <time>2013-08-17T13:09:27Z</time>
      </trkpt>
      <trkpt lat="48.68716" lon="1.76925">
        <ele>144</ele>
        <time>2013-08-17T13:09:29Z</time>
      </trkpt>
      <trkpt lat="48.68717" lon="1.7692">
        <ele>144</ele>
        <time>2013-08-17T13:09:31Z</time>
      </trkpt>
      <trkpt lat="48.6872" lon="1.76917">
        <ele>145</ele>
        <time>2013-08-17T13:09:33Z</time>
      </trkpt>
      <trkpt lat="48.68721" lon="1.76913">
        <ele>145</ele>
        <time>2013-08-17T13:09:35Z</time>
      </trkpt>
      <trkpt lat="48.68722" lon="1.76908">
        <ele>145</ele>
        <time>2013-08-17T13:09:37Z</time>
      </trkpt>
      <trkpt lat="48.68722" lon="1.76903">
        <ele>145</ele>
        <time>2013-08-17T13:09:39Z</time>
      </trkpt>
      <trkpt lat="48.68723" lon="1.76899">
        <ele>145</ele>
        <time>2013-08-17T13:09:41Z</time>
      </trkpt>
      <trkpt lat="48.68724" lon="1.76896">
        <ele>145</ele>
        <time>2013-08-17T13:09:43Z</time>
      </trkpt>
      <trkpt lat="48.68724" lon="1.7689">
        <ele>145</ele>
        <time>2013-08-17T13:09:45Z</time>
      </trkpt>
      <trkpt lat="48.68724" lon="1.76885">
        <ele>145</ele>
        <time>2013-08-17T13:09:47Z</time>
      </trkpt>
      <trkpt lat="48.68723" lon="1.7688">
        <ele>145</ele>
        <time>2013-08-17T13:09:49Z</time>
      </trkpt>
      <trkpt lat="48.68724" lon="1.76875">
        <ele>145</ele>
        <time>2013-08-17T13:09:51Z</time>
      </trkpt>
      <trkpt lat="48.68726" lon="1.76871">
        <ele>145</ele>
        <time>2013-08-17T13:09:53Z</time>
      </trkpt>
      <trkpt lat="48.68726" lon="1.76867">
        <ele>145</ele>
        <time>2013-08-17T13:09:55Z</time>
      </trkpt>
      <trkpt lat="48.68728" lon="1.76863">
        <ele>145</ele>
        <time>2013-08-17T13:09:57Z</time>
      </trkpt>
      <trkpt lat="48.68729" lon="1.76858">
        <ele>145</ele>
        <time>2013-08-17T13:09:59Z</time>
      </trkpt>
      <trkpt lat="48.68729" lon="1.76853">
        <ele>145</ele>
        <time>2013-08-17T13:10:01Z</time>
      </trkpt>
      <trkpt lat="48.68729" lon="1.76848">
        <ele>145</ele>
        <time>2013-08-17T13:10:03Z</time>
      </trkpt>
      <trkpt lat="48.68729" lon="1.76842">
        <ele>145</ele>
        <time>2013-08-17T13:10:05Z</time>
      </trkpt>
      <trkpt lat="48.6873" lon="1.76837">
        <ele>145</ele>
        <time>2013-08-17T13:10:07Z</time>
      </trkpt>
      <trkpt lat="48.6873" lon="1.76833">
        <ele>145</ele>
        <time>2013-08-17T13:10:09Z</time>
      </trkpt>
      <trkpt lat="48.68731" lon="1.76829">
        <ele>145</ele>
        <time>2013-08-17T13:10:11Z</time>
      </trkpt>
      <trkpt lat="48.68732" lon="1.76824">
        <ele>145</ele>
        <time>2013-08-17T13:10:13Z</time>
      </trkpt>
      <trkpt lat="48.68732" lon="1.76819">
        <ele>145</ele>
        <time>2013-08-17T13:10:15Z</time>
      </trkpt>
      <trkpt lat="48.68733" lon="1.76815">
        <ele>145</ele>
        <time>2013-08-17T13:10:17Z</time>
      </trkpt>
      <trkpt lat="48.68733" lon="1.76809">
        <ele>145</ele>
        <time>2013-08-17T13:10:19Z</time>
      </trkpt>
      <trkpt lat="48.68732" lon="1.76804">
        <ele>145</ele>
        <time>2013-08-17T13:10:21Z</time>
      </trkpt>
      <trkpt lat="48.68733" lon="1.76798">
        <ele>145</ele>
        <time>2013-08-17T13:10:23Z</time>
      </trkpt>
      <trkpt lat="48.68734" lon="1.76795">
        <ele>144</ele>
        <time>2013-08-17T13:10:25Z</time>
      </trkpt>
      <trkpt lat="48.68735" lon="1.7679">
        <ele>144</ele>
        <time>2013-08-17T13:10:27Z</time>
      </trkpt>
      <trkpt lat="48.68735" lon="1.76785">
        <ele>144</ele>
        <time>2013-08-17T13:10:29Z</time>
      </trkpt>
      <trkpt lat="48.68735" lon="1.76779">
        <ele>144</ele>
        <time>2013-08-17T13:10:31Z</time>
      </trkpt>
      <trkpt lat="48.68735" lon="1.76774">
        <ele>144</ele>
        <time>2013-08-17T13:10:33Z</time>
      </trkpt>
      <trkpt lat="48.68735" lon="1.76768">
        <ele>144</ele>
        <time>2013-08-17T13:10:35Z</time>
      </trkpt>
      <trkpt lat="48.68734" lon="1.76759">
        <ele>144</ele>
        <time>2013-08-17T13:10:38Z</time>
      </trkpt>
      <trkpt lat="48.68733" lon="1.76753">
        <ele>144</ele>
        <time>2013-08-17T13:10:40Z</time>
      </trkpt>
      <trkpt lat="48.68732" lon="1.76748">
        <ele>144</ele>
        <time>2013-08-17T13:10:42Z</time>
      </trkpt>
      <trkpt lat="48.68733" lon="1.76743">
        <ele>144</ele>
        <time>2013-08-17T13:10:44Z</time>
      </trkpt>
      <trkpt lat="48.68733" lon="1.76738">
        <ele>144</ele>
        <time>2013-08-17T13:10:46Z</time>
      </trkpt>
      <trkpt lat="48.68735" lon="1.76734">
        <ele>144</ele>
        <time>2013-08-17T13:10:48Z</time>
      </trkpt>
      <trkpt lat="48.68735" lon="1.7673">
        <ele>144</ele>
        <time>2013-08-17T13:10:50Z</time>
      </trkpt>
      <trkpt lat="48.68735" lon="1.76723">
        <ele>144</ele>
        <time>2013-08-17T13:10:52Z</time>
      </trkpt>
      <trkpt lat="48.68735" lon="1.76718">
        <ele>144</ele>
        <time>2013-08-17T13:10:54Z</time>
      </trkpt>
      <trkpt lat="48.68734" lon="1.76713">
        <ele>144</ele>
        <time>2013-08-17T13:10:56Z</time>
      </trkpt>
      <trkpt lat="48.68732" lon="1.76708">
        <ele>144</ele>
        <time>2013-08-17T13:10:58Z</time>
      </trkpt>
      <trkpt lat="48.68732" lon="1.76704">
        <ele>144</ele>
        <time>2013-08-17T13:11:00Z</time>
      </trkpt>
      <trkpt lat="48.68733" lon="1.767">
        <ele>144</ele>
        <time>2013-08-17T13:11:02Z</time>
      </trkpt>
      <trkpt lat="48.68732" lon="1.76695">
        <ele>144</ele>
        <time>2013-08-17T13:11:04Z</time>
      </trkpt>
      <trkpt lat="48.68732" lon="1.7669">
        <ele>144</ele>
        <time>2013-08-17T13:11:06Z</time>
      </trkpt>
      <trkpt lat="48.68734" lon="1.76686">
        <ele>144</ele>
        <time>2013-08-17T13:11:08Z</time>
      </trkpt>
      <trkpt lat="48.68736" lon="1.76682">
        <ele>144</ele>
        <time>2013-08-17T13:11:10Z</time>
      </trkpt>
      <trkpt lat="48.68736" lon="1.76678">
        <ele>144</ele>
        <time>2013-08-17T13:11:12Z</time>
      </trkpt>
      <trkpt lat="48.68735" lon="1.76672">
        <ele>144</ele>
        <time>2013-08-17T13:11:14Z</time>
      </trkpt>
      <trkpt lat="48.68733" lon="1.76667">
        <ele>144</ele>
        <time>2013-08-17T13:11:16Z</time>
      </trkpt>
      <trkpt lat="48.68732" lon="1.76663">
        <ele>144</ele>
        <time>2013-08-17T13:11:18Z</time>
      </trkpt>
      <trkpt lat="48.68732" lon="1.76658">
        <ele>144</ele>
        <time>2013-08-17T13:11:20Z</time>
      </trkpt>
      <trkpt lat="48.68731" lon="1.76652">
        <ele>144</ele>
        <time>2013-08-17T13:11:22Z</time>
      </trkpt>
      <trkpt lat="48.68732" lon="1.76645">
        <ele>144</ele>
        <time>2013-08-17T13:11:25Z</time>
      </trkpt>
      <trkpt lat="48.68733" lon="1.7664">
        <ele>144</ele>
        <time>2013-08-17T13:11:27Z</time>
      </trkpt>
      <trkpt lat="48.68734" lon="1.76636">
        <ele>144</ele>
        <time>2013-08-17T13:11:29Z</time>
      </trkpt>
      <trkpt lat="48.68734" lon="1.7663">
        <ele>144</ele>
        <time>2013-08-17T13:11:31Z</time>
      </trkpt>
      <trkpt lat="48.68734" lon="1.76626">
        <ele>144</ele>
        <time>2013-08-17T13:11:33Z</time>
      </trkpt>
      <trkpt lat="48.68735" lon="1.76621">
        <ele>144</ele>
        <time>2013-08-17T13:11:35Z</time>
      </trkpt>
      <trkpt lat="48.68736" lon="1.76616">
        <ele>144</ele>
        <time>2013-08-17T13:11:37Z</time>
      </trkpt>
      <trkpt lat="48.68736" lon="1.76609">
        <ele>144</ele>
        <time>2013-08-17T13:11:40Z</time>
      </trkpt>
      <trkpt lat="48.68737" lon="1.76604">
        <ele>144</ele>
        <time>2013-08-17T13:11:42Z</time>
      </trkpt>
      <trkpt lat="48.68739" lon="1.76597">
        <ele>144</ele>
        <time>2013-08-17T13:11:45Z</time>
      </trkpt>
      <trkpt lat="48.6874" lon="1.76594">
        <ele>144</ele>
        <time>2013-08-17T13:11:47Z</time>
      </trkpt>
      <trkpt lat="48.68741" lon="1.76589">
        <ele>144</ele>
        <time>2013-08-17T13:11:49Z</time>
      </trkpt>
      <trkpt lat="48.68742" lon="1.76584">
        <ele>144</ele>
        <time>2013-08-17T13:11:51Z</time>
      </trkpt>
      <trkpt lat="48.68742" lon="1.76578">
        <ele>144</ele>
        <time>2013-08-17T13:11:53Z</time>
      </trkpt>
      <trkpt lat="48.68742" lon="1.76573">
        <ele>144</ele>
        <time>2013-08-17T13:11:55Z</time>
      </trkpt>
      <trkpt lat="48.68742" lon="1.76568">
        <ele>144</ele>
        <time>2013-08-17T13:11:57Z</time>
      </trkpt>
      <trkpt lat="48.68742" lon="1.76564">
        <ele>144</ele>
        <time>2013-08-17T13:11:59Z</time>
      </trkpt>
      <trkpt lat="48.68744" lon="1.76559">
        <ele>144</ele>
        <time>2013-08-17T13:12:01Z</time>
      </trkpt>
      <trkpt lat="48.68745" lon="1.76554">
        <ele>144</ele>
        <time>2013-08-17T13:12:03Z</time>
      </trkpt>
      <trkpt lat="48.68745" lon="1.7655">
        <ele>144</ele>
        <time>2013-08-17T13:12:05Z</time>
      </trkpt>
      <trkpt lat="48.68745" lon="1.76545">
        <ele>144</ele>
        <time>2013-08-17T13:12:07Z</time>
      </trkpt>
      <trkpt lat="48.68744" lon="1.7654">
        <ele>144</ele>
        <time>2013-08-17T13:12:09Z</time>
      </trkpt>
      <trkpt lat="48.68743" lon="1.76534">
        <ele>144</ele>
        <time>2013-08-17T13:12:11Z</time>
      </trkpt>
      <trkpt lat="48.68743" lon="1.7653">
        <ele>144</ele>
        <time>2013-08-17T13:12:13Z</time>
      </trkpt>
      <trkpt lat="48.68743" lon="1.76526">
        <ele>144</ele>
        <time>2013-08-17T13:12:15Z</time>
      </trkpt>
      <trkpt lat="48.68744" lon="1.76523">
        <ele>144</ele>
        <time>2013-08-17T13:12:17Z</time>
      </trkpt>
      <trkpt lat="48.68746" lon="1.76518">
        <ele>144</ele>
        <time>2013-08-17T13:12:19Z</time>
      </trkpt>
      <trkpt lat="48.68747" lon="1.76513">
        <ele>145</ele>
        <time>2013-08-17T13:12:22Z</time>
      </trkpt>
      <trkpt lat="48.68746" lon="1.76507">
        <ele>145</ele>
        <time>2013-08-17T13:12:24Z</time>
      </trkpt>
      <trkpt lat="48.68745" lon="1.76501">
        <ele>145</ele>
        <time>2013-08-17T13:12:26Z</time>
      </trkpt>
      <trkpt lat="48.68747" lon="1.76497">
        <ele>145</ele>
        <time>2013-08-17T13:12:28Z</time>
      </trkpt>
      <trkpt lat="48.68748" lon="1.76493">
        <ele>145</ele>
        <time>2013-08-17T13:12:30Z</time>
      </trkpt>
      <trkpt lat="48.68748" lon="1.76488">
        <ele>145</ele>
        <time>2013-08-17T13:12:32Z</time>
      </trkpt>
      <trkpt lat="48.6875" lon="1.76484">
        <ele>145</ele>
        <time>2013-08-17T13:12:34Z</time>
      </trkpt>
      <trkpt lat="48.68749" lon="1.7648">
        <ele>145</ele>
        <time>2013-08-17T13:12:36Z</time>
      </trkpt>
      <trkpt lat="48.68748" lon="1.76474">
        <ele>145</ele>
        <time>2013-08-17T13:12:38Z</time>
      </trkpt>
      <trkpt lat="48.68747" lon="1.76469">
        <ele>145</ele>
        <time>2013-08-17T13:12:40Z</time>
      </trkpt>
      <trkpt lat="48.68746" lon="1.76464">
        <ele>145</ele>
        <time>2013-08-17T13:12:42Z</time>
      </trkpt>
      <trkpt lat="48.68745" lon="1.7646">
        <ele>145</ele>
        <time>2013-08-17T13:12:44Z</time>
      </trkpt>
      <trkpt lat="48.68745" lon="1.76454">
        <ele>145</ele>
        <time>2013-08-17T13:12:46Z</time>
      </trkpt>
      <trkpt lat="48.68746" lon="1.76449">
        <ele>147</ele>
        <time>2013-08-17T13:12:48Z</time>
      </trkpt>
      <trkpt lat="48.68745" lon="1.76444">
        <ele>148</ele>
        <time>2013-08-17T13:12:50Z</time>
      </trkpt>
      <trkpt lat="48.68746" lon="1.7644">
        <ele>148</ele>
        <time>2013-08-17T13:12:52Z</time>
      </trkpt>
      <trkpt lat="48.68746" lon="1.76434">
        <ele>149</ele>
        <time>2013-08-17T13:12:54Z</time>
      </trkpt>
      <trkpt lat="48.68746" lon="1.76429">
        <ele>149</ele>
        <time>2013-08-17T13:12:56Z</time>
      </trkpt>
      <trkpt lat="48.68747" lon="1.76425">
        <ele>149</ele>
        <time>2013-08-17T13:12:58Z</time>
      </trkpt>
      <trkpt lat="48.68747" lon="1.7642">
        <ele>149</ele>
        <time>2013-08-17T13:13:00Z</time>
      </trkpt>
      <trkpt lat="48.68748" lon="1.76416">
        <ele>149</ele>
        <time>2013-08-17T13:13:02Z</time>
      </trkpt>
      <trkpt lat="48.68749" lon="1.76411">
        <ele>149</ele>
        <time>2013-08-17T13:13:04Z</time>
      </trkpt>
      <trkpt lat="48.68748" lon="1.76406">
        <ele>149</ele>
        <time>2013-08-17T13:13:06Z</time>
      </trkpt>
      <trkpt lat="48.68748" lon="1.76401">
        <ele>149</ele>
        <time>2013-08-17T13:13:08Z</time>
      </trkpt>
      <trkpt lat="48.68749" lon="1.76394">
        <ele>150</ele>
        <time>2013-08-17T13:13:11Z</time>
      </trkpt>
      <trkpt lat="48.6875" lon="1.7639">
        <ele>150</ele>
        <time>2013-08-17T13:13:13Z</time>
      </trkpt>
      <trkpt lat="48.68751" lon="1.76386">
        <ele>150</ele>
        <time>2013-08-17T13:13:15Z</time>
      </trkpt>
      <trkpt lat="48.6875" lon="1.76381">
        <ele>150</ele>
        <time>2013-08-17T13:13:17Z</time>
      </trkpt>
      <trkpt lat="48.6875" lon="1.76377">
        <ele>150</ele>
        <time>2013-08-17T13:13:19Z</time>
      </trkpt>
      <trkpt lat="48.68751" lon="1.76372">
        <ele>150</ele>
        <time>2013-08-17T13:13:21Z</time>
      </trkpt>
      <trkpt lat="48.68751" lon="1.76365">
        <ele>150</ele>
        <time>2013-08-17T13:13:23Z</time>
      </trkpt>
      <trkpt lat="48.68751" lon="1.76361">
        <ele>150</ele>
        <time>2013-08-17T13:13:25Z</time>
      </trkpt>
      <trkpt lat="48.68752" lon="1.76357">
        <ele>150</ele>
        <time>2013-08-17T13:13:27Z</time>
      </trkpt>
      <trkpt lat="48.68753" lon="1.76353">
        <ele>150</ele>
        <time>2013-08-17T13:13:29Z</time>
      </trkpt>
      <trkpt lat="48.68753" lon="1.76346">
        <ele>150</ele>
        <time>2013-08-17T13:13:32Z</time>
      </trkpt>
      <trkpt lat="48.68754" lon="1.76341">
        <ele>150</ele>
        <time>2013-08-17T13:13:34Z</time>
      </trkpt>
      <trkpt lat="48.68756" lon="1.76337">
        <ele>150</ele>
        <time>2013-08-17T13:13:36Z</time>
      </trkpt>
      <trkpt lat="48.68756" lon="1.76332">
        <ele>150</ele>
        <time>2013-08-17T13:13:38Z</time>
      </trkpt>
      <trkpt lat="48.68756" lon="1.76328">
        <ele>150</ele>
        <time>2013-08-17T13:13:40Z</time>
      </trkpt>
      <trkpt lat="48.68756" lon="1.76322">
        <ele>150</ele>
        <time>2013-08-17T13:13:42Z</time>
      </trkpt>
      <trkpt lat="48.68756" lon="1.76318">
        <ele>150</ele>
        <time>2013-08-17T13:13:44Z</time>
      </trkpt>
      <trkpt lat="48.68756" lon="1.76312">
        <ele>150</ele>
        <time>2013-08-17T13:13:46Z</time>
      </trkpt>
      <trkpt lat="48.68756" lon="1.76306">
        <ele>150</ele>
        <time>2013-08-17T13:13:48Z</time>
      </trkpt>
      <trkpt lat="48.68757" lon="1.76302">
        <ele>150</ele>
        <time>2013-08-17T13:13:50Z</time>
      </trkpt>
      <trkpt lat="48.68758" lon="1.76297">
        <ele>150</ele>
        <time>2013-08-17T13:13:52Z</time>
      </trkpt>
      <trkpt lat="48.68759" lon="1.76293">
        <ele>150</ele>
        <time>2013-08-17T13:13:54Z</time>
      </trkpt>
      <trkpt lat="48.6876" lon="1.76288">
        <ele>150</ele>
        <time>2013-08-17T13:13:56Z</time>
      </trkpt>
      <trkpt lat="48.68761" lon="1.76284">
        <ele>150</ele>
        <time>2013-08-17T13:13:58Z</time>
      </trkpt>
      <trkpt lat="48.68761" lon="1.76277">
        <ele>150</ele>
        <time>2013-08-17T13:14:00Z</time>
      </trkpt>
      <trkpt lat="48.68761" lon="1.7627">
        <ele>150</ele>
        <time>2013-08-17T13:14:02Z</time>
      </trkpt>
      <trkpt lat="48.6876" lon="1.76265">
        <ele>150</ele>
        <time>2013-08-17T13:14:04Z</time>
      </trkpt>
      <trkpt lat="48.6876" lon="1.76259">
        <ele>150</ele>
        <time>2013-08-17T13:14:06Z</time>
      </trkpt>
      <trkpt lat="48.68761" lon="1.76254">
        <ele>150</ele>
        <time>2013-08-17T13:14:08Z</time>
      </trkpt>
      <trkpt lat="48.68762" lon="1.76249">
        <ele>150</ele>
        <time>2013-08-17T13:14:10Z</time>
      </trkpt>
      <trkpt lat="48.68762" lon="1.76244">
        <ele>150</ele>
        <time>2013-08-17T13:14:12Z</time>
      </trkpt>
      <trkpt lat="48.68762" lon="1.76238">
        <ele>150</ele>
        <time>2013-08-17T13:14:14Z</time>
      </trkpt>
      <trkpt lat="48.68761" lon="1.76232">
        <ele>150</ele>
        <time>2013-08-17T13:14:16Z</time>
      </trkpt>
      <trkpt lat="48.68761" lon="1.76227">
        <ele>150</ele>
        <time>2013-08-17T13:14:18Z</time>
      </trkpt>
      <trkpt lat="48.6876" lon="1.76223">
        <ele>150</ele>
        <time>2013-08-17T13:14:20Z</time>
      </trkpt>
      <trkpt lat="48.6876" lon="1.76217">
        <ele>150</ele>
        <time>2013-08-17T13:14:22Z</time>
      </trkpt>
      <trkpt lat="48.6876" lon="1.76213">
        <ele>150</ele>
        <time>2013-08-17T13:14:24Z</time>
      </trkpt>
      <trkpt lat="48.68761" lon="1.76209">
        <ele>150</ele>
        <time>2013-08-17T13:14:26Z</time>
      </trkpt>
      <trkpt lat="48.68762" lon="1.76204">
        <ele>150</ele>
        <time>2013-08-17T13:14:28Z</time>
      </trkpt>
      <trkpt lat="48.68762" lon="1.76199">
        <ele>150</ele>
        <time>2013-08-17T13:14:30Z</time>
      </trkpt>
      <trkpt lat="48.68763" lon="1.76194">
        <ele>150</ele>
        <time>2013-08-17T13:14:32Z</time>
      </trkpt>
      <trkpt lat="48.68763" lon="1.76189">
        <ele>150</ele>
        <time>2013-08-17T13:14:34Z</time>
      </trkpt>
      <trkpt lat="48.68763" lon="1.76185">
        <ele>150</ele>
        <time>2013-08-17T13:14:36Z</time>
      </trkpt>
      <trkpt lat="48.68763" lon="1.7618">
        <ele>150</ele>
        <time>2013-08-17T13:14:38Z</time>
      </trkpt>
      <trkpt lat="48.68763" lon="1.76176">
        <ele>150</ele>
        <time>2013-08-17T13:14:40Z</time>
      </trkpt>
      <trkpt lat="48.68764" lon="1.76172">
        <ele>150</ele>
        <time>2013-08-17T13:14:42Z</time>
      </trkpt>
      <trkpt lat="48.68765" lon="1.76168">
        <ele>150</ele>
        <time>2013-08-17T13:14:44Z</time>
      </trkpt>
      <trkpt lat="48.68766" lon="1.76164">
        <ele>150</ele>
        <time>2013-08-17T13:14:46Z</time>
      </trkpt>
      <trkpt lat="48.68768" lon="1.7616">
        <ele>150</ele>
        <time>2013-08-17T13:14:48Z</time>
      </trkpt>
      <trkpt lat="48.68768" lon="1.76154">
        <ele>150</ele>
        <time>2013-08-17T13:14:50Z</time>
      </trkpt>
      <trkpt lat="48.68769" lon="1.76151">
        <ele>151</ele>
        <time>2013-08-17T13:14:52Z</time>
      </trkpt>
      <trkpt lat="48.6877" lon="1.76146">
        <ele>151</ele>
        <time>2013-08-17T13:14:54Z</time>
      </trkpt>
      <trkpt lat="48.68769" lon="1.7614">
        <ele>151</ele>
        <time>2013-08-17T13:14:56Z</time>
      </trkpt>
      <trkpt lat="48.6877" lon="1.76136">
        <ele>151</ele>
        <time>2013-08-17T13:14:58Z</time>
      </trkpt>
      <trkpt lat="48.68771" lon="1.76131">
        <ele>152</ele>
        <time>2013-08-17T13:15:00Z</time>
      </trkpt>
      <trkpt lat="48.68771" lon="1.76126">
        <ele>152</ele>
        <time>2013-08-17T13:15:02Z</time>
      </trkpt>
      <trkpt lat="48.6877" lon="1.7612">
        <ele>152</ele>
        <time>2013-08-17T13:15:04Z</time>
      </trkpt>
      <trkpt lat="48.68771" lon="1.76116">
        <ele>152</ele>
        <time>2013-08-17T13:15:06Z</time>
      </trkpt>
      <trkpt lat="48.6877" lon="1.76108">
        <ele>153</ele>
        <time>2013-08-17T13:15:09Z</time>
      </trkpt>
      <trkpt lat="48.68771" lon="1.76104">
        <ele>153</ele>
        <time>2013-08-17T13:15:11Z</time>
      </trkpt>
      <trkpt lat="48.68771" lon="1.76097">
        <ele>153</ele>
        <time>2013-08-17T13:15:14Z</time>
      </trkpt>
      <trkpt lat="48.68772" lon="1.76093">
        <ele>153</ele>
        <time>2013-08-17T13:15:16Z</time>
      </trkpt>
      <trkpt lat="48.68771" lon="1.76088">
        <ele>153</ele>
        <time>2013-08-17T13:15:18Z</time>
      </trkpt>
      <trkpt lat="48.68772" lon="1.76084">
        <ele>153</ele>
        <time>2013-08-17T13:15:20Z</time>
      </trkpt>
      <trkpt lat="48.68773" lon="1.76082">
        <ele>153</ele>
        <time>2013-08-17T13:15:22Z</time>
      </trkpt>
      <trkpt lat="48.68773" lon="1.76079">
        <ele>153</ele>
        <time>2013-08-17T13:15:24Z</time>
      </trkpt>
      <trkpt lat="48.68771" lon="1.76075">
        <ele>153</ele>
        <time>2013-08-17T13:15:26Z</time>
      </trkpt>
      <trkpt lat="48.68768" lon="1.76072">
        <ele>153</ele>
        <time>2013-08-17T13:15:28Z</time>
      </trkpt>
      <trkpt lat="48.68766" lon="1.76071">
        <ele>153</ele>
        <time>2013-08-17T13:15:30Z</time>
      </trkpt>
      <trkpt lat="48.68763" lon="1.7607">
        <ele>153</ele>
        <time>2013-08-17T13:15:32Z</time>
      </trkpt>
      <trkpt lat="48.6876" lon="1.76069">
        <ele>153</ele>
        <time>2013-08-17T13:15:34Z</time>
      </trkpt>
      <trkpt lat="48.68756" lon="1.76067">
        <ele>153</ele>
        <time>2013-08-17T13:15:36Z</time>
      </trkpt>
      <trkpt lat="48.68753" lon="1.76067">
        <ele>153</ele>
        <time>2013-08-17T13:15:38Z</time>
      </trkpt>
      <trkpt lat="48.68748" lon="1.76067">
        <ele>153</ele>
        <time>2013-08-17T13:15:40Z</time>
      </trkpt>
      <trkpt lat="48.68745" lon="1.76066">
        <ele>153</ele>
        <time>2013-08-17T13:15:42Z</time>
      </trkpt>
      <trkpt lat="48.68741" lon="1.76066">
        <ele>154</ele>
        <time>2013-08-17T13:15:44Z</time>
      </trkpt>
      <trkpt lat="48.68737" lon="1.76065">
        <ele>155</ele>
        <time>2013-08-17T13:15:46Z</time>
      </trkpt>
      <trkpt lat="48.68734" lon="1.76062">
        <ele>156</ele>
        <time>2013-08-17T13:15:48Z</time>
      </trkpt>
      <trkpt lat="48.68731" lon="1.7606">
        <ele>157</ele>
        <time>2013-08-17T13:15:50Z</time>
      </trkpt>
      <trkpt lat="48.68727" lon="1.76059">
        <ele>157</ele>
        <time>2013-08-17T13:15:52Z</time>
      </trkpt>
      <trkpt lat="48.68724" lon="1.76057">
        <ele>158</ele>
        <time>2013-08-17T13:15:54Z</time>
      </trkpt>
      <trkpt lat="48.6872" lon="1.76055">
        <ele>159</ele>
        <time>2013-08-17T13:15:56Z</time>
      </trkpt>
      <trkpt lat="48.68717" lon="1.76055">
        <ele>159</ele>
        <time>2013-08-17T13:15:58Z</time>
      </trkpt>
      <trkpt lat="48.68713" lon="1.76055">
        <ele>159</ele>
        <time>2013-08-17T13:16:00Z</time>
      </trkpt>
      <trkpt lat="48.6871" lon="1.76054">
        <ele>159</ele>
        <time>2013-08-17T13:16:02Z</time>
      </trkpt>
      <trkpt lat="48.68707" lon="1.76055">
        <ele>161</ele>
        <time>2013-08-17T13:16:04Z</time>
      </trkpt>
      <trkpt lat="48.68704" lon="1.76055">
        <ele>162</ele>
        <time>2013-08-17T13:16:06Z</time>
      </trkpt>
      <trkpt lat="48.687" lon="1.76054">
        <ele>163</ele>
        <time>2013-08-17T13:16:09Z</time>
      </trkpt>
      <trkpt lat="48.68695" lon="1.7605">
        <ele>163</ele>
        <time>2013-08-17T13:16:12Z</time>
      </trkpt>
      <trkpt lat="48.68692" lon="1.76048">
        <ele>163</ele>
        <time>2013-08-17T13:16:14Z</time>
      </trkpt>
      <trkpt lat="48.68689" lon="1.76046">
        <ele>163</ele>
        <time>2013-08-17T13:16:16Z</time>
      </trkpt>
      <trkpt lat="48.68686" lon="1.76044">
        <ele>163</ele>
        <time>2013-08-17T13:16:18Z</time>
      </trkpt>
      <trkpt lat="48.68683" lon="1.76043">
        <ele>163</ele>
        <time>2013-08-17T13:16:20Z</time>
      </trkpt>
      <trkpt lat="48.68678" lon="1.76042">
        <ele>163</ele>
        <time>2013-08-17T13:16:23Z</time>
      </trkpt>
      <trkpt lat="48.68675" lon="1.76041">
        <ele>163</ele>
        <time>2013-08-17T13:16:25Z</time>
      </trkpt>
      <trkpt lat="48.68673" lon="1.76041">
        <ele>163</ele>
        <time>2013-08-17T13:16:27Z</time>
      </trkpt>
      <trkpt lat="48.68671" lon="1.7604">
        <ele>163</ele>
        <time>2013-08-17T13:16:29Z</time>
      </trkpt>
      <trkpt lat="48.6867" lon="1.76038">
        <ele>161</ele>
        <time>2013-08-17T13:16:34Z</time>
      </trkpt>
      <trkpt lat="48.68671" lon="1.76037">
        <ele>160</ele>
        <time>2013-08-17T13:16:36Z</time>
      </trkpt>
      <trkpt lat="48.68672" lon="1.76037">
        <ele>159</ele>
        <time>2013-08-17T13:16:39Z</time>
      </trkpt>
      <trkpt lat="48.68671" lon="1.76037">
        <ele>159</ele>
        <time>2013-08-17T13:16:51Z</time>
      </trkpt>
      <trkpt lat="48.68669" lon="1.76036">
        <ele>159</ele>
        <time>2013-08-17T13:16:53Z</time>
      </trkpt>
      <trkpt lat="48.68665" lon="1.76034">
        <ele>159</ele>
        <time>2013-08-17T13:16:56Z</time>
      </trkpt>
      <trkpt lat="48.68663" lon="1.76034">
        <ele>159</ele>
        <time>2013-08-17T13:16:58Z</time>
      </trkpt>
      <trkpt lat="48.68658" lon="1.76032">
        <ele>159</ele>
        <time>2013-08-17T13:17:00Z</time>
      </trkpt>
      <trkpt lat="48.68656" lon="1.76033">
        <ele>159</ele>
        <time>2013-08-17T13:17:02Z</time>
      </trkpt>
      <trkpt lat="48.68653" lon="1.76033">
        <ele>159</ele>
        <time>2013-08-17T13:17:04Z</time>
      </trkpt>
      <trkpt lat="48.68649" lon="1.76032">
        <ele>158</ele>
        <time>2013-08-17T13:17:07Z</time>
      </trkpt>
      <trkpt lat="48.68646" lon="1.76031">
        <ele>157</ele>
        <time>2013-08-17T13:17:09Z</time>
      </trkpt>
      <trkpt lat="48.68643" lon="1.76031">
        <ele>157</ele>
        <time>2013-08-17T13:17:11Z</time>
      </trkpt>
      <trkpt lat="48.68639" lon="1.76029">
        <ele>156</ele>
        <time>2013-08-17T13:17:14Z</time>
      </trkpt>
      <trkpt lat="48.68636" lon="1.76029">
        <ele>156</ele>
        <time>2013-08-17T13:17:17Z</time>
      </trkpt>
      <trkpt lat="48.68634" lon="1.76027">
        <ele>155</ele>
        <time>2013-08-17T13:17:19Z</time>
      </trkpt>
      <trkpt lat="48.68632" lon="1.76025">
        <ele>155</ele>
        <time>2013-08-17T13:17:21Z</time>
      </trkpt>
      <trkpt lat="48.68629" lon="1.76023">
        <ele>155</ele>
        <time>2013-08-17T13:17:23Z</time>
      </trkpt>
      <trkpt lat="48.68626" lon="1.76022">
        <ele>155</ele>
        <time>2013-08-17T13:17:25Z</time>
      </trkpt>
      <trkpt lat="48.68625" lon="1.76022">
        <ele>155</ele>
        <time>2013-08-17T13:17:27Z</time>
      </trkpt>
      <trkpt lat="48.68623" lon="1.76021">
        <ele>155</ele>
        <time>2013-08-17T13:17:29Z</time>
      </trkpt>
      <trkpt lat="48.6862" lon="1.7602">
        <ele>155</ele>
        <time>2013-08-17T13:17:32Z</time>
      </trkpt>
      <trkpt lat="48.68618" lon="1.7602">
        <ele>155</ele>
        <time>2013-08-17T13:17:34Z</time>
      </trkpt>
      <trkpt lat="48.68613" lon="1.76019">
        <ele>155</ele>
        <time>2013-08-17T13:17:38Z</time>
      </trkpt>
      <trkpt lat="48.6861" lon="1.76018">
        <ele>155</ele>
        <time>2013-08-17T13:17:40Z</time>
      </trkpt>
      <trkpt lat="48.68607" lon="1.76016">
        <ele>154</ele>
        <time>2013-08-17T13:17:43Z</time>
      </trkpt>
      <trkpt lat="48.68605" lon="1.76014">
        <ele>154</ele>
        <time>2013-08-17T13:17:45Z</time>
      </trkpt>
      <trkpt lat="48.68604" lon="1.76012">
        <ele>153</ele>
        <time>2013-08-17T13:17:47Z</time>
      </trkpt>
      <trkpt lat="48.68602" lon="1.76011">
        <ele>153</ele>
        <time>2013-08-17T13:17:49Z</time>
      </trkpt>
      <trkpt lat="48.68598" lon="1.76011">
        <ele>152</ele>
        <time>2013-08-17T13:17:51Z</time>
      </trkpt>
      <trkpt lat="48.68596" lon="1.7601">
        <ele>152</ele>
        <time>2013-08-17T13:17:53Z</time>
      </trkpt>
      <trkpt lat="48.68594" lon="1.76009">
        <ele>152</ele>
        <time>2013-08-17T13:17:55Z</time>
      </trkpt>
      <trkpt lat="48.6859" lon="1.76008">
        <ele>152</ele>
        <time>2013-08-17T13:17:57Z</time>
      </trkpt>
      <trkpt lat="48.68586" lon="1.76007">
        <ele>152</ele>
        <time>2013-08-17T13:17:59Z</time>
      </trkpt>
      <trkpt lat="48.68583" lon="1.76006">
        <ele>152</ele>
        <time>2013-08-17T13:18:01Z</time>
      </trkpt>
      <trkpt lat="48.6858" lon="1.76005">
        <ele>151</ele>
        <time>2013-08-17T13:18:03Z</time>
      </trkpt>
      <trkpt lat="48.68578" lon="1.76004">
        <ele>150</ele>
        <time>2013-08-17T13:18:05Z</time>
      </trkpt>
      <trkpt lat="48.68576" lon="1.76005">
        <ele>149</ele>
        <time>2013-08-17T13:18:07Z</time>
      </trkpt>
      <trkpt lat="48.68573" lon="1.76002">
        <ele>149</ele>
        <time>2013-08-17T13:18:10Z</time>
      </trkpt>
      <trkpt lat="48.6857" lon="1.75996">
        <ele>149</ele>
        <time>2013-08-17T13:18:13Z</time>
      </trkpt>
      <trkpt lat="48.68569" lon="1.7599">
        <ele>149</ele>
        <time>2013-08-17T13:18:15Z</time>
      </trkpt>
      <trkpt lat="48.68566" lon="1.75985">
        <ele>149</ele>
        <time>2013-08-17T13:18:17Z</time>
      </trkpt>
      <trkpt lat="48.68564" lon="1.75981">
        <ele>149</ele>
        <time>2013-08-17T13:18:19Z</time>
      </trkpt>
      <trkpt lat="48.68563" lon="1.75977">
        <ele>149</ele>
        <time>2013-08-17T13:18:21Z</time>
      </trkpt>
      <trkpt lat="48.68564" lon="1.75973">
        <ele>149</ele>
        <time>2013-08-17T13:18:23Z</time>
      </trkpt>
      <trkpt lat="48.68563" lon="1.75968">
        <ele>148</ele>
        <time>2013-08-17T13:18:25Z</time>
      </trkpt>
      <trkpt lat="48.68563" lon="1.75964">
        <ele>147</ele>
        <time>2013-08-17T13:18:27Z</time>
      </trkpt>
      <trkpt lat="48.68562" lon="1.75958">
        <ele>147</ele>
        <time>2013-08-17T13:18:29Z</time>
      </trkpt>
      <trkpt lat="48.6856" lon="1.75953">
        <ele>147</ele>
        <time>2013-08-17T13:18:31Z</time>
      </trkpt>
      <trkpt lat="48.6856" lon="1.75949">
        <ele>147</ele>
        <time>2013-08-17T13:18:33Z</time>
      </trkpt>
      <trkpt lat="48.68559" lon="1.75944">
        <ele>146</ele>
        <time>2013-08-17T13:18:35Z</time>
      </trkpt>
      <trkpt lat="48.68559" lon="1.75942">
        <ele>146</ele>
        <time>2013-08-17T13:18:37Z</time>
      </trkpt>
      <trkpt lat="48.68559" lon="1.75938">
        <ele>146</ele>
        <time>2013-08-17T13:18:39Z</time>
      </trkpt>
      <trkpt lat="48.68559" lon="1.75935">
        <ele>146</ele>
        <time>2013-08-17T13:18:41Z</time>
      </trkpt>
      <trkpt lat="48.68559" lon="1.7593">
        <ele>145</ele>
        <time>2013-08-17T13:18:44Z</time>
      </trkpt>
      <trkpt lat="48.68558" lon="1.75925">
        <ele>145</ele>
        <time>2013-08-17T13:18:47Z</time>
      </trkpt>
      <trkpt lat="48.68557" lon="1.75922">
        <ele>145</ele>
        <time>2013-08-17T13:18:49Z</time>
      </trkpt>
      <trkpt lat="48.68556" lon="1.75919">
        <ele>145</ele>
        <time>2013-08-17T13:18:51Z</time>
      </trkpt>
      <trkpt lat="48.68555" lon="1.75917">
        <ele>145</ele>
        <time>2013-08-17T13:18:53Z</time>
      </trkpt>
      <trkpt lat="48.68555" lon="1.75915">
        <ele>145</ele>
        <time>2013-08-17T13:18:56Z</time>
      </trkpt>
      <trkpt lat="48.68555" lon="1.75913">
        <ele>145</ele>
        <time>2013-08-17T13:18:58Z</time>
      </trkpt>
      <trkpt lat="48.68555" lon="1.75911">
        <ele>145</ele>
        <time>2013-08-17T13:19:19Z</time>
      </trkpt>
      <trkpt lat="48.68555" lon="1.75909">
        <ele>145</ele>
        <time>2013-08-17T13:19:22Z</time>
      </trkpt>
      <trkpt lat="48.68554" lon="1.75909">
        <ele>145</ele>
        <time>2013-08-17T13:19:27Z</time>
      </trkpt>
      <trkpt lat="48.68553" lon="1.75909">
        <ele>145</ele>
        <time>2013-08-17T13:19:48Z</time>
      </trkpt>
      <trkpt lat="48.68552" lon="1.75907">
        <ele>145</ele>
        <time>2013-08-17T13:19:50Z</time>
      </trkpt>
      <trkpt lat="48.6855" lon="1.75906">
        <ele>145</ele>
        <time>2013-08-17T13:19:55Z</time>
      </trkpt>
      <trkpt lat="48.68552" lon="1.75906">
        <ele>145</ele>
        <time>2013-08-17T13:20:05Z</time>
      </trkpt>
      <trkpt lat="48.68553" lon="1.75906">
        <ele>142</ele>
        <time>2013-08-17T13:20:10Z</time>
      </trkpt>
      <trkpt lat="48.68554" lon="1.75906">
        <ele>140</ele>
        <time>2013-08-17T13:20:15Z</time>
      </trkpt>
      <trkpt lat="48.68553" lon="1.75904">
        <ele>138</ele>
        <time>2013-08-17T13:20:34Z</time>
      </trkpt>
      <trkpt lat="48.68552" lon="1.75903">
        <ele>138</ele>
        <time>2013-08-17T13:20:39Z</time>
      </trkpt>
      <trkpt lat="48.68553" lon="1.75903">
        <ele>138</ele>
        <time>2013-08-17T13:20:51Z</time>
      </trkpt>
      <trkpt lat="48.68554" lon="1.75903">
        <ele>137</ele>
        <time>2013-08-17T13:20:56Z</time>
      </trkpt>
      <trkpt lat="48.6855" lon="1.759">
        <ele>137</ele>
        <time>2013-08-17T13:20:58Z</time>
      </trkpt>
      <trkpt lat="48.68549" lon="1.75902">
        <ele>137</ele>
        <time>2013-08-17T13:21:11Z</time>
      </trkpt>
      <trkpt lat="48.68549" lon="1.75904">
        <ele>137</ele>
        <time>2013-08-17T13:21:13Z</time>
      </trkpt>
      <trkpt lat="48.68551" lon="1.75907">
        <ele>137</ele>
        <time>2013-08-17T13:21:16Z</time>
      </trkpt>
      <trkpt lat="48.68549" lon="1.75908">
        <ele>139</ele>
        <time>2013-08-17T13:21:25Z</time>
      </trkpt>
      <trkpt lat="48.68546" lon="1.75909">
        <ele>140</ele>
        <time>2013-08-17T13:21:28Z</time>
      </trkpt>
      <trkpt lat="48.68544" lon="1.75911">
        <ele>140</ele>
        <time>2013-08-17T13:21:30Z</time>
      </trkpt>
      <trkpt lat="48.68542" lon="1.75912">
        <ele>141</ele>
        <time>2013-08-17T13:21:32Z</time>
      </trkpt>
      <trkpt lat="48.68539" lon="1.75914">
        <ele>141</ele>
        <time>2013-08-17T13:21:35Z</time>
      </trkpt>
      <trkpt lat="48.68537" lon="1.75916">
        <ele>141</ele>
        <time>2013-08-17T13:21:37Z</time>
      </trkpt>
      <trkpt lat="48.68535" lon="1.75917">
        <ele>141</ele>
        <time>2013-08-17T13:21:39Z</time>
      </trkpt>
      <trkpt lat="48.68532" lon="1.75918">
        <ele>141</ele>
        <time>2013-08-17T13:21:42Z</time>
      </trkpt>
      <trkpt lat="48.68533" lon="1.7592">
        <ele>141</ele>
        <time>2013-08-17T13:21:47Z</time>
      </trkpt>
      <trkpt lat="48.68535" lon="1.75924">
        <ele>141</ele>
        <time>2013-08-17T13:21:49Z</time>
      </trkpt>
      <trkpt lat="48.68534" lon="1.75921">
        <ele>141</ele>
        <time>2013-08-17T13:21:53Z</time>
      </trkpt>
      <trkpt lat="48.68534" lon="1.7592">
        <ele>141</ele>
        <time>2013-08-17T13:21:59Z</time>
      </trkpt>
      <trkpt lat="48.68534" lon="1.75917">
        <ele>141</ele>
        <time>2013-08-17T13:22:02Z</time>
      </trkpt>
      <trkpt lat="48.68533" lon="1.75917">
        <ele>142</ele>
        <time>2013-08-17T13:22:08Z</time>
      </trkpt>
      <trkpt lat="48.68531" lon="1.75917">
        <ele>143</ele>
        <time>2013-08-17T13:22:19Z</time>
      </trkpt>
      <trkpt lat="48.68532" lon="1.75916">
        <ele>143</ele>
        <time>2013-08-17T13:22:30Z</time>
      </trkpt>
      <trkpt lat="48.68531" lon="1.75914">
        <ele>143</ele>
        <time>2013-08-17T13:22:33Z</time>
      </trkpt>
      <trkpt lat="48.68533" lon="1.75913">
        <ele>143</ele>
        <time>2013-08-17T13:22:36Z</time>
      </trkpt>
      <trkpt lat="48.68533" lon="1.7591">
        <ele>145</ele>
        <time>2013-08-17T13:22:39Z</time>
      </trkpt>
      <trkpt lat="48.68534" lon="1.75909">
        <ele>147</ele>
        <time>2013-08-17T13:22:42Z</time>
      </trkpt>
      <trkpt lat="48.68537" lon="1.75913">
        <ele>148</ele>
        <time>2013-08-17T13:22:44Z</time>
      </trkpt>
      <trkpt lat="48.68536" lon="1.75911">
        <ele>148</ele>
        <time>2013-08-17T13:22:49Z</time>
      </trkpt>
      <trkpt lat="48.68534" lon="1.75909">
        <ele>150</ele>
        <time>2013-08-17T13:22:56Z</time>
      </trkpt>
      <trkpt lat="48.68532" lon="1.75906">
        <ele>150</ele>
        <time>2013-08-17T13:22:59Z</time>
      </trkpt>
      <trkpt lat="48.68533" lon="1.75908">
        <ele>151</ele>
        <time>2013-08-17T13:23:09Z</time>
      </trkpt>
      <trkpt lat="48.68531" lon="1.75906">
        <ele>151</ele>
        <time>2013-08-17T13:23:11Z</time>
      </trkpt>
      <trkpt lat="48.68529" lon="1.75906">
        <ele>151</ele>
        <time>2013-08-17T13:23:19Z</time>
      </trkpt>
      <trkpt lat="48.68526" lon="1.75907">
        <ele>151</ele>
        <time>2013-08-17T13:23:27Z</time>
      </trkpt>
      <trkpt lat="48.68525" lon="1.75907">
        <ele>151</ele>
        <time>2013-08-17T13:23:29Z</time>
      </trkpt>
      <trkpt lat="48.68525" lon="1.75905">
        <ele>151</ele>
        <time>2013-08-17T13:23:35Z</time>
      </trkpt>
      <trkpt lat="48.68524" lon="1.75905">
        <ele>151</ele>
        <time>2013-08-17T13:23:39Z</time>
      </trkpt>
      <trkpt lat="48.68523" lon="1.75904">
        <ele>151</ele>
        <time>2013-08-17T13:23:45Z</time>
      </trkpt>
      <trkpt lat="48.68523" lon="1.75906">
        <ele>151</ele>
        <time>2013-08-17T13:23:55Z</time>
      </trkpt>
      <trkpt lat="48.68523" lon="1.75908">
        <ele>151</ele>
        <time>2013-08-17T13:24:00Z</time>
      </trkpt>
      <trkpt lat="48.68521" lon="1.7591">
        <ele>151</ele>
        <time>2013-08-17T13:24:02Z</time>
      </trkpt>
      <trkpt lat="48.6852" lon="1.7591">
        <ele>151</ele>
        <time>2013-08-17T13:24:05Z</time>
      </trkpt>
      <trkpt lat="48.68518" lon="1.7591">
        <ele>151</ele>
        <time>2013-08-17T13:24:07Z</time>
      </trkpt>
      <trkpt lat="48.68518" lon="1.75908">
        <ele>151</ele>
        <time>2013-08-17T13:24:10Z</time>
      </trkpt>
      <trkpt lat="48.6852" lon="1.75909">
        <ele>150</ele>
        <time>2013-08-17T13:24:12Z</time>
      </trkpt>
      <trkpt lat="48.68523" lon="1.75911">
        <ele>149</ele>
        <time>2013-08-17T13:24:14Z</time>
      </trkpt>
      <trkpt lat="48.68526" lon="1.75913">
        <ele>148</ele>
        <time>2013-08-17T13:24:16Z</time>
      </trkpt>
      <trkpt lat="48.68529" lon="1.75917">
        <ele>147</ele>
        <time>2013-08-17T13:24:19Z</time>
      </trkpt>
      <trkpt lat="48.6853" lon="1.75916">
        <ele>147</ele>
        <time>2013-08-17T13:24:38Z</time>
      </trkpt>
      <trkpt lat="48.68532" lon="1.75915">
        <ele>147</ele>
        <time>2013-08-17T13:24:48Z</time>
      </trkpt>
      <trkpt lat="48.68531" lon="1.75915">
        <ele>147</ele>
        <time>2013-08-17T13:25:11Z</time>
      </trkpt>
      <trkpt lat="48.68531" lon="1.75916">
        <ele>147</ele>
        <time>2013-08-17T13:25:17Z</time>
      </trkpt>
      <trkpt lat="48.68532" lon="1.75916">
        <ele>147</ele>
        <time>2013-08-17T13:25:19Z</time>
      </trkpt>
      <trkpt lat="48.68533" lon="1.75916">
        <ele>146</ele>
        <time>2013-08-17T13:25:22Z</time>
      </trkpt>
      <trkpt lat="48.68535" lon="1.75917">
        <ele>146</ele>
        <time>2013-08-17T13:25:35Z</time>
      </trkpt>
      <trkpt lat="48.68534" lon="1.75916">
        <ele>146</ele>
        <time>2013-08-17T13:25:47Z</time>
      </trkpt>
      <trkpt lat="48.68533" lon="1.75915">
        <ele>146</ele>
        <time>2013-08-17T13:25:49Z</time>
      </trkpt>
      <trkpt lat="48.68533" lon="1.75917">
        <ele>146</ele>
        <time>2013-08-17T13:25:53Z</time>
      </trkpt>
      <trkpt lat="48.68531" lon="1.75918">
        <ele>146</ele>
        <time>2013-08-17T13:26:04Z</time>
      </trkpt>
      <trkpt lat="48.68532" lon="1.75916">
        <ele>146</ele>
        <time>2013-08-17T13:26:14Z</time>
      </trkpt>
      <trkpt lat="48.68535" lon="1.75915">
        <ele>146</ele>
        <time>2013-08-17T13:26:16Z</time>
      </trkpt>
      <trkpt lat="48.68537" lon="1.75914">
        <ele>146</ele>
        <time>2013-08-17T13:26:19Z</time>
      </trkpt>
      <trkpt lat="48.6854" lon="1.75911">
        <ele>146</ele>
        <time>2013-08-17T13:26:21Z</time>
      </trkpt>
      <trkpt lat="48.68542" lon="1.75909">
        <ele>146</ele>
        <time>2013-08-17T13:26:24Z</time>
      </trkpt>
      <trkpt lat="48.68546" lon="1.75907">
        <ele>146</ele>
        <time>2013-08-17T13:26:26Z</time>
      </trkpt>
      <trkpt lat="48.68548" lon="1.75905">
        <ele>146</ele>
        <time>2013-08-17T13:26:29Z</time>
      </trkpt>
      <trkpt lat="48.68549" lon="1.75899">
        <ele>146</ele>
        <time>2013-08-17T13:26:31Z</time>
      </trkpt>
      <trkpt lat="48.68548" lon="1.75895">
        <ele>146</ele>
        <time>2013-08-17T13:26:34Z</time>
      </trkpt>
      <trkpt lat="48.68547" lon="1.75896">
        <ele>146</ele>
        <time>2013-08-17T13:26:40Z</time>
      </trkpt>
      <trkpt lat="48.6855" lon="1.75902">
        <ele>145</ele>
        <time>2013-08-17T13:26:42Z</time>
      </trkpt>
      <trkpt lat="48.68548" lon="1.75906">
        <ele>144</ele>
        <time>2013-08-17T13:26:44Z</time>
      </trkpt>
      <trkpt lat="48.68546" lon="1.75909">
        <ele>143</ele>
        <time>2013-08-17T13:26:47Z</time>
      </trkpt>
      <trkpt lat="48.68543" lon="1.75911">
        <ele>143</ele>
        <time>2013-08-17T13:26:50Z</time>
      </trkpt>
      <trkpt lat="48.68539" lon="1.75912">
        <ele>143</ele>
        <time>2013-08-17T13:26:53Z</time>
      </trkpt>
      <trkpt lat="48.68538" lon="1.75914">
        <ele>143</ele>
        <time>2013-08-17T13:27:06Z</time>
      </trkpt>
      <trkpt lat="48.68534" lon="1.75916">
        <ele>143</ele>
        <time>2013-08-17T13:27:09Z</time>
      </trkpt>
      <trkpt lat="48.68533" lon="1.75917">
        <ele>143</ele>
        <time>2013-08-17T13:27:11Z</time>
      </trkpt>
      <trkpt lat="48.68531" lon="1.75916">
        <ele>143</ele>
        <time>2013-08-17T13:27:18Z</time>
      </trkpt>
      <trkpt lat="48.6853" lon="1.75915">
        <ele>143</ele>
        <time>2013-08-17T13:27:20Z</time>
      </trkpt>
      <trkpt lat="48.68529" lon="1.75912">
        <ele>143</ele>
        <time>2013-08-17T13:27:22Z</time>
      </trkpt>
      <trkpt lat="48.68528" lon="1.7591">
        <ele>143</ele>
        <time>2013-08-17T13:27:24Z</time>
      </trkpt>
      <trkpt lat="48.68528" lon="1.75908">
        <ele>143</ele>
        <time>2013-08-17T13:27:26Z</time>
      </trkpt>
      <trkpt lat="48.68529" lon="1.7591">
        <ele>143</ele>
        <time>2013-08-17T13:27:29Z</time>
      </trkpt>
      <trkpt lat="48.6853" lon="1.75913">
        <ele>143</ele>
        <time>2013-08-17T13:27:31Z</time>
      </trkpt>
      <trkpt lat="48.68532" lon="1.75915">
        <ele>143</ele>
        <time>2013-08-17T13:27:33Z</time>
      </trkpt>
      <trkpt lat="48.68533" lon="1.75917">
        <ele>143</ele>
        <time>2013-08-17T13:27:35Z</time>
      </trkpt>
      <trkpt lat="48.68532" lon="1.75916">
        <ele>143</ele>
        <time>2013-08-17T13:27:43Z</time>
      </trkpt>
      <trkpt lat="48.68531" lon="1.75916">
        <ele>146</ele>
        <time>2013-08-17T13:28:11Z</time>
      </trkpt>
      <trkpt lat="48.6853" lon="1.75917">
        <ele>146</ele>
        <time>2013-08-17T13:28:25Z</time>
      </trkpt>
      <trkpt lat="48.68531" lon="1.75918">
        <ele>146</ele>
        <time>2013-08-17T13:28:30Z</time>
      </trkpt>
      <trkpt lat="48.6853" lon="1.75916">
        <ele>146</ele>
        <time>2013-08-17T13:28:32Z</time>
      </trkpt>
      <trkpt lat="48.68529" lon="1.75913">
        <ele>147</ele>
        <time>2013-08-17T13:28:37Z</time>
      </trkpt>
      <trkpt lat="48.68528" lon="1.75911">
        <ele>147</ele>
        <time>2013-08-17T13:28:44Z</time>
      </trkpt>
      <trkpt lat="48.68527" lon="1.75911">
        <ele>147</ele>
        <time>2013-08-17T13:28:49Z</time>
      </trkpt>
      <trkpt lat="48.68527" lon="1.75909">
        <ele>148</ele>
        <time>2013-08-17T13:28:52Z</time>
      </trkpt>
      <trkpt lat="48.68526" lon="1.75911">
        <ele>148</ele>
        <time>2013-08-17T13:28:56Z</time>
      </trkpt>
      <trkpt lat="48.68528" lon="1.7591">
        <ele>148</ele>
        <time>2013-08-17T13:29:04Z</time>
      </trkpt>
      <trkpt lat="48.68529" lon="1.75911">
        <ele>148</ele>
        <time>2013-08-17T13:29:08Z</time>
      </trkpt>
      <trkpt lat="48.6853" lon="1.75912">
        <ele>148</ele>
        <time>2013-08-17T13:29:12Z</time>
      </trkpt>
      <trkpt lat="48.6853" lon="1.75912">
        <ele>148</ele>
        <time>2013-08-17T13:29:16Z</time>
      </trkpt>
      <trkpt lat="48.68532" lon="1.75912">
        <ele>148</ele>
        <time>2013-08-17T13:29:19Z</time>
      </trkpt>
      <trkpt lat="48.68533" lon="1.75915">
        <ele>148</ele>
        <time>2013-08-17T13:29:22Z</time>
      </trkpt>
      <trkpt lat="48.68531" lon="1.75915">
        <ele>147</ele>
        <time>2013-08-17T13:29:28Z</time>
      </trkpt>
      <trkpt lat="48.68531" lon="1.75917">
        <ele>147</ele>
        <time>2013-08-17T13:29:31Z</time>
      </trkpt>
      <trkpt lat="48.68532" lon="1.75917">
        <ele>146</ele>
        <time>2013-08-17T13:29:34Z</time>
      </trkpt>
      <trkpt lat="48.68533" lon="1.75917">
        <ele>146</ele>
        <time>2013-08-17T13:29:37Z</time>
      </trkpt>
      <trkpt lat="48.68532" lon="1.75916">
        <ele>146</ele>
        <time>2013-08-17T13:29:43Z</time>
      </trkpt>
      <trkpt lat="48.68531" lon="1.75914">
        <ele>146</ele>
        <time>2013-08-17T13:29:45Z</time>
      </trkpt>
      <trkpt lat="48.6853" lon="1.75912">
        <ele>146</ele>
        <time>2013-08-17T13:29:47Z</time>
      </trkpt>
      <trkpt lat="48.68529" lon="1.7591">
        <ele>146</ele>
        <time>2013-08-17T13:29:50Z</time>
      </trkpt>
      <trkpt lat="48.68528" lon="1.75907">
        <ele>146</ele>
        <time>2013-08-17T13:29:53Z</time>
      </trkpt>
      <trkpt lat="48.68529" lon="1.75904">
        <ele>146</ele>
        <time>2013-08-17T13:29:56Z</time>
      </trkpt>
      <trkpt lat="48.68531" lon="1.75906">
        <ele>146</ele>
        <time>2013-08-17T13:30:01Z</time>
      </trkpt>
      <trkpt lat="48.6853" lon="1.75908">
        <ele>146</ele>
        <time>2013-08-17T13:30:11Z</time>
      </trkpt>
      <trkpt lat="48.6853" lon="1.75913">
        <ele>146</ele>
        <time>2013-08-17T13:30:13Z</time>
      </trkpt>
      <trkpt lat="48.68531" lon="1.75915">
        <ele>146</ele>
        <time>2013-08-17T13:30:15Z</time>
      </trkpt>
      <trkpt lat="48.68533" lon="1.75917">
        <ele>146</ele>
        <time>2013-08-17T13:30:17Z</time>
      </trkpt>
      <trkpt lat="48.68535" lon="1.75918">
        <ele>146</ele>
        <time>2013-08-17T13:30:20Z</time>
      </trkpt>
      <trkpt lat="48.68536" lon="1.75919">
        <ele>146</ele>
        <time>2013-08-17T13:30:25Z</time>
      </trkpt>
      <trkpt lat="48.68538" lon="1.75919">
        <ele>146</ele>
        <time>2013-08-17T13:30:28Z</time>
      </trkpt>
      <trkpt lat="48.68537" lon="1.75917">
        <ele>145</ele>
        <time>2013-08-17T13:30:41Z</time>
      </trkpt>
      <trkpt lat="48.68533" lon="1.75916">
        <ele>145</ele>
        <time>2013-08-17T13:30:44Z</time>
      </trkpt>
      <trkpt lat="48.68531" lon="1.75913">
        <ele>145</ele>
        <time>2013-08-17T13:30:46Z</time>
      </trkpt>
      <trkpt lat="48.6853" lon="1.75909">
        <ele>145</ele>
        <time>2013-08-17T13:30:48Z</time>
      </trkpt>
      <trkpt lat="48.68529" lon="1.75906">
        <ele>145</ele>
        <time>2013-08-17T13:30:51Z</time>
      </trkpt>
      <trkpt lat="48.68532" lon="1.75906">
        <ele>145</ele>
        <time>2013-08-17T13:30:59Z</time>
      </trkpt>
      <trkpt lat="48.6853" lon="1.75906">
        <ele>145</ele>
        <time>2013-08-17T13:31:04Z</time>
      </trkpt>
      <trkpt lat="48.6853" lon="1.75908">
        <ele>145</ele>
        <time>2013-08-17T13:31:06Z</time>
      </trkpt>
      <trkpt lat="48.68531" lon="1.75911">
        <ele>145</ele>
        <time>2013-08-17T13:31:08Z</time>
      </trkpt>
      <trkpt lat="48.68533" lon="1.75915">
        <ele>145</ele>
        <time>2013-08-17T13:31:11Z</time>
      </trkpt>
      <trkpt lat="48.68534" lon="1.75917">
        <ele>145</ele>
        <time>2013-08-17T13:31:13Z</time>
      </trkpt>
      <trkpt lat="48.68533" lon="1.75917">
        <ele>145</ele>
        <time>2013-08-17T13:31:21Z</time>
      </trkpt>
      <trkpt lat="48.68532" lon="1.75917">
        <ele>145</ele>
        <time>2013-08-17T13:31:34Z</time>
      </trkpt>
      <trkpt lat="48.6853" lon="1.75915">
        <ele>145</ele>
        <time>2013-08-17T13:31:36Z</time>
      </trkpt>
      <trkpt lat="48.68528" lon="1.75912">
        <ele>145</ele>
        <time>2013-08-17T13:31:38Z</time>
      </trkpt>
      <trkpt lat="48.68527" lon="1.75909">
        <ele>145</ele>
        <time>2013-08-17T13:31:40Z</time>
      </trkpt>
      <trkpt lat="48.68529" lon="1.75905">
        <ele>145</ele>
        <time>2013-08-17T13:31:43Z</time>
      </trkpt>
      <trkpt lat="48.68529" lon="1.75908">
        <ele>145</ele>
        <time>2013-08-17T13:31:47Z</time>
      </trkpt>
      <trkpt lat="48.6853" lon="1.75913">
        <ele>145</ele>
        <time>2013-08-17T13:31:50Z</time>
      </trkpt>
      <trkpt lat="48.68531" lon="1.75916">
        <ele>145</ele>
        <time>2013-08-17T13:31:52Z</time>
      </trkpt>
      <trkpt lat="48.68532" lon="1.75917">
        <ele>145</ele>
        <time>2013-08-17T13:31:54Z</time>
      </trkpt>
      <trkpt lat="48.68532" lon="1.75919">
        <ele>144</ele>
        <time>2013-08-17T13:32:01Z</time>
      </trkpt>
      <trkpt lat="48.68533" lon="1.75917">
        <ele>144</ele>
        <time>2013-08-17T13:32:05Z</time>
      </trkpt>
      <trkpt lat="48.68535" lon="1.75915">
        <ele>144</ele>
        <time>2013-08-17T13:32:07Z</time>
      </trkpt>
      <trkpt lat="48.68536" lon="1.75915">
        <ele>144</ele>
        <time>2013-08-17T13:32:09Z</time>
      </trkpt>
      <trkpt lat="48.68538" lon="1.75914">
        <ele>144</ele>
        <time>2013-08-17T13:32:11Z</time>
      </trkpt>
      <trkpt lat="48.6854" lon="1.75912">
        <ele>144</ele>
        <time>2013-08-17T13:32:13Z</time>
      </trkpt>
      <trkpt lat="48.68543" lon="1.75909">
        <ele>144</ele>
        <time>2013-08-17T13:32:16Z</time>
      </trkpt>
      <trkpt lat="48.68545" lon="1.75909">
        <ele>143</ele>
        <time>2013-08-17T13:32:18Z</time>
      </trkpt>
      <trkpt lat="48.68547" lon="1.75908">
        <ele>143</ele>
        <time>2013-08-17T13:32:20Z</time>
      </trkpt>
      <trkpt lat="48.6855" lon="1.75906">
        <ele>143</ele>
        <time>2013-08-17T13:32:22Z</time>
      </trkpt>
      <trkpt lat="48.68552" lon="1.75905">
        <ele>143</ele>
        <time>2013-08-17T13:32:24Z</time>
      </trkpt>
      <trkpt lat="48.68552" lon="1.75905">
        <ele>143</ele>
        <time>2013-08-17T13:32:29Z</time>
      </trkpt>
      <trkpt lat="48.68552" lon="1.75905">
        <ele>143</ele>
        <time>2013-08-17T13:32:30Z</time>
      </trkpt>
    </trkseg>
  </trk>
</gpx>